
Distance (Route):
Temperature : 24.3°C
Humidity : 51.9%
Pressure : 953.9hPa| Receiver | Frames | First received | Last received |
|---|---|---|---|
| BIOWL1-15 | 702 | 2026-09-04 16:58:47 | 2026-09-04 19:16:51 |
| DM0DOS-11 | 670 | 2026-09-04 16:58:04 | 2026-09-04 19:17:52 |
| DL1XH-west | 386 | 2026-09-04 17:35:50 | 2026-09-04 18:59:15 |
| HSKMA3-T | 339 | 2026-09-04 17:29:33 | 2026-09-04 19:07:41 |
| DL1XH1-15 | 287 | 2026-09-04 17:39:30 | 2026-09-04 18:59:19 |
| DO3MHA-11 | 220 | 2026-09-04 17:13:39 | 2026-09-04 19:18:20 |
| AA1-15 | 201 | 2026-09-04 18:05:07 | 2026-09-04 18:50:00 |
| DL1XH-15 | 158 | 2026-09-04 17:54:52 | 2026-09-04 18:53:44 |
| DJ2DS-15 | 133 | 2026-09-04 17:18:07 | 2026-09-04 19:00:41 |
| DF8AY | 118 | 2026-09-04 17:58:59 | 2026-09-04 19:06:07 |
| DB0UT-7 | 113 | 2026-09-04 16:47:05 | 2026-09-04 19:24:04 |
| DB0UT-9 | 108 | 2026-09-04 16:44:08 | 2026-09-04 19:23:36 |
| DK5PH-5 | 99 | 2026-09-04 16:53:45 | 2026-09-04 19:23:35 |
| DF7PN | 94 | 2026-09-04 16:51:29 | 2026-09-04 19:23:40 |
| DB0ND-19 | 93 | 2026-09-04 16:48:14 | 2026-09-04 19:23:26 |
| HARRO8 | 93 | 2026-09-04 16:49:35 | 2026-09-04 19:23:50 |
| DL1ZP-14 | 93 | 2026-09-04 16:50:30 | 2026-09-04 19:23:13 |
| NBG1-10 | 90 | 2026-09-04 17:10:31 | 2026-09-04 19:23:31 |
| DO3DL | 88 | 2026-09-04 17:13:23 | 2026-09-04 18:56:49 |
| DF2AP-13 | 75 | 2026-09-04 17:19:06 | 2026-09-04 19:16:42 |
| BIOWL9-15 | 65 | 2026-09-04 17:00:33 | 2026-09-04 19:15:05 |
| DL9PN | 63 | 2026-09-04 16:48:00 | 2026-09-04 18:59:31 |
| CB1BUN | 63 | 2026-09-04 16:48:32 | 2026-09-04 19:10:44 |
| DL3AQ-11 | 60 | 2026-09-04 17:50:47 | 2026-09-04 18:54:46 |
| HEMX73-11 | 59 | 2026-09-04 16:49:31 | 2026-09-04 19:01:11 |
| DM7RM-13 | 59 | 2026-09-04 17:10:00 | 2026-09-04 19:23:30 |
| DD1CC8 | 54 | 2026-09-04 17:21:45 | 2026-09-04 19:07:58 |
| DM3KS-11 | 52 | 2026-09-04 16:53:15 | 2026-09-04 18:53:20 |
| DB0NH | 51 | 2026-09-04 17:08:01 | 2026-09-04 19:24:23 |
| DL4BBY-15 | 51 | 2026-09-04 17:27:34 | 2026-09-04 19:01:20 |
| DL0LBS | 45 | 2026-09-04 17:45:28 | 2026-09-04 19:23:16 |
| SFWM-10 | 43 | 2026-09-04 17:33:31 | 2026-09-04 19:22:40 |
| DO1YAY-16 | 41 | 2026-09-04 17:08:38 | 2026-09-04 18:55:49 |
| DF1GD-15 | 41 | 2026-09-04 17:27:10 | 2026-09-04 19:17:14 |
| BIOWL7-15 | 39 | 2026-09-04 17:02:21 | 2026-09-04 19:16:30 |
| AM1SDL-15 | 39 | 2026-09-04 17:33:36 | 2026-09-04 19:05:04 |
| AU51GT2 | 38 | 2026-09-04 17:11:03 | 2026-09-04 19:02:45 |
| DF3TZ-5 | 32 | 2026-09-04 17:10:09 | 2026-09-04 19:13:47 |
| KANTATE | 32 | 2026-09-04 17:30:27 | 2026-09-04 19:07:49 |
| DC4HF-4 | 27 | 2026-09-04 17:31:19 | 2026-09-04 19:02:38 |
| SONCRA | 25 | 2026-09-04 17:40:52 | 2026-09-04 18:53:51 |
| DO2KSM | 24 | 2026-09-04 17:32:47 | 2026-09-04 18:56:50 |
| DJ2KF-10 | 23 | 2026-09-04 17:24:12 | 2026-09-04 18:50:59 |
| DH7VM-15 | 20 | 2026-09-04 16:57:22 | 2026-09-04 19:05:01 |
| SONDE2-11 | 20 | 2026-09-04 17:59:55 | 2026-09-04 18:49:36 |
| DJTTGO | 19 | 2026-09-04 17:33:50 | 2026-09-04 19:12:09 |
| DK7TD | 17 | 2026-09-04 17:45:09 | 2026-09-04 19:07:20 |
| DL1KLB | 17 | 2026-09-04 18:12:38 | 2026-09-04 19:01:30 |
| EDDB2-12 | 15 | 2026-09-04 18:11:41 | 2026-09-04 18:55:39 |
| EDDB2-11 | 14 | 2026-09-04 18:12:51 | 2026-09-04 18:53:12 |
| GOEST3-10 | 12 | 2026-09-04 18:35:00 | 2026-09-04 18:40:49 |
| PG1ADW-2 | 11 | 2026-09-04 18:26:40 | 2026-09-04 18:39:29 |
| DL1NUX | 9 | 2026-09-04 19:06:33 | 2026-09-04 19:08:17 |
| DL6DJ-15 | 6 | 2026-09-04 18:04:54 | 2026-09-04 18:45:48 |
| BUE01 | 6 | 2026-09-04 18:25:29 | 2026-09-04 18:47:18 |
| IW2NTF | 5 | 2026-09-04 18:29:03 | 2026-09-04 18:31:12 |
| DO9LL-15 | 4 | 2026-09-04 17:34:14 | 2026-09-04 18:27:48 |
| OE5DRO-10 | 4 | 2026-09-04 18:22:40 | 2026-09-04 18:35:49 |
| HEMX73-6 | 3 | 2026-09-04 17:12:40 | 2026-09-04 18:58:22 |
| DJ3KS | 3 | 2026-09-04 17:14:25 | 2026-09-04 17:15:42 |
| DG1MJG | 3 | 2026-09-04 18:08:28 | 2026-09-04 18:51:11 |
| DL8OAI-8 | 2 | 2026-09-04 17:44:48 | 2026-09-04 17:45:50 |
| BEGRI65-1 | 2 | 2026-09-04 17:48:16 | 2026-09-04 17:50:25 |
| DL2OL | 2 | 2026-09-04 18:34:38 | 2026-09-04 18:36:21 |
| OE5DXL-15 | 2 | 2026-09-04 18:34:58 | 2026-09-04 18:35:28 |
| SO1NDE-10 | 2 | 2026-09-04 19:07:32 | 2026-09-04 19:08:02 |
| HTAHTA | 1 | 2026-09-04 18:33:53 | 2026-09-04 18:33:53 |
| Receiver | Date | Latitude | Longitude | Direction | Speed | Altitude | Climb | Temperature | Humidity | Pressure | Voltage | Killtimer | Uptime | BKT | XDATA |
|---|---|---|---|---|---|---|---|---|---|---|---|---|---|---|---|
| DB0NH | 2026-09-04 19:24:23 | 49.79313 | 9.57208 | 99° | 44km/h | 561m | -10.3m/s | 24.3°C | 51.9% | 953.9hPa | 2.7V | 02:24:00 | 02:54:33 | 00:00:00 | |
| DB0NH | 2026-09-04 19:24:14 | 49.79324 | 9.57060 | 98° | 49km/h | 661m | -13.0m/s | 23.4°C | 54.2% | 943.3hPa | 2.7V | 00:00:00 | 02:54:24 | 00:00:00 | |
| DB0NH | 2026-09-04 19:24:09 | 49.79332 | 9.56964 | 91° | 49km/h | 720m | -8.9m/s | 22.8°C | 55.8% | 936.5hPa | 2.7V | 00:00:00 | 02:54:19 | 00:00:00 | |
| DB0UT-7 | 2026-09-04 19:24:04 | 49.79334 | 9.56867 | 92° | 49km/h | 775m | -10.7m/s | 22.3°C | 57.2% | 930.8hPa | 2.7V | 00:00:00 | 02:54:14 | 00:00:00 | |
| DB0NH | 2026-09-04 19:24:04 | 49.79334 | 9.56867 | 92° | 49km/h | 775m | -10.7m/s | 22.3°C | 57.2% | 930.8hPa | 2.7V | 02:24:00 | 02:54:14 | 00:00:00 | |
| HARRO8 | 2026-09-04 19:23:50 | 49.79338 | 9.56565 | 94° | 55km/h | 936m | -11.1m/s | 20.8°C | 62.5% | 913.7hPa | 2.6V | 00:00:00 | 00:00:00 | 00:00:00 | |
| DB0NH | 2026-09-04 19:23:49 | 49.79338 | 9.56564 | 95° | 57km/h | 936m | -11.1m/s | 20.7°C | 61.7% | 913.6hPa | 2.6V | 02:24:00 | 02:53:59 | 00:00:00 | |
| DB0UT-7 | 2026-09-04 19:23:49 | 49.79338 | 9.56564 | 95° | 57km/h | 936m | -11.1m/s | 20.7°C | 61.7% | 913.6hPa | 2.7V | 00:00:00 | 00:00:00 | 00:00:00 | |
| DB0NH | 2026-09-04 19:23:44 | 49.79340 | 9.56453 | 91° | 58km/h | 990m | -11.3m/s | 20.3°C | 63.2% | 907.8hPa | 2.7V | 00:00:00 | 02:53:54 | 00:00:00 | |
| DB0UT-7 | 2026-09-04 19:23:44 | 49.79340 | 9.56453 | 91° | 58km/h | 990m | -11.3m/s | 20.3°C | 63.2% | 907.8hPa | 2.7V | 00:00:00 | 02:53:54 | 00:00:00 | |
| DF7PN | 2026-09-04 19:23:40 | 49.79342 | 9.56362 | 93° | 58km/h | 1033m | -10.4m/s | 20.0°C | 65.0% | 903.4hPa | 2.7V | 00:00:00 | 00:00:00 | 00:00:00 | |
| DB0NH | 2026-09-04 19:23:38 | 49.79343 | 9.56316 | 94° | 60km/h | 1056m | -11.6m/s | 19.7°C | 64.7% | 901.0hPa | 2.7V | 00:00:00 | 02:53:48 | 00:00:00 | |
| DB0UT-7 | 2026-09-04 19:23:36 | 49.79343 | 9.56268 | 91° | 58km/h | 1078m | -11.1m/s | 19.5°C | 65.3% | 898.6hPa | 2.7V | 02:25:00 | 00:00:00 | 00:00:00 | |
| DB0UT-9 | 2026-09-04 19:23:36 | 49.79343 | 9.56268 | 92° | 60km/h | 1078m | -11.1m/s | 19.6°C | 66.1% | 898.7hPa | 2.7V | 02:25:00 | 00:00:00 | 00:00:00 | |
| DK5PH-5 | 2026-09-04 19:23:35 | 49.79343 | 9.56245 | 90° | 58km/h | 1089m | -10.9m/s | 19.4°C | 65.7% | 897.5hPa | 2.7V | 00:00:00 | 02:53:45 | 00:00:00 | |
| NBG1-10 | 2026-09-04 19:23:31 | 49.79343 | 9.56151 | 89° | 58km/h | 1132m | -11.3m/s | 19.0°C | 67.1% | 893.1hPa | 2.7V | 00:00:00 | 02:53:41 | 00:00:00 | |
| DM7RM-13 | 2026-09-04 19:23:30 | 49.79343 | 9.56151 | 90° | 60km/h | 1132m | -11.3m/s | 19.0°C | 67.9% | 893.1hPa | 2.7V | 02:25:00 | 00:00:00 | 00:00:00 | |
| DB0NH | 2026-09-04 19:23:28 | 49.79342 | 9.56081 | 90° | 58km/h | 1164m | -10.9m/s | 18.7°C | 68.1% | 889.6hPa | 2.7V | 02:25:00 | 02:53:38 | 00:00:00 | |
| DB0ND-19 | 2026-09-04 19:23:26 | 49.79342 | 9.56035 | 88° | 58km/h | 1187m | -11.6m/s | 18.6°C | 69.3% | 887.5hPa | 2.6V | 00:00:00 | 00:00:00 | 00:00:00 | |
| DK5PH-5 | 2026-09-04 19:23:25 | 49.79341 | 9.56012 | 86° | 58km/h | 1198m | -12.2m/s | 18.5°C | 68.8% | 886.2hPa | 2.6V | 02:25:00 | 02:53:35 | 00:00:00 | |
| NBG1-10 | 2026-09-04 19:23:24 | 49.79340 | 9.55989 | 87° | 60km/h | 1210m | -11.7m/s | 18.3°C | 69.2% | 884.9hPa | 2.7V | 00:00:00 | 02:53:34 | 00:00:00 | |
| DB0UT-7 | 2026-09-04 19:23:20 | 49.79337 | 9.55896 | 88° | 60km/h | 1251m | -10.2m/s | 18.0°C | 70.7% | 880.7hPa | 2.7V | 00:00:00 | 02:53:30 | 00:00:00 | |
| HARRO8 | 2026-09-04 19:23:19 | 49.79335 | 9.55850 | 87° | 60km/h | 1272m | -9.3m/s | 17.8°C | 72.1% | 878.6hPa | 2.7V | 00:00:00 | 00:00:00 | 00:00:00 | |
| DB0NH | 2026-09-04 19:23:18 | 49.79335 | 9.55850 | 88° | 62km/h | 1272m | -9.2m/s | 17.8°C | 71.3% | 878.6hPa | 2.7V | 00:00:00 | 02:53:28 | 00:00:00 | |
| NBG1-10 | 2026-09-04 19:23:17 | 49.79335 | 9.55826 | 85° | 62km/h | 1282m | -10.7m/s | 17.7°C | 71.5% | 877.6hPa | 2.7V | 02:25:00 | 02:53:27 | 00:00:00 | |
| DL0LBS | 2026-09-04 19:23:16 | 49.79334 | 9.55826 | 86° | 60km/h | 1282m | -10.8m/s | 17.7°C | 72.3% | 877.7hPa | 2.7V | 02:25:00 | 00:00:00 | 00:00:00 | |
| DK5PH-5 | 2026-09-04 19:23:15 | 49.79332 | 9.55779 | 87° | 62km/h | 1302m | -9.8m/s | 17.5°C | 72.1% | 875.5hPa | 2.7V | 00:00:00 | 02:53:25 | 00:00:00 | |
| DB0UT-9 | 2026-09-04 19:23:14 | 49.79332 | 9.55779 | 87° | 64km/h | 1302m | -9.8m/s | 17.6°C | 72.8% | 875.6hPa | 2.7V | 02:25:00 | 00:00:00 | 00:00:00 | |
| DL1ZP-14 | 2026-09-04 19:23:13 | 49.79329 | 9.55706 | 84° | 60km/h | 1332m | -10.4m/s | 17.4°C | 73.2% | 872.5hPa | 2.7V | 00:00:00 | 00:00:00 | 00:00:00 | |
| DM7RM-13 | 2026-09-04 19:23:10 | 49.79327 | 9.55681 | 88° | 62km/h | 1343m | -10.6m/s | 17.3°C | 73.4% | 871.5hPa | 2.6V | 02:26:00 | 00:00:00 | 00:00:00 | |
| DB0UT-7 | 2026-09-04 19:23:10 | 49.79326 | 9.55656 | 85° | 64km/h | 1354m | -10.5m/s | 17.2°C | 73.1% | 870.4hPa | 2.6V | 00:00:00 | 00:00:00 | 00:00:00 | |
| NBG1-10 | 2026-09-04 19:23:10 | 49.79326 | 9.55656 | 85° | 62km/h | 1354m | -10.5m/s | 17.2°C | 73.1% | 870.4hPa | 2.6V | 00:00:00 | 02:53:20 | 00:00:00 | |
| DF7PN | 2026-09-04 19:23:09 | 49.79323 | 9.55607 | 84° | 62km/h | 1375m | -10.8m/s | 17.1°C | 74.4% | 868.2hPa | 2.6V | 00:00:00 | 00:00:00 | 00:00:00 | |
| DB0NH | 2026-09-04 19:23:08 | 49.79323 | 9.55607 | 85° | 64km/h | 1375m | -10.8m/s | 17.0°C | 73.6% | 868.2hPa | 2.6V | 00:00:00 | 02:53:18 | 00:00:00 | |
| DK5PH-5 | 2026-09-04 19:23:05 | 49.79317 | 9.55534 | 84° | 64km/h | 1407m | -10.4m/s | 16.7°C | 74.7% | 865.1hPa | 2.6V | 00:00:00 | 02:53:15 | 00:00:00 | |
| DB0ND-19 | 2026-09-04 19:22:55 | 49.79300 | 9.55282 | 86° | 66km/h | 1504m | -9.7m/s | 15.9°C | 78.3% | 855.4hPa | 2.6V | 00:00:00 | 00:00:00 | 00:00:00 | |
| HARRO8 | 2026-09-04 19:22:48 | 49.79291 | 9.55075 | 85° | 66km/h | 1577m | -9.8m/s | 15.2°C | 80.8% | 847.9hPa | 2.6V | 00:00:00 | 00:00:00 | 00:00:00 | |
| DK5PH-5 | 2026-09-04 19:22:45 | 49.79288 | 9.55023 | 85° | 68km/h | 1597m | -10.4m/s | 14.9°C | 80.2% | 845.8hPa | 2.6V | 00:00:00 | 02:52:55 | 00:00:00 | |
| SFWM-10 | 2026-09-04 19:22:40 | 49.79282 | 9.54917 | 85° | 69km/h | 1635m | -10.2m/s | 14.7°C | 82.0% | 842.0hPa | 2.6V | 02:26:00 | 00:00:00 | 00:00:00 | |
| DB0NH | 2026-09-04 19:22:38 | 49.79277 | 9.54838 | 84° | 69km/h | 1666m | -11.9m/s | 14.3°C | 82.6% | 839.1hPa | 2.6V | 00:00:00 | 02:52:48 | 00:00:00 | |
| DB0UT-7 | 2026-09-04 19:22:36 | 49.79273 | 9.54784 | 84° | 69km/h | 1688m | -11.0m/s | 14.1°C | 83.3% | 836.9hPa | 2.6V | 00:00:00 | 02:52:46 | 00:00:00 | |
| DL0LBS | 2026-09-04 19:22:35 | 49.79273 | 9.54784 | 84° | 68km/h | 1688m | -11.0m/s | 14.2°C | 84.1% | 836.9hPa | 2.6V | 02:26:00 | 00:00:00 | 00:00:00 | |
| DK5PH-5 | 2026-09-04 19:22:35 | 49.79272 | 9.54757 | 87° | 69km/h | 1699m | -9.9m/s | 14.0°C | 83.8% | 835.9hPa | 2.6V | 00:00:00 | 02:52:45 | 00:00:00 | |
| DB0UT-9 | 2026-09-04 19:22:33 | 49.79271 | 9.54730 | 85° | 68km/h | 1709m | -10.7m/s | 13.9°C | 85.0% | 834.9hPa | 2.6V | 02:26:00 | 00:00:00 | 00:00:00 | |
| DM7RM-13 | 2026-09-04 19:22:29 | 49.79264 | 9.54623 | 86° | 71km/h | 1750m | -10.5m/s | 13.6°C | 86.2% | 831.1hPa | 2.6V | 02:26:00 | 00:00:00 | 00:00:00 | |
| DB0NH | 2026-09-04 19:22:28 | 49.79260 | 9.54569 | 85° | 71km/h | 1772m | -10.5m/s | 13.3°C | 86.8% | 828.7hPa | 2.6V | 02:26:00 | 02:52:38 | 00:00:00 | |
| DB0UT-7 | 2026-09-04 19:22:26 | 49.79258 | 9.54515 | 85° | 71km/h | 1793m | -9.9m/s | 13.0°C | 88.2% | 826.6hPa | 2.7V | 02:26:00 | 00:00:00 | 00:00:00 | |
| NBG1-10 | 2026-09-04 19:22:26 | 49.79258 | 9.54515 | 85° | 73km/h | 1793m | -9.9m/s | 13.0°C | 88.2% | 826.6hPa | 2.7V | 00:00:00 | 02:52:36 | 00:00:00 | |
| DK5PH-5 | 2026-09-04 19:22:25 | 49.79256 | 9.54488 | 87° | 71km/h | 1804m | -10.0m/s | 12.9°C | 88.5% | 825.7hPa | 2.7V | 02:26:00 | 02:52:35 | 00:00:00 | |
| DB0ND-19 | 2026-09-04 19:22:24 | 49.79255 | 9.54460 | 84° | 71km/h | 1812m | -8.7m/s | 12.8°C | 89.7% | 824.7hPa | 2.6V | 00:00:00 | 00:00:00 | 00:00:00 | |
| SFWM-10 | 2026-09-04 19:22:19 | 49.79249 | 9.54349 | 85° | 69km/h | 1852m | -11.0m/s | 12.2°C | 92.0% | 820.8hPa | 2.6V | 02:27:00 | 00:00:00 | 00:00:00 | |
| DB0NH | 2026-09-04 19:22:18 | 49.79245 | 9.54294 | 85° | 73km/h | 1873m | -9.5m/s | 11.9°C | 92.3% | 818.9hPa | 2.6V | 00:00:00 | 02:52:28 | 00:00:00 | |
| DB0UT-7 | 2026-09-04 19:22:16 | 49.79242 | 9.54238 | 85° | 73km/h | 1893m | -8.8m/s | 11.7°C | 93.4% | 816.8hPa | 2.6V | 00:00:00 | 02:52:26 | 00:00:00 | |
| DL0LBS | 2026-09-04 19:22:15 | 49.79242 | 9.54238 | 85° | 73km/h | 1893m | -8.8m/s | 11.8°C | 94.0% | 816.9hPa | 2.6V | 02:27:00 | 00:00:00 | 00:00:00 | |
| DK5PH-5 | 2026-09-04 19:22:15 | 49.79241 | 9.54209 | 88° | 73km/h | 1902m | -10.2m/s | 11.6°C | 93.3% | 816.0hPa | 2.6V | 00:00:00 | 02:52:25 | 00:00:00 | |
| DB0UT-9 | 2026-09-04 19:22:13 | 49.79239 | 9.54181 | 85° | 71km/h | 1913m | -11.4m/s | 11.6°C | 94.9% | 815.3hPa | 2.6V | 02:27:00 | 00:00:00 | 00:00:00 | |
| DM7RM-13 | 2026-09-04 19:22:09 | 49.79234 | 9.54068 | 87° | 75km/h | 1955m | -10.3m/s | 11.2°C | 94.7% | 811.0hPa | 2.6V | 02:27:00 | 00:00:00 | 00:00:00 | |
| DB0NH | 2026-09-04 19:22:08 | 49.79232 | 9.54010 | 86° | 73km/h | 1974m | -9.6m/s | 11.0°C | 94.5% | 808.9hPa | 2.6V | 00:00:00 | 02:52:18 | 00:00:00 | |
| DF7PN | 2026-09-04 19:22:07 | 49.79229 | 9.53952 | 85° | 73km/h | 1992m | -9.5m/s | 10.9°C | 95.8% | 807.3hPa | 2.6V | 00:00:00 | 00:00:00 | 00:00:00 | |
| DB0UT-7 | 2026-09-04 19:22:06 | 49.79229 | 9.53952 | 86° | 73km/h | 1993m | -9.5m/s | 10.8°C | 95.1% | 807.3hPa | 2.6V | 00:00:00 | 00:00:00 | 00:00:00 | |
| DK5PH-5 | 2026-09-04 19:22:05 | 49.79228 | 9.53923 | 86° | 75km/h | 2001m | -7.6m/s | 10.8°C | 95.4% | 806.2hPa | 2.6V | 00:00:00 | 02:52:15 | 00:00:00 | |
| NBG1-10 | 2026-09-04 19:22:04 | 49.79227 | 9.53894 | 89° | 75km/h | 2010m | -8.4m/s | 10.7°C | 95.1% | 805.4hPa | 2.6V | 02:26:00 | 02:52:14 | 00:00:00 | |
| SFWM-10 | 2026-09-04 19:21:59 | 49.79223 | 9.53779 | 87° | 73km/h | 2044m | -9.3m/s | 10.5°C | 96.8% | 802.2hPa | 2.7V | 02:27:00 | 00:00:00 | 00:00:00 | |
| DB0NH | 2026-09-04 19:21:58 | 49.79220 | 9.53723 | 86° | 75km/h | 2062m | -9.3m/s | 10.3°C | 96.5% | 800.5hPa | 2.7V | 02:26:00 | 02:52:08 | 00:00:00 | |
| DB0UT-7 | 2026-09-04 19:21:56 | 49.79218 | 9.53665 | 85° | 75km/h | 2082m | -9.5m/s | 10.2°C | 96.9% | 798.6hPa | 2.6V | 02:26:00 | 02:52:06 | 00:00:00 | |
| DL0LBS | 2026-09-04 19:21:54 | 49.79216 | 9.53636 | 87° | 75km/h | 2092m | -9.2m/s | 10.2°C | 97.7% | 797.5hPa | 2.7V | 02:27:00 | 00:00:00 | 00:00:00 | |
| DB0UT-9 | 2026-09-04 19:21:53 | 49.79214 | 9.53607 | 88° | 73km/h | 2101m | -9.3m/s | 10.1°C | 98.0% | 796.7hPa | 2.7V | 02:27:00 | 00:00:00 | 00:00:00 | |
| DM7RM-13 | 2026-09-04 19:21:49 | 49.79210 | 9.53488 | 88° | 78km/h | 2136m | -9.5m/s | 9.9°C | 98.7% | 793.6hPa | 2.7V | 02:27:00 | 00:00:00 | 00:00:00 | |
| DK5PH-5 | 2026-09-04 19:21:45 | 49.79204 | 9.53341 | 86° | 77km/h | 2183m | -10.5m/s | 9.6°C | 99.0% | 788.9hPa | 2.7V | 02:26:00 | 02:51:55 | 00:00:00 | |
| NBG1-10 | 2026-09-04 19:21:42 | 49.79199 | 9.53251 | 85° | 77km/h | 2213m | -9.4m/s | 9.4°C | 0% | 786.1hPa | 2.7V | 00:00:00 | 02:51:52 | 00:00:00 | |
| DL1ZP-14 | 2026-09-04 19:21:39 | 49.79194 | 9.53161 | 86° | 77km/h | 2240m | -10.0m/s | 9.3°C | 100.0% | 783.6hPa | 2.7V | 00:00:00 | 00:00:00 | 00:00:00 | |
| DB0NH | 2026-09-04 19:21:38 | 49.79192 | 9.53130 | 86° | 77km/h | 2250m | -8.9m/s | 9.2°C | 0% | 782.7hPa | 2.7V | 00:00:00 | 02:51:48 | 00:00:00 | |
| DB0UT-7 | 2026-09-04 19:21:33 | 49.79183 | 9.52977 | 87° | 80km/h | 2296m | -10.1m/s | 9.0°C | 0% | 778.4hPa | 2.7V | 00:00:00 | 00:00:00 | 00:00:00 | |
| DB0UT-9 | 2026-09-04 19:21:29 | 49.79179 | 9.52886 | 86° | 78km/h | 2325m | -9.0m/s | 8.5°C | 99.3% | 775.8hPa | 2.7V | 02:28:00 | 00:00:00 | 00:00:00 | |
| DM7RM-13 | 2026-09-04 19:21:28 | 49.79177 | 9.52856 | 86° | 78km/h | 2334m | -8.3m/s | 8.4°C | 99.4% | 774.8hPa | 2.7V | 02:28:00 | 00:00:00 | 00:00:00 | |
| DK5PH-5 | 2026-09-04 19:21:25 | 49.79169 | 9.52736 | 87° | 77km/h | 2368m | -9.8m/s | 8.3°C | 99.7% | 771.5hPa | 2.7V | 00:00:00 | 02:51:35 | 00:00:00 | |
| DB0ND-19 | 2026-09-04 19:21:22 | 49.79165 | 9.52645 | 87° | 75km/h | 2398m | -8.4m/s | 8.4°C | 100.0% | 768.9hPa | 2.7V | 00:00:00 | 00:00:00 | 00:00:00 | |
| NBG1-10 | 2026-09-04 19:21:20 | 49.79162 | 9.52586 | 87° | 78km/h | 2414m | -8.6m/s | 7.7°C | 0% | 767.1hPa | 2.7V | 00:00:00 | 02:51:30 | 00:00:00 | |
| DB0NH | 2026-09-04 19:21:18 | 49.79160 | 9.52526 | 88° | 78km/h | 2430m | -7.1m/s | 7.8°C | 0% | 765.6hPa | 2.7V | 00:00:00 | 02:51:28 | 00:00:00 | |
| HARRO8 | 2026-09-04 19:21:14 | 49.79156 | 9.52406 | 88° | 77km/h | 2465m | -10.1m/s | 7.3°C | 100.0% | 762.6hPa | 2.7V | 00:00:00 | 00:00:00 | 00:00:00 | |
| DL0LBS | 2026-09-04 19:21:13 | 49.79156 | 9.52406 | 89° | 78km/h | 2465m | -10.1m/s | 7.3°C | 99.9% | 762.6hPa | 2.7V | 02:28:00 | 00:00:00 | 00:00:00 | |
| DM7RM-13 | 2026-09-04 19:21:07 | 49.79154 | 9.52223 | 91° | 77km/h | 2520m | -9.3m/s | 7.1°C | 95.2% | 757.4hPa | 2.7V | 02:28:00 | 00:00:00 | 00:00:00 | |
| DF7PN | 2026-09-04 19:21:05 | 49.79155 | 9.52101 | 91° | 78km/h | 2555m | -9.0m/s | 7.3°C | 93.0% | 754.1hPa | 2.7V | 00:00:00 | 00:00:00 | 00:00:00 | |
| DB0ND-19 | 2026-09-04 19:20:51 | 49.79178 | 9.51592 | 94° | 80km/h | 2700m | -9.2m/s | 6.9°C | 90.2% | 741.0hPa | 2.7V | 00:00:00 | 00:00:00 | 00:00:00 | |
| DM7RM-13 | 2026-09-04 19:20:46 | 49.79180 | 9.51560 | 97° | 82km/h | 2709m | -9.0m/s | 6.9°C | 88.8% | 740.2hPa | 2.7V | 02:28:00 | 00:00:00 | 00:00:00 | |
| DK5PH-5 | 2026-09-04 19:20:45 | 49.79185 | 9.51495 | 96° | 82km/h | 2727m | -9.0m/s | 6.8°C | 86.4% | 738.5hPa | 2.7V | 02:27:00 | 02:50:55 | 00:00:00 | |
| HARRO8 | 2026-09-04 19:20:43 | 49.79190 | 9.51430 | 97° | 82km/h | 2745m | -8.6m/s | 6.8°C | 86.0% | 737.0hPa | 2.6V | 00:00:00 | 00:00:00 | 00:00:00 | |
| DB0NH | 2026-09-04 19:20:38 | 49.79199 | 9.51268 | 96° | 84km/h | 2792m | -8.4m/s | 6.5°C | 86.2% | 732.9hPa | 2.6V | 00:00:00 | 02:50:48 | 00:00:00 | |
| DL1ZP-14 | 2026-09-04 19:20:37 | 49.79204 | 9.51203 | 96° | 82km/h | 2808m | -8.9m/s | 6.4°C | 86.6% | 731.6hPa | 2.6V | 00:00:00 | 00:00:00 | 00:00:00 | |
| NBG1-10 | 2026-09-04 19:20:36 | 49.79204 | 9.51203 | 97° | 84km/h | 2808m | -8.8m/s | 6.3°C | 86.3% | 731.5hPa | 2.7V | 00:00:00 | 02:50:46 | 00:00:00 | |
| DF7PN | 2026-09-04 19:20:34 | 49.79212 | 9.51107 | 96° | 82km/h | 2834m | -8.2m/s | 6.2°C | 85.8% | 729.2hPa | 2.7V | 00:00:00 | 00:00:00 | 00:00:00 | |
| DL0LBS | 2026-09-04 19:20:32 | 49.79211 | 9.51106 | 97° | 84km/h | 2834m | -8.2m/s | 6.2°C | 85.8% | 729.2hPa | 2.7V | 02:28:00 | 00:00:00 | 00:00:00 | |
| DB0UT-9 | 2026-09-04 19:20:31 | 49.79214 | 9.51075 | 95° | 82km/h | 2843m | -8.8m/s | 6.1°C | 86.2% | 728.4hPa | 2.7V | 02:28:00 | 00:00:00 | 00:00:00 | |
| DM7RM-13 | 2026-09-04 19:20:26 | 49.79222 | 9.50912 | 94° | 84km/h | 2885m | -8.5m/s | 5.8°C | 84.9% | 724.7hPa | 2.7V | 02:28:00 | 00:00:00 | 00:00:00 | |
| DK5PH-5 | 2026-09-04 19:20:25 | 49.79224 | 9.50847 | 93° | 84km/h | 2902m | -9.0m/s | 5.6°C | 87.1% | 723.2hPa | 2.7V | 00:00:00 | 02:50:35 | 00:00:00 | |
| DB0ND-19 | 2026-09-04 19:20:20 | 49.79231 | 9.50680 | 92° | 82km/h | 2944m | -8.9m/s | 5.4°C | 94.1% | 719.4hPa | 2.7V | 00:00:00 | 00:00:00 | 00:00:00 | |
| DB0NH | 2026-09-04 19:20:18 | 49.79234 | 9.50614 | 94° | 84km/h | 2962m | -8.8m/s | 5.3°C | 96.8% | 717.9hPa | 2.7V | 00:00:00 | 02:50:28 | 00:00:00 | |
| SFWM-10 | 2026-09-04 19:20:15 | 49.79236 | 9.50548 | 94° | 84km/h | 2980m | -7.9m/s | 5.5°C | 82.0% | 716.3hPa | 2.7V | 02:28:00 | 00:00:00 | 00:00:00 | |
| NBG1-10 | 2026-09-04 19:20:14 | 49.79238 | 9.50482 | 92° | 84km/h | 2997m | -8.5m/s | 5.4°C | 83.4% | 714.7hPa | 2.7V | 00:00:00 | 02:50:24 | 00:00:00 | |
| HARRO8 | 2026-09-04 19:20:12 | 49.79238 | 9.50417 | 91° | 82km/h | 3015m | -8.5m/s | 5.3°C | 85.0% | 713.5hPa | 2.7V | 00:00:00 | 00:00:00 | 00:00:00 | |
| DL0LBS | 2026-09-04 19:20:11 | 49.79238 | 9.50417 | 93° | 82km/h | 3015m | -8.5m/s | 5.3°C | 84.9% | 713.5hPa | 2.7V | 02:28:00 | 00:00:00 | 00:00:00 | |
| DB0UT-9 | 2026-09-04 19:20:10 | 49.79238 | 9.50385 | 92° | 84km/h | 3024m | -9.7m/s | 5.3°C | 84.7% | 712.6hPa | 2.7V | 02:28:00 | 00:00:00 | 00:00:00 | |
| DL1ZP-14 | 2026-09-04 19:20:06 | 49.79239 | 9.50187 | 89° | 84km/h | 3085m | -9.8m/s | 4.9°C | 83.6% | 707.5hPa | 2.7V | 00:00:00 | 00:00:00 | 00:00:00 | |
| DK5PH-5 | 2026-09-04 19:20:05 | 49.79239 | 9.50187 | 90° | 89km/h | 3085m | -9.8m/s | 4.9°C | 83.5% | 707.4hPa | 2.7V | 00:00:00 | 02:50:15 | 00:00:00 | |
| DB0ND-19 | 2026-09-04 19:19:49 | 49.79233 | 9.49652 | 88° | 88km/h | 3220m | -7.4m/s | 4.7°C | 65.2% | 695.5hPa | 2.7V | 00:00:00 | 00:00:00 | 00:00:00 | |
| DM7RM-13 | 2026-09-04 19:19:45 | 49.79232 | 9.49547 | 90° | 91km/h | 3246m | -8.2m/s | 5.0°C | 65.1% | 693.6hPa | 2.7V | 02:29:00 | 00:00:00 | 00:00:00 | |
| HARRO8 | 2026-09-04 19:19:41 | 49.79233 | 9.49365 | 91° | 93km/h | 3291m | -10.4m/s | 4.5°C | 92.0% | 689.6hPa | 2.7V | 00:00:00 | 00:00:00 | 00:00:00 | |
| DK5PH-5 | 2026-09-04 19:19:35 | 49.79236 | 9.49146 | 93° | 95km/h | 3348m | -7.7m/s | 4.1°C | 88.3% | 684.8hPa | 2.7V | 02:29:00 | 02:49:45 | 00:00:00 | |
| SFWM-10 | 2026-09-04 19:19:34 | 49.79236 | 9.49146 | 93° | 93km/h | 3348m | -7.7m/s | 4.2°C | 88.4% | 684.9hPa | 2.7V | 02:29:00 | 00:00:00 | 00:00:00 | |
| DB0UT-7 | 2026-09-04 19:19:32 | 49.79237 | 9.49037 | 91° | 97km/h | 3373m | -8.6m/s | 4.3°C | 66.4% | 682.7hPa | 2.7V | 00:00:00 | 00:00:00 | 00:00:00 | |
| DF7PN | 2026-09-04 19:19:31 | 49.79238 | 9.49001 | 90° | 91km/h | 3381m | -9.0m/s | 4.4°C | 61.6% | 682.2hPa | 2.7V | 00:00:00 | 00:00:00 | 00:00:00 | |
| NBG1-10 | 2026-09-04 19:19:29 | 49.79238 | 9.48929 | 90° | 95km/h | 3397m | -7.8m/s | 4.3°C | 62.0% | 680.8hPa | 2.7V | 00:00:00 | 02:49:39 | 00:00:00 | |
| DB0NH | 2026-09-04 19:19:28 | 49.79238 | 9.48892 | 90° | 95km/h | 3405m | -7.2m/s | 4.2°C | 61.3% | 680.0hPa | 2.7V | 00:00:00 | 02:49:38 | 00:00:00 | |
| DM7RM-13 | 2026-09-04 19:19:25 | 49.79238 | 9.48819 | 92° | 93km/h | 3420m | -9.2m/s | 4.2°C | 60.1% | 679.1hPa | 2.7V | 02:29:00 | 00:00:00 | 00:00:00 | |
| DB0ND-19 | 2026-09-04 19:19:18 | 49.79245 | 9.48446 | 92° | 97km/h | 3497m | -7.2m/s | 3.7°C | 65.0% | 672.4hPa | 2.7V | 00:00:00 | 00:00:00 | 00:00:00 | |
| SFWM-10 | 2026-09-04 19:19:13 | 49.79247 | 9.48370 | 94° | 97km/h | 3513m | -7.6m/s | 3.5°C | 66.5% | 671.1hPa | 2.7V | 02:29:00 | 00:00:00 | 00:00:00 | |
| HARRO8 | 2026-09-04 19:19:10 | 49.79251 | 9.48222 | 90° | 93km/h | 3542m | -8.3m/s | 3.2°C | 71.0% | 668.6hPa | 2.7V | 00:00:00 | 00:00:00 | 00:00:00 | |
| DB0UT-9 | 2026-09-04 19:19:08 | 49.79252 | 9.48186 | 93° | 95km/h | 3550m | -7.8m/s | 3.2°C | 72.3% | 668.0hPa | 2.7V | 02:29:00 | 00:00:00 | 00:00:00 | |
| DK5PH-5 | 2026-09-04 19:19:05 | 49.79255 | 9.48033 | 92° | 97km/h | 3580m | -7.7m/s | 2.8°C | 78.1% | 665.5hPa | 2.7V | 00:00:00 | 02:49:15 | 00:00:00 | |
| DL1ZP-14 | 2026-09-04 19:19:04 | 49.79259 | 9.47881 | 92° | 95km/h | 3608m | -7.2m/s | 2.6°C | 81.1% | 663.1hPa | 2.7V | 00:00:00 | 00:00:00 | 00:00:00 | |
| DF7PN | 2026-09-04 19:19:00 | 49.79260 | 9.47843 | 93° | 95km/h | 3615m | -7.6m/s | 2.5°C | 81.6% | 662.5hPa | 2.6V | 00:00:00 | 00:00:00 | 00:00:00 | |
| DB0NH | 2026-09-04 19:18:58 | 49.79262 | 9.47769 | 93° | 97km/h | 3629m | -6.5m/s | 2.3°C | 83.6% | 661.2hPa | 2.6V | 00:00:00 | 02:49:08 | 00:00:00 | |
| NBG1-10 | 2026-09-04 19:18:56 | 49.79265 | 9.47692 | 93° | 97km/h | 3643m | -7.7m/s | 2.2°C | 84.1% | 660.2hPa | 2.6V | 00:00:00 | 02:49:06 | 00:00:00 | |
| SFWM-10 | 2026-09-04 19:18:52 | 49.79269 | 9.47578 | 94° | 99km/h | 3664m | -6.9m/s | 2.0°C | 86.2% | 658.5hPa | 2.6V | 02:30:00 | 00:00:00 | 00:00:00 | |
| DL0LBS | 2026-09-04 19:18:48 | 49.79275 | 9.47427 | 94° | 95km/h | 3691m | -7.2m/s | 1.8°C | 88.9% | 656.2hPa | 2.6V | 02:30:00 | 00:00:00 | 00:00:00 | |
| DB0UT-9 | 2026-09-04 19:18:47 | 49.79276 | 9.47390 | 95° | 95km/h | 3698m | -6.7m/s | 1.7°C | 89.6% | 655.6hPa | 2.6V | 00:00:00 | 00:00:00 | 00:00:00 | |
| DM7RM-13 | 2026-09-04 19:18:44 | 49.79280 | 9.47278 | 92° | 95km/h | 3718m | -7.1m/s | 1.7°C | 87.1% | 654.1hPa | 2.6V | 02:30:00 | 00:00:00 | 00:00:00 | |
| HARRO8 | 2026-09-04 19:18:39 | 49.79284 | 9.47055 | 91° | 97km/h | 3762m | -7.7m/s | 1.4°C | 83.2% | 650.5hPa | 2.6V | 00:00:00 | 00:00:00 | 00:00:00 | |
| DK5PH-5 | 2026-09-04 19:18:35 | 49.79285 | 9.46901 | 90° | 99km/h | 3789m | -6.8m/s | 1.1°C | 82.8% | 648.3hPa | 2.6V | 00:00:00 | 02:48:45 | 00:00:00 | |
| DL1ZP-14 | 2026-09-04 19:18:33 | 49.79285 | 9.46825 | 89° | 97km/h | 3804m | -8.1m/s | 1.1°C | 82.2% | 647.2hPa | 2.6V | 00:00:00 | 00:00:00 | 00:00:00 | |
| SFWM-10 | 2026-09-04 19:18:32 | 49.79285 | 9.46825 | 91° | 97km/h | 3804m | -8.1m/s | 1.1°C | 82.2% | 647.2hPa | 2.6V | 02:30:00 | 00:00:00 | 00:00:00 | |
| DB0UT-7 | 2026-09-04 19:18:31 | 49.79285 | 9.46748 | 92° | 102km/h | 3821m | -7.7m/s | 0.9°C | 78.7% | 645.8hPa | 2.6V | 00:00:00 | 00:00:00 | 00:00:00 | |
| DF7PN | 2026-09-04 19:18:29 | 49.79285 | 9.46670 | 89° | 97km/h | 3839m | -9.3m/s | 0.9°C | 75.2% | 644.6hPa | 2.6V | 00:00:00 | 00:00:00 | 00:00:00 | |
| DB0NH | 2026-09-04 19:18:28 | 49.79284 | 9.46632 | 90° | 99km/h | 3848m | -9.3m/s | 0.8°C | 74.8% | 643.8hPa | 2.6V | 02:30:00 | 02:48:38 | 00:00:00 | |
| DL0LBS | 2026-09-04 19:18:27 | 49.79284 | 9.46632 | 90° | 99km/h | 3848m | -9.4m/s | 0.9°C | 74.7% | 643.8hPa | 2.6V | 02:30:00 | 00:00:00 | 00:00:00 | |
| DM7RM-13 | 2026-09-04 19:18:24 | 49.79280 | 9.46477 | 88° | 97km/h | 3883m | -8.3m/s | 0.7°C | 75.7% | 641.0hPa | 2.6V | 02:30:00 | 00:00:00 | 00:00:00 | |
| NBG1-10 | 2026-09-04 19:18:23 | 49.79279 | 9.46439 | 87° | 100km/h | 3891m | -7.5m/s | 0.6°C | 76.1% | 640.4hPa | 2.6V | 02:30:00 | 02:48:33 | 00:00:00 | |
| DO3MHA-11 | 2026-09-04 19:18:20 | 49.79272 | 9.46325 | 86° | 99km/h | 3917m | -8.2m/s | 0.4°C | 77.9% | 638.6hPa | 2.6V | 02:30:00 | 02:48:30 | 00:00:00 | |
| DB0ND-19 | 2026-09-04 19:18:16 | 49.79267 | 9.46130 | 88° | 99km/h | 3957m | -8.4m/s | 0.0°C | 79.7% | 635.3hPa | 2.6V | 00:00:00 | 00:00:00 | 00:00:00 | |
| DO3MHA-11 | 2026-09-04 19:18:15 | 49.79267 | 9.46130 | 89° | 100km/h | 3957m | -8.3m/s | 0.0°C | 79.9% | 635.2hPa | 2.6V | 00:00:00 | 02:48:25 | 00:00:00 | |
| SFWM-10 | 2026-09-04 19:18:11 | 49.79266 | 9.46012 | 90° | 100km/h | 3982m | -7.2m/s | -0.2°C | 81.1% | 633.2hPa | 2.6V | 02:30:00 | 00:00:00 | 00:00:00 | |
| DO3MHA-11 | 2026-09-04 19:18:10 | 49.79265 | 9.45934 | 91° | 99km/h | 3997m | -8.4m/s | -0.3°C | 82.5% | 632.1hPa | 2.6V | 00:00:00 | 02:48:20 | 00:00:00 | |
| HARRO8 | 2026-09-04 19:18:08 | 49.79264 | 9.45856 | 88° | 97km/h | 4014m | -8.3m/s | -0.5°C | 83.1% | 630.9hPa | 2.6V | 00:00:00 | 00:00:00 | 00:00:00 | |
| DL0LBS | 2026-09-04 19:18:06 | 49.79263 | 9.45817 | 90° | 99km/h | 4022m | -7.8m/s | -0.5°C | 84.4% | 630.3hPa | 2.6V | 02:31:00 | 00:00:00 | 00:00:00 | |
| DO3MHA-11 | 2026-09-04 19:18:05 | 49.79262 | 9.45741 | 89° | 100km/h | 4037m | -7.2m/s | -0.6°C | 85.5% | 628.8hPa | 2.6V | 02:30:00 | 02:48:15 | 00:00:00 | |
| DM7RM-13 | 2026-09-04 19:18:03 | 49.79261 | 9.45703 | 90° | 99km/h | 4044m | -7.4m/s | -0.8°C | 85.5% | 628.4hPa | 2.6V | 02:31:00 | 00:00:00 | 00:00:00 | |
| DL1ZP-14 | 2026-09-04 19:18:02 | 49.79261 | 9.45625 | 90° | 99km/h | 4058m | -7.7m/s | -0.9°C | 86.3% | 627.3hPa | 2.6V | 00:00:00 | 00:00:00 | 00:00:00 | |
| DO3MHA-11 | 2026-09-04 19:17:59 | 49.79261 | 9.45507 | 90° | 102km/h | 4081m | -7.4m/s | -1.0°C | 84.2% | 625.3hPa | 2.6V | 00:00:00 | 02:48:09 | 00:00:00 | |
| DB0NH | 2026-09-04 19:17:58 | 49.79260 | 9.45467 | 90° | 100km/h | 4088m | -6.7m/s | -1.0°C | 81.3% | 624.8hPa | 2.6V | 00:00:00 | 02:48:08 | 00:00:00 | |
| DO3MHA-11 | 2026-09-04 19:17:54 | 49.79256 | 9.45307 | 87° | 99km/h | 4116m | -7.9m/s | -1.2°C | 81.2% | 622.6hPa | 2.6V | 00:00:00 | 02:48:04 | 00:00:00 | |
| DM0DOS-11 | 2026-09-04 19:17:52 | 49.79245 | 9.45034 | 87° | 102km/h | 4165m | -7.7m/s | -1.7°C | 84.2% | 618.8hPa | 2.6V | 02:30:55 | 02:47:57 | 00:00:00 | |
| SFWM-10 | 2026-09-04 19:17:51 | 49.79253 | 9.45229 | 88° | 99km/h | 4131m | -7.1m/s | -1.4°C | 81.8% | 621.6hPa | 2.6V | 02:31:00 | 00:00:00 | 00:00:00 | |
| NBG1-10 | 2026-09-04 19:17:50 | 49.79250 | 9.45152 | 87° | 102km/h | 4144m | -7.0m/s | -1.5°C | 82.9% | 620.5hPa | 2.6V | 00:00:00 | 02:48:00 | 00:00:00 | |
| DO3MHA-11 | 2026-09-04 19:17:49 | 49.79248 | 9.45113 | 88° | 100km/h | 4151m | -6.9m/s | -1.5°C | 83.2% | 619.9hPa | 2.6V | 02:30:00 | 02:47:59 | 00:00:00 | |
| DM0DOS-11 | 2026-09-04 19:17:47 | 49.79239 | 9.44834 | 87° | 100km/h | 4202m | -6.5m/s | -1.9°C | 86.1% | 616.1hPa | 2.6V | 02:31:00 | 02:47:52 | 00:00:00 | |
| DL0LBS | 2026-09-04 19:17:46 | 49.79245 | 9.45034 | 88° | 102km/h | 4165m | -7.7m/s | -1.7°C | 83.8% | 618.8hPa | 2.6V | 02:31:00 | 00:00:00 | 00:00:00 | |
| DO3MHA-11 | 2026-09-04 19:17:44 | 49.79241 | 9.44914 | 88° | 102km/h | 4189m | -7.7m/s | -1.8°C | 84.8% | 617.3hPa | 2.6V | 00:00:00 | 02:47:54 | 00:00:00 | |
| DM7RM-13 | 2026-09-04 19:17:43 | 49.79241 | 9.44913 | 89° | 104km/h | 4189m | -7.7m/s | -1.8°C | 84.4% | 617.3hPa | 2.6V | 02:31:00 | 00:00:00 | 00:00:00 | |
| DM0DOS-11 | 2026-09-04 19:17:42 | 49.79232 | 9.44597 | 87° | 102km/h | 4242m | -7.2m/s | -2.4°C | 88.1% | 613hPa | 2.6V | 02:31:06 | 02:47:46 | 00:00:00 | |
| DO3MHA-11 | 2026-09-04 19:17:39 | 49.79236 | 9.44716 | 88° | 100km/h | 4222m | -6.8m/s | -2.1°C | 86.8% | 614.5hPa | 2.6V | 00:00:00 | 02:47:49 | 00:00:00 | |
| HARRO8 | 2026-09-04 19:17:37 | 49.79233 | 9.44637 | 87° | 100km/h | 4236m | -6.1m/s | -2.3°C | 87.6% | 613.5hPa | 2.6V | 00:00:00 | 00:00:00 | 00:00:00 | |
| DM0DOS-11 | 2026-09-04 19:17:36 | 49.79227 | 9.44400 | 88° | 100km/h | 4281m | -8.1m/s | -2.7°C | 88.1% | 610.1hPa | 2.6V | 02:31:11 | 02:47:41 | 00:00:00 | |
| DK5PH-5 | 2026-09-04 19:17:35 | 49.79231 | 9.44558 | 87° | 104km/h | 4250m | -8.6m/s | -2.4°C | 88.4% | 612.4hPa | 2.6V | 00:00:00 | 02:47:45 | 00:00:00 | |
| DO3MHA-11 | 2026-09-04 19:17:32 | 49.79228 | 9.44439 | 89° | 100km/h | 4273m | -7.4m/s | -2.6°C | 88.2% | 610.6hPa | 2.6V | 02:31:00 | 02:47:42 | 00:00:00 | |
| DL1ZP-14 | 2026-09-04 19:17:31 | 49.79228 | 9.44400 | 88° | 100km/h | 4281m | -8.1m/s | -2.7°C | 87.7% | 610.1hPa | 2.6V | 00:00:00 | 00:00:00 | 00:00:00 | |
| DM0DOS-11 | 2026-09-04 19:17:31 | 49.79222 | 9.44202 | 87° | 102km/h | 4315m | -6.7m/s | -3°C | 90.9% | 607.4hPa | 2.6V | 02:31:16 | 02:47:36 | 00:00:00 | |
| SFWM-10 | 2026-09-04 19:17:30 | 49.79227 | 9.44400 | 89° | 100km/h | 4281m | -8.1m/s | -2.7°C | 87.7% | 610.1hPa | 2.6V | 02:31:00 | 00:00:00 | 00:00:00 | |
| DB0NH | 2026-09-04 19:17:28 | 49.79225 | 9.44282 | 88° | 106km/h | 4303m | -6.5m/s | -2.9°C | 89.7% | 608.4hPa | 2.6V | 00:00:00 | 02:47:38 | 00:00:00 | |
| DF7PN | 2026-09-04 19:17:27 | 49.79224 | 9.44242 | 87° | 100km/h | 4309m | -6.1m/s | -3.0°C | 89.9% | 607.9hPa | 2.6V | 00:00:00 | 00:00:00 | 00:00:00 | |
| DM0DOS-11 | 2026-09-04 19:17:26 | 49.79216 | 9.43999 | 87° | 104km/h | 4348m | -7.2m/s | -3.3°C | 93% | 604.9hPa | 2.6V | 02:31:21 | 02:47:31 | 00:00:00 | |
| DO3MHA-11 | 2026-09-04 19:17:26 | 49.79222 | 9.44202 | 88° | 104km/h | 4315m | -6.7m/s | -3.0°C | 90.9% | 607.3hPa | 2.6V | 00:00:00 | 02:47:36 | 00:00:00 | |
| DM7RM-13 | 2026-09-04 19:17:22 | 49.79219 | 9.44080 | 88° | 104km/h | 4335m | -6.3m/s | -3.2°C | 90.9% | 605.8hPa | 2.6V | 02:31:00 | 00:00:00 | 00:00:00 | |
| DM0DOS-11 | 2026-09-04 19:17:21 | 49.79209 | 9.43794 | 86° | 106km/h | 4388m | -7.5m/s | -3.7°C | 94.3% | 601.8hPa | 2.6V | 02:31:26 | 02:47:26 | 00:00:00 | |
| DO3MHA-11 | 2026-09-04 19:17:21 | 49.79216 | 9.43999 | 88° | 106km/h | 4348m | -7.1m/s | -3.3°C | 93.0% | 604.9hPa | 2.6V | 00:00:00 | 02:47:31 | 00:00:00 | |
| NBG1-10 | 2026-09-04 19:17:17 | 49.79211 | 9.43835 | 86° | 106km/h | 4380m | -7.6m/s | -3.6°C | 93.8% | 602.3hPa | 2.6V | 00:00:00 | 02:47:27 | 00:00:00 | |
| DM0DOS-11 | 2026-09-04 19:17:16 | 49.79200 | 9.43587 | 85° | 106km/h | 4425m | -7.9m/s | -3.4°C | 69.9% | 599hPa | 2.6V | 02:31:31 | 02:47:21 | 00:00:00 | |
| DO3MHA-11 | 2026-09-04 19:17:16 | 49.79209 | 9.43794 | 87° | 106km/h | 4388m | -7.4m/s | -3.6°C | 94.3% | 601.7hPa | 2.6V | 02:31:00 | 02:47:26 | 00:00:00 | |
| DF1GD-15 | 2026-09-04 19:17:14 | 49.79207 | 9.43753 | 88° | 106km/h | 4395m | -7.1m/s | -3.7°C | 93.3% | 601.2hPa | 2.6V | 02:32:00 | 00:00:00 | 00:00:00 | |
| DO3MHA-11 | 2026-09-04 19:17:11 | 49.79200 | 9.43586 | 86° | 104km/h | 4425m | -7.9m/s | -3.4°C | 69.9% | 598.9hPa | 2.6V | 00:00:00 | 02:47:21 | 00:00:00 | |
| SFWM-10 | 2026-09-04 19:17:09 | 49.79198 | 9.43545 | 86° | 104km/h | 4432m | -7.3m/s | -3.4°C | 67.9% | 598.4hPa | 2.6V | 02:32:00 | 00:00:00 | 00:00:00 | |
| DO3MHA-11 | 2026-09-04 19:17:06 | 49.79188 | 9.43382 | 84° | 106km/h | 4461m | -8.0m/s | -3.2°C | 56.5% | 596.2hPa | 2.6V | 00:00:00 | 02:47:16 | 00:00:00 | |
| DK5PH-5 | 2026-09-04 19:17:05 | 49.79185 | 9.43341 | 85° | 108km/h | 4469m | -7.3m/s | -3.2°C | 56.7% | 595.6hPa | 2.6V | 00:00:00 | 02:47:15 | 00:00:00 | |
| DO3MHA-11 | 2026-09-04 19:17:01 | 49.79175 | 9.43175 | 85° | 106km/h | 4500m | -7.4m/s | -3.4°C | 65.5% | 593.3hPa | 2.6V | 02:31:00 | 02:47:11 | 00:00:00 | |
| DM0DOS-11 | 2026-09-04 19:17:00 | 49.79160 | 9.42927 | 83° | 108km/h | 4544m | -7m/s | -3.7°C | 71.8% | 589.9hPa | 2.6V | 02:31:47 | 02:47:05 | 00:00:00 | |
| BIOWL1-15 | 2026-09-04 19:16:51 | 49.79133 | 9.42590 | 84° | 108km/h | 4601m | -7.6m/s | -3.9°C | 62.1% | 585.8hPa | 2.5V | 02:32:16 | 02:46:57 | 00:00:00 | |
| DO3MHA-11 | 2026-09-04 19:16:51 | 49.79146 | 9.42758 | 83° | 108km/h | 4571m | -7.3m/s | -3.7°C | 55.8% | 588.0hPa | 2.5V | 00:00:00 | 02:47:01 | 00:00:00 | |
| DF1GD-15 | 2026-09-04 19:16:50 | 49.79147 | 9.42758 | 84° | 110km/h | 4571m | -7.3m/s | -3.7°C | 55.4% | 588.1hPa | 2.5V | 02:32:00 | 00:00:00 | 00:00:00 | |
| SFWM-10 | 2026-09-04 19:16:49 | 49.79143 | 9.42716 | 83° | 110km/h | 4578m | -6.6m/s | -3.8°C | 55.4% | 587.5hPa | 2.5V | 02:32:00 | 00:00:00 | 00:00:00 | |
| DM0DOS-11 | 2026-09-04 19:16:47 | 49.79133 | 9.42590 | 83° | 108km/h | 4601m | -7.6m/s | -3.9°C | 55.2% | 585.8hPa | 2.5V | 02:31:55 | 02:46:57 | 00:00:00 | |
| DM0DOS-11 | 2026-09-04 19:16:47 | 49.79117 | 9.42378 | 82° | 111km/h | 4637m | -6.5m/s | -4°C | 46.7% | 583.1hPa | 2.5V | 02:32:00 | 02:46:52 | 00:00:00 | |
| DO3MHA-11 | 2026-09-04 19:16:46 | 49.79130 | 9.42548 | 84° | 110km/h | 4608m | -7.4m/s | -3.9°C | 55.6% | 585.3hPa | 2.6V | 02:31:00 | 02:46:56 | 00:00:00 | |
| NBG1-10 | 2026-09-04 19:16:44 | 49.79124 | 9.42464 | 85° | 113km/h | 4623m | -7.1m/s | -4.0°C | 53.0% | 584.2hPa | 2.6V | 02:31:00 | 02:46:54 | 00:00:00 | |
| DB0ND-19 | 2026-09-04 19:16:43 | 49.79121 | 9.42421 | 83° | 110km/h | 4630m | -7.8m/s | -4.0°C | 48.9% | 583.7hPa | 2.5V | 00:00:00 | 00:00:00 | 00:00:00 | |
| DF2AP-13 | 2026-09-04 19:16:42 | 49.79117 | 9.42378 | 83° | 113km/h | 4637m | -6.5m/s | -4.0°C | 46.7% | 583.1hPa | 2.5V | 00:00:00 | 02:46:52 | 00:00:00 | |
| DM7RM-13 | 2026-09-04 19:16:41 | 49.79113 | 9.42335 | 82° | 110km/h | 4644m | -6.2m/s | -4.1°C | 45.9% | 582.7hPa | 2.5V | 02:32:00 | 00:00:00 | 00:00:00 | |
| DM0DOS-11 | 2026-09-04 19:16:37 | 49.79094 | 9.42165 | 79° | 110km/h | 4670m | -6.5m/s | -4.3°C | 45.7% | 580.6hPa | 2.5V | 02:32:05 | 02:46:47 | 00:00:00 | |
| DM0DOS-11 | 2026-09-04 19:16:37 | 49.79070 | 9.41952 | 80° | 113km/h | 4702m | -6.5m/s | -4.5°C | 46.7% | 578.2hPa | 2.5V | 02:32:10 | 02:46:42 | 00:00:00 | |
| BIOWL1-15 | 2026-09-04 19:16:36 | 49.79089 | 9.42123 | 80° | 110km/h | 4677m | -6.5m/s | -4.3°C | 51.2% | 580.1hPa | 2.6V | 02:32:16 | 02:46:46 | 00:00:00 | |
| DO3MHA-11 | 2026-09-04 19:16:36 | 49.79089 | 9.42123 | 81° | 111km/h | 4677m | -6.5m/s | -4.2°C | 45.3% | 580.1hPa | 2.6V | 00:00:00 | 02:46:46 | 00:00:00 | |
| DK5PH-5 | 2026-09-04 19:16:35 | 49.79084 | 9.42080 | 81° | 115km/h | 4683m | -6.3m/s | -4.3°C | 44.6% | 579.5hPa | 2.6V | 02:32:00 | 02:46:45 | 00:00:00 | |
| DM0DOS-11 | 2026-09-04 19:16:32 | 49.79046 | 9.41733 | 80° | 113km/h | 4737m | -8.1m/s | -4.9°C | 59.3% | 575.7hPa | 2.5V | 02:32:15 | 02:46:37 | 00:00:00 | |
| DO3MHA-11 | 2026-09-04 19:16:31 | 49.79066 | 9.41908 | 81° | 113km/h | 4709m | -6.9m/s | -4.5°C | 48.9% | 577.7hPa | 2.6V | 02:32:00 | 02:46:41 | 00:00:00 | |
| BIOWL7-15 | 2026-09-04 19:16:30 | 49.79066 | 9.41908 | 82° | 113km/h | 4709m | -7.0m/s | -4.5°C | 48.5% | 577.7hPa | 2.6V | 00:00:00 | 00:00:00 | 00:00:00 | |
| DL1ZP-14 | 2026-09-04 19:16:29 | 49.79056 | 9.41821 | 80° | 113km/h | 4723m | -6.8m/s | -4.7°C | 55.7% | 576.8hPa | 2.6V | 00:00:00 | 00:00:00 | 00:00:00 | |
| DB0NH | 2026-09-04 19:16:28 | 49.79051 | 9.41777 | 81° | 115km/h | 4730m | -7.1m/s | -4.7°C | 57.8% | 576.2hPa | 2.5V | 00:00:00 | 02:46:38 | 00:00:00 | |
| DM0DOS-11 | 2026-09-04 19:16:27 | 49.79021 | 9.41514 | 79° | 113km/h | 4778m | -8.6m/s | -5°C | 45.9% | 572.7hPa | 2.5V | 02:32:20 | 02:46:32 | 00:00:00 | |
| BIOWL1-15 | 2026-09-04 19:16:26 | 49.79041 | 9.41690 | 80° | 113km/h | 4745m | -8.5m/s | -4.9°C | 65.4% | 575.2hPa | 2.6V | 02:32:16 | 02:46:36 | 00:00:00 | |
| DO3MHA-11 | 2026-09-04 19:16:26 | 49.79041 | 9.41690 | 81° | 113km/h | 4745m | -8.4m/s | -4.9°C | 58.8% | 575.2hPa | 2.6V | 00:00:00 | 02:46:36 | 00:00:00 | |
| DF7PN | 2026-09-04 19:16:25 | 49.79037 | 9.41646 | 79° | 113km/h | 4753m | -8.3m/s | -5.0°C | 54.4% | 574.6hPa | 2.6V | 00:00:00 | 00:00:00 | 00:00:00 | |
| DL0LBS | 2026-09-04 19:16:24 | 49.79036 | 9.41646 | 81° | 113km/h | 4753m | -8.3m/s | -4.9°C | 54.3% | 574.6hPa | 2.6V | 02:33:00 | 00:00:00 | 00:00:00 | |
| DM0DOS-11 | 2026-09-04 19:16:22 | 49.78993 | 9.41295 | 78° | 115km/h | 4821m | -8.7m/s | -5.4°C | 47% | 569.8hPa | 2.6V | 02:32:25 | 02:46:27 | 00:00:00 | |
| DO3MHA-11 | 2026-09-04 19:16:21 | 49.79016 | 9.41471 | 80° | 115km/h | 4787m | -8.8m/s | -5.0°C | 44.7% | 571.9hPa | 2.6V | 00:00:00 | 02:46:31 | 00:00:00 | |
| DM7RM-13 | 2026-09-04 19:16:20 | 49.79016 | 9.41471 | 80° | 113km/h | 4787m | -8.9m/s | -5.1°C | 44.2% | 572.0hPa | 2.6V | 02:33:00 | 00:00:00 | 00:00:00 | |
| DM0DOS-11 | 2026-09-04 19:16:17 | 49.78966 | 9.41072 | 79° | 117km/h | 4860m | -6.4m/s | -5.6°C | 42% | 566.9hPa | 2.6V | 02:32:30 | 02:46:22 | 00:00:00 | |
| BIOWL1-15 | 2026-09-04 19:16:14 | 49.78977 | 9.41161 | 80° | 115km/h | 4845m | -9m/s | -5.5°C | 48% | 568.1hPa | 2.6V | 02:33:58 | 02:46:24 | 00:00:00 | |
| DM0DOS-11 | 2026-09-04 19:16:12 | 49.78938 | 9.40847 | 78° | 119km/h | 4903m | -10.7m/s | -5.9°C | 43.2% | 564hPa | 2.6V | 02:32:35 | 02:46:17 | 00:00:00 | |
| DF2AP-13 | 2026-09-04 19:16:12 | 49.78966 | 9.41072 | 80° | 117km/h | 4861m | -6.4m/s | -5.6°C | 42.0% | 566.8hPa | 2.6V | 00:00:00 | 02:46:22 | 00:00:00 | |
| NBG1-10 | 2026-09-04 19:16:11 | 49.78960 | 9.41027 | 79° | 117km/h | 4868m | -8.5m/s | -5.6°C | 40.7% | 566.4hPa | 2.6V | 00:00:00 | 02:46:21 | 00:00:00 | |
| DF1GD-15 | 2026-09-04 19:16:07 | 49.78943 | 9.40893 | 80° | 119km/h | 4894m | -8.8m/s | -5.9°C | 41.0% | 564.6hPa | 2.6V | 00:00:00 | 00:00:00 | 00:00:00 | |
| DO3MHA-11 | 2026-09-04 19:16:06 | 49.78931 | 9.40802 | 79° | 115km/h | 4913m | -9.0m/s | -6.0°C | 43.4% | 563.1hPa | 2.6V | 00:00:00 | 02:46:16 | 00:00:00 | |
| DK5PH-5 | 2026-09-04 19:16:05 | 49.78925 | 9.40757 | 78° | 117km/h | 4921m | -8.4m/s | -6.1°C | 42.0% | 562.5hPa | 2.6V | 00:00:00 | 02:46:15 | 00:00:00 | |
| DM0DOS-11 | 2026-09-04 19:16:02 | 49.78906 | 9.40625 | 77° | 113km/h | 4945m | -7.6m/s | -6.3°C | 41% | 560.9hPa | 2.6V | 02:32:40 | 02:46:12 | 00:00:00 | |
| DM0DOS-11 | 2026-09-04 19:16:02 | 49.78875 | 9.40407 | 78° | 115km/h | 4986m | -8.6m/s | -6.2°C | 22.3% | 557.9hPa | 2.6V | 02:32:45 | 02:46:07 | 00:00:00 | |
| DL1ZP-14 | 2026-09-04 19:15:58 | 49.78881 | 9.40451 | 78° | 113km/h | 4977m | -8.6m/s | -6.3°C | 27.0% | 558.5hPa | 2.5V | 00:00:00 | 00:00:00 | 00:00:00 | |
| DF7PN | 2026-09-04 19:15:54 | 49.78858 | 9.40272 | 79° | 117km/h | 5008m | -7.0m/s | -6.1°C | 15.5% | 556.2hPa | 2.6V | 00:00:00 | 00:00:00 | 00:00:00 | |
| SFWM-10 | 2026-09-04 19:15:47 | 49.78823 | 9.40003 | 80° | 115km/h | 5051m | -9.1m/s | -6.0°C | 5.9% | 553.2hPa | 2.6V | 02:33:00 | 00:00:00 | 00:00:00 | |
| DO3MHA-11 | 2026-09-04 19:15:46 | 49.78812 | 9.39913 | 80° | 117km/h | 5067m | -6.6m/s | -5.9°C | 6.0% | 551.9hPa | 2.6V | 00:00:00 | 02:45:56 | 00:00:00 | |
| DM0DOS-11 | 2026-09-04 19:15:43 | 49.78771 | 9.39555 | 79° | 117km/h | 5127m | -7.3m/s | -6.2°C | 5.2% | 547.8hPa | 2.6V | 02:33:04 | 02:45:48 | 00:00:00 | |
| DF2AP-13 | 2026-09-04 19:15:42 | 49.78792 | 9.39733 | 81° | 119km/h | 5096m | -8.0m/s | -5.9°C | 4.8% | 550.0hPa | 2.6V | 02:33:00 | 02:45:52 | 00:00:00 | |
| DF1GD-15 | 2026-09-04 19:15:40 | 49.78787 | 9.39688 | 81° | 115km/h | 5104m | -7.2m/s | -6.0°C | 4.7% | 549.4hPa | 2.6V | 00:00:00 | 00:00:00 | 00:00:00 | |
| DM7RM-13 | 2026-09-04 19:15:39 | 49.78782 | 9.39644 | 81° | 115km/h | 5111m | -8.2m/s | -6.1°C | 4.8% | 548.9hPa | 2.6V | 02:33:00 | 00:00:00 | 00:00:00 | |
| NBG1-10 | 2026-09-04 19:15:38 | 49.78771 | 9.39555 | 80° | 119km/h | 5127m | -7.3m/s | -6.1°C | 5.2% | 547.7hPa | 2.6V | 00:00:00 | 02:45:48 | 00:00:00 | |
| DB0UT-7 | 2026-09-04 19:15:36 | 49.78761 | 9.39466 | 80° | 119km/h | 5142m | -8.7m/s | -6.2°C | 4.7% | 546.8hPa | 2.6V | 00:00:00 | 02:45:46 | 00:00:00 | |
| DM0DOS-11 | 2026-09-04 19:15:33 | 49.78712 | 9.39106 | 77° | 119km/h | 5207m | -7.3m/s | -6.6°C | 20.3% | 542.2hPa | 2.6V | 02:33:14 | 02:45:38 | 00:00:00 | |
| HARRO8 | 2026-09-04 19:15:33 | 49.78744 | 9.39332 | 78° | 115km/h | 5168m | -7.6m/s | -6.3°C | 7.2% | 545.0hPa | 2.6V | 00:00:00 | 00:00:00 | 00:00:00 | |
| DB0NH | 2026-09-04 19:15:28 | 49.78712 | 9.39106 | 78° | 120km/h | 5207m | -7.3m/s | -6.5°C | 20.3% | 542.1hPa | 2.6V | 02:33:00 | 02:45:38 | 00:00:00 | |
| DL1ZP-14 | 2026-09-04 19:15:27 | 49.78699 | 9.39016 | 77° | 119km/h | 5222m | -7.5m/s | -6.7°C | 23.2% | 541.0hPa | 2.5V | 00:00:00 | 00:00:00 | 00:00:00 | |
| DO3MHA-11 | 2026-09-04 19:15:26 | 49.78699 | 9.39016 | 78° | 119km/h | 5223m | -7.4m/s | -6.7°C | 23.6% | 541.0hPa | 2.5V | 00:00:00 | 02:45:36 | 00:00:00 | |
| DM0DOS-11 | 2026-09-04 19:15:23 | 49.78648 | 9.38650 | 78° | 120km/h | 5285m | -8.5m/s | -7.1°C | 25.2% | 536.8hPa | 2.5V | 02:33:24 | 02:45:28 | 00:00:00 | |
| BIOWL1-15 | 2026-09-04 19:15:19 | 49.78654 | 9.38696 | 79° | 119km/h | 5276m | -8.6m/s | -7.1°C | 29.8% | 537.3hPa | 2.5V | 02:33:58 | 02:45:29 | 00:00:00 | |
| DM7RM-13 | 2026-09-04 19:15:18 | 49.78654 | 9.38695 | 80° | 119km/h | 5276m | -8.6m/s | -7.1°C | 24.8% | 537.3hPa | 2.5V | 02:33:00 | 00:00:00 | 00:00:00 | |
| DB0UT-9 | 2026-09-04 19:15:17 | 49.78648 | 9.38649 | 80° | 120km/h | 5285m | -8.5m/s | -7.1°C | 24.7% | 536.8hPa | 2.5V | 00:00:00 | 00:00:00 | 00:00:00 | |
| DO3MHA-11 | 2026-09-04 19:15:16 | 49.78636 | 9.38558 | 80° | 119km/h | 5303m | -10.2m/s | -7.1°C | 25.0% | 535.7hPa | 2.5V | 00:00:00 | 02:45:26 | 00:00:00 | |
| DM0DOS-11 | 2026-09-04 19:15:13 | 49.78593 | 9.38190 | 79° | 120km/h | 5372m | -8.8m/s | -7.5°C | 23.1% | 531.1hPa | 2.5V | 02:33:34 | 02:45:18 | 00:00:00 | |
| DF2AP-13 | 2026-09-04 19:15:12 | 49.78614 | 9.38374 | 80° | 120km/h | 5339m | -8.6m/s | -7.3°C | 23.5% | 533.1hPa | 2.5V | 00:00:00 | 02:45:22 | 00:00:00 | |
| DB0ND-19 | 2026-09-04 19:15:10 | 49.78593 | 9.38190 | 79° | 120km/h | 5372m | -8.8m/s | -7.6°C | 22.7% | 531.1hPa | 2.5V | 00:00:00 | 00:00:00 | 00:00:00 | |
| SFWM-10 | 2026-09-04 19:15:07 | 49.78593 | 9.38190 | 81° | 120km/h | 5372m | -8.8m/s | -7.6°C | 22.7% | 531.1hPa | 2.5V | 02:33:00 | 00:00:00 | 00:00:00 | |
| DO3MHA-11 | 2026-09-04 19:15:06 | 49.78583 | 9.38097 | 81° | 120km/h | 5389m | -8.9m/s | -7.6°C | 22.8% | 529.7hPa | 2.5V | 02:33:00 | 02:45:16 | 00:00:00 | |
| BIOWL9-15 | 2026-09-04 19:15:05 | 49.78541 | 9.37727 | 80° | 120km/h | 5456m | -7.1m/s | -8.1°C | -1.0% | 525.2hPa | 2.6V | 00:00:00 | 00:00:00 | 00:00:00 | |
| DM0DOS-11 | 2026-09-04 19:15:03 | 49.78541 | 9.37727 | 80° | 120km/h | 5456m | -7.1m/s | -8.1°C | 22% | 525.2hPa | 2.6V | 02:33:44 | 02:45:08 | 00:00:00 | |
| BIOWL1-15 | 2026-09-04 19:14:57 | 49.78526 | 9.37586 | 81° | 120km/h | 5478m | -8.6m/s | -8.3°C | 25.4% | 523.7hPa | 2.5V | 02:33:58 | 02:45:05 | 00:00:00 | |
| DL1ZP-14 | 2026-09-04 19:14:56 | 49.78526 | 9.37586 | 80° | 120km/h | 5478m | -8.6m/s | -8.3°C | 20.9% | 523.7hPa | 2.5V | 00:00:00 | 00:00:00 | 00:00:00 | |
| DM0DOS-11 | 2026-09-04 19:14:53 | 49.78492 | 9.37259 | 81° | 122km/h | 5536m | -8.6m/s | -8.6°C | 21% | 519.8hPa | 2.6V | 02:33:54 | 02:44:58 | 00:00:00 | |
| DF7PN | 2026-09-04 19:14:52 | 49.78511 | 9.37447 | 80° | 119km/h | 5504m | -8.2m/s | -8.4°C | 21.6% | 522.1hPa | 2.5V | 00:00:00 | 00:00:00 | 00:00:00 | |
| BIOWL1-15 | 2026-09-04 19:14:46 | 49.78473 | 9.37067 | 81° | 126km/h | 5566m | -7.7m/s | -8.8°C | 25.7% | 517.8hPa | 2.5V | 02:33:58 | 02:44:54 | 00:00:00 | |
| DO3MHA-11 | 2026-09-04 19:14:46 | 49.78482 | 9.37164 | 82° | 124km/h | 5551m | -7.1m/s | -8.7°C | 21.8% | 518.8hPa | 2.6V | 00:00:00 | 02:44:56 | 00:00:00 | |
| DM0DOS-11 | 2026-09-04 19:14:43 | 49.78445 | 9.36778 | 81° | 126km/h | 5615m | -7.7m/s | -9.1°C | 21.7% | 514.6hPa | 2.6V | 02:34:04 | 02:44:48 | 00:00:00 | |
| BIOWL1-15 | 2026-09-04 19:14:34 | 49.78427 | 9.36583 | 82° | 126km/h | 5648m | -7.4m/s | -9.1°C | 20.2% | 512.5hPa | 2.6V | 02:36:31 | 02:44:44 | 00:00:00 | |
| BIOWL1-15 | 2026-09-04 19:14:24 | 49.78374 | 9.36103 | 80° | 126km/h | 5729m | -8.4m/s | -9.5°C | 18.4% | 507.1hPa | 2.5V | 02:36:31 | 02:44:34 | 00:00:00 | |
| DM0DOS-11 | 2026-09-04 19:14:23 | 49.78343 | 9.35810 | 80° | 128km/h | 5776m | -7.8m/s | -9.7°C | 13.9% | 503.9hPa | 2.6V | 02:34:24 | 02:44:28 | 00:00:00 | |
| BIOWL1-15 | 2026-09-04 19:14:15 | 49.78316 | 9.35563 | 81° | 130km/h | 5817m | -9.4m/s | -9.8°C | 14.8% | 501.4hPa | 2.6V | 02:36:31 | 02:44:23 | 00:00:00 | |
| DM0DOS-11 | 2026-09-04 19:14:13 | 49.78291 | 9.35315 | 82° | 128km/h | 5859m | -7.9m/s | -10.2°C | 16.1% | 498.5hPa | 2.5V | 02:34:34 | 02:44:18 | 00:00:00 | |
| DF2AP-13 | 2026-09-04 19:14:12 | 49.78310 | 9.35513 | 82° | 126km/h | 5826m | -8.4m/s | -9.8°C | 13.1% | 500.7hPa | 2.6V | 02:34:00 | 02:44:22 | 00:00:00 | |
| DB0UT-9 | 2026-09-04 19:14:09 | 49.78300 | 9.35414 | 82° | 128km/h | 5842m | -8.7m/s | -10.0°C | 14.2% | 499.7hPa | 2.6V | 02:34:00 | 00:00:00 | 00:00:00 | |
| DB0ND-19 | 2026-09-04 19:14:08 | 49.78291 | 9.35315 | 82° | 126km/h | 5859m | -7.9m/s | -10.2°C | 15.7% | 498.5hPa | 2.6V | 00:00:00 | 00:00:00 | 00:00:00 | |
| DO3MHA-11 | 2026-09-04 19:14:06 | 49.78282 | 9.35217 | 83° | 128km/h | 5875m | -7.8m/s | -10.2°C | 17.6% | 497.4hPa | 2.6V | 02:34:00 | 02:44:16 | 00:00:00 | |
| DK5PH-5 | 2026-09-04 19:14:05 | 49.78278 | 9.35168 | 83° | 124km/h | 5882m | -7.3m/s | -10.3°C | 17.6% | 497.0hPa | 2.6V | 00:00:00 | 02:44:15 | 00:00:00 | |
| DM0DOS-11 | 2026-09-04 19:14:02 | 49.78241 | 9.34770 | 82° | 126km/h | 5947m | -7.9m/s | -10.9°C | 28.4% | 492.9hPa | 2.6V | 02:34:45 | 02:44:07 | 00:00:00 | |
| HARRO8 | 2026-09-04 19:14:00 | 49.78255 | 9.34919 | 82° | 128km/h | 5920m | -8.2m/s | -10.7°C | 27.3% | 494.6hPa | 2.6V | 00:00:00 | 00:00:00 | 00:00:00 | |
| DL1ZP-14 | 2026-09-04 19:13:54 | 49.78225 | 9.34575 | 82° | 124km/h | 5980m | -7.7m/s | -11.2°C | 34.4% | 490.8hPa | 2.6V | 00:00:00 | 00:00:00 | 00:00:00 | |
| DF7PN | 2026-09-04 19:13:50 | 49.78213 | 9.34430 | 82° | 124km/h | 6005m | -8.3m/s | -11.2°C | 23.3% | 489.2hPa | 2.5V | 00:00:00 | 00:00:00 | 00:00:00 | |
| DM0DOS-11 | 2026-09-04 19:13:48 | 49.78183 | 9.34092 | 82° | 122km/h | 6061m | -8.2m/s | -11.3°C | 12.7% | 485.6hPa | 2.5V | 02:34:59 | 02:43:53 | 00:00:00 | |
| DF3TZ-5 | 2026-09-04 19:13:47 | 49.78200 | 9.34285 | 82° | 124km/h | 6029m | -7.0m/s | 0°C | -1.0% | 487.6hPa | 2.5V | 00:00:00 | 00:00:00 | 00:00:00 | |
| BIOWL1-15 | 2026-09-04 19:13:44 | 49.78188 | 9.34140 | 83° | 124km/h | 6052m | -8.5m/s | -11.3°C | 19% | 486.1hPa | 2.5V | 02:36:31 | 02:43:54 | 00:00:00 | |
| DF2AP-13 | 2026-09-04 19:13:42 | 49.78179 | 9.34045 | 82° | 120km/h | 6068m | -7.1m/s | -11.3°C | 13.4% | 485.1hPa | 2.5V | 00:00:00 | 02:43:52 | 00:00:00 | |
| DL0LBS | 2026-09-04 19:13:39 | 49.78170 | 9.33951 | 82° | 122km/h | 6085m | -9.2m/s | -11.4°C | 12.6% | 484.1hPa | 2.5V | 02:35:00 | 00:00:00 | 00:00:00 | |
| DM0DOS-11 | 2026-09-04 19:13:38 | 49.78138 | 9.33622 | 81° | 122km/h | 6144m | -8.7m/s | -11.8°C | 12.2% | 480.3hPa | 2.5V | 02:35:09 | 02:43:43 | 00:00:00 | |
| BIOWL1-15 | 2026-09-04 19:13:34 | 49.78142 | 9.33669 | 82° | 122km/h | 6136m | -8.5m/s | -11.7°C | 14.5% | 480.9hPa | 2.6V | 02:36:31 | 02:43:44 | 00:00:00 | |
| HARRO8 | 2026-09-04 19:13:29 | 49.78120 | 9.33433 | 81° | 120km/h | 6176m | -7.9m/s | -12.0°C | 12.6% | 478.3hPa | 2.6V | 00:00:00 | 00:00:00 | 00:00:00 | |
| DM0DOS-11 | 2026-09-04 19:13:28 | 49.78096 | 9.33153 | 83° | 122km/h | 6228m | -9.2m/s | -12.2°C | 13.1% | 475.1hPa | 2.6V | 02:35:19 | 02:43:33 | 00:00:00 | |
| DB0NH | 2026-09-04 19:13:27 | 49.78111 | 9.33340 | 83° | 120km/h | 6192m | -9.1m/s | -12.0°C | 12.1% | 477.3hPa | 2.6V | 00:00:00 | 02:43:37 | 00:00:00 | |
| DO3MHA-11 | 2026-09-04 19:13:26 | 49.78107 | 9.33293 | 83° | 120km/h | 6201m | -9.3m/s | -12.0°C | 12.2% | 476.7hPa | 2.6V | 00:00:00 | 02:43:36 | 00:00:00 | |
| SFWM-10 | 2026-09-04 19:13:25 | 49.78107 | 9.33293 | 84° | 120km/h | 6201m | -9.3m/s | -12.1°C | 11.8% | 476.8hPa | 2.6V | 02:35:00 | 00:00:00 | 00:00:00 | |
| DL1ZP-14 | 2026-09-04 19:13:23 | 49.78092 | 9.33106 | 83° | 120km/h | 6237m | -9.0m/s | -12.3°C | 13.2% | 474.4hPa | 2.6V | 00:00:00 | 00:00:00 | 00:00:00 | |
| DB0UT-7 | 2026-09-04 19:13:21 | 49.78088 | 9.33058 | 84° | 120km/h | 6246m | -8.2m/s | -12.3°C | 14.6% | 473.8hPa | 2.5V | 00:00:00 | 02:43:31 | 00:00:00 | |
| DF7PN | 2026-09-04 19:13:19 | 49.78082 | 9.32965 | 83° | 119km/h | 6263m | -8.2m/s | -12.5°C | 14.8% | 472.8hPa | 2.5V | 00:00:00 | 00:00:00 | 00:00:00 | |
| DM0DOS-11 | 2026-09-04 19:13:18 | 49.78061 | 9.32683 | 84° | 120km/h | 6314m | -10m/s | -12.9°C | 16.9% | 469.7hPa | 2.5V | 02:35:29 | 02:43:23 | 00:00:00 | |
| DO3MHA-11 | 2026-09-04 19:13:16 | 49.78071 | 9.32824 | 84° | 122km/h | 6288m | -8.6m/s | -12.7°C | 16.0% | 471.2hPa | 2.5V | 00:00:00 | 02:43:26 | 00:00:00 | |
| DF2AP-13 | 2026-09-04 19:13:12 | 49.78058 | 9.32635 | 85° | 120km/h | 6323m | -9.6m/s | -13.0°C | 17.3% | 469.0hPa | 2.5V | 00:00:00 | 02:43:22 | 00:00:00 | |
| DM0DOS-11 | 2026-09-04 19:13:08 | 49.78020 | 9.32211 | 81° | 120km/h | 6405m | -9.4m/s | -13.6°C | 25% | 464hPa | 2.5V | 02:35:39 | 02:43:13 | 00:00:00 | |
| DB0UT-9 | 2026-09-04 19:13:07 | 49.78043 | 9.32447 | 83° | 122km/h | 6358m | -8.8m/s | -13.3°C | 21.8% | 466.9hPa | 2.6V | 00:00:00 | 00:00:00 | 00:00:00 | |
| DO3MHA-11 | 2026-09-04 19:13:06 | 49.78034 | 9.32352 | 81° | 120km/h | 6377m | -8.8m/s | -13.3°C | 18.7% | 465.6hPa | 2.6V | 02:35:00 | 02:43:16 | 00:00:00 | |
| BIOWL9-15 | 2026-09-04 19:13:00 | 49.77957 | 9.31653 | 79° | 119km/h | 6519m | -9.0m/s | -14.2°C | 26.3% | 457.1hPa | 2.6V | 00:00:00 | 00:00:00 | 00:00:00 | |
| DM0DOS-11 | 2026-09-04 19:12:58 | 49.77967 | 9.31745 | 79° | 120km/h | 6499m | -11.1m/s | -14.1°C | 30.2% | 458.4hPa | 2.6V | 02:35:49 | 02:43:03 | 00:00:00 | |
| HARRO8 | 2026-09-04 19:12:58 | 49.77989 | 9.31932 | 79° | 119km/h | 6461m | -9.5m/s | -13.8°C | 28.6% | 460.6hPa | 2.5V | 00:00:00 | 00:00:00 | 00:00:00 | |
| DL1ZP-14 | 2026-09-04 19:12:51 | 49.77957 | 9.31653 | 79° | 119km/h | 6519m | -9.0m/s | -14.2°C | 26.3% | 457.1hPa | 2.5V | 00:00:00 | 00:00:00 | 00:00:00 | |
| DM0DOS-11 | 2026-09-04 19:12:48 | 49.77916 | 9.31285 | 81° | 117km/h | 6595m | -10.1m/s | -14.7°C | 29.5% | 452.5hPa | 2.5V | 02:35:59 | 02:42:53 | 00:00:00 | |
| DF7PN | 2026-09-04 19:12:48 | 49.77941 | 9.31514 | 79° | 119km/h | 6549m | -9.3m/s | -14.4°C | 24.0% | 455.3hPa | 2.6V | 00:00:00 | 00:00:00 | 00:00:00 | |
| BIOWL1-15 | 2026-09-04 19:12:40 | 49.77901 | 9.31148 | 81° | 117km/h | 6623m | -10.3m/s | -15°C | 39% | 450.8hPa | 2.6V | 02:36:31 | 02:42:50 | 00:00:00 | |
| BIOWL7-15 | 2026-09-04 19:12:39 | 49.77901 | 9.31148 | 82° | 117km/h | 6624m | -10.3m/s | -15.0°C | 32.6% | 450.8hPa | 2.6V | 00:00:00 | 00:00:00 | 00:00:00 | |
| DM0DOS-11 | 2026-09-04 19:12:38 | 49.77866 | 9.30828 | 80° | 119km/h | 6692m | -10.8m/s | -15.6°C | 34.9% | 446.8hPa | 2.6V | 02:36:09 | 02:42:43 | 00:00:00 | |
| BIOWL1-15 | 2026-09-04 19:12:30 | 49.77852 | 9.30690 | 82° | 119km/h | 6717m | -8.6m/s | -15.9°C | 37.5% | 445.1hPa | 2.5V | 02:36:31 | 02:42:40 | 00:00:00 | |
| BIOWL9-15 | 2026-09-04 19:12:29 | 49.77847 | 9.30644 | 81° | 119km/h | 6726m | -9.9m/s | -15.9°C | 30.9% | 444.6hPa | 2.5V | 00:00:00 | 00:00:00 | 00:00:00 | |
| DM0DOS-11 | 2026-09-04 19:12:28 | 49.77822 | 9.30366 | 82° | 122km/h | 6788m | -11.1m/s | -16.4°C | 32.6% | 441.1hPa | 2.5V | 02:36:19 | 02:42:33 | 00:00:00 | |
| BIOWL1-15 | 2026-09-04 19:12:22 | 49.77810 | 9.30226 | 83° | 119km/h | 6823m | -11.6m/s | -16.7°C | 36.2% | 439.1hPa | 2.6V | 02:36:31 | 02:42:30 | 00:00:00 | |
| BIOWL1-15 | 2026-09-04 19:12:10 | 49.77780 | 9.29754 | 85° | 120km/h | 6931m | -10.9m/s | -17.4°C | 29.8% | 432.7hPa | 2.6V | 02:37:22 | 02:42:20 | 00:00:00 | |
| DJTTGO | 2026-09-04 19:12:09 | 49.77780 | 9.29754 | 86° | 120km/h | 6931m | -10.9m/s | -17.4°C | 25.0% | 432.7hPa | 2.5V | 02:37:00 | 00:00:00 | 00:00:00 | |
| DO3MHA-11 | 2026-09-04 19:12:06 | 49.77770 | 9.29567 | 85° | 119km/h | 6974m | -10.7m/s | -17.5°C | 23.8% | 430.2hPa | 2.5V | 02:36:00 | 02:42:16 | 00:00:00 | |
| DK5PH-5 | 2026-09-04 19:12:05 | 49.77767 | 9.29519 | 84° | 120km/h | 6985m | -10.6m/s | -17.6°C | 23.8% | 429.5hPa | 2.6V | 02:36:00 | 02:42:15 | 00:00:00 | |
| DB0ND-19 | 2026-09-04 19:12:04 | 49.77756 | 9.29381 | 83° | 117km/h | 7016m | -10.8m/s | -17.9°C | 22.3% | 427.9hPa | 2.5V | 00:00:00 | 00:00:00 | 00:00:00 | |
| SFWM-10 | 2026-09-04 19:12:01 | 49.77756 | 9.29381 | 84° | 119km/h | 7016m | -10.8m/s | -17.9°C | 22.3% | 427.9hPa | 2.5V | 02:37:00 | 00:00:00 | 00:00:00 | |
| DM0DOS-11 | 2026-09-04 19:11:58 | 49.77728 | 9.28962 | 83° | 120km/h | 7106m | -9.9m/s | -18.3°C | 21.5% | 422.8hPa | 2.5V | 02:36:49 | 02:42:03 | 00:00:00 | |
| BIOWL1-15 | 2026-09-04 19:11:58 | 49.77743 | 9.29196 | 85° | 120km/h | 7057m | -9.6m/s | -18.1°C | 27% | 425.5hPa | 2.6V | 02:37:22 | 02:42:08 | 00:00:00 | |
| BIOWL1-15 | 2026-09-04 19:11:50 | 49.77711 | 9.28728 | 83° | 119km/h | 7162m | -11.7m/s | -18.5°C | 22.5% | 419.8hPa | 2.6V | 02:37:22 | 02:41:58 | 00:00:00 | |
| DL1ZP-14 | 2026-09-04 19:11:49 | 49.77715 | 9.28774 | 83° | 122km/h | 7150m | -11.2m/s | -18.5°C | 18.4% | 420.3hPa | 2.6V | 00:00:00 | 00:00:00 | 00:00:00 | |
| DM0DOS-11 | 2026-09-04 19:11:48 | 49.77695 | 9.28495 | 84° | 120km/h | 7217m | -11.1m/s | -18.9°C | 18.8% | 416.7hPa | 2.6V | 02:36:59 | 02:41:53 | 00:00:00 | |
| NBG1-10 | 2026-09-04 19:11:47 | 49.77708 | 9.28681 | 85° | 120km/h | 7173m | -10.8m/s | -18.5°C | 18.9% | 419.1hPa | 2.5V | 02:36:00 | 02:41:57 | 00:00:00 | |
| DO3MHA-11 | 2026-09-04 19:11:46 | 49.77704 | 9.28634 | 83° | 119km/h | 7184m | -11.6m/s | -18.6°C | 18.8% | 418.4hPa | 2.6V | 00:00:00 | 02:41:56 | 00:00:00 | |
| DF1GD-15 | 2026-09-04 19:11:45 | 49.77705 | 9.28634 | 84° | 119km/h | 7184m | -11.7m/s | -18.6°C | 17.9% | 418.5hPa | 2.6V | 02:37:00 | 00:00:00 | 00:00:00 | |
| DB0UT-9 | 2026-09-04 19:11:44 | 49.77701 | 9.28588 | 86° | 120km/h | 7195m | -10.0m/s | -18.7°C | 17.9% | 417.9hPa | 2.6V | 00:00:00 | 00:00:00 | 00:00:00 | |
| DF2AP-13 | 2026-09-04 19:11:42 | 49.77691 | 9.28448 | 83° | 120km/h | 7228m | -11.4m/s | -18.9°C | 18.8% | 415.9hPa | 2.6V | 00:00:00 | 02:41:52 | 00:00:00 | |
| SFWM-10 | 2026-09-04 19:11:40 | 49.77687 | 9.28402 | 85° | 119km/h | 7239m | -10.7m/s | -19.0°C | 17.9% | 415.4hPa | 2.6V | 02:37:00 | 00:00:00 | 00:00:00 | |
| DM0DOS-11 | 2026-09-04 19:11:38 | 49.77658 | 9.28031 | 83° | 120km/h | 7324m | -8.5m/s | -19.8°C | 20% | 410.6hPa | 2.6V | 02:37:09 | 02:41:43 | 00:00:00 | |
| BIOWL1-15 | 2026-09-04 19:11:37 | 49.77673 | 9.28218 | 83° | 119km/h | 7283m | -10.6m/s | -19.4°C | 22.8% | 413.1hPa | 2.6V | 02:37:22 | 02:41:47 | 00:00:00 | |
| DK5PH-5 | 2026-09-04 19:11:35 | 49.77666 | 9.28125 | 83° | 120km/h | 7305m | -10.5m/s | -19.5°C | 19.7% | 411.6hPa | 2.6V | 00:00:00 | 02:41:45 | 00:00:00 | |
| DB0ND-19 | 2026-09-04 19:11:33 | 49.77658 | 9.28031 | 83° | 120km/h | 7324m | -8.5m/s | -19.8°C | 19.0% | 410.6hPa | 2.6V | 00:00:00 | 00:00:00 | 00:00:00 | |
| BIOWL7-15 | 2026-09-04 19:11:29 | 49.77647 | 9.27890 | 84° | 122km/h | 7353m | -9.5m/s | -20.0°C | 19.6% | 408.9hPa | 2.6V | 00:00:00 | 00:00:00 | 00:00:00 | |
| DM0DOS-11 | 2026-09-04 19:11:28 | 49.77623 | 9.27565 | 84° | 120km/h | 7421m | -10.2m/s | -20.4°C | 17.7% | 405.2hPa | 2.6V | 02:37:19 | 02:41:33 | 00:00:00 | |
| BIOWL1-15 | 2026-09-04 19:11:28 | 49.77633 | 9.27705 | 85° | 119km/h | 7391m | -9m/s | -20.2°C | 22.3% | 406.8hPa | 2.5V | 02:37:22 | 02:41:36 | 00:00:00 | |
| BIOWL1-15 | 2026-09-04 19:11:19 | 49.77598 | 9.27191 | 85° | 120km/h | 7507m | -11.3m/s | -21°C | 19.2% | 400.4hPa | 2.6V | 02:39:04 | 02:41:25 | 00:00:00 | |
| DM0DOS-11 | 2026-09-04 19:11:18 | 49.77591 | 9.27096 | 84° | 122km/h | 7529m | -10.4m/s | -21.2°C | 16.1% | 399.3hPa | 2.5V | 02:37:29 | 02:41:23 | 00:00:00 | |
| DB0UT-7 | 2026-09-04 19:11:17 | 49.77604 | 9.27284 | 85° | 130km/h | 7485m | -10.8m/s | 0°C | 0% | 0hPa | 2.5V | 02:37:00 | 02:41:27 | 00:00:00 | |
| DO3MHA-11 | 2026-09-04 19:11:16 | 49.77601 | 9.27237 | 84° | 122km/h | 7496m | -11.7m/s | -20.9°C | 16.2% | 401.0hPa | 2.5V | 00:00:00 | 02:41:26 | 00:00:00 | |
| DF7PN | 2026-09-04 19:11:15 | 49.77595 | 9.27144 | 84° | 120km/h | 7518m | -11.4m/s | -21.2°C | 15.2% | 399.9hPa | 2.5V | 00:00:00 | 00:00:00 | 00:00:00 | |
| NBG1-10 | 2026-09-04 19:11:14 | 49.77595 | 9.27143 | 85° | 128km/h | 7518m | -11.3m/s | -21.1°C | 16.2% | 399.9hPa | 2.5V | 00:00:00 | 02:41:24 | 00:00:00 | |
| DF2AP-13 | 2026-09-04 19:11:12 | 49.77589 | 9.27049 | 86° | 128km/h | 7538m | -9.5m/s | -21.3°C | 15.8% | 398.7hPa | 2.5V | 02:37:00 | 02:41:22 | 00:00:00 | |
| DM0DOS-11 | 2026-09-04 19:11:08 | 49.77557 | 9.26612 | 82° | 126km/h | 7626m | -10.1m/s | -22.1°C | 16.8% | 393.9hPa | 2.6V | 02:37:39 | 02:41:13 | 00:00:00 | |
| BIOWL1-15 | 2026-09-04 19:11:04 | 49.77561 | 9.26662 | 83° | 128km/h | 7617m | -8.8m/s | -22°C | 19.7% | 394.5hPa | 2.6V | 02:39:04 | 02:41:14 | 00:00:00 | |
| DB0UT-9 | 2026-09-04 19:11:03 | 49.77561 | 9.26662 | 84° | 128km/h | 7617m | -8.8m/s | -22.0°C | 15.8% | 394.5hPa | 2.5V | 02:38:00 | 00:00:00 | 00:00:00 | |
| DB0ND-19 | 2026-09-04 19:11:02 | 49.77548 | 9.26515 | 82° | 124km/h | 7646m | -9.2m/s | -22.2°C | 15.8% | 393.0hPa | 2.5V | 00:00:00 | 00:00:00 | 00:00:00 | |
| DM0DOS-11 | 2026-09-04 19:10:58 | 49.77512 | 9.26119 | 81° | 130km/h | 7719m | -9.9m/s | -22.7°C | 16.6% | 389.1hPa | 2.5V | 02:37:49 | 02:41:03 | 00:00:00 | |
| BIOWL1-15 | 2026-09-04 19:10:54 | 49.77517 | 9.26169 | 82° | 131km/h | 7710m | -9.1m/s | -22.7°C | 19.3% | 389.6hPa | 2.5V | 02:39:04 | 02:41:04 | 00:00:00 | |
| HARRO8 | 2026-09-04 19:10:54 | 49.77512 | 9.26119 | 81° | 130km/h | 7719m | -9.9m/s | -22.7°C | 15.5% | 389.1hPa | 2.6V | 00:00:00 | 00:00:00 | 00:00:00 | |
| DM7RM-13 | 2026-09-04 19:10:51 | 49.77508 | 9.26068 | 83° | 130km/h | 7730m | -10.1m/s | -22.8°C | 15.7% | 388.7hPa | 2.6V | 02:38:00 | 00:00:00 | 00:00:00 | |
| DM0DOS-11 | 2026-09-04 19:10:48 | 49.77465 | 9.25613 | 82° | 130km/h | 7814m | -9m/s | -23.3°C | 15.2% | 384.2hPa | 2.6V | 02:37:59 | 02:40:53 | 00:00:00 | |
| DL1ZP-14 | 2026-09-04 19:10:47 | 49.77484 | 9.25814 | 81° | 130km/h | 7774m | -10.2m/s | -23.1°C | 15.1% | 386.3hPa | 2.5V | 00:00:00 | 00:00:00 | 00:00:00 | |
| BIOWL1-15 | 2026-09-04 19:10:45 | 49.77465 | 9.25613 | 83° | 130km/h | 7814m | -9m/s | -23.3°C | 17.5% | 384.2hPa | 2.6V | 02:39:04 | 02:40:53 | 00:00:00 | |
| CB1BUN | 2026-09-04 19:10:44 | 49.77475 | 9.25713 | 83° | 131km/h | 7794m | -10.5m/s | -23.3°C | 14.7% | 385.4hPa | 2.6V | 02:38:00 | 00:00:00 | 00:00:00 | |
| DF1GD-15 | 2026-09-04 19:10:43 | 49.77469 | 9.25663 | 83° | 128km/h | 7804m | -10.4m/s | -23.3°C | 14.4% | 384.8hPa | 2.6V | 02:38:00 | 00:00:00 | 00:00:00 | |
| DF2AP-13 | 2026-09-04 19:10:42 | 49.77461 | 9.25562 | 84° | 131km/h | 7822m | -9.5m/s | -23.3°C | 14.8% | 383.8hPa | 2.6V | 00:00:00 | 02:40:52 | 00:00:00 | |
| NBG1-10 | 2026-09-04 19:10:41 | 49.77457 | 9.25511 | 83° | 131km/h | 7832m | -10.3m/s | -23.4°C | 14.4% | 383.3hPa | 2.6V | 00:00:00 | 02:40:51 | 00:00:00 | |
| DM0DOS-11 | 2026-09-04 19:10:38 | 49.77428 | 9.25106 | 84° | 131km/h | 7916m | -10.3m/s | -23.9°C | 12.2% | 378.9hPa | 2.6V | 02:38:09 | 02:40:43 | 00:00:00 | |
| BIOWL1-15 | 2026-09-04 19:10:36 | 49.77425 | 9.25056 | 83° | 128km/h | 7926m | -10.8m/s | -24°C | 13.8% | 378.4hPa | 2.6V | 02:39:04 | 02:40:42 | 00:00:00 | |
| DO3MHA-11 | 2026-09-04 19:10:36 | 49.77439 | 9.25257 | 84° | 130km/h | 7884m | -11.7m/s | -23.7°C | 13.2% | 380.6hPa | 2.5V | 02:38:00 | 02:40:46 | 00:00:00 | |
| DK5PH-5 | 2026-09-04 19:10:35 | 49.77436 | 9.25207 | 84° | 130km/h | 7895m | -10.9m/s | -23.7°C | 12.9% | 380.0hPa | 2.5V | 02:38:00 | 02:40:45 | 00:00:00 | |
| DB0ND-19 | 2026-09-04 19:10:31 | 49.77418 | 9.24955 | 84° | 130km/h | 7947m | -9.8m/s | -24.0°C | 9.9% | 377.3hPa | 2.6V | 00:00:00 | 00:00:00 | 00:00:00 | |
| DM0DOS-11 | 2026-09-04 19:10:28 | 49.77392 | 9.24601 | 83° | 130km/h | 8013m | -10.3m/s | -24.1°C | 9.5% | 373.8hPa | 2.6V | 02:38:19 | 02:40:33 | 00:00:00 | |
| BIOWL1-15 | 2026-09-04 19:10:20 | 49.77368 | 9.24243 | 83° | 131km/h | 8078m | -9.2m/s | -24.7°C | 12.5% | 370.5hPa | 2.5V | 02:39:04 | 02:40:26 | 00:00:00 | |
| DM0DOS-11 | 2026-09-04 19:10:18 | 49.77357 | 9.24090 | 84° | 131km/h | 8108m | -10.1m/s | -24.9°C | 10.4% | 368.9hPa | 2.6V | 02:38:29 | 02:40:23 | 00:00:00 | |
| SFWM-10 | 2026-09-04 19:10:17 | 49.77375 | 9.24345 | 85° | 131km/h | 8061m | -8.1m/s | -24.6°C | 9.3% | 371.3hPa | 2.6V | 02:39:00 | 00:00:00 | 00:00:00 | |
| DO3MHA-11 | 2026-09-04 19:10:16 | 49.77368 | 9.24243 | 84° | 130km/h | 8078m | -9.2m/s | -24.6°C | 10.7% | 370.5hPa | 2.6V | 00:00:00 | 02:40:26 | 00:00:00 | |
| DL0LBS | 2026-09-04 19:10:15 | 49.77368 | 9.24243 | 84° | 131km/h | 8078m | -9.2m/s | -24.7°C | 9.8% | 370.5hPa | 2.6V | 02:39:00 | 00:00:00 | 00:00:00 | |
| DF7PN | 2026-09-04 19:10:13 | 49.77354 | 9.24040 | 83° | 128km/h | 8119m | -11.1m/s | -25.0°C | 9.0% | 368.4hPa | 2.6V | 00:00:00 | 00:00:00 | 00:00:00 | |
| DF2AP-13 | 2026-09-04 19:10:12 | 49.77354 | 9.24040 | 84° | 128km/h | 8119m | -11.0m/s | -24.9°C | 9.9% | 368.4hPa | 2.6V | 00:00:00 | 02:40:22 | 00:00:00 | |
| DM7RM-13 | 2026-09-04 19:10:11 | 49.77354 | 9.24040 | 84° | 130km/h | 8119m | -11.1m/s | -25.0°C | 9.0% | 368.4hPa | 2.6V | 02:39:00 | 00:00:00 | 00:00:00 | |
| DM0DOS-11 | 2026-09-04 19:10:08 | 49.77324 | 9.23587 | 85° | 130km/h | 8213m | -10.7m/s | -25.7°C | 12.4% | 363.7hPa | 2.6V | 02:38:39 | 02:40:13 | 00:00:00 | |
| BIOWL1-15 | 2026-09-04 19:10:05 | 49.77330 | 9.23688 | 85° | 130km/h | 8192m | -10.5m/s | -25.6°C | 13.6% | 364.8hPa | 2.5V | 02:39:04 | 02:40:15 | 00:00:00 | |
| DK5PH-5 | 2026-09-04 19:10:05 | 49.77330 | 9.23688 | 85° | 128km/h | 8193m | -10.4m/s | -25.6°C | 11.5% | 364.8hPa | 2.5V | 00:00:00 | 02:40:15 | 00:00:00 | |
| DF1GD-15 | 2026-09-04 19:10:03 | 49.77327 | 9.23637 | 85° | 128km/h | 8203m | -10.4m/s | -25.7°C | 10.9% | 364.2hPa | 2.5V | 02:39:00 | 00:00:00 | 00:00:00 | |
| DB0ND-19 | 2026-09-04 19:10:00 | 49.77312 | 9.23386 | 84° | 130km/h | 8256m | -11.1m/s | -26.1°C | 13.1% | 361.6hPa | 2.5V | 00:00:00 | 00:00:00 | 00:00:00 | |
| DM0DOS-11 | 2026-09-04 19:09:57 | 49.77293 | 9.23036 | 84° | 130km/h | 8335m | -11m/s | -26.7°C | 17.6% | 357.7hPa | 2.5V | 02:38:50 | 02:40:02 | 00:00:00 | |
| BIOWL1-15 | 2026-09-04 19:09:55 | 49.77301 | 9.23185 | 85° | 126km/h | 8300m | -11.8m/s | -26.5°C | 19.1% | 359.3hPa | 2.5V | 02:39:04 | 02:40:05 | 00:00:00 | |
| BIOWL9-15 | 2026-09-04 19:09:54 | 49.77298 | 9.23135 | 85° | 130km/h | 8312m | -11.4m/s | -26.5°C | 15.1% | 358.8hPa | 2.6V | 00:00:00 | 00:00:00 | 00:00:00 | |
| HARRO8 | 2026-09-04 19:09:51 | 49.77290 | 9.22986 | 84° | 126km/h | 8346m | -10.9m/s | -26.8°C | 16.8% | 357.2hPa | 2.6V | 00:00:00 | 00:00:00 | 00:00:00 | |
| BIOWL1-15 | 2026-09-04 19:09:46 | 49.77267 | 9.22640 | 83° | 126km/h | 8418m | -8.9m/s | -27.4°C | 26.9% | 353.6hPa | 2.6V | 02:39:04 | 02:39:54 | 00:00:00 | |
| DL1ZP-14 | 2026-09-04 19:09:45 | 49.77270 | 9.22689 | 84° | 126km/h | 8408m | -9.7m/s | -27.3°C | 20.8% | 354.0hPa | 2.5V | 00:00:00 | 00:00:00 | 00:00:00 | |
| BIOWL1-15 | 2026-09-04 19:09:33 | 49.77230 | 9.22102 | 85° | 126km/h | 8519m | -8.1m/s | -28.2°C | 25.6% | 348.8hPa | 2.6V | 02:39:55 | 02:39:43 | 00:00:00 | |
| BIOWL1-15 | 2026-09-04 19:09:23 | 49.77198 | 9.21612 | 84° | 124km/h | 8614m | -8.7m/s | -29.1°C | 26.6% | 344.1hPa | 2.6V | 02:39:55 | 02:39:33 | 00:00:00 | |
| BIOWL1-15 | 2026-09-04 19:09:12 | 49.77161 | 9.21072 | 84° | 128km/h | 8725m | -10.3m/s | -30.1°C | 27.7% | 338.9hPa | 2.6V | 02:39:55 | 02:39:22 | 00:00:00 | |
| BIOWL1-15 | 2026-09-04 19:09:01 | 49.77124 | 9.20530 | 85° | 128km/h | 8829m | -9.1m/s | -31.1°C | 27.2% | 333.9hPa | 2.6V | 02:39:55 | 02:39:11 | 00:00:00 | |
| BIOWL1-15 | 2026-09-04 19:08:50 | 49.77084 | 9.19999 | 82° | 122km/h | 8936m | -10.2m/s | -31.8°C | 16.5% | 329hPa | 2.6V | 02:39:55 | 02:39:00 | 00:00:00 | |
| HARRO8 | 2026-09-04 19:08:49 | 49.77080 | 9.19952 | 82° | 122km/h | 8945m | -8.5m/s | -31.9°C | 12.0% | 328.5hPa | 2.6V | 00:00:00 | 00:00:00 | 00:00:00 | |
| BIOWL1-15 | 2026-09-04 19:08:39 | 49.77040 | 9.19484 | 83° | 119km/h | 9036m | -6.2m/s | -32.4°C | 13% | 324.2hPa | 2.6V | 02:40:46 | 02:38:49 | 00:00:00 | |
| BIOWL1-15 | 2026-09-04 19:08:29 | 49.77001 | 9.19029 | 81° | 117km/h | 9106m | -8m/s | -32.9°C | 13.7% | 321hPa | 2.6V | 02:40:46 | 02:38:39 | 00:00:00 | |
| BIOWL1-15 | 2026-09-04 19:08:18 | 49.76956 | 9.18542 | 81° | 111km/h | 9196m | -7.7m/s | -33.5°C | 14.8% | 316.9hPa | 2.6V | 02:40:46 | 02:38:28 | 00:00:00 | |
| DL1NUX | 2026-09-04 19:08:17 | 49.76927 | 9.18281 | 80° | 111km/h | 9241m | -7.7m/s | -33.9°C | 13.8% | 315hPa | 2.5V | 02:40:30 | 02:38:22 | 00:00:00 | |
| BIOWL1-15 | 2026-09-04 19:08:08 | 49.76911 | 9.18107 | 83° | 111km/h | 9271m | -8.4m/s | -34.1°C | 16.4% | 313.6hPa | 2.6V | 02:40:46 | 02:38:18 | 00:00:00 | |
| DL1NUX | 2026-09-04 19:08:08 | 49.76886 | 9.17851 | 82° | 108km/h | 9319m | -9.8m/s | -34.5°C | 14.2% | 311.5hPa | 2.6V | 02:40:40 | 02:38:12 | 00:00:00 | |
| BIOWL1-15 | 2026-09-04 19:08:02 | 49.76867 | 9.17598 | 84° | 110km/h | 9373m | -9.1m/s | -34.7°C | 16.1% | 309.1hPa | 2.6V | 02:40:46 | 02:38:06 | 00:00:00 | |
| SO1NDE-10 | 2026-09-04 19:08:02 | 49.76886 | 9.17851 | 83° | 106km/h | 9319m | -9.7m/s | 0°C | 0% | 311.5hPa | 2.6V | 02:40:00 | 02:38:12 | 00:00:00 | |
| CB1BUN | 2026-09-04 19:08:01 | 49.76883 | 9.17809 | 83° | 108km/h | 9329m | -9.9m/s | -34.6°C | 12.3% | 311.1hPa | 2.5V | 02:40:00 | 00:00:00 | 00:00:00 | |
| DM0DOS-11 | 2026-09-04 19:07:58 | 49.76858 | 9.17470 | 82° | 108km/h | 9396m | -8.4m/s | -34.9°C | 14.5% | 308hPa | 2.5V | 02:40:49 | 02:38:03 | 00:00:00 | |
| DD1CC8 | 2026-09-04 19:07:58 | 49.76869 | 9.17640 | 84° | 108km/h | 9365m | -8.4m/s | -34.7°C | 12.2% | 309.6hPa | 2.6V | 00:00:00 | 00:00:00 | 00:00:00 | |
| DL1NUX | 2026-09-04 19:07:57 | 49.76855 | 9.17428 | 83° | 108km/h | 9404m | -7.7m/s | 0°C | 0% | 0hPa | 2.6V | 00:00:00 | 02:38:02 | 00:00:00 | |
| DB0ND-19 | 2026-09-04 19:07:56 | 49.76864 | 9.17555 | 84° | 108km/h | 9381m | -7.1m/s | -34.8°C | 12.4% | 308.7hPa | 2.5V | 00:00:00 | 00:00:00 | 00:00:00 | |
| BIOWL9-15 | 2026-09-04 19:07:50 | 49.76847 | 9.17346 | 81° | 106km/h | 9419m | -7.5m/s | -35.1°C | 13.5% | 307.0hPa | 2.5V | 00:00:00 | 00:00:00 | 00:00:00 | |
| KANTATE | 2026-09-04 19:07:49 | 49.76847 | 9.17345 | 83° | 108km/h | 9419m | -7.5m/s | -35.1°C | 13.5% | 307.0hPa | 2.5V | 02:41:00 | 00:00:00 | 00:00:00 | |
| DL1NUX | 2026-09-04 19:07:47 | 49.76821 | 9.17019 | 84° | 100km/h | 9488m | -8m/s | 0°C | 0% | 0hPa | 2.5V | 00:00:00 | 02:37:52 | 00:00:00 | |
| DM0DOS-11 | 2026-09-04 19:07:46 | 49.76818 | 9.16980 | 83° | 99km/h | 9496m | -7.5m/s | -35.5°C | 17.4% | 303.6hPa | 2.6V | 02:41:01 | 02:37:51 | 00:00:00 | |
| BIOWL1-15 | 2026-09-04 19:07:45 | 49.76830 | 9.17138 | 84° | 106km/h | 9463m | -9.7m/s | -35.3°C | 19.3% | 305.2hPa | 2.6V | 02:41:37 | 02:37:55 | 00:00:00 | |
| HSKMA3-T | 2026-09-04 19:07:41 | 49.76818 | 9.16980 | 84° | 99km/h | 9496m | -7.5m/s | -35.5°C | 20.1% | 303.6hPa | 2.6V | 02:43:19 | 02:37:51 | 00:00:00 | |
| DF2AP-13 | 2026-09-04 19:07:41 | 49.76818 | 9.16980 | 84° | 102km/h | 9496m | -7.5m/s | -35.4°C | 17.4% | 303.6hPa | 2.5V | 00:00:00 | 02:37:51 | 00:00:00 | |
| CB1BUN | 2026-09-04 19:07:40 | 49.76818 | 9.16980 | 85° | 99km/h | 9496m | -7.5m/s | -35.5°C | 15.4% | 303.6hPa | 2.5V | 02:41:00 | 00:00:00 | 00:00:00 | |
| DL1NUX | 2026-09-04 19:07:37 | 49.76783 | 9.16621 | 82° | 106km/h | 9566m | -7.3m/s | 0°C | 0% | 0hPa | 2.5V | 00:00:00 | 02:37:42 | 00:00:00 | |
| BIOWL1-15 | 2026-09-04 19:07:37 | 49.76796 | 9.16743 | 81° | 106km/h | 9542m | -7.9m/s | -35.9°C | 19.7% | 301.6hPa | 2.6V | 02:41:37 | 02:37:45 | 00:00:00 | |
| DO3MHA-11 | 2026-09-04 19:07:36 | 49.76800 | 9.16784 | 81° | 106km/h | 9535m | -7.5m/s | -35.8°C | 17.4% | 302.0hPa | 2.5V | 02:41:00 | 02:37:46 | 00:00:00 | |
| DM0DOS-11 | 2026-09-04 19:07:34 | 49.76773 | 9.16497 | 84° | 106km/h | 9588m | -7.6m/s | -36.2°C | 16.1% | 299.6hPa | 2.6V | 02:41:13 | 02:37:39 | 00:00:00 | |
| DK5PH-5 | 2026-09-04 19:07:33 | 49.76787 | 9.16661 | 82° | 100km/h | 9558m | -7.8m/s | -35.9°C | 17.0% | 300.9hPa | 2.5V | 02:41:00 | 02:37:43 | 00:00:00 | |
| SO1NDE-10 | 2026-09-04 19:07:32 | 49.76783 | 9.16621 | 83° | 102km/h | 9566m | -7.3m/s | 0°C | 0% | 0hPa | 2.5V | 00:00:00 | 02:37:42 | 00:00:00 | |
| DL0LBS | 2026-09-04 19:07:30 | 49.76780 | 9.16580 | 84° | 106km/h | 9573m | -7.9m/s | -36.1°C | 14.7% | 300.4hPa | 2.5V | 02:41:00 | 00:00:00 | 00:00:00 | |
| KANTATE | 2026-09-04 19:07:28 | 49.76773 | 9.16497 | 85° | 106km/h | 9588m | -7.6m/s | -36.2°C | 14.2% | 299.6hPa | 2.5V | 02:41:00 | 00:00:00 | 00:00:00 | |
| DL1NUX | 2026-09-04 19:07:27 | 49.76759 | 9.16213 | 86° | 102km/h | 9649m | -9.2m/s | 0°C | 0% | 0hPa | 2.5V | 00:00:00 | 02:37:32 | 00:00:00 | |
| BIOWL1-15 | 2026-09-04 19:07:23 | 49.76761 | 9.16253 | 86° | 102km/h | 9641m | -7.9m/s | -36.4°C | 16.5% | 297.4hPa | 2.6V | 02:41:37 | 02:37:33 | 00:00:00 | |
| HSKMA3-T | 2026-09-04 19:07:22 | 49.76759 | 9.16213 | 86° | 102km/h | 9649m | -9.2m/s | -36.5°C | 16.5% | 297.1hPa | 2.5V | 02:43:19 | 02:37:32 | 00:00:00 | |
| DK7TD | 2026-09-04 19:07:20 | 49.76757 | 9.16134 | 88° | 100km/h | 9667m | -9.9m/s | -36.6°C | 16.5% | 0hPa | 2.5V | 02:42:28 | 02:37:30 | 00:00:00 | |
| BIOWL9-15 | 2026-09-04 19:07:19 | 49.76754 | 9.16055 | 87° | 100km/h | 9685m | -8.0m/s | -36.7°C | 12.8% | 295.6hPa | 2.6V | 00:00:00 | 00:00:00 | 00:00:00 | |
| DL1NUX | 2026-09-04 19:07:17 | 49.76748 | 9.15818 | 89° | 100km/h | 9743m | -9.9m/s | 0°C | 0% | 0hPa | 2.6V | 00:00:00 | 02:37:22 | 00:00:00 | |
| BIOWL1-15 | 2026-09-04 19:07:12 | 49.76748 | 9.15818 | 89° | 100km/h | 9743m | -9.9m/s | -36.9°C | 18.1% | 293.2hPa | 2.6V | 02:41:37 | 02:37:22 | 00:00:00 | |
| DF2AP-13 | 2026-09-04 19:07:11 | 49.76747 | 9.15779 | 88° | 93km/h | 9753m | -10.7m/s | -37.0°C | 15.7% | 292.7hPa | 2.5V | 00:00:00 | 02:37:21 | 00:00:00 | |
| DL1ZP-14 | 2026-09-04 19:07:10 | 49.76746 | 9.15701 | 89° | 97km/h | 9774m | -11.1m/s | -37.2°C | 14.6% | 291.9hPa | 2.5V | 00:00:00 | 00:00:00 | 00:00:00 | |
| DM0DOS-11 | 2026-09-04 19:07:09 | 49.76744 | 9.15517 | 88° | 91km/h | 9819m | -8.6m/s | -37.4°C | 21.1% | 289.9hPa | 2.5V | 02:41:38 | 02:37:14 | 00:00:00 | |
| HSKMA3-T | 2026-09-04 19:07:08 | 49.76746 | 9.15663 | 89° | 97km/h | 9785m | -9.9m/s | -37.2°C | 20.1% | 291.3hPa | 2.5V | 02:43:19 | 02:37:18 | 00:00:00 | |
| BIOWL1-15 | 2026-09-04 19:07:01 | 49.76743 | 9.15408 | 89° | 93km/h | 9843m | -8m/s | -37.6°C | 27.2% | 288.9hPa | 2.6V | 02:42:28 | 02:37:11 | 00:00:00 | |
| BIOWL1-15 | 2026-09-04 19:06:50 | 49.76734 | 9.15022 | 91° | 93km/h | 9936m | -7.7m/s | -38.3°C | 37.6% | 284.9hPa | 2.5V | 02:42:28 | 02:37:00 | 00:00:00 | |
| NBG1-10 | 2026-09-04 19:06:49 | 49.76734 | 9.14985 | 91° | 89km/h | 9943m | -8.1m/s | -38.3°C | 34.6% | 284.6hPa | 2.6V | 02:41:00 | 02:36:59 | 00:00:00 | |
| DL1NUX | 2026-09-04 19:06:48 | 49.76739 | 9.14766 | 94° | 91km/h | 9991m | -8.1m/s | 0°C | 0% | 0hPa | 2.6V | 00:00:00 | 02:36:53 | 00:00:00 | |
| HSKMA3-T | 2026-09-04 19:06:46 | 49.76735 | 9.14875 | 92° | 95km/h | 9968m | -8m/s | -38.5°C | 41.8% | 283.7hPa | 2.5V | 02:43:19 | 02:36:56 | 00:00:00 | |
| HARRO8 | 2026-09-04 19:06:45 | 49.76736 | 9.14839 | 93° | 91km/h | 9976m | -8.0m/s | -38.6°C | 35.9% | 283.3hPa | 2.5V | 00:00:00 | 00:00:00 | 00:00:00 | |
| BIOWL1-15 | 2026-09-04 19:06:42 | 49.76741 | 9.14660 | 92° | 88km/h | 10016m | -8.2m/s | -39°C | 48.4% | 281.6hPa | 2.5V | 02:42:28 | 02:36:50 | 00:00:00 | |
| DK7TD | 2026-09-04 19:06:38 | 49.76742 | 9.14592 | 90° | 86km/h | 10035m | -12.7m/s | -39.1°C | 51% | 0hPa | 2.6V | 02:42:28 | 02:36:48 | 00:00:00 | |
| HSKMA3-T | 2026-09-04 19:06:36 | 49.76742 | 9.14525 | 91° | 86km/h | 10057m | -10.6m/s | -39.4°C | 53.4% | 280.1hPa | 2.5V | 02:43:19 | 02:36:46 | 00:00:00 | |
| DO3MHA-11 | 2026-09-04 19:06:36 | 49.76742 | 9.14525 | 92° | 89km/h | 10057m | -10.5m/s | -39.3°C | 49.9% | 280.0hPa | 2.5V | 02:42:00 | 02:36:46 | 00:00:00 | |
| DF7PN | 2026-09-04 19:06:35 | 49.76742 | 9.14491 | 89° | 88km/h | 10068m | -10.9m/s | -39.5°C | 47.0% | 279.7hPa | 2.5V | 00:00:00 | 00:00:00 | 00:00:00 | |
| DL1NUX | 2026-09-04 19:06:33 | 49.76751 | 9.14241 | 93° | 89km/h | 10136m | -9.8m/s | 0°C | 0% | 0hPa | 2.5V | 00:00:00 | 02:36:38 | 00:00:00 | |
| BIOWL1-15 | 2026-09-04 19:06:29 | 49.76749 | 9.14276 | 93° | 89km/h | 10126m | -11m/s | -39.9°C | 54.9% | 277.3hPa | 2.5V | 02:42:28 | 02:36:39 | 00:00:00 | |
| DK7TD | 2026-09-04 19:06:24 | 49.76751 | 9.14107 | 91° | 86km/h | 10172m | -8.3m/s | -40.4°C | 56.3% | 0hPa | 2.5V | 02:42:28 | 02:36:34 | 00:00:00 | |
| DB0ND-19 | 2026-09-04 19:06:22 | 49.76753 | 9.14039 | 93° | 89km/h | 10189m | -8.0m/s | -40.5°C | 49.7% | 274.7hPa | 2.6V | 00:00:00 | 00:00:00 | 00:00:00 | |
| DB0UT-9 | 2026-09-04 19:06:19 | 49.76757 | 9.13968 | 97° | 93km/h | 10206m | -8.3m/s | -40.6°C | 50.2% | 274.1hPa | 2.6V | 02:42:00 | 00:00:00 | 00:00:00 | |
| DM0DOS-11 | 2026-09-04 19:06:18 | 49.76770 | 9.13713 | 93° | 93km/h | 10268m | -8.9m/s | -41.1°C | 48.8% | 271.5hPa | 2.6V | 02:42:29 | 02:36:23 | 00:00:00 | |
| BIOWL1-15 | 2026-09-04 19:06:18 | 49.76762 | 9.13895 | 95° | 95km/h | 10224m | -9.3m/s | -40.8°C | 57.9% | 273.3hPa | 2.5V | 02:42:28 | 02:36:28 | 00:00:00 | |
| DK7TD | 2026-09-04 19:06:14 | 49.76769 | 9.13749 | 93° | 93km/h | 10260m | -8.6m/s | -41°C | 53.9% | 0hPa | 2.6V | 02:42:28 | 02:36:24 | 00:00:00 | |
| DF2AP-13 | 2026-09-04 19:06:11 | 49.76772 | 9.13641 | 93° | 89km/h | 10288m | -9.7m/s | -41.2°C | 46.9% | 270.8hPa | 2.5V | 00:00:00 | 02:36:21 | 00:00:00 | |
| DM0DOS-11 | 2026-09-04 19:06:08 | 49.76785 | 9.13364 | 95° | 86km/h | 10360m | -8.9m/s | -41.9°C | 44.5% | 267.9hPa | 2.5V | 02:42:39 | 02:36:13 | 00:00:00 | |
| BIOWL1-15 | 2026-09-04 19:06:08 | 49.76776 | 9.13537 | 94° | 89km/h | 10314m | -9.2m/s | -41.5°C | 48.3% | 269.7hPa | 2.6V | 02:43:19 | 02:36:18 | 00:00:00 | |
| DF8AY | 2026-09-04 19:06:07 | 49.76778 | 9.13502 | 94° | 89km/h | 10323m | -9.3m/s | 0°C | 0% | 269.3hPa | 2.6V | 18:12:15 | 02:36:17 | 00:00:00 | |
| DO3MHA-11 | 2026-09-04 19:06:06 | 49.76780 | 9.13467 | 95° | 86km/h | 10333m | -10.4m/s | -41.6°C | 43.9% | 269.0hPa | 2.5V | 02:42:00 | 02:36:16 | 00:00:00 | |
| DF7PN | 2026-09-04 19:06:04 | 49.76783 | 9.13398 | 94° | 86km/h | 10351m | -8.7m/s | -41.8°C | 40.5% | 268.2hPa | 2.6V | 00:00:00 | 00:00:00 | 00:00:00 | |
| HSKMA3-T | 2026-09-04 19:06:04 | 49.76783 | 9.13398 | 95° | 88km/h | 10351m | -8.7m/s | -41.8°C | 48.8% | 268.2hPa | 2.5V | 02:43:19 | 02:36:14 | 00:00:00 | |
| DM7RM-13 | 2026-09-04 19:06:03 | 49.76783 | 9.13397 | 96° | 88km/h | 10351m | -8.7m/s | -41.8°C | 40.5% | 268.2hPa | 2.6V | 02:43:00 | 00:00:00 | 00:00:00 | |
| DK5PH-5 | 2026-09-04 19:06:02 | 49.76787 | 9.13330 | 96° | 89km/h | 10369m | -9.1m/s | -41.9°C | 44.6% | 267.5hPa | 2.6V | 02:42:00 | 02:36:12 | 00:00:00 | |
| DB0UT-9 | 2026-09-04 19:05:59 | 49.76791 | 9.13265 | 96° | 84km/h | 10387m | -9.6m/s | -42.2°C | 40.6% | 266.8hPa | 2.5V | 02:43:00 | 00:00:00 | 00:00:00 | |
| DM0DOS-11 | 2026-09-04 19:05:58 | 49.76802 | 9.13020 | 92° | 93km/h | 10448m | -9.4m/s | -42.6°C | 45.2% | 264.5hPa | 2.5V | 02:42:49 | 02:36:03 | 00:00:00 | |
| BIOWL1-15 | 2026-09-04 19:05:57 | 49.76797 | 9.13165 | 95° | 89km/h | 10413m | -8.6m/s | -42.4°C | 48.7% | 265.8hPa | 2.5V | 02:43:19 | 02:36:07 | 00:00:00 | |
| DF8AY | 2026-09-04 19:05:56 | 49.76799 | 9.13129 | 94° | 93km/h | 10422m | -8.6m/s | 0°C | 0% | 0hPa | 2.6V | 18:12:15 | 02:36:06 | 00:00:00 | |
| DD1CC8 | 2026-09-04 19:05:53 | 49.76802 | 9.13020 | 92° | 93km/h | 10448m | -9.5m/s | -42.6°C | 41.0% | 264.5hPa | 2.6V | 00:00:00 | 00:00:00 | 00:00:00 | |
| BIOWL7-15 | 2026-09-04 19:05:52 | 49.76803 | 9.12983 | 95° | 95km/h | 10457m | -7.9m/s | -42.7°C | 41.5% | 264.0hPa | 2.6V | 00:00:00 | 00:00:00 | 00:00:00 | |
| DM0DOS-11 | 2026-09-04 19:05:48 | 49.76817 | 9.12660 | 93° | 89km/h | 10541m | -11.9m/s | -43.4°C | 43% | 260.9hPa | 2.6V | 02:42:59 | 02:35:53 | 00:00:00 | |
| BIOWL1-15 | 2026-09-04 19:05:46 | 49.76813 | 9.12766 | 93° | 91km/h | 10510m | -8.6m/s | -43.1°C | 49.1% | 262hPa | 2.5V | 02:43:19 | 02:35:56 | 00:00:00 | |
| DF8AY | 2026-09-04 19:05:45 | 49.76815 | 9.12731 | 93° | 89km/h | 10520m | -10.6m/s | 0°C | 0% | 0hPa | 2.5V | 18:12:15 | 02:35:55 | 00:00:00 | |
| DK7TD | 2026-09-04 19:05:42 | 49.76819 | 9.12625 | 93° | 91km/h | 10552m | -10.5m/s | -43.5°C | 46.7% | 0hPa | 2.5V | 02:43:19 | 02:35:52 | 00:00:00 | |
| DF2AP-13 | 2026-09-04 19:05:41 | 49.76820 | 9.12589 | 95° | 89km/h | 10563m | -11.6m/s | -43.6°C | 41.2% | 260.0hPa | 2.5V | 00:00:00 | 02:35:51 | 00:00:00 | |
| DM0DOS-11 | 2026-09-04 19:05:38 | 49.76829 | 9.12307 | 91° | 91km/h | 10656m | -11.4m/s | -44.1°C | 38.2% | 256.4hPa | 2.5V | 02:43:09 | 02:35:43 | 00:00:00 | |
| BIOWL1-15 | 2026-09-04 19:05:35 | 49.76828 | 9.12378 | 92° | 91km/h | 10633m | -11.1m/s | -44°C | 41.8% | 257.3hPa | 2.5V | 02:43:19 | 02:35:45 | 00:00:00 | |
| DF8AY | 2026-09-04 19:05:34 | 49.76828 | 9.12342 | 93° | 89km/h | 10644m | -12.5m/s | 0°C | 0% | 0hPa | 2.5V | 18:12:15 | 02:35:44 | 00:00:00 | |
| DK7TD | 2026-09-04 19:05:31 | 49.76830 | 9.12238 | 91° | 88km/h | 10680m | -12.8m/s | -44.3°C | 45.1% | 0hPa | 2.6V | 02:43:19 | 02:35:41 | 00:00:00 | |
| DM0DOS-11 | 2026-09-04 19:05:28 | 49.76832 | 9.11959 | 90° | 89km/h | 10769m | -12m/s | -45.1°C | 43.7% | 252.1hPa | 2.5V | 02:43:19 | 02:35:33 | 00:00:00 | |
| BIOWL1-15 | 2026-09-04 19:05:25 | 49.76832 | 9.12029 | 90° | 89km/h | 10746m | -11.4m/s | -44.9°C | 48.5% | 253hPa | 2.6V | 02:43:19 | 02:35:35 | 00:00:00 | |
| HSKMA3-T | 2026-09-04 19:05:20 | 49.76833 | 9.11856 | 92° | 88km/h | 10802m | -10.5m/s | -45.4°C | 50.3% | 250.8hPa | 2.6V | 02:44:10 | 02:35:30 | 00:00:00 | |
| DM0DOS-11 | 2026-09-04 19:05:18 | 49.76838 | 9.11615 | 89° | 88km/h | 10871m | -13.2m/s | -46°C | 45.4% | 248.3hPa | 2.6V | 02:43:29 | 02:35:23 | 00:00:00 | |
| BIOWL1-15 | 2026-09-04 19:05:17 | 49.76837 | 9.11683 | 91° | 89km/h | 10849m | -9.7m/s | -45.9°C | 51.1% | 249hPa | 2.5V | 02:44:10 | 02:35:25 | 00:00:00 | |
| DK7TD | 2026-09-04 19:05:10 | 49.76839 | 9.11477 | 93° | 88km/h | 10922m | -13.3m/s | 0°C | 0% | 0hPa | 2.5V | 18:12:15 | 02:35:19 | 00:00:00 | |
| BIOWL1-15 | 2026-09-04 19:05:08 | 49.76837 | 9.11068 | 91° | 88km/h | 11074m | -12.1m/s | -47.9°C | 45.1% | 240.8hPa | 2.5V | 02:44:10 | 02:35:07 | 00:00:00 | |
| HSKMA3-T | 2026-09-04 19:05:05 | 49.76839 | 9.11340 | 89° | 89km/h | 10973m | -12.4m/s | -47°C | 49.8% | 244.5hPa | 2.5V | 02:44:10 | 02:35:15 | 00:00:00 | |
| AM1SDL-15 | 2026-09-04 19:05:04 | 49.76839 | 9.11305 | 91° | 88km/h | 10985m | -12.7m/s | -47.1°C | 44.3% | 244.0hPa | 2.5V | 00:00:00 | 02:35:14 | 00:00:00 | |
| BIOWL7-15 | 2026-09-04 19:05:03 | 49.76839 | 9.11305 | 92° | 88km/h | 10985m | -12.8m/s | -47.1°C | 39.5% | 244.0hPa | 2.5V | 00:00:00 | 00:00:00 | 00:00:00 | |
| DK5PH-5 | 2026-09-04 19:05:02 | 49.76838 | 9.11237 | 90° | 88km/h | 11009m | -12.9m/s | -47.3°C | 42.7% | 243.1hPa | 2.5V | 00:00:00 | 02:35:12 | 00:00:00 | |
| DH7VM-15 | 2026-09-04 19:05:01 | 49.76839 | 9.11237 | 90° | 89km/h | 11009m | -13.0m/s | -47.4°C | 37.9% | 243.1hPa | 2.5V | 00:00:00 | 00:00:00 | 00:00:00 | |
| DM0DOS-11 | 2026-09-04 19:04:58 | 49.76838 | 9.10931 | 90° | 88km/h | 11122m | -12.7m/s | -48.3°C | 40.4% | 239hPa | 2.5V | 02:43:49 | 02:35:03 | 00:00:00 | |
| HSKMA3-T | 2026-09-04 19:04:55 | 49.76837 | 9.11000 | 91° | 89km/h | 11098m | -12m/s | -48.1°C | 45.7% | 239.9hPa | 2.6V | 02:44:10 | 02:35:05 | 00:00:00 | |
| BIOWL1-15 | 2026-09-04 19:04:50 | 49.76841 | 9.10829 | 93° | 89km/h | 11161m | -13m/s | -48.4°C | 45.3% | 237.6hPa | 2.5V | 02:44:10 | 02:35:00 | 00:00:00 | |
| DK7TD | 2026-09-04 19:04:48 | 49.76844 | 9.10761 | 92° | 86km/h | 11186m | -13.3m/s | 0°C | 0% | 0hPa | 2.6V | 18:12:15 | 02:34:58 | 00:00:00 | |
| DM0DOS-11 | 2026-09-04 19:04:48 | 49.76851 | 9.10588 | 93° | 89km/h | 11250m | -11.4m/s | -49.2°C | 42.6% | 234.4hPa | 2.6V | 02:43:59 | 02:34:53 | 00:00:00 | |
| BIOWL1-15 | 2026-09-04 19:04:45 | 49.76857 | 9.10450 | 94° | 86km/h | 11297m | -13.4m/s | -49.7°C | 49.2% | 232.8hPa | 2.5V | 02:44:10 | 02:34:49 | 00:00:00 | |
| HSKMA3-T | 2026-09-04 19:04:44 | 49.76849 | 9.10622 | 94° | 88km/h | 11238m | -11.9m/s | -49.1°C | 47.5% | 234.8hPa | 2.5V | 02:44:10 | 02:34:54 | 00:00:00 | |
| HARRO8 | 2026-09-04 19:04:41 | 49.76853 | 9.10518 | 93° | 89km/h | 11273m | -10.6m/s | -49.5°C | 38.0% | 233.6hPa | 2.5V | 00:00:00 | 00:00:00 | 00:00:00 | |
| AM1SDL-15 | 2026-09-04 19:04:40 | 49.76855 | 9.10484 | 96° | 88km/h | 11285m | -12.3m/s | -49.5°C | 43.4% | 233.2hPa | 2.5V | 00:00:00 | 02:34:50 | 00:00:00 | |
| DF2AP-13 | 2026-09-04 19:04:39 | 49.76856 | 9.10449 | 94° | 88km/h | 11298m | -13.4m/s | -49.6°C | 43.8% | 232.7hPa | 2.5V | 00:00:00 | 02:34:49 | 00:00:00 | |
| DM0DOS-11 | 2026-09-04 19:04:38 | 49.76866 | 9.10243 | 95° | 88km/h | 11372m | -12.9m/s | -50.4°C | 45.1% | 230.2hPa | 2.5V | 02:44:09 | 02:34:43 | 00:00:00 | |
| DK7TD | 2026-09-04 19:04:36 | 49.76862 | 9.10346 | 96° | 89km/h | 11334m | -11m/s | 0°C | 0% | 0hPa | 2.6V | 18:12:15 | 02:34:46 | 00:00:00 | |
| HSKMA3-T | 2026-09-04 19:04:34 | 49.76864 | 9.10278 | 92° | 89km/h | 11359m | -12m/s | -50.3°C | 50.7% | 230.7hPa | 2.5V | 02:44:10 | 02:34:44 | 00:00:00 | |
| BIOWL1-15 | 2026-09-04 19:04:31 | 49.76871 | 9.10106 | 93° | 89km/h | 11423m | -12.1m/s | -50.9°C | 52.1% | 228.4hPa | 2.6V | 02:45:01 | 02:34:39 | 00:00:00 | |
| DK7TD | 2026-09-04 19:04:25 | 49.76875 | 9.09969 | 91° | 88km/h | 11471m | -11.8m/s | 0°C | 0% | 0hPa | 2.5V | 18:12:15 | 02:34:35 | 00:00:00 | |
| HSKMA3-T | 2026-09-04 19:04:24 | 49.76876 | 9.09935 | 94° | 89km/h | 11483m | -12.6m/s | -51.5°C | 53.1% | 226.2hPa | 2.6V | 02:45:01 | 02:34:34 | 00:00:00 | |
| BIOWL1-15 | 2026-09-04 19:04:19 | 49.76881 | 9.09763 | 93° | 89km/h | 11548m | -12.4m/s | -52.1°C | 53.8% | 224hPa | 2.5V | 02:45:01 | 02:34:29 | 00:00:00 | |
| DK7TD | 2026-09-04 19:04:14 | 49.76884 | 9.09593 | 90° | 86km/h | 11614m | -13.4m/s | 0°C | 0% | 0hPa | 2.5V | 18:12:15 | 02:34:24 | 00:00:00 | |
| HSKMA3-T | 2026-09-04 19:04:09 | 49.76885 | 9.09427 | 89° | 86km/h | 11680m | -13.2m/s | -53.2°C | 53.9% | 219.6hPa | 2.5V | 02:45:01 | 02:34:19 | 00:00:00 | |
| DF2AP-13 | 2026-09-04 19:04:09 | 49.76885 | 9.09427 | 90° | 86km/h | 11680m | -13.1m/s | -53.1°C | 48.7% | 219.6hPa | 2.5V | 00:00:00 | 02:34:19 | 00:00:00 | |
| DM0DOS-11 | 2026-09-04 19:04:08 | 49.76885 | 9.09230 | 91° | 84km/h | 11756m | -12.7m/s | -53.9°C | 48.7% | 216.9hPa | 2.5V | 02:44:39 | 02:34:13 | 00:00:00 | |
| BIOWL1-15 | 2026-09-04 19:04:08 | 49.76885 | 9.09394 | 90° | 84km/h | 11692m | -13.1m/s | -53.3°C | 53.9% | 219.1hPa | 2.5V | 02:45:01 | 02:34:18 | 00:00:00 | |
| HSKMA3-T | 2026-09-04 19:03:59 | 49.76885 | 9.09099 | 90° | 86km/h | 11805m | -13.4m/s | -54.4°C | 53.5% | 215.3hPa | 2.6V | 02:45:01 | 02:34:09 | 00:00:00 | |
| DM0DOS-11 | 2026-09-04 19:03:58 | 49.76882 | 9.08904 | 88° | 86km/h | 11881m | -13m/s | -55°C | 48.1% | 212.8hPa | 2.6V | 02:44:49 | 02:34:03 | 00:00:00 | |
| BIOWL1-15 | 2026-09-04 19:03:58 | 49.76885 | 9.09066 | 89° | 82km/h | 11819m | -13.5m/s | -54.5°C | 53.4% | 214.9hPa | 2.6V | 02:45:01 | 02:34:08 | 00:00:00 | |
| DD1CC8 | 2026-09-04 19:03:49 | 49.76881 | 9.08770 | 88° | 86km/h | 11934m | -11.5m/s | -55.4°C | 42.3% | 211.1hPa | 2.5V | 00:00:00 | 00:00:00 | 00:00:00 | |
| DM0DOS-11 | 2026-09-04 19:03:48 | 49.76876 | 9.08567 | 87° | 88km/h | 12002m | -13.5m/s | -55.8°C | 48.7% | 208.9hPa | 2.5V | 02:44:59 | 02:33:53 | 00:00:00 | |
| BIOWL1-15 | 2026-09-04 19:03:47 | 49.76880 | 9.08703 | 88° | 86km/h | 11957m | -11.6m/s | -55.6°C | 53.2% | 210.3hPa | 2.6V | 02:45:01 | 02:33:57 | 00:00:00 | |
| HSKMA3-T | 2026-09-04 19:03:43 | 49.76876 | 9.08567 | 88° | 88km/h | 12002m | -13.5m/s | -55.8°C | 53% | 208.9hPa | 2.5V | 02:45:01 | 02:33:53 | 00:00:00 | |
| BIOWL9-15 | 2026-09-04 19:03:41 | 49.76874 | 9.08498 | 87° | 88km/h | 12028m | -13.0m/s | -56.0°C | 41.8% | 208.0hPa | 2.5V | 00:00:00 | 00:00:00 | 00:00:00 | |
| DM7RM-13 | 2026-09-04 19:03:40 | 49.76874 | 9.08498 | 89° | 89km/h | 12028m | -13.0m/s | -56.0°C | 41.8% | 208.0hPa | 2.5V | 02:45:00 | 00:00:00 | 00:00:00 | |
| HARRO8 | 2026-09-04 19:03:39 | 49.76870 | 9.08396 | 88° | 86km/h | 12066m | -13.4m/s | -56.3°C | 41.5% | 206.8hPa | 2.5V | 00:00:00 | 00:00:00 | 00:00:00 | |
| DM0DOS-11 | 2026-09-04 19:03:38 | 49.76862 | 9.08226 | 85° | 86km/h | 12128m | -13m/s | -56.9°C | 47% | 204.8hPa | 2.5V | 02:45:09 | 02:33:43 | 00:00:00 | |
| BIOWL1-15 | 2026-09-04 19:03:38 | 49.76867 | 9.08328 | 86° | 88km/h | 12091m | -11.9m/s | -56.6°C | 52.1% | 206hPa | 2.5V | 02:45:52 | 02:33:46 | 00:00:00 | |
| HSKMA3-T | 2026-09-04 19:03:33 | 49.76862 | 9.08226 | 86° | 86km/h | 12128m | -13m/s | -56.9°C | 51.4% | 204.8hPa | 2.5V | 02:47:34 | 02:33:43 | 00:00:00 | |
| DK5PH-5 | 2026-09-04 19:03:32 | 49.76861 | 9.08192 | 88° | 89km/h | 12142m | -13.0m/s | -57.0°C | 46.5% | 204.3hPa | 2.5V | 00:00:00 | 02:33:42 | 00:00:00 | |
| NBG1-10 | 2026-09-04 19:03:31 | 49.76860 | 9.08158 | 87° | 89km/h | 12155m | -13.3m/s | -57.1°C | 46.0% | 203.9hPa | 2.5V | 02:45:00 | 02:33:41 | 00:00:00 | |
| DF2AP-13 | 2026-09-04 19:03:30 | 49.76858 | 9.08124 | 85° | 89km/h | 12168m | -13.5m/s | -57.2°C | 45.6% | 203.4hPa | 2.5V | 02:45:00 | 02:33:40 | 00:00:00 | |
| DF7PN | 2026-09-04 19:03:29 | 49.76855 | 9.08057 | 85° | 86km/h | 12194m | -12.8m/s | -57.5°C | 38.3% | 202.7hPa | 2.5V | 00:00:00 | 00:00:00 | 00:00:00 | |
| DM0DOS-11 | 2026-09-04 19:03:28 | 49.76846 | 9.07885 | 85° | 89km/h | 12250m | -8.9m/s | -58.1°C | 46.1% | 200.7hPa | 2.5V | 02:45:19 | 02:33:33 | 00:00:00 | |
| BIOWL1-15 | 2026-09-04 19:03:25 | 49.76850 | 9.07954 | 86° | 88km/h | 12230m | -11.7m/s | -57.9°C | 48.8% | 201.4hPa | 2.5V | 02:45:52 | 02:33:35 | 00:00:00 | |
| HSKMA3-T | 2026-09-04 19:03:23 | 49.76846 | 9.07885 | 86° | 89km/h | 12251m | -8.9m/s | -58.1°C | 48.4% | 200.7hPa | 2.5V | 02:47:34 | 02:33:33 | 00:00:00 | |
| AM1SDL-15 | 2026-09-04 19:03:22 | 49.76845 | 9.07851 | 87° | 91km/h | 12259m | -7.9m/s | -58.1°C | 45.8% | 200.4hPa | 2.5V | 00:00:00 | 02:33:32 | 00:00:00 | |
| DM7RM-13 | 2026-09-04 19:03:20 | 49.76843 | 9.07816 | 87° | 88km/h | 12267m | -8.1m/s | -58.2°C | 38.3% | 200.1hPa | 2.5V | 02:45:00 | 00:00:00 | 00:00:00 | |
| DM0DOS-11 | 2026-09-04 19:03:18 | 49.76830 | 9.07541 | 87° | 91km/h | 12328m | -7.6m/s | -58.8°C | 43.3% | 198.2hPa | 2.5V | 02:45:29 | 02:33:23 | 00:00:00 | |
| BIOWL1-15 | 2026-09-04 19:03:14 | 49.76831 | 9.07576 | 87° | 89km/h | 12320m | -7.6m/s | -58.7°C | 45.2% | 198.3hPa | 2.5V | 02:45:52 | 02:33:24 | 00:00:00 | |
| HSKMA3-T | 2026-09-04 19:03:10 | 49.76828 | 9.07434 | 89° | 93km/h | 12350m | -7.6m/s | -59°C | 43.8% | 197.5hPa | 2.6V | 02:47:34 | 02:33:20 | 00:00:00 | |
| DM0DOS-11 | 2026-09-04 19:03:08 | 49.76821 | 9.07184 | 85° | 91km/h | 12404m | -8.4m/s | -59.3°C | 39.8% | 195.7hPa | 2.6V | 02:45:39 | 02:33:13 | 00:00:00 | |
| BIOWL1-15 | 2026-09-04 19:03:03 | 49.76821 | 9.07184 | 86° | 91km/h | 12404m | -8.4m/s | -59.3°C | 41.1% | 195.7hPa | 2.6V | 02:45:52 | 02:33:13 | 00:00:00 | |
| HSKMA3-T | 2026-09-04 19:03:00 | 49.76815 | 9.07077 | 86° | 95km/h | 12435m | -11.7m/s | -59.3°C | 39.9% | 194.8hPa | 2.5V | 02:47:34 | 02:33:10 | 00:00:00 | |
| DF2AP-13 | 2026-09-04 19:03:00 | 49.76815 | 9.07077 | 86° | 97km/h | 12435m | -11.6m/s | -59.3°C | 37.6% | 194.8hPa | 2.5V | 00:00:00 | 02:33:10 | 00:00:00 | |
| DM7RM-13 | 2026-09-04 19:02:59 | 49.76815 | 9.07077 | 87° | 95km/h | 12435m | -11.7m/s | -59.3°C | 30.8% | 194.8hPa | 2.5V | 02:45:00 | 00:00:00 | 00:00:00 | |
| DM0DOS-11 | 2026-09-04 19:02:58 | 49.76802 | 9.06819 | 83° | 95km/h | 12523m | -12.9m/s | -59.8°C | 35.7% | 192.2hPa | 2.5V | 02:45:49 | 02:33:03 | 00:00:00 | |
| DK7TD | 2026-09-04 19:02:56 | 49.76808 | 9.06930 | 85° | 93km/h | 12485m | -12.9m/s | 0°C | 0% | 0hPa | 2.5V | 02:47:34 | 02:33:06 | 00:00:00 | |
| BIOWL1-15 | 2026-09-04 19:02:53 | 49.76802 | 9.06819 | 83° | 95km/h | 12523m | -12.9m/s | -59.8°C | 37.9% | 192.2hPa | 2.5V | 02:45:52 | 02:33:03 | 00:00:00 | |
| DD1CC8 | 2026-09-04 19:02:47 | 49.76784 | 9.06597 | 81° | 93km/h | 12594m | -11.6m/s | -60.3°C | 28.1% | 190.0hPa | 2.5V | 00:00:00 | 00:00:00 | 00:00:00 | |
| AU51GT2 | 2026-09-04 19:02:45 | 49.76777 | 9.06523 | 82° | 95km/h | 12616m | -12.0m/s | 0°C | -1.0% | 189.3hPa | 2.5V | 00:00:00 | 00:00:00 | 00:00:00 | |
| BIOWL1-15 | 2026-09-04 19:02:42 | 49.76764 | 9.06412 | 81° | 99km/h | 12654m | -12.4m/s | -60.6°C | 34.9% | 188.2hPa | 2.5V | 02:46:43 | 02:32:52 | 00:00:00 | |
| DH7VM-15 | 2026-09-04 19:02:41 | 49.76764 | 9.06412 | 82° | 99km/h | 12654m | -12.4m/s | -60.6°C | 26.5% | 188.2hPa | 2.5V | 00:00:00 | 00:00:00 | 00:00:00 | |
| DL0LBS | 2026-09-04 19:02:40 | 49.76760 | 9.06375 | 80° | 97km/h | 12667m | -13.7m/s | -60.6°C | 26.1% | 187.8hPa | 2.5V | 02:46:00 | 00:00:00 | 00:00:00 | |
| DM7RM-13 | 2026-09-04 19:02:39 | 49.76755 | 9.06337 | 79° | 100km/h | 12680m | -12.8m/s | -60.7°C | 25.9% | 187.4hPa | 2.5V | 02:46:00 | 00:00:00 | 00:00:00 | |
| DC4HF-4 | 2026-09-04 19:02:38 | 49.76745 | 9.06261 | 77° | 97km/h | 12706m | -13.3m/s | -60.9°C | 25.5% | 186.7hPa | 2.5V | 00:00:00 | 00:00:00 | 00:00:00 | |
| HARRO8 | 2026-09-04 19:02:37 | 49.76735 | 9.06186 | 78° | 97km/h | 12731m | -13.2m/s | -61.1°C | 25.2% | 185.9hPa | 2.5V | 00:00:00 | 00:00:00 | 00:00:00 | |
| DO3MHA-11 | 2026-09-04 19:02:36 | 49.76735 | 9.06186 | 79° | 100km/h | 12731m | -13.2m/s | -61.0°C | 31.9% | 185.8hPa | 2.5V | 02:46:00 | 02:32:46 | 00:00:00 | |
| KANTATE | 2026-09-04 19:02:35 | 49.76735 | 9.06186 | 80° | 97km/h | 12731m | -13.2m/s | -61.1°C | 25.2% | 185.9hPa | 2.5V | 02:46:00 | 00:00:00 | 00:00:00 | |
| DM0DOS-11 | 2026-09-04 19:02:34 | 49.76703 | 9.05917 | 79° | 102km/h | 12822m | -12.8m/s | -61.6°C | 30.5% | 183.2hPa | 2.5V | 02:46:13 | 02:32:39 | 00:00:00 | |
| HSKMA3-T | 2026-09-04 19:02:31 | 49.76712 | 9.05994 | 82° | 100km/h | 12796m | -13.1m/s | -61.4°C | 31.8% | 184hPa | 2.5V | 02:47:34 | 02:32:41 | 00:00:00 | |
| HSKMA3-T | 2026-09-04 19:02:21 | 49.76671 | 9.05609 | 82° | 99km/h | 12920m | -11.8m/s | -62.3°C | 29.3% | 180.3hPa | 2.6V | 02:47:34 | 02:32:31 | 00:00:00 | |
| BIOWL1-15 | 2026-09-04 19:02:11 | 49.76622 | 9.05222 | 77° | 104km/h | 13050m | -13.6m/s | -62.7°C | 26% | 176.7hPa | 2.5V | 02:46:43 | 02:32:21 | 00:00:00 | |
| DM0DOS-11 | 2026-09-04 19:02:10 | 49.76590 | 9.04975 | 79° | 111km/h | 13126m | -12.3m/s | -62.5°C | 24.6% | 174.5hPa | 2.5V | 02:46:37 | 02:32:15 | 00:00:00 | |
| HSKMA3-T | 2026-09-04 19:02:05 | 49.76590 | 9.04975 | 80° | 111km/h | 13126m | -12.3m/s | -62.5°C | 24.4% | 174.5hPa | 2.5V | 02:47:34 | 02:32:15 | 00:00:00 | |
| BIOWL1-15 | 2026-09-04 19:02:02 | 49.76569 | 9.04765 | 83° | 108km/h | 13186m | -12m/s | -62.4°C | 23.4% | 172.8hPa | 2.5V | 02:46:43 | 02:32:10 | 00:00:00 | |
| DK7TD | 2026-09-04 19:01:54 | 49.76554 | 9.04515 | 86° | 108km/h | 13255m | -10.7m/s | 0°C | 0% | 0hPa | 2.5V | 02:47:34 | 02:32:04 | 00:00:00 | |
| BIOWL1-15 | 2026-09-04 19:01:49 | 49.76544 | 9.04306 | 85° | 106km/h | 13308m | -10.3m/s | -63.1°C | 21.2% | 169.3hPa | 2.5V | 02:47:34 | 02:31:59 | 00:00:00 | |
| HSKMA3-T | 2026-09-04 19:01:47 | 49.76539 | 9.04225 | 84° | 104km/h | 13328m | -9.2m/s | -63.2°C | 20.7% | 168.8hPa | 2.5V | 02:47:34 | 02:31:57 | 00:00:00 | |
| DK7TD | 2026-09-04 19:01:43 | 49.76526 | 9.04065 | 83° | 104km/h | 13363m | -8.7m/s | 0°C | 0% | 0hPa | 2.5V | 02:47:34 | 02:31:53 | 00:00:00 | |
| BIOWL1-15 | 2026-09-04 19:01:43 | 49.76514 | 9.03901 | 84° | 108km/h | 13398m | -8.8m/s | -63.6°C | 18.6% | 166.9hPa | 2.6V | 02:47:34 | 02:31:49 | 00:00:00 | |
| DL0LBS | 2026-09-04 19:01:40 | 49.76517 | 9.03942 | 84° | 108km/h | 13390m | -8.7m/s | -63.6°C | 14.9% | 167.0hPa | 2.6V | 02:47:00 | 00:00:00 | 00:00:00 | |
| DM0DOS-11 | 2026-09-04 19:01:39 | 49.76500 | 9.03690 | 83° | 110km/h | 13441m | -8.6m/s | -63.4°C | 19.8% | 165.7hPa | 2.6V | 02:47:08 | 02:31:44 | 00:00:00 | |
| HSKMA3-T | 2026-09-04 19:01:36 | 49.76506 | 9.03775 | 84° | 110km/h | 13425m | -8.6m/s | -63.5°C | 17.8% | 166.1hPa | 2.5V | 02:47:34 | 02:31:46 | 00:00:00 | |
| DO3MHA-11 | 2026-09-04 19:01:36 | 49.76506 | 9.03775 | 84° | 110km/h | 13425m | -8.5m/s | -63.5°C | 20.4% | 166.1hPa | 2.5V | 02:47:00 | 02:31:46 | 00:00:00 | |
| HARRO8 | 2026-09-04 19:01:35 | 49.76500 | 9.03690 | 83° | 108km/h | 13441m | -8.6m/s | -63.4°C | 13.7% | 165.7hPa | 2.5V | 00:00:00 | 00:00:00 | 00:00:00 | |
| DK5PH-5 | 2026-09-04 19:01:32 | 49.76493 | 9.03606 | 82° | 117km/h | 13459m | -8.6m/s | -63.1°C | 18.9% | 165.2hPa | 2.5V | 02:47:00 | 02:31:42 | 00:00:00 | |
| DL1KLB | 2026-09-04 19:01:30 | 49.76489 | 9.03564 | 82° | 110km/h | 13468m | -8.8m/s | -63.2°C | 12.8% | 165.0hPa | 2.5V | 02:47:00 | 00:00:00 | 00:00:00 | |
| DM0DOS-11 | 2026-09-04 19:01:29 | 49.76456 | 9.03260 | 81° | 117km/h | 13529m | -8.8m/s | -62.9°C | 17.1% | 163.3hPa | 2.5V | 02:47:18 | 02:31:34 | 00:00:00 | |
| BIOWL1-15 | 2026-09-04 19:01:29 | 49.76480 | 9.03479 | 80° | 111km/h | 13485m | -8.9m/s | -63.2°C | 16% | 164.5hPa | 2.5V | 02:47:34 | 02:31:39 | 00:00:00 | |
| HSKMA3-T | 2026-09-04 19:01:25 | 49.76461 | 9.03305 | 81° | 115km/h | 13521m | -8.5m/s | -63°C | 15.2% | 163.6hPa | 2.5V | 02:47:34 | 02:31:35 | 00:00:00 | |
| BIOWL1-15 | 2026-09-04 19:01:24 | 49.76430 | 9.02989 | 80° | 115km/h | 13582m | -9.1m/s | -62.6°C | 13.8% | 162hPa | 2.5V | 02:47:34 | 02:31:28 | 00:00:00 | |
| NBG1-10 | 2026-09-04 19:01:23 | 49.76452 | 9.03215 | 82° | 119km/h | 13538m | -9.0m/s | -62.6°C | 16.6% | 163.1hPa | 2.5V | 02:47:00 | 02:31:33 | 00:00:00 | |
| SFWM-10 | 2026-09-04 19:01:21 | 49.76448 | 9.03169 | 83° | 119km/h | 13547m | -8.5m/s | -62.6°C | 10.9% | 162.9hPa | 2.5V | 00:00:00 | 00:00:00 | 00:00:00 | |
| DL4BBY-15 | 2026-09-04 19:01:20 | 49.76439 | 9.03079 | 82° | 119km/h | 13565m | -9.0m/s | -63.5°C | 0% | 0hPa | 2.5V | 00:00:00 | 00:00:00 | 00:00:00 | |
| DM0DOS-11 | 2026-09-04 19:01:19 | 49.76409 | 9.02812 | 79° | 115km/h | 13618m | -9.1m/s | -62.5°C | 14.9% | 161hPa | 2.5V | 02:47:28 | 02:31:24 | 00:00:00 | |
| HSKMA3-T | 2026-09-04 19:01:15 | 49.76414 | 9.02857 | 79° | 115km/h | 13609m | -9.1m/s | -62.5°C | 13.2% | 161.2hPa | 2.6V | 02:47:34 | 02:31:25 | 00:00:00 | |
| BIOWL1-15 | 2026-09-04 19:01:12 | 49.76382 | 9.02538 | 83° | 119km/h | 13672m | -9.1m/s | -62.7°C | 12.1% | 159.6hPa | 2.5V | 02:47:34 | 02:31:18 | 00:00:00 | |
| HEMX73-11 | 2026-09-04 19:01:11 | 49.76399 | 9.02722 | 82° | 119km/h | 13636m | -9.2m/s | -62.6°C | 9.5% | 160.6hPa | 2.6V | 02:47:00 | 00:00:00 | 00:00:00 | |
| DL1KLB | 2026-09-04 19:01:09 | 49.76390 | 9.02631 | 83° | 119km/h | 13654m | -8.8m/s | -62.7°C | 9.3% | 160.1hPa | 2.6V | 02:47:00 | 00:00:00 | 00:00:00 | |
| DM0DOS-11 | 2026-09-04 19:01:08 | 49.76366 | 9.02305 | 84° | 120km/h | 13716m | -8.9m/s | -62.3°C | 13.1% | 158.5hPa | 2.6V | 02:47:39 | 02:31:13 | 00:00:00 | |
| DK7TD | 2026-09-04 19:01:07 | 49.76378 | 9.02492 | 83° | 119km/h | 13681m | -9m/s | 0°C | 0% | 0hPa | 2.5V | 18:12:15 | 02:31:17 | 00:00:00 | |
| HSKMA3-T | 2026-09-04 19:01:05 | 49.76372 | 9.02399 | 84° | 120km/h | 13698m | -9.2m/s | -62.3°C | 11.6% | 158.9hPa | 2.5V | 02:48:25 | 02:31:15 | 00:00:00 | |
| HARRO8 | 2026-09-04 19:01:03 | 49.76366 | 9.02305 | 84° | 120km/h | 13717m | -8.9m/s | -62.3°C | 8.3% | 158.5hPa | 2.6V | 00:00:00 | 00:00:00 | 00:00:00 | |
| DK5PH-5 | 2026-09-04 19:01:02 | 49.76363 | 9.02258 | 85° | 122km/h | 13726m | -9.4m/s | -62.3°C | 12.9% | 158.2hPa | 2.6V | 00:00:00 | 02:31:12 | 00:00:00 | |
| DF2AP-13 | 2026-09-04 19:00:59 | 49.76355 | 9.02116 | 86° | 120km/h | 13752m | -8.5m/s | -62.4°C | 12.7% | 157.5hPa | 2.6V | 00:00:00 | 02:31:09 | 00:00:00 | |
| DM0DOS-11 | 2026-09-04 19:00:58 | 49.76345 | 9.01831 | 87° | 122km/h | 13803m | -8.8m/s | -62.9°C | 12.3% | 156.2hPa | 2.6V | 02:47:49 | 02:31:03 | 00:00:00 | |
| BIOWL1-15 | 2026-09-04 19:00:57 | 49.76351 | 9.02022 | 86° | 120km/h | 13769m | -8.8m/s | -62.6°C | 10.4% | 157.2hPa | 2.6V | 02:48:25 | 02:31:07 | 00:00:00 | |
| HSKMA3-T | 2026-09-04 19:00:54 | 49.76346 | 9.01879 | 87° | 122km/h | 13795m | -8.5m/s | -62.8°C | 10% | 156.5hPa | 2.5V | 02:48:25 | 02:31:04 | 00:00:00 | |
| DJTTGO | 2026-09-04 19:00:53 | 49.76346 | 9.01879 | 88° | 122km/h | 13795m | -8.5m/s | -62.8°C | 7.5% | 156.5hPa | 2.5V | 02:48:00 | 00:00:00 | 00:00:00 | |
| DL4BBY-15 | 2026-09-04 19:00:50 | 49.76340 | 9.01687 | 88° | 117km/h | 13830m | -8.6m/s | -64.0°C | 0% | 0hPa | 2.5V | 00:00:00 | 00:00:00 | 00:00:00 | |
| DL1KLB | 2026-09-04 19:00:49 | 49.76341 | 9.01687 | 88° | 124km/h | 13829m | -8.7m/s | -63.1°C | 7.3% | 155.6hPa | 2.5V | 02:48:00 | 00:00:00 | 00:00:00 | |
| DM0DOS-11 | 2026-09-04 19:00:48 | 49.76334 | 9.01346 | 89° | 126km/h | 13891m | -8.7m/s | -63.5°C | 12.4% | 154.1hPa | 2.5V | 02:47:59 | 02:30:53 | 00:00:00 | |
| BIOWL1-15 | 2026-09-04 19:00:47 | 49.76337 | 9.01542 | 88° | 124km/h | 13856m | -9m/s | -63.3°C | 9.3% | 155hPa | 2.6V | 02:48:25 | 02:30:57 | 00:00:00 | |
| HSKMA3-T | 2026-09-04 19:00:41 | 49.76334 | 9.01247 | 91° | 126km/h | 13908m | -9m/s | -63.5°C | 8.6% | 153.6hPa | 2.6V | 02:48:25 | 02:30:51 | 00:00:00 | |
| DJ2DS-15 | 2026-09-04 19:00:41 | 49.76334 | 9.01198 | 90° | 124km/h | 13917m | -9.0m/s | -63.6°C | 7.1% | 153.4hPa | 2.5V | 00:00:00 | 00:00:00 | 00:00:00 | |
| DM0DOS-11 | 2026-09-04 19:00:38 | 49.76345 | 9.00867 | 94° | 117km/h | 13978m | -9.3m/s | -63.3°C | 11.5% | 151.9hPa | 2.5V | 02:48:09 | 02:30:43 | 00:00:00 | |
| BIOWL1-15 | 2026-09-04 19:00:37 | 49.76337 | 9.01053 | 93° | 122km/h | 13943m | -8.6m/s | -63.7°C | 8.1% | 152.8hPa | 2.5V | 02:48:25 | 02:30:47 | 00:00:00 | |
| DK7TD | 2026-09-04 19:00:34 | 49.76342 | 9.00913 | 94° | 119km/h | 13970m | -8.7m/s | 0°C | 0% | 0hPa | 2.6V | 18:12:15 | 02:30:44 | 00:00:00 | |
| BIOWL1-15 | 2026-09-04 19:00:30 | 49.76366 | 9.00563 | 98° | 110km/h | 14044m | -9m/s | -62°C | 6.3% | 150.3hPa | 2.5V | 02:48:25 | 02:30:36 | 00:00:00 | |
| HEMX73-11 | 2026-09-04 19:00:29 | 49.76353 | 9.00733 | 96° | 113km/h | 14007m | -9.0m/s | -63.0°C | 6.0% | 151.2hPa | 2.6V | 02:48:00 | 00:00:00 | 00:00:00 | |
| DM0DOS-11 | 2026-09-04 19:00:28 | 49.76377 | 9.00437 | 97° | 108km/h | 14071m | -9m/s | -61.8°C | 9.5% | 149.6hPa | 2.6V | 02:48:19 | 02:30:33 | 00:00:00 | |
| HSKMA3-T | 2026-09-04 19:00:17 | 49.76390 | 9.00195 | 92° | 99km/h | 14128m | -8.8m/s | -61.3°C | 5.6% | 148.2hPa | 2.6V | 02:48:25 | 02:30:27 | 00:00:00 | |
| BIOWL1-15 | 2026-09-04 19:00:16 | 49.76390 | 9.00156 | 92° | 99km/h | 14137m | -9.1m/s | -61.4°C | 5.5% | 148hPa | 2.5V | 02:49:16 | 02:30:26 | 00:00:00 | |
| DO3MHA-11 | 2026-09-04 19:00:16 | 49.76390 | 9.00156 | 92° | 99km/h | 14137m | -9.0m/s | -61.3°C | 8.9% | 148.0hPa | 2.5V | 00:00:00 | 02:30:26 | 00:00:00 | |
| DM0DOS-11 | 2026-09-04 19:00:13 | 49.76392 | 9.00042 | 91° | 99km/h | 14164m | -9.2m/s | -61.3°C | 8.8% | 147.4hPa | 2.5V | 02:48:29 | 02:30:23 | 00:00:00 | |
| DD1CC8 | 2026-09-04 19:00:12 | 49.76394 | 8.99965 | 91° | 97km/h | 14182m | -9.1m/s | -61.1°C | 4.5% | 146.9hPa | 2.5V | 00:00:00 | 00:00:00 | 00:00:00 | |
| AU51GT2 | 2026-09-04 19:00:10 | 49.76394 | 8.99927 | 90° | 99km/h | 14191m | -9.1m/s | -61.0°C | 4.4% | 146.7hPa | 2.5V | 00:00:00 | 00:00:00 | 00:00:00 | |
| DM0DOS-11 | 2026-09-04 19:00:08 | 49.76382 | 8.99659 | 83° | 99km/h | 14258m | -9.4m/s | -61°C | 8.5% | 145.1hPa | 2.5V | 02:48:39 | 02:30:13 | 00:00:00 | |
| BIOWL1-15 | 2026-09-04 19:00:08 | 49.76390 | 8.99773 | 85° | 99km/h | 14230m | -9.6m/s | -60.9°C | 5% | 145.8hPa | 2.6V | 02:49:16 | 02:30:16 | 00:00:00 | |
| HSKMA3-T | 2026-09-04 19:00:07 | 49.76391 | 8.99811 | 86° | 99km/h | 14220m | -9.5m/s | -60.8°C | 4.9% | 146.1hPa | 2.5V | 02:50:07 | 02:30:17 | 00:00:00 | |
| DO3MHA-11 | 2026-09-04 19:00:06 | 49.76390 | 8.99773 | 86° | 97km/h | 14230m | -9.5m/s | -60.9°C | 8.4% | 145.8hPa | 2.6V | 02:48:00 | 02:30:16 | 00:00:00 | |
| DJ2DS-15 | 2026-09-04 19:00:05 | 49.76385 | 8.99697 | 83° | 97km/h | 14248m | -9.4m/s | -61.0°C | 4.4% | 145.4hPa | 2.5V | 00:00:00 | 00:00:00 | 00:00:00 | |
| BIOWL9-15 | 2026-09-04 19:00:04 | 49.76385 | 8.99697 | 83° | 97km/h | 14248m | -9.4m/s | -61.0°C | 4.4% | 145.4hPa | 2.5V | 00:00:00 | 00:00:00 | 00:00:00 | |
| SFWM-10 | 2026-09-04 19:00:03 | 49.76385 | 8.99697 | 85° | 99km/h | 14249m | -9.4m/s | -61.0°C | 4.4% | 145.4hPa | 2.5V | 02:49:00 | 00:00:00 | 00:00:00 | |
| HARRO8 | 2026-09-04 19:00:01 | 49.76376 | 8.99583 | 83° | 97km/h | 14277m | -9.7m/s | -60.9°C | 4.3% | 144.7hPa | 2.5V | 00:00:00 | 00:00:00 | 00:00:00 | |
| DM0DOS-11 | 2026-09-04 18:59:58 | 49.76352 | 8.99290 | 79° | 93km/h | 14353m | -9.5m/s | -60.6°C | 7.9% | 143hPa | 2.5V | 02:48:49 | 02:30:03 | 00:00:00 | |
| BIOWL1-15 | 2026-09-04 18:59:55 | 49.76359 | 8.99362 | 82° | 93km/h | 14334m | -9.4m/s | -60.5°C | 4.5% | 143.4hPa | 2.6V | 02:49:16 | 02:30:05 | 00:00:00 | |
| HSKMA3-T | 2026-09-04 18:59:50 | 49.76338 | 8.99183 | 78° | 95km/h | 14381m | -8.9m/s | -60.6°C | 4.3% | 142.3hPa | 2.5V | 02:50:07 | 02:30:00 | 00:00:00 | |
| DL4BBY-15 | 2026-09-04 18:59:50 | 49.76338 | 8.99183 | 79° | 97km/h | 14381m | -8.9m/s | -61.5°C | 0% | 0hPa | 2.6V | 00:00:00 | 00:00:00 | 00:00:00 | |
| DM0DOS-11 | 2026-09-04 18:59:48 | 49.76308 | 8.98928 | 79° | 93km/h | 14449m | -9.8m/s | -59.8°C | 7.4% | 140.8hPa | 2.6V | 02:48:59 | 02:29:53 | 00:00:00 | |
| BIOWL1-15 | 2026-09-04 18:59:47 | 49.76316 | 8.99001 | 80° | 95km/h | 14429m | -10m/s | -60°C | 4.1% | 141.2hPa | 2.5V | 02:49:16 | 02:29:55 | 00:00:00 | |
| DO3MHA-11 | 2026-09-04 18:59:46 | 49.76321 | 8.99037 | 80° | 93km/h | 14420m | -9.6m/s | -60.1°C | 7.6% | 141.4hPa | 2.5V | 00:00:00 | 02:29:56 | 00:00:00 | |
| DB0UT-9 | 2026-09-04 18:59:45 | 49.76321 | 8.99037 | 81° | 95km/h | 14420m | -9.7m/s | -60.2°C | 3.8% | 141.4hPa | 2.5V | 02:49:00 | 00:00:00 | 00:00:00 | |
| NBG1-10 | 2026-09-04 18:59:44 | 49.76312 | 8.98964 | 81° | 99km/h | 14440m | -9.9m/s | -59.9°C | 7.5% | 141.0hPa | 2.5V | 02:48:00 | 02:29:54 | 00:00:00 | |
| DD1CC8 | 2026-09-04 18:59:40 | 49.76286 | 8.98753 | 78° | 91km/h | 14499m | -9.6m/s | -59.5°C | 3.4% | 139.7hPa | 2.5V | 00:00:00 | 00:00:00 | 00:00:00 | |
| DM0DOS-11 | 2026-09-04 18:59:38 | 49.76266 | 8.98571 | 82° | 99km/h | 14547m | -11.5m/s | -59.5°C | 6.9% | 138.7hPa | 2.5V | 02:49:09 | 02:29:43 | 00:00:00 | |
| BIOWL1-15 | 2026-09-04 18:59:32 | 49.76264 | 8.98533 | 84° | 99km/h | 14560m | -13m/s | -59.4°C | 3.5% | 138.4hPa | 2.6V | 02:49:16 | 02:29:42 | 00:00:00 | |
| DK5PH-5 | 2026-09-04 18:59:32 | 49.76264 | 8.98533 | 84° | 104km/h | 14560m | -13.0m/s | -59.4°C | 6.9% | 138.4hPa | 2.5V | 00:00:00 | 02:29:42 | 00:00:00 | |
| DL9PN | 2026-09-04 18:59:31 | 49.76257 | 8.98456 | 82° | 99km/h | 14586m | -12.7m/s | 0°C | -1.0% | -1.0hPa | 2.5V | 00:00:00 | 00:00:00 | 00:00:00 | |
| HARRO8 | 2026-09-04 18:59:30 | 49.76257 | 8.98456 | 82° | 99km/h | 14586m | -12.7m/s | -59.1°C | 3.2% | 137.8hPa | 2.5V | 00:00:00 | 00:00:00 | 00:00:00 | |
| DJ2DS-15 | 2026-09-04 18:59:29 | 49.76250 | 8.98379 | 82° | 99km/h | 14611m | -12.2m/s | -59.0°C | 3.1% | 137.3hPa | 2.5V | 00:00:00 | 00:00:00 | 00:00:00 | |
| DM0DOS-11 | 2026-09-04 18:59:28 | 49.76235 | 8.98187 | 84° | 100km/h | 14673m | -11.9m/s | -59.5°C | 6.6% | 135.9hPa | 2.5V | 02:49:19 | 02:29:33 | 00:00:00 | |
| BIOWL1-15 | 2026-09-04 18:59:24 | 49.76229 | 8.98068 | 86° | 102km/h | 14711m | -12.7m/s | -59.7°C | 3.4% | 135.1hPa | 2.6V | 02:50:07 | 02:29:30 | 00:00:00 | |
| DL4BBY-15 | 2026-09-04 18:59:20 | 49.76229 | 8.98068 | 87° | 104km/h | 14711m | -12.7m/s | -60.6°C | 0% | 0hPa | 2.6V | 00:00:00 | 00:00:00 | 00:00:00 | |
| DL1XH1-15 | 2026-09-04 18:59:19 | 49.76221 | 8.97822 | 86° | 106km/h | 14787m | -12.3m/s | -59.3°C | 6.5% | 133.5hPa | 2.6V | 02:49:28 | 02:29:24 | 00:00:00 | |
| SFWM-10 | 2026-09-04 18:59:17 | 49.76226 | 8.97987 | 89° | 106km/h | 14737m | -12.6m/s | -59.7°C | 3.1% | 134.6hPa | 2.5V | 02:50:00 | 00:00:00 | 00:00:00 | |
| DM0DOS-11 | 2026-09-04 18:59:15 | 49.76219 | 8.97781 | 85° | 108km/h | 14800m | -12.7m/s | -59.2°C | 6.4% | 133.2hPa | 2.5V | 02:49:29 | 02:29:23 | 00:00:00 | |
| DL1XH-west | 2026-09-04 18:59:15 | 49.76222 | 8.97864 | 86° | 106km/h | 14774m | -12.7m/s | -59.4°C | 3.2% | 133.7hPa | 2.6V | 02:50:07 | 02:29:25 | 00:00:00 | |
| BIOWL1-15 | 2026-09-04 18:59:09 | 49.76211 | 8.97615 | 85° | 106km/h | 14851m | -14m/s | -59.2°C | 2.9% | 132.2hPa | 2.6V | 02:50:07 | 02:29:19 | 00:00:00 | |
| DM0DOS-11 | 2026-09-04 18:59:08 | 49.76203 | 8.97368 | 89° | 106km/h | 14925m | -12.5m/s | -59.6°C | 6.3% | 130.5hPa | 2.6V | 02:49:39 | 02:29:13 | 00:00:00 | |
| DL1XH-west | 2026-09-04 18:59:04 | 49.76204 | 8.97409 | 88° | 106km/h | 14913m | -11.9m/s | -59.5°C | 2.8% | 130.8hPa | 2.6V | 02:50:07 | 02:29:14 | 00:00:00 | |
| BIOWL1-15 | 2026-09-04 18:58:59 | 49.76202 | 8.97122 | 91° | 102km/h | 14997m | -12.3m/s | -60°C | 2.7% | 129hPa | 2.6V | 02:50:07 | 02:29:07 | 00:00:00 | |
| DM0DOS-11 | 2026-09-04 18:58:58 | 49.76205 | 8.96967 | 91° | 97km/h | 15045m | -12.1m/s | -60.2°C | 6.3% | 128.1hPa | 2.5V | 02:49:49 | 02:29:03 | 00:00:00 | |
| DL1XH-west | 2026-09-04 18:58:54 | 49.76204 | 8.97005 | 91° | 99km/h | 15033m | -11.8m/s | -60.1°C | 2.6% | 128.2hPa | 2.5V | 02:50:07 | 02:29:04 | 00:00:00 | |
| DJ2DS-15 | 2026-09-04 18:58:53 | 49.76205 | 8.96930 | 91° | 95km/h | 15057m | -12.2m/s | -60.2°C | 2.7% | 127.8hPa | 2.5V | 00:00:00 | 00:00:00 | 00:00:00 | |
| DF7PN | 2026-09-04 18:58:49 | 49.76206 | 8.96817 | 90° | 97km/h | 15093m | -11.6m/s | -59.9°C | 2.6% | 127.1hPa | 2.5V | 00:00:00 | 00:00:00 | 00:00:00 | |
| DM0DOS-11 | 2026-09-04 18:58:48 | 49.76201 | 8.96589 | 87° | 97km/h | 15163m | -12.1m/s | -59.7°C | 6% | 125.6hPa | 2.5V | 02:49:59 | 02:28:53 | 00:00:00 | |
| BIOWL1-15 | 2026-09-04 18:58:47 | 49.76206 | 8.96742 | 89° | 97km/h | 15117m | -12.1m/s | -59.7°C | 2.5% | 126.5hPa | 2.6V | 02:50:07 | 02:28:57 | 00:00:00 | |
| DL1XH-west | 2026-09-04 18:58:43 | 49.76201 | 8.96589 | 88° | 97km/h | 15163m | -12.1m/s | -59.7°C | 2.3% | 125.6hPa | 2.5V | 02:50:07 | 02:28:53 | 00:00:00 | |
| DF1GD-15 | 2026-09-04 18:58:42 | 49.76201 | 8.96589 | 89° | 97km/h | 15163m | -12.1m/s | -59.7°C | 2.5% | 125.6hPa | 2.5V | 02:50:00 | 00:00:00 | 00:00:00 | |
| DM0DOS-11 | 2026-09-04 18:58:38 | 49.76183 | 8.96219 | 85° | 99km/h | 15284m | -12.3m/s | -60.1°C | 6.1% | 123.2hPa | 2.5V | 02:50:09 | 02:28:43 | 00:00:00 | |
| BIOWL1-15 | 2026-09-04 18:58:36 | 49.76190 | 8.96331 | 85° | 93km/h | 15249m | -12.3m/s | -60°C | 2.3% | 123.9hPa | 2.6V | 02:50:07 | 02:28:46 | 00:00:00 | |
| HSKMA3-T | 2026-09-04 18:58:35 | 49.76188 | 8.96294 | 84° | 95km/h | 15261m | -11.7m/s | -60°C | 2.3% | 123.7hPa | 2.6V | 02:50:07 | 02:28:45 | 00:00:00 | |
| DL1XH-west | 2026-09-04 18:58:32 | 49.76182 | 8.96180 | 87° | 99km/h | 15297m | -12.4m/s | -60.1°C | 2.3% | 122.9hPa | 2.5V | 02:50:58 | 02:28:42 | 00:00:00 | |
| DK5PH-5 | 2026-09-04 18:58:32 | 49.76182 | 8.96180 | 87° | 93km/h | 15297m | -12.4m/s | -60.0°C | 6.1% | 122.9hPa | 2.5V | 02:50:00 | 02:28:42 | 00:00:00 | |
| BIOWL9-15 | 2026-09-04 18:58:31 | 49.76180 | 8.96103 | 88° | 99km/h | 15322m | -12.4m/s | -60.1°C | 2.5% | 122.5hPa | 2.6V | 00:00:00 | 00:00:00 | 00:00:00 | |
| DJTTGO | 2026-09-04 18:58:29 | 49.76180 | 8.96103 | 90° | 100km/h | 15322m | -12.4m/s | -60.1°C | 2.5% | 122.5hPa | 2.6V | 00:00:00 | 00:00:00 | 00:00:00 | |
| DM0DOS-11 | 2026-09-04 18:58:28 | 49.76175 | 8.95837 | 86° | 95km/h | 15410m | -13.4m/s | -60.4°C | 6.3% | 120.8hPa | 2.6V | 02:50:19 | 02:28:33 | 00:00:00 | |
| BIOWL1-15 | 2026-09-04 18:58:26 | 49.76178 | 8.95949 | 88° | 95km/h | 15371m | -12.5m/s | -60.4°C | 2.3% | 121.5hPa | 2.5V | 02:50:58 | 02:28:36 | 00:00:00 | |
| HSKMA3-T | 2026-09-04 18:58:25 | 49.76177 | 8.95912 | 89° | 95km/h | 15384m | -12.8m/s | -60.4°C | 2.2% | 121.3hPa | 2.5V | 02:51:49 | 02:28:35 | 00:00:00 | |
| DL1XH-west | 2026-09-04 18:58:22 | 49.76174 | 8.95801 | 88° | 95km/h | 15424m | -13.5m/s | -60.4°C | 2.3% | 120.5hPa | 2.5V | 02:50:58 | 02:28:32 | 00:00:00 | |
| HEMX73-6 | 2026-09-04 18:58:22 | 49.76173 | 8.95801 | 88° | 33km/h | 15424m | -13.5m/s | -60.3°C | 6.3% | 120.5hPa | 2.6V | 00:00:00 | 02:28:32 | 00:00:00 | |
| DF1GD-15 | 2026-09-04 18:58:21 | 49.76173 | 8.95801 | 89° | 95km/h | 15424m | -13.5m/s | -60.4°C | 2.6% | 120.5hPa | 2.6V | 02:50:00 | 00:00:00 | 00:00:00 | |
| DL4BBY-15 | 2026-09-04 18:58:20 | 49.76171 | 8.95726 | 86° | 91km/h | 15451m | -12.9m/s | -61.3°C | 0% | 0hPa | 2.6V | 00:00:00 | 00:00:00 | 00:00:00 | |
| DM0DOS-11 | 2026-09-04 18:58:18 | 49.76166 | 8.95467 | 90° | 93km/h | 15538m | -9.9m/s | -60°C | 6.3% | 118.3hPa | 2.6V | 02:50:29 | 02:28:23 | 00:00:00 | |
| BIOWL1-15 | 2026-09-04 18:58:15 | 49.76167 | 8.95541 | 90° | 97km/h | 15516m | -11.5m/s | -60.3°C | 2.3% | 118.8hPa | 2.5V | 02:50:58 | 02:28:25 | 00:00:00 | |
| HSKMA3-T | 2026-09-04 18:58:13 | 49.76166 | 8.95467 | 90° | 93km/h | 15538m | -9.9m/s | -60°C | 2.2% | 118.3hPa | 2.6V | 02:51:49 | 02:28:23 | 00:00:00 | |
| DL1XH-west | 2026-09-04 18:58:12 | 49.76166 | 8.95431 | 89° | 93km/h | 15549m | -11.2m/s | -59.9°C | 2.1% | 118.1hPa | 2.6V | 02:50:58 | 02:28:22 | 00:00:00 | |
| BIOWL7-15 | 2026-09-04 18:58:09 | 49.76166 | 8.95361 | 90° | 88km/h | 15573m | -12.4m/s | -59.8°C | 2.4% | 117.7hPa | 2.5V | 00:00:00 | 00:00:00 | 00:00:00 | |
| DM0DOS-11 | 2026-09-04 18:58:08 | 49.76155 | 8.95127 | 85° | 89km/h | 15665m | -12m/s | -59.1°C | 5.6% | 116hPa | 2.5V | 02:50:39 | 02:28:13 | 00:00:00 | |
| BIOWL1-15 | 2026-09-04 18:58:05 | 49.76159 | 8.95195 | 84° | 86km/h | 15640m | -12.3m/s | -59.5°C | 2.1% | 116.5hPa | 2.5V | 02:50:58 | 02:28:15 | 00:00:00 | |
| DL1XH-west | 2026-09-04 18:58:02 | 49.76154 | 8.95092 | 87° | 89km/h | 15677m | -13.1m/s | -59.1°C | 1.8% | 115.8hPa | 2.6V | 02:50:58 | 02:28:12 | 00:00:00 | |
| BIOWL9-15 | 2026-09-04 18:58:00 | 49.76150 | 8.95023 | 84° | 89km/h | 15704m | -12.0m/s | -59.0°C | 2.2% | 115.3hPa | 2.5V | 00:00:00 | 00:00:00 | 00:00:00 | |
| DM0DOS-11 | 2026-09-04 18:57:58 | 49.76146 | 8.94774 | 91° | 89km/h | 15792m | -12.4m/s | -58.9°C | 5.6% | 113.6hPa | 2.5V | 02:50:49 | 02:28:03 | 00:00:00 | |
| DO3MHA-11 | 2026-09-04 18:57:58 | 49.76147 | 8.94951 | 89° | 89km/h | 15729m | -13.3m/s | -58.9°C | 5.6% | 114.8hPa | 2.5V | 02:50:00 | 02:28:08 | 00:00:00 | |
| DB0NH | 2026-09-04 18:57:57 | 49.76147 | 8.94915 | 88° | 89km/h | 15742m | -12.6m/s | -59.0°C | 5.6% | 114.6hPa | 2.5V | 00:00:00 | 02:28:07 | 00:00:00 | |
| DJ2DS-15 | 2026-09-04 18:57:55 | 49.76145 | 8.94844 | 92° | 89km/h | 15767m | -13.4m/s | -58.9°C | 5.6% | 114.1hPa | 2.5V | 00:00:00 | 02:28:05 | 00:00:00 | |
| DL1XH1-15 | 2026-09-04 18:57:54 | 49.76147 | 8.94634 | 91° | 89km/h | 15843m | -12.7m/s | -59°C | 5.7% | 112.7hPa | 2.5V | 02:50:53 | 02:27:59 | 00:00:00 | |
| BIOWL1-15 | 2026-09-04 18:57:54 | 49.76145 | 8.94809 | 90° | 89km/h | 15780m | -12.6m/s | -59°C | 1.8% | 113.9hPa | 2.5V | 02:50:58 | 02:28:04 | 00:00:00 | |
| DL1XH-west | 2026-09-04 18:57:51 | 49.76147 | 8.94704 | 91° | 89km/h | 15819m | -12.6m/s | -59°C | 1.8% | 113.2hPa | 2.6V | 02:50:58 | 02:28:01 | 00:00:00 | |
| DL1ZP-14 | 2026-09-04 18:57:51 | 49.76147 | 8.94669 | 90° | 88km/h | 15831m | -11.7m/s | -59.0°C | 2.1% | 112.9hPa | 2.6V | 00:00:00 | 00:00:00 | 00:00:00 | |
| DC4HF-4 | 2026-09-04 18:57:50 | 49.76147 | 8.94669 | 90° | 88km/h | 15831m | -11.7m/s | -59.0°C | 2.1% | 112.9hPa | 2.5V | 00:00:00 | 00:00:00 | 00:00:00 | |
| DM0DOS-11 | 2026-09-04 18:57:48 | 49.76154 | 8.94421 | 96° | 91km/h | 15911m | -13.4m/s | -58.7°C | 5.4% | 111.5hPa | 2.5V | 02:50:59 | 02:27:53 | 00:00:00 | |
| DF8AY | 2026-09-04 18:57:46 | 49.76149 | 8.94528 | 92° | 93km/h | 15875m | -10.2m/s | 0°C | 0% | 0hPa | 2.6V | 18:12:15 | 02:27:56 | 00:00:00 | |
| BIOWL7-15 | 2026-09-04 18:57:45 | 49.76149 | 8.94528 | 93° | 93km/h | 15875m | -10.2m/s | -58.7°C | 2.1% | 112.1hPa | 2.6V | 00:00:00 | 00:00:00 | 00:00:00 | |
| DL1XH1-15 | 2026-09-04 18:57:44 | 49.76165 | 8.94281 | 96° | 89km/h | 15962m | -12.3m/s | -58.9°C | 5.5% | 110.5hPa | 2.6V | 02:51:03 | 02:27:49 | 00:00:00 | |
| BIOWL1-15 | 2026-09-04 18:57:44 | 49.76152 | 8.94457 | 95° | 91km/h | 15898m | -12.1m/s | -58.7°C | 1.7% | 111.7hPa | 2.5V | 02:50:58 | 02:27:54 | 00:00:00 | |
| DL1XH-west | 2026-09-04 18:57:40 | 49.76162 | 8.94315 | 97° | 89km/h | 15950m | -12.2m/s | -58.9°C | 1.7% | 110.8hPa | 2.6V | 02:51:49 | 02:27:50 | 00:00:00 | |
| NBG1-10 | 2026-09-04 18:57:40 | 49.76162 | 8.94315 | 98° | 82km/h | 15950m | -12.1m/s | -58.9°C | 5.5% | 110.8hPa | 2.6V | 02:51:00 | 02:27:50 | 00:00:00 | |
| DM0DOS-11 | 2026-09-04 18:57:38 | 49.76179 | 8.94079 | 95° | 86km/h | 16029m | -7.9m/s | -58.7°C | 5.6% | 109.4hPa | 2.5V | 02:51:09 | 02:27:43 | 00:00:00 | |
| BIOWL1-15 | 2026-09-04 18:57:37 | 49.76179 | 8.94079 | 95° | 86km/h | 16029m | -7.9m/s | -58.7°C | 1.7% | 109.4hPa | 2.5V | 02:51:49 | 02:27:43 | 00:00:00 | |
| DD1CC8 | 2026-09-04 18:57:36 | 49.76173 | 8.94179 | 95° | 86km/h | 15998m | -11.6m/s | -58.7°C | 2.0% | 109.9hPa | 2.6V | 00:00:00 | 00:00:00 | 00:00:00 | |
| DJ2DS-15 | 2026-09-04 18:57:35 | 49.76175 | 8.94146 | 96° | 82km/h | 16010m | -11.0m/s | -58.6°C | 5.5% | 109.7hPa | 2.6V | 02:51:00 | 02:27:45 | 00:00:00 | |
| DL1XH1-15 | 2026-09-04 18:57:34 | 49.76187 | 8.93945 | 96° | 86km/h | 16059m | -7.7m/s | -58.6°C | 5.5% | 108.8hPa | 2.6V | 02:51:13 | 02:27:39 | 00:00:00 | |
| HSKMA3-T | 2026-09-04 18:57:30 | 49.76185 | 8.93979 | 96° | 86km/h | 16052m | -7.7m/s | -58.6°C | 1.6% | 108.9hPa | 2.5V | 02:51:49 | 02:27:40 | 00:00:00 | |
| DL1XH-west | 2026-09-04 18:57:29 | 49.76187 | 8.93945 | 96° | 86km/h | 16060m | -7.7m/s | -58.6°C | 1.6% | 108.8hPa | 2.6V | 02:51:49 | 02:27:39 | 00:00:00 | |
| DM0DOS-11 | 2026-09-04 18:57:28 | 49.76202 | 8.93753 | 95° | 78km/h | 16107m | -8.5m/s | -58.4°C | 5.5% | 108hPa | 2.6V | 02:51:19 | 02:27:33 | 00:00:00 | |
| BIOWL1-15 | 2026-09-04 18:57:26 | 49.76203 | 8.93723 | 95° | 77km/h | 16116m | -8.3m/s | -58.4°C | 1.6% | 107.9hPa | 2.5V | 02:51:49 | 02:27:32 | 00:00:00 | |
| DF2AP-13 | 2026-09-04 18:57:25 | 49.76197 | 8.93815 | 97° | 75km/h | 16092m | -8.0m/s | -58.5°C | 5.5% | 108.2hPa | 2.5V | 02:51:00 | 02:27:35 | 00:00:00 | |
| DL1XH1-15 | 2026-09-04 18:57:24 | 49.76208 | 8.93633 | 93° | 78km/h | 16140m | -8.1m/s | -58.1°C | 5.5% | 107.4hPa | 2.5V | 02:51:23 | 02:27:29 | 00:00:00 | |
| HSKMA3-T | 2026-09-04 18:57:20 | 49.76207 | 8.93663 | 94° | 77km/h | 16132m | -8.2m/s | -58.3°C | 1.6% | 107.6hPa | 2.5V | 02:51:49 | 02:27:30 | 00:00:00 | |
| DL1XH-west | 2026-09-04 18:57:19 | 49.76208 | 8.93633 | 93° | 78km/h | 16140m | -8.1m/s | -58.2°C | 1.6% | 107.4hPa | 2.5V | 02:51:49 | 02:27:29 | 00:00:00 | |
| DO3MHA-11 | 2026-09-04 18:57:18 | 49.76209 | 8.93602 | 93° | 80km/h | 16149m | -8.0m/s | -57.9°C | 5.4% | 107.3hPa | 2.5V | 00:00:00 | 02:27:28 | 00:00:00 | |
| DJ2DS-15 | 2026-09-04 18:57:15 | 49.76209 | 8.93506 | 90° | 73km/h | 16172m | -8.0m/s | -57.6°C | 5.3% | 106.9hPa | 2.5V | 00:00:00 | 02:27:25 | 00:00:00 | |
| DL1XH1-15 | 2026-09-04 18:57:14 | 49.76204 | 8.93321 | 87° | 73km/h | 16219m | -7.8m/s | -57.7°C | 5.3% | 106.1hPa | 2.5V | 02:51:33 | 02:27:19 | 00:00:00 | |
| BIOWL1-15 | 2026-09-04 18:57:12 | 49.76207 | 8.93410 | 87° | 78km/h | 16196m | -7.9m/s | -57.6°C | 1.5% | 106.5hPa | 2.6V | 02:51:49 | 02:27:22 | 00:00:00 | |
| DL1XH-west | 2026-09-04 18:57:09 | 49.76204 | 8.93321 | 87° | 73km/h | 16219m | -7.8m/s | -57.7°C | 1.4% | 106.1hPa | 2.5V | 02:51:49 | 02:27:19 | 00:00:00 | |
| DM0DOS-11 | 2026-09-04 18:57:08 | 49.76201 | 8.93152 | 91° | 71km/h | 16267m | -8.1m/s | -57.1°C | 5.1% | 105.2hPa | 2.5V | 02:51:39 | 02:27:13 | 00:00:00 | |
| DO3MHA-11 | 2026-09-04 18:57:08 | 49.76203 | 8.93292 | 87° | 71km/h | 16227m | -7.8m/s | -57.7°C | 5.3% | 105.9hPa | 2.5V | 00:00:00 | 02:27:18 | 00:00:00 | |
| NBG1-10 | 2026-09-04 18:57:07 | 49.76201 | 8.93264 | 88° | 66km/h | 16235m | -8.0m/s | -57.7°C | 5.3% | 105.8hPa | 2.5V | 00:00:00 | 02:27:17 | 00:00:00 | |
| DD1CC8 | 2026-09-04 18:57:05 | 49.76201 | 8.93208 | 89° | 71km/h | 16251m | -8.0m/s | -57.4°C | 1.8% | 105.6hPa | 2.5V | 00:00:00 | 00:00:00 | 00:00:00 | |
| DL1XH1-15 | 2026-09-04 18:57:04 | 49.76204 | 8.93044 | 92° | 68km/h | 16300m | -8m/s | -56.6°C | 4.8% | 104.7hPa | 2.5V | 02:51:43 | 02:27:09 | 00:00:00 | |
| BIOWL1-15 | 2026-09-04 18:57:02 | 49.76201 | 8.93125 | 92° | 71km/h | 16275m | -8.2m/s | -56.9°C | 1.3% | 105.1hPa | 2.6V | 02:51:49 | 02:27:12 | 00:00:00 | |
| DK5PH-5 | 2026-09-04 18:57:02 | 49.76201 | 8.93125 | 92° | 64km/h | 16276m | -8.2m/s | -56.9°C | 5.0% | 105.1hPa | 2.6V | 02:51:00 | 02:27:12 | 00:00:00 | |
| KANTATE | 2026-09-04 18:57:01 | 49.76201 | 8.93125 | 93° | 71km/h | 16276m | -8.2m/s | -56.9°C | 1.8% | 105.1hPa | 2.5V | 02:51:00 | 00:00:00 | 00:00:00 | |
| CB1BUN | 2026-09-04 18:57:00 | 49.76202 | 8.93097 | 94° | 69km/h | 16284m | -8.6m/s | -56.8°C | 1.7% | 105.0hPa | 2.5V | 02:51:00 | 00:00:00 | 00:00:00 | |
| DM0DOS-11 | 2026-09-04 18:56:58 | 49.76209 | 8.92884 | 95° | 71km/h | 16349m | -8.6m/s | -56.4°C | 4.8% | 103.9hPa | 2.5V | 02:51:49 | 02:27:03 | 00:00:00 | |
| DL1XH-west | 2026-09-04 18:56:58 | 49.76205 | 8.93018 | 92° | 66km/h | 16309m | -8.1m/s | -56.6°C | 1.2% | 104.6hPa | 2.5V | 02:51:49 | 02:27:08 | 00:00:00 | |
| BIOWL1-15 | 2026-09-04 18:56:57 | 49.76214 | 8.92829 | 98° | 73km/h | 16367m | -8.1m/s | -56.5°C | 1.2% | 103.7hPa | 2.6V | 02:52:40 | 02:27:01 | 00:00:00 | |
| DB0NH | 2026-09-04 18:56:57 | 49.76205 | 8.92992 | 92° | 62km/h | 16317m | -8.2m/s | -56.5°C | 4.8% | 104.4hPa | 2.5V | 00:00:00 | 02:27:07 | 00:00:00 | |
| DF2AP-13 | 2026-09-04 18:56:55 | 49.76207 | 8.92939 | 93° | 60km/h | 16333m | -8.2m/s | -56.4°C | 4.8% | 104.1hPa | 2.5V | 00:00:00 | 02:27:05 | 00:00:00 | |
| DL1XH1-15 | 2026-09-04 18:56:54 | 49.76219 | 8.92774 | 98° | 69km/h | 16383m | -8.5m/s | -56.5°C | 4.8% | 103.4hPa | 2.5V | 02:51:53 | 02:26:59 | 00:00:00 | |
| DM7RM-13 | 2026-09-04 18:56:51 | 49.76213 | 8.92829 | 99° | 73km/h | 16367m | -8.1m/s | -56.5°C | 1.7% | 103.7hPa | 2.5V | 02:52:00 | 00:00:00 | 00:00:00 | |
| DO2KSM | 2026-09-04 18:56:50 | 49.76213 | 8.92829 | 99° | 73km/h | 16367m | -8.1m/s | -56.5°C | 1.7% | 103.7hPa | 2.5V | 02:52:00 | 00:00:00 | 00:00:00 | |
| DO3DL | 2026-09-04 18:56:49 | 49.76219 | 8.92774 | 99° | 69km/h | 16383m | -8.5m/s | -56.5°C | 1.7% | 103.4hPa | 2.5V | 02:52:00 | 00:00:00 | 00:00:00 | |
| DM0DOS-11 | 2026-09-04 18:56:48 | 49.76234 | 8.92625 | 101° | 62km/h | 16433m | -8.4m/s | -56.2°C | 4.7% | 102.6hPa | 2.5V | 02:51:59 | 02:26:53 | 00:00:00 | |
| DL1XH-west | 2026-09-04 18:56:47 | 49.76224 | 8.92722 | 98° | 66km/h | 16399m | -8.2m/s | -56.5°C | 1.1% | 103.1hPa | 2.5V | 02:52:40 | 02:26:57 | 00:00:00 | |
| DF7PN | 2026-09-04 18:56:45 | 49.76228 | 8.92672 | 99° | 62km/h | 16417m | -8.5m/s | -56.4°C | 1.7% | 102.8hPa | 2.6V | 00:00:00 | 00:00:00 | 00:00:00 | |
| DL1XH1-15 | 2026-09-04 18:56:44 | 49.76249 | 8.92531 | 102° | 62km/h | 16468m | -8.2m/s | -56°C | 4.6% | 102hPa | 2.6V | 02:52:03 | 02:26:49 | 00:00:00 | |
| BIOWL1-15 | 2026-09-04 18:56:41 | 49.76241 | 8.92578 | 104° | 62km/h | 16450m | -8.8m/s | -56°C | 1% | 102.3hPa | 2.5V | 02:52:40 | 02:26:51 | 00:00:00 | |
| DL1XH-west | 2026-09-04 18:56:37 | 49.76255 | 8.92484 | 101° | 60km/h | 16484m | -8.1m/s | -56°C | 1% | 101.7hPa | 2.5V | 02:52:40 | 02:26:47 | 00:00:00 | |
| DM0DOS-11 | 2026-09-04 18:56:36 | 49.76265 | 8.92399 | 100° | 53km/h | 16517m | -8.2m/s | -56.2°C | 4.6% | 101.3hPa | 2.6V | 02:52:09 | 02:26:43 | 00:00:00 | |
| DJ2DS-15 | 2026-09-04 18:56:35 | 49.76260 | 8.92440 | 100° | 53km/h | 16500m | -8.4m/s | -56.0°C | 4.5% | 101.5hPa | 2.5V | 02:52:00 | 02:26:45 | 00:00:00 | |
| DL1XH1-15 | 2026-09-04 18:56:34 | 49.76275 | 8.92321 | 100° | 51km/h | 16550m | -8.7m/s | -56.3°C | 4.6% | 100.7hPa | 2.6V | 02:52:13 | 02:26:39 | 00:00:00 | |
| BIOWL1-15 | 2026-09-04 18:56:30 | 49.76273 | 8.92340 | 102° | 51km/h | 16541m | -8.9m/s | -56.3°C | 1.1% | 100.8hPa | 2.5V | 02:52:40 | 02:26:40 | 00:00:00 | |
| DL0LBS | 2026-09-04 18:56:29 | 49.76273 | 8.92340 | 103° | 51km/h | 16542m | -8.9m/s | -56.3°C | 1.6% | 100.8hPa | 2.6V | 02:52:00 | 00:00:00 | 00:00:00 | |
| DO3MHA-11 | 2026-09-04 18:56:28 | 49.76277 | 8.92301 | 100° | 55km/h | 16559m | -8.7m/s | -56.2°C | 4.6% | 100.5hPa | 2.6V | 02:52:00 | 02:26:38 | 00:00:00 | |
| DB0NH | 2026-09-04 18:56:27 | 49.76279 | 8.92282 | 100° | 55km/h | 16568m | -7.8m/s | -56.2°C | 4.6% | 100.4hPa | 2.6V | 00:00:00 | 02:26:37 | 00:00:00 | |
| DM0DOS-11 | 2026-09-04 18:56:26 | 49.76287 | 8.92201 | 97° | 53km/h | 16601m | -7.9m/s | -55.9°C | 4.4% | 99.9hPa | 2.6V | 02:52:19 | 02:26:33 | 00:00:00 | |
| DL1XH-west | 2026-09-04 18:56:26 | 49.76282 | 8.92262 | 99° | 51km/h | 16576m | -8.4m/s | -56.1°C | 1% | 100.3hPa | 2.5V | 02:52:40 | 02:26:36 | 00:00:00 | |
| DF2AP-13 | 2026-09-04 18:56:25 | 49.76283 | 8.92242 | 97° | 55km/h | 16584m | -8.4m/s | -55.9°C | 4.4% | 100.1hPa | 2.5V | 00:00:00 | 02:26:35 | 00:00:00 | |
| DL1XH1-15 | 2026-09-04 18:56:24 | 49.76296 | 8.92117 | 100° | 57km/h | 16634m | -8.5m/s | -56.2°C | 4.4% | 99.4hPa | 2.5V | 02:52:23 | 02:26:29 | 00:00:00 | |
| BIOWL1-15 | 2026-09-04 18:56:21 | 49.76296 | 8.92117 | 101° | 57km/h | 16634m | -8.5m/s | -56.2°C | 0.9% | 99.4hPa | 2.5V | 02:52:40 | 02:26:29 | 00:00:00 | |
| HSKMA3-T | 2026-09-04 18:56:16 | 49.76304 | 8.92053 | 101° | 55km/h | 16660m | -8.9m/s | -56.4°C | 1% | 99hPa | 2.5V | 02:52:40 | 02:26:26 | 00:00:00 | |
| DL1XH-west | 2026-09-04 18:56:15 | 49.76307 | 8.92032 | 99° | 55km/h | 16670m | -8.8m/s | -56.5°C | 1% | 98.8hPa | 2.5V | 02:52:40 | 02:26:25 | 00:00:00 | |
| BIOWL1-15 | 2026-09-04 18:56:09 | 49.76318 | 8.91901 | 98° | 58km/h | 16722m | -8.4m/s | -56.9°C | 1% | 98hPa | 2.5V | 02:52:40 | 02:26:19 | 00:00:00 | |
| DM0DOS-11 | 2026-09-04 18:56:08 | 49.76337 | 8.91770 | 103° | 55km/h | 16774m | -8.6m/s | -57.1°C | 4.8% | 97.3hPa | 2.5V | 02:52:39 | 02:26:13 | 00:00:00 | |
| DL1XH-west | 2026-09-04 18:56:05 | 49.76330 | 8.91813 | 103° | 57km/h | 16756m | -8.5m/s | -57.1°C | 1% | 97.5hPa | 2.5V | 02:52:40 | 02:26:15 | 00:00:00 | |
| BIOWL1-15 | 2026-09-04 18:56:02 | 49.76347 | 8.91667 | 95° | 51km/h | 16818m | -8.6m/s | -57°C | 1% | 96.5hPa | 2.5V | 02:53:31 | 02:26:08 | 00:00:00 | |
| DK5PH-5 | 2026-09-04 18:56:02 | 49.76340 | 8.91749 | 102° | 46km/h | 16783m | -8.7m/s | -57.1°C | 4.8% | 97.0hPa | 2.5V | 00:00:00 | 02:26:12 | 00:00:00 | |
| DL1KLB | 2026-09-04 18:56:01 | 49.76342 | 8.91728 | 100° | 55km/h | 16791m | -8.7m/s | -57.1°C | 1.6% | 96.9hPa | 2.5V | 02:53:00 | 00:00:00 | 00:00:00 | |
| DB0UT-9 | 2026-09-04 18:56:00 | 49.76344 | 8.91707 | 100° | 53km/h | 16800m | -9.0m/s | -57.1°C | 1.6% | 96.8hPa | 2.5V | 02:53:00 | 00:00:00 | 00:00:00 | |
| CB1BUN | 2026-09-04 18:55:59 | 49.76344 | 8.91707 | 100° | 53km/h | 16800m | -9.0m/s | -57.1°C | 1.6% | 96.8hPa | 2.5V | 02:53:00 | 00:00:00 | 00:00:00 | |
| DM0DOS-11 | 2026-09-04 18:55:58 | 49.76353 | 8.91571 | 93° | 47km/h | 16861m | -8.5m/s | -56.8°C | 4.7% | 95.9hPa | 2.5V | 02:52:49 | 02:26:03 | 00:00:00 | |
| DL1XH-west | 2026-09-04 18:55:55 | 49.76351 | 8.91608 | 96° | 47km/h | 16844m | -8.5m/s | -56.9°C | 1% | 96.2hPa | 2.6V | 02:53:31 | 02:26:05 | 00:00:00 | |
| HSKMA3-T | 2026-09-04 18:55:54 | 49.76352 | 8.91590 | 95° | 47km/h | 16852m | -8.9m/s | -56.8°C | 0.9% | 96hPa | 2.5V | 02:53:31 | 02:26:04 | 00:00:00 | |
| HARRO8 | 2026-09-04 18:55:53 | 49.76353 | 8.91553 | 91° | 46km/h | 16870m | -8.6m/s | -56.7°C | 1.5% | 95.8hPa | 2.5V | 00:00:00 | 00:00:00 | 00:00:00 | |
| DJ2DS-15 | 2026-09-04 18:55:52 | 49.76353 | 8.91553 | 91° | 46km/h | 16870m | -8.6m/s | -56.7°C | 1.5% | 95.8hPa | 2.5V | 00:00:00 | 00:00:00 | 00:00:00 | |
| DO1YAY-16 | 2026-09-04 18:55:49 | 49.76349 | 8.91479 | 78° | 47km/h | 16902m | -8.5m/s | -56.7°C | 1.5% | 95.2hPa | 2.5V | 00:00:00 | 00:00:00 | 00:00:00 | |
| DM0DOS-11 | 2026-09-04 18:55:48 | 49.76335 | 8.91393 | 76° | 42km/h | 16945m | -8.8m/s | -56.7°C | 4.7% | 94.6hPa | 2.5V | 02:52:59 | 02:25:53 | 00:00:00 | |
| BIOWL1-15 | 2026-09-04 18:55:47 | 49.76347 | 8.91461 | 75° | 47km/h | 16911m | -8.5m/s | -56.7°C | 0.9% | 95.1hPa | 2.5V | 02:53:31 | 02:25:57 | 00:00:00 | |
| DL1ZP-14 | 2026-09-04 18:55:46 | 49.76344 | 8.91443 | 75° | 46km/h | 16919m | -8.7m/s | -56.7°C | 1.5% | 95.0hPa | 2.5V | 00:00:00 | 00:00:00 | 00:00:00 | |
| DL1XH1-15 | 2026-09-04 18:55:44 | 49.76328 | 8.91330 | 80° | 40km/h | 16981m | -8.5m/s | -56.6°C | 4.7% | 94.1hPa | 2.6V | 02:53:03 | 02:25:49 | 00:00:00 | |
| DL1XH-west | 2026-09-04 18:55:44 | 49.76338 | 8.91409 | 75° | 44km/h | 16937m | -8.8m/s | -56.7°C | 1% | 94.7hPa | 2.6V | 02:53:31 | 02:25:54 | 00:00:00 | |
| DL4BBY-15 | 2026-09-04 18:55:43 | 49.76335 | 8.91393 | 77° | 42km/h | 16946m | -8.8m/s | -57.6°C | 0% | 0hPa | 2.5V | 00:00:00 | 00:00:00 | 00:00:00 | |
| SFWM-10 | 2026-09-04 18:55:42 | 49.76335 | 8.91393 | 77° | 42km/h | 16946m | -8.8m/s | -56.7°C | 1.5% | 94.6hPa | 2.5V | 00:00:00 | 00:00:00 | 00:00:00 | |
| DO3DL | 2026-09-04 18:55:41 | 49.76332 | 8.91377 | 80° | 42km/h | 16955m | -8.8m/s | -56.7°C | 1.5% | 94.4hPa | 2.5V | 02:53:00 | 00:00:00 | 00:00:00 | |
| DL1KLB | 2026-09-04 18:55:40 | 49.76330 | 8.91361 | 81° | 40km/h | 16963m | -9.1m/s | -56.7°C | 1.5% | 94.3hPa | 2.5V | 02:53:00 | 00:00:00 | 00:00:00 | |
| EDDB2-12 | 2026-09-04 18:55:39 | 49.76327 | 8.91330 | 80° | 40km/h | 16981m | -8.5m/s | -56.6°C | 1.5% | 94.1hPa | 2.5V | 00:00:00 | 00:00:00 | 00:00:00 | |
| DM0DOS-11 | 2026-09-04 18:55:38 | 49.76317 | 8.91238 | 79° | 40km/h | 17034m | -8.8m/s | -55.8°C | 4.3% | 93.3hPa | 2.5V | 02:53:09 | 02:25:43 | 00:00:00 | |
| BIOWL1-15 | 2026-09-04 18:55:36 | 49.76322 | 8.91283 | 78° | 40km/h | 17007m | -9.2m/s | -56°C | 0.8% | 93.7hPa | 2.5V | 02:53:31 | 02:25:46 | 00:00:00 | |
| HSKMA3-T | 2026-09-04 18:55:34 | 49.76318 | 8.91253 | 80° | 40km/h | 17025m | -8.7m/s | -55.8°C | 0.7% | 93.4hPa | 2.6V | 02:53:31 | 02:25:44 | 00:00:00 | |
| DL1XH-west | 2026-09-04 18:55:33 | 49.76317 | 8.91238 | 80° | 40km/h | 17034m | -8.8m/s | -55.8°C | 0.7% | 93.3hPa | 2.5V | 02:53:31 | 02:25:43 | 00:00:00 | |
| DK5PH-5 | 2026-09-04 18:55:32 | 49.76315 | 8.91223 | 82° | 44km/h | 17043m | -8.9m/s | -55.7°C | 4.3% | 93.1hPa | 2.5V | 02:53:00 | 02:25:42 | 00:00:00 | |
| AU51GT2 | 2026-09-04 18:55:31 | 49.76313 | 8.91194 | 87° | 37km/h | 17061m | -9.4m/s | -55.9°C | -1.0% | -1.0hPa | 2.6V | 00:00:00 | 00:00:00 | 00:00:00 | |
| DO2KSM | 2026-09-04 18:55:29 | 49.76313 | 8.91193 | 89° | 38km/h | 17061m | -9.4m/s | -55.9°C | 1.4% | 92.9hPa | 2.6V | 02:53:00 | 00:00:00 | 00:00:00 | |
| DM0DOS-11 | 2026-09-04 18:55:28 | 49.76316 | 8.91079 | 94° | 46km/h | 17123m | -8.7m/s | -56.1°C | 4.3% | 92hPa | 2.6V | 02:53:19 | 02:25:33 | 00:00:00 | |
| BIOWL1-15 | 2026-09-04 18:55:25 | 49.76315 | 8.91114 | 94° | 44km/h | 17106m | -8.8m/s | -56.1°C | 0.7% | 92.3hPa | 2.5V | 02:53:31 | 02:25:35 | 00:00:00 | |
| HSKMA3-T | 2026-09-04 18:55:23 | 49.76316 | 8.91079 | 95° | 46km/h | 17123m | -8.7m/s | -56.1°C | 0.7% | 92hPa | 2.6V | 02:53:31 | 02:25:33 | 00:00:00 | |
| DO3DL | 2026-09-04 18:55:21 | 49.76317 | 8.91062 | 96° | 46km/h | 17132m | -8.8m/s | -56.1°C | 1.4% | 91.9hPa | 2.6V | 02:53:00 | 00:00:00 | 00:00:00 | |
| HEMX73-11 | 2026-09-04 18:55:20 | 49.76318 | 8.91026 | 95° | 46km/h | 17150m | -8.8m/s | -56.0°C | 1.4% | 91.6hPa | 2.6V | 02:53:00 | 00:00:00 | 00:00:00 | |
| DM0DOS-11 | 2026-09-04 18:55:18 | 49.76323 | 8.90899 | 93° | 47km/h | 17211m | -8.9m/s | -56.2°C | 4.1% | 90.7hPa | 2.6V | 02:53:29 | 02:25:23 | 00:00:00 | |
| BIOWL1-15 | 2026-09-04 18:55:18 | 49.76322 | 8.90918 | 94° | 47km/h | 17203m | -8.9m/s | -56.1°C | 0.6% | 90.8hPa | 2.5V | 02:53:31 | 02:25:24 | 00:00:00 | |
| HSKMA3-T | 2026-09-04 18:55:13 | 49.76323 | 8.90899 | 94° | 47km/h | 17211m | -9m/s | -56.2°C | 0.5% | 90.7hPa | 2.6V | 02:53:31 | 02:25:23 | 00:00:00 | |
| DL1XH-west | 2026-09-04 18:55:11 | 49.76325 | 8.90863 | 95° | 46km/h | 17230m | -9.5m/s | -56.3°C | 0.6% | 90.4hPa | 2.5V | 02:53:31 | 02:25:21 | 00:00:00 | |
| DH7VM-15 | 2026-09-04 18:55:10 | 49.76324 | 8.90862 | 96° | 46km/h | 17230m | -9.5m/s | -56.3°C | 1.3% | 90.4hPa | 2.6V | 02:53:00 | 00:00:00 | 00:00:00 | |
| DO3DL | 2026-09-04 18:55:09 | 49.76325 | 8.90845 | 97° | 46km/h | 17239m | -9.7m/s | -56.4°C | 1.3% | 90.3hPa | 2.6V | 02:54:00 | 00:00:00 | 00:00:00 | |
| DM0DOS-11 | 2026-09-04 18:55:08 | 49.76332 | 8.90717 | 93° | 47km/h | 17328m | -10.9m/s | -57.2°C | 4.4% | 89hPa | 2.6V | 02:53:39 | 02:25:13 | 00:00:00 | |
| BIOWL1-15 | 2026-09-04 18:55:03 | 49.76332 | 8.90717 | 94° | 47km/h | 17328m | -10.9m/s | -57.3°C | 0.7% | 89hPa | 2.6V | 02:54:22 | 02:25:13 | 00:00:00 | |
| DL1XH-west | 2026-09-04 18:55:00 | 49.76335 | 8.90660 | 94° | 51km/h | 17366m | -15.6m/s | -57.6°C | 0.7% | 88.6hPa | 2.5V | 02:54:22 | 02:25:10 | 00:00:00 | |
| DB0ND-19 | 2026-09-04 18:55:00 | 49.76336 | 8.90639 | 94° | 53km/h | 17381m | -14.4m/s | -57.7°C | 1.4% | 88.3hPa | 2.5V | 00:00:00 | 00:00:00 | 00:00:00 | |
| HEMX73-11 | 2026-09-04 18:54:59 | 49.76335 | 8.90660 | 95° | 51km/h | 17366m | -15.6m/s | -57.6°C | 1.4% | 88.6hPa | 2.5V | 02:54:00 | 00:00:00 | 00:00:00 | |
| DM0DOS-11 | 2026-09-04 18:54:58 | 49.76346 | 8.90516 | 99° | 49km/h | 17470m | -17.1m/s | -58.2°C | 4.6% | 87.2hPa | 2.5V | 02:53:49 | 02:25:03 | 00:00:00 | |
| BIOWL1-15 | 2026-09-04 18:54:52 | 49.76349 | 8.90497 | 100° | 49km/h | 17486m | -16.1m/s | -58.4°C | 0.8% | 86.9hPa | 2.6V | 02:54:22 | 02:25:02 | 00:00:00 | |
| DL1XH-west | 2026-09-04 18:54:50 | 49.76354 | 8.90461 | 103° | 46km/h | 17521m | -17.9m/s | -58.6°C | 0.9% | 86.5hPa | 2.5V | 02:54:22 | 02:25:00 | 00:00:00 | |
| DC4HF-4 | 2026-09-04 18:54:50 | 49.76356 | 8.90443 | 103° | 46km/h | 17539m | -17.6m/s | -58.7°C | 1.5% | 86.3hPa | 2.5V | 00:00:00 | 00:00:00 | 00:00:00 | |
| DM0DOS-11 | 2026-09-04 18:54:48 | 49.76371 | 8.90341 | 97° | 44km/h | 17637m | -15.7m/s | -59°C | 5.3% | 84.9hPa | 2.5V | 02:53:59 | 02:24:53 | 00:00:00 | |
| DO1YAY-16 | 2026-09-04 18:54:47 | 49.76364 | 8.90392 | 104° | 44km/h | 17590m | -16.4m/s | -58.8°C | 1.5% | 85.5hPa | 2.6V | 00:00:00 | 00:00:00 | 00:00:00 | |
| DL3AQ-11 | 2026-09-04 18:54:46 | 49.76364 | 8.90392 | 104° | 44km/h | 17590m | -16.4m/s | -58.8°C | 1.5% | 85.5hPa | 2.6V | 00:00:00 | 00:00:00 | 00:00:00 | |
| BIOWL1-15 | 2026-09-04 18:54:41 | 49.76374 | 8.90307 | 100° | 42km/h | 17667m | -13.5m/s | -59°C | 1.1% | 84.4hPa | 2.6V | 02:54:22 | 02:24:51 | 00:00:00 | |
| DL1XH-west | 2026-09-04 18:54:39 | 49.76378 | 8.90275 | 100° | 40km/h | 17693m | -12.9m/s | -59.1°C | 1.1% | 84.1hPa | 2.5V | 02:54:22 | 02:24:49 | 00:00:00 | |
| DM0DOS-11 | 2026-09-04 18:54:38 | 49.76376 | 8.90178 | 82° | 47km/h | 17781m | -15m/s | -58.8°C | 5.5% | 83hPa | 2.5V | 02:54:09 | 02:24:43 | 00:00:00 | |
| BIOWL1-15 | 2026-09-04 18:54:30 | 49.76371 | 8.90119 | 81° | 53km/h | 17825m | -15.7m/s | -58.7°C | 1.2% | 82.4hPa | 2.6V | 02:54:22 | 02:24:40 | 00:00:00 | |
| DL1XH-west | 2026-09-04 18:54:29 | 49.76369 | 8.90099 | 84° | 53km/h | 17840m | -14.9m/s | -58.5°C | 1.1% | 82.2hPa | 2.5V | 02:54:22 | 02:24:39 | 00:00:00 | |
| BIOWL1-15 | 2026-09-04 18:54:22 | 49.76369 | 8.89895 | 101° | 62km/h | 17970m | -13.3m/s | -56.5°C | 0.9% | 80.5hPa | 2.6V | 02:54:22 | 02:24:30 | 00:00:00 | |
| DL1XH-west | 2026-09-04 18:54:19 | 49.76372 | 8.89872 | 101° | 60km/h | 17983m | -11.7m/s | -56.3°C | 0.9% | 80.2hPa | 2.6V | 02:55:13 | 02:24:29 | 00:00:00 | |
| DO3MHA-11 | 2026-09-04 18:54:18 | 49.76375 | 8.89849 | 103° | 47km/h | 17994m | -11.5m/s | -56.2°C | 4.7% | 80.0hPa | 2.6V | 00:00:00 | 02:24:28 | 00:00:00 | |
| DB0UT-9 | 2026-09-04 18:54:17 | 49.76375 | 8.89849 | 103° | 58km/h | 17994m | -11.5m/s | -56.3°C | 1.4% | 80.1hPa | 2.6V | 02:55:00 | 00:00:00 | 00:00:00 | |
| DJ2DS-15 | 2026-09-04 18:54:15 | 49.76386 | 8.89788 | 106° | 33km/h | 18037m | -14.6m/s | -56.2°C | 4.7% | 79.6hPa | 2.6V | 00:00:00 | 02:24:25 | 00:00:00 | |
| DC4HF-4 | 2026-09-04 18:54:14 | 49.76392 | 8.89754 | 107° | 44km/h | 18066m | -14.7m/s | -56.2°C | 1.4% | 79.3hPa | 2.6V | 00:00:00 | 00:00:00 | 00:00:00 | |
| DL4BBY-15 | 2026-09-04 18:54:13 | 49.76392 | 8.89754 | 108° | 31km/h | 18066m | -14.6m/s | -57.1°C | 0% | 0hPa | 2.6V | 00:00:00 | 00:00:00 | 00:00:00 | |
| DF7PN | 2026-09-04 18:54:10 | 49.76398 | 8.89705 | 95° | 38km/h | 18113m | -17.0m/s | -55.4°C | 1.3% | 78.8hPa | 2.6V | 00:00:00 | 00:00:00 | 00:00:00 | |
| DL1XH1-15 | 2026-09-04 18:54:09 | 49.76395 | 8.89626 | 74° | 29km/h | 18215m | -14.9m/s | -54°C | 3.7% | 77.5hPa | 2.6V | 02:54:38 | 02:24:14 | 00:00:00 | |
| DL1XH-west | 2026-09-04 18:54:09 | 49.76398 | 8.89690 | 92° | 37km/h | 18131m | -17.9m/s | -54.8°C | 0.5% | 78.6hPa | 2.6V | 02:55:13 | 02:24:19 | 00:00:00 | |
| HSKMA3-T | 2026-09-04 18:54:08 | 49.76399 | 8.89676 | 93° | 37km/h | 18149m | -18.1m/s | -54.3°C | 0.4% | 78.3hPa | 2.5V | 02:56:04 | 02:24:18 | 00:00:00 | |
| DO3MHA-11 | 2026-09-04 18:54:08 | 49.76399 | 8.89676 | 94° | 29km/h | 18149m | -18.0m/s | -54.3°C | 3.9% | 78.3hPa | 2.5V | 00:00:00 | 02:24:18 | 00:00:00 | |
| DO2KSM | 2026-09-04 18:54:07 | 49.76398 | 8.89676 | 94° | 37km/h | 18149m | -18.1m/s | -54.3°C | 1.2% | 78.3hPa | 2.5V | 02:55:00 | 00:00:00 | 00:00:00 | |
| DL0LBS | 2026-09-04 18:54:06 | 49.76399 | 8.89663 | 91° | 35km/h | 18167m | -17.0m/s | -54.2°C | 1.1% | 78.1hPa | 2.5V | 02:55:00 | 00:00:00 | 00:00:00 | |
| DH7VM-15 | 2026-09-04 18:54:05 | 49.76398 | 8.89650 | 84° | 33km/h | 18183m | -15.7m/s | -54.1°C | 1.1% | 77.9hPa | 2.5V | 00:00:00 | 00:00:00 | 00:00:00 | |
| DJ2DS-15 | 2026-09-04 18:54:04 | 49.76396 | 8.89626 | 74° | 29km/h | 18215m | -15.0m/s | -54.0°C | 1.1% | 77.5hPa | 2.5V | 00:00:00 | 00:00:00 | 00:00:00 | |
| DK5PH-5 | 2026-09-04 18:54:02 | 49.76391 | 8.89606 | 69° | 29km/h | 18248m | -16.1m/s | -54.1°C | 3.7% | 77.1hPa | 2.5V | 02:54:00 | 02:24:12 | 00:00:00 | |
| DO3DL | 2026-09-04 18:54:00 | 49.76389 | 8.89596 | 71° | 26km/h | 18264m | -15.8m/s | -54.1°C | 1.1% | 76.9hPa | 2.6V | 02:55:00 | 00:00:00 | 00:00:00 | |
| DL1XH1-15 | 2026-09-04 18:53:59 | 49.76369 | 8.89531 | 58° | 31km/h | 18362m | -14.7m/s | -54.7°C | 3.8% | 75.7hPa | 2.6V | 02:54:48 | 02:24:04 | 00:00:00 | |
| DD1CC8 | 2026-09-04 18:53:59 | 49.76384 | 8.89578 | 69° | 24km/h | 18293m | -12.5m/s | -54.2°C | 1.1% | 76.5hPa | 2.6V | 00:00:00 | 00:00:00 | 00:00:00 | |
| BIOWL1-15 | 2026-09-04 18:53:59 | 49.76384 | 8.89578 | 70° | 24km/h | 18292m | -12.5m/s | -54.2°C | 0.2% | 76.5hPa | 2.6V | 02:55:13 | 02:24:09 | 00:00:00 | |
| DM0DOS-11 | 2026-09-04 18:53:58 | 49.76365 | 8.89521 | 58° | 31km/h | 18377m | -13.6m/s | -54.9°C | 3.8% | 75.5hPa | 2.6V | 02:54:49 | 02:24:03 | 00:00:00 | |
| DL1XH-west | 2026-09-04 18:53:58 | 49.76382 | 8.89570 | 69° | 24km/h | 18305m | -12.3m/s | -54.3°C | 0.3% | 76.4hPa | 2.6V | 02:55:13 | 02:24:08 | 00:00:00 | |
| DB0ND-19 | 2026-09-04 18:53:58 | 49.76380 | 8.89561 | 64° | 26km/h | 18318m | -13.6m/s | -54.4°C | 1.1% | 76.2hPa | 2.6V | 00:00:00 | 00:00:00 | 00:00:00 | |
| DL3AQ-11 | 2026-09-04 18:53:56 | 49.76373 | 8.89541 | 61° | 29km/h | 18347m | -15.3m/s | -54.6°C | 1.1% | 75.9hPa | 2.6V | 00:00:00 | 00:00:00 | 00:00:00 | |
| BIOWL9-15 | 2026-09-04 18:53:52 | 49.76358 | 8.89500 | 62° | 29km/h | 18403m | -11.7m/s | -55.1°C | 1.1% | 75.2hPa | 2.6V | 00:00:00 | 00:00:00 | 00:00:00 | |
| SONCRA | 2026-09-04 18:53:51 | 49.76355 | 8.89490 | 68° | 26km/h | 18414m | -11.2m/s | -55.2°C | 1.2% | 75.0hPa | 2.6V | 00:00:00 | 00:00:00 | 00:00:00 | |
| DL1XH1-15 | 2026-09-04 18:53:49 | 49.76338 | 8.89428 | 65° | 31km/h | 18469m | -8.1m/s | -55.4°C | 4% | 74.4hPa | 2.6V | 02:54:58 | 02:23:54 | 00:00:00 | |
| DM0DOS-11 | 2026-09-04 18:53:49 | 49.76334 | 8.89417 | 64° | 33km/h | 18478m | -8.1m/s | -55.5°C | 4.1% | 74.3hPa | 2.6V | 02:54:59 | 02:23:53 | 00:00:00 | |
| DL1XH-west | 2026-09-04 18:53:48 | 49.76349 | 8.89470 | 68° | 29km/h | 18435m | -8.9m/s | -55.3°C | 0.4% | 74.8hPa | 2.6V | 02:55:13 | 02:23:58 | 00:00:00 | |
| HSKMA3-T | 2026-09-04 18:53:47 | 49.76346 | 8.89460 | 68° | 27km/h | 18443m | -8.6m/s | -55.3°C | 0.5% | 74.7hPa | 2.5V | 02:56:04 | 02:23:57 | 00:00:00 | |
| DO2KSM | 2026-09-04 18:53:47 | 49.76346 | 8.89460 | 69° | 27km/h | 18443m | -8.6m/s | -55.3°C | 1.2% | 74.7hPa | 2.5V | 02:55:00 | 00:00:00 | 00:00:00 | |
| DL0LBS | 2026-09-04 18:53:46 | 49.76346 | 8.89460 | 69° | 27km/h | 18443m | -8.6m/s | -55.3°C | 1.2% | 74.7hPa | 2.5V | 02:55:00 | 00:00:00 | 00:00:00 | |
| DL1XH-15 | 2026-09-04 18:53:44 | 49.76321 | 8.89371 | 67° | 29km/h | 18514m | -9m/s | -55.7°C | 4.1% | 73.9hPa | 2.5V | 02:55:03 | 02:23:49 | 00:00:00 | |
| DL4BBY-15 | 2026-09-04 18:53:43 | 49.76334 | 8.89416 | 65° | 29km/h | 18478m | -8.1m/s | -56.4°C | 0% | 0hPa | 2.5V | 00:00:00 | 00:00:00 | 00:00:00 | |
| NBG1-10 | 2026-09-04 18:53:42 | 49.76331 | 8.89405 | 65° | 31km/h | 18486m | -8.6m/s | -55.5°C | 4.1% | 74.1hPa | 2.5V | 00:00:00 | 02:23:52 | 00:00:00 | |
| DJTTGO | 2026-09-04 18:53:41 | 49.76331 | 8.89405 | 65° | 33km/h | 18486m | -8.6m/s | -55.5°C | 1.2% | 74.2hPa | 2.5V | 00:00:00 | 00:00:00 | 00:00:00 | |
| DL3AQ-11 | 2026-09-04 18:53:40 | 49.76321 | 8.89372 | 67° | 29km/h | 18514m | -9.0m/s | -55.7°C | 1.2% | 73.9hPa | 2.5V | 00:00:00 | 00:00:00 | 00:00:00 | |
| DL1XH1-15 | 2026-09-04 18:53:39 | 49.76307 | 8.89321 | 67° | 26km/h | 18560m | -9.3m/s | -56.1°C | 4.2% | 73.3hPa | 2.5V | 02:55:08 | 02:23:44 | 00:00:00 | |
| DF7PN | 2026-09-04 18:53:39 | 49.76318 | 8.89361 | 66° | 29km/h | 18523m | -8.6m/s | -55.8°C | 1.2% | 73.8hPa | 2.6V | 00:00:00 | 00:00:00 | 00:00:00 | |
| DM0DOS-11 | 2026-09-04 18:53:38 | 49.76305 | 8.89311 | 65° | 26km/h | 18570m | -9m/s | -56.1°C | 4.1% | 73.2hPa | 2.6V | 02:55:09 | 02:23:43 | 00:00:00 | |
| DL1XH-west | 2026-09-04 18:53:37 | 49.76316 | 8.89350 | 67° | 27km/h | 18532m | -9.3m/s | -55.9°C | 0.5% | 73.7hPa | 2.6V | 02:55:13 | 02:23:47 | 00:00:00 | |
| HSKMA3-T | 2026-09-04 18:53:35 | 49.76310 | 8.89331 | 66° | 27km/h | 18551m | -9.6m/s | -56.1°C | 0.5% | 73.5hPa | 2.5V | 02:56:04 | 02:23:45 | 00:00:00 | |
| EDDB2-12 | 2026-09-04 18:53:35 | 49.76307 | 8.89321 | 67° | 26km/h | 18560m | -9.3m/s | -56.1°C | 1.2% | 73.3hPa | 2.5V | 00:00:00 | 00:00:00 | 00:00:00 | |
| CB1BUN | 2026-09-04 18:53:33 | 49.76307 | 8.89321 | 68° | 26km/h | 18560m | -9.3m/s | -56.1°C | 1.2% | 73.3hPa | 2.5V | 02:55:00 | 00:00:00 | 00:00:00 | |
| DF1GD-15 | 2026-09-04 18:53:31 | 49.76302 | 8.89302 | 63° | 27km/h | 18579m | -9.9m/s | -56.2°C | 1.2% | 73.1hPa | 2.5V | 02:55:00 | 00:00:00 | 00:00:00 | |
| DL1XH1-15 | 2026-09-04 18:53:29 | 49.76280 | 8.89226 | 75° | 26km/h | 18661m | -10.5m/s | -56.9°C | 4.6% | 72.2hPa | 2.5V | 02:55:18 | 02:23:34 | 00:00:00 | |
| DM0DOS-11 | 2026-09-04 18:53:28 | 49.76279 | 8.89217 | 75° | 24km/h | 18672m | -10.2m/s | -57°C | 4.6% | 72hPa | 2.5V | 02:55:19 | 02:23:33 | 00:00:00 | |
| DL1XH-west | 2026-09-04 18:53:26 | 49.76284 | 8.89245 | 71° | 26km/h | 18640m | -10.4m/s | -56.7°C | 0.6% | 72.4hPa | 2.5V | 02:56:04 | 02:23:36 | 00:00:00 | |
| HSKMA3-T | 2026-09-04 18:53:25 | 49.76282 | 8.89236 | 74° | 26km/h | 18650m | -11.3m/s | -56.8°C | 0.6% | 72.3hPa | 2.5V | 02:56:04 | 02:23:35 | 00:00:00 | |
| DB0UT-7 | 2026-09-04 18:53:25 | 49.76282 | 8.89236 | 75° | 38km/h | 18651m | -11.3m/s | -56.7°C | 4.5% | 72.3hPa | 2.5V | 02:55:00 | 00:00:00 | 00:00:00 | |
| DM7RM-13 | 2026-09-04 18:53:24 | 49.76280 | 8.89226 | 76° | 26km/h | 18662m | -10.5m/s | -56.9°C | 1.3% | 72.2hPa | 2.6V | 02:56:00 | 00:00:00 | 00:00:00 | |
| SFWM-10 | 2026-09-04 18:53:23 | 49.76280 | 8.89226 | 76° | 26km/h | 18662m | -10.5m/s | -56.9°C | 1.3% | 72.2hPa | 2.6V | 00:00:00 | 00:00:00 | 00:00:00 | |
| DO3DL | 2026-09-04 18:53:22 | 49.76279 | 8.89217 | 77° | 24km/h | 18672m | -10.3m/s | -57.0°C | 1.3% | 72.1hPa | 2.6V | 00:00:00 | 00:00:00 | 00:00:00 | |
| BIOWL9-15 | 2026-09-04 18:53:21 | 49.76272 | 8.89187 | 65° | 29km/h | 18704m | -11.4m/s | -57.2°C | 1.4% | 71.7hPa | 2.6V | 00:00:00 | 00:00:00 | 00:00:00 | |
| DM3KS-11 | 2026-09-04 18:53:20 | 49.76268 | 8.89176 | 61° | 33km/h | 18716m | -11.9m/s | -57.3°C | 1.4% | 71.6hPa | 2.6V | 00:00:00 | 00:00:00 | 00:00:00 | |
| DL1XH1-15 | 2026-09-04 18:53:19 | 49.76245 | 8.89114 | 65° | 38km/h | 18775m | -12.5m/s | -57.6°C | 5.3% | 70.9hPa | 2.6V | 02:55:28 | 02:23:24 | 00:00:00 | |
| DM0DOS-11 | 2026-09-04 18:53:18 | 49.76241 | 8.89100 | 68° | 37km/h | 18788m | -12.7m/s | -57.5°C | 5.2% | 70.8hPa | 2.5V | 02:55:29 | 02:23:23 | 00:00:00 | |
| DL1XH-west | 2026-09-04 18:53:16 | 49.76254 | 8.89140 | 58° | 38km/h | 18750m | -12.8m/s | -57.6°C | 1% | 71.2hPa | 2.5V | 02:56:04 | 02:23:26 | 00:00:00 | |
| BIOWL1-15 | 2026-09-04 18:53:15 | 49.76249 | 8.89127 | 60° | 38km/h | 18763m | -12.3m/s | -57.6°C | 1.1% | 71hPa | 2.6V | 02:56:04 | 02:23:25 | 00:00:00 | |
| HSKMA3-T | 2026-09-04 18:53:14 | 49.76245 | 8.89114 | 66° | 38km/h | 18775m | -12.5m/s | -57.6°C | 1.1% | 70.9hPa | 2.6V | 02:56:04 | 02:23:24 | 00:00:00 | |
| DL4BBY-15 | 2026-09-04 18:53:13 | 49.76241 | 8.89100 | 69° | 38km/h | 18788m | -12.6m/s | -58.4°C | 0% | 0hPa | 2.5V | 00:00:00 | 00:00:00 | 00:00:00 | |
| EDDB2-11 | 2026-09-04 18:53:12 | 49.76238 | 8.89086 | 73° | 37km/h | 18801m | -13.7m/s | -57.4°C | 1.5% | 70.6hPa | 2.5V | 00:00:00 | 00:00:00 | 00:00:00 | |
| DL1ZP-14 | 2026-09-04 18:53:11 | 49.76235 | 8.89072 | 75° | 38km/h | 18814m | -12.9m/s | -57.4°C | 1.4% | 70.5hPa | 2.5V | 00:00:00 | 00:00:00 | 00:00:00 | |
| DF1GD-15 | 2026-09-04 18:53:10 | 49.76236 | 8.89072 | 76° | 38km/h | 18815m | -12.9m/s | -57.4°C | 1.5% | 70.5hPa | 2.6V | 02:56:00 | 00:00:00 | 00:00:00 | |
| DL1XH1-15 | 2026-09-04 18:53:09 | 49.76217 | 8.88960 | 78° | 46km/h | 18912m | -13.4m/s | -55.8°C | 4.8% | 69.4hPa | 2.6V | 02:55:38 | 02:23:14 | 00:00:00 | |
| NBG1-10 | 2026-09-04 18:53:09 | 49.76231 | 8.89042 | 76° | 35km/h | 18842m | -14.5m/s | -57.2°C | 5.3% | 70.1hPa | 2.5V | 00:00:00 | 02:23:19 | 00:00:00 | |
| DM0DOS-11 | 2026-09-04 18:53:08 | 49.76214 | 8.88943 | 78° | 46km/h | 18925m | -13.3m/s | -55.7°C | 4.7% | 69.3hPa | 2.5V | 02:55:39 | 02:23:13 | 00:00:00 | |
| DO3MHA-11 | 2026-09-04 18:53:08 | 49.76228 | 8.89026 | 74° | 46km/h | 18856m | -13.2m/s | -57.1°C | 5.3% | 70.0hPa | 2.5V | 00:00:00 | 02:23:18 | 00:00:00 | |
| DL1XH-15 | 2026-09-04 18:53:06 | 49.76211 | 8.88906 | 87° | 47km/h | 18955m | -16m/s | -55.5°C | 4.7% | 69hPa | 2.5V | 02:55:41 | 02:23:11 | 00:00:00 | |
| DL1XH-west | 2026-09-04 18:53:06 | 49.76222 | 8.88994 | 76° | 44km/h | 18884m | -13.8m/s | -56.3°C | 1% | 69.7hPa | 2.5V | 02:56:04 | 02:23:16 | 00:00:00 | |
| BIOWL1-15 | 2026-09-04 18:53:04 | 49.76216 | 8.88960 | 78° | 46km/h | 18912m | -13.4m/s | -55.8°C | 0.9% | 69.4hPa | 2.6V | 02:56:04 | 02:23:14 | 00:00:00 | |
| HSKMA3-T | 2026-09-04 18:53:03 | 49.76214 | 8.88943 | 79° | 46km/h | 18925m | -13.3m/s | -55.7°C | 0.8% | 69.3hPa | 2.5V | 02:56:04 | 02:23:13 | 00:00:00 | |
| DC4HF-4 | 2026-09-04 18:53:02 | 49.76211 | 8.88906 | 87° | 46km/h | 18955m | -16.0m/s | -55.5°C | 1.3% | 69.0hPa | 2.6V | 00:00:00 | 00:00:00 | 00:00:00 | |
| DH7VM-15 | 2026-09-04 18:53:01 | 49.76212 | 8.88925 | 84° | 47km/h | 18939m | -14.5m/s | -55.6°C | 1.3% | 69.1hPa | 2.6V | 00:00:00 | 00:00:00 | 00:00:00 | |
| DJTTGO | 2026-09-04 18:53:00 | 49.76211 | 8.88906 | 89° | 47km/h | 18955m | -16.0m/s | -55.5°C | 1.3% | 69.0hPa | 2.6V | 00:00:00 | 00:00:00 | 00:00:00 | |
| DL1XH1-15 | 2026-09-04 18:52:59 | 49.76221 | 8.88788 | 106° | 38km/h | 19062m | -15.8m/s | -53.3°C | 3.9% | 67.8hPa | 2.6V | 02:55:48 | 02:23:04 | 00:00:00 | |
| DF8AY | 2026-09-04 18:52:59 | 49.76221 | 8.88788 | 107° | 38km/h | 19062m | -15.8m/s | -53.3°C | 0.4% | 67.8hPa | 2.6V | 02:56:04 | 02:23:04 | 00:00:00 | |
| DM0DOS-11 | 2026-09-04 18:52:58 | 49.76224 | 8.88774 | 106° | 37km/h | 19077m | -13.1m/s | -53.2°C | 3.9% | 67.7hPa | 2.6V | 02:55:49 | 02:23:03 | 00:00:00 | |
| DO3MHA-11 | 2026-09-04 18:52:58 | 49.76213 | 8.88851 | 98° | 38km/h | 18999m | -14.1m/s | -54.4°C | 4.3% | 68.4hPa | 2.5V | 02:55:00 | 02:23:08 | 00:00:00 | |
| DL1XH-15 | 2026-09-04 18:52:56 | 49.76230 | 8.88748 | 108° | 35km/h | 19106m | -15.4m/s | -52.8°C | 3.6% | 67.3hPa | 2.5V | 02:55:51 | 02:23:01 | 00:00:00 | |
| DL1XH-west | 2026-09-04 18:52:56 | 49.76217 | 8.88818 | 101° | 40km/h | 19031m | -16.5m/s | -54°C | 0.5% | 68.2hPa | 2.5V | 02:56:04 | 02:23:06 | 00:00:00 | |
| BIOWL1-15 | 2026-09-04 18:52:55 | 49.76224 | 8.88774 | 107° | 37km/h | 19077m | -13.1m/s | -53.2°C | 0.4% | 67.7hPa | 2.6V | 02:56:04 | 02:23:03 | 00:00:00 | |
| HSKMA3-T | 2026-09-04 18:52:52 | 49.76227 | 8.88761 | 111° | 35km/h | 19091m | -14.5m/s | -53°C | 0.3% | 67.5hPa | 2.6V | 02:56:04 | 02:23:02 | 00:00:00 | |
| BIOWL9-15 | 2026-09-04 18:52:50 | 49.76236 | 8.88724 | 112° | 29km/h | 19138m | -16.3m/s | -52.7°C | 1.0% | 67.0hPa | 2.5V | 00:00:00 | 00:00:00 | 00:00:00 | |
| DL1XH1-15 | 2026-09-04 18:52:49 | 49.76245 | 8.88678 | 88° | 22km/h | 19212m | -16.6m/s | -52.3°C | 3.5% | 66.2hPa | 2.5V | 02:55:58 | 02:22:54 | 00:00:00 | |
| DL1XH-west | 2026-09-04 18:52:45 | 49.76244 | 8.88686 | 100° | 22km/h | 19197m | -13.9m/s | -52.5°C | 0.2% | 66.4hPa | 2.5V | 02:56:04 | 02:22:55 | 00:00:00 | |
| BIOWL1-15 | 2026-09-04 18:52:43 | 49.76245 | 8.88670 | 89° | 18km/h | 19229m | -17m/s | -52.3°C | 0.1% | 66.1hPa | 2.5V | 02:56:04 | 02:22:53 | 00:00:00 | |
| HSKMA3-T | 2026-09-04 18:52:42 | 49.76244 | 8.88663 | 80° | 18km/h | 19245m | -16.4m/s | -52.4°C | 0.1% | 65.9hPa | 2.6V | 02:56:04 | 02:22:52 | 00:00:00 | |
| EDDB2-11 | 2026-09-04 18:52:41 | 49.76243 | 8.88655 | 76° | 20km/h | 19261m | -14.4m/s | -52.4°C | 1.0% | 65.7hPa | 2.5V | 00:00:00 | 00:00:00 | 00:00:00 | |
| DL1ZP-14 | 2026-09-04 18:52:40 | 49.76242 | 8.88648 | 77° | 18km/h | 19275m | -14.6m/s | -52.4°C | 1.0% | 65.6hPa | 2.5V | 00:00:00 | 00:00:00 | 00:00:00 | |
| DL1XH1-15 | 2026-09-04 18:52:39 | 49.76234 | 8.88599 | 75° | 24km/h | 19369m | -16m/s | -53°C | 3.5% | 64.7hPa | 2.5V | 02:56:08 | 02:22:44 | 00:00:00 | |
| DM0DOS-11 | 2026-09-04 18:52:38 | 49.76232 | 8.88589 | 73° | 26km/h | 19385m | -15.5m/s | -53.1°C | 3.6% | 64.5hPa | 2.5V | 02:56:09 | 02:22:43 | 00:00:00 | |
| DL1XH-west | 2026-09-04 18:52:35 | 49.76235 | 8.88608 | 79° | 24km/h | 19353m | -16.3m/s | -52.9°C | 0.1% | 64.8hPa | 2.5V | 02:56:55 | 02:22:45 | 00:00:00 | |
| BIOWL1-15 | 2026-09-04 18:52:32 | 49.76230 | 8.88580 | 70° | 26km/h | 19399m | -13m/s | -53.3°C | 0.3% | 64.3hPa | 2.6V | 02:56:55 | 02:22:42 | 00:00:00 | |
| HSKMA3-T | 2026-09-04 18:52:31 | 49.76228 | 8.88570 | 68° | 27km/h | 19413m | -13.8m/s | -53.4°C | 0.2% | 64.2hPa | 2.6V | 02:56:55 | 02:22:41 | 00:00:00 | |
| DF1GD-15 | 2026-09-04 18:52:30 | 49.76225 | 8.88560 | 71° | 26km/h | 19427m | -15.5m/s | -53.5°C | 1.1% | 64.1hPa | 2.5V | 02:56:00 | 00:00:00 | 00:00:00 | |
| DL1XH1-15 | 2026-09-04 18:52:29 | 49.76213 | 8.88497 | 77° | 33km/h | 19524m | -15m/s | -54°C | 3.9% | 63.1hPa | 2.5V | 02:56:18 | 02:22:34 | 00:00:00 | |
| DF8AY | 2026-09-04 18:52:28 | 49.76221 | 8.88541 | 69° | 26km/h | 19458m | -15.1m/s | -53.7°C | 0.3% | 63.8hPa | 2.5V | 02:58:37 | 02:22:38 | 00:00:00 | |
| DM0DOS-11 | 2026-09-04 18:52:28 | 49.76212 | 8.88484 | 82° | 35km/h | 19538m | -13.4m/s | -54°C | 3.9% | 62.9hPa | 2.5V | 02:56:19 | 02:22:33 | 00:00:00 | |
| DL1XH-west | 2026-09-04 18:52:25 | 49.76215 | 8.88509 | 79° | 31km/h | 19508m | -17m/s | -54°C | 0.4% | 63.3hPa | 2.5V | 02:56:55 | 02:22:35 | 00:00:00 | |
| BIOWL1-15 | 2026-09-04 18:52:22 | 49.76210 | 8.88471 | 82° | 37km/h | 19552m | -15.3m/s | -54.1°C | 0.4% | 62.9hPa | 2.6V | 02:56:55 | 02:22:32 | 00:00:00 | |
| HSKMA3-T | 2026-09-04 18:52:21 | 49.76209 | 8.88456 | 83° | 38km/h | 19568m | -15.8m/s | -54.2°C | 0.4% | 62.7hPa | 2.6V | 02:56:55 | 02:22:31 | 00:00:00 | |
| SFWM-10 | 2026-09-04 18:52:20 | 49.76209 | 8.88456 | 84° | 38km/h | 19568m | -15.8m/s | -54.2°C | 1.1% | 62.7hPa | 2.5V | 02:56:00 | 00:00:00 | 00:00:00 | |
| DL1XH1-15 | 2026-09-04 18:52:19 | 49.76204 | 8.88368 | 88° | 29km/h | 19679m | -18.5m/s | -54.5°C | 3.9% | 61.6hPa | 2.5V | 02:56:28 | 02:22:24 | 00:00:00 | |
| DM0DOS-11 | 2026-09-04 18:52:18 | 49.76204 | 8.88356 | 90° | 31km/h | 19697m | -17.8m/s | -54.5°C | 4% | 61.5hPa | 2.5V | 02:56:29 | 02:22:23 | 00:00:00 | |
| DL1XH-west | 2026-09-04 18:52:14 | 49.76204 | 8.88368 | 89° | 29km/h | 19679m | -18.5m/s | -54.5°C | 0.4% | 61.6hPa | 2.5V | 02:56:55 | 02:22:24 | 00:00:00 | |
| BIOWL1-15 | 2026-09-04 18:52:12 | 49.76204 | 8.88344 | 91° | 33km/h | 19714m | -17.2m/s | -54.6°C | 0.4% | 61.3hPa | 2.6V | 02:56:55 | 02:22:22 | 00:00:00 | |
| HSKMA3-T | 2026-09-04 18:52:11 | 49.76204 | 8.88331 | 91° | 35km/h | 19732m | -16.7m/s | -54.7°C | 0.5% | 61.2hPa | 2.6V | 02:56:55 | 02:22:21 | 00:00:00 | |
| CB1BUN | 2026-09-04 18:52:10 | 49.76204 | 8.88330 | 92° | 35km/h | 19732m | -16.7m/s | -54.7°C | 1.1% | 61.2hPa | 2.5V | 02:56:00 | 00:00:00 | 00:00:00 | |
| DL1ZP-14 | 2026-09-04 18:52:09 | 49.76207 | 8.88302 | 100° | 40km/h | 19763m | -15.1m/s | -54.9°C | 1.1% | 60.8hPa | 2.5V | 00:00:00 | 00:00:00 | 00:00:00 | |
| DM0DOS-11 | 2026-09-04 18:52:08 | 49.76228 | 8.88206 | 114° | 44km/h | 19852m | -14.4m/s | -54.9°C | 4.1% | 60hPa | 2.5V | 02:56:39 | 02:22:13 | 00:00:00 | |
| DL1XH-west | 2026-09-04 18:52:03 | 49.76228 | 8.88206 | 115° | 44km/h | 19852m | -14.5m/s | -54.9°C | 0.5% | 60hPa | 2.5V | 02:56:55 | 02:22:13 | 00:00:00 | |
| BIOWL1-15 | 2026-09-04 18:52:01 | 49.76237 | 8.88176 | 115° | 40km/h | 19879m | -16.4m/s | -54.7°C | 0.4% | 59.7hPa | 2.6V | 02:56:55 | 02:22:11 | 00:00:00 | |
| HSKMA3-T | 2026-09-04 18:52:00 | 49.76241 | 8.88162 | 114° | 38km/h | 19896m | -16.7m/s | -54.6°C | 0.5% | 59.5hPa | 2.5V | 02:56:55 | 02:22:10 | 00:00:00 | |
| KANTATE | 2026-09-04 18:51:59 | 49.76241 | 8.88162 | 115° | 38km/h | 19896m | -16.7m/s | -54.6°C | 1.1% | 59.5hPa | 2.5V | 02:56:00 | 00:00:00 | 00:00:00 | |
| DM0DOS-11 | 2026-09-04 18:51:58 | 49.76275 | 8.88076 | 127° | 37km/h | 19999m | -13.6m/s | -54.5°C | 3.8% | 58.6hPa | 2.5V | 02:56:49 | 02:22:03 | 00:00:00 | |
| DL1XH-west | 2026-09-04 18:51:52 | 49.76281 | 8.88065 | 124° | 37km/h | 20014m | -14.7m/s | -54.6°C | 0.4% | 58.4hPa | 2.6V | 02:56:55 | 02:22:02 | 00:00:00 | |
| BIOWL1-15 | 2026-09-04 18:51:50 | 49.76291 | 8.88042 | 123° | 33km/h | 20043m | -14m/s | -54.8°C | 0.4% | 58.2hPa | 2.5V | 02:56:55 | 02:22:00 | 00:00:00 | |
| HSKMA3-T | 2026-09-04 18:51:49 | 49.76295 | 8.88031 | 123° | 33km/h | 20057m | -14.5m/s | -54.9°C | 0.4% | 58hPa | 2.5V | 02:56:55 | 02:21:59 | 00:00:00 | |
| DM3KS-11 | 2026-09-04 18:51:47 | 49.76309 | 8.88001 | 130° | 29km/h | 20101m | -14.7m/s | -55.0°C | 1.1% | 57.6hPa | 2.6V | 00:00:00 | 00:00:00 | 00:00:00 | |
| SONCRA | 2026-09-04 18:51:46 | 49.76309 | 8.88001 | 130° | 29km/h | 20101m | -14.7m/s | -55.0°C | 1.1% | 57.6hPa | 2.6V | 00:00:00 | 00:00:00 | 00:00:00 | |
| DL1XH-west | 2026-09-04 18:51:42 | 49.76327 | 8.87967 | 124° | 26km/h | 20155m | -14.3m/s | -55.2°C | 0.6% | 57.2hPa | 2.6V | 02:57:46 | 02:21:52 | 00:00:00 | |
| DL0LBS | 2026-09-04 18:51:41 | 49.76327 | 8.87967 | 125° | 26km/h | 20155m | -14.3m/s | -55.2°C | 1.2% | 57.2hPa | 2.5V | 02:57:00 | 00:00:00 | 00:00:00 | |
| DL3AQ-11 | 2026-09-04 18:51:40 | 49.76337 | 8.87940 | 111° | 27km/h | 20194m | -15.7m/s | -55.4°C | 1.1% | 56.8hPa | 2.5V | 00:00:00 | 00:00:00 | 00:00:00 | |
| DL1XH1-15 | 2026-09-04 18:51:39 | 49.76348 | 8.87887 | 112° | 27km/h | 20270m | -14.2m/s | -55.9°C | 4.5% | 56.1hPa | 2.5V | 02:57:08 | 02:21:44 | 00:00:00 | |
| HSKMA3-T | 2026-09-04 18:51:39 | 49.76337 | 8.87940 | 112° | 29km/h | 20194m | -15.7m/s | -55.4°C | 0.5% | 56.8hPa | 2.5V | 02:57:46 | 02:21:49 | 00:00:00 | |
| BIOWL1-15 | 2026-09-04 18:51:32 | 49.76361 | 8.87838 | 117° | 20km/h | 20359m | -16.7m/s | -55.4°C | 0.7% | 55.4hPa | 2.5V | 02:57:46 | 02:21:38 | 00:00:00 | |
| DL1XH-west | 2026-09-04 18:51:32 | 49.76352 | 8.87869 | 115° | 24km/h | 20299m | -15.8m/s | -55.8°C | 0.7% | 55.9hPa | 2.6V | 02:57:46 | 02:21:42 | 00:00:00 | |
| EDDB2-12 | 2026-09-04 18:51:31 | 49.76356 | 8.87853 | 110° | 20km/h | 20330m | -14.2m/s | -55.5°C | 1.2% | 55.6hPa | 2.5V | 00:00:00 | 00:00:00 | 00:00:00 | |
| NBG1-10 | 2026-09-04 18:51:30 | 49.76356 | 8.87853 | 111° | 18km/h | 20330m | -14.2m/s | -55.5°C | 4.4% | 55.6hPa | 2.5V | 00:00:00 | 02:21:40 | 00:00:00 | |
| DL1XH1-15 | 2026-09-04 18:51:29 | 49.76373 | 8.87809 | 127° | 24km/h | 20424m | -16m/s | -55.3°C | 4.3% | 54.8hPa | 2.5V | 02:57:18 | 02:21:34 | 00:00:00 | |
| HSKMA3-T | 2026-09-04 18:51:29 | 49.76358 | 8.87846 | 116° | 22km/h | 20344m | -14.3m/s | -55.5°C | 0.6% | 55.5hPa | 2.5V | 02:57:46 | 02:21:39 | 00:00:00 | |
| DL1XH-west | 2026-09-04 18:51:21 | 49.76381 | 8.87788 | 114° | 20km/h | 20470m | -14m/s | -55.4°C | 0.7% | 54.4hPa | 2.6V | 02:57:46 | 02:21:31 | 00:00:00 | |
| DM7RM-13 | 2026-09-04 18:51:20 | 49.76381 | 8.87788 | 115° | 20km/h | 20470m | -14.0m/s | -55.4°C | 1.2% | 54.4hPa | 2.5V | 02:57:00 | 00:00:00 | 00:00:00 | |
| DL1XH1-15 | 2026-09-04 18:51:19 | 49.76385 | 8.87741 | 88° | 20km/h | 20592m | -16.9m/s | -55.2°C | 4.4% | 53.4hPa | 2.5V | 02:57:28 | 02:21:24 | 00:00:00 | |
| HSKMA3-T | 2026-09-04 18:51:18 | 49.76384 | 8.87768 | 94° | 15km/h | 20519m | -19.4m/s | -55.2°C | 0.6% | 54.1hPa | 2.5V | 02:57:46 | 02:21:28 | 00:00:00 | |
| BIOWL1-15 | 2026-09-04 18:51:17 | 49.76385 | 8.87762 | 97° | 16km/h | 20538m | -18.6m/s | -55.1°C | 0.6% | 53.9hPa | 2.6V | 02:57:46 | 02:21:27 | 00:00:00 | |
| DL1XH-west | 2026-09-04 18:51:11 | 49.76386 | 8.87715 | 94° | 26km/h | 20636m | -11.4m/s | -54.8°C | 0.6% | 53hPa | 2.6V | 02:57:46 | 02:21:21 | 00:00:00 | |
| DG1MJG | 2026-09-04 18:51:11 | 49.76386 | 8.87715 | 95° | 26km/h | 20637m | -11.4m/s | -54.8°C | 1.2% | 53.0hPa | 2.5V | 02:57:00 | 00:00:00 | 00:00:00 | |
| AM1SDL-15 | 2026-09-04 18:51:09 | 49.76387 | 8.87697 | 98° | 22km/h | 20669m | -19.3m/s | -54.3°C | 4.0% | 52.7hPa | 2.5V | 00:00:00 | 02:21:19 | 00:00:00 | |
| DM0DOS-11 | 2026-09-04 18:51:08 | 49.76394 | 8.87659 | 117° | 11km/h | 20778m | -15.5m/s | -54°C | 3.8% | 51.9hPa | 2.5V | 02:57:39 | 02:21:13 | 00:00:00 | |
| HSKMA3-T | 2026-09-04 18:51:08 | 49.76388 | 8.87688 | 98° | 20km/h | 20689m | -20.1m/s | -54.4°C | 0.4% | 52.6hPa | 2.5V | 02:57:46 | 02:21:18 | 00:00:00 | |
| BIOWL1-15 | 2026-09-04 18:51:06 | 49.76391 | 8.87674 | 104° | 16km/h | 20726m | -17.9m/s | -54.2°C | 0.4% | 52.3hPa | 2.6V | 02:57:46 | 02:21:16 | 00:00:00 | |
| DF8AY | 2026-09-04 18:51:01 | 49.76396 | 8.87652 | 106° | 9km/h | 20811m | -17.5m/s | -53.8°C | 0.3% | 51.6hPa | 2.6V | 02:58:37 | 02:21:11 | 00:00:00 | |
| DL1XH-west | 2026-09-04 18:51:00 | 49.76396 | 8.87649 | 84° | 7km/h | 20829m | -17.2m/s | -53.8°C | 0.3% | 51.5hPa | 2.5V | 02:57:46 | 02:21:10 | 00:00:00 | |
| EDDB2-12 | 2026-09-04 18:51:00 | 49.76391 | 8.87640 | 23° | 5km/h | 20891m | -13.4m/s | -54.1°C | 1.1% | 51.0hPa | 2.5V | 00:00:00 | 00:00:00 | 00:00:00 | |
| DJ2KF-10 | 2026-09-04 18:50:59 | 49.76395 | 8.87646 | 67° | 7km/h | 20846m | -16.3m/s | -53.8°C | 3.8% | 51.3hPa | 2.5V | 00:00:00 | 02:21:09 | 00:00:00 | |
| DM0DOS-11 | 2026-09-04 18:50:58 | 49.76389 | 8.87639 | 49° | 2km/h | 20936m | -14.7m/s | -54.1°C | 3.9% | 50.6hPa | 2.5V | 02:57:49 | 02:21:03 | 00:00:00 | |
| HSKMA3-T | 2026-09-04 18:50:58 | 49.76394 | 8.87643 | 50° | 9km/h | 20861m | -15.2m/s | -53.9°C | 0.3% | 51.2hPa | 2.5V | 02:57:46 | 02:21:08 | 00:00:00 | |
| BIOWL1-15 | 2026-09-04 18:50:57 | 49.76390 | 8.87639 | 2° | 4km/h | 20905m | -15.2m/s | -54.2°C | 0.4% | 50.9hPa | 2.5V | 02:58:37 | 02:21:05 | 00:00:00 | |
| DL1XH-west | 2026-09-04 18:50:49 | 49.76386 | 8.87634 | 44° | 9km/h | 20990m | -12.7m/s | -54.5°C | 0.5% | 50.2hPa | 2.5V | 02:58:37 | 02:20:59 | 00:00:00 | |
| DM0DOS-11 | 2026-09-04 18:50:48 | 49.76369 | 8.87605 | 55° | 22km/h | 21092m | -18.3m/s | -54.8°C | 4.1% | 49.4hPa | 2.5V | 02:57:59 | 02:20:53 | 00:00:00 | |
| HSKMA3-T | 2026-09-04 18:50:47 | 49.76381 | 8.87628 | 39° | 15km/h | 21019m | -15m/s | -54.7°C | 0.4% | 49.9hPa | 2.6V | 02:58:37 | 02:20:57 | 00:00:00 | |
| BIOWL1-15 | 2026-09-04 18:50:47 | 49.76376 | 8.87618 | 49° | 20km/h | 21055m | -18m/s | -54.9°C | 0.5% | 49.7hPa | 2.5V | 02:58:37 | 02:20:55 | 00:00:00 | |
| DL3AQ-11 | 2026-09-04 18:50:47 | 49.76379 | 8.87623 | 49° | 16km/h | 21036m | -18.6m/s | -54.8°C | 1.1% | 49.9hPa | 2.5V | 00:00:00 | 00:00:00 | 00:00:00 | |
| DF1GD-15 | 2026-09-04 18:50:46 | 49.76381 | 8.87627 | 40° | 15km/h | 21020m | -15.0m/s | -54.7°C | 1.1% | 49.9hPa | 2.5V | 02:58:00 | 00:00:00 | 00:00:00 | |
| AM1SDL-15 | 2026-09-04 18:50:45 | 49.76375 | 8.87618 | 49° | 26km/h | 21055m | -18.0m/s | -54.8°C | 4.1% | 49.7hPa | 2.5V | 00:00:00 | 02:20:55 | 00:00:00 | |
| SONCRA | 2026-09-04 18:50:44 | 49.76372 | 8.87612 | 49° | 20km/h | 21073m | -18.9m/s | -54.9°C | 1.1% | 49.6hPa | 2.5V | 00:00:00 | 00:00:00 | 00:00:00 | |
| DL4BBY-15 | 2026-09-04 18:50:43 | 49.76369 | 8.87605 | 56° | 27km/h | 21092m | -18.3m/s | -55.7°C | 0% | 0hPa | 2.5V | 00:00:00 | 00:00:00 | 00:00:00 | |
| HARRO8 | 2026-09-04 18:50:42 | 49.76366 | 8.87598 | 60° | 22km/h | 21110m | -16.4m/s | -54.7°C | 1.1% | 49.2hPa | 2.5V | 00:00:00 | 00:00:00 | 00:00:00 | |
| DL0LBS | 2026-09-04 18:50:40 | 49.76364 | 8.87589 | 72° | 24km/h | 21127m | -18.1m/s | -54.8°C | 1.1% | 49.1hPa | 2.5V | 02:58:00 | 00:00:00 | 00:00:00 | |
| DL1XH1-15 | 2026-09-04 18:50:39 | 49.76350 | 8.87518 | 65° | 29km/h | 21243m | -17.1m/s | -54.8°C | 4.1% | 48.2hPa | 2.5V | 02:58:08 | 02:20:44 | 00:00:00 | |
| DL1XH-west | 2026-09-04 18:50:39 | 49.76360 | 8.87571 | 72° | 27km/h | 21160m | -15.1m/s | -55°C | 0.6% | 48.9hPa | 2.5V | 02:58:37 | 02:20:49 | 00:00:00 | |
| HSKMA3-T | 2026-09-04 18:50:36 | 49.76354 | 8.87539 | 71° | 29km/h | 21210m | -16.2m/s | -54.8°C | 0.5% | 48.5hPa | 2.6V | 02:58:37 | 02:20:46 | 00:00:00 | |
| BIOWL1-15 | 2026-09-04 18:50:35 | 49.76352 | 8.87529 | 72° | 27km/h | 21226m | -16.9m/s | -54.7°C | 0.5% | 48.3hPa | 2.5V | 02:58:37 | 02:20:45 | 00:00:00 | |
| DJ2DS-15 | 2026-09-04 18:50:34 | 49.76349 | 8.87518 | 66° | 35km/h | 21243m | -17.1m/s | -54.7°C | 4.1% | 48.2hPa | 2.5V | 02:58:00 | 02:20:44 | 00:00:00 | |
| AM1SDL-15 | 2026-09-04 18:50:33 | 49.76347 | 8.87508 | 66° | 35km/h | 21260m | -16.7m/s | -54.7°C | 4.1% | 48.0hPa | 2.5V | 00:00:00 | 02:20:43 | 00:00:00 | |
| BIOWL7-15 | 2026-09-04 18:50:32 | 49.76347 | 8.87508 | 66° | 29km/h | 21260m | -16.8m/s | -54.7°C | 1.1% | 48.1hPa | 2.5V | 00:00:00 | 00:00:00 | 00:00:00 | |
| DO3DL | 2026-09-04 18:50:31 | 49.76343 | 8.87497 | 65° | 29km/h | 21277m | -17.3m/s | -54.6°C | 1.0% | 47.9hPa | 2.5V | 02:58:00 | 00:00:00 | 00:00:00 | |
| HEMX73-11 | 2026-09-04 18:50:30 | 49.76340 | 8.87487 | 69° | 29km/h | 21294m | -16.4m/s | -54.6°C | 1.1% | 47.8hPa | 2.5V | 02:58:00 | 00:00:00 | 00:00:00 | |
| DL1XH1-15 | 2026-09-04 18:50:29 | 49.76328 | 8.87390 | 84° | 42km/h | 21413m | -14.4m/s | -54.9°C | 4.2% | 47hPa | 2.5V | 02:58:18 | 02:20:34 | 00:00:00 | |
| DL1XH-west | 2026-09-04 18:50:29 | 49.76336 | 8.87464 | 76° | 33km/h | 21329m | -18.7m/s | -54.8°C | 0.6% | 47.6hPa | 2.5V | 02:58:37 | 02:20:39 | 00:00:00 | |
| HSKMA3-T | 2026-09-04 18:50:26 | 49.76331 | 8.87422 | 82° | 40km/h | 21382m | -16.8m/s | -55°C | 0.6% | 47.2hPa | 2.6V | 02:58:37 | 02:20:36 | 00:00:00 | |
| BIOWL1-15 | 2026-09-04 18:50:24 | 49.76328 | 8.87390 | 85° | 42km/h | 21413m | -14.4m/s | -54.9°C | 0.6% | 47hPa | 2.5V | 02:58:37 | 02:20:34 | 00:00:00 | |
| DF8AY | 2026-09-04 18:50:23 | 49.76328 | 8.87373 | 86° | 42km/h | 21427m | -15.4m/s | -54.8°C | 0.5% | 46.9hPa | 2.6V | 02:58:37 | 02:20:33 | 00:00:00 | |
| DF2AP-13 | 2026-09-04 18:50:21 | 49.76327 | 8.87340 | 90° | 26km/h | 21460m | -15.7m/s | -54.2°C | 4.0% | 46.5hPa | 2.6V | 00:00:00 | 02:20:31 | 00:00:00 | |
| DL0LBS | 2026-09-04 18:50:20 | 49.76327 | 8.87340 | 91° | 42km/h | 21460m | -15.7m/s | -54.2°C | 1.1% | 46.6hPa | 2.6V | 02:58:00 | 00:00:00 | 00:00:00 | |
| DL1XH1-15 | 2026-09-04 18:50:19 | 49.76333 | 8.87249 | 102° | 31km/h | 21561m | -16.2m/s | -53.9°C | 3.8% | 45.9hPa | 2.6V | 02:58:28 | 02:20:24 | 00:00:00 | |
| DM0DOS-11 | 2026-09-04 18:50:18 | 49.76335 | 8.87237 | 104° | 31km/h | 21576m | -15.1m/s | -53.9°C | 3.8% | 45.8hPa | 2.5V | 02:58:29 | 02:20:23 | 00:00:00 | |
| DL1XH-west | 2026-09-04 18:50:18 | 49.76327 | 8.87297 | 93° | 33km/h | 21503m | -14.4m/s | -54.1°C | 0.4% | 46.3hPa | 2.6V | 02:58:37 | 02:20:28 | 00:00:00 | |
| HSKMA3-T | 2026-09-04 18:50:16 | 49.76329 | 8.87272 | 103° | 31km/h | 21532m | -14.6m/s | -54°C | 0.4% | 46.1hPa | 2.6V | 02:58:37 | 02:20:26 | 00:00:00 | |
| BIOWL1-15 | 2026-09-04 18:50:14 | 49.76333 | 8.87249 | 103° | 31km/h | 21561m | -16.2m/s | -53.9°C | 0.3% | 45.9hPa | 2.6V | 02:58:37 | 02:20:24 | 00:00:00 | |
| DF8AY | 2026-09-04 18:50:13 | 49.76335 | 8.87237 | 105° | 31km/h | 21576m | -15.1m/s | -53.9°C | 0.3% | 45.8hPa | 2.5V | 02:58:37 | 02:20:23 | 00:00:00 | |
| DL4BBY-15 | 2026-09-04 18:50:13 | 49.76335 | 8.87237 | 105° | 22km/h | 21577m | -15.0m/s | -54.8°C | 0% | 0hPa | 2.6V | 00:00:00 | 00:00:00 | 00:00:00 | |
| DL1KLB | 2026-09-04 18:50:12 | 49.76335 | 8.87237 | 106° | 31km/h | 21576m | -15.1m/s | -53.9°C | 1.0% | 45.8hPa | 2.6V | 02:58:00 | 00:00:00 | 00:00:00 | |
| HARRO8 | 2026-09-04 18:50:11 | 49.76338 | 8.87214 | 101° | 27km/h | 21604m | -12.9m/s | -54.0°C | 1.0% | 45.5hPa | 2.6V | 00:00:00 | 00:00:00 | 00:00:00 | |
| DL1XH1-15 | 2026-09-04 18:50:09 | 49.76342 | 8.87146 | 103° | 22km/h | 21684m | -11.1m/s | -54.2°C | 3.9% | 44.9hPa | 2.6V | 02:58:38 | 02:20:14 | 00:00:00 | |
| DL1XH-15 | 2026-09-04 18:50:08 | 49.76343 | 8.87138 | 95° | 22km/h | 21695m | -11.3m/s | -54.2°C | 3.9% | 44.9hPa | 2.5V | 02:58:39 | 02:20:13 | 00:00:00 | |
| DL1XH-west | 2026-09-04 18:50:08 | 49.76340 | 8.87183 | 92° | 27km/h | 21639m | -10.8m/s | -54.1°C | 0.4% | 45.3hPa | 2.5V | 02:58:37 | 02:20:18 | 00:00:00 | |
| HSKMA3-T | 2026-09-04 18:50:05 | 49.76341 | 8.87155 | 94° | 24km/h | 21673m | -10.6m/s | -54.2°C | 0.4% | 45hPa | 2.6V | 02:58:37 | 02:20:15 | 00:00:00 | |
| BIOWL1-15 | 2026-09-04 18:50:03 | 49.76343 | 8.87138 | 95° | 22km/h | 21695m | -11.3m/s | -54.2°C | 0.4% | 44.9hPa | 2.5V | 02:59:28 | 02:20:13 | 00:00:00 | |
| DF8AY | 2026-09-04 18:50:02 | 49.76344 | 8.87130 | 97° | 22km/h | 21705m | -9.5m/s | 0°C | 0% | 44.8hPa | 2.6V | 18:12:15 | 02:20:12 | 00:00:00 | |
| AA1-15 | 2026-09-04 18:50:00 | 49.76346 | 8.87113 | 99° | 20km/h | 21725m | -10.5m/s | -54.3°C | 0.3% | 44.6hPa | 2.6V | 03:02:01 | 02:20:10 | 00:00:00 | |
| DL1XH1-15 | 2026-09-04 18:49:59 | 49.76344 | 8.87070 | 65° | 16km/h | 21791m | -11m/s | -54.7°C | 4% | 44.2hPa | 2.6V | 02:58:48 | 02:20:04 | 00:00:00 | |
| DM0DOS-11 | 2026-09-04 18:49:58 | 49.76342 | 8.87064 | 70° | 15km/h | 21801m | -10.5m/s | -54.7°C | 4.1% | 44.1hPa | 2.5V | 02:58:49 | 02:20:03 | 00:00:00 | |
| DL1XH-west | 2026-09-04 18:49:57 | 49.76347 | 8.87089 | 85° | 20km/h | 21758m | -11.1m/s | -54.5°C | 0.4% | 44.4hPa | 2.5V | 02:59:28 | 02:20:07 | 00:00:00 | |
| HSKMA3-T | 2026-09-04 18:49:55 | 49.76345 | 8.87076 | 76° | 16km/h | 21780m | -11.2m/s | -54.6°C | 0.4% | 44.3hPa | 2.6V | 02:59:28 | 02:20:05 | 00:00:00 | |
| BIOWL1-15 | 2026-09-04 18:49:52 | 49.76341 | 8.87059 | 76° | 15km/h | 21812m | -10.6m/s | -54.8°C | 0.5% | 44hPa | 2.5V | 02:59:28 | 02:20:02 | 00:00:00 | |
| DF2AP-13 | 2026-09-04 18:49:51 | 49.76340 | 8.87053 | 79° | 20km/h | 21823m | -10.7m/s | -54.8°C | 4.1% | 43.9hPa | 2.5V | 02:58:00 | 02:20:01 | 00:00:00 | |
| DL1XH1-15 | 2026-09-04 18:49:49 | 49.76334 | 8.86997 | 76° | 24km/h | 21893m | -10.4m/s | -55°C | 4.3% | 43.5hPa | 2.7V | 02:58:58 | 02:19:54 | 00:00:00 | |
| NBG1-10 | 2026-09-04 18:49:49 | 49.76339 | 8.87040 | 80° | 20km/h | 21842m | -9.7m/s | -54.9°C | 4.2% | 43.8hPa | 2.6V | 00:00:00 | 02:19:59 | 00:00:00 | |
| DL1XH-15 | 2026-09-04 18:49:48 | 49.76332 | 8.86989 | 76° | 22km/h | 21904m | -10.6m/s | -54.8°C | 4.2% | 43.4hPa | 2.6V | 02:58:59 | 02:19:53 | 00:00:00 | |
| DL1XH-west | 2026-09-04 18:49:46 | 49.76336 | 8.87015 | 82° | 24km/h | 21872m | -10.7m/s | -55.2°C | 0.6% | 43.6hPa | 2.6V | 02:59:28 | 02:19:56 | 00:00:00 | |
| DD1CC8 | 2026-09-04 18:49:45 | 49.76335 | 8.87006 | 80° | 22km/h | 21883m | -10.8m/s | -55.1°C | 1.1% | 43.6hPa | 2.7V | 00:00:00 | 00:00:00 | 00:00:00 | |
| HSKMA3-T | 2026-09-04 18:49:44 | 49.76334 | 8.86997 | 77° | 24km/h | 21893m | -10.4m/s | -55°C | 0.6% | 43.5hPa | 2.7V | 02:59:28 | 02:19:54 | 00:00:00 | |
| BIOWL1-15 | 2026-09-04 18:49:41 | 49.76330 | 8.86971 | 83° | 24km/h | 21926m | -11.2m/s | -54.6°C | 0.6% | 43.3hPa | 2.5V | 02:59:28 | 02:19:51 | 00:00:00 | |
| DL3AQ-11 | 2026-09-04 18:49:40 | 49.76330 | 8.86953 | 102° | 24km/h | 21948m | -11.0m/s | -54.4°C | 1.1% | 43.1hPa | 2.6V | 00:00:00 | 00:00:00 | 00:00:00 | |
| DL1XH1-15 | 2026-09-04 18:49:39 | 49.76344 | 8.86906 | 120° | 22km/h | 22005m | -17.7m/s | -54.2°C | 4% | 42.8hPa | 2.6V | 02:59:08 | 02:19:44 | 00:00:00 | |
| DM0DOS-11 | 2026-09-04 18:49:38 | 49.76347 | 8.86899 | 122° | 20km/h | 22023m | -18.7m/s | -54.1°C | 3.9% | 42.6hPa | 2.6V | 02:59:09 | 02:19:43 | 00:00:00 | |
| DL1XH-west | 2026-09-04 18:49:36 | 49.76338 | 8.86923 | 115° | 27km/h | 21978m | -9m/s | -54.2°C | 0.5% | 42.9hPa | 2.5V | 02:59:28 | 02:19:46 | 00:00:00 | |
| SONDE2-11 | 2026-09-04 18:49:36 | 49.76341 | 8.86914 | 123° | 26km/h | 21989m | -13.7m/s | -54.2°C | 1.0% | 42.9hPa | 2.5V | 00:00:00 | 00:00:00 | 00:00:00 | |
| DL1XH-15 | 2026-09-04 18:49:35 | 49.76352 | 8.86882 | 118° | 13km/h | 22077m | -18.7m/s | -53.8°C | 3.8% | 42.3hPa | 2.5V | 02:59:12 | 02:19:40 | 00:00:00 | |
| HSKMA3-T | 2026-09-04 18:49:34 | 49.76344 | 8.86906 | 121° | 22km/h | 22005m | -17.7m/s | -54.2°C | 0.4% | 42.8hPa | 2.6V | 02:59:28 | 02:19:44 | 00:00:00 | |
| BIOWL1-15 | 2026-09-04 18:49:31 | 49.76351 | 8.86886 | 116° | 15km/h | 22059m | -16.8m/s | -53.9°C | 0.3% | 42.4hPa | 2.5V | 02:59:28 | 02:19:41 | 00:00:00 | |
| DF7PN | 2026-09-04 18:49:30 | 49.76355 | 8.86873 | 106° | 9km/h | 22113m | -18.0m/s | -53.8°C | 1.0% | 42.1hPa | 2.5V | 00:00:00 | 00:00:00 | 00:00:00 | |
| DL1XH1-15 | 2026-09-04 18:49:29 | 49.76359 | 8.86853 | 113° | 16km/h | 22185m | -17.1m/s | -53.9°C | 3.9% | 41.6hPa | 2.5V | 02:59:18 | 02:19:34 | 00:00:00 | |
| DM0DOS-11 | 2026-09-04 18:49:28 | 49.76360 | 8.86846 | 108° | 16km/h | 22204m | -20.6m/s | -54°C | 3.9% | 41.5hPa | 2.5V | 02:59:19 | 02:19:33 | 00:00:00 | |
| DL1XH-west | 2026-09-04 18:49:26 | 49.76356 | 8.86864 | 109° | 15km/h | 22150m | -19.3m/s | -53.9°C | 0.4% | 41.8hPa | 2.6V | 02:59:28 | 02:19:36 | 00:00:00 | |
| HSKMA3-T | 2026-09-04 18:49:24 | 49.76359 | 8.86853 | 113° | 16km/h | 22186m | -17.1m/s | -53.9°C | 0.4% | 41.6hPa | 2.5V | 02:59:28 | 02:19:34 | 00:00:00 | |
| DK5PH-5 | 2026-09-04 18:49:24 | 49.76359 | 8.86853 | 114° | 20km/h | 22186m | -17.0m/s | -53.9°C | 3.9% | 41.5hPa | 2.5V | 02:59:00 | 02:19:34 | 00:00:00 | |
| DF1GD-15 | 2026-09-04 18:49:23 | 49.76359 | 8.86853 | 114° | 16km/h | 22186m | -17.1m/s | -53.9°C | 1.0% | 41.6hPa | 2.5V | 02:59:00 | 00:00:00 | 00:00:00 | |
| DL1XH-15 | 2026-09-04 18:49:22 | 49.76369 | 8.86802 | 100° | 22km/h | 22315m | -17.1m/s | -54.5°C | 4.2% | 40.8hPa | 2.5V | 02:59:25 | 02:19:27 | 00:00:00 | |
| DF8AY | 2026-09-04 18:49:20 | 49.76365 | 8.86826 | 108° | 20km/h | 22263m | -17.5m/s | 0°C | 0% | 0hPa | 2.6V | 18:12:15 | 02:19:30 | 00:00:00 | |
| DJ2KF-10 | 2026-09-04 18:49:19 | 49.76367 | 8.86818 | 106° | 18km/h | 22281m | -17.5m/s | -54.3°C | 4.2% | 40.9hPa | 2.5V | 00:00:00 | 02:19:29 | 00:00:00 | |
| DM0DOS-11 | 2026-09-04 18:49:18 | 49.76377 | 8.86767 | 121° | 27km/h | 22391m | -19.4m/s | -54.9°C | 4.5% | 40.3hPa | 2.5V | 02:59:29 | 02:19:23 | 00:00:00 | |
| DL1XH-west | 2026-09-04 18:49:16 | 49.76370 | 8.86793 | 101° | 24km/h | 22332m | -16.7m/s | -54.7°C | 0.6% | 40.6hPa | 2.6V | 02:59:28 | 02:19:26 | 00:00:00 | |
| HSKMA3-T | 2026-09-04 18:49:13 | 49.76377 | 8.86767 | 121° | 27km/h | 22391m | -19.4m/s | -54.9°C | 0.7% | 40.3hPa | 2.5V | 03:00:19 | 02:19:23 | 00:00:00 | |
| DL4BBY-15 | 2026-09-04 18:49:13 | 49.76377 | 8.86767 | 122° | 15km/h | 22391m | -19.3m/s | -55.8°C | 0% | 0hPa | 2.5V | 00:00:00 | 00:00:00 | 00:00:00 | |
| DL1XH-15 | 2026-09-04 18:49:12 | 49.76411 | 8.86720 | 150° | 27km/h | 22517m | -21.9m/s | -53.8°C | 4% | 39.5hPa | 2.5V | 02:59:35 | 02:19:17 | 00:00:00 | |
| BIOWL1-15 | 2026-09-04 18:49:10 | 49.76392 | 8.86740 | 138° | 31km/h | 22452m | -21.6m/s | -54.3°C | 0.5% | 40hPa | 2.6V | 03:00:19 | 02:19:20 | 00:00:00 | |
| DL1XH1-15 | 2026-09-04 18:49:09 | 49.76428 | 8.86706 | 154° | 22km/h | 22581m | -19.8m/s | -53.4°C | 3.9% | 39.1hPa | 2.7V | 02:59:38 | 02:19:14 | 00:00:00 | |
| DM0DOS-11 | 2026-09-04 18:49:08 | 49.76433 | 8.86703 | 158° | 20km/h | 22600m | -18.6m/s | -53.3°C | 3.8% | 39hPa | 2.6V | 02:59:39 | 02:19:13 | 00:00:00 | |
| BIOWL1-15 | 2026-09-04 18:49:06 | 49.76449 | 8.86700 | 199° | 11km/h | 22671m | -16.3m/s | -52.7°C | 0.2% | 38.5hPa | 2.6V | 03:00:19 | 02:19:09 | 00:00:00 | |
| DL1XH-west | 2026-09-04 18:49:05 | 49.76423 | 8.86710 | 153° | 24km/h | 22560m | -21.4m/s | -53.6°C | 0.4% | 39.3hPa | 2.6V | 03:00:19 | 02:19:15 | 00:00:00 | |
| HSKMA3-T | 2026-09-04 18:49:03 | 49.76433 | 8.86703 | 159° | 22km/h | 22600m | -18.6m/s | -53.3°C | 0.3% | 39hPa | 2.6V | 03:00:19 | 02:19:13 | 00:00:00 | |
| DL1XH1-15 | 2026-09-04 18:48:59 | 49.76450 | 8.86713 | 320° | 5km/h | 22756m | -16.1m/s | -52.9°C | 3.7% | 38hPa | 2.5V | 02:59:48 | 02:19:04 | 00:00:00 | |
| DM0DOS-11 | 2026-09-04 18:48:58 | 49.76449 | 8.86714 | 350° | 4km/h | 22773m | -16.5m/s | -53°C | 3.7% | 37.9hPa | 2.6V | 02:59:49 | 02:19:03 | 00:00:00 | |
| DL1XH-west | 2026-09-04 18:48:54 | 49.76450 | 8.86713 | 320° | 5km/h | 22756m | -16.2m/s | -52.9°C | 0.3% | 38hPa | 2.5V | 03:00:19 | 02:19:04 | 00:00:00 | |
| HSKMA3-T | 2026-09-04 18:48:53 | 49.76449 | 8.86714 | 350° | 4km/h | 22773m | -16.5m/s | -53°C | 0.3% | 37.9hPa | 2.6V | 03:00:19 | 02:19:03 | 00:00:00 | |
| AM1SDL-15 | 2026-09-04 18:48:52 | 49.76448 | 8.86713 | 47° | 5km/h | 22789m | -15.6m/s | -53.0°C | 3.7% | 37.8hPa | 2.7V | 02:59:00 | 02:19:02 | 00:00:00 | |
| DF2AP-13 | 2026-09-04 18:48:51 | 49.76448 | 8.86712 | 78° | 9km/h | 22805m | -15.4m/s | -53.1°C | 3.7% | 37.7hPa | 2.5V | 00:00:00 | 02:19:01 | 00:00:00 | |
| DL1KLB | 2026-09-04 18:48:50 | 49.76448 | 8.86712 | 79° | 5km/h | 22805m | -15.4m/s | -53.1°C | 0.9% | 37.8hPa | 2.5V | 03:00:00 | 00:00:00 | 00:00:00 | |
| DL1XH1-15 | 2026-09-04 18:48:49 | 49.76446 | 8.86696 | 42° | 7km/h | 22929m | -17.6m/s | -53.3°C | 3.7% | 37hPa | 2.5V | 02:59:58 | 02:18:54 | 00:00:00 | |
| DM0DOS-11 | 2026-09-04 18:48:47 | 49.76444 | 8.86690 | 63° | 11km/h | 22960m | -12.5m/s | -53.3°C | 3.8% | 36.8hPa | 2.7V | 03:00:00 | 02:18:52 | 00:00:00 | |
| BIOWL1-15 | 2026-09-04 18:48:47 | 49.76448 | 8.86702 | 88° | 5km/h | 22872m | -19.3m/s | -53°C | 0.2% | 37.4hPa | 2.7V | 03:00:19 | 02:18:57 | 00:00:00 | |
| DL3AQ-11 | 2026-09-04 18:48:47 | 49.76448 | 8.86699 | 75° | 4km/h | 22892m | -19.6m/s | -53.1°C | 0.9% | 37.3hPa | 2.6V | 00:00:00 | 00:00:00 | 00:00:00 | |
| DL1XH-west | 2026-09-04 18:48:43 | 49.76445 | 8.86693 | 56° | 9km/h | 22946m | -16.2m/s | -53.4°C | 0.3% | 37hPa | 2.6V | 03:00:19 | 02:18:53 | 00:00:00 | |
| HSKMA3-T | 2026-09-04 18:48:42 | 49.76444 | 8.86690 | 63° | 11km/h | 22961m | -12.5m/s | -53.3°C | 0.3% | 36.8hPa | 2.7V | 03:00:19 | 02:18:52 | 00:00:00 | |
| BIOWL9-15 | 2026-09-04 18:48:41 | 49.76443 | 8.86686 | 72° | 11km/h | 22974m | -14.2m/s | -53.3°C | 1.0% | 36.8hPa | 2.5V | 00:00:00 | 00:00:00 | 00:00:00 | |
| DJ2DS-15 | 2026-09-04 18:48:40 | 49.76442 | 8.86675 | 89° | 13km/h | 23008m | -16.5m/s | -53.2°C | 0.9% | 36.6hPa | 2.5V | 00:00:00 | 00:00:00 | 00:00:00 | |
| DL1XH1-15 | 2026-09-04 18:48:39 | 49.76442 | 8.86655 | 50° | 9km/h | 23079m | -12.2m/s | -53.2°C | 3.7% | 36.1hPa | 2.5V | 03:00:08 | 02:18:44 | 00:00:00 | |
| HARRO8 | 2026-09-04 18:48:38 | 49.76442 | 8.86670 | 88° | 13km/h | 23024m | -15.9m/s | -53.1°C | 0.9% | 36.5hPa | 2.6V | 00:00:00 | 00:00:00 | 00:00:00 | |
| DM0DOS-11 | 2026-09-04 18:48:37 | 49.76438 | 8.86651 | 33° | 9km/h | 23103m | -11.9m/s | -53.2°C | 3.8% | 36hPa | 2.6V | 03:00:10 | 02:18:42 | 00:00:00 | |
| BIOWL1-15 | 2026-09-04 18:48:36 | 49.76442 | 8.86661 | 93° | 7km/h | 23055m | -13.7m/s | -53.1°C | 0.3% | 36.3hPa | 2.6V | 03:00:19 | 02:18:46 | 00:00:00 | |
| DL1XH-west | 2026-09-04 18:48:33 | 49.76440 | 8.86653 | 34° | 9km/h | 23091m | -12.2m/s | -53.2°C | 0.3% | 36.1hPa | 2.6V | 03:00:19 | 02:18:43 | 00:00:00 | |
| HSKMA3-T | 2026-09-04 18:48:32 | 49.76438 | 8.86651 | 34° | 9km/h | 23103m | -11.9m/s | -53.3°C | 0.3% | 36hPa | 2.6V | 03:00:19 | 02:18:42 | 00:00:00 | |
| SFWM-10 | 2026-09-04 18:48:31 | 49.76438 | 8.86651 | 34° | 9km/h | 23104m | -11.9m/s | -53.3°C | 1.0% | 36.0hPa | 2.6V | 03:00:00 | 00:00:00 | 00:00:00 | |
| DL1KLB | 2026-09-04 18:48:30 | 49.76436 | 8.86649 | 39° | 9km/h | 23117m | -14.0m/s | -53.3°C | 0.9% | 36.0hPa | 2.6V | 03:00:00 | 00:00:00 | 00:00:00 | |
| DL1XH1-15 | 2026-09-04 18:48:29 | 49.76437 | 8.86630 | 126° | 7km/h | 23237m | -19m/s | -53.6°C | 3.9% | 35.3hPa | 2.6V | 03:00:18 | 02:18:34 | 00:00:00 | |
| DF7PN | 2026-09-04 18:48:28 | 49.76433 | 8.86641 | 92° | 7km/h | 23164m | -15.5m/s | -53.3°C | 0.9% | 35.7hPa | 2.6V | 00:00:00 | 00:00:00 | 00:00:00 | |
| DM0DOS-11 | 2026-09-04 18:48:27 | 49.76439 | 8.86625 | 126° | 9km/h | 23271m | -16m/s | -53.6°C | 4% | 35.1hPa | 2.6V | 03:00:20 | 02:18:32 | 00:00:00 | |
| BIOWL1-15 | 2026-09-04 18:48:27 | 49.76435 | 8.86633 | 125° | 7km/h | 23217m | -20.3m/s | -53.6°C | 0.4% | 35.4hPa | 2.5V | 03:00:19 | 02:18:35 | 00:00:00 | |
| DB0UT-7 | 2026-09-04 18:48:25 | 49.76435 | 8.86633 | 125° | 15km/h | 23218m | -20.2m/s | -53.5°C | 3.9% | 35.4hPa | 2.6V | 00:00:00 | 00:00:00 | 00:00:00 | |
| DK5PH-5 | 2026-09-04 18:48:24 | 49.76436 | 8.86630 | 127° | 16km/h | 23237m | -19.0m/s | -53.5°C | 3.9% | 35.3hPa | 2.6V | 00:00:00 | 02:18:34 | 00:00:00 | |
| DL1XH-15 | 2026-09-04 18:48:22 | 49.76453 | 8.86608 | 152° | 18km/h | 23353m | -18m/s | -53.7°C | 4% | 34.7hPa | 2.6V | 03:00:25 | 02:18:27 | 00:00:00 | |
| DL1XH-west | 2026-09-04 18:48:22 | 49.76439 | 8.86625 | 127° | 9km/h | 23271m | -16m/s | -53.6°C | 0.5% | 35.1hPa | 2.6V | 03:01:10 | 02:18:32 | 00:00:00 | |
| DF2AP-13 | 2026-09-04 18:48:21 | 49.76440 | 8.86622 | 129° | 16km/h | 23287m | -16.0m/s | -53.6°C | 4.0% | 35.0hPa | 2.5V | 00:00:00 | 02:18:31 | 00:00:00 | |
| DL3AQ-11 | 2026-09-04 18:48:20 | 49.76446 | 8.86615 | 143° | 15km/h | 23320m | -17.1m/s | -53.7°C | 1.0% | 34.8hPa | 2.6V | 00:00:00 | 00:00:00 | 00:00:00 | |
| DL1XH1-15 | 2026-09-04 18:48:19 | 49.76464 | 8.86599 | 145° | 15km/h | 23410m | -19.4m/s | -53.6°C | 4% | 34.4hPa | 2.6V | 03:00:28 | 02:18:24 | 00:00:00 | |
| AM1SDL-15 | 2026-09-04 18:48:18 | 49.76449 | 8.86611 | 147° | 16km/h | 23337m | -15.9m/s | -53.7°C | 4.0% | 34.7hPa | 2.5V | 00:00:00 | 02:18:28 | 00:00:00 | |
| DO3MHA-11 | 2026-09-04 18:48:17 | 49.76453 | 8.86608 | 153° | 13km/h | 23354m | -18.0m/s | -53.6°C | 4.0% | 34.6hPa | 2.5V | 00:00:00 | 02:18:27 | 00:00:00 | |
| DM0DOS-11 | 2026-09-04 18:48:16 | 49.76469 | 8.86589 | 87° | 9km/h | 23466m | -18m/s | -53.5°C | 4% | 34.1hPa | 2.5V | 03:00:31 | 02:18:21 | 00:00:00 | |
| BIOWL1-15 | 2026-09-04 18:48:14 | 49.76464 | 8.86599 | 146° | 15km/h | 23410m | -19.4m/s | -53.7°C | 0.4% | 34.4hPa | 2.6V | 03:01:10 | 02:18:24 | 00:00:00 | |
| DJ2DS-15 | 2026-09-04 18:48:14 | 49.76464 | 8.86599 | 146° | 16km/h | 23411m | -19.3m/s | -53.6°C | 4.0% | 34.3hPa | 2.6V | 03:00:00 | 02:18:24 | 00:00:00 | |
| DL4BBY-15 | 2026-09-04 18:48:13 | 49.76467 | 8.86595 | 134° | 22km/h | 23430m | -18.3m/s | -54.6°C | 0% | 0hPa | 2.6V | 00:00:00 | 00:00:00 | 00:00:00 | |
| DL1XH-15 | 2026-09-04 18:48:12 | 49.76463 | 8.86576 | 49° | 11km/h | 23538m | -16.2m/s | -53.4°C | 4% | 33.7hPa | 2.6V | 03:00:35 | 02:18:17 | 00:00:00 | |
| DL1XH-west | 2026-09-04 18:48:12 | 49.76468 | 8.86592 | 114° | 9km/h | 23448m | -17.8m/s | -53.6°C | 0.5% | 34.2hPa | 2.5V | 03:01:10 | 02:18:22 | 00:00:00 | |
| HSKMA3-T | 2026-09-04 18:48:12 | 49.76469 | 8.86589 | 87° | 9km/h | 23466m | -18m/s | -53.6°C | 0.4% | 34.1hPa | 2.5V | 03:01:10 | 02:18:21 | 00:00:00 | |
| SFWM-10 | 2026-09-04 18:48:11 | 49.76468 | 8.86592 | 115° | 9km/h | 23448m | -17.8m/s | -53.6°C | 1.0% | 34.2hPa | 2.7V | 03:01:00 | 00:00:00 | 00:00:00 | |
| NBG1-10 | 2026-09-04 18:48:10 | 49.76468 | 8.86585 | 66° | 20km/h | 23484m | -18.6m/s | -53.5°C | 4.0% | 33.9hPa | 2.7V | 00:00:00 | 02:18:20 | 00:00:00 | |
| DM3KS-11 | 2026-09-04 18:48:09 | 49.76467 | 8.86582 | 51° | 9km/h | 23503m | -18.4m/s | -53.5°C | 1.0% | 33.9hPa | 2.7V | 00:00:00 | 00:00:00 | 00:00:00 | |
| DB0UT-9 | 2026-09-04 18:48:08 | 49.76467 | 8.86582 | 53° | 11km/h | 23503m | -18.4m/s | -53.5°C | 1.0% | 33.9hPa | 2.7V | 00:00:00 | 00:00:00 | 00:00:00 | |
| DO3MHA-11 | 2026-09-04 18:48:07 | 49.76463 | 8.86575 | 50° | 16km/h | 23538m | -16.1m/s | -53.3°C | 4.0% | 33.6hPa | 2.7V | 03:00:00 | 02:18:17 | 00:00:00 | |
| DM0DOS-11 | 2026-09-04 18:48:06 | 49.76466 | 8.86544 | 116° | 22km/h | 23656m | -21.6m/s | -52.6°C | 3.7% | 33.1hPa | 2.7V | 03:00:41 | 02:18:11 | 00:00:00 | |
| BIOWL1-15 | 2026-09-04 18:48:05 | 49.76463 | 8.86558 | 109° | 16km/h | 23615m | -20.5m/s | -52.9°C | 0.4% | 33.3hPa | 2.6V | 03:01:10 | 02:18:13 | 00:00:00 | |
| AA1-15 | 2026-09-04 18:48:04 | 49.76462 | 8.86563 | 102° | 13km/h | 23595m | -19.9m/s | -53°C | 0.4% | 33.4hPa | 2.5V | 03:02:01 | 02:18:14 | 00:00:00 | |
| DL1XH-west | 2026-09-04 18:48:01 | 49.76466 | 8.86544 | 116° | 22km/h | 23656m | -21.6m/s | -52.6°C | 0.3% | 33.1hPa | 2.7V | 03:01:10 | 02:18:11 | 00:00:00 | |
| DL1ZP-14 | 2026-09-04 18:48:01 | 49.76469 | 8.86537 | 120° | 22km/h | 23678m | -22.6m/s | -52.4°C | 0.9% | 33.0hPa | 2.6V | 00:00:00 | 00:00:00 | 00:00:00 | |
| DO3MHA-11 | 2026-09-04 18:47:57 | 49.76479 | 8.86517 | 141° | 31km/h | 23744m | -20.9m/s | -52.4°C | 3.8% | 32.6hPa | 2.5V | 00:00:00 | 02:18:07 | 00:00:00 | |
| DL0LBS | 2026-09-04 18:47:56 | 49.76479 | 8.86517 | 141° | 22km/h | 23744m | -20.9m/s | -52.5°C | 1.0% | 32.6hPa | 2.5V | 03:01:00 | 00:00:00 | 00:00:00 | |
| DM0DOS-11 | 2026-09-04 18:47:55 | 49.76528 | 8.86503 | 179° | 37km/h | 23875m | -20.2m/s | -52.1°C | 3.8% | 32hPa | 2.5V | 03:00:52 | 02:18:00 | 00:00:00 | |
| BIOWL1-15 | 2026-09-04 18:47:53 | 49.76503 | 8.86504 | 175° | 29km/h | 23820m | -17.5m/s | -52.4°C | 0.4% | 32.2hPa | 2.6V | 03:01:10 | 02:18:03 | 00:00:00 | |
| HSKMA3-T | 2026-09-04 18:47:51 | 49.76519 | 8.86503 | 179° | 35km/h | 23855m | -20.2m/s | -52.3°C | 0.4% | 32.1hPa | 2.5V | 03:01:10 | 02:18:01 | 00:00:00 | |
| DL1XH-west | 2026-09-04 18:47:50 | 49.76528 | 8.86503 | 179° | 37km/h | 23875m | -20.2m/s | -52.1°C | 0.3% | 32hPa | 2.5V | 03:01:10 | 02:18:00 | 00:00:00 | |
| AA1-15 | 2026-09-04 18:47:49 | 49.76538 | 8.86503 | 180° | 38km/h | 23895m | -19.8m/s | -51.8°C | 0.3% | 31.9hPa | 2.6V | 03:02:01 | 02:17:59 | 00:00:00 | |
| AM1SDL-15 | 2026-09-04 18:47:48 | 49.76547 | 8.86503 | 183° | 18km/h | 23916m | -20.1m/s | -51.5°C | 3.6% | 31.7hPa | 2.7V | 00:00:00 | 02:17:58 | 00:00:00 | |
| DO3MHA-11 | 2026-09-04 18:47:47 | 49.76556 | 8.86504 | 187° | 18km/h | 23935m | -18.3m/s | -51.5°C | 3.6% | 31.6hPa | 2.7V | 00:00:00 | 02:17:57 | 00:00:00 | |
| DM0DOS-11 | 2026-09-04 18:47:45 | 49.76587 | 8.86524 | 192° | 7km/h | 24077m | -20.7m/s | -51.5°C | 3.6% | 30.9hPa | 2.7V | 03:01:02 | 02:17:50 | 00:00:00 | |
| DF8AY | 2026-09-04 18:47:42 | 49.76583 | 8.86521 | 216° | 13km/h | 24034m | -21.8m/s | 0°C | 0% | 0hPa | 2.5V | 18:12:15 | 02:17:52 | 00:00:00 | |
| DL1XH-west | 2026-09-04 18:47:39 | 49.76589 | 8.86525 | 168° | 9km/h | 24097m | -19.6m/s | -51.4°C | 0.2% | 30.9hPa | 2.6V | 03:01:10 | 02:17:49 | 00:00:00 | |
| AA1-15 | 2026-09-04 18:47:36 | 49.76598 | 8.86520 | 171° | 18km/h | 24157m | -19.9m/s | -51.2°C | 0.2% | 30.6hPa | 2.5V | 03:02:01 | 02:17:46 | 00:00:00 | |
| HARRO8 | 2026-09-04 18:47:36 | 49.76598 | 8.86520 | 171° | 16km/h | 24157m | -19.9m/s | -51.2°C | 0.9% | 30.6hPa | 2.5V | 00:00:00 | 00:00:00 | 00:00:00 | |
| DM0DOS-11 | 2026-09-04 18:47:35 | 49.76629 | 8.86539 | 220° | 22km/h | 24276m | -20.5m/s | -50.8°C | 3.5% | 30hPa | 2.5V | 03:01:12 | 02:17:40 | 00:00:00 | |
| DJ2DS-15 | 2026-09-04 18:47:34 | 49.76608 | 8.86521 | 195° | 20km/h | 24197m | -20.7m/s | -51.0°C | 3.5% | 30.4hPa | 2.6V | 00:00:00 | 02:17:44 | 00:00:00 | |
| DM7RM-13 | 2026-09-04 18:47:33 | 49.76608 | 8.86521 | 195° | 22km/h | 24197m | -20.7m/s | -51.0°C | 0.9% | 30.4hPa | 2.6V | 03:01:00 | 00:00:00 | 00:00:00 | |
| DL1XH-15 | 2026-09-04 18:47:32 | 49.76640 | 8.86554 | 219° | 18km/h | 24336m | -21.1m/s | -50.6°C | 3.3% | 29.8hPa | 2.6V | 03:01:15 | 02:17:37 | 00:00:00 | |
| BIOWL1-15 | 2026-09-04 18:47:32 | 49.76619 | 8.86528 | 211° | 24km/h | 24236m | -18.9m/s | -50.9°C | 0.2% | 30.2hPa | 2.6V | 03:01:10 | 02:17:42 | 00:00:00 | |
| HSKMA3-T | 2026-09-04 18:47:29 | 49.76633 | 8.86544 | 222° | 20km/h | 24297m | -19.8m/s | -50.9°C | 0.1% | 29.9hPa | 2.5V | 03:02:01 | 02:17:39 | 00:00:00 | |
| DL1XH-west | 2026-09-04 18:47:28 | 49.76637 | 8.86549 | 221° | 20km/h | 24316m | -18.5m/s | -50.7°C | 0.1% | 29.9hPa | 2.6V | 03:02:01 | 02:17:38 | 00:00:00 | |
| DJ2DS-15 | 2026-09-04 18:47:28 | 49.76640 | 8.86554 | 219° | 18km/h | 24336m | -21.1m/s | -50.6°C | 0.8% | 29.8hPa | 2.6V | 00:00:00 | 00:00:00 | 00:00:00 | |
| DL3AQ-11 | 2026-09-04 18:47:27 | 49.76644 | 8.86559 | 217° | 16km/h | 24358m | -23.2m/s | -50.5°C | 0.8% | 29.7hPa | 2.6V | 00:00:00 | 00:00:00 | 00:00:00 | |
| DF7PN | 2026-09-04 18:47:26 | 49.76644 | 8.86559 | 217° | 16km/h | 24358m | -23.2m/s | -50.5°C | 0.8% | 29.7hPa | 2.6V | 00:00:00 | 00:00:00 | 00:00:00 | |
| DM0DOS-11 | 2026-09-04 18:47:25 | 49.76661 | 8.86595 | 251° | 22km/h | 24486m | -19.7m/s | -50.5°C | 3.3% | 29.1hPa | 2.6V | 03:01:22 | 02:17:30 | 00:00:00 | |
| BIOWL1-15 | 2026-09-04 18:47:24 | 49.76657 | 8.86580 | 242° | 20km/h | 24445m | -21.6m/s | -50.4°C | 0% | 29.3hPa | 2.5V | 03:02:01 | 02:17:32 | 00:00:00 | |
| HEMX73-11 | 2026-09-04 18:47:23 | 49.76651 | 8.86568 | 225° | 18km/h | 24402m | -21.9m/s | -50.3°C | 0.8% | 29.5hPa | 2.6V | 03:02:00 | 00:00:00 | 00:00:00 | |
| DL1XH-15 | 2026-09-04 18:47:22 | 49.76664 | 8.86618 | 264° | 18km/h | 24546m | -22.3m/s | -50.5°C | 3.3% | 28.8hPa | 2.6V | 03:01:25 | 02:17:27 | 00:00:00 | |
| AA1-15 | 2026-09-04 18:47:20 | 49.76661 | 8.86595 | 252° | 22km/h | 24486m | -19.7m/s | -50.5°C | 0% | 29.1hPa | 2.6V | 03:02:01 | 02:17:30 | 00:00:00 | |
| HSKMA3-T | 2026-09-04 18:47:19 | 49.76663 | 8.86603 | 256° | 22km/h | 24505m | -18.1m/s | -50.5°C | 0% | 29hPa | 2.7V | 03:02:01 | 02:17:29 | 00:00:00 | |
| DL1XH1-15 | 2026-09-04 18:47:19 | 49.76663 | 8.86639 | 285° | 18km/h | 24612m | -21.2m/s | -50.4°C | 3.2% | 28.5hPa | 2.6V | 03:01:28 | 02:17:24 | 00:00:00 | |
| BUE01 | 2026-09-04 18:47:18 | 49.76664 | 8.86611 | 260° | 18km/h | 24525m | -20.9m/s | 0°C | -1.0% | -1.0hPa | 2.6V | 00:00:00 | 00:00:00 | 00:00:00 | |
| DL1XH-west | 2026-09-04 18:47:18 | 49.76664 | 8.86611 | 260° | 20km/h | 24525m | -20.9m/s | -50.5°C | 0% | 28.9hPa | 2.6V | 03:02:01 | 02:17:28 | 00:00:00 | |
| DO3MHA-11 | 2026-09-04 18:47:17 | 49.76664 | 8.86618 | 265° | 18km/h | 24546m | -22.3m/s | -50.4°C | 3.3% | 28.8hPa | 2.6V | 00:00:00 | 02:17:27 | 00:00:00 | |
| DM0DOS-11 | 2026-09-04 18:47:15 | 49.76655 | 8.86666 | 299° | 18km/h | 24692m | -19.3m/s | -50.6°C | 3.3% | 28.1hPa | 2.6V | 03:01:32 | 02:17:20 | 00:00:00 | |
| DJ2DS-15 | 2026-09-04 18:47:14 | 49.76663 | 8.86639 | 286° | 15km/h | 24613m | -21.2m/s | -50.3°C | 3.2% | 28.5hPa | 2.6V | 00:00:00 | 02:17:24 | 00:00:00 | |
| DL4BBY-15 | 2026-09-04 18:47:13 | 49.76662 | 8.86646 | 292° | 11km/h | 24634m | -20.7m/s | -51.4°C | 0% | 0hPa | 2.6V | 00:00:00 | 00:00:00 | 00:00:00 | |
| DL1XH-15 | 2026-09-04 18:47:12 | 49.76649 | 8.86680 | 308° | 11km/h | 24752m | -21.1m/s | -50.8°C | 3.4% | 27.9hPa | 2.6V | 03:01:35 | 02:17:17 | 00:00:00 | |
| BIOWL1-15 | 2026-09-04 18:47:11 | 49.76658 | 8.86660 | 299° | 20km/h | 24674m | -18.8m/s | -50.5°C | 0% | 28.2hPa | 2.7V | 03:02:01 | 02:17:21 | 00:00:00 | |
| DB0ND-19 | 2026-09-04 18:47:11 | 49.76658 | 8.86660 | 298° | 18km/h | 24674m | -18.8m/s | -50.5°C | 0.8% | 28.2hPa | 2.7V | 00:00:00 | 00:00:00 | 00:00:00 | |
| DD1CC8 | 2026-09-04 18:47:10 | 49.76655 | 8.86666 | 299° | 16km/h | 24692m | -19.3m/s | -50.6°C | 0.8% | 28.1hPa | 2.7V | 00:00:00 | 00:00:00 | 00:00:00 | |
| DL1XH1-15 | 2026-09-04 18:47:09 | 49.76642 | 8.86687 | 354° | 13km/h | 24812m | -21m/s | -50.7°C | 3.4% | 27.6hPa | 2.7V | 03:01:38 | 02:17:14 | 00:00:00 | |
| AA1-15 | 2026-09-04 18:47:09 | 49.76653 | 8.86672 | 302° | 16km/h | 24711m | -19.2m/s | -50.7°C | 0.1% | 28hPa | 2.5V | 03:02:01 | 02:17:19 | 00:00:00 | |
| HSKMA3-T | 2026-09-04 18:47:08 | 49.76651 | 8.86676 | 304° | 13km/h | 24731m | -21.1m/s | -50.8°C | 0.1% | 28hPa | 2.5V | 03:02:01 | 02:17:18 | 00:00:00 | |
| DL1XH-west | 2026-09-04 18:47:07 | 49.76649 | 8.86680 | 309° | 11km/h | 24752m | -21.1m/s | -50.8°C | 0.1% | 27.9hPa | 2.6V | 03:02:01 | 02:17:17 | 00:00:00 | |
| DO3MHA-11 | 2026-09-04 18:47:07 | 49.76649 | 8.86680 | 309° | 13km/h | 24753m | -21.0m/s | -50.7°C | 3.4% | 27.9hPa | 2.6V | 00:00:00 | 02:17:17 | 00:00:00 | |
| AM1SDL-15 | 2026-09-04 18:47:06 | 49.76647 | 8.86683 | 320° | 11km/h | 24772m | -18.7m/s | -50.7°C | 3.4% | 27.7hPa | 2.6V | 00:00:00 | 02:17:16 | 00:00:00 | |
| DM0DOS-11 | 2026-09-04 18:47:05 | 49.76628 | 8.86684 | 10° | 13km/h | 24895m | -20.9m/s | -50.9°C | 3.5% | 27.3hPa | 2.6V | 03:01:42 | 02:17:10 | 00:00:00 | |
| HARRO8 | 2026-09-04 18:47:05 | 49.76645 | 8.86685 | 338° | 11km/h | 24792m | -20.6m/s | -50.7°C | 0.8% | 27.7hPa | 2.6V | 00:00:00 | 00:00:00 | 00:00:00 | |
| NBG1-10 | 2026-09-04 18:47:04 | 49.76642 | 8.86686 | 355° | 13km/h | 24813m | -20.9m/s | -50.6°C | 3.4% | 27.6hPa | 2.6V | 03:01:00 | 02:17:14 | 00:00:00 | |
| DK5PH-5 | 2026-09-04 18:47:03 | 49.76638 | 8.86686 | 5° | 13km/h | 24833m | -21.2m/s | -50.6°C | 3.3% | 27.5hPa | 2.6V | 03:01:00 | 02:17:13 | 00:00:00 | |
| DL1XH-15 | 2026-09-04 18:47:02 | 49.76619 | 8.86681 | 16° | 9km/h | 24958m | -21.4m/s | -50.8°C | 3.4% | 27hPa | 2.5V | 03:01:45 | 02:17:07 | 00:00:00 | |
| BIOWL1-15 | 2026-09-04 18:47:01 | 49.76631 | 8.86685 | 12° | 15km/h | 24874m | -20.4m/s | -50.9°C | 0.1% | 27.4hPa | 2.6V | 03:02:01 | 02:17:11 | 00:00:00 | |
| SONDE2-11 | 2026-09-04 18:47:01 | 49.76628 | 8.86684 | 10° | 13km/h | 24895m | -20.9m/s | -50.9°C | 0.8% | 27.3hPa | 2.7V | 00:00:00 | 00:00:00 | 00:00:00 | |
| EDDB2-11 | 2026-09-04 18:47:00 | 49.76625 | 8.86683 | 11° | 11km/h | 24916m | -21.3m/s | -50.9°C | 0.8% | 27.2hPa | 2.7V | 00:00:00 | 00:00:00 | 00:00:00 | |
| DL1XH1-15 | 2026-09-04 18:46:59 | 49.76613 | 8.86676 | 41° | 9km/h | 25018m | -20.5m/s | -51°C | 3.4% | 26.8hPa | 2.7V | 03:01:48 | 02:17:04 | 00:00:00 | |
| AA1-15 | 2026-09-04 18:46:58 | 49.76622 | 8.86682 | 14° | 11km/h | 24937m | -21.5m/s | -50.9°C | 0.2% | 27.1hPa | 2.6V | 03:02:01 | 02:17:08 | 00:00:00 | |
| HSKMA3-T | 2026-09-04 18:46:57 | 49.76619 | 8.86681 | 16° | 9km/h | 24958m | -21.4m/s | -50.8°C | 0.1% | 27hPa | 2.5V | 03:02:01 | 02:17:07 | 00:00:00 | |
| DL1XH-west | 2026-09-04 18:46:56 | 49.76617 | 8.86680 | 25° | 9km/h | 24979m | -20.4m/s | -50.8°C | 0.1% | 27hPa | 2.6V | 03:02:01 | 02:17:06 | 00:00:00 | |
| DF7PN | 2026-09-04 18:46:55 | 49.76615 | 8.86678 | 31° | 7km/h | 24998m | -19.3m/s | -50.9°C | 0.8% | 26.8hPa | 2.6V | 00:00:00 | 00:00:00 | 00:00:00 | |
| DJ2DS-15 | 2026-09-04 18:46:54 | 49.76613 | 8.86676 | 42° | 11km/h | 25018m | -20.5m/s | -50.9°C | 3.4% | 26.7hPa | 2.6V | 03:01:00 | 02:17:04 | 00:00:00 | |
| DL0LBS | 2026-09-04 18:46:53 | 49.76613 | 8.86676 | 42° | 9km/h | 25018m | -20.5m/s | -51.0°C | 0.9% | 26.8hPa | 2.6V | 03:02:00 | 00:00:00 | 00:00:00 | |
| DL1XH-15 | 2026-09-04 18:46:52 | 49.76609 | 8.86675 | 263° | 7km/h | 25164m | -20.6m/s | -51.1°C | 3.6% | 26.1hPa | 2.6V | 03:01:55 | 02:16:57 | 00:00:00 | |
| BIOWL1-15 | 2026-09-04 18:46:52 | 49.76609 | 8.86670 | 255° | 2km/h | 25098m | -23m/s | -51.1°C | 0.2% | 26.4hPa | 2.6V | 03:02:01 | 02:17:00 | 00:00:00 | |
| AA1-15 | 2026-09-04 18:46:48 | 49.76609 | 8.86673 | 275° | 5km/h | 25143m | -22.8m/s | -51.1°C | 0.2% | 26.2hPa | 2.6V | 03:02:01 | 02:16:58 | 00:00:00 | |
| DL1XH-west | 2026-09-04 18:46:46 | 49.76609 | 8.86679 | 273° | 9km/h | 25185m | -20.2m/s | -51.1°C | 0.2% | 26.1hPa | 2.5V | 03:02:01 | 02:16:56 | 00:00:00 | |
| DF2AP-13 | 2026-09-04 18:46:46 | 49.76609 | 8.86679 | 273° | 15km/h | 25185m | -20.1m/s | -51.0°C | 3.5% | 26.0hPa | 2.5V | 00:00:00 | 02:16:56 | 00:00:00 | |
| DB0UT-9 | 2026-09-04 18:46:45 | 49.76608 | 8.86679 | 274° | 9km/h | 25185m | -20.2m/s | -51.1°C | 0.9% | 26.1hPa | 2.5V | 03:02:00 | 00:00:00 | 00:00:00 | |
| DJTTGO | 2026-09-04 18:46:44 | 49.76608 | 8.86685 | 291° | 9km/h | 25225m | -20.7m/s | -51.0°C | 0.8% | 25.9hPa | 2.5V | 03:02:00 | 00:00:00 | 00:00:00 | |
| DL4BBY-15 | 2026-09-04 18:46:43 | 49.76607 | 8.86689 | 281° | 16km/h | 25246m | -20.7m/s | -51.7°C | 0% | 0hPa | 2.5V | 00:00:00 | 00:00:00 | 00:00:00 | |
| DL1XH-15 | 2026-09-04 18:46:42 | 49.76595 | 8.86724 | 312° | 20km/h | 25381m | -23.9m/s | -50.5°C | 3.3% | 25.3hPa | 2.5V | 03:02:05 | 02:16:47 | 00:00:00 | |
| BIOWL1-15 | 2026-09-04 18:46:40 | 49.76603 | 8.86705 | 294° | 18km/h | 25308m | -21.1m/s | -50.6°C | 0.1% | 25.6hPa | 2.6V | 03:02:52 | 02:16:50 | 00:00:00 | |
| AA1-15 | 2026-09-04 18:46:38 | 49.76598 | 8.86718 | 306° | 20km/h | 25357m | -25.1m/s | -50.5°C | 0.1% | 25.4hPa | 2.5V | 03:02:52 | 02:16:48 | 00:00:00 | |
| BIOWL1-15 | 2026-09-04 18:46:35 | 49.76555 | 8.86744 | 357° | 20km/h | 25560m | -20.3m/s | -50.6°C | 0.1% | 24.6hPa | 2.6V | 03:02:52 | 02:16:39 | 00:00:00 | |
| DL1XH-west | 2026-09-04 18:46:35 | 49.76587 | 8.86733 | 331° | 20km/h | 25426m | -22.7m/s | -50.5°C | 0.1% | 25.1hPa | 2.7V | 03:02:52 | 02:16:45 | 00:00:00 | |
| DJ2DS-15 | 2026-09-04 18:46:34 | 49.76582 | 8.86736 | 342° | 16km/h | 25450m | -23.7m/s | -50.6°C | 3.4% | 25.0hPa | 2.7V | 00:00:00 | 02:16:44 | 00:00:00 | |
| DK5PH-5 | 2026-09-04 18:46:33 | 49.76577 | 8.86739 | 347° | 16km/h | 25472m | -22.6m/s | -50.6°C | 3.4% | 24.9hPa | 2.7V | 00:00:00 | 02:16:43 | 00:00:00 | |
| DL1XH-15 | 2026-09-04 18:46:32 | 49.76546 | 8.86744 | 9° | 15km/h | 25600m | -21.2m/s | -50.7°C | 3.5% | 24.5hPa | 2.7V | 03:02:15 | 02:16:37 | 00:00:00 | |
| NBG1-10 | 2026-09-04 18:46:31 | 49.76566 | 8.86742 | 352° | 16km/h | 25517m | -21.9m/s | -50.5°C | 3.4% | 24.7hPa | 2.5V | 00:00:00 | 02:16:41 | 00:00:00 | |
| SONDE2-11 | 2026-09-04 18:46:30 | 49.76555 | 8.86744 | 357° | 18km/h | 25560m | -20.3m/s | -50.6°C | 0.8% | 24.6hPa | 2.5V | 00:00:00 | 00:00:00 | 00:00:00 | |
| DL1XH1-15 | 2026-09-04 18:46:29 | 49.76535 | 8.86736 | 31° | 18km/h | 25665m | -24.4m/s | -50.9°C | 3.6% | 24.2hPa | 2.5V | 03:02:18 | 02:16:34 | 00:00:00 | |
| AA1-15 | 2026-09-04 18:46:27 | 49.76546 | 8.86744 | 9° | 15km/h | 25600m | -21.2m/s | -50.7°C | 0.2% | 24.5hPa | 2.7V | 03:02:52 | 02:16:37 | 00:00:00 | |
| DL1XH-west | 2026-09-04 18:46:25 | 49.76539 | 8.86740 | 29° | 16km/h | 25642m | -21.3m/s | -50.9°C | 0.2% | 24.3hPa | 2.5V | 03:02:52 | 02:16:35 | 00:00:00 | |
| DB0UT-7 | 2026-09-04 18:46:24 | 49.76536 | 8.86736 | 32° | 15km/h | 25666m | -24.3m/s | -50.9°C | 3.6% | 24.2hPa | 2.6V | 00:00:00 | 00:00:00 | 00:00:00 | |
| DO3DL | 2026-09-04 18:46:23 | 49.76535 | 8.86736 | 33° | 18km/h | 25666m | -24.4m/s | -50.9°C | 0.8% | 24.2hPa | 2.6V | 03:02:00 | 00:00:00 | 00:00:00 | |
| DL1XH-15 | 2026-09-04 18:46:21 | 49.76509 | 8.86718 | 25° | 15km/h | 25837m | -24.7m/s | -50.6°C | 3.6% | 23.6hPa | 2.6V | 03:02:26 | 02:16:26 | 00:00:00 | |
| DL3AQ-11 | 2026-09-04 18:46:20 | 49.76519 | 8.86722 | 8° | 11km/h | 25769m | -21.5m/s | -50.7°C | 0.9% | 23.8hPa | 2.6V | 00:00:00 | 00:00:00 | 00:00:00 | |
| DL1XH1-15 | 2026-09-04 18:46:19 | 49.76503 | 8.86712 | 46° | 16km/h | 25889m | -26.2m/s | -50.4°C | 3.5% | 23.4hPa | 2.6V | 03:02:28 | 02:16:24 | 00:00:00 | |
| BIOWL1-15 | 2026-09-04 18:46:19 | 49.76519 | 8.86722 | 8° | 13km/h | 25769m | -21.5m/s | -50.7°C | 0.3% | 23.8hPa | 2.6V | 03:02:52 | 02:16:29 | 00:00:00 | |
| AA1-15 | 2026-09-04 18:46:16 | 49.76509 | 8.86718 | 26° | 15km/h | 25837m | -24.7m/s | -50.6°C | 0.3% | 23.6hPa | 2.6V | 03:02:52 | 02:16:26 | 00:00:00 | |
| DJ2DS-15 | 2026-09-04 18:46:16 | 49.76506 | 8.86716 | 36° | 13km/h | 25863m | -26.5m/s | -50.5°C | 0.9% | 23.5hPa | 2.6V | 00:00:00 | 00:00:00 | 00:00:00 | |
| DM0DOS-11 | 2026-09-04 18:46:15 | 49.76495 | 8.86687 | 79° | 16km/h | 25988m | -27m/s | -49.6°C | 3.4% | 23hPa | 2.6V | 03:02:32 | 02:16:20 | 00:00:00 | |
| HSKMA3-T | 2026-09-04 18:46:15 | 49.76506 | 8.86716 | 37° | 15km/h | 25863m | -26.5m/s | -50.5°C | 0.3% | 23.5hPa | 2.5V | 03:02:52 | 02:16:25 | 00:00:00 | |
| DL1XH-west | 2026-09-04 18:46:14 | 49.76503 | 8.86712 | 47° | 16km/h | 25889m | -26.2m/s | -50.4°C | 0.2% | 23.4hPa | 2.6V | 03:02:52 | 02:16:24 | 00:00:00 | |
| DJ2DS-15 | 2026-09-04 18:46:14 | 49.76503 | 8.86712 | 47° | 13km/h | 25890m | -26.2m/s | -50.3°C | 3.5% | 23.4hPa | 2.6V | 00:00:00 | 02:16:24 | 00:00:00 | |
| DL4BBY-15 | 2026-09-04 18:46:13 | 49.76500 | 8.86706 | 55° | 11km/h | 25916m | -25.6m/s | -51.1°C | 0% | 0hPa | 2.6V | 00:00:00 | 00:00:00 | 00:00:00 | |
| AU51GT2 | 2026-09-04 18:46:12 | 49.76498 | 8.86700 | 67° | 18km/h | 25940m | -23.7m/s | -50.1°C | 0.8% | 23.2hPa | 2.6V | 00:00:00 | 00:00:00 | 00:00:00 | |
| DL1XH-15 | 2026-09-04 18:46:11 | 49.76496 | 8.86665 | 111° | 11km/h | 26088m | -21.7m/s | -49.3°C | 3.3% | 22.7hPa | 2.6V | 03:02:36 | 02:16:16 | 00:00:00 | |
| DL1XH1-15 | 2026-09-04 18:46:09 | 49.76499 | 8.86657 | 121° | 13km/h | 26133m | -24.1m/s | -49°C | 3.3% | 22.5hPa | 2.7V | 03:02:38 | 02:16:14 | 00:00:00 | |
| BIOWL1-15 | 2026-09-04 18:46:08 | 49.76494 | 8.86675 | 100° | 15km/h | 26041m | -26.2m/s | -49.6°C | 0.1% | 22.9hPa | 2.5V | 03:02:52 | 02:16:18 | 00:00:00 | |
| DF8AY | 2026-09-04 18:46:07 | 49.76495 | 8.86670 | 115° | 13km/h | 26066m | -23.9m/s | 0°C | 0% | 0hPa | 2.6V | 18:12:15 | 02:16:17 | 00:00:00 | |
| DO3MHA-11 | 2026-09-04 18:46:07 | 49.76495 | 8.86669 | 115° | 13km/h | 26066m | -23.9m/s | -49.5°C | 3.4% | 22.7hPa | 2.6V | 03:02:00 | 02:16:17 | 00:00:00 | |
| BIOWL9-15 | 2026-09-04 18:46:06 | 49.76496 | 8.86665 | 111° | 11km/h | 26088m | -21.7m/s | -49.3°C | 0.7% | 22.7hPa | 2.6V | 00:00:00 | 00:00:00 | 00:00:00 | |
| DM0DOS-11 | 2026-09-04 18:46:05 | 49.76506 | 8.86636 | 105° | 15km/h | 26229m | -23.2m/s | -48.7°C | 3.2% | 22.2hPa | 2.6V | 03:02:42 | 02:16:10 | 00:00:00 | |
| AA1-15 | 2026-09-04 18:46:05 | 49.76497 | 8.86661 | 117° | 13km/h | 26109m | -22.5m/s | -49.1°C | 0% | 22.6hPa | 2.7V | 03:02:52 | 02:16:15 | 00:00:00 | |
| HSKMA3-T | 2026-09-04 18:46:04 | 49.76499 | 8.86657 | 122° | 13km/h | 26133m | -24.1m/s | -49°C | 0% | 22.5hPa | 2.7V | 03:02:52 | 02:16:14 | 00:00:00 | |
| DL1XH-west | 2026-09-04 18:46:03 | 49.76501 | 8.86652 | 123° | 15km/h | 26157m | -23.8m/s | -48.9°C | 0% | 22.4hPa | 2.6V | 03:02:52 | 02:16:13 | 00:00:00 | |
| DK5PH-5 | 2026-09-04 18:46:03 | 49.76501 | 8.86652 | 123° | 11km/h | 26157m | -23.8m/s | -48.8°C | 3.2% | 22.4hPa | 2.6V | 00:00:00 | 02:16:13 | 00:00:00 | |
| DJTTGO | 2026-09-04 18:46:02 | 49.76501 | 8.86652 | 124° | 15km/h | 26157m | -23.8m/s | -48.9°C | 0.7% | 22.4hPa | 2.6V | 00:00:00 | 00:00:00 | 00:00:00 | |
| DL1XH-15 | 2026-09-04 18:46:01 | 49.76508 | 8.86622 | 118° | 5km/h | 26333m | -28.2m/s | -48.4°C | 3.1% | 21.9hPa | 2.6V | 03:02:46 | 02:16:06 | 00:00:00 | |
| KANTATE | 2026-09-04 18:46:00 | 49.76505 | 8.86641 | 115° | 16km/h | 26206m | -23.7m/s | -48.8°C | 0.7% | 22.3hPa | 2.7V | 03:02:00 | 00:00:00 | 00:00:00 | |
| DL1XH1-15 | 2026-09-04 18:45:59 | 49.76510 | 8.86619 | 109° | 5km/h | 26389m | -26.6m/s | -48.3°C | 3.1% | 21.7hPa | 2.7V | 03:02:48 | 02:16:04 | 00:00:00 | |
| BIOWL1-15 | 2026-09-04 18:45:58 | 49.76507 | 8.86627 | 111° | 7km/h | 26278m | -27.5m/s | -48.5°C | 0% | 22hPa | 2.6V | 03:02:52 | 02:16:08 | 00:00:00 | |
| EDDB2-11 | 2026-09-04 18:45:57 | 49.76508 | 8.86624 | 113° | 7km/h | 26306m | -27.4m/s | -48.4°C | 0.7% | 22.0hPa | 2.6V | 00:00:00 | 00:00:00 | 00:00:00 | |
| DL1ZP-14 | 2026-09-04 18:45:56 | 49.76508 | 8.86622 | 118° | 4km/h | 26334m | -28.3m/s | -48.4°C | 0.7% | 21.9hPa | 2.6V | 00:00:00 | 00:00:00 | 00:00:00 | |
| DM0DOS-11 | 2026-09-04 18:45:55 | 49.76513 | 8.86612 | 110° | 4km/h | 26497m | -27.2m/s | -48°C | 3% | 21.3hPa | 2.6V | 03:02:52 | 02:16:00 | 00:00:00 | |
| AA1-15 | 2026-09-04 18:45:54 | 49.76510 | 8.86619 | 110° | 5km/h | 26389m | -26.6m/s | -48.3°C | 0% | 21.7hPa | 2.7V | 03:02:52 | 02:16:04 | 00:00:00 | |
| DL1XH-west | 2026-09-04 18:45:53 | 49.76511 | 8.86617 | 133° | 5km/h | 26416m | -28.5m/s | -48.3°C | 0% | 21.6hPa | 2.7V | 03:02:52 | 02:16:03 | 00:00:00 | |
| DL1XH-15 | 2026-09-04 18:45:51 | 49.76512 | 8.86601 | 65° | 11km/h | 26601m | -27.1m/s | -47.8°C | 3% | 21hPa | 2.5V | 03:02:56 | 02:15:56 | 00:00:00 | |
| DO3DL | 2026-09-04 18:45:50 | 49.76512 | 8.86613 | 93° | 4km/h | 26471m | -26.7m/s | -48.1°C | 0.7% | 21.4hPa | 2.6V | 03:02:00 | 00:00:00 | 00:00:00 | |
| DL1XH1-15 | 2026-09-04 18:45:49 | 49.76512 | 8.86592 | 109° | 16km/h | 26657m | -29.6m/s | -47.7°C | 3% | 20.8hPa | 2.6V | 03:02:58 | 02:15:54 | 00:00:00 | |
| BIOWL1-15 | 2026-09-04 18:45:48 | 49.76513 | 8.86608 | 78° | 7km/h | 26550m | -25m/s | -47.9°C | 0% | 21.1hPa | 2.7V | 03:03:43 | 02:15:58 | 00:00:00 | |
| DL6DJ-15 | 2026-09-04 18:45:48 | 49.76513 | 8.86605 | 70° | 7km/h | 26575m | -25.7m/s | -47.8°C | 0.7% | 21.1hPa | 2.5V | 00:00:00 | 00:00:00 | 00:00:00 | |
| BUE01 | 2026-09-04 18:45:45 | 49.76511 | 8.86597 | 90° | 11km/h | 26629m | -27.0m/s | 0°C | -1.0% | -1.0hPa | 2.5V | 00:00:00 | 00:00:00 | 00:00:00 | |
| DO3DL | 2026-09-04 18:45:44 | 49.76511 | 8.86597 | 92° | 11km/h | 26629m | -27.0m/s | -47.7°C | 0.7% | 20.9hPa | 2.5V | 03:03:00 | 00:00:00 | 00:00:00 | |
| DM0DOS-11 | 2026-09-04 18:45:43 | 49.76527 | 8.86564 | 155° | 16km/h | 26829m | -29.9m/s | -47.4°C | 2.9% | 20.3hPa | 2.5V | 03:03:04 | 02:15:48 | 00:00:00 | |
| DL1XH-west | 2026-09-04 18:45:43 | 49.76513 | 8.86585 | 103° | 18km/h | 26685m | -26.9m/s | -47.6°C | 0% | 20.7hPa | 2.6V | 03:03:43 | 02:15:53 | 00:00:00 | |
| AA1-15 | 2026-09-04 18:45:42 | 49.76515 | 8.86579 | 112° | 16km/h | 26712m | -27.4m/s | -47.5°C | 0% | 20.7hPa | 2.7V | 03:03:43 | 02:15:52 | 00:00:00 | |
| BIOWL1-15 | 2026-09-04 18:45:41 | 49.76531 | 8.86562 | 152° | 13km/h | 26858m | -27.6m/s | -47.3°C | 0% | 20.2hPa | 2.6V | 03:03:43 | 02:15:47 | 00:00:00 | |
| DJ2DS-15 | 2026-09-04 18:45:40 | 49.76523 | 8.86566 | 161° | 15km/h | 26800m | -29.8m/s | -47.4°C | 0.6% | 20.4hPa | 2.6V | 00:00:00 | 00:00:00 | 00:00:00 | |
| DL1XH1-15 | 2026-09-04 18:45:39 | 49.76540 | 8.86551 | 131° | 22km/h | 26935m | -24.9m/s | -47.3°C | 2.9% | 19.9hPa | 2.6V | 03:03:08 | 02:15:44 | 00:00:00 | |
| DB0ND-19 | 2026-09-04 18:45:38 | 49.76527 | 8.86564 | 155° | 15km/h | 26829m | -29.9m/s | -47.4°C | 0.6% | 20.3hPa | 2.6V | 00:00:00 | 00:00:00 | 00:00:00 | |
| DO3MHA-11 | 2026-09-04 18:45:37 | 49.76530 | 8.86562 | 152° | 24km/h | 26859m | -27.6m/s | -47.3°C | 2.9% | 20.2hPa | 2.6V | 00:00:00 | 02:15:47 | 00:00:00 | |
| BIOWL9-15 | 2026-09-04 18:45:35 | 49.76536 | 8.86556 | 138° | 15km/h | 26911m | -24.7m/s | -47.3°C | 0.7% | 20.0hPa | 2.6V | 00:00:00 | 00:00:00 | 00:00:00 | |
| DJ2DS-15 | 2026-09-04 18:45:34 | 49.76540 | 8.86551 | 132° | 24km/h | 26936m | -24.9m/s | -47.3°C | 2.9% | 19.9hPa | 2.6V | 03:03:00 | 02:15:44 | 00:00:00 | |
| DM0DOS-11 | 2026-09-04 18:45:33 | 49.76561 | 8.86496 | 122° | 27km/h | 27079m | -25.7m/s | -47.3°C | 2.9% | 19.5hPa | 2.6V | 03:03:14 | 02:15:38 | 00:00:00 | |
| DL1XH-west | 2026-09-04 18:45:32 | 49.76546 | 8.86535 | 119° | 26km/h | 26982m | -22.7m/s | -47.3°C | 0% | 19.8hPa | 2.6V | 03:03:43 | 02:15:42 | 00:00:00 | |
| DL0LBS | 2026-09-04 18:45:31 | 49.76546 | 8.86535 | 120° | 26km/h | 26983m | -22.7m/s | -47.3°C | 0.7% | 19.8hPa | 2.6V | 03:03:00 | 00:00:00 | 00:00:00 | |
| DO2KSM | 2026-09-04 18:45:30 | 49.76549 | 8.86526 | 121° | 27km/h | 27006m | -23.2m/s | -47.3°C | 0.6% | 19.7hPa | 2.6V | 03:03:00 | 00:00:00 | 00:00:00 | |
| DL1XH1-15 | 2026-09-04 18:45:29 | 49.76580 | 8.86466 | 147° | 26km/h | 27184m | -27.7m/s | -46.9°C | 2.8% | 19.2hPa | 2.6V | 03:03:18 | 02:15:34 | 00:00:00 | |
| BIOWL1-15 | 2026-09-04 18:45:26 | 49.76570 | 8.86479 | 135° | 27km/h | 27130m | -26.6m/s | -47.1°C | 0% | 19.3hPa | 2.6V | 03:03:43 | 02:15:36 | 00:00:00 | |
| NBG1-10 | 2026-09-04 18:45:25 | 49.76575 | 8.86472 | 142° | 13km/h | 27157m | -27.4m/s | -46.9°C | 2.8% | 19.2hPa | 2.6V | 00:00:00 | 02:15:35 | 00:00:00 | |
| DB0UT-9 | 2026-09-04 18:45:24 | 49.76575 | 8.86472 | 143° | 27km/h | 27157m | -27.4m/s | -46.9°C | 0.7% | 19.3hPa | 2.6V | 03:03:00 | 00:00:00 | 00:00:00 | |
| DM0DOS-11 | 2026-09-04 18:45:23 | 49.76610 | 8.86440 | 163° | 20km/h | 27327m | -23.6m/s | -47.2°C | 2.8% | 18.8hPa | 2.6V | 03:03:24 | 02:15:28 | 00:00:00 | |
| HSKMA3-T | 2026-09-04 18:45:22 | 49.76590 | 8.86456 | 144° | 20km/h | 27234m | -21.9m/s | -47°C | 0% | 19hPa | 2.7V | 03:03:43 | 02:15:32 | 00:00:00 | |
| DL1XH-west | 2026-09-04 18:45:21 | 49.76594 | 8.86451 | 147° | 22km/h | 27256m | -23.4m/s | -47.1°C | 0% | 18.9hPa | 2.7V | 03:03:43 | 02:15:31 | 00:00:00 | |
| CB1BUN | 2026-09-04 18:45:19 | 49.76599 | 8.86447 | 151° | 22km/h | 27280m | -24.0m/s | -47.1°C | 0.6% | 18.9hPa | 2.6V | 03:03:00 | 00:00:00 | 00:00:00 | |
| DL1XH-15 | 2026-09-04 18:45:18 | 49.76630 | 8.86441 | 202° | 13km/h | 27440m | -25m/s | -47.5°C | 2.9% | 18.4hPa | 2.6V | 03:03:29 | 02:15:23 | 00:00:00 | |
| AA1-15 | 2026-09-04 18:45:18 | 49.76610 | 8.86440 | 164° | 20km/h | 27327m | -23.6m/s | -47.2°C | 0% | 18.8hPa | 2.6V | 03:03:43 | 02:15:28 | 00:00:00 | |
| BIOWL1-15 | 2026-09-04 18:45:15 | 49.76623 | 8.86438 | 187° | 16km/h | 27396m | -21.5m/s | -47.3°C | 0% | 18.5hPa | 2.7V | 03:03:43 | 02:15:25 | 00:00:00 | |
| DJ2DS-15 | 2026-09-04 18:45:14 | 49.76627 | 8.86439 | 196° | 11km/h | 27417m | -21.1m/s | -47.4°C | 2.9% | 18.4hPa | 2.7V | 00:00:00 | 02:15:24 | 00:00:00 | |
| DM0DOS-11 | 2026-09-04 18:45:13 | 49.76640 | 8.86446 | 196° | 11km/h | 27567m | -24.6m/s | -47.8°C | 3% | 18hPa | 2.7V | 03:03:34 | 02:15:18 | 00:00:00 | |
| HSKMA3-T | 2026-09-04 18:45:11 | 49.76634 | 8.86443 | 198° | 5km/h | 27490m | -25.9m/s | -47.7°C | 0% | 18.3hPa | 2.6V | 03:03:43 | 02:15:21 | 00:00:00 | |
| DL1XH-west | 2026-09-04 18:45:10 | 49.76636 | 8.86444 | 204° | 5km/h | 27516m | -27.3m/s | -47.7°C | 0% | 18.2hPa | 2.7V | 03:03:43 | 02:15:20 | 00:00:00 | |
| DO2KSM | 2026-09-04 18:45:09 | 49.76636 | 8.86444 | 205° | 5km/h | 27516m | -27.3m/s | -47.7°C | 0.7% | 18.2hPa | 2.6V | 03:03:00 | 00:00:00 | 00:00:00 | |
| DL1XH-15 | 2026-09-04 18:45:08 | 49.76647 | 8.86454 | 319° | 5km/h | 27691m | -27m/s | -47.8°C | 3% | 17.7hPa | 2.6V | 03:03:39 | 02:15:13 | 00:00:00 | |
| AA1-15 | 2026-09-04 18:45:07 | 49.76643 | 8.86447 | 201° | 11km/h | 27591m | -23.9m/s | -47.8°C | 0% | 18hPa | 2.5V | 03:03:43 | 02:15:17 | 00:00:00 | |
| BIOWL1-15 | 2026-09-04 18:45:04 | 49.76648 | 8.86452 | 252° | 5km/h | 27665m | -25.2m/s | -47.8°C | 0% | 17.8hPa | 2.7V | 03:03:43 | 02:15:14 | 00:00:00 | |
| HSKMA3-T | 2026-09-04 18:45:00 | 49.76639 | 8.86455 | 14° | 15km/h | 27765m | -23.4m/s | -47.9°C | 0% | 17.5hPa | 2.6V | 03:03:43 | 02:15:10 | 00:00:00 | |
| DL1XH-west | 2026-09-04 18:44:59 | 49.76636 | 8.86453 | 27° | 15km/h | 27790m | -28m/s | -47.8°C | 0% | 17.5hPa | 2.7V | 03:03:43 | 02:15:09 | 00:00:00 | |
| AA1-15 | 2026-09-04 18:44:56 | 49.76630 | 8.86442 | 81° | 13km/h | 27876m | -28.9m/s | -47.4°C | 0% | 17.2hPa | 2.5V | 03:04:34 | 02:15:06 | 00:00:00 | |
| BIOWL1-15 | 2026-09-04 18:44:54 | 49.76629 | 8.86433 | 91° | 9km/h | 27929m | -26.2m/s | -47.3°C | 0% | 17.1hPa | 2.5V | 03:04:34 | 02:15:04 | 00:00:00 | |
| DJ2DS-15 | 2026-09-04 18:44:54 | 49.76629 | 8.86433 | 92° | 16km/h | 27929m | -26.2m/s | -47.2°C | 2.9% | 17.0hPa | 2.5V | 00:00:00 | 02:15:04 | 00:00:00 | |
| DM0DOS-11 | 2026-09-04 18:44:53 | 49.76627 | 8.86402 | 95° | 18km/h | 28104m | -29m/s | -46.9°C | 2.9% | 16.7hPa | 2.5V | 03:03:54 | 02:14:58 | 00:00:00 | |
| DL1XH-west | 2026-09-04 18:44:49 | 49.76627 | 8.86409 | 92° | 16km/h | 28074m | -30.4m/s | -47°C | 0% | 16.8hPa | 2.5V | 03:04:34 | 02:14:59 | 00:00:00 | |
| DL1XH-15 | 2026-09-04 18:44:48 | 49.76641 | 8.86374 | 159° | 22km/h | 28249m | -27.7m/s | -47°C | 2.9% | 16.3hPa | 2.6V | 03:03:59 | 02:14:53 | 00:00:00 | |
| BIOWL1-15 | 2026-09-04 18:44:47 | 49.76641 | 8.86374 | 159° | 22km/h | 28249m | -27.7m/s | -47°C | 0% | 16.3hPa | 2.6V | 03:04:34 | 02:14:53 | 00:00:00 | |
| AA1-15 | 2026-09-04 18:44:46 | 49.76630 | 8.86389 | 127° | 20km/h | 28166m | -31.6m/s | -46.9°C | 0% | 16.5hPa | 2.7V | 03:04:34 | 02:14:56 | 00:00:00 | |
| DF8AY | 2026-09-04 18:44:45 | 49.76633 | 8.86383 | 130° | 20km/h | 28196m | -27.7m/s | -47°C | 0% | 16.4hPa | 2.7V | 03:05:25 | 02:14:55 | 00:00:00 | |
| DL1KLB | 2026-09-04 18:44:44 | 49.76633 | 8.86383 | 131° | 20km/h | 28196m | -27.7m/s | -47.0°C | 0.6% | 16.4hPa | 2.6V | 03:04:00 | 00:00:00 | 00:00:00 | |
| DM0DOS-11 | 2026-09-04 18:44:43 | 49.76662 | 8.86361 | 153° | 16km/h | 28388m | -27.4m/s | -47°C | 2.9% | 15.9hPa | 2.6V | 03:04:04 | 02:14:48 | 00:00:00 | |
| DL4BBY-15 | 2026-09-04 18:44:43 | 49.76641 | 8.86374 | 160° | 13km/h | 28251m | -27.7m/s | -47.9°C | 0% | 0hPa | 2.6V | 00:00:00 | 00:00:00 | 00:00:00 | |
| DB0UT-9 | 2026-09-04 18:44:42 | 49.76641 | 8.86374 | 160° | 22km/h | 28250m | -27.7m/s | -47.0°C | 0.7% | 16.3hPa | 2.6V | 00:00:00 | 00:00:00 | 00:00:00 | |
| DJTTGO | 2026-09-04 18:44:40 | 49.76650 | 8.86369 | 167° | 20km/h | 28304m | -28.3m/s | -47.0°C | 0.6% | 16.2hPa | 2.6V | 03:04:00 | 00:00:00 | 00:00:00 | |
| DL1XH1-15 | 2026-09-04 18:44:39 | 49.76673 | 8.86343 | 118° | 13km/h | 28506m | -35.2m/s | -46.9°C | 2.9% | 15.7hPa | 2.6V | 03:04:08 | 02:14:44 | 00:00:00 | |
| DL1XH-west | 2026-09-04 18:44:39 | 49.76659 | 8.86364 | 151° | 16km/h | 28360m | -29.2m/s | -47°C | 0% | 16hPa | 2.6V | 03:04:34 | 02:14:49 | 00:00:00 | |
| HSKMA3-T | 2026-09-04 18:44:38 | 49.76663 | 8.86361 | 154° | 16km/h | 28388m | -27.4m/s | -47°C | 0% | 15.9hPa | 2.6V | 03:04:34 | 02:14:48 | 00:00:00 | |
| AA1-15 | 2026-09-04 18:44:36 | 49.76670 | 8.86352 | 136° | 16km/h | 28442m | -31m/s | -46.9°C | 0% | 15.8hPa | 2.7V | 03:04:34 | 02:14:46 | 00:00:00 | |
| DL3AQ-11 | 2026-09-04 18:44:36 | 49.76672 | 8.86348 | 120° | 13km/h | 28473m | -31.8m/s | -46.9°C | 0.6% | 15.7hPa | 2.6V | 00:00:00 | 00:00:00 | 00:00:00 | |
| DD1CC8 | 2026-09-04 18:44:35 | 49.76672 | 8.86348 | 120° | 13km/h | 28473m | -31.8m/s | -46.9°C | 0.6% | 15.7hPa | 2.6V | 00:00:00 | 00:00:00 | 00:00:00 | |
| DJ2DS-15 | 2026-09-04 18:44:34 | 49.76673 | 8.86343 | 119° | 13km/h | 28506m | -35.1m/s | -46.8°C | 2.9% | 15.6hPa | 2.6V | 00:00:00 | 02:14:44 | 00:00:00 | |
| DM0DOS-11 | 2026-09-04 18:44:33 | 49.76680 | 8.86313 | 124° | 15km/h | 28705m | -29.5m/s | -47°C | 3% | 15.2hPa | 2.7V | 03:04:14 | 02:14:38 | 00:00:00 | |
| BIOWL1-15 | 2026-09-04 18:44:32 | 49.76675 | 8.86332 | 108° | 13km/h | 28577m | -35.8m/s | -47°C | 0% | 15.5hPa | 2.7V | 03:04:34 | 02:14:42 | 00:00:00 | |
| DJ2KF-10 | 2026-09-04 18:44:32 | 49.76675 | 8.86332 | 109° | 11km/h | 28577m | -35.8m/s | -46.9°C | 2.9% | 15.5hPa | 2.6V | 00:00:00 | 02:14:42 | 00:00:00 | |
| BIOWL7-15 | 2026-09-04 18:44:31 | 49.76675 | 8.86332 | 109° | 13km/h | 28577m | -35.8m/s | -47.0°C | 0.6% | 15.5hPa | 2.6V | 00:00:00 | 00:00:00 | 00:00:00 | |
| HARRO8 | 2026-09-04 18:44:30 | 49.76678 | 8.86318 | 117° | 11km/h | 28676m | -31.1m/s | -46.9°C | 0.6% | 15.2hPa | 2.6V | 00:00:00 | 00:00:00 | 00:00:00 | |
| DL1XH1-15 | 2026-09-04 18:44:29 | 49.76689 | 8.86296 | 133° | 15km/h | 28833m | -31.8m/s | -46.8°C | 3% | 14.9hPa | 2.6V | 03:04:18 | 02:14:34 | 00:00:00 | |
| DL1XH-west | 2026-09-04 18:44:29 | 49.76678 | 8.86318 | 117° | 11km/h | 28676m | -31.1m/s | -46.9°C | 0% | 15.2hPa | 2.6V | 03:04:34 | 02:14:39 | 00:00:00 | |
| HSKMA3-T | 2026-09-04 18:44:27 | 49.76682 | 8.86309 | 128° | 13km/h | 28736m | -31.9m/s | -46.9°C | 0% | 15.2hPa | 2.7V | 03:04:34 | 02:14:37 | 00:00:00 | |
| AA1-15 | 2026-09-04 18:44:25 | 49.76686 | 8.86300 | 136° | 13km/h | 28801m | -32m/s | -46.8°C | 0% | 15hPa | 2.6V | 03:04:34 | 02:14:35 | 00:00:00 | |
| BIOWL1-15 | 2026-09-04 18:44:22 | 49.76694 | 8.86291 | 149° | 7km/h | 28897m | -32.4m/s | -46.7°C | 0% | 14.8hPa | 2.7V | 03:04:34 | 02:14:32 | 00:00:00 | |
| DB0UT-7 | 2026-09-04 18:44:20 | 49.76697 | 8.86289 | 149° | 11km/h | 28962m | -33.5m/s | -46.5°C | 3.0% | 14.5hPa | 2.6V | 00:00:00 | 00:00:00 | 00:00:00 | |
| DL1XH1-15 | 2026-09-04 18:44:19 | 49.76703 | 8.86272 | 104° | 11km/h | 29147m | -29.3m/s | -46.3°C | 3% | 14.2hPa | 2.7V | 03:04:28 | 02:14:24 | 00:00:00 | |
| DL1XH-west | 2026-09-04 18:44:18 | 49.76699 | 8.86286 | 109° | 7km/h | 29029m | -32.7m/s | -46.4°C | 0% | 14.5hPa | 2.6V | 03:04:34 | 02:14:28 | 00:00:00 | |
| HSKMA3-T | 2026-09-04 18:44:16 | 49.76701 | 8.86281 | 120° | 11km/h | 29090m | -30.3m/s | -46.4°C | 0% | 14.3hPa | 2.5V | 03:04:34 | 02:14:26 | 00:00:00 | |
| AA1-15 | 2026-09-04 18:44:15 | 49.76702 | 8.86277 | 109° | 15km/h | 29119m | -28.6m/s | -46.4°C | 0% | 14.2hPa | 2.6V | 03:04:34 | 02:14:25 | 00:00:00 | |
| BIOWL1-15 | 2026-09-04 18:44:11 | 49.76708 | 8.86260 | 141° | 11km/h | 29233m | -28.7m/s | -45.9°C | 0% | 14hPa | 2.6V | 03:04:34 | 02:14:21 | 00:00:00 | |
| BIOWL7-15 | 2026-09-04 18:44:10 | 49.76708 | 8.86260 | 141° | 11km/h | 29233m | -28.7m/s | -45.9°C | 0.6% | 14.0hPa | 2.6V | 00:00:00 | 00:00:00 | 00:00:00 | |
| DL1XH1-15 | 2026-09-04 18:44:09 | 49.76722 | 8.86253 | 114° | 13km/h | 29434m | -28.5m/s | -44.9°C | 2.7% | 13.6hPa | 2.6V | 03:04:38 | 02:14:14 | 00:00:00 | |
| DL1XH-west | 2026-09-04 18:44:08 | 49.76715 | 8.86256 | 190° | 9km/h | 29318m | -29.3m/s | -45.4°C | 0% | 13.8hPa | 2.7V | 03:04:34 | 02:14:18 | 00:00:00 | |
| AA1-15 | 2026-09-04 18:44:05 | 49.76720 | 8.86255 | 156° | 7km/h | 29406m | -27.7m/s | -45.1°C | 0% | 13.6hPa | 2.6V | 03:05:25 | 02:14:15 | 00:00:00 | |
| DF8AY | 2026-09-04 18:44:03 | 49.76722 | 8.86248 | 99° | 13km/h | 29461m | -27.3m/s | -44.8°C | 0% | 13.5hPa | 2.6V | 03:05:25 | 02:14:13 | 00:00:00 | |
| BIOWL1-15 | 2026-09-04 18:44:01 | 49.76724 | 8.86237 | 103° | 18km/h | 29513m | -25m/s | -44.7°C | 0% | 13.4hPa | 2.7V | 03:05:25 | 02:14:11 | 00:00:00 | |
| DM3KS-11 | 2026-09-04 18:44:01 | 49.76725 | 8.86231 | 108° | 15km/h | 29539m | -28.0m/s | -44.6°C | 0.6% | 13.3hPa | 2.6V | 00:00:00 | 00:00:00 | 00:00:00 | |
| SONCRA | 2026-09-04 18:44:00 | 49.76725 | 8.86231 | 108° | 15km/h | 29539m | -28.0m/s | -44.6°C | 0.6% | 13.3hPa | 2.6V | 00:00:00 | 00:00:00 | 00:00:00 | |
| DL1XH1-15 | 2026-09-04 18:43:59 | 49.76730 | 8.86204 | 94° | 9km/h | 29717m | -28.3m/s | -44°C | 2.6% | 13hPa | 2.6V | 03:04:48 | 02:14:04 | 00:00:00 | |
| DL1XH-15 | 2026-09-04 18:43:58 | 49.76730 | 8.86201 | 81° | 11km/h | 29745m | -27.2m/s | -44°C | 2.6% | 12.9hPa | 2.6V | 03:04:49 | 02:14:03 | 00:00:00 | |
| DL1XH-west | 2026-09-04 18:43:58 | 49.76727 | 8.86219 | 106° | 13km/h | 29598m | -30.4m/s | -44.4°C | 0% | 13.3hPa | 2.6V | 03:05:25 | 02:14:08 | 00:00:00 | |
| DM0DOS-11 | 2026-09-04 18:43:57 | 49.76729 | 8.86211 | 117° | 9km/h | 29658m | -30.4m/s | -44.2°C | 2.6% | 13.1hPa | 2.7V | 03:04:46 | 02:14:06 | 00:00:00 | |
| AA1-15 | 2026-09-04 18:43:54 | 49.76730 | 8.86204 | 95° | 9km/h | 29717m | -28.3m/s | -44°C | 0% | 13hPa | 2.6V | 03:05:25 | 02:14:04 | 00:00:00 | |
| DF8AY | 2026-09-04 18:43:53 | 49.76730 | 8.86201 | 81° | 11km/h | 29745m | -27.2m/s | -44°C | 0% | 12.9hPa | 2.6V | 03:05:25 | 02:14:03 | 00:00:00 | |
| BIOWL1-15 | 2026-09-04 18:43:53 | 49.76729 | 8.86189 | 81° | 16km/h | 29801m | -27.3m/s | -43.9°C | 0% | 12.8hPa | 2.7V | 03:05:25 | 02:14:01 | 00:00:00 | |
| DL1ZP-14 | 2026-09-04 18:43:52 | 49.76730 | 8.86195 | 85° | 16km/h | 29773m | -29.8m/s | -44.0°C | 0.5% | 12.9hPa | 2.6V | 00:00:00 | 00:00:00 | 00:00:00 | |
| DJ2DS-15 | 2026-09-04 18:43:51 | 49.76729 | 8.86189 | 80° | 16km/h | 29802m | -27.3m/s | -43.9°C | 0.6% | 12.8hPa | 2.7V | 00:00:00 | 00:00:00 | 00:00:00 | |
| DB0UT-7 | 2026-09-04 18:43:50 | 49.76729 | 8.86182 | 95° | 15km/h | 29829m | -28.9m/s | -43.8°C | 2.6% | 12.7hPa | 2.7V | 00:00:00 | 02:14:00 | 00:00:00 | |
| DL1XH1-15 | 2026-09-04 18:43:49 | 49.76739 | 8.86152 | 139° | 13km/h | 30005m | -28.6m/s | -43.5°C | 2.5% | 12.4hPa | 2.7V | 03:04:58 | 02:13:54 | 00:00:00 | |
| DL1XH-west | 2026-09-04 18:43:48 | 49.76731 | 8.86171 | 116° | 15km/h | 29884m | -27.6m/s | -43.7°C | 0% | 12.7hPa | 2.5V | 03:05:25 | 02:13:58 | 00:00:00 | |
| DM0DOS-11 | 2026-09-04 18:43:47 | 49.76734 | 8.86161 | 127° | 16km/h | 29944m | -32.4m/s | -43.5°C | 2.5% | 12.6hPa | 2.6V | 03:04:56 | 02:13:56 | 00:00:00 | |
| EDDB2-12 | 2026-09-04 18:43:45 | 49.76736 | 8.86156 | 135° | 15km/h | 29976m | -30.8m/s | -43.5°C | 0.5% | 12.5hPa | 2.7V | 00:00:00 | 00:00:00 | 00:00:00 | |
| AA1-15 | 2026-09-04 18:43:44 | 49.76739 | 8.86152 | 139° | 13km/h | 30005m | -28.6m/s | -43.5°C | 0% | 12.4hPa | 2.7V | 03:05:25 | 02:13:54 | 00:00:00 | |
| HSKMA3-T | 2026-09-04 18:43:43 | 49.76741 | 8.86150 | 125° | 9km/h | 30033m | -26.6m/s | -43.5°C | 0% | 12.4hPa | 2.7V | 03:05:25 | 02:13:53 | 00:00:00 | |
| DF8AY | 2026-09-04 18:43:41 | 49.76745 | 8.86129 | 94° | 9km/h | 30232m | -29.3m/s | -43.3°C | 0% | 12.1hPa | 2.6V | 03:05:25 | 02:13:46 | 00:00:00 | |
| BIOWL1-15 | 2026-09-04 18:43:40 | 49.76743 | 8.86142 | 104° | 5km/h | 30116m | -26.2m/s | -43.2°C | 0% | 12.2hPa | 2.5V | 03:05:25 | 02:13:50 | 00:00:00 | |
| NBG1-10 | 2026-09-04 18:43:40 | 49.76743 | 8.86142 | 104° | 15km/h | 30117m | -26.1m/s | -43.2°C | 2.5% | 12.2hPa | 2.7V | 00:00:00 | 02:13:50 | 00:00:00 | |
| DL1KLB | 2026-09-04 18:43:39 | 49.76743 | 8.86142 | 105° | 5km/h | 30117m | -26.2m/s | -43.2°C | 0.5% | 12.2hPa | 2.7V | 03:05:00 | 00:00:00 | 00:00:00 | |
| DL1XH-15 | 2026-09-04 18:43:38 | 49.76748 | 8.86118 | 109° | 11km/h | 30318m | -29.5m/s | -43°C | 2.5% | 11.8hPa | 2.7V | 03:05:09 | 02:13:43 | 00:00:00 | |
| DL1XH-west | 2026-09-04 18:43:37 | 49.76745 | 8.86133 | 105° | 9km/h | 30202m | -30.5m/s | -43.3°C | 0% | 12.1hPa | 2.6V | 03:05:25 | 02:13:47 | 00:00:00 | |
| AA1-15 | 2026-09-04 18:43:33 | 49.76748 | 8.86118 | 109° | 11km/h | 30318m | -29.5m/s | -43°C | 0% | 11.9hPa | 2.7V | 03:05:25 | 02:13:43 | 00:00:00 | |
| HSKMA3-T | 2026-09-04 18:43:32 | 49.76748 | 8.86114 | 117° | 7km/h | 30347m | -30.6m/s | -42.9°C | 0% | 11.8hPa | 2.7V | 03:05:25 | 02:13:42 | 00:00:00 | |
| BIOWL1-15 | 2026-09-04 18:43:30 | 49.76749 | 8.86110 | 94° | 7km/h | 30411m | -34m/s | -42.8°C | 0% | 11.7hPa | 2.5V | 03:05:25 | 02:13:40 | 00:00:00 | |
| SONCRA | 2026-09-04 18:43:30 | 49.76749 | 8.86107 | 87° | 5km/h | 30443m | -32.5m/s | -42.8°C | 0.5% | 11.6hPa | 2.6V | 00:00:00 | 00:00:00 | 00:00:00 | |
| DM3KS-11 | 2026-09-04 18:43:29 | 49.76749 | 8.86107 | 87° | 5km/h | 30443m | -32.5m/s | -42.8°C | 0.5% | 11.6hPa | 2.6V | 00:00:00 | 00:00:00 | 00:00:00 | |
| DL1XH-15 | 2026-09-04 18:43:28 | 49.76747 | 8.86074 | 104° | 22km/h | 30625m | -28.6m/s | -42.3°C | 2.4% | 11.3hPa | 2.6V | 03:05:19 | 02:13:33 | 00:00:00 | |
| DF8AY | 2026-09-04 18:43:28 | 49.76749 | 8.86104 | 77° | 11km/h | 30474m | -29.9m/s | -42.7°C | 0% | 11.6hPa | 2.6V | 03:05:25 | 02:13:38 | 00:00:00 | |
| DL1XH-west | 2026-09-04 18:43:26 | 49.76747 | 8.86096 | 83° | 13km/h | 30534m | -30.1m/s | -42.5°C | 0% | 11.5hPa | 2.6V | 03:05:25 | 02:13:36 | 00:00:00 | |
| AA1-15 | 2026-09-04 18:43:23 | 49.76747 | 8.86074 | 104° | 22km/h | 30625m | -28.7m/s | -42.3°C | 0% | 11.3hPa | 2.6V | 03:05:25 | 02:13:33 | 00:00:00 | |
| HSKMA3-T | 2026-09-04 18:43:21 | 49.76749 | 8.86057 | 116° | 24km/h | 30681m | -30.1m/s | -42.2°C | 0% | 11.2hPa | 2.7V | 03:05:25 | 02:13:31 | 00:00:00 | |
| BIOWL1-15 | 2026-09-04 18:43:19 | 49.76754 | 8.86041 | 116° | 20km/h | 30738m | -27.2m/s | -42°C | 0% | 11.1hPa | 2.6V | 03:05:25 | 02:13:29 | 00:00:00 | |
| DL1XH-15 | 2026-09-04 18:43:18 | 49.76771 | 8.86001 | 134° | 22km/h | 30891m | -25.4m/s | -42°C | 2.4% | 10.9hPa | 2.7V | 03:05:29 | 02:13:23 | 00:00:00 | |
| DF8AY | 2026-09-04 18:43:17 | 49.76759 | 8.86027 | 115° | 20km/h | 30789m | -24.6m/s | -42°C | 0% | 11hPa | 2.7V | 03:05:25 | 02:13:27 | 00:00:00 | |
| DM0DOS-11 | 2026-09-04 18:43:17 | 49.76761 | 8.86020 | 114° | 20km/h | 30813m | -24.2m/s | -42°C | 2.4% | 11hPa | 2.5V | 03:05:26 | 02:13:26 | 00:00:00 | |
| DL1XH-west | 2026-09-04 18:43:15 | 49.76763 | 8.86013 | 132° | 22km/h | 30838m | -27.4m/s | -42°C | 0% | 11hPa | 2.6V | 03:06:16 | 02:13:25 | 00:00:00 | |
| AA1-15 | 2026-09-04 18:43:13 | 49.76771 | 8.86001 | 135° | 22km/h | 30891m | -25.4m/s | -42°C | 0% | 10.9hPa | 2.7V | 03:06:16 | 02:13:23 | 00:00:00 | |
| HSKMA3-T | 2026-09-04 18:43:11 | 49.76778 | 8.85991 | 150° | 18km/h | 30943m | -28.4m/s | -42°C | 0% | 10.8hPa | 2.6V | 03:06:16 | 02:13:21 | 00:00:00 | |
| BIOWL1-15 | 2026-09-04 18:43:09 | 49.76785 | 8.85987 | 169° | 9km/h | 31005m | -35.4m/s | -42°C | 0% | 10.7hPa | 2.7V | 03:06:16 | 02:13:19 | 00:00:00 | |
| DF8AY | 2026-09-04 18:43:06 | 49.76788 | 8.85983 | 106° | 5km/h | 31109m | -33.8m/s | -41.9°C | 0% | 10.5hPa | 2.6V | 03:06:16 | 02:13:16 | 00:00:00 | |
| DL1XH-west | 2026-09-04 18:43:04 | 49.76787 | 8.85977 | 91° | 13km/h | 31174m | -33.5m/s | -41.6°C | 0% | 10.4hPa | 2.7V | 03:06:16 | 02:13:14 | 00:00:00 | |
| AA1-15 | 2026-09-04 18:43:02 | 49.76787 | 8.85967 | 95° | 15km/h | 31239m | -33.5m/s | -41.1°C | 0% | 10.3hPa | 2.5V | 03:06:16 | 02:13:12 | 00:00:00 | |
| HSKMA3-T | 2026-09-04 18:43:00 | 49.76788 | 8.85953 | 98° | 20km/h | 31303m | -31.9m/s | -40.9°C | 0% | 10.2hPa | 2.6V | 03:06:16 | 02:13:10 | 00:00:00 | |
| BIOWL1-15 | 2026-09-04 18:42:59 | 49.76788 | 8.85945 | 92° | 20km/h | 31335m | -33.4m/s | -40.9°C | 0% | 10.2hPa | 2.7V | 03:06:16 | 02:13:09 | 00:00:00 | |
| DF8AY | 2026-09-04 18:42:56 | 49.76788 | 8.85920 | 92° | 20km/h | 31432m | -30.4m/s | -41.1°C | 0% | 10hPa | 2.5V | 03:06:16 | 02:13:06 | 00:00:00 | |
| DL1XH-west | 2026-09-04 18:42:53 | 49.76790 | 8.85895 | 105° | 24km/h | 31523m | -29.8m/s | -40.8°C | 0% | 9.9hPa | 2.7V | 03:06:16 | 02:13:03 | 00:00:00 | |
| AA1-15 | 2026-09-04 18:42:51 | 49.76795 | 8.85880 | 136° | 20km/h | 31586m | -32.3m/s | -40.6°C | 0% | 9.8hPa | 2.6V | 03:06:16 | 02:13:01 | 00:00:00 | |
| DL1ZP-14 | 2026-09-04 18:42:50 | 49.76799 | 8.85875 | 149° | 18km/h | 31617m | -29.9m/s | -40.5°C | 0.5% | 9.8hPa | 2.6V | 00:00:00 | 00:00:00 | 00:00:00 | |
| DL1XH1-15 | 2026-09-04 18:42:49 | 49.76823 | 8.85864 | 159° | 16km/h | 31808m | -34.7m/s | -39.1°C | 2.1% | 9.5hPa | 2.7V | 03:05:58 | 02:12:54 | 00:00:00 | |
| HSKMA3-T | 2026-09-04 18:42:49 | 49.76803 | 8.85872 | 161° | 20km/h | 31646m | -30.2m/s | -40.3°C | 0% | 9.7hPa | 2.6V | 03:06:16 | 02:12:59 | 00:00:00 | |
| BIOWL1-15 | 2026-09-04 18:42:48 | 49.76807 | 8.85870 | 166° | 20km/h | 31676m | -31.5m/s | -40°C | 0% | 9.7hPa | 2.7V | 03:06:16 | 02:12:58 | 00:00:00 | |
| DM0DOS-11 | 2026-09-04 18:42:47 | 49.76816 | 8.85868 | 163° | 16km/h | 31738m | -33.4m/s | -39.4°C | 2.2% | 9.6hPa | 2.5V | 03:05:56 | 02:12:56 | 00:00:00 | |
| DF8AY | 2026-09-04 18:42:46 | 49.76816 | 8.85868 | 163° | 16km/h | 31738m | -33.4m/s | -39.4°C | 0% | 9.6hPa | 2.5V | 03:06:16 | 02:12:56 | 00:00:00 | |
| DL1XH-west | 2026-09-04 18:42:43 | 49.76826 | 8.85861 | 144° | 15km/h | 31842m | -34.5m/s | -38.9°C | 0% | 9.4hPa | 2.6V | 03:06:16 | 02:12:53 | 00:00:00 | |
| AA1-15 | 2026-09-04 18:42:41 | 49.76832 | 8.85854 | 138° | 15km/h | 31908m | -32.4m/s | -38.7°C | 0% | 9.3hPa | 2.6V | 03:06:16 | 02:12:51 | 00:00:00 | |
| BIOWL1-15 | 2026-09-04 18:42:40 | 49.76839 | 8.85848 | 172° | 11km/h | 32011m | -34.4m/s | -38.3°C | 0% | 9.2hPa | 2.7V | 03:06:16 | 02:12:48 | 00:00:00 | |
| DL1XH1-15 | 2026-09-04 18:42:39 | 49.76851 | 8.85857 | 224° | 13km/h | 32165m | -38m/s | -38°C | 2% | 9hPa | 2.7V | 03:06:08 | 02:12:44 | 00:00:00 | |
| HSKMA3-T | 2026-09-04 18:42:39 | 49.76837 | 8.85849 | 156° | 7km/h | 31977m | -35.7m/s | -38.4°C | 0% | 9.2hPa | 2.7V | 03:06:16 | 02:12:49 | 00:00:00 | |
| DL1XH-15 | 2026-09-04 18:42:38 | 49.76854 | 8.85861 | 210° | 13km/h | 32202m | -36.9m/s | -37.9°C | 1.9% | 8.9hPa | 2.7V | 03:06:09 | 02:12:43 | 00:00:00 | |
| DM0DOS-11 | 2026-09-04 18:42:37 | 49.76845 | 8.85850 | 213° | 15km/h | 32085m | -39.4m/s | -38.1°C | 1.9% | 9.1hPa | 2.6V | 03:06:06 | 02:12:46 | 00:00:00 | |
| DF8AY | 2026-09-04 18:42:35 | 49.76848 | 8.85854 | 219° | 16km/h | 32125m | -40.5m/s | -38.1°C | 0% | 9hPa | 2.6V | 03:06:16 | 02:12:45 | 00:00:00 | |
| DL1XH-west | 2026-09-04 18:42:33 | 49.76854 | 8.85861 | 210° | 13km/h | 32202m | -36.9m/s | -37.9°C | 0% | 8.9hPa | 2.7V | 03:06:16 | 02:12:43 | 00:00:00 | |
| AA1-15 | 2026-09-04 18:42:30 | 49.76862 | 8.85865 | 167° | 7km/h | 32311m | -37.9m/s | -37.7°C | 0% | 8.8hPa | 2.6V | 03:06:16 | 02:12:40 | 00:00:00 | |
| BIOWL9-15 | 2026-09-04 18:42:29 | 49.76863 | 8.85865 | 172° | 5km/h | 32349m | -37.3m/s | -37.8°C | 0.4% | 8.7hPa | 2.6V | 00:00:00 | 00:00:00 | 00:00:00 | |
| DL1XH-15 | 2026-09-04 18:42:28 | 49.76873 | 8.85855 | 138° | 9km/h | 32572m | -36.1m/s | -37.9°C | 2% | 8.4hPa | 2.6V | 03:06:19 | 02:12:33 | 00:00:00 | |
| BIOWL1-15 | 2026-09-04 18:42:28 | 49.76865 | 8.85864 | 160° | 7km/h | 32386m | -37.7m/s | -38°C | 0% | 8.7hPa | 2.6V | 03:06:16 | 02:12:38 | 00:00:00 | |
| DF8AY | 2026-09-04 18:42:25 | 49.76869 | 8.85859 | 158° | 7km/h | 32498m | -37.3m/s | -38.1°C | 0% | 8.6hPa | 2.7V | 03:07:07 | 02:12:35 | 00:00:00 | |
| DL1XH-west | 2026-09-04 18:42:22 | 49.76874 | 8.85853 | 145° | 9km/h | 32608m | -35.5m/s | -37.8°C | 0% | 8.4hPa | 2.6V | 03:07:07 | 02:12:32 | 00:00:00 | |
| AA1-15 | 2026-09-04 18:42:20 | 49.76877 | 8.85848 | 110° | 7km/h | 32675m | -34.6m/s | -37.8°C | 0% | 8.3hPa | 2.7V | 03:07:07 | 02:12:30 | 00:00:00 | |
| DL1ZP-14 | 2026-09-04 18:42:19 | 49.76877 | 8.85845 | 108° | 7km/h | 32708m | -32.4m/s | -37.7°C | 0.4% | 8.3hPa | 2.6V | 00:00:00 | 00:00:00 | 00:00:00 | |
| DL1XH-15 | 2026-09-04 18:42:18 | 49.76877 | 8.85822 | 94° | 7km/h | 32878m | -27.9m/s | -36.8°C | 2% | 8hPa | 2.6V | 03:06:29 | 02:12:23 | 00:00:00 | |
| HSKMA3-T | 2026-09-04 18:42:17 | 49.76878 | 8.85837 | 89° | 11km/h | 32769m | -29.1m/s | -37.8°C | 0% | 8.2hPa | 2.6V | 03:07:07 | 02:12:27 | 00:00:00 | |
| DF8AY | 2026-09-04 18:42:15 | 49.76877 | 8.85829 | 82° | 9km/h | 32825m | -27.2m/s | -37.5°C | 0% | 8.1hPa | 2.7V | 03:07:07 | 02:12:25 | 00:00:00 | |
| DL1XH-west | 2026-09-04 18:42:11 | 49.76876 | 8.85816 | 93° | 5km/h | 32946m | -35.4m/s | -36.4°C | 0% | 8hPa | 2.6V | 03:07:07 | 02:12:21 | 00:00:00 | |
| AA1-15 | 2026-09-04 18:42:09 | 49.76876 | 8.85811 | 81° | 7km/h | 33013m | -31.1m/s | -36°C | 0% | 7.9hPa | 2.7V | 03:07:07 | 02:12:19 | 00:00:00 | |
| DL1XH-15 | 2026-09-04 18:42:08 | 49.76871 | 8.85790 | 45° | 15km/h | 33202m | -32.2m/s | -34.8°C | 1.7% | 7.7hPa | 2.7V | 03:06:39 | 02:12:13 | 00:00:00 | |
| DM0DOS-11 | 2026-09-04 18:42:07 | 49.76875 | 8.85802 | 83° | 11km/h | 33102m | -34m/s | -35.4°C | 1.7% | 7.8hPa | 2.5V | 03:06:36 | 02:12:16 | 00:00:00 | |
| BIOWL1-15 | 2026-09-04 18:42:07 | 49.76876 | 8.85806 | 87° | 7km/h | 33070m | -29.5m/s | -35.6°C | 0% | 7.8hPa | 2.6V | 03:07:07 | 02:12:17 | 00:00:00 | |
| HSKMA3-T | 2026-09-04 18:42:06 | 49.76875 | 8.85802 | 83° | 11km/h | 33102m | -34m/s | -35.4°C | 0% | 7.8hPa | 2.5V | 03:07:07 | 02:12:16 | 00:00:00 | |
| DF8AY | 2026-09-04 18:42:05 | 49.76875 | 8.85798 | 69° | 11km/h | 33137m | -35.8m/s | -35.2°C | 0% | 7.7hPa | 2.6V | 03:07:07 | 02:12:15 | 00:00:00 | |
| DL1XH-west | 2026-09-04 18:42:01 | 49.76864 | 8.85781 | 35° | 22km/h | 33268m | -34.6m/s | -34.6°C | 0% | 7.6hPa | 2.6V | 03:07:07 | 02:12:11 | 00:00:00 | |
| DB0ND-19 | 2026-09-04 18:42:01 | 49.76859 | 8.85776 | 40° | 24km/h | 33301m | -33.0m/s | -34.5°C | 0.3% | 7.6hPa | 2.7V | 00:00:00 | 00:00:00 | 00:00:00 | |
| DD1CC8 | 2026-09-04 18:42:00 | 49.76859 | 8.85776 | 40° | 24km/h | 33301m | -33.0m/s | -34.5°C | 0.3% | 7.6hPa | 2.7V | 00:00:00 | 00:00:00 | 00:00:00 | |
| DL1XH1-15 | 2026-09-04 18:41:59 | 49.76844 | 8.85718 | 76° | 33km/h | 33498m | -33.5m/s | -34.3°C | 1.6% | 7.3hPa | 2.7V | 03:06:48 | 02:12:04 | 00:00:00 | |
| AA1-15 | 2026-09-04 18:41:59 | 49.76855 | 8.85769 | 51° | 24km/h | 33333m | -30.9m/s | -34.4°C | 0% | 7.5hPa | 2.6V | 03:07:07 | 02:12:09 | 00:00:00 | |
| BIOWL9-15 | 2026-09-04 18:41:58 | 49.76850 | 8.85752 | 67° | 24km/h | 33397m | -31.6m/s | -34.2°C | 0.3% | 7.5hPa | 2.6V | 00:00:00 | 00:00:00 | 00:00:00 | |
| DM0DOS-11 | 2026-09-04 18:41:57 | 49.76847 | 8.85742 | 74° | 29km/h | 33430m | -34.1m/s | -34.2°C | 1.6% | 7.4hPa | 2.6V | 03:06:46 | 02:12:06 | 00:00:00 | |
| BIOWL1-15 | 2026-09-04 18:41:56 | 49.76847 | 8.85742 | 74° | 29km/h | 33430m | -34.2m/s | -34.2°C | 0% | 7.4hPa | 2.6V | 03:07:07 | 02:12:06 | 00:00:00 | |
| DF8AY | 2026-09-04 18:41:54 | 49.76844 | 8.85718 | 77° | 33km/h | 33498m | -33.6m/s | -34.3°C | 0% | 7.3hPa | 2.7V | 03:07:07 | 02:12:04 | 00:00:00 | |
| DL1XH-west | 2026-09-04 18:41:50 | 49.76830 | 8.85671 | 51° | 35km/h | 33616m | -26m/s | -34.8°C | 0% | 7.2hPa | 2.6V | 03:07:07 | 02:12:00 | 00:00:00 | |
| DL1XH1-15 | 2026-09-04 18:41:49 | 49.76811 | 8.85600 | 76° | 40km/h | 33790m | -28.6m/s | -35.1°C | 1.7% | 7hPa | 2.7V | 03:06:58 | 02:11:54 | 00:00:00 | |
| AA1-15 | 2026-09-04 18:41:49 | 49.76824 | 8.85660 | 46° | 37km/h | 33640m | -22.1m/s | -34.9°C | 0% | 7.2hPa | 2.7V | 03:07:07 | 02:11:59 | 00:00:00 | |
| DL1XH-15 | 2026-09-04 18:41:48 | 49.76808 | 8.85584 | 72° | 44km/h | 33818m | -27.7m/s | -35°C | 1.6% | 7hPa | 2.7V | 03:06:59 | 02:11:53 | 00:00:00 | |
| DL1ZP-14 | 2026-09-04 18:41:48 | 49.76819 | 8.85650 | 58° | 29km/h | 33664m | -26.2m/s | -34.9°C | 0.3% | 7.1hPa | 2.7V | 00:00:00 | 00:00:00 | 00:00:00 | |
| DM0DOS-11 | 2026-09-04 18:41:47 | 49.76814 | 8.85627 | 82° | 31km/h | 33730m | -32.9m/s | -35°C | 1.7% | 7.1hPa | 2.6V | 03:06:56 | 02:11:56 | 00:00:00 | |
| BIOWL1-15 | 2026-09-04 18:41:45 | 49.76813 | 8.85615 | 80° | 35km/h | 33761m | -29.4m/s | -35.1°C | 0% | 7hPa | 2.6V | 03:07:07 | 02:11:55 | 00:00:00 | |
| DF8AY | 2026-09-04 18:41:44 | 49.76811 | 8.85600 | 77° | 40km/h | 33790m | -28.6m/s | -35.1°C | 0% | 7hPa | 2.7V | 03:07:07 | 02:11:54 | 00:00:00 | |
| DL1XH-west | 2026-09-04 18:41:40 | 49.76794 | 8.85539 | 58° | 40km/h | 33900m | -28.7m/s | -35°C | 0% | 6.9hPa | 2.6V | 03:07:07 | 02:11:50 | 00:00:00 | |
| DB0UT-7 | 2026-09-04 18:41:40 | 49.76794 | 8.85539 | 58° | 35km/h | 33900m | -28.6m/s | -35.0°C | 1.6% | 6.8hPa | 2.6V | 00:00:00 | 02:11:50 | 00:00:00 | |
| DL1XH1-15 | 2026-09-04 18:41:39 | 49.76790 | 8.85470 | 100° | 31km/h | 34073m | -12.8m/s | -35.7°C | 1.7% | 6.7hPa | 2.6V | 03:07:08 | 02:11:44 | 00:00:00 | |
| DL1XH-15 | 2026-09-04 18:41:38 | 49.76791 | 8.85458 | 101° | 31km/h | 34081m | -3.3m/s | -35.8°C | 1.8% | 6.7hPa | 2.6V | 03:07:09 | 02:11:43 | 00:00:00 | |
| AA1-15 | 2026-09-04 18:41:38 | 49.76786 | 8.85517 | 72° | 27km/h | 33961m | -30.3m/s | -35.2°C | 0% | 6.8hPa | 2.6V | 03:07:07 | 02:11:48 | 00:00:00 | |
| BIOWL1-15 | 2026-09-04 18:41:35 | 49.76788 | 8.85482 | 100° | 31km/h | 34056m | -22.1m/s | -35.7°C | 0% | 6.7hPa | 2.7V | 03:07:07 | 02:11:45 | 00:00:00 | |
| HSKMA3-T | 2026-09-04 18:41:34 | 49.76790 | 8.85470 | 101° | 31km/h | 34074m | -12.8m/s | -35.8°C | 0% | 6.7hPa | 2.6V | 03:07:58 | 02:11:44 | 00:00:00 | |
| DF8AY | 2026-09-04 18:41:33 | 49.76791 | 8.85458 | 102° | 31km/h | 34081m | -3.3m/s | -35.8°C | 0% | 6.7hPa | 2.6V | 03:07:58 | 02:11:43 | 00:00:00 | |
| DL1XH-west | 2026-09-04 18:41:30 | 49.76795 | 8.85421 | 90° | 31km/h | 34068m | 5.2m/s | -35.8°C | 0% | 6.7hPa | 2.7V | 03:07:58 | 02:11:40 | 00:00:00 | |
| DB0ND-19 | 2026-09-04 18:41:30 | 49.76794 | 8.85409 | 83° | 31km/h | 34063m | 5.0m/s | -35.8°C | 0.3% | 6.7hPa | 2.6V | 00:00:00 | 00:00:00 | 00:00:00 | |
| DD1CC8 | 2026-09-04 18:41:29 | 49.76793 | 8.85397 | 76° | 31km/h | 34058m | 5.0m/s | -35.8°C | 0.3% | 6.7hPa | 2.6V | 00:00:00 | 00:00:00 | 00:00:00 | |
| DL1XH-15 | 2026-09-04 18:41:28 | 49.76777 | 8.85333 | 65° | 38km/h | 34029m | 5.4m/s | -35.6°C | 1.8% | 6.7hPa | 2.6V | 03:07:19 | 02:11:33 | 00:00:00 | |
| AA1-15 | 2026-09-04 18:41:27 | 49.76790 | 8.85384 | 72° | 35km/h | 34053m | 5.4m/s | -35.8°C | 0% | 6.7hPa | 2.6V | 03:07:58 | 02:11:37 | 00:00:00 | |
| BIOWL1-15 | 2026-09-04 18:41:25 | 49.76784 | 8.85359 | 68° | 35km/h | 34041m | 6.1m/s | -35.7°C | 0% | 6.7hPa | 2.7V | 03:07:58 | 02:11:35 | 00:00:00 | |
| HSKMA3-T | 2026-09-04 18:41:24 | 49.76781 | 8.85346 | 67° | 37km/h | 34035m | 5.8m/s | -35.7°C | 0% | 6.7hPa | 2.7V | 03:07:58 | 02:11:34 | 00:00:00 | |
| DF8AY | 2026-09-04 18:41:21 | 49.76768 | 8.85304 | 62° | 44km/h | 34018m | 5.3m/s | -35.6°C | 0% | 6.8hPa | 2.6V | 03:07:58 | 02:11:31 | 00:00:00 | |
| DL1XH-west | 2026-09-04 18:41:20 | 49.76762 | 8.85289 | 60° | 46km/h | 34013m | 6.1m/s | -35.5°C | 0% | 6.7hPa | 2.6V | 03:07:58 | 02:11:30 | 00:00:00 | |
| SONDE2-11 | 2026-09-04 18:41:19 | 49.76756 | 8.85274 | 59° | 46km/h | 34007m | 5.9m/s | -35.5°C | 0.3% | 6.8hPa | 2.7V | 00:00:00 | 00:00:00 | 00:00:00 | |
| DL1XH-15 | 2026-09-04 18:41:18 | 49.76739 | 8.85194 | 98° | 26km/h | 33973m | 6m/s | -35.2°C | 1.7% | 6.8hPa | 2.7V | 03:07:29 | 02:11:23 | 00:00:00 | |
| DM0DOS-11 | 2026-09-04 18:41:17 | 49.76742 | 8.85229 | 70° | 37km/h | 33991m | 4.9m/s | -35.4°C | 1.8% | 6.8hPa | 2.6V | 03:07:26 | 02:11:26 | 00:00:00 | |
| AA1-15 | 2026-09-04 18:41:17 | 49.76746 | 8.85243 | 64° | 42km/h | 33996m | 4.7m/s | -35.4°C | 0% | 6.8hPa | 2.7V | 03:07:58 | 02:11:27 | 00:00:00 | |
| HSKMA3-T | 2026-09-04 18:41:14 | 49.76739 | 8.85205 | 91° | 27km/h | 33980m | 6.8m/s | -35.3°C | 0% | 6.8hPa | 2.6V | 03:07:58 | 02:11:24 | 00:00:00 | |
| DF8AY | 2026-09-04 18:41:12 | 49.76740 | 8.85174 | 84° | 27km/h | 33964m | 4m/s | -35.2°C | 0% | 6.8hPa | 2.6V | 03:07:58 | 02:11:21 | 00:00:00 | |
| DL1XH-west | 2026-09-04 18:41:09 | 49.76734 | 8.85150 | 59° | 38km/h | 33954m | 6.6m/s | -35.2°C | 0% | 6.8hPa | 2.6V | 03:07:58 | 02:11:19 | 00:00:00 | |
| DL1XH-15 | 2026-09-04 18:41:08 | 49.76690 | 8.85058 | 69° | 37km/h | 33922m | 6m/s | -35.1°C | 1.7% | 6.8hPa | 2.7V | 03:07:39 | 02:11:13 | 00:00:00 | |
| DM0DOS-11 | 2026-09-04 18:41:07 | 49.76710 | 8.85105 | 49° | 57km/h | 33935m | 4.2m/s | -35.1°C | 1.7% | 6.8hPa | 2.6V | 03:07:36 | 02:11:16 | 00:00:00 | |
| AA1-15 | 2026-09-04 18:41:07 | 49.76719 | 8.85121 | 49° | 55km/h | 33940m | 5.8m/s | -35.2°C | 0% | 6.8hPa | 2.7V | 03:07:58 | 02:11:17 | 00:00:00 | |
| BIOWL1-15 | 2026-09-04 18:41:04 | 49.76694 | 8.85072 | 59° | 46km/h | 33927m | 4.6m/s | -35.1°C | 0% | 6.8hPa | 2.7V | 03:07:58 | 02:11:14 | 00:00:00 | |
| DF8AY | 2026-09-04 18:41:00 | 49.76691 | 8.85026 | 118° | 24km/h | 33903m | 5.3m/s | -35.1°C | 0% | 6.8hPa | 2.6V | 03:07:58 | 02:11:10 | 00:00:00 | |
| DL1XH-west | 2026-09-04 18:40:59 | 49.76693 | 8.85018 | 118° | 24km/h | 33898m | 4.3m/s | -35.1°C | 0% | 6.9hPa | 2.7V | 03:07:58 | 02:11:09 | 00:00:00 | |
| DL1XH1-15 | 2026-09-04 18:40:59 | 49.76683 | 8.84962 | 55° | 47km/h | 33871m | 5.8m/s | -35.1°C | 1.7% | 6.9hPa | 2.7V | 03:07:48 | 02:11:04 | 00:00:00 | |
| DB0ND-19 | 2026-09-04 18:40:59 | 49.76696 | 8.85009 | 102° | 22km/h | 33894m | 4.9m/s | -35.1°C | 0.3% | 6.9hPa | 2.6V | 00:00:00 | 00:00:00 | 00:00:00 | |
| DD1CC8 | 2026-09-04 18:40:58 | 49.76696 | 8.85000 | 83° | 26km/h | 33889m | 5.5m/s | -35.1°C | 0.3% | -1.0hPa | 2.6V | 00:00:00 | 00:00:00 | 00:00:00 | |
| DM0DOS-11 | 2026-09-04 18:40:57 | 49.76694 | 8.84989 | 67° | 33km/h | 33882m | 5.8m/s | -35.1°C | 1.7% | 6.9hPa | 2.6V | 03:07:46 | 02:11:06 | 00:00:00 | |
| AA1-15 | 2026-09-04 18:40:56 | 49.76694 | 8.84989 | 68° | 33km/h | 33882m | 5.8m/s | -35.1°C | 0% | 6.9hPa | 2.6V | 03:07:58 | 02:11:06 | 00:00:00 | |
| HSKMA3-T | 2026-09-04 18:40:53 | 49.76677 | 8.84946 | 55° | 49km/h | 33865m | 5.6m/s | -35.1°C | 0% | 6.9hPa | 2.7V | 03:07:58 | 02:11:03 | 00:00:00 | |
| DF8AY | 2026-09-04 18:40:50 | 49.76659 | 8.84900 | 69° | 40km/h | 33848m | 5.6m/s | -35.2°C | 0% | 6.9hPa | 2.6V | 03:07:58 | 02:11:00 | 00:00:00 | |
| DL1XH-west | 2026-09-04 18:40:49 | 49.76657 | 8.84886 | 79° | 35km/h | 33843m | 5.6m/s | -35.2°C | 0% | 6.9hPa | 2.6V | 03:07:58 | 02:10:59 | 00:00:00 | |
| GOEST3-10 | 2026-09-04 18:40:49 | 49.76657 | 8.84886 | 79° | 31km/h | 33843m | 5.6m/s | -35.2°C | 1.7% | 6.9hPa | 2.6V | 00:00:00 | 02:10:59 | 00:00:00 | |
| NBG1-10 | 2026-09-04 18:40:48 | 49.76656 | 8.84873 | 88° | 33km/h | 33837m | 5.4m/s | -35.2°C | 1.7% | 6.9hPa | 2.6V | 00:00:00 | 02:10:58 | 00:00:00 | |
| DM0DOS-11 | 2026-09-04 18:40:47 | 49.76655 | 8.84839 | 81° | 29km/h | 33821m | 5.5m/s | -35.5°C | 1.7% | 7hPa | 2.7V | 03:07:57 | 02:10:55 | 00:00:00 | |
| AA1-15 | 2026-09-04 18:40:45 | 49.76655 | 8.84839 | 81° | 29km/h | 33821m | 5.5m/s | -35.5°C | 0% | 7hPa | 2.7V | 03:07:58 | 02:10:55 | 00:00:00 | |
| HSKMA3-T | 2026-09-04 18:40:43 | 49.76650 | 8.84817 | 62° | 35km/h | 33810m | 5.7m/s | -35.4°C | 0% | 6.9hPa | 2.6V | 03:08:49 | 02:10:53 | 00:00:00 | |
| BIOWL1-15 | 2026-09-04 18:40:42 | 49.76645 | 8.84805 | 56° | 37km/h | 33804m | 5.3m/s | -35.3°C | 0% | 7hPa | 2.6V | 03:08:49 | 02:10:52 | 00:00:00 | |
| DF8AY | 2026-09-04 18:40:40 | 49.76634 | 8.84781 | 53° | 38km/h | 33794m | 5.2m/s | -35.3°C | 0% | 7hPa | 2.7V | 03:08:49 | 02:10:50 | 00:00:00 | |
| DL1XH-west | 2026-09-04 18:40:38 | 49.76624 | 8.84758 | 59° | 33km/h | 33782m | 6.2m/s | -35.3°C | 0% | 7hPa | 2.6V | 03:08:49 | 02:10:48 | 00:00:00 | |
| DL1XH-15 | 2026-09-04 18:40:38 | 49.76606 | 8.84711 | 49° | 31km/h | 33754m | 6.1m/s | -35.2°C | 1.7% | 7hPa | 2.6V | 03:08:09 | 02:10:43 | 00:00:00 | |
| DM0DOS-11 | 2026-09-04 18:40:37 | 49.76614 | 8.84729 | 61° | 26km/h | 33765m | 5.1m/s | -35.2°C | 1.7% | 7hPa | 2.7V | 03:08:07 | 02:10:45 | 00:00:00 | |
| AA1-15 | 2026-09-04 18:40:35 | 49.76614 | 8.84729 | 62° | 26km/h | 33765m | 5.1m/s | -35.2°C | 0% | 7hPa | 2.7V | 03:08:49 | 02:10:45 | 00:00:00 | |
| BIOWL1-15 | 2026-09-04 18:40:32 | 49.76600 | 8.84702 | 46° | 33km/h | 33748m | 5.8m/s | -35.2°C | 0% | 7hPa | 2.7V | 03:08:49 | 02:10:42 | 00:00:00 | |
| DF8AY | 2026-09-04 18:40:29 | 49.76582 | 8.84671 | 52° | 35km/h | 33733m | 4.6m/s | -35.3°C | 0% | 7hPa | 2.6V | 03:08:49 | 02:10:39 | 00:00:00 | |
| DL1XH-west | 2026-09-04 18:40:28 | 49.76577 | 8.84660 | 60° | 33km/h | 33728m | 5.6m/s | -35.3°C | 0% | 7.1hPa | 2.6V | 03:08:49 | 02:10:38 | 00:00:00 | |
| DL1XH-15 | 2026-09-04 18:40:28 | 49.76568 | 8.84601 | 77° | 33km/h | 33700m | 5m/s | -35.2°C | 1.7% | 7.1hPa | 2.6V | 03:08:19 | 02:10:33 | 00:00:00 | |
| GOEST3-10 | 2026-09-04 18:40:28 | 49.76577 | 8.84660 | 61° | 31km/h | 33729m | 5.5m/s | -35.2°C | 1.7% | 7.0hPa | 2.6V | 00:00:00 | 02:10:38 | 00:00:00 | |
| DM0DOS-11 | 2026-09-04 18:40:27 | 49.76570 | 8.84626 | 85° | 31km/h | 33710m | 5.3m/s | -35.2°C | 1.7% | 7.1hPa | 2.6V | 03:08:17 | 02:10:35 | 00:00:00 | |
| AA1-15 | 2026-09-04 18:40:25 | 49.76570 | 8.84626 | 86° | 31km/h | 33710m | 5.3m/s | -35.2°C | 0% | 7.1hPa | 2.6V | 03:08:49 | 02:10:35 | 00:00:00 | |
| HSKMA3-T | 2026-09-04 18:40:22 | 49.76566 | 8.84589 | 69° | 37km/h | 33695m | 6.1m/s | -35.2°C | 0% | 7.1hPa | 2.7V | 03:08:49 | 02:10:32 | 00:00:00 | |
| HARRO8 | 2026-09-04 18:40:21 | 49.76562 | 8.84575 | 60° | 38km/h | 33689m | 6.3m/s | -35.1°C | 0.3% | 7.1hPa | 2.7V | 00:00:00 | 00:00:00 | 00:00:00 | |
| BIOWL7-15 | 2026-09-04 18:40:20 | 49.76562 | 8.84575 | 62° | 40km/h | 33689m | 6.3m/s | -35.1°C | 0.3% | 7.1hPa | 2.7V | 00:00:00 | 00:00:00 | 00:00:00 | |
| DL1XH1-15 | 2026-09-04 18:40:19 | 49.76531 | 8.84494 | 84° | 24km/h | 33650m | 5.3m/s | -35°C | 1.7% | 7.1hPa | 2.7V | 03:08:28 | 02:10:24 | 00:00:00 | |
| DF8AY | 2026-09-04 18:40:19 | 49.76550 | 8.84548 | 53° | 42km/h | 33677m | 4.9m/s | -35.1°C | 0% | 7.1hPa | 2.6V | 03:08:49 | 02:10:29 | 00:00:00 | |
| DM0DOS-11 | 2026-09-04 18:40:18 | 49.76532 | 8.84503 | 74° | 26km/h | 33655m | 5.9m/s | -35°C | 1.7% | 7.1hPa | 2.7V | 03:08:27 | 02:10:25 | 00:00:00 | |
| DL1XH-west | 2026-09-04 18:40:17 | 49.76538 | 8.84524 | 57° | 35km/h | 33667m | 5.6m/s | -35.1°C | 0% | 7.1hPa | 2.6V | 03:08:49 | 02:10:27 | 00:00:00 | |
| AA1-15 | 2026-09-04 18:40:14 | 49.76531 | 8.84494 | 85° | 24km/h | 33650m | 5.3m/s | -35°C | 0% | 7.1hPa | 2.7V | 03:08:49 | 02:10:24 | 00:00:00 | |
| BIOWL1-15 | 2026-09-04 18:40:11 | 49.76529 | 8.84463 | 77° | 31km/h | 33633m | 6m/s | -34.9°C | 0% | 7.2hPa | 2.6V | 03:08:49 | 02:10:21 | 00:00:00 | |
| DB0UT-7 | 2026-09-04 18:40:10 | 49.76527 | 8.84451 | 71° | 31km/h | 33628m | 5.7m/s | -34.8°C | 1.7% | 7.1hPa | 2.7V | 00:00:00 | 00:00:00 | 00:00:00 | |
| DL1XH1-15 | 2026-09-04 18:40:09 | 49.76503 | 8.84377 | 64° | 29km/h | 33594m | 5.2m/s | -34.6°C | 1.7% | 7.2hPa | 2.7V | 03:08:38 | 02:10:14 | 00:00:00 | |
| DF8AY | 2026-09-04 18:40:09 | 49.76523 | 8.84438 | 65° | 38km/h | 33622m | 5.2m/s | -34.8°C | 0% | 7.1hPa | 2.7V | 03:08:49 | 02:10:19 | 00:00:00 | |
| DL1XH-west | 2026-09-04 18:40:06 | 49.76510 | 8.84399 | 62° | 35km/h | 33606m | 6.1m/s | -34.7°C | 0% | 7.2hPa | 2.6V | 03:08:49 | 02:10:16 | 00:00:00 | |
| AA1-15 | 2026-09-04 18:40:04 | 49.76503 | 8.84377 | 64° | 29km/h | 33594m | 5.2m/s | -34.7°C | 0% | 7.2hPa | 2.7V | 03:08:49 | 02:10:14 | 00:00:00 | |
| DF8AY | 2026-09-04 18:40:03 | 49.76481 | 8.84305 | 69° | 38km/h | 33561m | 4.8m/s | -34.6°C | 0% | 7.2hPa | 2.6V | 03:08:49 | 02:10:08 | 00:00:00 | |
| HSKMA3-T | 2026-09-04 18:40:01 | 49.76493 | 8.84345 | 65° | 35km/h | 33578m | 6m/s | -34.6°C | 0% | 7.2hPa | 2.6V | 03:08:49 | 02:10:11 | 00:00:00 | |
| AU51GT2 | 2026-09-04 18:40:00 | 49.76489 | 8.84332 | 65° | 37km/h | 33573m | 6.2m/s | -34.6°C | 0.3% | 7.2hPa | 2.7V | 00:00:00 | 00:00:00 | 00:00:00 | |
| DL1XH1-15 | 2026-09-04 18:39:59 | 49.76474 | 8.84256 | 91° | 24km/h | 33538m | 6.3m/s | -34.4°C | 1.7% | 7.3hPa | 2.7V | 03:08:48 | 02:10:04 | 00:00:00 | |
| DL1XH-west | 2026-09-04 18:39:55 | 49.76475 | 8.84266 | 85° | 27km/h | 33545m | 6.7m/s | -34.5°C | 0% | 7.2hPa | 2.7V | 03:08:49 | 02:10:05 | 00:00:00 | |
| AA1-15 | 2026-09-04 18:39:53 | 49.76475 | 8.84248 | 93° | 22km/h | 33533m | 5.2m/s | -34.4°C | 0% | 7.3hPa | 2.6V | 03:08:49 | 02:10:03 | 00:00:00 | |
| BIOWL1-15 | 2026-09-04 18:39:52 | 49.76470 | 8.84222 | 60° | 29km/h | 33518m | 5.9m/s | -34.3°C | 0% | 7.3hPa | 2.7V | 03:09:40 | 02:10:00 | 00:00:00 | |
| HSKMA3-T | 2026-09-04 18:39:51 | 49.76473 | 8.84231 | 71° | 24km/h | 33523m | 4.9m/s | -34.3°C | 0% | 7.3hPa | 2.6V | 03:09:40 | 02:10:01 | 00:00:00 | |
| HARRO8 | 2026-09-04 18:39:50 | 49.76470 | 8.84222 | 60° | 29km/h | 33518m | 5.9m/s | -34.3°C | 0.3% | 7.3hPa | 2.7V | 00:00:00 | 00:00:00 | 00:00:00 | |
| DC4HF-4 | 2026-09-04 18:39:49 | 49.76459 | 8.84199 | 49° | 42km/h | 33505m | 6.1m/s | -34.3°C | 0.3% | 7.3hPa | 2.7V | 00:00:00 | 00:00:00 | 00:00:00 | |
| DL1XH-15 | 2026-09-04 18:39:48 | 49.76433 | 8.84137 | 81° | 26km/h | 33479m | 6.4m/s | -34.3°C | 1.6% | 7.3hPa | 2.7V | 03:08:59 | 02:09:53 | 00:00:00 | |
| DF8AY | 2026-09-04 18:39:48 | 49.76459 | 8.84199 | 50° | 44km/h | 33505m | 6.1m/s | -34.3°C | 0% | 7.3hPa | 2.7V | 03:09:40 | 02:09:58 | 00:00:00 | |
| DO1YAY-16 | 2026-09-04 18:39:46 | 49.76439 | 8.84159 | 58° | 37km/h | 33491m | 4.7m/s | -34.3°C | 0.3% | 7.3hPa | 2.6V | 00:00:00 | 00:00:00 | 00:00:00 | |
| EDDB2-11 | 2026-09-04 18:39:45 | 49.76439 | 8.84159 | 58° | 37km/h | 33491m | 4.7m/s | -34.3°C | 0.3% | 7.3hPa | 2.6V | 00:00:00 | 00:00:00 | 00:00:00 | |
| DL1XH-west | 2026-09-04 18:39:44 | 49.76435 | 8.84148 | 67° | 31km/h | 33485m | 6.1m/s | -34.3°C | 0% | 7.3hPa | 2.6V | 03:09:40 | 02:09:54 | 00:00:00 | |
| AA1-15 | 2026-09-04 18:39:43 | 49.76433 | 8.84137 | 82° | 26km/h | 33479m | 6.4m/s | -34.3°C | 0% | 7.3hPa | 2.7V | 03:09:40 | 02:09:53 | 00:00:00 | |
| BIOWL1-15 | 2026-09-04 18:39:42 | 49.76436 | 8.84113 | 110° | 20km/h | 33462m | 4.9m/s | -34.3°C | 0% | 7.3hPa | 2.6V | 03:09:40 | 02:09:50 | 00:00:00 | |
| HSKMA3-T | 2026-09-04 18:39:41 | 49.76434 | 8.84120 | 110° | 20km/h | 33467m | 5.4m/s | -34.3°C | 0% | 7.3hPa | 2.7V | 03:09:40 | 02:09:51 | 00:00:00 | |
| DL0LBS | 2026-09-04 18:39:41 | 49.76434 | 8.84120 | 111° | 20km/h | 33467m | 5.4m/s | -34.3°C | 0.3% | 7.3hPa | 2.6V | 03:09:00 | 00:00:00 | 00:00:00 | |
| GOEST3-10 | 2026-09-04 18:39:40 | 49.76436 | 8.84113 | 110° | 24km/h | 33462m | 4.9m/s | -34.3°C | 1.6% | 7.3hPa | 2.6V | 00:00:00 | 00:00:00 | 00:00:00 | |
| DJ2DS-15 | 2026-09-04 18:39:39 | 49.76437 | 8.84105 | 98° | 22km/h | 33457m | 5.0m/s | -34.3°C | 0.3% | 7.4hPa | 2.6V | 00:00:00 | 00:00:00 | 00:00:00 | |
| DL1XH-15 | 2026-09-04 18:39:38 | 49.76417 | 8.84037 | 53° | 35km/h | 33425m | 4.9m/s | -34.4°C | 1.6% | 7.4hPa | 2.6V | 03:09:09 | 02:09:43 | 00:00:00 | |
| DF8AY | 2026-09-04 18:39:38 | 49.76437 | 8.84096 | 83° | 26km/h | 33451m | 5.4m/s | -34.4°C | 0% | 7.3hPa | 2.6V | 03:09:40 | 02:09:48 | 00:00:00 | |
| DL1XH-west | 2026-09-04 18:39:34 | 49.76422 | 8.84049 | 54° | 38km/h | 33430m | 4.5m/s | -34.4°C | 0% | 7.4hPa | 2.7V | 03:09:40 | 02:09:44 | 00:00:00 | |
| AA1-15 | 2026-09-04 18:39:32 | 49.76412 | 8.84028 | 55° | 27km/h | 33420m | 5.8m/s | -34.4°C | 0% | 7.4hPa | 2.6V | 03:09:40 | 02:09:42 | 00:00:00 | |
| HSKMA3-T | 2026-09-04 18:39:30 | 49.76407 | 8.84014 | 66° | 13km/h | 33408m | 6m/s | -34.4°C | 0% | 7.4hPa | 2.7V | 03:09:40 | 02:09:40 | 00:00:00 | |
| BIOWL1-15 | 2026-09-04 18:39:29 | 49.76406 | 8.84010 | 73° | 11km/h | 33402m | 5.5m/s | -34.5°C | 0% | 7.4hPa | 2.7V | 03:09:40 | 02:09:39 | 00:00:00 | |
| PG1ADW-2 | 2026-09-04 18:39:29 | 49.76406 | 8.84010 | 74° | 20km/h | 33402m | 5.4m/s | -34.4°C | 1.6% | 7.4hPa | 2.7V | 00:00:00 | 00:00:00 | 00:00:00 | |
| DL1KLB | 2026-09-04 18:39:28 | 49.76405 | 8.84006 | 76° | 11km/h | 33397m | 4.9m/s | -34.5°C | 0.3% | 7.4hPa | 2.7V | 03:09:00 | 00:00:00 | 00:00:00 | |
| DM0DOS-11 | 2026-09-04 18:39:26 | 49.76399 | 8.83989 | 55° | 26km/h | 33380m | 5.9m/s | -34.6°C | 1.6% | 7.4hPa | 2.7V | 03:09:17 | 02:09:35 | 00:00:00 | |
| DL1XH-west | 2026-09-04 18:39:23 | 49.76389 | 8.83970 | 53° | 33km/h | 33369m | 5m/s | -34.7°C | 0% | 7.4hPa | 2.6V | 03:09:40 | 02:09:33 | 00:00:00 | |
| AA1-15 | 2026-09-04 18:39:22 | 49.76384 | 8.83960 | 53° | 33km/h | 33364m | 5.2m/s | -34.7°C | 0% | 7.5hPa | 2.6V | 03:09:40 | 02:09:32 | 00:00:00 | |
| HSKMA3-T | 2026-09-04 18:39:20 | 49.76376 | 8.83941 | 59° | 24km/h | 33352m | 6.1m/s | -34.8°C | 0% | 7.5hPa | 2.7V | 03:09:40 | 02:09:30 | 00:00:00 | |
| BIOWL1-15 | 2026-09-04 18:39:19 | 49.76373 | 8.83933 | 64° | 20km/h | 33347m | 5.7m/s | -34.9°C | 0% | 7.5hPa | 2.7V | 03:09:40 | 02:09:29 | 00:00:00 | |
| DF8AY | 2026-09-04 18:39:15 | 49.76366 | 8.83911 | 54° | 18km/h | 33325m | 6.1m/s | -35°C | 0% | 7.5hPa | 2.6V | 03:09:40 | 02:09:25 | 00:00:00 | |
| DL1XH-west | 2026-09-04 18:39:12 | 49.76357 | 8.83893 | 52° | 20km/h | 33309m | 4.9m/s | -35.1°C | 0% | 7.5hPa | 2.7V | 03:09:40 | 02:09:22 | 00:00:00 | |
| AA1-15 | 2026-09-04 18:39:11 | 49.76354 | 8.83887 | 58° | 16km/h | 33304m | 5.6m/s | -35.1°C | 0% | 7.5hPa | 2.7V | 03:09:40 | 02:09:21 | 00:00:00 | |
| BIOWL1-15 | 2026-09-04 18:39:10 | 49.76351 | 8.83873 | 83° | 9km/h | 33286m | 5.2m/s | -35.2°C | 0% | 7.5hPa | 2.6V | 03:09:40 | 02:09:18 | 00:00:00 | |
| HSKMA3-T | 2026-09-04 18:39:09 | 49.76351 | 8.83877 | 77° | 11km/h | 33292m | 6m/s | -35.1°C | 0% | 7.5hPa | 2.6V | 03:09:40 | 02:09:19 | 00:00:00 | |
| NBG1-10 | 2026-09-04 18:39:09 | 49.76351 | 8.83877 | 78° | 11km/h | 33292m | 5.9m/s | -35.1°C | 1.6% | 7.5hPa | 2.6V | 00:00:00 | 02:09:19 | 00:00:00 | |
| PG1ADW-2 | 2026-09-04 18:39:08 | 49.76351 | 8.83873 | 84° | 13km/h | 33287m | 5.2m/s | -35.1°C | 1.7% | 7.5hPa | 2.6V | 03:09:00 | 00:00:00 | 00:00:00 | |
| DL1KLB | 2026-09-04 18:39:07 | 49.76351 | 8.83873 | 84° | 9km/h | 33287m | 5.2m/s | -35.1°C | 0.3% | 7.5hPa | 2.6V | 03:09:00 | 00:00:00 | 00:00:00 | |
| DM0DOS-11 | 2026-09-04 18:39:06 | 49.76347 | 8.83862 | 48° | 15km/h | 33270m | 6m/s | -35.2°C | 1.7% | 7.5hPa | 2.6V | 03:09:37 | 02:09:15 | 00:00:00 | |
| DF8AY | 2026-09-04 18:39:05 | 49.76348 | 8.83862 | 48° | 15km/h | 33270m | 6m/s | -35.2°C | 0% | 7.5hPa | 2.6V | 03:09:40 | 02:09:15 | 00:00:00 | |
| DL1XH-west | 2026-09-04 18:39:02 | 49.76336 | 8.83848 | 34° | 20km/h | 33254m | 4.6m/s | -35.3°C | 0% | 7.6hPa | 2.7V | 03:09:40 | 02:09:12 | 00:00:00 | |
| BIOWL1-15 | 2026-09-04 18:39:00 | 49.76328 | 8.83838 | 125° | 4km/h | 33232m | 5.5m/s | -35.3°C | 0% | 7.6hPa | 2.6V | 03:10:31 | 02:09:08 | 00:00:00 | |
| AA1-15 | 2026-09-04 18:39:00 | 49.76329 | 8.83841 | 38° | 11km/h | 33244m | 6.1m/s | -35.3°C | 0% | 7.6hPa | 2.6V | 03:10:31 | 02:09:10 | 00:00:00 | |
| GOEST3-10 | 2026-09-04 18:38:59 | 49.76328 | 8.83839 | 59° | 5km/h | 33238m | 6.1m/s | 0°C | 0% | 0hPa | 2.6V | 00:00:00 | 02:09:09 | 00:00:00 | |
| HSKMA3-T | 2026-09-04 18:38:59 | 49.76328 | 8.83839 | 58° | 5km/h | 33238m | 6.1m/s | -35.3°C | 0% | 7.6hPa | 2.6V | 03:10:31 | 02:09:09 | 00:00:00 | |
| DL1XH-15 | 2026-09-04 18:38:58 | 49.76325 | 8.83825 | 47° | 18km/h | 33204m | 5.7m/s | -35.4°C | 1.7% | 7.6hPa | 2.6V | 03:09:49 | 02:09:03 | 00:00:00 | |
| DF8AY | 2026-09-04 18:38:54 | 49.76328 | 8.83829 | 55° | 13km/h | 33210m | 6.2m/s | -35.4°C | 0% | 7.6hPa | 2.6V | 03:10:31 | 02:09:04 | 00:00:00 | |
| DL1XH-west | 2026-09-04 18:38:51 | 49.76318 | 8.83814 | 41° | 20km/h | 33194m | 4.9m/s | -35.5°C | 0% | 7.6hPa | 2.6V | 03:10:31 | 02:09:01 | 00:00:00 | |
| AA1-15 | 2026-09-04 18:38:49 | 49.76312 | 8.83805 | 45° | 11km/h | 33183m | 6m/s | -35.6°C | 0% | 7.6hPa | 2.7V | 03:10:31 | 02:08:59 | 00:00:00 | |
| GOEST3-10 | 2026-09-04 18:38:49 | 49.76312 | 8.83805 | 45° | 5km/h | 33184m | 6.0m/s | 0°C | 0% | 0hPa | 2.7V | 00:00:00 | 02:08:59 | 00:00:00 | |
| DL1XH-15 | 2026-09-04 18:38:48 | 49.76306 | 8.83795 | 37° | 13km/h | 33150m | 6.2m/s | -35.9°C | 1.7% | 7.7hPa | 2.7V | 03:09:59 | 02:08:53 | 00:00:00 | |
| HSKMA3-T | 2026-09-04 18:38:48 | 49.76310 | 8.83803 | 48° | 7km/h | 33177m | 6m/s | -35.6°C | 0% | 7.6hPa | 2.7V | 03:10:31 | 02:08:58 | 00:00:00 | |
| BIOWL1-15 | 2026-09-04 18:38:47 | 49.76309 | 8.83801 | 62° | 4km/h | 33171m | 5.4m/s | -35.7°C | 0% | 7.7hPa | 2.6V | 03:10:31 | 02:08:57 | 00:00:00 | |
| DF8AY | 2026-09-04 18:38:43 | 49.76306 | 8.83795 | 38° | 13km/h | 33150m | 6.2m/s | -35.9°C | 0% | 7.7hPa | 2.7V | 03:10:31 | 02:08:53 | 00:00:00 | |
| DL1XH-west | 2026-09-04 18:38:40 | 49.76295 | 8.83784 | 34° | 16km/h | 33134m | 4.7m/s | -36°C | 0% | 7.7hPa | 2.6V | 03:10:31 | 02:08:50 | 00:00:00 | |
| DL1XH1-15 | 2026-09-04 18:38:39 | 49.76289 | 8.83779 | 356° | 2km/h | 33101m | 4.6m/s | -36.1°C | 1.7% | 7.7hPa | 2.6V | 03:10:08 | 02:08:44 | 00:00:00 | |
| AA1-15 | 2026-09-04 18:38:39 | 49.76292 | 8.83781 | 33° | 13km/h | 33129m | 5.7m/s | -36°C | 0% | 7.7hPa | 2.6V | 03:10:31 | 02:08:49 | 00:00:00 | |
| BIOWL1-15 | 2026-09-04 18:38:38 | 49.76289 | 8.83778 | 259° | 2km/h | 33111m | 5.5m/s | -36°C | 0% | 7.7hPa | 2.7V | 03:10:31 | 02:08:46 | 00:00:00 | |
| HSKMA3-T | 2026-09-04 18:38:37 | 49.76289 | 8.83778 | 6° | 2km/h | 33117m | 6.1m/s | -36°C | 0% | 7.7hPa | 2.7V | 03:10:31 | 02:08:47 | 00:00:00 | |
| DF8AY | 2026-09-04 18:38:33 | 49.76288 | 8.83779 | 26° | 5km/h | 33096m | 5.8m/s | -36.1°C | 0% | 7.7hPa | 2.6V | 03:10:31 | 02:08:43 | 00:00:00 | |
| DL1XH-west | 2026-09-04 18:38:30 | 49.76279 | 8.83770 | 36° | 18km/h | 33078m | 4.7m/s | -36.2°C | 0% | 7.8hPa | 2.6V | 03:10:31 | 02:08:40 | 00:00:00 | |
| AA1-15 | 2026-09-04 18:38:29 | 49.76276 | 8.83766 | 37° | 15km/h | 33074m | 4.4m/s | -36.3°C | 0% | 7.8hPa | 2.6V | 03:10:31 | 02:08:39 | 00:00:00 | |
| GOEST3-10 | 2026-09-04 18:38:29 | 49.76275 | 8.83766 | 37° | 11km/h | 33074m | 4.4m/s | 0°C | 0% | 0hPa | 2.7V | 00:00:00 | 02:08:39 | 00:00:00 | |
| PG1ADW-2 | 2026-09-04 18:38:28 | 49.76273 | 8.83763 | 42° | 13km/h | 33069m | 5.0m/s | -36.3°C | 1.7% | 7.7hPa | 2.7V | 00:00:00 | 02:08:38 | 00:00:00 | |
| DM0DOS-11 | 2026-09-04 18:38:26 | 49.76274 | 8.83762 | 200° | 11km/h | 33051m | 5.7m/s | -36.4°C | 1.8% | 7.8hPa | 2.7V | 03:10:17 | 02:08:35 | 00:00:00 | |
| HSKMA3-T | 2026-09-04 18:38:26 | 49.76272 | 8.83761 | 188° | 5km/h | 33057m | 6.4m/s | -36.4°C | 0% | 7.8hPa | 2.7V | 03:10:31 | 02:08:36 | 00:00:00 | |
| DF8AY | 2026-09-04 18:38:23 | 49.76279 | 8.83764 | 190° | 9km/h | 33041m | 4.1m/s | -36.5°C | 0% | 7.8hPa | 2.6V | 03:10:31 | 02:08:33 | 00:00:00 | |
| DL1XH-west | 2026-09-04 18:38:20 | 49.76279 | 8.83756 | 62° | 18km/h | 33025m | 6.7m/s | -36.7°C | 0% | 7.8hPa | 2.7V | 03:10:31 | 02:08:30 | 00:00:00 | |
| AA1-15 | 2026-09-04 18:38:18 | 49.76273 | 8.83739 | 62° | 31km/h | 33013m | 5m/s | -36.8°C | 0% | 7.9hPa | 2.7V | 03:10:31 | 02:08:28 | 00:00:00 | |
| KANTATE | 2026-09-04 18:38:17 | 49.76273 | 8.83739 | 63° | 31km/h | 33013m | 5.0m/s | -36.8°C | 0.4% | 7.9hPa | 2.6V | 00:00:00 | 00:00:00 | 00:00:00 | |
| DM0DOS-11 | 2026-09-04 18:38:16 | 49.76266 | 8.83709 | 86° | 20km/h | 32997m | 5.6m/s | -37°C | 1.8% | 7.9hPa | 2.6V | 03:10:27 | 02:08:25 | 00:00:00 | |
| HSKMA3-T | 2026-09-04 18:38:16 | 49.76267 | 8.83718 | 74° | 26km/h | 33003m | 5.5m/s | -37°C | 0% | 7.9hPa | 2.6V | 03:10:31 | 02:08:26 | 00:00:00 | |
| BIOWL1-15 | 2026-09-04 18:38:15 | 49.76266 | 8.83709 | 86° | 20km/h | 32997m | 5.6m/s | -37°C | 0% | 7.9hPa | 2.6V | 03:10:31 | 02:08:25 | 00:00:00 | |
| DF8AY | 2026-09-04 18:38:12 | 49.76269 | 8.83696 | 151° | 7km/h | 32981m | 5.2m/s | -37°C | 0% | 7.9hPa | 2.7V | 03:10:31 | 02:08:22 | 00:00:00 | |
| GOEST3-10 | 2026-09-04 18:38:11 | 49.76270 | 8.83695 | 178° | 5km/h | 32976m | 5.9m/s | 0°C | 0% | 0hPa | 2.6V | 00:00:00 | 02:08:21 | 00:00:00 | |
| DL1ZP-14 | 2026-09-04 18:38:10 | 49.76271 | 8.83696 | 296° | 2km/h | 32970m | 6.3m/s | -37.1°C | 0.4% | 7.9hPa | 2.6V | 00:00:00 | 00:00:00 | 00:00:00 | |
| DL1XH1-15 | 2026-09-04 18:38:09 | 49.76263 | 8.83691 | 106° | 9km/h | 32935m | 6.3m/s | -37.3°C | 1.8% | 8hPa | 2.7V | 03:10:38 | 02:08:14 | 00:00:00 | |
| DL1XH-west | 2026-09-04 18:38:09 | 49.76270 | 8.83696 | 337° | 5km/h | 32963m | 5.8m/s | -37.2°C | 0% | 7.9hPa | 2.6V | 03:11:22 | 02:08:19 | 00:00:00 | |
| AA1-15 | 2026-09-04 18:38:07 | 49.76266 | 8.83697 | 8° | 7km/h | 32953m | 5.1m/s | -37.3°C | 0% | 7.9hPa | 2.6V | 03:11:22 | 02:08:17 | 00:00:00 | |
| DM0DOS-11 | 2026-09-04 18:38:06 | 49.76263 | 8.83694 | 75° | 7km/h | 32941m | 6.2m/s | -37.3°C | 1.8% | 7.9hPa | 2.7V | 03:10:37 | 02:08:15 | 00:00:00 | |
| HSKMA3-T | 2026-09-04 18:38:06 | 49.76264 | 8.83696 | 34° | 7km/h | 32947m | 5.2m/s | -37.3°C | 0% | 7.9hPa | 2.7V | 03:11:22 | 02:08:16 | 00:00:00 | |
| BIOWL1-15 | 2026-09-04 18:38:05 | 49.76264 | 8.83694 | 75° | 7km/h | 32942m | 6.2m/s | -37.3°C | 0% | 7.9hPa | 2.7V | 03:11:22 | 02:08:15 | 00:00:00 | |
| EDDB2-12 | 2026-09-04 18:38:04 | 49.76265 | 8.83687 | 121° | 11km/h | 32929m | 5.5m/s | -37.4°C | 0.4% | 8.0hPa | 2.6V | 00:00:00 | 00:00:00 | 00:00:00 | |
| NBG1-10 | 2026-09-04 18:38:03 | 49.76265 | 8.83687 | 122° | 15km/h | 32930m | 5.4m/s | -37.3°C | 1.9% | 7.9hPa | 2.6V | 03:10:00 | 02:08:13 | 00:00:00 | |
| DL1KLB | 2026-09-04 18:38:02 | 49.76264 | 8.83687 | 122° | 13km/h | 32930m | 5.5m/s | -37.4°C | 0.4% | 8.0hPa | 2.6V | 03:11:00 | 00:00:00 | 00:00:00 | |
| DL1XH-15 | 2026-09-04 18:38:01 | 49.76268 | 8.83673 | 88° | 13km/h | 32914m | 5.1m/s | -37.4°C | 1.8% | 8hPa | 2.6V | 03:10:42 | 02:08:10 | 00:00:00 | |
| DF8AY | 2026-09-04 18:38:01 | 49.76268 | 8.83678 | 109° | 13km/h | 32919m | 4.8m/s | -37.4°C | 0% | 8hPa | 2.6V | 03:11:22 | 02:08:11 | 00:00:00 | |
| GOEST3-10 | 2026-09-04 18:38:00 | 49.76268 | 8.83673 | 89° | 16km/h | 32914m | 5.1m/s | 0°C | 0% | 0hPa | 2.6V | 00:00:00 | 02:08:10 | 00:00:00 | |
| DL1XH1-15 | 2026-09-04 18:37:59 | 49.76250 | 8.83658 | 355° | 9km/h | 32880m | 5.7m/s | -37.5°C | 1.8% | 8hPa | 2.6V | 03:10:48 | 02:08:04 | 00:00:00 | |
| DL1XH-west | 2026-09-04 18:37:59 | 49.76268 | 8.83669 | 61° | 13km/h | 32908m | 6.1m/s | -37.5°C | 0% | 8hPa | 2.7V | 03:11:22 | 02:08:09 | 00:00:00 | |
| AA1-15 | 2026-09-04 18:37:57 | 49.76261 | 8.83661 | 21° | 18km/h | 32896m | 5.9m/s | -37.5°C | 0% | 8hPa | 2.7V | 03:11:22 | 02:08:07 | 00:00:00 | |
| BIOWL1-15 | 2026-09-04 18:37:55 | 49.76253 | 8.83658 | 3° | 15km/h | 32885m | 4.8m/s | -37.5°C | 0% | 8hPa | 2.6V | 03:11:22 | 02:08:05 | 00:00:00 | |
| GOEST3-10 | 2026-09-04 18:37:55 | 49.76253 | 8.83658 | 3° | 7km/h | 32885m | 4.8m/s | 0°C | 0% | 0hPa | 2.7V | 00:00:00 | 00:00:00 | 00:00:00 | |
| DJ2KF-10 | 2026-09-04 18:37:54 | 49.76249 | 8.83658 | 356° | 15km/h | 32880m | 5.6m/s | -37.5°C | 1.8% | 7.9hPa | 2.7V | 00:00:00 | 02:08:04 | 00:00:00 | |
| DK5PH-5 | 2026-09-04 18:37:52 | 49.76249 | 8.83658 | 160° | 15km/h | 32868m | 5.6m/s | -37.5°C | 1.9% | 8.0hPa | 2.7V | 00:00:00 | 02:08:02 | 00:00:00 | |
| DL1XH-15 | 2026-09-04 18:37:51 | 49.76257 | 8.83646 | 114° | 20km/h | 32853m | 5.2m/s | -37.8°C | 1.9% | 8hPa | 2.6V | 03:10:53 | 02:07:59 | 00:00:00 | |
| DF8AY | 2026-09-04 18:37:51 | 49.76252 | 8.83656 | 148° | 13km/h | 32863m | 5m/s | -37.6°C | 0% | 8hPa | 2.6V | 03:11:22 | 02:08:01 | 00:00:00 | |
| DL1XH-west | 2026-09-04 18:37:48 | 49.76259 | 8.83638 | 96° | 22km/h | 32847m | 6.4m/s | -37.8°C | 0% | 8.1hPa | 2.7V | 03:11:22 | 02:07:58 | 00:00:00 | |
| AA1-15 | 2026-09-04 18:37:47 | 49.76258 | 8.83629 | 79° | 26km/h | 32841m | 6.3m/s | -37.9°C | 0% | 8.1hPa | 2.7V | 03:11:22 | 02:07:57 | 00:00:00 | |
| DM0DOS-11 | 2026-09-04 18:37:46 | 49.76253 | 8.83610 | 59° | 26km/h | 32830m | 4.3m/s | -38°C | 1.9% | 8.1hPa | 2.6V | 03:10:57 | 02:07:55 | 00:00:00 | |
| HARRO8 | 2026-09-04 18:37:46 | 49.76253 | 8.83610 | 59° | 24km/h | 32830m | 4.3m/s | -38.0°C | 0.4% | 8.1hPa | 2.6V | 00:00:00 | 00:00:00 | 00:00:00 | |
| BIOWL1-15 | 2026-09-04 18:37:44 | 49.76250 | 8.83603 | 53° | 20km/h | 32825m | 4.6m/s | -38°C | 0% | 8.1hPa | 2.6V | 03:11:22 | 02:07:54 | 00:00:00 | |
| DF8AY | 2026-09-04 18:37:40 | 49.76248 | 8.83599 | 231° | 13km/h | 32802m | 5.7m/s | -38.1°C | 0% | 8.1hPa | 2.6V | 03:11:22 | 02:07:50 | 00:00:00 | |
| DL1XH1-15 | 2026-09-04 18:37:39 | 49.76252 | 8.83614 | 39° | 13km/h | 32769m | 5.4m/s | -38°C | 2% | 8.1hPa | 2.7V | 03:11:08 | 02:07:44 | 00:00:00 | |
| DL1XH-west | 2026-09-04 18:37:38 | 49.76253 | 8.83609 | 233° | 15km/h | 32791m | 4.6m/s | -38.1°C | 0% | 8.1hPa | 2.6V | 03:11:22 | 02:07:48 | 00:00:00 | |
| AA1-15 | 2026-09-04 18:37:36 | 49.76255 | 8.83615 | 282° | 4km/h | 32781m | 5.9m/s | -38.1°C | 0% | 8.1hPa | 2.7V | 03:11:22 | 02:07:46 | 00:00:00 | |
| DM0DOS-11 | 2026-09-04 18:37:36 | 49.76254 | 8.83615 | 18° | 7km/h | 32775m | 5.9m/s | -38°C | 2% | 8.1hPa | 2.7V | 03:11:07 | 02:07:45 | 00:00:00 | |
| HSKMA3-T | 2026-09-04 18:37:33 | 49.76250 | 8.83610 | 52° | 15km/h | 32764m | 4.9m/s | -38°C | 0% | 8.1hPa | 2.6V | 03:11:22 | 02:07:43 | 00:00:00 | |
| DO3DL | 2026-09-04 18:37:32 | 49.76250 | 8.83610 | 53° | 15km/h | 32764m | 4.9m/s | -38.0°C | 0.4% | 8.1hPa | 2.7V | 03:11:00 | 00:00:00 | 00:00:00 | |
| DL1XH-15 | 2026-09-04 18:37:31 | 49.76262 | 8.83591 | 178° | 22km/h | 32730m | 5.1m/s | -37.9°C | 1.9% | 8.2hPa | 2.7V | 03:11:15 | 02:07:37 | 00:00:00 | |
| NBG1-10 | 2026-09-04 18:37:30 | 49.76249 | 8.83596 | 133° | 13km/h | 32748m | 6.4m/s | -37.9°C | 1.9% | 8.1hPa | 2.6V | 00:00:00 | 02:07:40 | 00:00:00 | |
| DL1XH1-15 | 2026-09-04 18:37:29 | 49.76274 | 8.83590 | 161° | 7km/h | 32713m | 6m/s | -37.9°C | 1.9% | 8.2hPa | 2.6V | 03:11:18 | 02:07:34 | 00:00:00 | |
| DF8AY | 2026-09-04 18:37:29 | 49.76252 | 8.83593 | 161° | 16km/h | 32742m | 6.3m/s | -37.9°C | 0% | 8.2hPa | 2.7V | 03:11:22 | 02:07:39 | 00:00:00 | |
| DL1XH-west | 2026-09-04 18:37:27 | 49.76262 | 8.83591 | 178° | 22km/h | 32730m | 5.1m/s | -37.9°C | 0% | 8.2hPa | 2.7V | 03:11:22 | 02:07:37 | 00:00:00 | |
| DM0DOS-11 | 2026-09-04 18:37:26 | 49.76271 | 8.83591 | 174° | 13km/h | 32719m | 5.9m/s | -37.9°C | 1.9% | 8.2hPa | 2.6V | 03:11:17 | 02:07:35 | 00:00:00 | |
| AA1-15 | 2026-09-04 18:37:26 | 49.76267 | 8.83591 | 179° | 20km/h | 32725m | 5.4m/s | -37.9°C | 0% | 8.2hPa | 2.6V | 03:11:22 | 02:07:36 | 00:00:00 | |
| HSKMA3-T | 2026-09-04 18:37:22 | 49.76274 | 8.83588 | 15° | 4km/h | 32701m | 5.7m/s | -37.9°C | 0% | 8.2hPa | 2.7V | 03:11:22 | 02:07:32 | 00:00:00 | |
| DK5PH-5 | 2026-09-04 18:37:22 | 49.76274 | 8.83588 | 16° | 13km/h | 32702m | 5.7m/s | -37.9°C | 1.9% | 8.2hPa | 2.6V | 03:11:00 | 02:07:32 | 00:00:00 | |
| DL1XH-15 | 2026-09-04 18:37:21 | 49.76270 | 8.83590 | 113° | 2km/h | 32673m | 5m/s | -37.9°C | 1.9% | 8.3hPa | 2.6V | 03:11:25 | 02:07:27 | 00:00:00 | |
| DL1KLB | 2026-09-04 18:37:20 | 49.76273 | 8.83588 | 358° | 5km/h | 32696m | 6.1m/s | -37.9°C | 0.4% | 8.2hPa | 2.7V | 03:11:00 | 00:00:00 | 00:00:00 | |
| DL1XH1-15 | 2026-09-04 18:37:19 | 49.76273 | 8.83581 | 128° | 15km/h | 32655m | 5.7m/s | -37.9°C | 2% | 8.3hPa | 2.7V | 03:11:28 | 02:07:24 | 00:00:00 | |
| DF8AY | 2026-09-04 18:37:18 | 49.76270 | 8.83590 | 318° | 2km/h | 32678m | 4.9m/s | -37.9°C | 0% | 8.3hPa | 2.6V | 03:12:13 | 02:07:28 | 00:00:00 | |
| AA1-15 | 2026-09-04 18:37:16 | 49.76270 | 8.83588 | 120° | 7km/h | 32668m | 6m/s | -37.9°C | 0% | 8.3hPa | 2.6V | 03:12:13 | 02:07:26 | 00:00:00 | |
| DL3AQ-11 | 2026-09-04 18:37:16 | 49.76271 | 8.83585 | 121° | 11km/h | 32661m | 6.4m/s | -37.9°C | 0.4% | 8.3hPa | 2.7V | 00:00:00 | 00:00:00 | 00:00:00 | |
| HARRO8 | 2026-09-04 18:37:15 | 49.76273 | 8.83581 | 128° | 15km/h | 32655m | 5.7m/s | -37.9°C | 0.4% | 8.3hPa | 2.7V | 00:00:00 | 00:00:00 | 00:00:00 | |
| DJ2DS-15 | 2026-09-04 18:37:14 | 49.76273 | 8.83581 | 129° | 16km/h | 32655m | 5.7m/s | -37.9°C | 2.0% | 8.2hPa | 2.7V | 00:00:00 | 02:07:24 | 00:00:00 | |
| DL4BBY-15 | 2026-09-04 18:37:13 | 49.76276 | 8.83577 | 140° | 15km/h | 32650m | 5.3m/s | -38.9°C | 0% | 0hPa | 2.7V | 00:00:00 | 00:00:00 | 00:00:00 | |
| DL1XH-15 | 2026-09-04 18:37:11 | 49.76301 | 8.83577 | 230° | 9km/h | 32617m | 4.7m/s | -37.9°C | 2% | 8.3hPa | 2.7V | 03:11:35 | 02:07:17 | 00:00:00 | |
| HSKMA3-T | 2026-09-04 18:37:11 | 49.76285 | 8.83570 | 168° | 20km/h | 32638m | 6.1m/s | -38°C | 0% | 8.3hPa | 2.6V | 03:12:13 | 02:07:21 | 00:00:00 | |
| DF8AY | 2026-09-04 18:37:08 | 49.76299 | 8.83574 | 210° | 15km/h | 32622m | 4.4m/s | -37.9°C | 0% | 8.3hPa | 2.7V | 03:12:13 | 02:07:18 | 00:00:00 | |
| PG1ADW-2 | 2026-09-04 18:37:08 | 49.76299 | 8.83574 | 211° | 15km/h | 32622m | 4.4m/s | -37.9°C | 1.9% | 8.3hPa | 2.6V | 00:00:00 | 02:07:18 | 00:00:00 | |
| DM0DOS-11 | 2026-09-04 18:37:06 | 49.76300 | 8.83579 | 15° | 9km/h | 32604m | 7m/s | -37.9°C | 1.9% | 8.3hPa | 2.6V | 03:11:37 | 02:07:15 | 00:00:00 | |
| DL1XH-west | 2026-09-04 18:37:05 | 49.76300 | 8.83579 | 16° | 9km/h | 32604m | 7m/s | -37.9°C | 0% | 8.3hPa | 2.6V | 03:12:13 | 02:07:15 | 00:00:00 | |
| BIOWL1-15 | 2026-09-04 18:37:01 | 49.76293 | 8.83565 | 108° | 9km/h | 32583m | 5.7m/s | -37.9°C | 0% | 8.4hPa | 2.7V | 03:12:13 | 02:07:11 | 00:00:00 | |
| HSKMA3-T | 2026-09-04 18:37:00 | 49.76295 | 8.83562 | 151° | 15km/h | 32577m | 6.7m/s | -37.9°C | 0% | 8.4hPa | 2.7V | 03:12:13 | 02:07:10 | 00:00:00 | |
| DL1XH-15 | 2026-09-04 18:36:59 | 49.76312 | 8.83559 | 181° | 29km/h | 32559m | 4.8m/s | -38°C | 1.9% | 8.4hPa | 2.6V | 03:11:45 | 02:07:07 | 00:00:00 | |
| DF8AY | 2026-09-04 18:36:57 | 49.76312 | 8.83559 | 181° | 29km/h | 32559m | 4.8m/s | -38°C | 0% | 8.4hPa | 2.6V | 03:12:13 | 02:07:07 | 00:00:00 | |
| AA1-15 | 2026-09-04 18:36:55 | 49.76325 | 8.83559 | 178° | 18km/h | 32549m | 5.5m/s | -38°C | 0% | 8.4hPa | 2.6V | 03:12:13 | 02:07:05 | 00:00:00 | |
| DL1XH-west | 2026-09-04 18:36:54 | 49.76328 | 8.83559 | 171° | 7km/h | 32543m | 5.9m/s | -38°C | 0% | 8.4hPa | 2.7V | 03:12:13 | 02:07:04 | 00:00:00 | |
| BIOWL1-15 | 2026-09-04 18:36:51 | 49.76324 | 8.83558 | 354° | 15km/h | 32526m | 5.3m/s | -38°C | 0% | 8.4hPa | 2.6V | 03:12:13 | 02:07:01 | 00:00:00 | |
| HSKMA3-T | 2026-09-04 18:36:49 | 49.76317 | 8.83562 | 329° | 13km/h | 32515m | 5.6m/s | -38.1°C | 0% | 8.5hPa | 2.6V | 03:12:13 | 02:06:59 | 00:00:00 | |
| DF8AY | 2026-09-04 18:36:47 | 49.76316 | 8.83567 | 224° | 9km/h | 32504m | 5.5m/s | -38.1°C | 0% | 8.5hPa | 2.7V | 03:12:13 | 02:06:57 | 00:00:00 | |
| DM3KS-11 | 2026-09-04 18:36:46 | 49.76322 | 8.83567 | 165° | 18km/h | 32494m | 5.1m/s | -38.2°C | 0.4% | 8.5hPa | 2.7V | 00:00:00 | 00:00:00 | 00:00:00 | |
| DM0DOS-11 | 2026-09-04 18:36:45 | 49.76322 | 8.83567 | 165° | 18km/h | 32493m | 5.1m/s | -38.2°C | 2% | 8.5hPa | 2.7V | 03:11:57 | 02:06:55 | 00:00:00 | |
| AA1-15 | 2026-09-04 18:36:45 | 49.76322 | 8.83567 | 166° | 18km/h | 32493m | 5.1m/s | -38.2°C | 0% | 8.5hPa | 2.7V | 03:12:13 | 02:06:55 | 00:00:00 | |
| DL1XH-west | 2026-09-04 18:36:43 | 49.76331 | 8.83559 | 133° | 22km/h | 32482m | 5.9m/s | -38.3°C | 0% | 8.5hPa | 2.6V | 03:12:13 | 02:06:53 | 00:00:00 | |
| DL4BBY-15 | 2026-09-04 18:36:43 | 49.76331 | 8.83559 | 133° | 18km/h | 32482m | 5.9m/s | -39.2°C | 0% | 0hPa | 2.6V | 00:00:00 | 00:00:00 | 00:00:00 | |
| DB0UT-9 | 2026-09-04 18:36:41 | 49.76335 | 8.83545 | 90° | 18km/h | 32472m | 5.0m/s | -38.3°C | 0.4% | 8.5hPa | 2.6V | 03:12:00 | 00:00:00 | 00:00:00 | |
| DM0DOS-11 | 2026-09-04 18:36:40 | 49.76323 | 8.83552 | 263° | 20km/h | 32437m | 5.1m/s | -38.2°C | 2% | 8.6hPa | 2.6V | 03:12:07 | 02:06:45 | 00:00:00 | |
| BIOWL1-15 | 2026-09-04 18:36:40 | 49.76334 | 8.83539 | 62° | 15km/h | 32466m | 5m/s | -38.3°C | 0% | 8.5hPa | 2.7V | 03:12:13 | 02:06:50 | 00:00:00 | |
| SONDE2-11 | 2026-09-04 18:36:40 | 49.76332 | 8.83535 | 23° | 13km/h | 32461m | 5.7m/s | -38.3°C | 0.4% | 8.5hPa | 2.6V | 00:00:00 | 00:00:00 | 00:00:00 | |
| DL1XH1-15 | 2026-09-04 18:36:39 | 49.76324 | 8.83559 | 236° | 18km/h | 32432m | 4.6m/s | -38.1°C | 2% | 8.6hPa | 2.6V | 03:12:08 | 02:06:44 | 00:00:00 | |
| HSKMA3-T | 2026-09-04 18:36:39 | 49.76332 | 8.83535 | 24° | 13km/h | 32461m | 5.7m/s | -38.3°C | 0% | 8.5hPa | 2.7V | 03:12:13 | 02:06:49 | 00:00:00 | |
| AA1-15 | 2026-09-04 18:36:34 | 49.76324 | 8.83559 | 237° | 18km/h | 32432m | 4.6m/s | -38.2°C | 0% | 8.6hPa | 2.6V | 03:12:13 | 02:06:44 | 00:00:00 | |
| DL1XH-west | 2026-09-04 18:36:32 | 49.76331 | 8.83565 | 173° | 18km/h | 32422m | 5.6m/s | -38.1°C | 0% | 8.6hPa | 2.7V | 03:12:13 | 02:06:42 | 00:00:00 | |
| EDDB2-12 | 2026-09-04 18:36:31 | 49.76339 | 8.83556 | 122° | 22km/h | 32410m | 5.9m/s | -38.0°C | 0.4% | 8.6hPa | 2.7V | 00:00:00 | 00:00:00 | 00:00:00 | |
| DM0DOS-11 | 2026-09-04 18:36:30 | 49.76341 | 8.83530 | 271° | 5km/h | 32383m | 5.7m/s | -37.9°C | 2% | 8.6hPa | 2.7V | 03:12:17 | 02:06:35 | 00:00:00 | |
| DL1XH1-15 | 2026-09-04 18:36:29 | 49.76342 | 8.83534 | 251° | 16km/h | 32377m | 6.3m/s | -37.8°C | 2% | 8.7hPa | 2.7V | 03:12:18 | 02:06:34 | 00:00:00 | |
| BIOWL1-15 | 2026-09-04 18:36:29 | 49.76342 | 8.83547 | 106° | 24km/h | 32404m | 5.4m/s | -38°C | 0% | 8.6hPa | 2.6V | 03:12:13 | 02:06:39 | 00:00:00 | |
| DF8AY | 2026-09-04 18:36:24 | 49.76342 | 8.83534 | 252° | 16km/h | 32377m | 6.3m/s | -37.8°C | 0% | 8.7hPa | 2.7V | 03:13:04 | 02:06:34 | 00:00:00 | |
| AA1-15 | 2026-09-04 18:36:23 | 49.76344 | 8.83542 | 241° | 26km/h | 32371m | 6.2m/s | -37.8°C | 0% | 8.6hPa | 2.6V | 03:13:04 | 02:06:33 | 00:00:00 | |
| DL1XH-west | 2026-09-04 18:36:22 | 49.76348 | 8.83550 | 232° | 29km/h | 32365m | 5.5m/s | -37.8°C | 0% | 8.7hPa | 2.6V | 03:13:04 | 02:06:32 | 00:00:00 | |
| DK5PH-5 | 2026-09-04 18:36:22 | 49.76348 | 8.83550 | 232° | 24km/h | 32365m | 5.5m/s | -37.7°C | 1.9% | 8.6hPa | 2.6V | 00:00:00 | 02:06:32 | 00:00:00 | |
| DL2OL | 2026-09-04 18:36:21 | 49.76348 | 8.83550 | 232° | 29km/h | 32365m | 5.5m/s | -37.8°C | 0.4% | 8.7hPa | 2.6V | 00:00:00 | 00:00:00 | 00:00:00 | |
| DL1XH1-15 | 2026-09-04 18:36:19 | 49.76369 | 8.83556 | 27° | 9km/h | 32321m | 5.2m/s | -37.6°C | 1.9% | 8.7hPa | 2.6V | 03:12:28 | 02:06:24 | 00:00:00 | |
| BIOWL1-15 | 2026-09-04 18:36:18 | 49.76369 | 8.83569 | 168° | 15km/h | 32344m | 6.1m/s | -37.7°C | 0% | 8.7hPa | 2.7V | 03:13:04 | 02:06:28 | 00:00:00 | |
| DM0DOS-11 | 2026-09-04 18:36:15 | 49.76371 | 8.83559 | 60° | 11km/h | 32326m | 5.3m/s | -37.6°C | 1.9% | 8.7hPa | 2.6V | 03:12:27 | 02:06:25 | 00:00:00 | |
| DF8AY | 2026-09-04 18:36:14 | 49.76368 | 8.83556 | 326° | 5km/h | 32316m | 5.2m/s | -37.6°C | 0% | 8.7hPa | 2.6V | 03:13:04 | 02:06:23 | 00:00:00 | |
| DL1XH-west | 2026-09-04 18:36:12 | 49.76368 | 8.83559 | 259° | 11km/h | 32310m | 5.4m/s | -37.5°C | 0% | 8.7hPa | 2.7V | 03:13:04 | 02:06:22 | 00:00:00 | |
| DL1XH1-15 | 2026-09-04 18:36:09 | 49.76408 | 8.83591 | 169° | 5km/h | 32266m | 6m/s | -37.5°C | 1.9% | 8.8hPa | 2.7V | 03:12:38 | 02:06:14 | 00:00:00 | |
| HSKMA3-T | 2026-09-04 18:36:07 | 49.76394 | 8.83588 | 197° | 31km/h | 32282m | 5m/s | -37.4°C | 0% | 8.8hPa | 2.6V | 03:13:04 | 02:06:17 | 00:00:00 | |
| DF8AY | 2026-09-04 18:36:03 | 49.76408 | 8.83591 | 340° | 4km/h | 32260m | 5.9m/s | -37.5°C | 0% | 8.8hPa | 2.7V | 03:13:04 | 02:06:13 | 00:00:00 | |
| AA1-15 | 2026-09-04 18:36:02 | 49.76407 | 8.83592 | 326° | 11km/h | 32254m | 5.6m/s | -37.5°C | 0% | 8.8hPa | 2.6V | 03:13:04 | 02:06:12 | 00:00:00 | |
| DL1XH-west | 2026-09-04 18:36:01 | 49.76404 | 8.83596 | 307° | 16km/h | 32249m | 5.3m/s | -37.5°C | 0% | 8.8hPa | 2.6V | 03:13:04 | 02:06:11 | 00:00:00 | |
| DO3DL | 2026-09-04 18:36:00 | 49.76403 | 8.83602 | 286° | 20km/h | 32244m | 5.6m/s | -37.5°C | 0.4% | 8.8hPa | 2.6V | 03:13:00 | 00:00:00 | 00:00:00 | |
| DL1XH1-15 | 2026-09-04 18:35:59 | 49.76431 | 8.83646 | 186° | 31km/h | 32210m | 5.2m/s | -37.5°C | 1.9% | 8.9hPa | 2.6V | 03:12:48 | 02:06:04 | 00:00:00 | |
| HSKMA3-T | 2026-09-04 18:35:57 | 49.76408 | 8.83630 | 226° | 31km/h | 32227m | 5.5m/s | -37.5°C | 0% | 8.8hPa | 2.7V | 03:13:04 | 02:06:07 | 00:00:00 | |
| BIOWL1-15 | 2026-09-04 18:35:56 | 49.76415 | 8.83638 | 211° | 35km/h | 32221m | 5.5m/s | -37.5°C | 0% | 8.8hPa | 2.7V | 03:13:04 | 02:06:06 | 00:00:00 | |
| AA1-15 | 2026-09-04 18:35:52 | 49.76443 | 8.83645 | 169° | 16km/h | 32200m | 5m/s | -37.5°C | 0% | 8.9hPa | 2.6V | 03:13:04 | 02:06:02 | 00:00:00 | |
| AU51GT2 | 2026-09-04 18:35:52 | 49.76446 | 8.83645 | 184° | 5km/h | 32195m | 5.1m/s | -37.5°C | 0.4% | 8.9hPa | 2.7V | 00:00:00 | 00:00:00 | 00:00:00 | |
| NBG1-10 | 2026-09-04 18:35:51 | 49.76446 | 8.83645 | 185° | 22km/h | 32195m | 5.1m/s | -37.5°C | 1.9% | 8.8hPa | 2.7V | 03:12:00 | 02:06:01 | 00:00:00 | |
| DM0DOS-11 | 2026-09-04 18:35:50 | 49.76444 | 8.83694 | 243° | 33km/h | 32163m | 4.9m/s | -37.6°C | 1.9% | 8.9hPa | 2.6V | 03:12:57 | 02:05:55 | 00:00:00 | |
| DL1XH-west | 2026-09-04 18:35:50 | 49.76446 | 8.83646 | 291° | 7km/h | 32190m | 5.5m/s | -37.6°C | 0% | 8.9hPa | 2.7V | 03:13:04 | 02:06:00 | 00:00:00 | |
| OE5DRO-10 | 2026-09-04 18:35:49 | 49.76445 | 8.83650 | 297° | 24km/h | 32184m | 5.6m/s | -37.5°C | 1.9% | 8.8hPa | 2.7V | 00:00:00 | 00:00:00 | 00:00:00 | |
| DL1XH-15 | 2026-09-04 18:35:48 | 49.76456 | 8.83710 | 200° | 33km/h | 32152m | 6.2m/s | -37.7°C | 1.9% | 8.9hPa | 2.7V | 03:12:59 | 02:05:53 | 00:00:00 | |
| HSKMA3-T | 2026-09-04 18:35:46 | 49.76442 | 8.83682 | 262° | 33km/h | 32168m | 4.6m/s | -37.6°C | 0% | 8.9hPa | 2.6V | 03:13:04 | 02:05:56 | 00:00:00 | |
| BIOWL9-15 | 2026-09-04 18:35:45 | 49.76444 | 8.83694 | 243° | 31km/h | 32164m | 4.9m/s | -37.7°C | 0.4% | 8.9hPa | 2.7V | 00:00:00 | 00:00:00 | 00:00:00 | |
| AA1-15 | 2026-09-04 18:35:42 | 49.76464 | 8.83712 | 179° | 33km/h | 32146m | 6.2m/s | -37.7°C | 0% | 8.9hPa | 2.7V | 03:13:04 | 02:05:52 | 00:00:00 | |
| DL1XH-west | 2026-09-04 18:35:40 | 49.76478 | 8.83704 | 143° | 29km/h | 32135m | 4.9m/s | -37.7°C | 0% | 9hPa | 2.6V | 03:13:04 | 02:05:50 | 00:00:00 | |
| GOEST3-10 | 2026-09-04 18:35:39 | 49.76483 | 8.83697 | 127° | 24km/h | 32130m | 4.2m/s | 0°C | 0% | 0hPa | 2.6V | 00:00:00 | 02:05:49 | 00:00:00 | |
| DL1XH-15 | 2026-09-04 18:35:38 | 49.76482 | 8.83717 | 257° | 31km/h | 32097m | 5.3m/s | -38°C | 1.9% | 9hPa | 2.6V | 03:13:09 | 02:05:43 | 00:00:00 | |
| HSKMA3-T | 2026-09-04 18:35:35 | 49.76482 | 8.83696 | 286° | 22km/h | 32109m | 6.2m/s | -38°C | 0% | 9hPa | 2.7V | 03:13:55 | 02:05:45 | 00:00:00 | |
| AA1-15 | 2026-09-04 18:35:31 | 49.76489 | 8.83737 | 222° | 29km/h | 32087m | 5.1m/s | -38°C | 0% | 9hPa | 2.6V | 03:13:55 | 02:05:41 | 00:00:00 | |
| DL1XH-west | 2026-09-04 18:35:29 | 49.76501 | 8.83744 | 173° | 26km/h | 32076m | 6m/s | -38°C | 0% | 9hPa | 2.7V | 03:13:55 | 02:05:39 | 00:00:00 | |
| DB0UT-7 | 2026-09-04 18:35:29 | 49.76501 | 8.83744 | 174° | 15km/h | 32076m | 6.0m/s | -38.0°C | 2.0% | 9.0hPa | 2.7V | 00:00:00 | 02:05:39 | 00:00:00 | |
| OE5DXL-15 | 2026-09-04 18:35:28 | 49.76507 | 8.83740 | 149° | 16km/h | 32070m | 6.3m/s | -38.0°C | 2.0% | 9.0hPa | 2.7V | 00:00:00 | 00:00:00 | 00:00:00 | |
| DL1XH-15 | 2026-09-04 18:35:27 | 49.76516 | 8.83712 | 244° | 7km/h | 32037m | 6.2m/s | -38°C | 1.9% | 9.1hPa | 2.7V | 03:13:20 | 02:05:32 | 00:00:00 | |
| DM0DOS-11 | 2026-09-04 18:35:25 | 49.76516 | 8.83719 | 97° | 18km/h | 32053m | 4.5m/s | -38°C | 2% | 9.1hPa | 2.6V | 03:13:17 | 02:05:35 | 00:00:00 | |
| BIOWL1-15 | 2026-09-04 18:35:24 | 49.76516 | 8.83713 | 90° | 11km/h | 32048m | 4.7m/s | -38°C | 0% | 9.1hPa | 2.6V | 03:13:55 | 02:05:34 | 00:00:00 | |
| DF8AY | 2026-09-04 18:35:20 | 49.76535 | 8.83744 | 202° | 13km/h | 32003m | 5.6m/s | -38°C | 0% | 9.1hPa | 2.7V | 03:13:55 | 02:05:26 | 00:00:00 | |
| DM0DOS-11 | 2026-09-04 18:35:20 | 49.76537 | 8.83745 | 164° | 9km/h | 31998m | 5.8m/s | -38°C | 1.9% | 9.2hPa | 2.7V | 03:13:27 | 02:05:25 | 00:00:00 | |
| AA1-15 | 2026-09-04 18:35:20 | 49.76520 | 8.83722 | 236° | 22km/h | 32025m | 6m/s | -38°C | 0% | 9.1hPa | 2.6V | 03:13:55 | 02:05:30 | 00:00:00 | |
| DL1XH-west | 2026-09-04 18:35:19 | 49.76524 | 8.83729 | 232° | 24km/h | 32019m | 5.4m/s | -38°C | 0% | 9.1hPa | 2.6V | 03:13:55 | 02:05:29 | 00:00:00 | |
| BIOWL1-15 | 2026-09-04 18:35:18 | 49.76539 | 8.83743 | 118° | 9km/h | 31992m | 5.7m/s | -38°C | 0% | 9.2hPa | 2.7V | 03:13:55 | 02:05:24 | 00:00:00 | |
| DK5PH-5 | 2026-09-04 18:35:18 | 49.76527 | 8.83736 | 226° | 16km/h | 32014m | 4.8m/s | -37.9°C | 1.9% | 9.1hPa | 2.6V | 03:13:00 | 02:05:28 | 00:00:00 | |
| DL1XH-15 | 2026-09-04 18:35:17 | 49.76541 | 8.83733 | 106° | 18km/h | 31981m | 5.3m/s | -37.9°C | 1.9% | 9.2hPa | 2.6V | 03:13:30 | 02:05:22 | 00:00:00 | |
| HSKMA3-T | 2026-09-04 18:35:13 | 49.76540 | 8.83738 | 104° | 15km/h | 31986m | 5.5m/s | -38°C | 0% | 9.2hPa | 2.6V | 03:13:55 | 02:05:23 | 00:00:00 | |
| DM3KS-11 | 2026-09-04 18:35:13 | 49.76541 | 8.83732 | 106° | 16km/h | 31981m | 5.3m/s | -38.0°C | 0.4% | 9.2hPa | 2.6V | 00:00:00 | 00:00:00 | 00:00:00 | |
| DL9PN | 2026-09-04 18:35:11 | 49.76545 | 8.83719 | 128° | 22km/h | 31970m | 6.1m/s | -38.0°C | 0.4% | 9.2hPa | 2.6V | 00:00:00 | 00:00:00 | 00:00:00 | |
| DM0DOS-11 | 2026-09-04 18:35:10 | 49.76566 | 8.83703 | 194° | 7km/h | 31943m | 5.8m/s | -38.1°C | 1.9% | 9.2hPa | 2.6V | 03:13:37 | 02:05:15 | 00:00:00 | |
| GOEST3-10 | 2026-09-04 18:35:10 | 49.76545 | 8.83719 | 129° | 22km/h | 31970m | 6.0m/s | 0°C | 0% | 0hPa | 2.6V | 00:00:00 | 02:05:20 | 00:00:00 | |
| DL1XH1-15 | 2026-09-04 18:35:09 | 49.76567 | 8.83704 | 284° | 4km/h | 31937m | 7m/s | -38.1°C | 1.9% | 9.2hPa | 2.6V | 03:13:38 | 02:05:14 | 00:00:00 | |
| DL1XH-west | 2026-09-04 18:35:09 | 49.76549 | 8.83713 | 141° | 24km/h | 31963m | 5.9m/s | -38°C | 0% | 9.2hPa | 2.7V | 03:13:55 | 02:05:19 | 00:00:00 | |
| DF8AY | 2026-09-04 18:35:08 | 49.76554 | 8.83708 | 152° | 22km/h | 31958m | 5.1m/s | -38°C | 0% | 9.2hPa | 2.7V | 03:13:55 | 02:05:18 | 00:00:00 | |
| BIOWL1-15 | 2026-09-04 18:35:03 | 49.76565 | 8.83706 | 324° | 11km/h | 31930m | 6.9m/s | -38.2°C | 0% | 9.2hPa | 2.6V | 03:13:55 | 02:05:13 | 00:00:00 | |
| DF7PN | 2026-09-04 18:35:01 | 49.76555 | 8.83713 | 349° | 9km/h | 31915m | 3.3m/s | -38.3°C | 0.4% | 9.3hPa | 2.7V | 00:00:00 | 00:00:00 | 00:00:00 | |
| GOEST3-10 | 2026-09-04 18:35:00 | 49.76555 | 8.83712 | 350° | 7km/h | 31915m | 3.3m/s | 0°C | 0% | 0hPa | 2.7V | 00:00:00 | 02:05:10 | 00:00:00 | |
| DL1XH1-15 | 2026-09-04 18:34:59 | 49.76587 | 8.83691 | 154° | 46km/h | 31881m | 3.1m/s | -38.5°C | 1.9% | 9.3hPa | 2.7V | 03:13:48 | 02:05:04 | 00:00:00 | |
| DL1XH-west | 2026-09-04 18:34:59 | 49.76554 | 8.83712 | 90° | 2km/h | 31911m | 3.7m/s | -38.3°C | 0% | 9.3hPa | 2.6V | 03:13:55 | 02:05:09 | 00:00:00 | |
| DF8AY | 2026-09-04 18:34:58 | 49.76555 | 8.83711 | 155° | 13km/h | 31906m | 6m/s | -38.3°C | 0% | 9.3hPa | 2.6V | 03:13:55 | 02:05:08 | 00:00:00 | |
| OE5DXL-15 | 2026-09-04 18:34:58 | 49.76555 | 8.83711 | 156° | 24km/h | 31907m | 5.9m/s | -38.3°C | 1.9% | 9.2hPa | 2.7V | 03:13:00 | 00:00:00 | 00:00:00 | |
| DB0UT-9 | 2026-09-04 18:34:57 | 49.76555 | 8.83711 | 156° | 13km/h | 31907m | 6.0m/s | -38.3°C | 0.4% | 9.3hPa | 2.7V | 03:13:00 | 00:00:00 | 00:00:00 | |
| DM0DOS-11 | 2026-09-04 18:34:55 | 49.76577 | 8.83698 | 158° | 46km/h | 31885m | 5.2m/s | -38.4°C | 1.9% | 9.3hPa | 2.7V | 03:13:47 | 02:05:05 | 00:00:00 | |
| BIOWL1-15 | 2026-09-04 18:34:54 | 49.76604 | 8.83675 | 138° | 29km/h | 31874m | 4.9m/s | -38.7°C | 0% | 9.3hPa | 2.6V | 03:13:55 | 02:05:02 | 00:00:00 | |
| HSKMA3-T | 2026-09-04 18:34:53 | 49.76597 | 8.83683 | 148° | 40km/h | 31878m | 3m/s | -38.6°C | 0% | 9.3hPa | 2.7V | 03:13:55 | 02:05:03 | 00:00:00 | |
| DJ2DS-15 | 2026-09-04 18:34:51 | 49.76608 | 8.83663 | 59° | 11km/h | 31862m | 6.6m/s | -38.7°C | 0.4% | 9.3hPa | 2.6V | 00:00:00 | 00:00:00 | 00:00:00 | |
| AU51GT2 | 2026-09-04 18:34:50 | 49.76605 | 8.83660 | 9° | 16km/h | 31856m | 6.2m/s | -38.7°C | 0.4% | 9.4hPa | 2.6V | 00:00:00 | 00:00:00 | 00:00:00 | |
| DL1XH1-15 | 2026-09-04 18:34:49 | 49.76592 | 8.83683 | 230° | 20km/h | 31828m | 5.8m/s | -38.8°C | 2% | 9.4hPa | 2.6V | 03:13:58 | 02:04:54 | 00:00:00 | |
| DL1XH-west | 2026-09-04 18:34:48 | 49.76600 | 8.83661 | 346° | 22km/h | 31849m | 5.5m/s | -38.7°C | 0% | 9.4hPa | 2.7V | 03:13:55 | 02:04:58 | 00:00:00 | |
| DK5PH-5 | 2026-09-04 18:34:48 | 49.76600 | 8.83661 | 346° | 20km/h | 31850m | 5.5m/s | -38.7°C | 1.9% | 9.3hPa | 2.7V | 00:00:00 | 02:04:58 | 00:00:00 | |
| DL1XH-15 | 2026-09-04 18:34:47 | 49.76603 | 8.83689 | 180° | 29km/h | 31816m | 5.5m/s | -38.9°C | 2% | 9.4hPa | 2.7V | 03:14:00 | 02:04:52 | 00:00:00 | |
| DF8AY | 2026-09-04 18:34:47 | 49.76595 | 8.83664 | 327° | 22km/h | 31844m | 5.3m/s | -38.8°C | 0% | 9.3hPa | 2.7V | 03:13:55 | 02:04:57 | 00:00:00 | |
| DB0ND-19 | 2026-09-04 18:34:46 | 49.76592 | 8.83670 | 303° | 18km/h | 31839m | 5.2m/s | -38.8°C | 0.4% | 9.4hPa | 2.7V | 00:00:00 | 00:00:00 | 00:00:00 | |
| HSKMA3-T | 2026-09-04 18:34:42 | 49.76603 | 8.83689 | 180° | 29km/h | 31816m | 5.6m/s | -38.9°C | 0% | 9.4hPa | 2.7V | 03:14:46 | 02:04:52 | 00:00:00 | |
| DF8AY | 2026-09-04 18:34:41 | 49.76627 | 8.83648 | 64° | 15km/h | 31786m | 4.8m/s | -39.1°C | 0% | 9.4hPa | 2.7V | 03:14:46 | 02:04:46 | 00:00:00 | |
| BIOWL1-15 | 2026-09-04 18:34:41 | 49.76611 | 8.83687 | 162° | 33km/h | 31811m | 5.2m/s | -38.9°C | 0% | 9.4hPa | 2.7V | 03:14:46 | 02:04:51 | 00:00:00 | |
| KANTATE | 2026-09-04 18:34:41 | 49.76610 | 8.83687 | 163° | 33km/h | 31811m | 5.2m/s | -38.9°C | 0.4% | 9.4hPa | 2.6V | 00:00:00 | 00:00:00 | 00:00:00 | |
| DL9PN | 2026-09-04 18:34:40 | 49.76624 | 8.83673 | 127° | 29km/h | 31801m | 5.1m/s | -39.0°C | 0.4% | 9.4hPa | 2.6V | 00:00:00 | 00:00:00 | 00:00:00 | |
| DL1XH1-15 | 2026-09-04 18:34:39 | 49.76624 | 8.83646 | 304° | 7km/h | 31775m | 5.5m/s | -39.1°C | 2% | 9.4hPa | 2.6V | 03:14:08 | 02:04:44 | 00:00:00 | |
| DL2OL | 2026-09-04 18:34:38 | 49.76623 | 8.83673 | 128° | 31km/h | 31801m | 5.1m/s | -39.0°C | 0.4% | 9.4hPa | 2.7V | 00:00:00 | 00:00:00 | 00:00:00 | |
| DL1XH-15 | 2026-09-04 18:34:37 | 49.76625 | 8.83656 | 233° | 22km/h | 31764m | 5.5m/s | -39.2°C | 2% | 9.5hPa | 2.7V | 03:14:10 | 02:04:42 | 00:00:00 | |
| DL1XH-west | 2026-09-04 18:34:37 | 49.76628 | 8.83655 | 89° | 22km/h | 31791m | 4.9m/s | -39°C | 0% | 9.4hPa | 2.7V | 03:14:46 | 02:04:47 | 00:00:00 | |
| BIOWL1-15 | 2026-09-04 18:34:32 | 49.76637 | 8.83668 | 197° | 33km/h | 31754m | 4.8m/s | -39.3°C | 0% | 9.5hPa | 2.6V | 03:14:46 | 02:04:40 | 00:00:00 | |
| HSKMA3-T | 2026-09-04 18:34:31 | 49.76630 | 8.83663 | 214° | 29km/h | 31759m | 5.2m/s | -39.3°C | 0% | 9.5hPa | 2.7V | 03:14:46 | 02:04:41 | 00:00:00 | |
| BIOWL7-15 | 2026-09-04 18:34:29 | 49.76637 | 8.83668 | 198° | 33km/h | 31754m | 4.8m/s | -39.3°C | 0.4% | 9.5hPa | 2.7V | 03:14:00 | 00:00:00 | 00:00:00 | |
| DB0UT-7 | 2026-09-04 18:34:28 | 49.76655 | 8.83668 | 163° | 20km/h | 31744m | 5.2m/s | -39.3°C | 2.0% | 9.4hPa | 2.7V | 03:14:00 | 02:04:38 | 00:00:00 | |
| DL1XH-15 | 2026-09-04 18:34:27 | 49.76670 | 8.83624 | 58° | 5km/h | 31711m | 5.9m/s | -39.8°C | 2% | 9.5hPa | 2.7V | 03:14:20 | 02:04:32 | 00:00:00 | |
| DL1XH-west | 2026-09-04 18:34:26 | 49.76668 | 8.83654 | 125° | 31km/h | 31732m | 5.9m/s | -39.5°C | 0% | 9.5hPa | 2.6V | 03:14:46 | 02:04:36 | 00:00:00 | |
| DF8AY | 2026-09-04 18:34:25 | 49.76671 | 8.83644 | 105° | 27km/h | 31727m | 5.5m/s | -39.6°C | 0% | 9.5hPa | 2.6V | 03:14:46 | 02:04:35 | 00:00:00 | |
| BIOWL1-15 | 2026-09-04 18:34:20 | 49.76672 | 8.83627 | 227° | 15km/h | 31699m | 5.7m/s | -40°C | 0% | 9.6hPa | 2.7V | 03:14:46 | 02:04:30 | 00:00:00 | |
| AU51GT2 | 2026-09-04 18:34:19 | 49.76680 | 8.83635 | 201° | 24km/h | 31689m | 4.9m/s | -40.2°C | 0.4% | 9.6hPa | 2.6V | 00:00:00 | 00:00:00 | 00:00:00 | |
| DK5PH-5 | 2026-09-04 18:34:18 | 49.76680 | 8.83635 | 202° | 20km/h | 31689m | 4.8m/s | -40.1°C | 2.1% | 9.5hPa | 2.6V | 00:00:00 | 02:04:28 | 00:00:00 | |
| DL1XH-15 | 2026-09-04 18:34:17 | 49.76710 | 8.83606 | 103° | 27km/h | 31656m | 5.2m/s | -40.6°C | 2.2% | 9.6hPa | 2.6V | 03:14:30 | 02:04:22 | 00:00:00 | |
| AA1-15 | 2026-09-04 18:34:16 | 49.76692 | 8.83637 | 166° | 27km/h | 31678m | 5.3m/s | -40.4°C | 0% | 9.6hPa | 2.7V | 03:14:46 | 02:04:26 | 00:00:00 | |
| DL1XH-west | 2026-09-04 18:34:15 | 49.76699 | 8.83632 | 147° | 27km/h | 31673m | 5.8m/s | -40.4°C | 0% | 9.6hPa | 2.7V | 03:14:46 | 02:04:25 | 00:00:00 | |
| DM0DOS-11 | 2026-09-04 18:34:15 | 49.76699 | 8.83632 | 147° | 27km/h | 31673m | 5.8m/s | -40.4°C | 2.1% | 9.6hPa | 2.7V | 03:14:27 | 02:04:25 | 00:00:00 | |
| DF8AY | 2026-09-04 18:34:14 | 49.76704 | 8.83625 | 130° | 29km/h | 31667m | 5.9m/s | -40.5°C | 0% | 9.6hPa | 2.6V | 03:14:46 | 02:04:24 | 00:00:00 | |
| BIOWL1-15 | 2026-09-04 18:34:10 | 49.76712 | 8.83587 | 96° | 20km/h | 31646m | 4.7m/s | -40.8°C | 0% | 9.6hPa | 2.7V | 03:14:46 | 02:04:20 | 00:00:00 | |
| HSKMA3-T | 2026-09-04 18:34:09 | 49.76712 | 8.83581 | 102° | 15km/h | 31641m | 5m/s | -40.8°C | 0% | 9.7hPa | 2.6V | 03:14:46 | 02:04:19 | 00:00:00 | |
| DO2KSM | 2026-09-04 18:34:09 | 49.76712 | 8.83581 | 103° | 15km/h | 31641m | 5.0m/s | -40.8°C | 0.4% | 9.7hPa | 2.7V | 03:14:00 | 00:00:00 | 00:00:00 | |
| HARRO8 | 2026-09-04 18:34:08 | 49.76714 | 8.83576 | 122° | 11km/h | 31636m | 5.6m/s | -40.8°C | 0.4% | 9.7hPa | 2.7V | 00:00:00 | 00:00:00 | 00:00:00 | |
| DL1XH-15 | 2026-09-04 18:34:07 | 49.76730 | 8.83558 | 112° | 11km/h | 31604m | 5.5m/s | -40.9°C | 2.2% | 9.7hPa | 2.7V | 03:14:40 | 02:04:12 | 00:00:00 | |
| DM0DOS-11 | 2026-09-04 18:34:05 | 49.76722 | 8.83567 | 157° | 16km/h | 31618m | 5.1m/s | -40.9°C | 2.2% | 9.7hPa | 2.7V | 03:14:37 | 02:04:15 | 00:00:00 | |
| AA1-15 | 2026-09-04 18:34:05 | 49.76722 | 8.83567 | 158° | 16km/h | 31619m | 5.1m/s | -40.9°C | 0% | 9.7hPa | 2.7V | 03:14:46 | 02:04:15 | 00:00:00 | |
| DF8AY | 2026-09-04 18:34:04 | 49.76726 | 8.83565 | 152° | 15km/h | 31614m | 4.7m/s | -40.9°C | 0% | 9.7hPa | 2.6V | 03:14:46 | 02:04:14 | 00:00:00 | |
| BIOWL1-15 | 2026-09-04 18:34:01 | 49.76729 | 8.83545 | 65° | 15km/h | 31587m | 4.8m/s | -41°C | 0% | 9.8hPa | 2.6V | 03:14:46 | 02:04:09 | 00:00:00 | |
| DM0DOS-11 | 2026-09-04 18:34:00 | 49.76731 | 8.83516 | 117° | 29km/h | 31566m | 6.6m/s | -41°C | 2.2% | 9.8hPa | 2.7V | 03:14:47 | 02:04:05 | 00:00:00 | |
| DL1XH1-15 | 2026-09-04 18:33:59 | 49.76735 | 8.83506 | 123° | 33km/h | 31560m | 5.3m/s | -41°C | 2.2% | 9.8hPa | 2.7V | 03:14:48 | 02:04:04 | 00:00:00 | |
| HSKMA3-T | 2026-09-04 18:33:58 | 49.76728 | 8.83540 | 78° | 16km/h | 31582m | 4.4m/s | -41°C | 0% | 9.8hPa | 2.6V | 03:14:46 | 02:04:08 | 00:00:00 | |
| DB0UT-7 | 2026-09-04 18:33:58 | 49.76727 | 8.83540 | 78° | 24km/h | 31583m | 4.4m/s | -40.9°C | 2.2% | 9.7hPa | 2.6V | 00:00:00 | 00:00:00 | 00:00:00 | |
| DL1XH-15 | 2026-09-04 18:33:57 | 49.76743 | 8.83486 | 117° | 26km/h | 31551m | 4m/s | -41.1°C | 2.2% | 9.8hPa | 2.6V | 03:14:50 | 02:04:02 | 00:00:00 | |
| AA1-15 | 2026-09-04 18:33:54 | 49.76735 | 8.83506 | 123° | 33km/h | 31560m | 5.3m/s | -41.1°C | 0% | 9.8hPa | 2.7V | 03:15:37 | 02:04:04 | 00:00:00 | |
| DL1XH-west | 2026-09-04 18:33:53 | 49.76739 | 8.83495 | 123° | 31km/h | 31555m | 4.2m/s | -41.1°C | 0% | 9.8hPa | 2.6V | 03:15:37 | 02:04:03 | 00:00:00 | |
| HTAHTA | 2026-09-04 18:33:53 | 49.76743 | 8.83486 | 117° | 26km/h | 31551m | 4.0m/s | 0°C | -1.0% | -1.0hPa | 2.6V | 00:00:00 | 00:00:00 | 00:00:00 | |
| DJ2KF-10 | 2026-09-04 18:33:52 | 49.76743 | 8.83486 | 118° | 24km/h | 31551m | 4.0m/s | -41.1°C | 2.2% | 9.7hPa | 2.6V | 00:00:00 | 02:04:02 | 00:00:00 | |
| DM0DOS-11 | 2026-09-04 18:33:50 | 49.76725 | 8.83444 | 58° | 22km/h | 31512m | 5.6m/s | -41.5°C | 2.2% | 9.8hPa | 2.6V | 03:14:57 | 02:03:55 | 00:00:00 | |
| DL1XH1-15 | 2026-09-04 18:33:49 | 49.76724 | 8.83436 | 78° | 22km/h | 31507m | 5.6m/s | -41.5°C | 2.2% | 9.8hPa | 2.6V | 03:14:58 | 02:03:54 | 00:00:00 | |
| BIOWL1-15 | 2026-09-04 18:33:49 | 49.76743 | 8.83465 | 43° | 18km/h | 31534m | 6.2m/s | -41.3°C | 0% | 9.8hPa | 2.7V | 03:15:37 | 02:03:59 | 00:00:00 | |
| HSKMA3-T | 2026-09-04 18:33:48 | 49.76739 | 8.83460 | 31° | 22km/h | 31528m | 5.3m/s | -41.4°C | 0% | 9.8hPa | 2.7V | 03:15:37 | 02:03:58 | 00:00:00 | |
| AU51GT2 | 2026-09-04 18:33:48 | 49.76734 | 8.83455 | 31° | 24km/h | 31523m | 4.9m/s | -41.5°C | 0.5% | 9.8hPa | 2.7V | 00:00:00 | 00:00:00 | 00:00:00 | |
| DO3MHA-11 | 2026-09-04 18:33:47 | 49.76734 | 8.83455 | 32° | 22km/h | 31523m | 4.9m/s | -41.4°C | 2.2% | 9.8hPa | 2.7V | 00:00:00 | 02:03:57 | 00:00:00 | |
| DL1XH-15 | 2026-09-04 18:33:46 | 49.76726 | 8.83410 | 107° | 24km/h | 31489m | 6.2m/s | -41.5°C | 2.3% | 9.9hPa | 2.7V | 03:15:01 | 02:03:51 | 00:00:00 | |
| DL1XH-west | 2026-09-04 18:33:43 | 49.76723 | 8.83428 | 94° | 24km/h | 31501m | 5.6m/s | -41.5°C | 0% | 9.9hPa | 2.6V | 03:15:37 | 02:03:53 | 00:00:00 | |
| DL4BBY-15 | 2026-09-04 18:33:43 | 49.76723 | 8.83427 | 95° | 24km/h | 31502m | 5.5m/s | -42.4°C | 0% | 0hPa | 2.6V | 00:00:00 | 00:00:00 | 00:00:00 | |
| DO3DL | 2026-09-04 18:33:42 | 49.76723 | 8.83427 | 95° | 24km/h | 31501m | 5.6m/s | -41.5°C | 0.5% | 9.9hPa | 2.6V | 03:15:00 | 00:00:00 | 00:00:00 | |
| BIOWL9-15 | 2026-09-04 18:33:41 | 49.76726 | 8.83410 | 107° | 24km/h | 31489m | 6.2m/s | -41.6°C | 0.5% | 9.9hPa | 2.6V | 00:00:00 | 00:00:00 | 00:00:00 | |
| DH7VM-15 | 2026-09-04 18:33:40 | 49.76728 | 8.83401 | 109° | 24km/h | 31484m | 5.8m/s | -41.6°C | 0.5% | 9.9hPa | 2.6V | 00:00:00 | 00:00:00 | 00:00:00 | |
| DL1XH1-15 | 2026-09-04 18:33:39 | 49.76735 | 8.83349 | 83° | 24km/h | 31451m | 4.7m/s | -41.6°C | 2.3% | 9.9hPa | 2.6V | 03:15:08 | 02:03:44 | 00:00:00 | |
| BIOWL1-15 | 2026-09-04 18:33:38 | 49.76731 | 8.83384 | 107° | 22km/h | 31473m | 4.8m/s | -41.6°C | 0% | 9.9hPa | 2.6V | 03:15:37 | 02:03:48 | 00:00:00 | |
| HEMX73-11 | 2026-09-04 18:33:37 | 49.76731 | 8.83384 | 108° | 22km/h | 31473m | 4.8m/s | -41.6°C | 0.5% | 9.9hPa | 2.7V | 03:15:00 | 00:00:00 | 00:00:00 | |
| DM0DOS-11 | 2026-09-04 18:33:35 | 49.76735 | 8.83358 | 94° | 24km/h | 31457m | 5.3m/s | -41.6°C | 2.3% | 9.9hPa | 2.7V | 03:15:07 | 02:03:45 | 00:00:00 | |
| DL1XH-west | 2026-09-04 18:33:32 | 49.76730 | 8.83331 | 54° | 26km/h | 31441m | 5.8m/s | -41.6°C | 0% | 10hPa | 2.6V | 03:15:37 | 02:03:42 | 00:00:00 | |
| BIOWL1-15 | 2026-09-04 18:33:31 | 49.76706 | 8.83293 | 74° | 22km/h | 31415m | 5.6m/s | -41.6°C | 0% | 10hPa | 2.6V | 03:15:37 | 02:03:37 | 00:00:00 | |
| NBG1-10 | 2026-09-04 18:33:31 | 49.76725 | 8.83323 | 44° | 16km/h | 31435m | 6.7m/s | -41.6°C | 2.2% | 9.9hPa | 2.7V | 00:00:00 | 02:03:41 | 00:00:00 | |
| DO3DL | 2026-09-04 18:33:30 | 49.76725 | 8.83323 | 44° | 29km/h | 31435m | 6.7m/s | -41.6°C | 0.5% | 10.0hPa | 2.6V | 03:15:00 | 00:00:00 | 00:00:00 | |
| DL1XH1-15 | 2026-09-04 18:33:29 | 49.76712 | 8.83266 | 126° | 29km/h | 31397m | 4.4m/s | -41.5°C | 2.2% | 10hPa | 2.6V | 03:15:18 | 02:03:34 | 00:00:00 | |
| HSKMA3-T | 2026-09-04 18:33:28 | 49.76709 | 8.83301 | 53° | 26km/h | 31420m | 3.9m/s | -41.6°C | 0% | 10hPa | 2.6V | 03:15:37 | 02:03:38 | 00:00:00 | |
| DF8AY | 2026-09-04 18:33:22 | 49.76720 | 8.83249 | 117° | 22km/h | 31388m | 5.1m/s | -41.6°C | 0% | 10hPa | 2.7V | 03:15:37 | 02:03:32 | 00:00:00 | |
| DL1XH-west | 2026-09-04 18:33:21 | 49.76721 | 8.83242 | 93° | 16km/h | 31383m | 6m/s | -41.6°C | 0% | 10.1hPa | 2.7V | 03:15:37 | 02:03:31 | 00:00:00 | |
| HSKMA3-T | 2026-09-04 18:33:17 | 49.76707 | 8.83224 | 30° | 26km/h | 31361m | 5.1m/s | -41.6°C | 0% | 10.1hPa | 2.6V | 03:15:37 | 02:03:27 | 00:00:00 | |
| BIOWL1-15 | 2026-09-04 18:33:16 | 49.76701 | 8.83218 | 39° | 24km/h | 31355m | 5.2m/s | -41.6°C | 0% | 10.1hPa | 2.7V | 03:15:37 | 02:03:26 | 00:00:00 | |
| DL1XH-west | 2026-09-04 18:33:11 | 49.76697 | 8.83175 | 107° | 26km/h | 31329m | 4.8m/s | -42°C | 0% | 10.1hPa | 2.6V | 03:15:37 | 02:03:21 | 00:00:00 | |
| AA1-15 | 2026-09-04 18:33:10 | 49.76699 | 8.83166 | 105° | 22km/h | 31324m | 5.1m/s | -42.1°C | 0% | 10.1hPa | 2.7V | 03:15:37 | 02:03:20 | 00:00:00 | |
| BIOWL1-15 | 2026-09-04 18:33:08 | 49.76699 | 8.83149 | 1° | 4km/h | 31302m | 5.6m/s | -42.4°C | 0% | 10.2hPa | 2.6V | 03:15:37 | 02:03:16 | 00:00:00 | |
| HSKMA3-T | 2026-09-04 18:33:07 | 49.76700 | 8.83150 | 63° | 5km/h | 31308m | 5.3m/s | -42.3°C | 0% | 10.2hPa | 2.6V | 03:15:37 | 02:03:17 | 00:00:00 | |
| DF8AY | 2026-09-04 18:33:00 | 49.76692 | 8.83156 | 13° | 13km/h | 31269m | 6.4m/s | -42.8°C | 0% | 10.2hPa | 2.7V | 03:16:28 | 02:03:10 | 00:00:00 | |
| AA1-15 | 2026-09-04 18:32:59 | 49.76689 | 8.83154 | 30° | 16km/h | 31264m | 5.1m/s | -42.9°C | 0% | 10.2hPa | 2.7V | 03:16:28 | 02:03:09 | 00:00:00 | |
| DB0UT-7 | 2026-09-04 18:32:58 | 49.76686 | 8.83150 | 47° | 18km/h | 31259m | 4.1m/s | -42.9°C | 2.4% | 10.2hPa | 2.6V | 00:00:00 | 00:00:00 | 00:00:00 | |
| HEMX73-11 | 2026-09-04 18:32:57 | 49.76684 | 8.83145 | 73° | 15km/h | 31255m | 4.0m/s | -43.0°C | 0.5% | 10.2hPa | 2.6V | 03:16:00 | 00:00:00 | 00:00:00 | |
| DL1XH-15 | 2026-09-04 18:32:56 | 49.76707 | 8.83136 | 206° | 20km/h | 31223m | 3.8m/s | -43.1°C | 2.4% | 10.3hPa | 2.6V | 03:15:51 | 02:03:01 | 00:00:00 | |
| BIOWL1-15 | 2026-09-04 18:32:56 | 49.76684 | 8.83141 | 106° | 13km/h | 31250m | 5m/s | -43°C | 0% | 10.3hPa | 2.7V | 03:16:28 | 02:03:06 | 00:00:00 | |
| DL1XH-west | 2026-09-04 18:32:50 | 49.76710 | 8.83140 | 227° | 13km/h | 31219m | 4.6m/s | -43.1°C | 0% | 10.3hPa | 2.7V | 03:16:28 | 02:03:00 | 00:00:00 | |
| DL1XH1-15 | 2026-09-04 18:32:49 | 49.76695 | 8.83131 | 73° | 18km/h | 31187m | 4.3m/s | -43.1°C | 2.4% | 10.4hPa | 2.7V | 03:15:58 | 02:02:54 | 00:00:00 | |
| AA1-15 | 2026-09-04 18:32:49 | 49.76711 | 8.83143 | 277° | 7km/h | 31214m | 5.8m/s | -43.1°C | 0% | 10.3hPa | 2.7V | 03:16:28 | 02:02:59 | 00:00:00 | |
| DK5PH-5 | 2026-09-04 18:32:48 | 49.76710 | 8.83145 | 344° | 16km/h | 31208m | 6.2m/s | -43.1°C | 2.4% | 10.3hPa | 2.6V | 00:00:00 | 02:02:58 | 00:00:00 | |
| DO3MHA-11 | 2026-09-04 18:32:47 | 49.76706 | 8.83145 | 13° | 22km/h | 31202m | 5.6m/s | -43.1°C | 2.5% | 10.3hPa | 2.6V | 03:15:00 | 02:02:57 | 00:00:00 | |
| DL1XH-15 | 2026-09-04 18:32:46 | 49.76702 | 8.83117 | 173° | 22km/h | 31172m | 6.1m/s | -43.1°C | 2.4% | 10.4hPa | 2.6V | 03:16:01 | 02:02:51 | 00:00:00 | |
| BIOWL1-15 | 2026-09-04 18:32:46 | 49.76702 | 8.83142 | 31° | 22km/h | 31196m | 4.9m/s | -43.1°C | 0% | 10.3hPa | 2.6V | 03:16:28 | 02:02:56 | 00:00:00 | |
| AU51GT2 | 2026-09-04 18:32:45 | 49.76697 | 8.83137 | 48° | 20km/h | 31192m | 4.3m/s | -43.1°C | 0.5% | 10.3hPa | 2.6V | 00:00:00 | 00:00:00 | 00:00:00 | |
| DF8AY | 2026-09-04 18:32:40 | 49.76709 | 8.83117 | 191° | 26km/h | 31166m | 5.8m/s | -43.1°C | 0% | 10.4hPa | 2.6V | 03:16:28 | 02:02:50 | 00:00:00 | |
| DL1XH1-15 | 2026-09-04 18:32:39 | 49.76725 | 8.83128 | 64° | 15km/h | 31135m | 5.8m/s | -43.2°C | 2.4% | 10.4hPa | 2.7V | 03:16:08 | 02:02:44 | 00:00:00 | |
| DL1XH-west | 2026-09-04 18:32:39 | 49.76715 | 8.83121 | 204° | 27km/h | 31160m | 5.1m/s | -43.2°C | 0% | 10.4hPa | 2.7V | 03:16:28 | 02:02:49 | 00:00:00 | |
| AA1-15 | 2026-09-04 18:32:38 | 49.76720 | 8.83125 | 214° | 22km/h | 31155m | 4.7m/s | -43.2°C | 0% | 10.4hPa | 2.7V | 03:16:28 | 02:02:48 | 00:00:00 | |
| BIOWL1-15 | 2026-09-04 18:32:35 | 49.76726 | 8.83132 | 58° | 5km/h | 31141m | 5.8m/s | -43.2°C | 0% | 10.4hPa | 2.6V | 03:16:28 | 02:02:45 | 00:00:00 | |
| DJ2DS-15 | 2026-09-04 18:32:34 | 49.76725 | 8.83128 | 65° | 16km/h | 31135m | 5.8m/s | -43.1°C | 2.4% | 10.4hPa | 2.7V | 00:00:00 | 02:02:44 | 00:00:00 | |
| KANTATE | 2026-09-04 18:32:33 | 49.76725 | 8.83128 | 66° | 15km/h | 31135m | 5.8m/s | -43.2°C | 0.5% | 10.4hPa | 2.6V | 00:00:00 | 00:00:00 | 00:00:00 | |
| DO1YAY-16 | 2026-09-04 18:32:31 | 49.76720 | 8.83099 | 96° | 15km/h | 31115m | 5.3m/s | -43.2°C | 0.5% | 10.5hPa | 2.6V | 00:00:00 | 00:00:00 | 00:00:00 | |
| DM0DOS-11 | 2026-09-04 18:32:30 | 49.76731 | 8.83099 | 205° | 15km/h | 31085m | 5.4m/s | -43.2°C | 2.4% | 10.5hPa | 2.6V | 03:16:17 | 02:02:35 | 00:00:00 | |
| DF8AY | 2026-09-04 18:32:30 | 49.76720 | 8.83099 | 97° | 15km/h | 31114m | 5.3m/s | -43.2°C | 0% | 10.5hPa | 2.7V | 03:16:28 | 02:02:40 | 00:00:00 | |
| AA1-15 | 2026-09-04 18:32:28 | 49.76723 | 8.83093 | 176° | 9km/h | 31103m | 6.1m/s | -43.2°C | 0% | 10.5hPa | 2.6V | 03:16:28 | 02:02:38 | 00:00:00 | |
| BIOWL1-15 | 2026-09-04 18:32:24 | 49.76735 | 8.83101 | 188° | 15km/h | 31080m | 5.5m/s | -43.2°C | 0% | 10.5hPa | 2.7V | 03:16:28 | 02:02:34 | 00:00:00 | |
| PG1ADW-2 | 2026-09-04 18:32:23 | 49.76738 | 8.83100 | 167° | 18km/h | 31074m | 5.8m/s | -43.1°C | 2.4% | 10.5hPa | 2.6V | 03:16:00 | 00:00:00 | 00:00:00 | |
| DJ2KF-10 | 2026-09-04 18:32:22 | 49.76742 | 8.83098 | 149° | 20km/h | 31069m | 5.9m/s | -43.1°C | 2.4% | 10.5hPa | 2.6V | 00:00:00 | 02:02:32 | 00:00:00 | |
| NBG1-10 | 2026-09-04 18:32:21 | 49.76747 | 8.83093 | 137° | 22km/h | 31063m | 5.7m/s | -43.2°C | 2.5% | 10.5hPa | 2.6V | 00:00:00 | 02:02:31 | 00:00:00 | |
| DM0DOS-11 | 2026-09-04 18:32:20 | 49.76763 | 8.83060 | 127° | 13km/h | 31030m | 4.9m/s | -43.2°C | 2.5% | 10.6hPa | 2.6V | 03:16:27 | 02:02:25 | 00:00:00 | |
| DF8AY | 2026-09-04 18:32:20 | 49.76751 | 8.83086 | 130° | 24km/h | 31057m | 5.2m/s | -43.2°C | 0% | 10.6hPa | 2.6V | 03:16:28 | 02:02:30 | 00:00:00 | |
| DL1XH-west | 2026-09-04 18:32:18 | 49.76757 | 8.83073 | 125° | 18km/h | 31046m | 6.2m/s | -43.3°C | 0% | 10.6hPa | 2.7V | 03:16:28 | 02:02:28 | 00:00:00 | |
| AA1-15 | 2026-09-04 18:32:16 | 49.76761 | 8.83064 | 126° | 11km/h | 31035m | 5m/s | -43.3°C | 0% | 10.6hPa | 2.6V | 03:16:28 | 02:02:26 | 00:00:00 | |
| BIOWL1-15 | 2026-09-04 18:32:13 | 49.76767 | 8.83052 | 129° | 18km/h | 31018m | 6.3m/s | -43.2°C | 0% | 10.6hPa | 2.7V | 03:17:19 | 02:02:23 | 00:00:00 | |
| DL4BBY-15 | 2026-09-04 18:32:13 | 49.76767 | 8.83051 | 129° | 22km/h | 31019m | 6.2m/s | -44.1°C | 0% | 0hPa | 2.6V | 00:00:00 | 00:00:00 | 00:00:00 | |
| BUE01 | 2026-09-04 18:32:12 | 49.76771 | 8.83046 | 132° | 20km/h | 31013m | 5.6m/s | -43.2°C | 0.5% | 10.6hPa | 2.6V | 00:00:00 | 00:00:00 | 00:00:00 | |
| DB0ND-19 | 2026-09-04 18:32:11 | 49.76774 | 8.83040 | 137° | 22km/h | 31007m | 5.1m/s | -43.2°C | 0.5% | 10.6hPa | 2.6V | 00:00:00 | 00:00:00 | 00:00:00 | |
| DM0DOS-11 | 2026-09-04 18:32:10 | 49.76799 | 8.83016 | 131° | 20km/h | 30975m | 5.4m/s | -43.2°C | 2.4% | 10.7hPa | 2.6V | 03:16:37 | 02:02:15 | 00:00:00 | |
| DL1XH1-15 | 2026-09-04 18:32:09 | 49.76802 | 8.83009 | 119° | 24km/h | 30970m | 6.5m/s | -43.2°C | 2.5% | 10.7hPa | 2.7V | 03:16:38 | 02:02:14 | 00:00:00 | |
| DF8AY | 2026-09-04 18:32:09 | 49.76783 | 8.83030 | 151° | 20km/h | 30996m | 6.4m/s | -43.2°C | 0% | 10.7hPa | 2.6V | 03:17:19 | 02:02:19 | 00:00:00 | |
| DL1XH-west | 2026-09-04 18:32:07 | 49.76792 | 8.83024 | 156° | 18km/h | 30985m | 4.6m/s | -43.2°C | 0% | 10.7hPa | 2.7V | 03:17:19 | 02:02:17 | 00:00:00 | |
| AA1-15 | 2026-09-04 18:32:06 | 49.76796 | 8.83021 | 145° | 18km/h | 30980m | 4.5m/s | -43.2°C | 0% | 10.7hPa | 2.6V | 03:17:19 | 02:02:16 | 00:00:00 | |
| DO3MHA-11 | 2026-09-04 18:32:06 | 49.76796 | 8.83021 | 146° | 22km/h | 30981m | 4.4m/s | -43.2°C | 2.4% | 10.6hPa | 2.6V | 03:16:00 | 02:02:16 | 00:00:00 | |
| DL1XH-15 | 2026-09-04 18:32:05 | 49.76809 | 8.82967 | 90° | 26km/h | 30948m | 5.4m/s | -43.2°C | 2.4% | 10.7hPa | 2.6V | 03:16:42 | 02:02:10 | 00:00:00 | |
| BIOWL1-15 | 2026-09-04 18:32:03 | 49.76805 | 8.83000 | 110° | 27km/h | 30963m | 5.8m/s | -43.2°C | 0% | 10.7hPa | 2.7V | 03:17:19 | 02:02:13 | 00:00:00 | |
| PG1ADW-2 | 2026-09-04 18:32:03 | 49.76805 | 8.82999 | 110° | 24km/h | 30964m | 5.8m/s | -43.2°C | 2.5% | 10.6hPa | 2.6V | 00:00:00 | 00:00:00 | 00:00:00 | |
| OE5DRO-10 | 2026-09-04 18:32:01 | 49.76808 | 8.82977 | 97° | 24km/h | 30954m | 4.5m/s | -43.2°C | 2.4% | 10.7hPa | 2.6V | 00:00:00 | 00:00:00 | 00:00:00 | |
| DM0DOS-11 | 2026-09-04 18:32:00 | 49.76812 | 8.82940 | 132° | 16km/h | 30921m | 4.7m/s | -43.2°C | 2.4% | 10.8hPa | 2.6V | 03:16:47 | 02:02:05 | 00:00:00 | |
| DO1YAY-16 | 2026-09-04 18:32:00 | 49.76809 | 8.82958 | 87° | 18km/h | 30943m | 6.5m/s | -43.2°C | 0.5% | 10.8hPa | 2.6V | 00:00:00 | 00:00:00 | 00:00:00 | |
| DL1XH1-15 | 2026-09-04 18:31:59 | 49.76815 | 8.82934 | 131° | 22km/h | 30916m | 6.2m/s | -43.2°C | 2.4% | 10.8hPa | 2.6V | 03:16:48 | 02:02:04 | 00:00:00 | |
| DF8AY | 2026-09-04 18:31:59 | 49.76809 | 8.82958 | 88° | 20km/h | 30943m | 6.5m/s | -43.2°C | 0% | 10.8hPa | 2.6V | 03:17:19 | 02:02:09 | 00:00:00 | |
| DL1XH-west | 2026-09-04 18:31:57 | 49.76809 | 8.82947 | 101° | 9km/h | 30931m | 5.2m/s | -43.2°C | 0% | 10.8hPa | 2.7V | 03:17:19 | 02:02:07 | 00:00:00 | |
| AA1-15 | 2026-09-04 18:31:55 | 49.76812 | 8.82940 | 133° | 16km/h | 30921m | 4.7m/s | -43.2°C | 0% | 10.8hPa | 2.6V | 03:17:19 | 02:02:05 | 00:00:00 | |
| HSKMA3-T | 2026-09-04 18:31:52 | 49.76824 | 8.82916 | 124° | 37km/h | 30904m | 5.5m/s | -43.2°C | 0% | 10.8hPa | 2.7V | 03:17:19 | 02:02:02 | 00:00:00 | |
| EDDB2-12 | 2026-09-04 18:31:51 | 49.76829 | 8.82904 | 119° | 37km/h | 30899m | 4.5m/s | -43.2°C | 0.5% | 10.8hPa | 2.6V | 00:00:00 | 00:00:00 | 00:00:00 | |
| DM0DOS-11 | 2026-09-04 18:31:50 | 49.76832 | 8.82847 | 49° | 20km/h | 30866m | 5m/s | -43.4°C | 2.4% | 10.9hPa | 2.6V | 03:16:57 | 02:01:55 | 00:00:00 | |
| DF8AY | 2026-09-04 18:31:49 | 49.76838 | 8.82869 | 96° | 24km/h | 30883m | 6.3m/s | -43.3°C | 0% | 10.8hPa | 2.6V | 03:17:19 | 02:01:58 | 00:00:00 | |
| DL1XH1-15 | 2026-09-04 18:31:49 | 49.76829 | 8.82841 | 54° | 22km/h | 30860m | 5.3m/s | -43.4°C | 2.4% | 10.9hPa | 2.6V | 03:16:58 | 02:01:54 | 00:00:00 | |
| DL1XH-west | 2026-09-04 18:31:46 | 49.76835 | 8.82854 | 55° | 20km/h | 30871m | 5.5m/s | -43.3°C | 0% | 10.9hPa | 2.7V | 03:17:19 | 02:01:56 | 00:00:00 | |
| DO3MHA-11 | 2026-09-04 18:31:46 | 49.76835 | 8.82853 | 55° | 26km/h | 30871m | 5.4m/s | -43.3°C | 2.4% | 10.8hPa | 2.6V | 00:00:00 | 02:01:56 | 00:00:00 | |
| DL1XH-15 | 2026-09-04 18:31:45 | 49.76825 | 8.82800 | 99° | 33km/h | 30838m | 4.9m/s | -43.7°C | 2.5% | 10.9hPa | 2.6V | 03:17:02 | 02:01:50 | 00:00:00 | |
| AA1-15 | 2026-09-04 18:31:44 | 49.76829 | 8.82841 | 55° | 22km/h | 30860m | 5.3m/s | -43.4°C | 0% | 10.9hPa | 2.6V | 03:17:19 | 02:01:54 | 00:00:00 | |
| BIOWL1-15 | 2026-09-04 18:31:42 | 49.76824 | 8.82823 | 80° | 27km/h | 30849m | 5.9m/s | -43.6°C | 0% | 10.9hPa | 2.7V | 03:17:19 | 02:01:52 | 00:00:00 | |
| PG1ADW-2 | 2026-09-04 18:31:42 | 49.76824 | 8.82823 | 81° | 22km/h | 30849m | 5.9m/s | -43.5°C | 2.5% | 10.8hPa | 2.7V | 00:00:00 | 02:01:52 | 00:00:00 | |
| DB0ND-19 | 2026-09-04 18:31:40 | 49.76825 | 8.82800 | 99° | 31km/h | 30838m | 4.9m/s | -43.7°C | 0.5% | 10.9hPa | 2.6V | 00:00:00 | 00:00:00 | 00:00:00 | |
| DL1XH1-15 | 2026-09-04 18:31:39 | 49.76832 | 8.82754 | 82° | 7km/h | 30805m | 4.9m/s | -43.7°C | 2.5% | 11hPa | 2.6V | 03:17:08 | 02:01:44 | 00:00:00 | |
| DF8AY | 2026-09-04 18:31:38 | 49.76829 | 8.82777 | 108° | 27km/h | 30828m | 5.5m/s | -43.7°C | 0% | 10.9hPa | 2.7V | 03:17:19 | 02:01:48 | 00:00:00 | |
| BIOWL9-15 | 2026-09-04 18:31:37 | 49.76832 | 8.82762 | 104° | 13km/h | 30816m | 6.2m/s | -43.7°C | 0.5% | 11.0hPa | 2.7V | 00:00:00 | 00:00:00 | 00:00:00 | |
| DO3MHA-11 | 2026-09-04 18:31:36 | 49.76832 | 8.82762 | 105° | 18km/h | 30816m | 6.1m/s | -43.6°C | 2.5% | 10.9hPa | 2.7V | 00:00:00 | 02:01:46 | 00:00:00 | |
| DL1XH-15 | 2026-09-04 18:31:35 | 49.76831 | 8.82731 | 85° | 26km/h | 30783m | 5.5m/s | -43.7°C | 2.5% | 11hPa | 2.7V | 03:17:12 | 02:01:40 | 00:00:00 | |
| DL1XH-west | 2026-09-04 18:31:35 | 49.76832 | 8.82757 | 95° | 9km/h | 30810m | 5.6m/s | -43.7°C | 0% | 10.9hPa | 2.6V | 03:17:19 | 02:01:45 | 00:00:00 | |
| AA1-15 | 2026-09-04 18:31:33 | 49.76832 | 8.82750 | 81° | 9km/h | 30800m | 4.9m/s | -43.7°C | 0% | 11hPa | 2.6V | 03:17:19 | 02:01:43 | 00:00:00 | |
| HSKMA3-T | 2026-09-04 18:31:32 | 49.76832 | 8.82746 | 87° | 13km/h | 30795m | 6.1m/s | -43.7°C | 0% | 11hPa | 2.7V | 03:17:19 | 02:01:42 | 00:00:00 | |
| BIOWL1-15 | 2026-09-04 18:31:31 | 49.76832 | 8.82740 | 89° | 18km/h | 30789m | 6.1m/s | -43.7°C | 0% | 11hPa | 2.7V | 03:17:19 | 02:01:41 | 00:00:00 | |
| DB0UT-9 | 2026-09-04 18:31:30 | 49.76832 | 8.82740 | 90° | 18km/h | 30789m | 6.1m/s | -43.7°C | 0.6% | 11.0hPa | 2.6V | 03:17:00 | 00:00:00 | 00:00:00 | |
| DL1XH1-15 | 2026-09-04 18:31:29 | 49.76818 | 8.82667 | 75° | 24km/h | 30751m | 4.9m/s | -43.8°C | 2.5% | 11.1hPa | 2.6V | 03:17:18 | 02:01:34 | 00:00:00 | |
| DF8AY | 2026-09-04 18:31:27 | 49.76826 | 8.82698 | 68° | 31km/h | 30765m | 6.2m/s | -43.8°C | 0% | 11hPa | 2.6V | 03:17:19 | 02:01:37 | 00:00:00 | |
| DL1XH-west | 2026-09-04 18:31:24 | 49.76818 | 8.82667 | 75° | 24km/h | 30751m | 4.9m/s | -43.8°C | 0% | 11.1hPa | 2.6V | 03:17:19 | 02:01:34 | 00:00:00 | |
| HSKMA3-T | 2026-09-04 18:31:22 | 49.76818 | 8.82651 | 111° | 20km/h | 30739m | 6.6m/s | -43.8°C | 0% | 11.1hPa | 2.6V | 03:18:10 | 02:01:32 | 00:00:00 | |
| BIOWL1-15 | 2026-09-04 18:31:20 | 49.76824 | 8.82639 | 143° | 16km/h | 30727m | 5.2m/s | -43.8°C | 0% | 11.1hPa | 2.7V | 03:18:10 | 02:01:30 | 00:00:00 | |
| DF8AY | 2026-09-04 18:31:16 | 49.76830 | 8.82634 | 4° | 5km/h | 30704m | 5.4m/s | -43.9°C | 0% | 11.1hPa | 2.7V | 03:18:10 | 02:01:26 | 00:00:00 | |
| DO3MHA-11 | 2026-09-04 18:31:16 | 49.76830 | 8.82634 | 5° | 20km/h | 30704m | 5.3m/s | -43.8°C | 2.5% | 11.1hPa | 2.6V | 00:00:00 | 02:01:26 | 00:00:00 | |
| DL1XH-15 | 2026-09-04 18:31:15 | 49.76825 | 8.82592 | 110° | 31km/h | 30672m | 4.7m/s | -44°C | 2.5% | 11.2hPa | 2.6V | 03:17:32 | 02:01:20 | 00:00:00 | |
| DL1XH-west | 2026-09-04 18:31:14 | 49.76826 | 8.82630 | 52° | 16km/h | 30694m | 4.6m/s | -43.9°C | 0% | 11.2hPa | 2.6V | 03:18:10 | 02:01:24 | 00:00:00 | |
| DJ2DS-15 | 2026-09-04 18:31:14 | 49.76826 | 8.82630 | 52° | 18km/h | 30695m | 4.5m/s | -43.9°C | 2.5% | 11.1hPa | 2.6V | 00:00:00 | 02:01:24 | 00:00:00 | |
| HEMX73-11 | 2026-09-04 18:31:13 | 49.76823 | 8.82623 | 72° | 20km/h | 30690m | 5.8m/s | -43.9°C | 0.5% | 11.2hPa | 2.6V | 03:18:00 | 00:00:00 | 00:00:00 | |
| IW2NTF | 2026-09-04 18:31:12 | 49.76834 | 8.82571 | 137° | 9km/h | 30657m | 6.1m/s | 0°C | 0% | 0hPa | 2.6V | 03:17:35 | 02:01:17 | 00:00:00 | |
| AA1-15 | 2026-09-04 18:31:12 | 49.76823 | 8.82615 | 86° | 26km/h | 30683m | 6.4m/s | -44°C | 0% | 11.2hPa | 2.7V | 03:18:10 | 02:01:22 | 00:00:00 | |
| BIOWL1-15 | 2026-09-04 18:31:12 | 49.76825 | 8.82592 | 111° | 31km/h | 30672m | 4.7m/s | -44°C | 0% | 11.2hPa | 2.6V | 03:18:10 | 02:01:20 | 00:00:00 | |
| HSKMA3-T | 2026-09-04 18:31:11 | 49.76823 | 8.82604 | 100° | 31km/h | 30677m | 5.6m/s | -44°C | 0% | 11.2hPa | 2.7V | 03:18:10 | 02:01:21 | 00:00:00 | |
| DM0DOS-11 | 2026-09-04 18:31:10 | 49.76834 | 8.82571 | 318° | 9km/h | 30645m | 6m/s | -44.1°C | 2.5% | 11.2hPa | 2.7V | 03:17:37 | 02:01:15 | 00:00:00 | |
| DF8AY | 2026-09-04 18:31:05 | 49.76834 | 8.82571 | 318° | 9km/h | 30645m | 6m/s | -44.2°C | 0% | 11.3hPa | 2.7V | 03:18:10 | 02:01:15 | 00:00:00 | |
| DL1XH-west | 2026-09-04 18:31:04 | 49.76831 | 8.82573 | 332° | 15km/h | 30639m | 5.3m/s | -44.2°C | 0% | 11.3hPa | 2.7V | 03:18:10 | 02:01:14 | 00:00:00 | |
| AA1-15 | 2026-09-04 18:31:01 | 49.76820 | 8.82572 | 43° | 18km/h | 30623m | 6m/s | -44.2°C | 0% | 11.3hPa | 2.6V | 03:18:10 | 02:01:11 | 00:00:00 | |
| HSKMA3-T | 2026-09-04 18:31:00 | 49.76818 | 8.82566 | 69° | 20km/h | 30617m | 6.2m/s | -44.2°C | 0% | 11.3hPa | 2.6V | 03:18:10 | 02:01:10 | 00:00:00 | |
| DL1XH1-15 | 2026-09-04 18:30:59 | 49.76825 | 8.82523 | 141° | 5km/h | 30583m | 5.8m/s | -44.1°C | 2.5% | 11.3hPa | 2.6V | 03:17:48 | 02:01:04 | 00:00:00 | |
| BIOWL1-15 | 2026-09-04 18:30:59 | 49.76817 | 8.82558 | 88° | 24km/h | 30611m | 5.7m/s | -44.2°C | 0% | 11.3hPa | 2.7V | 03:18:10 | 02:01:09 | 00:00:00 | |
| DL1XH-west | 2026-09-04 18:30:54 | 49.76825 | 8.82523 | 142° | 5km/h | 30583m | 5.8m/s | -44.2°C | 0% | 11.3hPa | 2.6V | 03:18:10 | 02:01:04 | 00:00:00 | |
| AA1-15 | 2026-09-04 18:30:51 | 49.76823 | 8.82522 | 18° | 9km/h | 30566m | 6m/s | -44.2°C | 0% | 11.4hPa | 2.7V | 03:18:10 | 02:01:01 | 00:00:00 | |
| DL1XH-15 | 2026-09-04 18:30:49 | 49.76812 | 8.82502 | 66° | 22km/h | 30543m | 4.7m/s | -44.2°C | 2.6% | 11.4hPa | 2.6V | 03:17:55 | 02:00:57 | 00:00:00 | |
| DL1XH1-15 | 2026-09-04 18:30:49 | 49.76810 | 8.82485 | 106° | 7km/h | 30526m | 6.4m/s | -44.3°C | 2.6% | 11.5hPa | 2.7V | 03:17:58 | 02:00:54 | 00:00:00 | |
| BIOWL1-15 | 2026-09-04 18:30:49 | 49.76818 | 8.82516 | 49° | 18km/h | 30554m | 6.1m/s | -44.2°C | 0% | 11.4hPa | 2.6V | 03:18:10 | 02:00:59 | 00:00:00 | |
| DM0DOS-11 | 2026-09-04 18:30:48 | 49.76811 | 8.82483 | 151° | 7km/h | 30520m | 5.6m/s | -44.3°C | 2.6% | 11.4hPa | 2.7V | 03:17:59 | 02:00:53 | 00:00:00 | |
| DL3AQ-11 | 2026-09-04 18:30:47 | 49.76811 | 8.82495 | 72° | 16km/h | 30539m | 5.5m/s | -44.2°C | 0.6% | 11.4hPa | 2.7V | 00:00:00 | 00:00:00 | 00:00:00 | |
| DL1XH-west | 2026-09-04 18:30:44 | 49.76810 | 8.82485 | 107° | 7km/h | 30526m | 6.4m/s | -44.3°C | 0% | 11.5hPa | 2.7V | 03:18:10 | 02:00:54 | 00:00:00 | |
| DL4BBY-15 | 2026-09-04 18:30:43 | 49.76811 | 8.82483 | 152° | 9km/h | 30521m | 5.6m/s | -45.2°C | 0% | 0hPa | 2.6V | 00:00:00 | 00:00:00 | 00:00:00 | |
| NBG1-10 | 2026-09-04 18:30:42 | 49.76813 | 8.82482 | 163° | 11km/h | 30515m | 5.0m/s | -44.3°C | 2.6% | 11.5hPa | 2.6V | 03:18:00 | 02:00:52 | 00:00:00 | |
| DO2KSM | 2026-09-04 18:30:41 | 49.76813 | 8.82481 | 164° | 9km/h | 30515m | 5.0m/s | -44.3°C | 0.6% | 11.5hPa | 2.6V | 03:18:00 | 00:00:00 | 00:00:00 | |
| IW2NTF | 2026-09-04 18:30:40 | 49.76822 | 8.82453 | 64° | 9km/h | 30475m | 6.9m/s | 0°C | 0% | 0hPa | 2.6V | 03:18:07 | 02:00:45 | 00:00:00 | |
| AA1-15 | 2026-09-04 18:30:40 | 49.76818 | 8.82477 | 141° | 13km/h | 30504m | 6.6m/s | -44.3°C | 0% | 11.5hPa | 2.6V | 03:18:10 | 02:00:50 | 00:00:00 | |
| BUE01 | 2026-09-04 18:30:39 | 49.76823 | 8.82462 | 94° | 15km/h | 30487m | 5.2m/s | -44.3°C | 0.6% | 11.5hPa | 2.6V | 00:00:00 | 00:00:00 | 00:00:00 | |
| DM0DOS-11 | 2026-09-04 18:30:38 | 49.76820 | 8.82451 | 2° | 5km/h | 30463m | 5.3m/s | -44.3°C | 2.6% | 11.6hPa | 2.6V | 03:18:09 | 02:00:43 | 00:00:00 | |
| BIOWL1-15 | 2026-09-04 18:30:38 | 49.76822 | 8.82468 | 109° | 16km/h | 30492m | 5.6m/s | -44.3°C | 0% | 11.5hPa | 2.7V | 03:18:10 | 02:00:48 | 00:00:00 | |
| DL1XH-west | 2026-09-04 18:30:33 | 49.76820 | 8.82451 | 2° | 5km/h | 30463m | 5.3m/s | -44.3°C | 0% | 11.6hPa | 2.6V | 03:18:10 | 02:00:43 | 00:00:00 | |
| SFWM-10 | 2026-09-04 18:30:32 | 49.76820 | 8.82451 | 3° | 5km/h | 30463m | 5.3m/s | -44.3°C | 0.6% | 11.6hPa | 2.6V | 03:18:00 | 00:00:00 | 00:00:00 | |
| IW2NTF | 2026-09-04 18:30:31 | 49.76825 | 8.82417 | 129° | 13km/h | 30418m | 6.6m/s | 0°C | 0% | 0hPa | 2.6V | 03:18:17 | 02:00:35 | 00:00:00 | |
| AA1-15 | 2026-09-04 18:30:30 | 49.76818 | 8.82447 | 89° | 9km/h | 30447m | 6.6m/s | -44.3°C | 0% | 11.6hPa | 2.7V | 03:19:01 | 02:00:40 | 00:00:00 | |
| DM0DOS-11 | 2026-09-04 18:30:28 | 49.76828 | 8.82414 | 153° | 4km/h | 30407m | 5.2m/s | -44.3°C | 2.6% | 11.7hPa | 2.7V | 03:18:19 | 02:00:33 | 00:00:00 | |
| DF8AY | 2026-09-04 18:30:28 | 49.76829 | 8.82414 | 154° | 4km/h | 30407m | 5.2m/s | -44.3°C | 0% | 11.7hPa | 2.7V | 03:19:01 | 02:00:33 | 00:00:00 | |
| BIOWL1-15 | 2026-09-04 18:30:27 | 49.76821 | 8.82428 | 113° | 20km/h | 30429m | 5.1m/s | -44.3°C | 0% | 11.6hPa | 2.6V | 03:19:01 | 02:00:37 | 00:00:00 | |
| DL1XH-west | 2026-09-04 18:30:22 | 49.76829 | 8.82413 | 122° | 4km/h | 30401m | 5.6m/s | -44.3°C | 0% | 11.7hPa | 2.7V | 03:19:01 | 02:00:32 | 00:00:00 | |
| PG1ADW-2 | 2026-09-04 18:30:22 | 49.76829 | 8.82413 | 122° | 7km/h | 30402m | 5.5m/s | -44.3°C | 2.6% | 11.6hPa | 2.6V | 00:00:00 | 02:00:32 | 00:00:00 | |
| DF7PN | 2026-09-04 18:30:21 | 49.76830 | 8.82411 | 84° | 4km/h | 30396m | 6.7m/s | -44.4°C | 0.6% | 11.7hPa | 2.6V | 00:00:00 | 00:00:00 | 00:00:00 | |
| DL3AQ-11 | 2026-09-04 18:30:20 | 49.76829 | 8.82405 | 67° | 11km/h | 30384m | 5.4m/s | -44.4°C | 0.6% | 11.7hPa | 2.6V | 00:00:00 | 00:00:00 | 00:00:00 | |
| DL1XH1-15 | 2026-09-04 18:30:19 | 49.76825 | 8.82390 | 94° | 5km/h | 30355m | 5.2m/s | -44.4°C | 2.6% | 11.8hPa | 2.6V | 03:18:28 | 02:00:24 | 00:00:00 | |
| AA1-15 | 2026-09-04 18:30:19 | 49.76829 | 8.82405 | 68° | 11km/h | 30383m | 5.4m/s | -44.4°C | 0% | 11.7hPa | 2.6V | 03:19:01 | 02:00:29 | 00:00:00 | |
| BIOWL1-15 | 2026-09-04 18:30:17 | 49.76827 | 8.82397 | 66° | 9km/h | 30373m | 6.2m/s | -44.4°C | 0% | 11.7hPa | 2.7V | 03:19:01 | 02:00:27 | 00:00:00 | |
| HSKMA3-T | 2026-09-04 18:30:16 | 49.76826 | 8.82394 | 65° | 7km/h | 30367m | 6.7m/s | -44.4°C | 0% | 11.7hPa | 2.6V | 03:19:01 | 02:00:26 | 00:00:00 | |
| DF8AY | 2026-09-04 18:30:13 | 49.76826 | 8.82387 | 103° | 9km/h | 30350m | 5.7m/s | -44.4°C | 0% | 11.8hPa | 2.7V | 03:19:01 | 02:00:23 | 00:00:00 | |
| DL1XH-west | 2026-09-04 18:30:11 | 49.76827 | 8.82377 | 99° | 18km/h | 30338m | 6.9m/s | -44.4°C | 0% | 11.8hPa | 2.6V | 03:19:01 | 02:00:21 | 00:00:00 | |
| BIOWL1-15 | 2026-09-04 18:30:11 | 49.76832 | 8.82346 | 108° | 15km/h | 30316m | 6.4m/s | -44.4°C | 0% | 11.8hPa | 2.7V | 03:19:01 | 02:00:17 | 00:00:00 | |
| AU51GT2 | 2026-09-04 18:30:11 | 49.76828 | 8.82369 | 99° | 22km/h | 30332m | 5.9m/s | -44.4°C | 0.6% | 11.8hPa | 2.7V | 00:00:00 | 00:00:00 | 00:00:00 | |
| DL1XH1-15 | 2026-09-04 18:30:09 | 49.76830 | 8.82340 | 209° | 2km/h | 30288m | 5.4m/s | -44.4°C | 2.6% | 11.9hPa | 2.7V | 03:18:38 | 02:00:14 | 00:00:00 | |
| AA1-15 | 2026-09-04 18:30:09 | 49.76829 | 8.82361 | 100° | 24km/h | 30326m | 5m/s | -44.4°C | 0% | 11.8hPa | 2.6V | 03:19:01 | 02:00:19 | 00:00:00 | |
| HSKMA3-T | 2026-09-04 18:30:06 | 49.76833 | 8.82342 | 74° | 9km/h | 30308m | 11.6m/s | -44.4°C | 0% | 11.8hPa | 2.6V | 03:19:01 | 02:00:16 | 00:00:00 | |
| DF8AY | 2026-09-04 18:30:02 | 49.76830 | 8.82339 | 54° | 5km/h | 30276m | 6.5m/s | -44.3°C | 0% | 11.9hPa | 2.6V | 03:19:01 | 02:00:12 | 00:00:00 | |
| DL1XH-west | 2026-09-04 18:30:00 | 49.76828 | 8.82331 | 73° | 16km/h | 30264m | 5.2m/s | -44.3°C | 0% | 11.9hPa | 2.6V | 03:19:01 | 02:00:10 | 00:00:00 | |
| HARRO8 | 2026-09-04 18:30:00 | 49.76828 | 8.82331 | 72° | 15km/h | 30265m | 5.2m/s | -44.3°C | 0.6% | 11.9hPa | 2.6V | 00:00:00 | 00:00:00 | 00:00:00 | |
| DL1XH1-15 | 2026-09-04 18:29:59 | 49.76836 | 8.82291 | 129° | 22km/h | 30228m | 6m/s | -44.2°C | 2.6% | 12hPa | 2.6V | 03:18:48 | 02:00:04 | 00:00:00 | |
| AA1-15 | 2026-09-04 18:29:58 | 49.76827 | 8.82318 | 94° | 18km/h | 30253m | 6.3m/s | -44.2°C | 0% | 11.9hPa | 2.7V | 03:19:01 | 02:00:08 | 00:00:00 | |
| BIOWL1-15 | 2026-09-04 18:29:56 | 49.76830 | 8.82304 | 122° | 20km/h | 30240m | 6.1m/s | -44.2°C | 0% | 11.9hPa | 2.7V | 03:19:01 | 02:00:06 | 00:00:00 | |
| DF8AY | 2026-09-04 18:29:52 | 49.76843 | 8.82277 | 119° | 22km/h | 30216m | 6.1m/s | -44.1°C | 0% | 12hPa | 2.6V | 03:19:01 | 02:00:02 | 00:00:00 | |
| BIOWL1-15 | 2026-09-04 18:29:52 | 49.76852 | 8.82260 | 220° | 9km/h | 30181m | 5.8m/s | -44.1°C | 0% | 12.1hPa | 2.6V | 03:19:01 | 01:59:56 | 00:00:00 | |
| DL1XH-west | 2026-09-04 18:29:50 | 49.76846 | 8.82264 | 112° | 15km/h | 30205m | 4.7m/s | -44.1°C | 0% | 12hPa | 2.7V | 03:19:01 | 02:00:00 | 00:00:00 | |
| SFWM-10 | 2026-09-04 18:29:49 | 49.76846 | 8.82264 | 113° | 15km/h | 30205m | 4.7m/s | -44.1°C | 0.6% | 12.0hPa | 2.7V | 03:19:00 | 00:00:00 | 00:00:00 | |
| DM0DOS-11 | 2026-09-04 18:29:48 | 49.76857 | 8.82261 | 126° | 9km/h | 30165m | 6.6m/s | -44.1°C | 2.5% | 12.1hPa | 2.7V | 03:18:59 | 01:59:53 | 00:00:00 | |
| AA1-15 | 2026-09-04 18:29:48 | 49.76849 | 8.82258 | 158° | 5km/h | 30194m | 6.8m/s | -44.1°C | 0% | 12.1hPa | 2.6V | 03:19:01 | 01:59:58 | 00:00:00 | |
| EDDB2-12 | 2026-09-04 18:29:47 | 49.76851 | 8.82258 | 208° | 7km/h | 30187m | 7.1m/s | -44.1°C | 0.6% | 12.1hPa | 2.6V | 00:00:00 | 00:00:00 | 00:00:00 | |
| IW2NTF | 2026-09-04 18:29:46 | 49.76861 | 8.82249 | 109° | 24km/h | 30152m | 5.4m/s | 0°C | 0% | 0hPa | 2.6V | 03:19:01 | 01:59:51 | 00:00:00 | |
| HSKMA3-T | 2026-09-04 18:29:45 | 49.76854 | 8.82262 | 213° | 9km/h | 30175m | 4.9m/s | -44.2°C | 0% | 12.1hPa | 2.6V | 03:19:01 | 01:59:55 | 00:00:00 | |
| DF8AY | 2026-09-04 18:29:41 | 49.76861 | 8.82249 | 110° | 24km/h | 30152m | 5.4m/s | -44.1°C | 0% | 12.1hPa | 2.6V | 03:19:01 | 01:59:51 | 00:00:00 | |
| DL1XH-west | 2026-09-04 18:29:40 | 49.76863 | 8.82240 | 113° | 27km/h | 30147m | 5m/s | -44.1°C | 0% | 12.1hPa | 2.6V | 03:19:52 | 01:59:50 | 00:00:00 | |
| DL3AQ-11 | 2026-09-04 18:29:40 | 49.76866 | 8.82231 | 119° | 26km/h | 30142m | 5.9m/s | -44.2°C | 0.6% | 12.2hPa | 2.6V | 00:00:00 | 00:00:00 | 00:00:00 | |
| DL1XH1-15 | 2026-09-04 18:29:39 | 49.76882 | 8.82212 | 160° | 7km/h | 30114m | 6m/s | -44.3°C | 2.6% | 12.2hPa | 2.6V | 03:19:08 | 01:59:44 | 00:00:00 | |
| AA1-15 | 2026-09-04 18:29:38 | 49.76870 | 8.82223 | 131° | 22km/h | 30136m | 6.1m/s | -44.2°C | 0% | 12.2hPa | 2.6V | 03:19:52 | 01:59:48 | 00:00:00 | |
| BIOWL1-15 | 2026-09-04 18:29:35 | 49.76880 | 8.82213 | 166° | 11km/h | 30119m | 5.4m/s | -44.3°C | 0% | 12.2hPa | 2.7V | 03:19:52 | 01:59:45 | 00:00:00 | |
| HSKMA3-T | 2026-09-04 18:29:34 | 49.76882 | 8.82212 | 160° | 7km/h | 30114m | 6.1m/s | -44.3°C | 0% | 12.2hPa | 2.6V | 03:19:52 | 01:59:44 | 00:00:00 | |
| DF8AY | 2026-09-04 18:29:31 | 49.76882 | 8.82205 | 71° | 11km/h | 30095m | 5.1m/s | -44.3°C | 0% | 12.2hPa | 2.6V | 03:19:52 | 01:59:41 | 00:00:00 | |
| SONCRA | 2026-09-04 18:29:31 | 49.76881 | 8.82200 | 79° | 13km/h | 30090m | 5.0m/s | -44.3°C | 0.6% | 12.2hPa | 2.6V | 00:00:00 | 00:00:00 | 00:00:00 | |
| DL1XH1-15 | 2026-09-04 18:29:29 | 49.76899 | 8.82163 | 127° | 27km/h | 30055m | 6.5m/s | -44.3°C | 2.5% | 12.3hPa | 2.6V | 03:19:18 | 01:59:34 | 00:00:00 | |
| DL1XH-west | 2026-09-04 18:29:29 | 49.76881 | 8.82195 | 101° | 15km/h | 30085m | 5.6m/s | -44.3°C | 0% | 12.2hPa | 2.7V | 03:19:52 | 01:59:39 | 00:00:00 | |
| HARRO8 | 2026-09-04 18:29:29 | 49.76881 | 8.82195 | 101° | 13km/h | 30085m | 5.6m/s | -44.3°C | 0.6% | 12.2hPa | 2.7V | 00:00:00 | 00:00:00 | 00:00:00 | |
| DM0DOS-11 | 2026-09-04 18:29:28 | 49.76902 | 8.82154 | 119° | 26km/h | 30049m | 5.9m/s | -44.3°C | 2.6% | 12.3hPa | 2.7V | 03:19:19 | 01:59:33 | 00:00:00 | |
| AA1-15 | 2026-09-04 18:29:27 | 49.76886 | 8.82184 | 134° | 20km/h | 30072m | 6.2m/s | -44.3°C | 0% | 12.3hPa | 2.6V | 03:19:52 | 01:59:37 | 00:00:00 | |
| DL3AQ-11 | 2026-09-04 18:29:27 | 49.76890 | 8.82178 | 136° | 24km/h | 30067m | 5.6m/s | -44.3°C | 0.5% | 12.3hPa | 2.6V | 00:00:00 | 00:00:00 | 00:00:00 | |
| DO3MHA-11 | 2026-09-04 18:29:26 | 49.76890 | 8.82178 | 137° | 18km/h | 30067m | 5.6m/s | -44.2°C | 2.5% | 12.2hPa | 2.6V | 03:19:00 | 01:59:36 | 00:00:00 | |
| SONDE2-11 | 2026-09-04 18:29:25 | 49.76894 | 8.82171 | 133° | 26km/h | 30061m | 5.7m/s | -44.3°C | 0.6% | 12.3hPa | 2.6V | 00:00:00 | 00:00:00 | 00:00:00 | |
| DL1XH-15 | 2026-09-04 18:29:24 | 49.76910 | 8.82128 | 115° | 11km/h | 30025m | 6.1m/s | -44.3°C | 2.6% | 12.3hPa | 2.6V | 03:19:23 | 01:59:29 | 00:00:00 | |
| HSKMA3-T | 2026-09-04 18:29:24 | 49.76899 | 8.82163 | 127° | 27km/h | 30055m | 6.5m/s | -44.3°C | 0% | 12.3hPa | 2.6V | 03:19:52 | 01:59:34 | 00:00:00 | |
| BIOWL1-15 | 2026-09-04 18:29:21 | 49.76907 | 8.82138 | 113° | 20km/h | 30038m | 5.3m/s | -44.3°C | 0% | 12.3hPa | 2.7V | 03:19:52 | 01:59:31 | 00:00:00 | |
| DL1XH1-15 | 2026-09-04 18:29:19 | 49.76905 | 8.82107 | 60° | 20km/h | 29997m | 5.3m/s | -44.4°C | 2.6% | 12.4hPa | 2.7V | 03:19:28 | 01:59:24 | 00:00:00 | |
| DM0DOS-11 | 2026-09-04 18:29:18 | 49.76903 | 8.82101 | 68° | 20km/h | 29991m | 4.9m/s | -44.4°C | 2.6% | 12.4hPa | 2.6V | 03:19:29 | 01:59:23 | 00:00:00 | |
| DL1XH-west | 2026-09-04 18:29:18 | 49.76911 | 8.82125 | 101° | 7km/h | 30020m | 5.1m/s | -44.3°C | 0% | 12.4hPa | 2.6V | 03:19:52 | 01:59:28 | 00:00:00 | |
| AA1-15 | 2026-09-04 18:29:16 | 49.76910 | 8.82118 | 58° | 13km/h | 30009m | 6.6m/s | -44.4°C | 0% | 12.4hPa | 2.7V | 03:19:52 | 01:59:26 | 00:00:00 | |
| DO3MHA-11 | 2026-09-04 18:29:16 | 49.76910 | 8.82118 | 58° | 18km/h | 30009m | 6.5m/s | -44.3°C | 2.6% | 12.4hPa | 2.7V | 00:00:00 | 01:59:26 | 00:00:00 | |
| KANTATE | 2026-09-04 18:29:15 | 49.76910 | 8.82118 | 59° | 13km/h | 30009m | 6.6m/s | -44.4°C | 0.6% | 12.4hPa | 2.7V | 00:00:00 | 00:00:00 | 00:00:00 | |
| DL1XH-15 | 2026-09-04 18:29:14 | 49.76907 | 8.82076 | 133° | 20km/h | 29968m | 5.4m/s | -44.6°C | 2.6% | 12.5hPa | 2.7V | 03:19:33 | 01:59:19 | 00:00:00 | |
| HSKMA3-T | 2026-09-04 18:29:14 | 49.76905 | 8.82107 | 60° | 20km/h | 29997m | 5.3m/s | -44.4°C | 0% | 12.4hPa | 2.7V | 03:19:52 | 01:59:24 | 00:00:00 | |
| BIOWL1-15 | 2026-09-04 18:29:10 | 49.76904 | 8.82081 | 124° | 18km/h | 29973m | 6.6m/s | -44.6°C | 0% | 12.5hPa | 2.6V | 03:19:52 | 01:59:20 | 00:00:00 | |
| HEMX73-11 | 2026-09-04 18:29:09 | 49.76904 | 8.82081 | 125° | 18km/h | 29974m | 6.6m/s | -44.6°C | 0.6% | 12.5hPa | 2.6V | 03:19:00 | 00:00:00 | 00:00:00 | |
| DM0DOS-11 | 2026-09-04 18:29:08 | 49.76910 | 8.82032 | 53° | 22km/h | 29935m | 4.8m/s | -44.6°C | 2.6% | 12.5hPa | 2.6V | 03:19:39 | 01:59:13 | 00:00:00 | |
| DL1XH-west | 2026-09-04 18:29:07 | 49.76913 | 8.82063 | 119° | 20km/h | 29957m | 5.9m/s | -44.6°C | 0% | 12.5hPa | 2.7V | 03:19:52 | 01:59:17 | 00:00:00 | |
| AA1-15 | 2026-09-04 18:29:05 | 49.76915 | 8.82048 | 80° | 22km/h | 29945m | 5.6m/s | -44.6°C | 0% | 12.5hPa | 2.6V | 03:19:52 | 01:59:15 | 00:00:00 | |
| HSKMA3-T | 2026-09-04 18:29:03 | 49.76910 | 8.82032 | 54° | 22km/h | 29935m | 4.8m/s | -44.6°C | 0% | 12.5hPa | 2.6V | 03:19:52 | 01:59:13 | 00:00:00 | |
| IW2NTF | 2026-09-04 18:29:03 | 49.76897 | 8.82011 | 89° | 9km/h | 29901m | 6.1m/s | 0°C | 0% | 0hPa | 2.6V | 00:00:00 | 01:59:07 | 00:00:00 | |
| BIOWL1-15 | 2026-09-04 18:29:00 | 49.76901 | 8.82018 | 32° | 11km/h | 29917m | 5.7m/s | -44.7°C | 0% | 12.6hPa | 2.7V | 03:19:52 | 01:59:10 | 00:00:00 | |
| DL1XH-west | 2026-09-04 18:28:56 | 49.76897 | 8.82007 | 114° | 15km/h | 29895m | 5.4m/s | -44.7°C | 0% | 12.6hPa | 2.6V | 03:19:52 | 01:59:06 | 00:00:00 | |
| AA1-15 | 2026-09-04 18:28:55 | 49.76900 | 8.82002 | 128° | 18km/h | 29889m | 5.7m/s | -44.7°C | 0% | 12.6hPa | 2.7V | 03:19:52 | 01:59:05 | 00:00:00 | |
| DL1XH-15 | 2026-09-04 18:28:54 | 49.76920 | 8.81962 | 82° | 20km/h | 29855m | 6.9m/s | -44.8°C | 2.6% | 12.7hPa | 2.6V | 03:19:53 | 01:58:59 | 00:00:00 | |
| HSKMA3-T | 2026-09-04 18:28:52 | 49.76913 | 8.81984 | 139° | 26km/h | 29871m | 4.6m/s | -44.7°C | 0% | 12.7hPa | 2.6V | 03:19:52 | 01:59:02 | 00:00:00 | |
| BIOWL1-15 | 2026-09-04 18:28:49 | 49.76919 | 8.81962 | 83° | 20km/h | 29855m | 6.9m/s | -44.8°C | 0% | 12.7hPa | 2.6V | 03:20:43 | 01:58:59 | 00:00:00 | |
| DM0DOS-11 | 2026-09-04 18:28:48 | 49.76905 | 8.81941 | 191° | 2km/h | 29821m | 5.3m/s | -44.7°C | 2.7% | 12.8hPa | 2.6V | 03:19:59 | 01:58:53 | 00:00:00 | |
| DL1XH-west | 2026-09-04 18:28:46 | 49.76911 | 8.81944 | 32° | 16km/h | 29837m | 5.8m/s | -44.8°C | 0% | 12.7hPa | 2.7V | 03:20:43 | 01:58:56 | 00:00:00 | |
| EDDB2-12 | 2026-09-04 18:28:45 | 49.76908 | 8.81942 | 21° | 11km/h | 29832m | 6.0m/s | -44.8°C | 0.6% | 12.7hPa | 2.7V | 00:00:00 | 00:00:00 | 00:00:00 | |
| DL1XH-15 | 2026-09-04 18:28:44 | 49.76916 | 8.81934 | 150° | 22km/h | 29797m | 5.4m/s | -44.7°C | 2.6% | 12.8hPa | 2.7V | 03:20:03 | 01:58:49 | 00:00:00 | |
| AA1-15 | 2026-09-04 18:28:44 | 49.76906 | 8.81941 | 8° | 4km/h | 29826m | 5.4m/s | -44.7°C | 0% | 12.7hPa | 2.6V | 03:20:43 | 01:58:54 | 00:00:00 | |
| HSKMA3-T | 2026-09-04 18:28:41 | 49.76909 | 8.81940 | 159° | 11km/h | 29809m | 6.3m/s | -44.7°C | 0% | 12.8hPa | 2.7V | 03:20:43 | 01:58:51 | 00:00:00 | |
| BIOWL1-15 | 2026-09-04 18:28:40 | 49.76921 | 8.81929 | 150° | 24km/h | 29792m | 5.5m/s | -44.7°C | 0% | 12.8hPa | 2.6V | 03:20:43 | 01:58:48 | 00:00:00 | |
| DL1XH1-15 | 2026-09-04 18:28:39 | 49.76936 | 8.81909 | 97° | 16km/h | 29771m | 5.3m/s | -44.6°C | 2.6% | 12.8hPa | 2.7V | 03:20:08 | 01:58:44 | 00:00:00 | |
| DF8AY | 2026-09-04 18:28:39 | 49.76916 | 8.81934 | 150° | 22km/h | 29797m | 5.4m/s | -44.7°C | 0% | 12.8hPa | 2.7V | 03:20:43 | 01:58:49 | 00:00:00 | |
| DM0DOS-11 | 2026-09-04 18:28:38 | 49.76935 | 8.81902 | 72° | 20km/h | 29765m | 7.2m/s | -44.6°C | 2.6% | 12.8hPa | 2.7V | 03:20:09 | 01:58:43 | 00:00:00 | |
| DL1XH-west | 2026-09-04 18:28:35 | 49.76934 | 8.81915 | 126° | 16km/h | 29776m | 4.4m/s | -44.6°C | 0% | 12.8hPa | 2.6V | 03:20:43 | 01:58:45 | 00:00:00 | |
| AA1-15 | 2026-09-04 18:28:33 | 49.76935 | 8.81902 | 73° | 20km/h | 29765m | 7.2m/s | -44.6°C | 0% | 12.8hPa | 2.7V | 03:20:43 | 01:58:43 | 00:00:00 | |
| HSKMA3-T | 2026-09-04 18:28:31 | 49.76929 | 8.81885 | 49° | 29km/h | 29751m | 5.2m/s | -44.7°C | 0% | 12.9hPa | 2.6V | 03:20:43 | 01:58:41 | 00:00:00 | |
| DF8AY | 2026-09-04 18:28:29 | 49.76920 | 8.81871 | 46° | 18km/h | 29743m | 4.4m/s | -44.7°C | 0% | 12.9hPa | 2.6V | 03:20:43 | 01:58:39 | 00:00:00 | |
| DL1XH1-15 | 2026-09-04 18:28:29 | 49.76933 | 8.81859 | 160° | 29km/h | 29714m | 6.1m/s | -44.7°C | 2.6% | 13hPa | 2.6V | 03:20:18 | 01:58:34 | 00:00:00 | |
| SONCRA | 2026-09-04 18:28:29 | 49.76918 | 8.81867 | 61° | 9km/h | 29738m | 6.0m/s | -44.7°C | 0.6% | 12.9hPa | 2.6V | 00:00:00 | 00:00:00 | 00:00:00 | |
| DM0DOS-11 | 2026-09-04 18:28:28 | 49.76940 | 8.81854 | 148° | 31km/h | 29708m | 5.6m/s | -44.8°C | 2.6% | 13hPa | 2.6V | 03:20:19 | 01:58:33 | 00:00:00 | |
| BIOWL1-15 | 2026-09-04 18:28:27 | 49.76918 | 8.81864 | 153° | 7km/h | 29731m | 6.1m/s | -44.7°C | 0% | 12.9hPa | 2.7V | 03:20:43 | 01:58:37 | 00:00:00 | |
| DL1XH-west | 2026-09-04 18:28:25 | 49.76926 | 8.81862 | 169° | 26km/h | 29720m | 5.4m/s | -44.7°C | 0% | 12.9hPa | 2.7V | 03:20:43 | 01:58:35 | 00:00:00 | |
| DL1XH-15 | 2026-09-04 18:28:24 | 49.76956 | 8.81817 | 98° | 24km/h | 29687m | 6.2m/s | -44.8°C | 2.6% | 13hPa | 2.7V | 03:20:23 | 01:58:29 | 00:00:00 | |
| AA1-15 | 2026-09-04 18:28:23 | 49.76940 | 8.81854 | 149° | 31km/h | 29708m | 5.6m/s | -44.8°C | 0% | 13hPa | 2.6V | 03:20:43 | 01:58:33 | 00:00:00 | |
| HSKMA3-T | 2026-09-04 18:28:20 | 49.76954 | 8.81827 | 111° | 27km/h | 29693m | 5.6m/s | -44.8°C | 0% | 13hPa | 2.7V | 03:20:43 | 01:58:30 | 00:00:00 | |
| DL1XH1-15 | 2026-09-04 18:28:19 | 49.76949 | 8.81777 | 76° | 22km/h | 29658m | 5.3m/s | -44.9°C | 2.7% | 13.1hPa | 2.6V | 03:20:28 | 01:58:24 | 00:00:00 | |
| DM0DOS-11 | 2026-09-04 18:28:18 | 49.76948 | 8.81769 | 93° | 20km/h | 29653m | 4.4m/s | -45°C | 2.6% | 13.1hPa | 2.7V | 03:20:29 | 01:58:23 | 00:00:00 | |
| BIOWL1-15 | 2026-09-04 18:28:18 | 49.76953 | 8.81793 | 65° | 22km/h | 29670m | 5.3m/s | -44.9°C | 0% | 13hPa | 2.6V | 03:20:43 | 01:58:26 | 00:00:00 | |
| DL1XH-west | 2026-09-04 18:28:14 | 49.76949 | 8.81777 | 76° | 22km/h | 29658m | 5.3m/s | -44.9°C | 0% | 13.1hPa | 2.6V | 03:20:43 | 01:58:24 | 00:00:00 | |
| DL1XH-15 | 2026-09-04 18:28:14 | 49.76963 | 8.81753 | 175° | 26km/h | 29630m | 5.9m/s | -45°C | 2.6% | 13.1hPa | 2.6V | 03:20:33 | 01:58:19 | 00:00:00 | |
| AA1-15 | 2026-09-04 18:28:13 | 49.76948 | 8.81769 | 94° | 20km/h | 29653m | 4.4m/s | -45°C | 0% | 13.1hPa | 2.7V | 03:20:43 | 01:58:23 | 00:00:00 | |
| HSKMA3-T | 2026-09-04 18:28:10 | 49.76957 | 8.81754 | 165° | 22km/h | 29637m | 7.3m/s | -45°C | 0% | 13.1hPa | 2.6V | 03:20:43 | 01:58:20 | 00:00:00 | |
| OE5DRO-10 | 2026-09-04 18:28:10 | 49.76957 | 8.81754 | 166° | 22km/h | 29637m | 7.3m/s | -45.0°C | 2.7% | 13.1hPa | 2.7V | 00:00:00 | 00:00:00 | 00:00:00 | |
| DL1XH1-15 | 2026-09-04 18:28:09 | 49.76986 | 8.81728 | 96° | 27km/h | 29604m | 5.5m/s | -45°C | 2.6% | 13.2hPa | 2.7V | 03:20:38 | 01:58:14 | 00:00:00 | |
| DM0DOS-11 | 2026-09-04 18:28:08 | 49.76986 | 8.81718 | 83° | 27km/h | 29599m | 5.1m/s | -45°C | 2.6% | 13.2hPa | 2.6V | 03:20:39 | 01:58:13 | 00:00:00 | |
| BIOWL1-15 | 2026-09-04 18:28:05 | 49.76984 | 8.81738 | 116° | 24km/h | 29609m | 6m/s | -45°C | 0% | 13.2hPa | 2.7V | 03:20:43 | 01:58:15 | 00:00:00 | |
| DF8AY | 2026-09-04 18:28:03 | 49.76986 | 8.81718 | 84° | 27km/h | 29599m | 5.1m/s | -45°C | 0% | 13.2hPa | 2.6V | 03:20:43 | 01:58:13 | 00:00:00 | |
| AA1-15 | 2026-09-04 18:28:02 | 49.76984 | 8.81708 | 77° | 26km/h | 29593m | 6.1m/s | -44.9°C | 0% | 13.2hPa | 2.6V | 03:20:43 | 01:58:12 | 00:00:00 | |
| HSKMA3-T | 2026-09-04 18:28:00 | 49.76982 | 8.81693 | 74° | 15km/h | 29582m | 4.8m/s | -44.9°C | 0% | 13.2hPa | 2.6V | 03:20:43 | 01:58:10 | 00:00:00 | |
| DO3DL | 2026-09-04 18:27:59 | 49.76981 | 8.81693 | 75° | 15km/h | 29582m | 4.8m/s | -44.9°C | 0.6% | 13.2hPa | 2.6V | 03:20:00 | 00:00:00 | 00:00:00 | |
| DM0DOS-11 | 2026-09-04 18:27:58 | 49.77005 | 8.81666 | 158° | 27km/h | 29545m | 5.2m/s | -45°C | 2.6% | 13.3hPa | 2.6V | 03:20:49 | 01:58:03 | 00:00:00 | |
| BIOWL1-15 | 2026-09-04 18:27:55 | 49.76993 | 8.81674 | 153° | 26km/h | 29555m | 5.5m/s | -45°C | 0% | 13.3hPa | 2.6V | 03:21:34 | 01:58:05 | 00:00:00 | |
| DF8AY | 2026-09-04 18:27:53 | 49.77005 | 8.81666 | 159° | 27km/h | 29545m | 5.2m/s | -45.1°C | 0% | 13.3hPa | 2.6V | 03:22:25 | 01:58:03 | 00:00:00 | |
| AA1-15 | 2026-09-04 18:27:51 | 49.77017 | 8.81660 | 171° | 22km/h | 29534m | 5.9m/s | -45.1°C | 0% | 13.3hPa | 2.7V | 03:21:34 | 01:58:01 | 00:00:00 | |
| HSKMA3-T | 2026-09-04 18:27:50 | 49.77022 | 8.81659 | 174° | 16km/h | 29528m | 5.3m/s | -45.1°C | 0% | 13.3hPa | 2.7V | 03:21:34 | 01:58:00 | 00:00:00 | |
| DL1ZP-14 | 2026-09-04 18:27:49 | 49.77026 | 8.81658 | 166° | 11km/h | 29523m | 5.0m/s | -45.1°C | 0.6% | 13.3hPa | 2.6V | 00:00:00 | 00:00:00 | 00:00:00 | |
| DM0DOS-11 | 2026-09-04 18:27:48 | 49.77031 | 8.81626 | 96° | 15km/h | 29491m | 5.3m/s | -45.2°C | 2.7% | 13.4hPa | 2.7V | 03:20:59 | 01:57:53 | 00:00:00 | |
| DO9LL-15 | 2026-09-04 18:27:48 | 49.77028 | 8.81656 | 138° | 16km/h | 29518m | 5.1m/s | 0°C | 0% | 0hPa | 2.6V | 00:00:00 | 01:57:58 | 00:00:00 | |
| HEMX73-11 | 2026-09-04 18:27:47 | 49.77028 | 8.81656 | 139° | 11km/h | 29518m | 5.1m/s | -45.1°C | 0.6% | 13.4hPa | 2.6V | 03:21:00 | 00:00:00 | 00:00:00 | |
| DL1XH-15 | 2026-09-04 18:27:46 | 49.77033 | 8.81618 | 156° | 7km/h | 29479m | 5.5m/s | -45.3°C | 2.7% | 13.4hPa | 2.6V | 03:21:01 | 01:57:51 | 00:00:00 | |
| DF7PN | 2026-09-04 18:27:46 | 49.77030 | 8.81640 | 90° | 20km/h | 29500m | 4.8m/s | -45.1°C | 0.6% | 13.4hPa | 2.7V | 00:00:00 | 00:00:00 | 00:00:00 | |
| BIOWL1-15 | 2026-09-04 18:27:44 | 49.77030 | 8.81632 | 91° | 18km/h | 29495m | 4.3m/s | -45.1°C | 0% | 13.4hPa | 2.7V | 03:21:34 | 01:57:54 | 00:00:00 | |
| DF8AY | 2026-09-04 18:27:42 | 49.77031 | 8.81621 | 114° | 11km/h | 29485m | 6.1m/s | -45.2°C | 0% | 13.4hPa | 2.6V | 03:22:25 | 01:57:52 | 00:00:00 | |
| AA1-15 | 2026-09-04 18:27:41 | 49.77033 | 8.81618 | 157° | 7km/h | 29479m | 5.5m/s | -45.3°C | 0% | 13.4hPa | 2.6V | 03:21:34 | 01:57:51 | 00:00:00 | |
| PG1ADW-2 | 2026-09-04 18:27:41 | 49.77033 | 8.81618 | 157° | 16km/h | 29479m | 5.4m/s | -45.2°C | 2.7% | 13.4hPa | 2.6V | 00:00:00 | 01:57:51 | 00:00:00 | |
| DL6DJ-15 | 2026-09-04 18:27:40 | 49.77035 | 8.81618 | 181° | 11km/h | 29474m | 4.8m/s | -45.3°C | 0.6% | 13.5hPa | 2.6V | 00:00:00 | 00:00:00 | 00:00:00 | |
| DL1XH1-15 | 2026-09-04 18:27:39 | 49.77058 | 8.81608 | 144° | 13km/h | 29442m | 5.3m/s | -45.4°C | 2.7% | 13.5hPa | 2.6V | 03:21:08 | 01:57:44 | 00:00:00 | |
| HSKMA3-T | 2026-09-04 18:27:39 | 49.77038 | 8.81618 | 182° | 15km/h | 29469m | 5m/s | -45.3°C | 0% | 13.5hPa | 2.6V | 03:21:34 | 01:57:49 | 00:00:00 | |
| DJ2DS-15 | 2026-09-04 18:27:38 | 49.77042 | 8.81618 | 175° | 16km/h | 29463m | 6.2m/s | -45.3°C | 0.6% | 13.5hPa | 2.7V | 00:00:00 | 00:00:00 | 00:00:00 | |
| DL1XH-15 | 2026-09-04 18:27:36 | 49.77062 | 8.81604 | 150° | 4km/h | 29425m | 4.4m/s | -45.5°C | 2.7% | 13.6hPa | 2.7V | 03:21:11 | 01:57:41 | 00:00:00 | |
| BIOWL1-15 | 2026-09-04 18:27:33 | 49.77060 | 8.81606 | 145° | 9km/h | 29437m | 6.6m/s | -45.5°C | 0% | 13.5hPa | 2.6V | 03:21:34 | 01:57:43 | 00:00:00 | |
| DF8AY | 2026-09-04 18:27:32 | 49.77061 | 8.81604 | 152° | 5km/h | 29431m | 5.5m/s | -45.5°C | 0% | 13.5hPa | 2.6V | 03:22:25 | 01:57:42 | 00:00:00 | |
| AA1-15 | 2026-09-04 18:27:31 | 49.77062 | 8.81604 | 150° | 4km/h | 29426m | 4.4m/s | -45.6°C | 0% | 13.6hPa | 2.7V | 03:21:34 | 01:57:41 | 00:00:00 | |
| DD1CC8 | 2026-09-04 18:27:30 | 49.77065 | 8.81600 | 137° | 11km/h | 29417m | 5.2m/s | -45.5°C | 0.6% | 13.6hPa | 2.7V | 00:00:00 | 00:00:00 | 00:00:00 | |
| DL1XH1-15 | 2026-09-04 18:27:29 | 49.77089 | 8.81570 | 148° | 26km/h | 29390m | 5.9m/s | -45.5°C | 2.7% | 13.6hPa | 2.7V | 03:21:18 | 01:57:34 | 00:00:00 | |
| HSKMA3-T | 2026-09-04 18:27:29 | 49.77065 | 8.81600 | 138° | 13km/h | 29417m | 5.2m/s | -45.5°C | 0% | 13.6hPa | 2.7V | 03:21:34 | 01:57:39 | 00:00:00 | |
| BIOWL1-15 | 2026-09-04 18:27:23 | 49.77094 | 8.81566 | 157° | 22km/h | 29384m | 6.1m/s | -45.6°C | 0% | 13.7hPa | 2.7V | 03:21:34 | 01:57:33 | 00:00:00 | |
| DL1XH-west | 2026-09-04 18:27:21 | 49.77103 | 8.81563 | 182° | 16km/h | 29373m | 4.9m/s | -45.6°C | 0% | 13.7hPa | 2.6V | 03:21:34 | 01:57:31 | 00:00:00 | |
| AA1-15 | 2026-09-04 18:27:20 | 49.77107 | 8.81564 | 184° | 16km/h | 29368m | 5.1m/s | -45.6°C | 0% | 13.7hPa | 2.6V | 03:21:34 | 01:57:30 | 00:00:00 | |
| DM0DOS-11 | 2026-09-04 18:27:18 | 49.77145 | 8.81547 | 155° | 24km/h | 29329m | 5.3m/s | -45.7°C | 2.7% | 13.8hPa | 2.6V | 03:21:29 | 01:57:23 | 00:00:00 | |
| HSKMA3-T | 2026-09-04 18:27:18 | 49.77116 | 8.81563 | 170° | 20km/h | 29357m | 5.8m/s | -45.6°C | 0% | 13.7hPa | 2.6V | 03:21:34 | 01:57:28 | 00:00:00 | |
| BIOWL1-15 | 2026-09-04 18:27:12 | 49.77150 | 8.81543 | 147° | 22km/h | 29324m | 4.9m/s | -45.7°C | 0% | 13.8hPa | 2.6V | 03:21:34 | 01:57:22 | 00:00:00 | |
| AA1-15 | 2026-09-04 18:27:10 | 49.77158 | 8.81531 | 125° | 24km/h | 29313m | 6.3m/s | -45.8°C | 0% | 13.8hPa | 2.7V | 03:21:34 | 01:57:20 | 00:00:00 | |
| DL1XH1-15 | 2026-09-04 18:27:09 | 49.77166 | 8.81499 | 168° | 7km/h | 29281m | 5m/s | -46°C | 2.7% | 13.8hPa | 2.6V | 03:21:38 | 01:57:14 | 00:00:00 | |
| HSKMA3-T | 2026-09-04 18:27:08 | 49.77162 | 8.81515 | 105° | 20km/h | 29303m | 4m/s | -45.9°C | 0% | 13.8hPa | 2.7V | 03:21:34 | 01:57:18 | 00:00:00 | |
| BIOWL1-15 | 2026-09-04 18:27:02 | 49.77172 | 8.81497 | 167° | 18km/h | 29270m | 6.6m/s | -46.1°C | 0% | 13.9hPa | 2.7V | 03:22:25 | 01:57:12 | 00:00:00 | |
| BUE01 | 2026-09-04 18:27:02 | 49.77183 | 8.81491 | 157° | 27km/h | 29259m | 5.0m/s | -46.2°C | 0.7% | -1.0hPa | 2.7V | 00:00:00 | 00:00:00 | 00:00:00 | |
| PG1ADW-2 | 2026-09-04 18:27:01 | 49.77177 | 8.81495 | 161° | 22km/h | 29264m | 6.0m/s | 0°C | 0% | 0hPa | 2.7V | 03:21:00 | 00:00:00 | 00:00:00 | |
| BIOWL7-15 | 2026-09-04 18:27:00 | 49.77177 | 8.81495 | 162° | 24km/h | 29264m | 6.1m/s | -46.1°C | 0.6% | 13.9hPa | 2.7V | 03:22:00 | 00:00:00 | 00:00:00 | |
| DL1XH1-15 | 2026-09-04 18:26:59 | 49.77211 | 8.81452 | 102° | 27km/h | 29226m | 6.5m/s | -46.4°C | 2.8% | 13.9hPa | 2.7V | 03:21:48 | 01:57:04 | 00:00:00 | |
| AA1-15 | 2026-09-04 18:26:59 | 49.77190 | 8.81487 | 155° | 29km/h | 29253m | 5.2m/s | -46.2°C | 0% | 13.9hPa | 2.6V | 03:22:25 | 01:57:09 | 00:00:00 | |
| DD1CC8 | 2026-09-04 18:26:59 | 49.77196 | 8.81481 | 152° | 27km/h | 29248m | 5.9m/s | -46.2°C | 0.6% | 13.9hPa | 2.6V | 00:00:00 | 00:00:00 | 00:00:00 | |
| DM0DOS-11 | 2026-09-04 18:26:58 | 49.77213 | 8.81441 | 95° | 27km/h | 29220m | 5.2m/s | -46.4°C | 2.8% | 14hPa | 2.6V | 03:21:49 | 01:57:03 | 00:00:00 | |
| HSKMA3-T | 2026-09-04 18:26:57 | 49.77202 | 8.81476 | 143° | 26km/h | 29243m | 5m/s | -46.3°C | 0% | 13.9hPa | 2.6V | 03:22:25 | 01:57:07 | 00:00:00 | |
| BIOWL1-15 | 2026-09-04 18:26:51 | 49.77213 | 8.81423 | 95° | 18km/h | 29211m | 3.9m/s | -46.4°C | 0% | 14hPa | 2.6V | 03:22:25 | 01:57:01 | 00:00:00 | |
| SONDE2-11 | 2026-09-04 18:26:50 | 49.77214 | 8.81417 | 100° | 11km/h | 29207m | 6.0m/s | -46.5°C | 0.6% | 14.0hPa | 2.6V | 00:00:00 | 00:00:00 | 00:00:00 | |
| DL1XH1-15 | 2026-09-04 18:26:49 | 49.77229 | 8.81420 | 144° | 18km/h | 29174m | 5.8m/s | -46.5°C | 2.8% | 14.1hPa | 2.6V | 03:21:58 | 01:56:54 | 00:00:00 | |
| DO1YAY-16 | 2026-09-04 18:26:49 | 49.77215 | 8.81414 | 154° | 4km/h | 29200m | 6.9m/s | -46.5°C | 0.7% | 14.0hPa | 2.6V | 00:00:00 | 00:00:00 | 00:00:00 | |
| DM0DOS-11 | 2026-09-04 18:26:48 | 49.77233 | 8.81414 | 119° | 26km/h | 29168m | 5.9m/s | -46.5°C | 2.8% | 14.1hPa | 2.6V | 03:21:59 | 01:56:53 | 00:00:00 | |
| AA1-15 | 2026-09-04 18:26:48 | 49.77216 | 8.81415 | 218° | 9km/h | 29193m | 6m/s | -46.5°C | 0% | 14hPa | 2.7V | 03:22:25 | 01:56:58 | 00:00:00 | |
| HSKMA3-T | 2026-09-04 18:26:46 | 49.77222 | 8.81421 | 204° | 15km/h | 29184m | 4m/s | -46.5°C | 0% | 14.1hPa | 2.6V | 03:22:25 | 01:56:56 | 00:00:00 | |
| DF8AY | 2026-09-04 18:26:45 | 49.77226 | 8.81422 | 177° | 16km/h | 29179m | 5.1m/s | -46.5°C | 0% | 14.1hPa | 2.6V | 03:22:25 | 01:56:55 | 00:00:00 | |
| BIOWL1-15 | 2026-09-04 18:26:40 | 49.77237 | 8.81379 | 86° | 29km/h | 29153m | 5m/s | -46.5°C | 0% | 14.1hPa | 2.7V | 03:22:25 | 01:56:50 | 00:00:00 | |
| PG1ADW-2 | 2026-09-04 18:26:40 | 49.77237 | 8.81379 | 86° | 16km/h | 29153m | 4.9m/s | 0°C | 0% | 0hPa | 2.7V | 00:00:00 | 00:00:00 | 00:00:00 | |
| DL1XH1-15 | 2026-09-04 18:26:39 | 49.77240 | 8.81361 | 196° | 16km/h | 29120m | 6m/s | -46.6°C | 2.9% | 14.2hPa | 2.7V | 03:22:08 | 01:56:44 | 00:00:00 | |
| AA1-15 | 2026-09-04 18:26:37 | 49.77234 | 8.81358 | 75° | 5km/h | 29137m | 5.1m/s | -46.6°C | 0% | 14.2hPa | 2.6V | 03:22:25 | 01:56:47 | 00:00:00 | |
| HSKMA3-T | 2026-09-04 18:26:36 | 49.77234 | 8.81358 | 209° | 5km/h | 29132m | 5.2m/s | -46.6°C | 0% | 14.2hPa | 2.6V | 03:22:25 | 01:56:46 | 00:00:00 | |
| BIOWL1-15 | 2026-09-04 18:26:30 | 49.77257 | 8.81355 | 138° | 16km/h | 29099m | 5.7m/s | -46.6°C | 0% | 14.2hPa | 2.6V | 03:22:25 | 01:56:40 | 00:00:00 | |
| HSKMA3-T | 2026-09-04 18:26:26 | 49.77262 | 8.81335 | 99° | 13km/h | 29077m | 5.1m/s | -46.6°C | 0% | 14.3hPa | 2.7V | 03:22:25 | 01:56:36 | 00:00:00 | |
| BIOWL1-15 | 2026-09-04 18:26:20 | 49.77278 | 8.81309 | 161° | 13km/h | 29045m | 6.5m/s | -46.6°C | 0% | 14.4hPa | 2.7V | 03:22:25 | 01:56:30 | 00:00:00 | |
| DF8AY | 2026-09-04 18:26:20 | 49.77283 | 8.81308 | 192° | 11km/h | 29033m | 5.2m/s | -46.6°C | 0% | 14.4hPa | 2.6V | 03:22:25 | 01:56:28 | 00:00:00 | |
| DL1XH-15 | 2026-09-04 18:26:19 | 49.77283 | 8.81308 | 192° | 11km/h | 29033m | 5.2m/s | -46.6°C | 2.9% | 14.4hPa | 2.6V | 03:22:24 | 01:56:28 | 00:00:00 | |
| DL1XH1-15 | 2026-09-04 18:26:19 | 49.77301 | 8.81305 | 157° | 27km/h | 29011m | 5.7m/s | -46.5°C | 2.8% | 14.4hPa | 2.7V | 03:22:28 | 01:56:24 | 00:00:00 | |
| AA1-15 | 2026-09-04 18:26:16 | 49.77290 | 8.81309 | 176° | 18km/h | 29023m | 5.2m/s | -46.6°C | 0% | 14.4hPa | 2.6V | 03:23:16 | 01:56:26 | 00:00:00 | |
| DL1XH-west | 2026-09-04 18:26:15 | 49.77295 | 8.81308 | 167° | 22km/h | 29017m | 6.5m/s | -46.5°C | 0% | 14.4hPa | 2.6V | 03:23:16 | 01:56:25 | 00:00:00 | |
| DJ2DS-15 | 2026-09-04 18:26:14 | 49.77301 | 8.81305 | 158° | 22km/h | 29011m | 5.6m/s | -46.5°C | 2.8% | 14.4hPa | 2.7V | 00:00:00 | 01:56:24 | 00:00:00 | |
| DL4BBY-15 | 2026-09-04 18:26:13 | 49.77308 | 8.81300 | 151° | 20km/h | 29006m | 4.9m/s | -47.4°C | 0% | 0hPa | 2.7V | 00:00:00 | 00:00:00 | 00:00:00 | |
| DO2KSM | 2026-09-04 18:26:12 | 49.77308 | 8.81300 | 152° | 31km/h | 29006m | 4.9m/s | -46.5°C | 0.7% | 14.4hPa | 2.7V | 03:23:00 | 00:00:00 | 00:00:00 | |
| DB0UT-9 | 2026-09-04 18:26:11 | 49.77315 | 8.81293 | 147° | 31km/h | 29001m | 5.2m/s | -46.6°C | 0.7% | 14.5hPa | 2.7V | 03:23:00 | 00:00:00 | 00:00:00 | |
| EDDB2-12 | 2026-09-04 18:26:10 | 49.77326 | 8.81280 | 137° | 24km/h | 28990m | 5.9m/s | -46.6°C | 0.6% | 14.5hPa | 2.7V | 00:00:00 | 00:00:00 | 00:00:00 | |
| DL1XH-15 | 2026-09-04 18:26:09 | 49.77345 | 8.81257 | 159° | 18km/h | 28960m | 5.5m/s | -46.8°C | 2.9% | 14.5hPa | 2.7V | 03:22:37 | 01:56:15 | 00:00:00 | |
| DL1XH1-15 | 2026-09-04 18:26:09 | 49.77349 | 8.81255 | 167° | 18km/h | 28955m | 4.8m/s | -46.8°C | 2.9% | 14.6hPa | 2.6V | 03:22:38 | 01:56:14 | 00:00:00 | |
| BIOWL1-15 | 2026-09-04 18:26:09 | 49.77330 | 8.81274 | 135° | 20km/h | 28983m | 5.8m/s | -46.6°C | 0% | 14.5hPa | 2.6V | 03:23:16 | 01:56:19 | 00:00:00 | |
| DM0DOS-11 | 2026-09-04 18:26:08 | 49.77353 | 8.81254 | 175° | 16km/h | 28950m | 5.4m/s | -46.8°C | 2.9% | 14.6hPa | 2.6V | 03:22:39 | 01:56:13 | 00:00:00 | |
| DF8AY | 2026-09-04 18:26:08 | 49.77334 | 8.81268 | 137° | 18km/h | 28978m | 5.3m/s | -46.7°C | 0% | 0hPa | 2.6V | 03:23:16 | 01:56:18 | 00:00:00 | |
| DL1XH-west | 2026-09-04 18:26:05 | 49.77345 | 8.81257 | 160° | 18km/h | 28961m | 5.5m/s | -46.8°C | 0% | 14.5hPa | 2.7V | 03:23:16 | 01:56:15 | 00:00:00 | |
| HEMX73-11 | 2026-09-04 18:26:04 | 49.77345 | 8.81257 | 161° | 18km/h | 28961m | 5.5m/s | -46.8°C | 0.7% | 14.5hPa | 2.6V | 03:23:00 | 00:00:00 | 00:00:00 | |
| DO3DL | 2026-09-04 18:26:03 | 49.77349 | 8.81255 | 169° | 18km/h | 28956m | 4.8m/s | -46.8°C | 0.7% | 14.6hPa | 2.6V | 03:23:00 | 00:00:00 | 00:00:00 | |
| AU51GT2 | 2026-09-04 18:26:02 | 49.77357 | 8.81254 | 179° | 11km/h | 28944m | 6.5m/s | -46.8°C | 0.6% | 14.6hPa | 2.6V | 00:00:00 | 00:00:00 | 00:00:00 | |
| DC4HF-4 | 2026-09-04 18:26:00 | 49.77365 | 8.81249 | 134° | 15km/h | 28929m | 5.4m/s | -46.8°C | 0.7% | 14.6hPa | 2.6V | 00:00:00 | 00:00:00 | 00:00:00 | |
| DL1XH-15 | 2026-09-04 18:25:59 | 49.77381 | 8.81204 | 109° | 26km/h | 28899m | 5.9m/s | -46.8°C | 2.9% | 14.7hPa | 2.6V | 03:22:48 | 01:56:04 | 00:00:00 | |
| DB0ND-19 | 2026-09-04 18:25:59 | 49.77368 | 8.81244 | 126° | 22km/h | 28923m | 6.7m/s | -46.8°C | 0.7% | 14.6hPa | 2.7V | 00:00:00 | 00:00:00 | 00:00:00 | |
| DM0DOS-11 | 2026-09-04 18:25:58 | 49.77383 | 8.81195 | 108° | 20km/h | 28894m | 5.4m/s | -46.8°C | 2.9% | 14.7hPa | 2.7V | 03:22:49 | 01:56:03 | 00:00:00 | |
| BIOWL1-15 | 2026-09-04 18:25:58 | 49.77368 | 8.81244 | 127° | 22km/h | 28923m | 6.7m/s | -46.8°C | 0% | 14.6hPa | 2.7V | 03:23:16 | 01:56:08 | 00:00:00 | |
| HSKMA3-T | 2026-09-04 18:25:55 | 49.77378 | 8.81214 | 113° | 31km/h | 28905m | 5.4m/s | -46.8°C | 0% | 14.7hPa | 2.6V | 03:23:16 | 01:56:05 | 00:00:00 | |
| AA1-15 | 2026-09-04 18:25:54 | 49.77381 | 8.81204 | 109° | 26km/h | 28899m | 5.9m/s | -46.8°C | 0% | 14.7hPa | 2.6V | 03:23:16 | 01:56:04 | 00:00:00 | |
| DF8AY | 2026-09-04 18:25:51 | 49.77405 | 8.81184 | 200° | 15km/h | 28854m | 6.3m/s | -46.8°C | 0% | 0hPa | 2.7V | 03:23:16 | 01:55:56 | 00:00:00 | |
| DJ2DS-15 | 2026-09-04 18:25:50 | 49.77389 | 8.81182 | 158° | 13km/h | 28877m | 6.6m/s | -46.8°C | 0.7% | 14.7hPa | 2.7V | 00:00:00 | 00:00:00 | 00:00:00 | |
| DL1XH1-15 | 2026-09-04 18:25:49 | 49.77411 | 8.81185 | 157° | 13km/h | 28843m | 4.6m/s | -46.7°C | 2.9% | 14.8hPa | 2.7V | 03:22:58 | 01:55:54 | 00:00:00 | |
| DM0DOS-11 | 2026-09-04 18:25:48 | 49.77415 | 8.81182 | 137° | 18km/h | 28838m | 5.5m/s | -46.7°C | 2.9% | 14.8hPa | 2.6V | 03:22:59 | 01:55:53 | 00:00:00 | |
| BIOWL1-15 | 2026-09-04 18:25:47 | 49.77401 | 8.81182 | 196° | 16km/h | 28859m | 5.5m/s | -46.8°C | 0% | 14.8hPa | 2.6V | 03:23:16 | 01:55:57 | 00:00:00 | |
| DO1YAY-16 | 2026-09-04 18:25:47 | 49.77401 | 8.81182 | 196° | 16km/h | 28860m | 5.5m/s | -46.8°C | 0.7% | 14.8hPa | 2.7V | 00:00:00 | 00:00:00 | 00:00:00 | |
| DL1ZP-14 | 2026-09-04 18:25:45 | 49.77408 | 8.81186 | 188° | 11km/h | 28848m | 5.2m/s | -46.8°C | 0.6% | 14.8hPa | 2.7V | 00:00:00 | 00:00:00 | 00:00:00 | |
| HSKMA3-T | 2026-09-04 18:25:45 | 49.77408 | 8.81186 | 189° | 13km/h | 28848m | 5.2m/s | -46.8°C | 0% | 14.8hPa | 2.7V | 03:23:16 | 01:55:55 | 00:00:00 | |
| DL1XH-west | 2026-09-04 18:25:44 | 49.77411 | 8.81185 | 157° | 13km/h | 28843m | 4.6m/s | -46.7°C | 0% | 14.8hPa | 2.7V | 03:23:16 | 01:55:54 | 00:00:00 | |
| AA1-15 | 2026-09-04 18:25:43 | 49.77415 | 8.81182 | 137° | 18km/h | 28838m | 5.5m/s | -46.7°C | 0% | 14.8hPa | 2.6V | 03:23:16 | 01:55:53 | 00:00:00 | |
| DO3DL | 2026-09-04 18:25:43 | 49.77415 | 8.81182 | 138° | 18km/h | 28838m | 5.5m/s | -46.7°C | 0.7% | 14.8hPa | 2.6V | 03:23:00 | 00:00:00 | 00:00:00 | |
| DF7PN | 2026-09-04 18:25:42 | 49.77423 | 8.81166 | 123° | 33km/h | 28825m | 6.3m/s | -46.7°C | 0.7% | 14.8hPa | 2.6V | 00:00:00 | 00:00:00 | 00:00:00 | |
| KANTATE | 2026-09-04 18:25:40 | 49.77423 | 8.81166 | 124° | 33km/h | 28825m | 6.3m/s | -46.7°C | 0.7% | 14.9hPa | 2.6V | 03:23:00 | 00:00:00 | 00:00:00 | |
| DL1XH1-15 | 2026-09-04 18:25:39 | 49.77443 | 8.81105 | 159° | 9km/h | 28787m | 5.7m/s | -46.7°C | 2.8% | 14.9hPa | 2.6V | 03:23:08 | 01:55:44 | 00:00:00 | |
| EDDB2-12 | 2026-09-04 18:25:39 | 49.77436 | 8.81129 | 113° | 31km/h | 28809m | 5.8m/s | -46.7°C | 0.7% | 14.9hPa | 2.6V | 00:00:00 | 00:00:00 | 00:00:00 | |
| DM0DOS-11 | 2026-09-04 18:25:38 | 49.77446 | 8.81105 | 182° | 13km/h | 28782m | 6.3m/s | -46.7°C | 2.8% | 14.9hPa | 2.6V | 03:23:09 | 01:55:43 | 00:00:00 | |
| BIOWL1-15 | 2026-09-04 18:25:36 | 49.77440 | 8.81112 | 110° | 16km/h | 28798m | 5.2m/s | -46.7°C | 0% | 14.9hPa | 2.6V | 03:23:16 | 01:55:46 | 00:00:00 | |
| HSKMA3-T | 2026-09-04 18:25:35 | 49.77442 | 8.81107 | 122° | 9km/h | 28793m | 5.1m/s | -46.7°C | 0% | 14.9hPa | 2.6V | 03:23:16 | 01:55:45 | 00:00:00 | |
| AA1-15 | 2026-09-04 18:25:33 | 49.77446 | 8.81105 | 183° | 13km/h | 28782m | 6.3m/s | -46.7°C | 0% | 14.9hPa | 2.6V | 03:23:16 | 01:55:43 | 00:00:00 | |
| AU51GT2 | 2026-09-04 18:25:31 | 49.77455 | 8.81106 | 182° | 24km/h | 28769m | 5.6m/s | -46.7°C | 0.7% | 15.0hPa | 2.6V | 00:00:00 | 00:00:00 | 00:00:00 | |
| DO2KSM | 2026-09-04 18:25:30 | 49.77455 | 8.81106 | 184° | 24km/h | 28770m | 5.6m/s | -46.7°C | 0.7% | 15.0hPa | 2.6V | 03:23:00 | 00:00:00 | 00:00:00 | |
| DL1XH-15 | 2026-09-04 18:25:29 | 49.77473 | 8.81101 | 153° | 20km/h | 28755m | 5.5m/s | -46.8°C | 2.9% | 15hPa | 2.6V | 03:23:14 | 01:55:38 | 00:00:00 | |
| DL1XH1-15 | 2026-09-04 18:25:29 | 49.77477 | 8.81074 | 82° | 27km/h | 28731m | 5.6m/s | -46.8°C | 2.9% | 15.1hPa | 2.7V | 03:23:18 | 01:55:34 | 00:00:00 | |
| BUE01 | 2026-09-04 18:25:29 | 49.77473 | 8.81101 | 153° | 18km/h | 28755m | 5.5m/s | 0°C | -1.0% | -1.0hPa | 2.7V | 00:00:00 | 00:00:00 | 00:00:00 | |
| DM0DOS-11 | 2026-09-04 18:25:28 | 49.77477 | 8.81063 | 86° | 29km/h | 28725m | 6.5m/s | -46.8°C | 2.9% | 15.1hPa | 2.7V | 03:23:19 | 01:55:33 | 00:00:00 | |
| BIOWL1-15 | 2026-09-04 18:25:25 | 49.77478 | 8.81084 | 85° | 22km/h | 28737m | 6m/s | -46.8°C | 0% | 15.1hPa | 2.7V | 03:24:07 | 01:55:35 | 00:00:00 | |
| HSKMA3-T | 2026-09-04 18:25:24 | 49.77477 | 8.81074 | 83° | 27km/h | 28731m | 5.6m/s | -46.8°C | 0% | 15.1hPa | 2.7V | 03:24:07 | 01:55:34 | 00:00:00 | |
| AA1-15 | 2026-09-04 18:25:22 | 49.77477 | 8.81052 | 94° | 29km/h | 28719m | 5.6m/s | -46.8°C | 0% | 15.1hPa | 2.6V | 03:24:07 | 01:55:32 | 00:00:00 | |
| KANTATE | 2026-09-04 18:25:20 | 49.77477 | 8.81040 | 103° | 27km/h | 28714m | 4.7m/s | -46.8°C | 0.7% | 15.1hPa | 2.7V | 03:24:00 | 00:00:00 | 00:00:00 | |
| DL1XH-15 | 2026-09-04 18:25:19 | 49.77483 | 8.81018 | 117° | 13km/h | 28697m | 6.6m/s | -46.8°C | 2.9% | 15.2hPa | 2.7V | 03:23:24 | 01:55:28 | 00:00:00 | |
| BIOWL1-15 | 2026-09-04 18:25:15 | 49.77488 | 8.81009 | 151° | 13km/h | 28680m | 6m/s | -46.7°C | 0% | 15.2hPa | 2.6V | 03:24:07 | 01:55:25 | 00:00:00 | |
| DM0DOS-11 | 2026-09-04 18:25:14 | 49.77494 | 8.81003 | 137° | 18km/h | 28668m | 5.1m/s | -46.6°C | 2.9% | 15.2hPa | 2.6V | 03:23:29 | 01:55:23 | 00:00:00 | |
| HSKMA3-T | 2026-09-04 18:25:14 | 49.77491 | 8.81007 | 147° | 16km/h | 28674m | 6.2m/s | -46.7°C | 0% | 15.2hPa | 2.6V | 03:24:07 | 01:55:24 | 00:00:00 | |
| AA1-15 | 2026-09-04 18:25:11 | 49.77499 | 8.80990 | 107° | 20km/h | 28658m | 5.9m/s | -46.6°C | 0% | 15.2hPa | 2.7V | 03:24:07 | 01:55:21 | 00:00:00 | |
| DO9LL-15 | 2026-09-04 18:25:11 | 49.77499 | 8.80990 | 107° | 22km/h | 28658m | 5.9m/s | 0°C | 0% | 0hPa | 2.7V | 00:00:00 | 01:55:21 | 00:00:00 | |
| DO2KSM | 2026-09-04 18:25:10 | 49.77499 | 8.80990 | 108° | 20km/h | 28658m | 5.9m/s | -46.6°C | 0.7% | 15.2hPa | 2.7V | 03:24:00 | 00:00:00 | 00:00:00 | |
| DL1XH1-15 | 2026-09-04 18:25:09 | 49.77504 | 8.80924 | 128° | 27km/h | 28618m | 5.2m/s | -46.6°C | 2.8% | 15.4hPa | 2.7V | 03:23:38 | 01:55:14 | 00:00:00 | |
| DM0DOS-11 | 2026-09-04 18:25:08 | 49.77509 | 8.80917 | 138° | 26km/h | 28613m | 4.7m/s | -46.6°C | 2.9% | 15.4hPa | 2.7V | 03:23:39 | 01:55:13 | 00:00:00 | |
| EDDB2-12 | 2026-09-04 18:25:08 | 49.77498 | 8.80954 | 88° | 26km/h | 28635m | 5.1m/s | -46.6°C | 0.7% | 15.3hPa | 2.7V | 00:00:00 | 00:00:00 | 00:00:00 | |
| DL1XH-15 | 2026-09-04 18:25:07 | 49.77514 | 8.80912 | 146° | 20km/h | 28608m | 5m/s | -46.6°C | 2.8% | 15.4hPa | 2.7V | 03:23:40 | 01:55:12 | 00:00:00 | |
| HSKMA3-T | 2026-09-04 18:25:04 | 49.77504 | 8.80924 | 128° | 27km/h | 28618m | 5.2m/s | -46.6°C | 0% | 15.4hPa | 2.7V | 03:24:07 | 01:55:14 | 00:00:00 | |
| DL1XH-west | 2026-09-04 18:25:01 | 49.77517 | 8.80908 | 153° | 15km/h | 28602m | 6.2m/s | -46.6°C | 0% | 15.4hPa | 2.6V | 03:24:07 | 01:55:11 | 00:00:00 | |
| DF8AY | 2026-09-04 18:24:59 | 49.77520 | 8.80905 | 103° | 4km/h | 28591m | 5m/s | 0°C | 0% | 0hPa | 2.6V | 18:12:15 | 01:55:09 | 00:00:00 | |
| BIOWL1-15 | 2026-09-04 18:24:56 | 49.77524 | 8.80878 | 121° | 26km/h | 28563m | 5.4m/s | -46.7°C | 0% | 15.5hPa | 2.6V | 03:24:07 | 01:55:04 | 00:00:00 | |
| DB0UT-7 | 2026-09-04 18:24:56 | 49.77520 | 8.80893 | 98° | 20km/h | 28576m | 6.0m/s | -46.5°C | 2.8% | 15.4hPa | 2.6V | 00:00:00 | 00:00:00 | 00:00:00 | |
| DM0DOS-11 | 2026-09-04 18:24:55 | 49.77528 | 8.80870 | 127° | 27km/h | 28558m | 5m/s | -46.7°C | 2.9% | 15.5hPa | 2.6V | 03:23:49 | 01:55:03 | 00:00:00 | |
| HSKMA3-T | 2026-09-04 18:24:53 | 49.77528 | 8.80870 | 128° | 27km/h | 28558m | 5m/s | -46.7°C | 0% | 15.5hPa | 2.6V | 03:24:07 | 01:55:03 | 00:00:00 | |
| DL1XH-west | 2026-09-04 18:24:50 | 49.77539 | 8.80849 | 128° | 16km/h | 28541m | 6m/s | -46.7°C | 0% | 15.5hPa | 2.7V | 03:24:07 | 01:55:00 | 00:00:00 | |
| DL1XH-15 | 2026-09-04 18:24:49 | 49.77542 | 8.80840 | 107° | 11km/h | 28530m | 5.2m/s | -46.7°C | 2.9% | 15.6hPa | 2.7V | 03:23:54 | 01:54:58 | 00:00:00 | |
| DC4HF-4 | 2026-09-04 18:24:48 | 49.77543 | 8.80836 | 109° | 9km/h | 28525m | 4.9m/s | -46.7°C | 0.7% | 15.6hPa | 2.7V | 00:00:00 | 00:00:00 | 00:00:00 | |
| DL3AQ-11 | 2026-09-04 18:24:47 | 49.77545 | 8.80832 | 115° | 13km/h | 28520m | 5.8m/s | -46.6°C | 0.7% | 15.6hPa | 2.7V | 00:00:00 | 00:00:00 | 00:00:00 | |
| SONDE2-11 | 2026-09-04 18:24:46 | 49.77546 | 8.80827 | 122° | 16km/h | 28514m | 6.5m/s | -46.6°C | 0.7% | 15.6hPa | 2.7V | 00:00:00 | 00:00:00 | 00:00:00 | |
| DO1YAY-16 | 2026-09-04 18:24:45 | 49.77546 | 8.80827 | 122° | 16km/h | 28514m | 6.5m/s | -46.6°C | 0.7% | 15.6hPa | 2.7V | 00:00:00 | 00:00:00 | 00:00:00 | |
| HSKMA3-T | 2026-09-04 18:24:43 | 49.77552 | 8.80814 | 127° | 24km/h | 28501m | 5.8m/s | -46.5°C | 0% | 15.6hPa | 2.7V | 03:24:07 | 01:54:53 | 00:00:00 | |
| DF8AY | 2026-09-04 18:24:41 | 49.77559 | 8.80799 | 123° | 22km/h | 28489m | 6.3m/s | 0°C | 0% | 0hPa | 2.7V | 18:12:15 | 01:54:51 | 00:00:00 | |
| CB1BUN | 2026-09-04 18:24:40 | 49.77559 | 8.80799 | 124° | 22km/h | 28489m | 6.3m/s | -46.5°C | 0.7% | 15.6hPa | 2.7V | 03:24:00 | 00:00:00 | 00:00:00 | |
| DL1XH1-15 | 2026-09-04 18:24:39 | 49.77585 | 8.80759 | 140° | 16km/h | 28450m | 5.2m/s | -46.4°C | 2.8% | 15.7hPa | 2.7V | 03:24:08 | 01:54:44 | 00:00:00 | |
| AA1-15 | 2026-09-04 18:24:39 | 49.77565 | 8.80786 | 127° | 20km/h | 28478m | 4.8m/s | -46.5°C | 0% | 15.7hPa | 2.6V | 03:24:07 | 01:54:49 | 00:00:00 | |
| BIOWL1-15 | 2026-09-04 18:24:32 | 49.77589 | 8.80751 | 104° | 11km/h | 28438m | 5.9m/s | -46.4°C | 0% | 15.8hPa | 2.6V | 03:24:58 | 01:54:42 | 00:00:00 | |
| DL1XH1-15 | 2026-09-04 18:24:29 | 49.77619 | 8.80702 | 144° | 31km/h | 28393m | 6.2m/s | -46.4°C | 2.9% | 15.8hPa | 2.6V | 03:24:18 | 01:54:34 | 00:00:00 | |
| DL1XH-west | 2026-09-04 18:24:29 | 49.77591 | 8.80737 | 118° | 16km/h | 28423m | 5.8m/s | -46.4°C | 0% | 15.8hPa | 2.7V | 03:24:58 | 01:54:39 | 00:00:00 | |
| AA1-15 | 2026-09-04 18:24:28 | 49.77594 | 8.80731 | 132° | 22km/h | 28417m | 6.8m/s | -46.4°C | 0% | 15.8hPa | 2.7V | 03:24:58 | 01:54:38 | 00:00:00 | |
| BIOWL1-15 | 2026-09-04 18:24:22 | 49.77630 | 8.80688 | 137° | 26km/h | 28382m | 5m/s | -46.4°C | 0% | 15.9hPa | 2.7V | 03:24:58 | 01:54:32 | 00:00:00 | |
| DB0UT-9 | 2026-09-04 18:24:21 | 49.77630 | 8.80688 | 137° | 26km/h | 28382m | 5.0m/s | -46.4°C | 0.7% | 15.9hPa | 2.7V | 03:24:00 | 00:00:00 | 00:00:00 | |
| DL3AQ-11 | 2026-09-04 18:24:20 | 49.77642 | 8.80669 | 138° | 20km/h | 28366m | 6.2m/s | -46.4°C | 0.6% | 16.0hPa | 2.7V | 00:00:00 | 00:00:00 | 00:00:00 | |
| DL1XH1-15 | 2026-09-04 18:24:19 | 49.77660 | 8.80651 | 146° | 9km/h | 28337m | 6.5m/s | -46.4°C | 2.8% | 16hPa | 2.7V | 03:24:28 | 01:54:24 | 00:00:00 | |
| DL1XH-west | 2026-09-04 18:24:19 | 49.77646 | 8.80664 | 143° | 22km/h | 28360m | 5.8m/s | -46.4°C | 0% | 16hPa | 2.6V | 03:24:58 | 01:54:28 | 00:00:00 | |
| AA1-15 | 2026-09-04 18:24:17 | 49.77651 | 8.80659 | 148° | 20km/h | 28354m | 5.3m/s | -46.4°C | 0% | 16hPa | 2.6V | 03:24:58 | 01:54:27 | 00:00:00 | |
| DF8AY | 2026-09-04 18:24:16 | 49.77654 | 8.80656 | 149° | 16km/h | 28349m | 5.2m/s | 0°C | 0% | 0hPa | 2.6V | 18:12:15 | 01:54:26 | 00:00:00 | |
| HSKMA3-T | 2026-09-04 18:24:12 | 49.77664 | 8.80647 | 151° | 13km/h | 28327m | 4.3m/s | -46.4°C | 0% | 16hPa | 2.6V | 03:24:58 | 01:54:22 | 00:00:00 | |
| DL1ZP-14 | 2026-09-04 18:24:12 | 49.77668 | 8.80644 | 153° | 18km/h | 28322m | 5.4m/s | -46.4°C | 0.7% | 16.1hPa | 2.6V | 00:00:00 | 00:00:00 | 00:00:00 | |
| DC4HF-4 | 2026-09-04 18:24:11 | 49.77668 | 8.80644 | 153° | 18km/h | 28322m | 5.4m/s | -46.4°C | 0.7% | 16.1hPa | 2.6V | 00:00:00 | 00:00:00 | 00:00:00 | |
| DL1XH1-15 | 2026-09-04 18:24:09 | 49.77720 | 8.80604 | 149° | 26km/h | 28279m | 5.5m/s | -46.4°C | 2.8% | 16.1hPa | 2.6V | 03:24:38 | 01:54:14 | 00:00:00 | |
| DL1XH-west | 2026-09-04 18:24:08 | 49.77688 | 8.80629 | 154° | 40km/h | 28302m | 5.8m/s | -46.4°C | 0% | 16.1hPa | 2.7V | 03:24:58 | 01:54:18 | 00:00:00 | |
| AA1-15 | 2026-09-04 18:24:06 | 49.77706 | 8.80615 | 152° | 37km/h | 28291m | 6.1m/s | -46.5°C | 0% | 16.1hPa | 2.7V | 03:24:58 | 01:54:16 | 00:00:00 | |
| DF8AY | 2026-09-04 18:24:05 | 49.77714 | 8.80609 | 151° | 31km/h | 28285m | 6m/s | 0°C | 0% | 0hPa | 2.6V | 18:12:15 | 01:54:15 | 00:00:00 | |
| DM0DOS-11 | 2026-09-04 18:24:04 | 49.77725 | 8.80599 | 149° | 22km/h | 28274m | 5.5m/s | -46.4°C | 2.9% | 16.1hPa | 2.6V | 03:24:39 | 01:54:13 | 00:00:00 | |
| HSKMA3-T | 2026-09-04 18:24:02 | 49.77729 | 8.80595 | 150° | 20km/h | 28267m | 6.7m/s | -46.4°C | 0% | 16.2hPa | 2.6V | 03:24:58 | 01:54:12 | 00:00:00 | |
| DJ2DS-15 | 2026-09-04 18:24:02 | 49.77734 | 8.80591 | 150° | 18km/h | 28261m | 6.1m/s | -46.4°C | 0.7% | 16.2hPa | 2.7V | 00:00:00 | 00:00:00 | 00:00:00 | |
| DB0UT-9 | 2026-09-04 18:24:01 | 49.77729 | 8.80595 | 151° | 20km/h | 28268m | 6.7m/s | -46.4°C | 0.7% | 16.2hPa | 2.7V | 03:24:00 | 00:00:00 | 00:00:00 | |
| DO3DL | 2026-09-04 18:24:00 | 49.77734 | 8.80591 | 151° | 20km/h | 28261m | 6.1m/s | -46.4°C | 0.7% | 16.2hPa | 2.7V | 03:24:00 | 00:00:00 | 00:00:00 | |
| DL1XH1-15 | 2026-09-04 18:23:59 | 49.77760 | 8.80560 | 145° | 29km/h | 28221m | 6.9m/s | -46.4°C | 2.8% | 16.3hPa | 2.7V | 03:24:48 | 01:54:04 | 00:00:00 | |
| DM0DOS-11 | 2026-09-04 18:23:58 | 49.77766 | 8.80554 | 147° | 35km/h | 28214m | 5.6m/s | -46.4°C | 2.9% | 16.3hPa | 2.7V | 03:24:49 | 01:54:03 | 00:00:00 | |
| DL1XH-west | 2026-09-04 18:23:58 | 49.77745 | 8.80580 | 141° | 15km/h | 28244m | 6.7m/s | -46.4°C | 0% | 16.2hPa | 2.6V | 03:24:58 | 01:54:08 | 00:00:00 | |
| AA1-15 | 2026-09-04 18:23:56 | 49.77750 | 8.80572 | 137° | 18km/h | 28232m | 5.1m/s | -46.4°C | 0% | 16.3hPa | 2.6V | 03:24:58 | 01:54:06 | 00:00:00 | |
| BIOWL1-15 | 2026-09-04 18:23:51 | 49.77781 | 8.80540 | 148° | 33km/h | 28204m | 5m/s | -46.3°C | 0% | 16.3hPa | 2.6V | 03:24:58 | 01:54:01 | 00:00:00 | |
| DL1XH1-15 | 2026-09-04 18:23:49 | 49.77798 | 8.80515 | 114° | 11km/h | 28162m | 5.1m/s | -46.3°C | 2.8% | 16.5hPa | 2.6V | 03:24:58 | 01:53:54 | 00:00:00 | |
| DJ2KF-10 | 2026-09-04 18:23:49 | 49.77792 | 8.80529 | 142° | 16km/h | 28193m | 6.4m/s | -46.3°C | 2.8% | 16.3hPa | 2.6V | 00:00:00 | 01:53:59 | 00:00:00 | |
| DK5PH-5 | 2026-09-04 18:23:48 | 49.77794 | 8.80525 | 133° | 16km/h | 28186m | 6.3m/s | -46.2°C | 2.9% | 16.3hPa | 2.6V | 00:00:00 | 01:53:58 | 00:00:00 | |
| DM0DOS-11 | 2026-09-04 18:23:47 | 49.77800 | 8.80511 | 107° | 13km/h | 28157m | 5.3m/s | -46.3°C | 2.8% | 16.4hPa | 2.6V | 03:24:59 | 01:53:53 | 00:00:00 | |
| DL1XH-west | 2026-09-04 18:23:47 | 49.77796 | 8.80523 | 125° | 7km/h | 28180m | 5.7m/s | -46.3°C | 0% | 16.4hPa | 2.7V | 03:24:58 | 01:53:57 | 00:00:00 | |
| AA1-15 | 2026-09-04 18:23:45 | 49.77797 | 8.80518 | 119° | 7km/h | 28168m | 6m/s | -46.3°C | 0% | 16.4hPa | 2.7V | 03:24:58 | 01:53:55 | 00:00:00 | |
| HSKMA3-T | 2026-09-04 18:23:41 | 49.77801 | 8.80498 | 103° | 20km/h | 28145m | 6m/s | -46.3°C | 0% | 16.5hPa | 2.6V | 03:25:49 | 01:53:51 | 00:00:00 | |
| BIOWL7-15 | 2026-09-04 18:23:41 | 49.77801 | 8.80498 | 104° | 20km/h | 28145m | 6.0m/s | -46.3°C | 0.7% | 16.5hPa | 2.6V | 00:00:00 | 00:00:00 | 00:00:00 | |
| DB0UT-9 | 2026-09-04 18:23:40 | 49.77801 | 8.80498 | 104° | 20km/h | 28145m | 6.0m/s | -46.3°C | 0.7% | 16.5hPa | 2.6V | 00:00:00 | 00:00:00 | 00:00:00 | |
| DL1XH1-15 | 2026-09-04 18:23:39 | 49.77828 | 8.80451 | 136° | 13km/h | 28107m | 5.8m/s | -46.2°C | 2.8% | 16.6hPa | 2.6V | 03:25:08 | 01:53:44 | 00:00:00 | |
| DM0DOS-11 | 2026-09-04 18:23:38 | 49.77829 | 8.80448 | 91° | 7km/h | 28100m | 6.9m/s | -46.2°C | 2.8% | 16.6hPa | 2.7V | 03:25:09 | 01:53:43 | 00:00:00 | |
| DL1XH-west | 2026-09-04 18:23:36 | 49.77820 | 8.80460 | 147° | 27km/h | 28116m | 4.5m/s | -46.3°C | 0% | 16.5hPa | 2.6V | 03:25:49 | 01:53:46 | 00:00:00 | |
| AA1-15 | 2026-09-04 18:23:34 | 49.77828 | 8.80451 | 136° | 13km/h | 28107m | 5.8m/s | -46.3°C | 0% | 16.6hPa | 2.6V | 03:25:49 | 01:53:44 | 00:00:00 | |
| BIOWL1-15 | 2026-09-04 18:23:32 | 49.77821 | 8.80436 | 40° | 22km/h | 28083m | 5.1m/s | -46.2°C | 0% | 16.7hPa | 2.6V | 03:25:49 | 01:53:40 | 00:00:00 | |
| HSKMA3-T | 2026-09-04 18:23:31 | 49.77825 | 8.80441 | 35° | 18km/h | 28088m | 4.9m/s | -46.2°C | 0% | 16.6hPa | 2.7V | 03:25:49 | 01:53:41 | 00:00:00 | |
| DM0DOS-11 | 2026-09-04 18:23:28 | 49.77819 | 8.80383 | 118° | 18km/h | 28043m | 5.7m/s | -46.2°C | 2.9% | 16.8hPa | 2.6V | 03:25:19 | 01:53:33 | 00:00:00 | |
| DL1XH-west | 2026-09-04 18:23:26 | 49.77814 | 8.80406 | 100° | 22km/h | 28061m | 5.3m/s | -46.2°C | 0% | 16.7hPa | 2.7V | 03:25:49 | 01:53:36 | 00:00:00 | |
| AA1-15 | 2026-09-04 18:23:24 | 49.77817 | 8.80390 | 112° | 20km/h | 28049m | 6.6m/s | -46.2°C | 0% | 16.7hPa | 2.7V | 03:25:49 | 01:53:34 | 00:00:00 | |
| BIOWL1-15 | 2026-09-04 18:23:20 | 49.77827 | 8.80373 | 164° | 13km/h | 28027m | 6.3m/s | -46.4°C | 0% | 16.8hPa | 2.6V | 03:25:49 | 01:53:30 | 00:00:00 | |
| BIOWL9-15 | 2026-09-04 18:23:20 | 49.77827 | 8.80373 | 163° | 11km/h | 28027m | 6.3m/s | -46.4°C | 0.7% | 16.8hPa | 2.6V | 00:00:00 | 00:00:00 | 00:00:00 | |
| CB1BUN | 2026-09-04 18:23:19 | 49.77830 | 8.80371 | 172° | 13km/h | 28021m | 6.2m/s | -46.4°C | 0.7% | 16.8hPa | 2.6V | 03:25:00 | 00:00:00 | 00:00:00 | |
| DM0DOS-11 | 2026-09-04 18:23:18 | 49.77827 | 8.80350 | 49° | 26km/h | 27986m | 4.8m/s | -46.4°C | 2.8% | 16.9hPa | 2.6V | 03:25:29 | 01:53:23 | 00:00:00 | |
| DL1XH-west | 2026-09-04 18:23:16 | 49.77836 | 8.80366 | 78° | 9km/h | 28005m | 5.3m/s | -46.4°C | 0% | 16.9hPa | 2.6V | 03:25:49 | 01:53:26 | 00:00:00 | |
| AA1-15 | 2026-09-04 18:23:13 | 49.77827 | 8.80350 | 50° | 26km/h | 27986m | 4.8m/s | -46.4°C | 0% | 16.9hPa | 2.6V | 03:25:49 | 01:53:23 | 00:00:00 | |
| BIOWL1-15 | 2026-09-04 18:23:10 | 49.77819 | 8.80326 | 92° | 16km/h | 27970m | 5.9m/s | -46.3°C | 0% | 16.9hPa | 2.7V | 03:25:49 | 01:53:20 | 00:00:00 | |
| HSKMA3-T | 2026-09-04 18:23:09 | 49.77820 | 8.80321 | 123° | 15km/h | 27964m | 5.5m/s | -46.3°C | 0% | 17hPa | 2.6V | 03:25:49 | 01:53:19 | 00:00:00 | |
| DL1XH-west | 2026-09-04 18:23:05 | 49.77829 | 8.80320 | 256° | 9km/h | 27940m | 5.7m/s | -46.3°C | 0% | 17hPa | 2.7V | 03:25:49 | 01:53:15 | 00:00:00 | |
| AA1-15 | 2026-09-04 18:23:03 | 49.77827 | 8.80326 | 338° | 11km/h | 27930m | 4.7m/s | -46.3°C | 0% | 17hPa | 2.7V | 03:25:49 | 01:53:13 | 00:00:00 | |
| DF1GD-15 | 2026-09-04 18:23:02 | 49.77827 | 8.80326 | 339° | 11km/h | 27930m | 4.7m/s | -46.3°C | 0.7% | 17.0hPa | 2.6V | 03:25:00 | 00:00:00 | 00:00:00 | |
| HEMX73-11 | 2026-09-04 18:23:01 | 49.77822 | 8.80323 | 43° | 16km/h | 27920m | 6.1m/s | -46.3°C | 0.7% | 17.1hPa | 2.6V | 03:25:00 | 00:00:00 | 00:00:00 | |
| DO3DL | 2026-09-04 18:23:00 | 49.77822 | 8.80323 | 43° | 16km/h | 27920m | 6.1m/s | -46.3°C | 0.7% | 17.1hPa | 2.6V | 03:25:00 | 00:00:00 | 00:00:00 | |
| DL1XH1-15 | 2026-09-04 18:22:59 | 49.77805 | 8.80262 | 54° | 16km/h | 27880m | 5.3m/s | -46.2°C | 2.8% | 17.2hPa | 2.6V | 03:25:48 | 01:53:04 | 00:00:00 | |
| BIOWL1-15 | 2026-09-04 18:22:59 | 49.77816 | 8.80309 | 71° | 27km/h | 27907m | 5.7m/s | -46.3°C | 0% | 17.1hPa | 2.6V | 03:25:49 | 01:53:09 | 00:00:00 | |
| DL1XH-west | 2026-09-04 18:22:54 | 49.77805 | 8.80262 | 55° | 16km/h | 27880m | 5.3m/s | -46.2°C | 0% | 17.2hPa | 2.6V | 03:25:49 | 01:53:04 | 00:00:00 | |
| AA1-15 | 2026-09-04 18:22:53 | 49.77803 | 8.80257 | 52° | 11km/h | 27875m | 5.4m/s | -46.2°C | 0% | 17.2hPa | 2.6V | 03:25:49 | 01:53:03 | 00:00:00 | |
| DB0ND-19 | 2026-09-04 18:22:52 | 49.77802 | 8.80255 | 63° | 5km/h | 27868m | 6.7m/s | -46.2°C | 0.6% | 17.2hPa | 2.7V | 00:00:00 | 00:00:00 | 00:00:00 | |
| DJ2DS-15 | 2026-09-04 18:22:50 | 49.77802 | 8.80254 | 351° | 4km/h | 27839m | 5.7m/s | -46.2°C | 0.6% | 17.3hPa | 2.7V | 00:00:00 | 00:00:00 | 00:00:00 | |
| DL1XH1-15 | 2026-09-04 18:22:49 | 49.77797 | 8.80245 | 61° | 18km/h | 27822m | 6.6m/s | -46.2°C | 2.8% | 17.3hPa | 2.7V | 03:25:58 | 01:52:54 | 00:00:00 | |
| HSKMA3-T | 2026-09-04 18:22:49 | 49.77803 | 8.80253 | 202° | 2km/h | 27850m | 5.5m/s | -46.2°C | 0% | 17.2hPa | 2.7V | 03:26:40 | 01:52:59 | 00:00:00 | |
| DJ2KF-10 | 2026-09-04 18:22:49 | 49.77803 | 8.80253 | 203° | 15km/h | 27850m | 5.4m/s | -46.2°C | 2.9% | 17.2hPa | 2.7V | 00:00:00 | 01:52:59 | 00:00:00 | |
| DM0DOS-11 | 2026-09-04 18:22:48 | 49.77794 | 8.80237 | 70° | 24km/h | 27816m | 6.9m/s | -46.1°C | 2.8% | 17.3hPa | 2.7V | 03:25:59 | 01:52:53 | 00:00:00 | |
| BIOWL1-15 | 2026-09-04 18:22:48 | 49.77803 | 8.80253 | 288° | 2km/h | 27844m | 6.4m/s | -46.2°C | 0% | 17.3hPa | 2.6V | 03:26:40 | 01:52:58 | 00:00:00 | |
| SONCRA | 2026-09-04 18:22:47 | 49.77801 | 8.80253 | 25° | 7km/h | 27833m | 4.6m/s | -46.2°C | 0.6% | 17.3hPa | 2.7V | 00:00:00 | 00:00:00 | 00:00:00 | |
| DL3AQ-11 | 2026-09-04 18:22:46 | 49.77801 | 8.80253 | 25° | 7km/h | 27833m | 4.6m/s | -46.2°C | 0.6% | 17.3hPa | 2.7V | 00:00:00 | 00:00:00 | 00:00:00 | |
| HARRO8 | 2026-09-04 18:22:45 | 49.77799 | 8.80250 | 48° | 13km/h | 27829m | 4.9m/s | -46.2°C | 0.7% | 17.3hPa | 2.7V | 00:00:00 | 00:00:00 | 00:00:00 | |
| DL1XH-west | 2026-09-04 18:22:43 | 49.77794 | 8.80237 | 71° | 24km/h | 27816m | 6.9m/s | -46.2°C | 0% | 17.3hPa | 2.7V | 03:26:40 | 01:52:53 | 00:00:00 | |
| AA1-15 | 2026-09-04 18:22:42 | 49.77792 | 8.80228 | 74° | 29km/h | 27810m | 5.3m/s | -46.2°C | 0% | 17.4hPa | 2.7V | 03:26:40 | 01:52:52 | 00:00:00 | |
| SONDE2-11 | 2026-09-04 18:22:42 | 49.77790 | 8.80217 | 72° | 27km/h | 27805m | 4.4m/s | -46.2°C | 0.7% | 17.4hPa | 2.6V | 00:00:00 | 00:00:00 | 00:00:00 | |
| EDDB2-11 | 2026-09-04 18:22:41 | 49.77788 | 8.80207 | 64° | 24km/h | 27801m | 4.8m/s | -46.2°C | 0.6% | 17.4hPa | 2.6V | 00:00:00 | 00:00:00 | 00:00:00 | |
| OE5DRO-10 | 2026-09-04 18:22:40 | 49.77788 | 8.80207 | 65° | 15km/h | 27801m | 4.7m/s | -46.2°C | 2.8% | 17.3hPa | 2.6V | 00:00:00 | 00:00:00 | 00:00:00 | |
| DL1XH1-15 | 2026-09-04 18:22:39 | 49.77769 | 8.80200 | 318° | 9km/h | 27765m | 5.6m/s | -46.2°C | 2.8% | 17.5hPa | 2.6V | 03:26:08 | 01:52:44 | 00:00:00 | |
| DM0DOS-11 | 2026-09-04 18:22:38 | 49.77768 | 8.80202 | 325° | 7km/h | 27759m | 5.1m/s | -46.2°C | 2.8% | 17.5hPa | 2.6V | 03:26:09 | 01:52:43 | 00:00:00 | |
| HSKMA3-T | 2026-09-04 18:22:38 | 49.77781 | 8.80195 | 26° | 16km/h | 27789m | 6.1m/s | -46.2°C | 0% | 17.4hPa | 2.6V | 03:26:40 | 01:52:48 | 00:00:00 | |
| BIOWL1-15 | 2026-09-04 18:22:37 | 49.77778 | 8.80194 | 357° | 15km/h | 27783m | 5.8m/s | -46.2°C | 0% | 17.4hPa | 2.7V | 03:26:40 | 01:52:47 | 00:00:00 | |
| DL1XH-west | 2026-09-04 18:22:33 | 49.77767 | 8.80202 | 325° | 7km/h | 27759m | 5.1m/s | -46.2°C | 0% | 17.5hPa | 2.6V | 03:26:40 | 01:52:43 | 00:00:00 | |
| AA1-15 | 2026-09-04 18:22:31 | 49.77764 | 8.80203 | 8° | 9km/h | 27750m | 5.4m/s | -46.3°C | 0% | 17.5hPa | 2.6V | 03:26:40 | 01:52:41 | 00:00:00 | |
| KANTATE | 2026-09-04 18:22:29 | 49.77761 | 8.80203 | 13° | 13km/h | 27744m | 6.6m/s | -46.3°C | 0.7% | 17.5hPa | 2.7V | 03:26:00 | 00:00:00 | 00:00:00 | |
| DM0DOS-11 | 2026-09-04 18:22:28 | 49.77738 | 8.80184 | 356° | 13km/h | 27704m | 5.7m/s | -46.5°C | 2.8% | 17.6hPa | 2.7V | 03:26:19 | 01:52:33 | 00:00:00 | |
| HSKMA3-T | 2026-09-04 18:22:27 | 49.77750 | 8.80195 | 34° | 18km/h | 27726m | 6m/s | -46.4°C | 0% | 17.6hPa | 2.6V | 03:26:40 | 01:52:37 | 00:00:00 | |
| BIOWL1-15 | 2026-09-04 18:22:26 | 49.77747 | 8.80191 | 41° | 16km/h | 27720m | 6.6m/s | -46.5°C | 0% | 17.6hPa | 2.6V | 03:26:40 | 01:52:36 | 00:00:00 | |
| DL1XH-west | 2026-09-04 18:22:22 | 49.77735 | 8.80186 | 338° | 16km/h | 27698m | 7m/s | -46.6°C | 0% | 17.7hPa | 2.7V | 03:26:40 | 01:52:32 | 00:00:00 | |
| AA1-15 | 2026-09-04 18:22:20 | 49.77727 | 8.80194 | 317° | 22km/h | 27686m | 5m/s | -46.6°C | 0% | 17.7hPa | 2.6V | 03:26:40 | 01:52:30 | 00:00:00 | |
| DL3AQ-11 | 2026-09-04 18:22:20 | 49.77723 | 8.80200 | 311° | 18km/h | 27681m | 5.6m/s | -46.6°C | 0.7% | 17.7hPa | 2.6V | 00:00:00 | 00:00:00 | 00:00:00 | |
| DJ2KF-10 | 2026-09-04 18:22:19 | 49.77723 | 8.80200 | 312° | 7km/h | 27681m | 5.5m/s | -46.5°C | 2.9% | 17.7hPa | 2.6V | 00:00:00 | 01:52:29 | 00:00:00 | |
| DM0DOS-11 | 2026-09-04 18:22:18 | 49.77716 | 8.80214 | 5° | 7km/h | 27646m | 5.9m/s | -46.7°C | 2.9% | 17.8hPa | 2.6V | 03:26:29 | 01:52:23 | 00:00:00 | |
| HSKMA3-T | 2026-09-04 18:22:16 | 49.77719 | 8.80212 | 281° | 5km/h | 27664m | 5.2m/s | -46.6°C | 0% | 17.7hPa | 2.7V | 03:26:40 | 01:52:26 | 00:00:00 | |
| DL1XH-west | 2026-09-04 18:22:11 | 49.77712 | 8.80213 | 20° | 7km/h | 27635m | 5.3m/s | -46.6°C | 0% | 17.8hPa | 2.6V | 03:26:40 | 01:52:21 | 00:00:00 | |
| EDDB2-11 | 2026-09-04 18:22:10 | 49.77710 | 8.80212 | 35° | 4km/h | 27630m | 6.4m/s | -46.6°C | 0.7% | 17.9hPa | 2.6V | 00:00:00 | 00:00:00 | 00:00:00 | |
| DL1XH1-15 | 2026-09-04 18:22:09 | 49.77705 | 8.80219 | 312° | 7km/h | 27596m | 4.6m/s | -46.5°C | 2.9% | 17.9hPa | 2.6V | 03:26:38 | 01:52:14 | 00:00:00 | |
| AA1-15 | 2026-09-04 18:22:09 | 49.77710 | 8.80211 | 50° | 2km/h | 27623m | 5.8m/s | -46.6°C | 0% | 17.9hPa | 2.7V | 03:26:40 | 01:52:19 | 00:00:00 | |
| BIOWL1-15 | 2026-09-04 18:22:05 | 49.77707 | 8.80217 | 314° | 9km/h | 27601m | 5.5m/s | -46.5°C | 0% | 17.9hPa | 2.6V | 03:26:40 | 01:52:15 | 00:00:00 | |
| DL1XH-west | 2026-09-04 18:22:01 | 49.77705 | 8.80222 | 169° | 5km/h | 27578m | 5.6m/s | -46.4°C | 0% | 18hPa | 2.7V | 03:27:31 | 01:52:11 | 00:00:00 | |
| HEMX73-11 | 2026-09-04 18:22:00 | 49.77705 | 8.80221 | 170° | 5km/h | 27578m | 5.6m/s | -46.4°C | 0.7% | 18.0hPa | 2.7V | 03:27:00 | 00:00:00 | 00:00:00 | |
| DL1XH1-15 | 2026-09-04 18:21:59 | 49.77713 | 8.80226 | 222° | 9km/h | 27538m | 5.1m/s | -46.3°C | 2.8% | 18.1hPa | 2.7V | 03:26:48 | 01:52:04 | 00:00:00 | |
| AA1-15 | 2026-09-04 18:21:59 | 49.77708 | 8.80221 | 172° | 4km/h | 27567m | 6.4m/s | -46.3°C | 0% | 18hPa | 2.6V | 03:27:31 | 01:52:09 | 00:00:00 | |
| DL6DJ-15 | 2026-09-04 18:21:59 | 49.77713 | 8.80226 | 222° | 7km/h | 27538m | 5.1m/s | -46.3°C | 0.7% | 18.1hPa | 2.7V | 00:00:00 | 00:00:00 | 00:00:00 | |
| DM0DOS-11 | 2026-09-04 18:21:56 | 49.77714 | 8.80229 | 242° | 7km/h | 27533m | 4.5m/s | -46.3°C | 2.8% | 18.1hPa | 2.7V | 03:26:49 | 01:52:03 | 00:00:00 | |
| HSKMA3-T | 2026-09-04 18:21:55 | 49.77711 | 8.80224 | 218° | 7km/h | 27544m | 6.4m/s | -46.3°C | 0% | 18.1hPa | 2.7V | 03:27:31 | 01:52:05 | 00:00:00 | |
| DL1XH-west | 2026-09-04 18:21:51 | 49.77715 | 8.80235 | 288° | 9km/h | 27522m | 6.6m/s | -46.2°C | 0% | 18.1hPa | 2.6V | 03:27:31 | 01:52:01 | 00:00:00 | |
| NBG1-10 | 2026-09-04 18:21:50 | 49.77713 | 8.80239 | 300° | 15km/h | 27516m | 4.9m/s | -46.2°C | 2.8% | 18.1hPa | 2.6V | 03:26:00 | 01:52:00 | 00:00:00 | |
| DL1XH1-15 | 2026-09-04 18:21:49 | 49.77722 | 8.80246 | 167° | 18km/h | 27482m | 5.4m/s | -46.4°C | 2.9% | 18.2hPa | 2.6V | 03:26:58 | 01:51:54 | 00:00:00 | |
| DD1CC8 | 2026-09-04 18:21:48 | 49.77712 | 8.80245 | 274° | 5km/h | 27507m | 5.0m/s | -46.3°C | 0.7% | 18.2hPa | 2.6V | 00:00:00 | 00:00:00 | 00:00:00 | |
| AA1-15 | 2026-09-04 18:21:48 | 49.77712 | 8.80245 | 275° | 5km/h | 27506m | 5m/s | -46.3°C | 0% | 18.2hPa | 2.7V | 03:27:31 | 01:51:58 | 00:00:00 | |
| BIOWL9-15 | 2026-09-04 18:21:47 | 49.77714 | 8.80248 | 179° | 11km/h | 27494m | 6.4m/s | -46.3°C | 0.7% | 18.2hPa | 2.6V | 00:00:00 | 00:00:00 | 00:00:00 | |
| DM0DOS-11 | 2026-09-04 18:21:46 | 49.77726 | 8.80245 | 166° | 16km/h | 27477m | 6.1m/s | -46.4°C | 2.9% | 18.3hPa | 2.6V | 03:26:59 | 01:51:53 | 00:00:00 | |
| BIOWL1-15 | 2026-09-04 18:21:44 | 49.77722 | 8.80246 | 167° | 18km/h | 27482m | 5.4m/s | -46.4°C | 0% | 18.3hPa | 2.6V | 03:27:31 | 01:51:54 | 00:00:00 | |
| DL1XH-west | 2026-09-04 18:21:41 | 49.77732 | 8.80243 | 178° | 9km/h | 27466m | 4.9m/s | -46.4°C | 0% | 18.3hPa | 2.7V | 03:27:31 | 01:51:51 | 00:00:00 | |
| DL3AQ-11 | 2026-09-04 18:21:40 | 49.77736 | 8.80244 | 205° | 7km/h | 27455m | 6.5m/s | -46.5°C | 0.7% | 18.3hPa | 2.7V | 00:00:00 | 00:00:00 | 00:00:00 | |
| DL1XH1-15 | 2026-09-04 18:21:39 | 49.77741 | 8.80261 | 278° | 13km/h | 27425m | 5.6m/s | -46.4°C | 2.8% | 18.4hPa | 2.7V | 03:27:08 | 01:51:44 | 00:00:00 | |
| AA1-15 | 2026-09-04 18:21:37 | 49.77740 | 8.80249 | 231° | 11km/h | 27443m | 5.4m/s | -46.5°C | 0% | 18.4hPa | 2.6V | 03:27:31 | 01:51:47 | 00:00:00 | |
| DL1XH-15 | 2026-09-04 18:21:36 | 49.77744 | 8.80274 | 216° | 15km/h | 27409m | 6.8m/s | -46.5°C | 2.9% | 18.5hPa | 2.6V | 03:27:11 | 01:51:41 | 00:00:00 | |
| BIOWL1-15 | 2026-09-04 18:21:36 | 49.77741 | 8.80261 | 279° | 13km/h | 27425m | 5.6m/s | -46.4°C | 0% | 18.4hPa | 2.7V | 03:27:31 | 01:51:44 | 00:00:00 | |
| DO3MHA-11 | 2026-09-04 18:21:36 | 49.77741 | 8.80252 | 250° | 16km/h | 27438m | 5.2m/s | -46.4°C | 2.8% | 18.3hPa | 2.7V | 00:00:00 | 01:51:46 | 00:00:00 | |
| DM0DOS-11 | 2026-09-04 18:21:35 | 49.77741 | 8.80266 | 266° | 11km/h | 27420m | 4.5m/s | -46.5°C | 2.9% | 18.4hPa | 2.7V | 03:27:09 | 01:51:43 | 00:00:00 | |
| HSKMA3-T | 2026-09-04 18:21:33 | 49.77741 | 8.80266 | 266° | 11km/h | 27420m | 4.5m/s | -46.5°C | 0% | 18.4hPa | 2.7V | 03:27:31 | 01:51:43 | 00:00:00 | |
| DL1XH-west | 2026-09-04 18:21:31 | 49.77744 | 8.80274 | 217° | 15km/h | 27409m | 6.8m/s | -46.5°C | 0% | 18.5hPa | 2.6V | 03:27:31 | 01:51:41 | 00:00:00 | |
| EDDB2-12 | 2026-09-04 18:21:30 | 49.77748 | 8.80277 | 199° | 18km/h | 27403m | 6.1m/s | -46.5°C | 0.7% | 18.5hPa | 2.6V | 00:00:00 | 00:00:00 | 00:00:00 | |
| DM0DOS-11 | 2026-09-04 18:21:28 | 49.77783 | 8.80282 | 187° | 18km/h | 27364m | 5.9m/s | -46.4°C | 2.9% | 18.6hPa | 2.6V | 03:27:19 | 01:51:33 | 00:00:00 | |
| DL6DJ-15 | 2026-09-04 18:21:28 | 49.77764 | 8.80281 | 182° | 18km/h | 27386m | 5.8m/s | -46.4°C | 0.7% | 18.5hPa | 2.6V | 00:00:00 | 00:00:00 | 00:00:00 | |
| DL3AQ-11 | 2026-09-04 18:21:27 | 49.77769 | 8.80281 | 180° | 16km/h | 27380m | 4.7m/s | -46.4°C | 0.7% | 18.5hPa | 2.6V | 00:00:00 | 00:00:00 | 00:00:00 | |
| DL1XH-15 | 2026-09-04 18:21:26 | 49.77791 | 8.80286 | 213° | 16km/h | 27354m | 5.1m/s | -46.3°C | 2.9% | 18.6hPa | 2.6V | 03:27:21 | 01:51:31 | 00:00:00 | |
| AA1-15 | 2026-09-04 18:21:26 | 49.77769 | 8.80281 | 180° | 18km/h | 27380m | 4.7m/s | -46.4°C | 0% | 18.5hPa | 2.7V | 03:27:31 | 01:51:36 | 00:00:00 | |
| BIOWL1-15 | 2026-09-04 18:21:25 | 49.77783 | 8.80282 | 188° | 18km/h | 27364m | 5.9m/s | -46.4°C | 0% | 18.6hPa | 2.6V | 03:27:31 | 01:51:33 | 00:00:00 | |
| HSKMA3-T | 2026-09-04 18:21:22 | 49.77787 | 8.80283 | 199° | 18km/h | 27359m | 5.1m/s | -46.4°C | 0% | 18.6hPa | 2.6V | 03:27:31 | 01:51:32 | 00:00:00 | |
| DL1XH-west | 2026-09-04 18:21:20 | 49.77794 | 8.80290 | 232° | 15km/h | 27348m | 6.4m/s | -46.3°C | 0% | 18.6hPa | 2.7V | 03:27:31 | 01:51:30 | 00:00:00 | |
| DJ2KF-10 | 2026-09-04 18:21:19 | 49.77796 | 8.80295 | 251° | 16km/h | 27342m | 6.1m/s | -46.2°C | 2.9% | 18.6hPa | 2.7V | 03:27:00 | 01:51:29 | 00:00:00 | |
| DF1GD-15 | 2026-09-04 18:21:18 | 49.77796 | 8.80295 | 252° | 15km/h | 27342m | 6.2m/s | -46.2°C | 0.7% | 18.6hPa | 2.7V | 03:27:00 | 00:00:00 | 00:00:00 | |
| DM0DOS-11 | 2026-09-04 18:21:18 | 49.77813 | 8.80306 | 167° | 27km/h | 27310m | 5m/s | -46.1°C | 2.8% | 18.7hPa | 2.7V | 03:27:29 | 01:51:23 | 00:00:00 | |
| NBG1-10 | 2026-09-04 18:21:17 | 49.77797 | 8.80304 | 248° | 16km/h | 27332m | 3.9m/s | -46.1°C | 2.8% | 18.6hPa | 2.7V | 00:00:00 | 01:51:27 | 00:00:00 | |
| DL1XH-15 | 2026-09-04 18:21:16 | 49.77826 | 8.80300 | 158° | 24km/h | 27301m | 5.5m/s | -46.1°C | 2.8% | 18.8hPa | 2.7V | 03:27:31 | 01:51:21 | 00:00:00 | |
| AA1-15 | 2026-09-04 18:21:15 | 49.77802 | 8.80308 | 185° | 16km/h | 27322m | 6m/s | -46.1°C | 0% | 18.7hPa | 2.6V | 03:27:31 | 01:51:25 | 00:00:00 | |
| BIOWL1-15 | 2026-09-04 18:21:12 | 49.77820 | 8.80304 | 163° | 27km/h | 27306m | 4.3m/s | -46.1°C | 0% | 18.8hPa | 2.7V | 03:27:31 | 01:51:22 | 00:00:00 | |
| HSKMA3-T | 2026-09-04 18:21:11 | 49.77826 | 8.80300 | 159° | 24km/h | 27301m | 5.5m/s | -46.1°C | 0% | 18.8hPa | 2.7V | 03:27:31 | 01:51:21 | 00:00:00 | |
| DL1XH-west | 2026-09-04 18:21:09 | 49.77834 | 8.80295 | 153° | 11km/h | 27289m | 5.4m/s | -46.1°C | 0% | 18.8hPa | 2.6V | 03:28:22 | 01:51:19 | 00:00:00 | |
| DB0NH | 2026-09-04 18:21:09 | 49.77834 | 8.80295 | 153° | 26km/h | 27290m | 5.4m/s | -46.1°C | 2.8% | 18.8hPa | 2.6V | 00:00:00 | 01:51:19 | 00:00:00 | |
| DM0DOS-11 | 2026-09-04 18:21:08 | 49.77843 | 8.80298 | 190° | 15km/h | 27258m | 5.3m/s | -46.2°C | 2.8% | 18.9hPa | 2.6V | 03:27:39 | 01:51:13 | 00:00:00 | |
| EDDB2-11 | 2026-09-04 18:21:08 | 49.77837 | 8.80293 | 216° | 2km/h | 27280m | 4.6m/s | -46.1°C | 0.7% | 18.8hPa | 2.6V | 00:00:00 | 00:00:00 | 00:00:00 | |
| DO1YAY-16 | 2026-09-04 18:21:07 | 49.77837 | 8.80293 | 216° | 2km/h | 27280m | 4.6m/s | -46.1°C | 0.7% | 18.8hPa | 2.6V | 00:00:00 | 00:00:00 | 00:00:00 | |
| DL1XH-15 | 2026-09-04 18:21:06 | 49.77851 | 8.80299 | 179° | 16km/h | 27248m | 5.1m/s | -46.2°C | 2.8% | 18.9hPa | 2.6V | 03:27:41 | 01:51:11 | 00:00:00 | |
| AA1-15 | 2026-09-04 18:21:05 | 49.77838 | 8.80295 | 217° | 5km/h | 27269m | 5.6m/s | -46.1°C | 0% | 18.8hPa | 2.7V | 03:28:22 | 01:51:15 | 00:00:00 | |
| BIOWL1-15 | 2026-09-04 18:21:04 | 49.77846 | 8.80299 | 184° | 16km/h | 27253m | 4.8m/s | -46.2°C | 0% | 18.9hPa | 2.6V | 03:28:22 | 01:51:12 | 00:00:00 | |
| HSKMA3-T | 2026-09-04 18:21:00 | 49.77855 | 8.80299 | 175° | 16km/h | 27242m | 5.8m/s | -46.2°C | 0% | 18.9hPa | 2.6V | 03:28:22 | 01:51:10 | 00:00:00 | |
| DL1XH-west | 2026-09-04 18:20:59 | 49.77859 | 8.80298 | 167° | 16km/h | 27237m | 5.1m/s | -46.2°C | 0% | 19hPa | 2.7V | 03:28:22 | 01:51:09 | 00:00:00 | |
| DM0DOS-11 | 2026-09-04 18:20:58 | 49.77888 | 8.80268 | 127° | 20km/h | 27205m | 5.9m/s | -46.1°C | 2.7% | 19hPa | 2.6V | 03:27:49 | 01:51:03 | 00:00:00 | |
| DL6DJ-15 | 2026-09-04 18:20:57 | 49.77874 | 8.80287 | 147° | 26km/h | 27220m | 6.3m/s | -46.2°C | 0.7% | 19.0hPa | 2.6V | 00:00:00 | 00:00:00 | 00:00:00 | |
| DO3MHA-11 | 2026-09-04 18:20:56 | 49.77874 | 8.80287 | 148° | 18km/h | 27220m | 6.2m/s | -46.1°C | 2.8% | 18.9hPa | 2.6V | 00:00:00 | 01:51:06 | 00:00:00 | |
| CB1BUN | 2026-09-04 18:20:55 | 49.77879 | 8.80281 | 142° | 27km/h | 27215m | 4.6m/s | -46.1°C | 0.7% | 19.0hPa | 2.6V | 03:28:00 | 00:00:00 | 00:00:00 | |
| DL1XH-15 | 2026-09-04 18:20:54 | 49.77894 | 8.80252 | 147° | 9km/h | 27184m | 5m/s | -46.1°C | 2.7% | 19.1hPa | 2.6V | 03:27:53 | 01:50:59 | 00:00:00 | |
| AA1-15 | 2026-09-04 18:20:54 | 49.77884 | 8.80274 | 134° | 24km/h | 27210m | 4.2m/s | -46.1°C | 0% | 19hPa | 2.6V | 03:28:22 | 01:51:04 | 00:00:00 | |
| BIOWL1-15 | 2026-09-04 18:20:54 | 49.77890 | 8.80262 | 118° | 15km/h | 27199m | 6.3m/s | -46.1°C | 0% | 19.1hPa | 2.7V | 03:28:22 | 01:51:02 | 00:00:00 | |
| HSKMA3-T | 2026-09-04 18:20:50 | 49.77892 | 8.80255 | 123° | 7km/h | 27188m | 4.4m/s | -46.1°C | 0% | 19.1hPa | 2.7V | 03:28:22 | 01:51:00 | 00:00:00 | |
| DL1XH-west | 2026-09-04 18:20:49 | 49.77894 | 8.80252 | 148° | 9km/h | 27184m | 5.1m/s | -46.1°C | 0% | 19.1hPa | 2.6V | 03:28:22 | 01:50:59 | 00:00:00 | |
| DB0ND-19 | 2026-09-04 18:20:48 | 49.77897 | 8.80250 | 160° | 13km/h | 27178m | 6.0m/s | -46.1°C | 0.7% | 19.1hPa | 2.7V | 00:00:00 | 00:00:00 | 00:00:00 | |
| DD1CC8 | 2026-09-04 18:20:46 | 49.77907 | 8.80246 | 166° | 24km/h | 27168m | 4.6m/s | -46.1°C | 0.6% | 19.1hPa | 2.7V | 00:00:00 | 00:00:00 | 00:00:00 | |
| AA1-15 | 2026-09-04 18:20:43 | 49.77925 | 8.80237 | 147° | 24km/h | 27152m | 5.2m/s | -46.2°C | 0% | 19.2hPa | 2.7V | 03:28:22 | 01:50:53 | 00:00:00 | |
| BIOWL1-15 | 2026-09-04 18:20:41 | 49.77933 | 8.80223 | 120° | 27km/h | 27142m | 5.2m/s | -46.3°C | 0% | 19.2hPa | 2.6V | 03:28:22 | 01:50:51 | 00:00:00 | |
| KANTATE | 2026-09-04 18:20:40 | 49.77933 | 8.80223 | 121° | 27km/h | 27142m | 5.2m/s | -46.3°C | 0.7% | 19.2hPa | 2.6V | 03:28:00 | 00:00:00 | 00:00:00 | |
| DL1XH1-15 | 2026-09-04 18:20:39 | 49.77948 | 8.80165 | 155° | 5km/h | 27104m | 4.8m/s | -46.5°C | 2.8% | 19.3hPa | 2.6V | 03:28:08 | 01:50:44 | 00:00:00 | |
| DL1XH-west | 2026-09-04 18:20:39 | 49.77939 | 8.80201 | 112° | 33km/h | 27130m | 5.8m/s | -46.3°C | 0% | 19.3hPa | 2.6V | 03:28:22 | 01:50:49 | 00:00:00 | |
| AA1-15 | 2026-09-04 18:20:32 | 49.77953 | 8.80165 | 180° | 15km/h | 27095m | 5.5m/s | -46.7°C | 0% | 19.4hPa | 2.6V | 03:28:22 | 01:50:42 | 00:00:00 | |
| BIOWL1-15 | 2026-09-04 18:20:30 | 49.77963 | 8.80161 | 154° | 26km/h | 27085m | 4.2m/s | -46.8°C | 0% | 19.4hPa | 2.7V | 03:28:22 | 01:50:40 | 00:00:00 | |
| DL1XH-15 | 2026-09-04 18:20:29 | 49.77973 | 8.80147 | 126° | 29km/h | 27075m | 5.5m/s | -46.8°C | 2.9% | 19.4hPa | 2.6V | 03:28:14 | 01:50:38 | 00:00:00 | |
| HSKMA3-T | 2026-09-04 18:20:29 | 49.77968 | 8.80155 | 140° | 27km/h | 27080m | 4.4m/s | -46.8°C | 0% | 19.4hPa | 2.7V | 03:28:22 | 01:50:39 | 00:00:00 | |
| DM0DOS-11 | 2026-09-04 18:20:28 | 49.77980 | 8.80085 | 89° | 33km/h | 27049m | 5.1m/s | -46.9°C | 2.9% | 19.5hPa | 2.6V | 03:28:19 | 01:50:33 | 00:00:00 | |
| DL1XH-west | 2026-09-04 18:20:28 | 49.77973 | 8.80147 | 127° | 29km/h | 27075m | 5.5m/s | -46.8°C | 0% | 19.4hPa | 2.6V | 03:28:22 | 01:50:38 | 00:00:00 | |
| AA1-15 | 2026-09-04 18:20:22 | 49.77981 | 8.80072 | 96° | 31km/h | 27044m | 5.4m/s | -46.9°C | 0% | 19.5hPa | 2.6V | 03:28:22 | 01:50:32 | 00:00:00 | |
| BIOWL1-15 | 2026-09-04 18:20:22 | 49.77983 | 8.80050 | 106° | 27km/h | 27034m | 4.6m/s | -46.9°C | 0% | 19.5hPa | 2.7V | 03:28:22 | 01:50:30 | 00:00:00 | |
| DO2KSM | 2026-09-04 18:20:20 | 49.77982 | 8.80060 | 102° | 29km/h | 27039m | 5.2m/s | -46.9°C | 0.7% | 19.5hPa | 2.6V | 03:28:00 | 00:00:00 | 00:00:00 | |
| DL1XH-15 | 2026-09-04 18:20:19 | 49.77986 | 8.80032 | 99° | 22km/h | 27024m | 5.5m/s | -47°C | 2.9% | 19.6hPa | 2.6V | 03:28:24 | 01:50:28 | 00:00:00 | |
| DL1XH1-15 | 2026-09-04 18:20:19 | 49.77986 | 8.79998 | 92° | 26km/h | 27003m | 5.3m/s | -47°C | 2.9% | 19.6hPa | 2.7V | 03:28:28 | 01:50:24 | 00:00:00 | |
| HSKMA3-T | 2026-09-04 18:20:18 | 49.77986 | 8.80032 | 100° | 22km/h | 27024m | 5.5m/s | -47°C | 0% | 19.6hPa | 2.6V | 03:29:13 | 01:50:28 | 00:00:00 | |
| DL1XH-west | 2026-09-04 18:20:17 | 49.77987 | 8.80024 | 90° | 20km/h | 27018m | 5.7m/s | -47°C | 0% | 19.6hPa | 2.6V | 03:29:13 | 01:50:27 | 00:00:00 | |
| AA1-15 | 2026-09-04 18:20:11 | 49.77991 | 8.79965 | 111° | 33km/h | 26987m | 4.3m/s | -47°C | 0% | 19.7hPa | 2.7V | 03:29:13 | 01:50:21 | 00:00:00 | |
| BIOWL1-15 | 2026-09-04 18:20:09 | 49.77996 | 8.79942 | 104° | 29km/h | 26977m | 5.8m/s | -47°C | 0% | 19.7hPa | 2.6V | 03:29:13 | 01:50:19 | 00:00:00 | |
| DL1XH-west | 2026-09-04 18:20:07 | 49.77998 | 8.79923 | 96° | 22km/h | 26967m | 4.8m/s | -47.1°C | 0% | 19.7hPa | 2.6V | 03:29:13 | 01:50:17 | 00:00:00 | |
| AA1-15 | 2026-09-04 18:20:00 | 49.78006 | 8.79882 | 92° | 16km/h | 26930m | 5.1m/s | -47.3°C | 0% | 19.8hPa | 2.6V | 03:29:13 | 01:50:10 | 00:00:00 | |
| BIOWL1-15 | 2026-09-04 18:19:58 | 49.78007 | 8.79868 | 106° | 18km/h | 26920m | 5m/s | -47.3°C | 0% | 19.9hPa | 2.7V | 03:29:13 | 01:50:08 | 00:00:00 | |
| DL1XH-west | 2026-09-04 18:19:57 | 49.78009 | 8.79861 | 119° | 20km/h | 26914m | 6.3m/s | -47.3°C | 0% | 19.9hPa | 2.7V | 03:29:13 | 01:50:07 | 00:00:00 | |
| HSKMA3-T | 2026-09-04 18:19:57 | 49.78012 | 8.79855 | 133° | 22km/h | 26909m | 5.4m/s | -47.3°C | 0% | 19.9hPa | 2.7V | 03:29:13 | 01:50:06 | 00:00:00 | |
| AA1-15 | 2026-09-04 18:19:49 | 49.78028 | 8.79835 | 192° | 2km/h | 26873m | 5.2m/s | -47.6°C | 0% | 20hPa | 2.6V | 03:29:13 | 01:49:59 | 00:00:00 | |
| DJ2KF-10 | 2026-09-04 18:19:49 | 49.78028 | 8.79835 | 192° | 11km/h | 26873m | 5.2m/s | -47.5°C | 2.9% | 20.0hPa | 2.6V | 00:00:00 | 01:49:59 | 00:00:00 | |
| DM0DOS-11 | 2026-09-04 18:19:48 | 49.78038 | 8.79822 | 94° | 15km/h | 26841m | 5.5m/s | -47.9°C | 3% | 20.1hPa | 2.6V | 03:28:59 | 01:49:53 | 00:00:00 | |
| BIOWL1-15 | 2026-09-04 18:19:48 | 49.78029 | 8.79835 | 177° | 5km/h | 26867m | 5.8m/s | -47.6°C | 0% | 20.1hPa | 2.6V | 03:29:13 | 01:49:58 | 00:00:00 | |
| DL1XH-west | 2026-09-04 18:19:47 | 49.78031 | 8.79835 | 165° | 9km/h | 26862m | 5.1m/s | -47.6°C | 0% | 20hPa | 2.7V | 03:29:13 | 01:49:57 | 00:00:00 | |
| HSKMA3-T | 2026-09-04 18:19:46 | 49.78033 | 8.79833 | 152° | 11km/h | 26857m | 4.3m/s | -47.7°C | 0% | 20.1hPa | 2.7V | 03:29:13 | 01:49:56 | 00:00:00 | |
| BIOWL1-15 | 2026-09-04 18:19:42 | 49.78040 | 8.79790 | 105° | 16km/h | 26815m | 4.7m/s | -47.9°C | 0% | 20.2hPa | 2.7V | 03:29:13 | 01:49:48 | 00:00:00 | |
| DB0NH | 2026-09-04 18:19:41 | 49.78038 | 8.79810 | 93° | 9km/h | 26832m | 4.7m/s | -47.8°C | 3.0% | 20.1hPa | 2.6V | 00:00:00 | 01:49:51 | 00:00:00 | |
| DO2KSM | 2026-09-04 18:19:40 | 49.78038 | 8.79810 | 94° | 18km/h | 26832m | 4.7m/s | -47.9°C | 0.7% | 20.1hPa | 2.6V | 03:29:00 | 00:00:00 | 00:00:00 | |
| DL1XH1-15 | 2026-09-04 18:19:39 | 49.78039 | 8.79771 | 55° | 11km/h | 26794m | 4.2m/s | -48°C | 3% | 20.3hPa | 2.6V | 03:29:08 | 01:49:44 | 00:00:00 | |
| AA1-15 | 2026-09-04 18:19:39 | 49.78039 | 8.79796 | 106° | 18km/h | 26821m | 5.2m/s | -47.9°C | 0% | 20.2hPa | 2.6V | 03:29:13 | 01:49:49 | 00:00:00 | |
| HARRO8 | 2026-09-04 18:19:39 | 49.78040 | 8.79790 | 105° | 15km/h | 26816m | 4.7m/s | -47.9°C | 0.7% | 20.2hPa | 2.6V | 00:00:00 | 00:00:00 | 00:00:00 | |
| DM0DOS-11 | 2026-09-04 18:19:38 | 49.78038 | 8.79768 | 64° | 9km/h | 26790m | 4.5m/s | -48°C | 3% | 20.3hPa | 2.6V | 03:29:09 | 01:49:43 | 00:00:00 | |
| DL1XH-west | 2026-09-04 18:19:37 | 49.78041 | 8.79784 | 98° | 15km/h | 26811m | 5.1m/s | -47.9°C | 0% | 20.2hPa | 2.7V | 03:29:13 | 01:49:47 | 00:00:00 | |
| HSKMA3-T | 2026-09-04 18:19:36 | 49.78041 | 8.79779 | 81° | 13km/h | 26805m | 6.2m/s | -48°C | 0% | 20.2hPa | 2.6V | 03:29:13 | 01:49:46 | 00:00:00 | |
| DO3MHA-11 | 2026-09-04 18:19:36 | 49.78041 | 8.79779 | 82° | 11km/h | 26805m | 6.1m/s | -47.9°C | 3.0% | 20.2hPa | 2.6V | 00:00:00 | 01:49:46 | 00:00:00 | |
| EDDB2-11 | 2026-09-04 18:19:35 | 49.78039 | 8.79771 | 55° | 9km/h | 26795m | 4.2m/s | -48.0°C | 0.7% | 20.3hPa | 2.6V | 00:00:00 | 00:00:00 | 00:00:00 | |
| DJ2DS-15 | 2026-09-04 18:19:34 | 49.78039 | 8.79771 | 56° | 9km/h | 26795m | 4.2m/s | -47.9°C | 3.0% | 20.2hPa | 2.6V | 00:00:00 | 01:49:44 | 00:00:00 | |
| DF2AP-13 | 2026-09-04 18:19:32 | 49.78037 | 8.79764 | 82° | 9km/h | 26785m | 5.8m/s | -48.0°C | 3.0% | 20.3hPa | 2.6V | 00:00:00 | 01:49:42 | 00:00:00 | |
| DL1XH1-15 | 2026-09-04 18:19:29 | 49.78035 | 8.79728 | 67° | 7km/h | 26743m | 5.3m/s | -48.2°C | 3% | 20.4hPa | 2.6V | 03:29:18 | 01:49:34 | 00:00:00 | |
| BIOWL1-15 | 2026-09-04 18:19:29 | 49.78039 | 8.79740 | 77° | 15km/h | 26758m | 5.7m/s | -48.1°C | 0% | 20.4hPa | 2.6V | 03:30:04 | 01:49:37 | 00:00:00 | |
| AA1-15 | 2026-09-04 18:19:29 | 49.78039 | 8.79751 | 105° | 15km/h | 26769m | 4.5m/s | -48.1°C | 0% | 20.4hPa | 2.6V | 03:29:13 | 01:49:39 | 00:00:00 | |
| DF7PN | 2026-09-04 18:19:29 | 49.78039 | 8.79746 | 93° | 13km/h | 26764m | 5.9m/s | -48.1°C | 0.7% | 20.4hPa | 2.6V | 00:00:00 | 00:00:00 | 00:00:00 | |
| DM0DOS-11 | 2026-09-04 18:19:28 | 49.78035 | 8.79726 | 87° | 4km/h | 26738m | 5.9m/s | -48.2°C | 3% | 20.4hPa | 2.6V | 03:29:19 | 01:49:33 | 00:00:00 | |
| DL1XH-west | 2026-09-04 18:19:26 | 49.78038 | 8.79735 | 66° | 13km/h | 26753m | 4.8m/s | -48.1°C | 0% | 20.4hPa | 2.7V | 03:30:04 | 01:49:36 | 00:00:00 | |
| HSKMA3-T | 2026-09-04 18:19:25 | 49.78036 | 8.79731 | 62° | 11km/h | 26748m | 4.3m/s | -48.2°C | 0% | 20.4hPa | 2.7V | 03:30:04 | 01:49:35 | 00:00:00 | |
| DC4HF-4 | 2026-09-04 18:19:23 | 49.78035 | 8.79726 | 87° | 2km/h | 26738m | 5.9m/s | -48.2°C | 0.7% | 20.4hPa | 2.6V | 00:00:00 | 00:00:00 | 00:00:00 | |
| DL1XH1-15 | 2026-09-04 18:19:19 | 49.78027 | 8.79723 | 76° | 9km/h | 26691m | 4.7m/s | -48.2°C | 3% | 20.6hPa | 2.6V | 03:29:28 | 01:49:24 | 00:00:00 | |
| DJ2KF-10 | 2026-09-04 18:19:19 | 49.78033 | 8.79728 | 342° | 7km/h | 26717m | 5.3m/s | -48.2°C | 3.1% | 20.5hPa | 2.6V | 03:29:00 | 01:49:29 | 00:00:00 | |
| DM0DOS-11 | 2026-09-04 18:19:18 | 49.78026 | 8.79719 | 66° | 13km/h | 26686m | 5.2m/s | -48.2°C | 3% | 20.6hPa | 2.6V | 03:29:29 | 01:49:23 | 00:00:00 | |
| DL1XH-west | 2026-09-04 18:19:16 | 49.78028 | 8.79728 | 41° | 5km/h | 26702m | 5.9m/s | -48.3°C | 0% | 20.5hPa | 2.7V | 03:30:04 | 01:49:26 | 00:00:00 | |
| HSKMA3-T | 2026-09-04 18:19:15 | 49.78027 | 8.79726 | 75° | 5km/h | 26697m | 5m/s | -48.2°C | 0% | 20.6hPa | 2.7V | 03:30:04 | 01:49:25 | 00:00:00 | |
| DJ2DS-15 | 2026-09-04 18:19:14 | 49.78027 | 8.79723 | 77° | 9km/h | 26692m | 4.6m/s | -48.2°C | 3.0% | 20.5hPa | 2.7V | 00:00:00 | 01:49:24 | 00:00:00 | |
| DL4BBY-15 | 2026-09-04 18:19:13 | 49.78025 | 8.79719 | 67° | 7km/h | 26687m | 5.2m/s | -49.2°C | 0% | 0hPa | 2.7V | 00:00:00 | 00:00:00 | 00:00:00 | |
| BIOWL9-15 | 2026-09-04 18:19:12 | 49.78022 | 8.79710 | 50° | 16km/h | 26675m | 5.3m/s | -48.3°C | 0.7% | 20.6hPa | 2.7V | 00:00:00 | 00:00:00 | 00:00:00 | |
| AM1SDL-15 | 2026-09-04 18:19:11 | 49.78021 | 8.79710 | 51° | 11km/h | 26675m | 5.3m/s | -48.3°C | 3.1% | 20.6hPa | 2.7V | 00:00:00 | 01:49:21 | 00:00:00 | |
| DM3KS-11 | 2026-09-04 18:19:10 | 49.78016 | 8.79700 | 54° | 13km/h | 26665m | 5.3m/s | -48.4°C | 0.8% | 20.7hPa | 2.7V | 00:00:00 | 00:00:00 | 00:00:00 | |
| DL1XH1-15 | 2026-09-04 18:19:09 | 49.78011 | 8.79684 | 31° | 9km/h | 26638m | 5.6m/s | -48.5°C | 3.1% | 20.8hPa | 2.7V | 03:29:38 | 01:49:14 | 00:00:00 | |
| DB0UT-7 | 2026-09-04 18:19:09 | 49.78016 | 8.79700 | 55° | 5km/h | 26665m | 5.3m/s | -48.3°C | 3.1% | 20.6hPa | 2.6V | 00:00:00 | 01:49:19 | 00:00:00 | |
| DM0DOS-11 | 2026-09-04 18:19:08 | 49.78009 | 8.79682 | 19° | 9km/h | 26633m | 4.5m/s | -48.5°C | 3.1% | 20.8hPa | 2.6V | 03:29:39 | 01:49:13 | 00:00:00 | |
| DL1XH-west | 2026-09-04 18:19:06 | 49.78013 | 8.79689 | 73° | 7km/h | 26649m | 4.8m/s | -48.5°C | 0% | 20.8hPa | 2.7V | 03:30:04 | 01:49:16 | 00:00:00 | |
| BIOWL1-15 | 2026-09-04 18:19:05 | 49.78013 | 8.79686 | 51° | 7km/h | 26643m | 5.9m/s | -48.5°C | 0% | 20.7hPa | 2.7V | 03:30:04 | 01:49:15 | 00:00:00 | |
| HSKMA3-T | 2026-09-04 18:19:04 | 49.78011 | 8.79684 | 32° | 9km/h | 26638m | 5.6m/s | -48.5°C | 0% | 20.8hPa | 2.7V | 03:30:04 | 01:49:14 | 00:00:00 | |
| EDDB2-11 | 2026-09-04 18:19:04 | 49.78009 | 8.79682 | 19° | 9km/h | 26633m | 4.5m/s | -48.6°C | 0.8% | 20.8hPa | 2.6V | 00:00:00 | 00:00:00 | 00:00:00 | |
| DO1YAY-16 | 2026-09-04 18:19:03 | 49.78009 | 8.79682 | 19° | 9km/h | 26633m | 4.5m/s | -48.6°C | 0.8% | 20.8hPa | 2.6V | 00:00:00 | 00:00:00 | 00:00:00 | |
| SFWM-10 | 2026-09-04 18:19:02 | 49.78008 | 8.79682 | 21° | 9km/h | 26633m | 4.5m/s | -48.6°C | 0.8% | 20.8hPa | 2.6V | 03:30:00 | 00:00:00 | 00:00:00 | |
| DL1ZP-14 | 2026-09-04 18:19:01 | 49.78005 | 8.79681 | 11° | 5km/h | 26623m | 5.8m/s | -48.5°C | 0.7% | 20.8hPa | 2.6V | 00:00:00 | 00:00:00 | 00:00:00 | |
| DL3AQ-11 | 2026-09-04 18:19:00 | 49.78003 | 8.79680 | 60° | 0km/h | 26612m | 5.0m/s | -48.5°C | 0.8% | 20.8hPa | 2.7V | 00:00:00 | 00:00:00 | 00:00:00 | |
| AM1SDL-15 | 2026-09-04 18:18:59 | 49.78003 | 8.79680 | 61° | 5km/h | 26612m | 5.0m/s | -48.5°C | 3.1% | 20.8hPa | 2.7V | 00:00:00 | 01:49:09 | 00:00:00 | |
| DL1XH1-15 | 2026-09-04 18:18:59 | 49.77998 | 8.79673 | 45° | 7km/h | 26586m | 4.7m/s | -48.6°C | 3.1% | 20.9hPa | 2.7V | 03:29:48 | 01:49:04 | 00:00:00 | |
| DM0DOS-11 | 2026-09-04 18:18:58 | 49.77997 | 8.79671 | 73° | 5km/h | 26581m | 6m/s | -48.6°C | 3.1% | 20.9hPa | 2.6V | 03:29:49 | 01:49:03 | 00:00:00 | |
| DL1XH-west | 2026-09-04 18:18:55 | 49.78000 | 8.79675 | 40° | 9km/h | 26591m | 4.3m/s | -48.6°C | 0% | 20.9hPa | 2.7V | 03:30:04 | 01:49:05 | 00:00:00 | |
| HSKMA3-T | 2026-09-04 18:18:53 | 49.77997 | 8.79671 | 74° | 5km/h | 26581m | 6m/s | -48.6°C | 0% | 21hPa | 2.6V | 03:30:04 | 01:49:03 | 00:00:00 | |
| AA1-15 | 2026-09-04 18:18:50 | 49.78000 | 8.79667 | 147° | 5km/h | 26565m | 4.6m/s | -48.6°C | 0% | 21hPa | 2.7V | 03:30:04 | 01:49:00 | 00:00:00 | |
| DL1XH1-15 | 2026-09-04 18:18:49 | 49.77997 | 8.79666 | 255° | 4km/h | 26533m | 5.9m/s | -48.8°C | 3.2% | 21.1hPa | 2.6V | 03:29:58 | 01:48:54 | 00:00:00 | |
| DJ2KF-10 | 2026-09-04 18:18:49 | 49.78000 | 8.79666 | 116° | 5km/h | 26560m | 5.8m/s | -48.6°C | 3.1% | 20.9hPa | 2.6V | 00:00:00 | 01:48:59 | 00:00:00 | |
| DM0DOS-11 | 2026-09-04 18:18:48 | 49.77997 | 8.79667 | 252° | 5km/h | 26527m | 4.6m/s | -48.8°C | 3.2% | 21.1hPa | 2.6V | 03:29:59 | 01:48:53 | 00:00:00 | |
| DC4HF-4 | 2026-09-04 18:18:47 | 49.77999 | 8.79665 | 13° | 4km/h | 26549m | 5.0m/s | -48.7°C | 0.8% | 21.1hPa | 2.6V | 00:00:00 | 00:00:00 | 00:00:00 | |
| DL3AQ-11 | 2026-09-04 18:18:46 | 49.77998 | 8.79664 | 357° | 4km/h | 26544m | 4.6m/s | -48.7°C | 0.7% | 21.1hPa | 2.6V | 00:00:00 | 00:00:00 | 00:00:00 | |
| DL1XH-west | 2026-09-04 18:18:44 | 49.77997 | 8.79666 | 255° | 4km/h | 26533m | 5.9m/s | -48.8°C | 0.1% | 21.1hPa | 2.6V | 03:30:04 | 01:48:54 | 00:00:00 | |
| HSKMA3-T | 2026-09-04 18:18:43 | 49.77997 | 8.79668 | 253° | 5km/h | 26527m | 4.6m/s | -48.8°C | 0.1% | 21.1hPa | 2.6V | 03:30:04 | 01:48:53 | 00:00:00 | |
| DL4BBY-15 | 2026-09-04 18:18:43 | 49.77997 | 8.79667 | 253° | 5km/h | 26527m | 4.6m/s | -49.7°C | 0% | 0hPa | 2.7V | 00:00:00 | 00:00:00 | 00:00:00 | |
| DD1CC8 | 2026-09-04 18:18:42 | 49.77997 | 8.79672 | 297° | 5km/h | 26518m | 6.2m/s | -48.9°C | 0.8% | 21.1hPa | 2.7V | 00:00:00 | 00:00:00 | 00:00:00 | |
| BIOWL9-15 | 2026-09-04 18:18:41 | 49.77996 | 8.79674 | 317° | 7km/h | 26512m | 5.6m/s | -48.9°C | 0.7% | 21.2hPa | 2.7V | 00:00:00 | 00:00:00 | 00:00:00 | |
| DM3KS-11 | 2026-09-04 18:18:39 | 49.77994 | 8.79678 | 301° | 5km/h | 26501m | 5.5m/s | -48.9°C | 0.8% | 21.2hPa | 2.7V | 00:00:00 | 00:00:00 | 00:00:00 | |
| DM0DOS-11 | 2026-09-04 18:18:38 | 49.77993 | 8.79688 | 321° | 7km/h | 26475m | 6.1m/s | -49°C | 3.1% | 21.3hPa | 2.7V | 03:30:09 | 01:48:43 | 00:00:00 | |
| DL1XH-west | 2026-09-04 18:18:34 | 49.77994 | 8.79686 | 281° | 5km/h | 26481m | 5.7m/s | -49°C | 0% | 21.3hPa | 2.7V | 03:30:55 | 01:48:44 | 00:00:00 | |
| HSKMA3-T | 2026-09-04 18:18:32 | 49.77992 | 8.79689 | 337° | 9km/h | 26470m | 4.7m/s | -49°C | 0% | 21.3hPa | 2.6V | 03:30:55 | 01:48:42 | 00:00:00 | |
| AA1-15 | 2026-09-04 18:18:30 | 49.77988 | 8.79691 | 348° | 7km/h | 26461m | 4.9m/s | -49°C | 0% | 21.4hPa | 2.6V | 03:30:55 | 01:48:40 | 00:00:00 | |
| DL1ZP-14 | 2026-09-04 18:18:30 | 49.77988 | 8.79691 | 347° | 5km/h | 26461m | 4.9m/s | -49.0°C | 0.8% | 21.4hPa | 2.6V | 00:00:00 | 00:00:00 | 00:00:00 | |
| DM0DOS-11 | 2026-09-04 18:18:28 | 49.77990 | 8.79688 | 3° | 2km/h | 26423m | 5.2m/s | -49.2°C | 3.2% | 21.5hPa | 2.7V | 03:30:19 | 01:48:33 | 00:00:00 | |
| DL1XH-west | 2026-09-04 18:18:23 | 49.77990 | 8.79688 | 4° | 2km/h | 26423m | 5.2m/s | -49.2°C | 0% | 21.5hPa | 2.7V | 03:30:55 | 01:48:33 | 00:00:00 | |
| HSKMA3-T | 2026-09-04 18:18:22 | 49.77990 | 8.79688 | 333° | 2km/h | 26418m | 4.7m/s | -49.2°C | 0.1% | 21.5hPa | 2.6V | 03:30:55 | 01:48:32 | 00:00:00 | |
| DL1XH1-15 | 2026-09-04 18:18:19 | 49.77990 | 8.79671 | 77° | 15km/h | 26374m | 5.5m/s | -49.1°C | 3.2% | 21.6hPa | 2.7V | 03:30:28 | 01:48:24 | 00:00:00 | |
| AA1-15 | 2026-09-04 18:18:19 | 49.77991 | 8.79688 | 155° | 5km/h | 26401m | 4.9m/s | -49.2°C | 0.1% | 21.5hPa | 2.7V | 03:30:55 | 01:48:29 | 00:00:00 | |
| DM0DOS-11 | 2026-09-04 18:18:18 | 49.77990 | 8.79665 | 86° | 15km/h | 26368m | 6.4m/s | -49.1°C | 3.2% | 21.6hPa | 2.7V | 03:30:29 | 01:48:23 | 00:00:00 | |
| DO3MHA-11 | 2026-09-04 18:18:16 | 49.77992 | 8.79681 | 73° | 11km/h | 26385m | 5.6m/s | -49.1°C | 3.2% | 21.6hPa | 2.7V | 00:00:00 | 01:48:26 | 00:00:00 | |
| DL1XH-15 | 2026-09-04 18:18:14 | 49.77988 | 8.79645 | 37° | 5km/h | 26340m | 4.6m/s | -49.1°C | 3.1% | 21.7hPa | 2.7V | 03:30:34 | 01:48:18 | 00:00:00 | |
| DL1XH-west | 2026-09-04 18:18:14 | 49.77990 | 8.79665 | 86° | 15km/h | 26368m | 6.4m/s | -49.2°C | 0.1% | 21.6hPa | 2.7V | 03:30:55 | 01:48:23 | 00:00:00 | |
| HSKMA3-T | 2026-09-04 18:18:12 | 49.77990 | 8.79654 | 92° | 13km/h | 26357m | 5m/s | -49.2°C | 0% | 21.7hPa | 2.6V | 03:30:55 | 01:48:21 | 00:00:00 | |
| DD1CC8 | 2026-09-04 18:18:11 | 49.77990 | 8.79650 | 81° | 9km/h | 26351m | 5.7m/s | -49.1°C | 0.8% | 21.7hPa | 2.6V | 00:00:00 | 00:00:00 | 00:00:00 | |
| BIOWL9-15 | 2026-09-04 18:18:10 | 49.77989 | 8.79647 | 60° | 7km/h | 26345m | 5.9m/s | -49.1°C | 0.8% | 21.7hPa | 2.6V | 00:00:00 | 00:00:00 | 00:00:00 | |
| DL1XH1-15 | 2026-09-04 18:18:09 | 49.77991 | 8.79645 | 188° | 11km/h | 26319m | 5.4m/s | -49.3°C | 3.1% | 21.8hPa | 2.6V | 03:30:38 | 01:48:14 | 00:00:00 | |
| AA1-15 | 2026-09-04 18:18:09 | 49.77989 | 8.79647 | 61° | 7km/h | 26345m | 5.9m/s | -49.1°C | 0% | 21.7hPa | 2.6V | 03:30:55 | 01:48:19 | 00:00:00 | |
| BIOWL1-15 | 2026-09-04 18:18:03 | 49.77993 | 8.79645 | 175° | 11km/h | 26314m | 4.6m/s | -49.4°C | 0% | 21.8hPa | 2.7V | 03:30:55 | 01:48:13 | 00:00:00 | |
| DL1XH-west | 2026-09-04 18:18:02 | 49.77995 | 8.79645 | 157° | 9km/h | 26308m | 6.1m/s | -49.4°C | 0% | 21.9hPa | 2.7V | 03:30:55 | 01:48:12 | 00:00:00 | |
| HSKMA3-T | 2026-09-04 18:18:00 | 49.77997 | 8.79639 | 95° | 9km/h | 26297m | 5.3m/s | -49.4°C | 0% | 21.9hPa | 2.6V | 03:30:55 | 01:48:10 | 00:00:00 | |
| NBG1-10 | 2026-09-04 18:17:59 | 49.77997 | 8.79635 | 91° | 11km/h | 26291m | 5.6m/s | -49.4°C | 3.3% | 21.9hPa | 2.7V | 00:00:00 | 01:48:09 | 00:00:00 | |
| DB0NH | 2026-09-04 18:17:58 | 49.77997 | 8.79630 | 94° | 9km/h | 26285m | 6.2m/s | -49.4°C | 3.3% | 21.9hPa | 2.7V | 03:30:00 | 01:48:08 | 00:00:00 | |
| DL1XH-15 | 2026-09-04 18:17:57 | 49.77996 | 8.79614 | 50° | 9km/h | 26264m | 6.2m/s | -49.5°C | 3.2% | 22hPa | 2.7V | 03:30:48 | 01:48:04 | 00:00:00 | |
| DM0DOS-11 | 2026-09-04 18:17:57 | 49.77994 | 8.79610 | 48° | 4km/h | 26253m | 5m/s | -49.5°C | 3.2% | 22.1hPa | 2.6V | 03:30:50 | 01:48:02 | 00:00:00 | |
| AA1-15 | 2026-09-04 18:17:55 | 49.77998 | 8.79617 | 72° | 9km/h | 26270m | 5.9m/s | -49.5°C | 0.1% | 22hPa | 2.6V | 03:30:55 | 01:48:05 | 00:00:00 | |
| BIOWL1-15 | 2026-09-04 18:17:52 | 49.77994 | 8.79610 | 49° | 4km/h | 26253m | 5m/s | -49.5°C | 0% | 22.1hPa | 2.6V | 03:30:55 | 01:48:02 | 00:00:00 | |
| DL1XH-west | 2026-09-04 18:17:51 | 49.77994 | 8.79610 | 136° | 4km/h | 26247m | 5.9m/s | -49.5°C | 0% | 22hPa | 2.6V | 03:30:55 | 01:48:01 | 00:00:00 | |
| HSKMA3-T | 2026-09-04 18:17:50 | 49.77995 | 8.79608 | 155° | 9km/h | 26241m | 6.2m/s | -49.5°C | 0% | 22.1hPa | 2.6V | 03:30:55 | 01:48:00 | 00:00:00 | |
| DF8AY | 2026-09-04 18:17:48 | 49.78000 | 8.79604 | 143° | 13km/h | 26231m | 4.4m/s | 0°C | 0% | 0hPa | 2.7V | 18:12:15 | 01:47:58 | 00:00:00 | |
| DM0DOS-11 | 2026-09-04 18:17:47 | 49.77999 | 8.79573 | 79° | 15km/h | 26197m | 6.1m/s | -49.7°C | 3.3% | 22.2hPa | 2.7V | 03:31:00 | 01:47:52 | 00:00:00 | |
| AA1-15 | 2026-09-04 18:17:45 | 49.78004 | 8.79591 | 75° | 15km/h | 26214m | 5.7m/s | -49.6°C | 0.1% | 22.2hPa | 2.6V | 03:31:46 | 01:47:55 | 00:00:00 | |
| BIOWL1-15 | 2026-09-04 18:17:42 | 49.78000 | 8.79573 | 79° | 15km/h | 26197m | 6.1m/s | -49.7°C | 0.1% | 22.2hPa | 2.7V | 03:31:46 | 01:47:52 | 00:00:00 | |
| DL1XH-west | 2026-09-04 18:17:41 | 49.77999 | 8.79568 | 93° | 13km/h | 26191m | 5.5m/s | -49.8°C | 0.1% | 22.2hPa | 2.7V | 03:31:46 | 01:47:51 | 00:00:00 | |
| HSKMA3-T | 2026-09-04 18:17:40 | 49.78000 | 8.79563 | 104° | 11km/h | 26186m | 4.9m/s | -49.9°C | 0.1% | 22.3hPa | 2.6V | 03:31:46 | 01:47:50 | 00:00:00 | |
| DD1CC8 | 2026-09-04 18:17:40 | 49.78000 | 8.79560 | 106° | 7km/h | 26181m | 5.2m/s | -50.0°C | 0.8% | 22.3hPa | 2.7V | 00:00:00 | 00:00:00 | 00:00:00 | |
| BIOWL9-15 | 2026-09-04 18:17:39 | 49.78001 | 8.79557 | 97° | 5km/h | 26176m | 6.5m/s | -50.1°C | 0.8% | 22.3hPa | 2.7V | 00:00:00 | 00:00:00 | 00:00:00 | |
| DM0DOS-11 | 2026-09-04 18:17:37 | 49.78006 | 8.79544 | 111° | 11km/h | 26142m | 4.4m/s | -50.1°C | 3.2% | 22.4hPa | 2.7V | 03:31:10 | 01:47:42 | 00:00:00 | |
| AA1-15 | 2026-09-04 18:17:35 | 49.78002 | 8.79552 | 132° | 5km/h | 26159m | 6m/s | -50.2°C | 0.2% | 22.4hPa | 2.6V | 03:31:46 | 01:47:45 | 00:00:00 | |
| BIOWL1-15 | 2026-09-04 18:17:31 | 49.78006 | 8.79540 | 84° | 11km/h | 26137m | 5.9m/s | -50.1°C | 0.1% | 22.4hPa | 2.7V | 03:31:46 | 01:47:41 | 00:00:00 | |
| DL1XH-west | 2026-09-04 18:17:30 | 49.78005 | 8.79535 | 64° | 16km/h | 26131m | 6.4m/s | -50.1°C | 0.1% | 22.5hPa | 2.6V | 03:31:46 | 01:47:40 | 00:00:00 | |
| HSKMA3-T | 2026-09-04 18:17:29 | 49.78003 | 8.79528 | 57° | 20km/h | 26125m | 5.8m/s | -50.1°C | 0.1% | 22.5hPa | 2.6V | 03:31:46 | 01:47:39 | 00:00:00 | |
| DL1ZP-14 | 2026-09-04 18:17:28 | 49.78000 | 8.79521 | 57° | 22km/h | 26120m | 5.4m/s | -50.0°C | 0.8% | 22.5hPa | 2.7V | 00:00:00 | 00:00:00 | 00:00:00 | |
| DM0DOS-11 | 2026-09-04 18:17:27 | 49.77988 | 8.79479 | 53° | 11km/h | 26086m | 5.8m/s | -50.2°C | 3.3% | 22.6hPa | 2.7V | 03:31:20 | 01:47:32 | 00:00:00 | |
| DL1XH-15 | 2026-09-04 18:17:27 | 49.77990 | 8.79484 | 66° | 15km/h | 26092m | 6m/s | -50.1°C | 3.3% | 22.6hPa | 2.6V | 03:31:19 | 01:47:33 | 00:00:00 | |
| AA1-15 | 2026-09-04 18:17:24 | 49.77991 | 8.79489 | 73° | 18km/h | 26098m | 4.9m/s | -50.1°C | 0.1% | 22.6hPa | 2.6V | 03:31:46 | 01:47:34 | 00:00:00 | |
| DF8AY | 2026-09-04 18:17:21 | 49.77987 | 8.79477 | 41° | 7km/h | 26081m | 5m/s | 0°C | 0% | 0hPa | 2.7V | 18:12:15 | 01:47:31 | 00:00:00 | |
| DL1XH-west | 2026-09-04 18:17:19 | 49.77986 | 8.79475 | 130° | 2km/h | 26070m | 6m/s | -50.4°C | 0.1% | 22.7hPa | 2.6V | 03:31:46 | 01:47:29 | 00:00:00 | |
| SFWM-10 | 2026-09-04 18:17:18 | 49.77986 | 8.79475 | 131° | 2km/h | 26071m | 6.0m/s | -50.4°C | 0.8% | 22.7hPa | 2.6V | 03:31:00 | 00:00:00 | 00:00:00 | |
| DM0DOS-11 | 2026-09-04 18:17:17 | 49.77981 | 8.79448 | 43° | 26km/h | 26031m | 4.9m/s | -50.8°C | 3.4% | 22.8hPa | 2.6V | 03:31:30 | 01:47:22 | 00:00:00 | |
| AA1-15 | 2026-09-04 18:17:12 | 49.77981 | 8.79448 | 43° | 26km/h | 26031m | 4.9m/s | -50.8°C | 0.1% | 22.8hPa | 2.6V | 03:31:46 | 01:47:22 | 00:00:00 | |
| BIOWL1-15 | 2026-09-04 18:17:10 | 49.77972 | 8.79434 | 51° | 22km/h | 26020m | 5.6m/s | -50.8°C | 0.2% | 22.8hPa | 2.7V | 03:31:46 | 01:47:20 | 00:00:00 | |
| DL1XH-west | 2026-09-04 18:17:09 | 49.77970 | 8.79429 | 59° | 16km/h | 26015m | 5.6m/s | -50.9°C | 0.2% | 22.9hPa | 2.6V | 03:31:46 | 01:47:19 | 00:00:00 | |
| DD1CC8 | 2026-09-04 18:17:09 | 49.77968 | 8.79424 | 64° | 9km/h | 26009m | 4.9m/s | -50.9°C | 0.8% | 22.9hPa | 2.6V | 00:00:00 | 00:00:00 | 00:00:00 | |
| AM1SDL-15 | 2026-09-04 18:17:08 | 49.77968 | 8.79424 | 65° | 9km/h | 26010m | 4.8m/s | -50.8°C | 3.5% | 22.8hPa | 2.6V | 00:00:00 | 01:47:18 | 00:00:00 | |
| BIOWL9-15 | 2026-09-04 18:17:07 | 49.77967 | 8.79421 | 58° | 5km/h | 26004m | 5.4m/s | -50.9°C | 0.8% | 22.9hPa | 2.7V | 00:00:00 | 00:00:00 | 00:00:00 | |
| DL1XH-15 | 2026-09-04 18:17:06 | 49.77962 | 8.79429 | 311° | 5km/h | 25970m | 4.8m/s | -51°C | 3.4% | 23hPa | 2.7V | 03:31:41 | 01:47:11 | 00:00:00 | |
| DF8AY | 2026-09-04 18:17:03 | 49.77963 | 8.79424 | 289° | 7km/h | 25981m | 5.8m/s | 0°C | 0% | 0hPa | 2.6V | 18:12:15 | 01:47:13 | 00:00:00 | |
| AA1-15 | 2026-09-04 18:17:01 | 49.77962 | 8.79429 | 312° | 5km/h | 25970m | 4.8m/s | -51°C | 0.2% | 23hPa | 2.7V | 03:31:46 | 01:47:11 | 00:00:00 | |
| DL1XH-west | 2026-09-04 18:16:59 | 49.77957 | 8.79430 | 6° | 13km/h | 25960m | 6.5m/s | -51°C | 0.2% | 23.1hPa | 2.6V | 03:31:46 | 01:47:09 | 00:00:00 | |
| HSKMA3-T | 2026-09-04 18:16:58 | 49.77954 | 8.79429 | 16° | 18km/h | 25953m | 5.7m/s | -50.9°C | 0.1% | 23.1hPa | 2.6V | 03:31:46 | 01:47:08 | 00:00:00 | |
| DL1ZP-14 | 2026-09-04 18:16:57 | 49.77949 | 8.79426 | 23° | 22km/h | 25948m | 4.4m/s | -50.9°C | 0.8% | 23.1hPa | 2.6V | 00:00:00 | 00:00:00 | 00:00:00 | |
| DO3MHA-11 | 2026-09-04 18:16:56 | 49.77944 | 8.79422 | 32° | 16km/h | 25944m | 4.4m/s | -50.9°C | 3.4% | 23.1hPa | 2.7V | 00:00:00 | 01:47:06 | 00:00:00 | |
| DO2KSM | 2026-09-04 18:16:55 | 49.77944 | 8.79422 | 32° | 22km/h | 25944m | 4.5m/s | -50.9°C | 0.8% | 23.1hPa | 2.7V | 03:31:00 | 00:00:00 | 00:00:00 | |
| DL1XH-15 | 2026-09-04 18:16:54 | 49.77933 | 8.79425 | 301° | 20km/h | 25906m | 5.7m/s | -50.9°C | 3.4% | 23.3hPa | 2.7V | 03:31:53 | 01:46:59 | 00:00:00 | |
| AA1-15 | 2026-09-04 18:16:50 | 49.77935 | 8.79418 | 288° | 16km/h | 25912m | 5.7m/s | -50.9°C | 0.2% | 23.2hPa | 2.7V | 03:33:28 | 01:47:00 | 00:00:00 | |
| DL1XH1-15 | 2026-09-04 18:16:49 | 49.77909 | 8.79444 | 6° | 18km/h | 25879m | 5.3m/s | -51°C | 3.5% | 23.3hPa | 2.7V | 03:31:58 | 01:46:54 | 00:00:00 | |
| BIOWL1-15 | 2026-09-04 18:16:49 | 49.77933 | 8.79425 | 302° | 20km/h | 25906m | 5.7m/s | -50.9°C | 0.2% | 23.3hPa | 2.7V | 03:32:37 | 01:46:59 | 00:00:00 | |
| DL1XH-west | 2026-09-04 18:16:48 | 49.77929 | 8.79431 | 314° | 24km/h | 25901m | 5.1m/s | -51°C | 0.2% | 23.3hPa | 2.6V | 03:32:37 | 01:46:58 | 00:00:00 | |
| HSKMA3-T | 2026-09-04 18:16:47 | 49.77924 | 8.79437 | 326° | 24km/h | 25896m | 5.1m/s | -51°C | 0.2% | 23.3hPa | 2.6V | 03:32:37 | 01:46:57 | 00:00:00 | |
| DL3AQ-11 | 2026-09-04 18:16:47 | 49.77919 | 8.79442 | 338° | 22km/h | 25890m | 5.7m/s | -51.0°C | 0.9% | 23.3hPa | 2.7V | 00:00:00 | 00:00:00 | 00:00:00 | |
| DF8AY | 2026-09-04 18:16:45 | 49.77892 | 8.79435 | 17° | 16km/h | 25858m | 5.3m/s | 0°C | 0% | 0hPa | 2.7V | 18:12:15 | 01:46:50 | 00:00:00 | |
| DO3DL | 2026-09-04 18:16:45 | 49.77914 | 8.79444 | 353° | 20km/h | 25885m | 5.7m/s | -51.0°C | 0.8% | 23.3hPa | 2.6V | 03:32:00 | 00:00:00 | 00:00:00 | |
| DL1KLB | 2026-09-04 18:16:44 | 49.77914 | 8.79444 | 353° | 20km/h | 25885m | 5.7m/s | -51.0°C | 0.8% | 23.3hPa | 2.6V | 03:32:00 | 00:00:00 | 00:00:00 | |
| DL1XH-15 | 2026-09-04 18:16:43 | 49.77885 | 8.79432 | 19° | 11km/h | 25848m | 5m/s | -51.2°C | 3.5% | 23.4hPa | 2.6V | 03:32:04 | 01:46:48 | 00:00:00 | |
| AA1-15 | 2026-09-04 18:16:39 | 49.77889 | 8.79433 | 16° | 15km/h | 25853m | 5m/s | -51.2°C | 0.2% | 23.5hPa | 2.7V | 03:33:28 | 01:46:49 | 00:00:00 | |
| DL1XH1-15 | 2026-09-04 18:16:39 | 49.77879 | 8.79427 | 350° | 5km/h | 25826m | 5.2m/s | -51.2°C | 3.5% | 23.5hPa | 2.6V | 03:32:08 | 01:46:44 | 00:00:00 | |
| BIOWL1-15 | 2026-09-04 18:16:38 | 49.77885 | 8.79432 | 20° | 11km/h | 25848m | 5m/s | -51.2°C | 0.2% | 23.4hPa | 2.6V | 03:32:37 | 01:46:48 | 00:00:00 | |
| DL1XH-west | 2026-09-04 18:16:37 | 49.77883 | 8.79430 | 30° | 9km/h | 25842m | 6.3m/s | -51.2°C | 0.2% | 23.5hPa | 2.6V | 03:32:37 | 01:46:47 | 00:00:00 | |
| HSKMA3-T | 2026-09-04 18:16:36 | 49.77881 | 8.79428 | 39° | 7km/h | 25836m | 5.5m/s | -51.2°C | 0.3% | 23.5hPa | 2.7V | 03:32:37 | 01:46:46 | 00:00:00 | |
| DF8AY | 2026-09-04 18:16:28 | 49.77860 | 8.79431 | 27° | 15km/h | 25791m | 5.3m/s | 0°C | 0% | 0hPa | 2.7V | 18:12:15 | 01:46:38 | 00:00:00 | |
| DO1YAY-16 | 2026-09-04 18:16:28 | 49.77857 | 8.79428 | 29° | 13km/h | 25786m | 5.2m/s | -51.3°C | 0.9% | 23.7hPa | 2.7V | 00:00:00 | 00:00:00 | 00:00:00 | |
| DL1XH-15 | 2026-09-04 18:16:27 | 49.77850 | 8.79424 | 11° | 7km/h | 25769m | 4.7m/s | -51.2°C | 3.5% | 23.8hPa | 2.7V | 03:32:18 | 01:46:34 | 00:00:00 | |
| DM0DOS-11 | 2026-09-04 18:16:27 | 49.77846 | 8.79422 | 28° | 7km/h | 25758m | 6.2m/s | -51.1°C | 3.5% | 23.8hPa | 2.6V | 03:32:20 | 01:46:32 | 00:00:00 | |
| DL1XH-west | 2026-09-04 18:16:27 | 49.77857 | 8.79428 | 30° | 13km/h | 25786m | 5.2m/s | -51.3°C | 0.3% | 23.7hPa | 2.6V | 03:32:37 | 01:46:37 | 00:00:00 | |
| HSKMA3-T | 2026-09-04 18:16:25 | 49.77852 | 8.79425 | 12° | 9km/h | 25774m | 5.6m/s | -51.2°C | 0.2% | 23.7hPa | 2.6V | 03:32:37 | 01:46:35 | 00:00:00 | |
| AM1SDL-15 | 2026-09-04 18:16:24 | 49.77850 | 8.79424 | 12° | 13km/h | 25769m | 4.6m/s | -51.1°C | 3.5% | 23.7hPa | 2.7V | 00:00:00 | 01:46:34 | 00:00:00 | |
| DK5PH-5 | 2026-09-04 18:16:23 | 49.77848 | 8.79423 | 22° | 13km/h | 25764m | 5.7m/s | -51.1°C | 3.5% | 23.7hPa | 2.7V | 00:00:00 | 01:46:33 | 00:00:00 | |
| DF3TZ-5 | 2026-09-04 18:16:22 | 49.77846 | 8.79422 | 28° | 7km/h | 25758m | 6.2m/s | -51.1°C | 0.8% | 23.8hPa | 2.7V | 00:00:00 | 00:00:00 | 00:00:00 | |
| DG1MJG | 2026-09-04 18:16:21 | 49.77846 | 8.79422 | 30° | 9km/h | 25758m | 6.2m/s | -51.1°C | 0% | 23.8hPa | 2.7V | 00:00:00 | 00:00:00 | 00:00:00 | |
| NBG1-10 | 2026-09-04 18:16:20 | 49.77842 | 8.79420 | 4° | 13km/h | 25747m | 5.0m/s | -51.0°C | 3.5% | 23.8hPa | 2.7V | 00:00:00 | 01:46:30 | 00:00:00 | |
| DL1XH1-15 | 2026-09-04 18:16:19 | 49.77821 | 8.79427 | 13° | 13km/h | 25713m | 5.4m/s | -51°C | 3.5% | 23.9hPa | 2.7V | 03:32:28 | 01:46:24 | 00:00:00 | |
| BIOWL1-15 | 2026-09-04 18:16:19 | 49.77832 | 8.79425 | 336° | 16km/h | 25730m | 4.7m/s | -51°C | 0.2% | 23.9hPa | 2.6V | 03:32:37 | 01:46:27 | 00:00:00 | |
| DB0NH | 2026-09-04 18:16:19 | 49.77839 | 8.79420 | 348° | 15km/h | 25742m | 6.6m/s | -51.0°C | 3.5% | 23.8hPa | 2.6V | 00:00:00 | 01:46:29 | 00:00:00 | |
| KANTATE | 2026-09-04 18:16:18 | 49.77839 | 8.79420 | 349° | 13km/h | 25742m | 6.7m/s | -51.0°C | 0.9% | 23.9hPa | 2.6V | 03:32:00 | 00:00:00 | 00:00:00 | |
| DM0DOS-11 | 2026-09-04 18:16:17 | 49.77814 | 8.79424 | 15° | 11km/h | 25702m | 5.6m/s | -51°C | 3.5% | 24hPa | 2.6V | 03:32:30 | 01:46:22 | 00:00:00 | |
| DL1XH-west | 2026-09-04 18:16:16 | 49.77828 | 8.79427 | 343° | 16km/h | 25725m | 5.3m/s | -51.1°C | 0.3% | 23.9hPa | 2.6V | 03:32:37 | 01:46:26 | 00:00:00 | |
| HSKMA3-T | 2026-09-04 18:16:15 | 49.77824 | 8.79428 | 358° | 15km/h | 25719m | 6.3m/s | -51°C | 0.2% | 23.9hPa | 2.6V | 03:32:37 | 01:46:25 | 00:00:00 | |
| AA1-15 | 2026-09-04 18:16:14 | 49.77820 | 8.79427 | 14° | 13km/h | 25713m | 5.4m/s | -51°C | 0.2% | 24hPa | 2.7V | 03:33:28 | 01:46:24 | 00:00:00 | |
| DJ2DS-15 | 2026-09-04 18:16:14 | 49.77820 | 8.79427 | 14° | 13km/h | 25713m | 5.4m/s | -51.0°C | 3.5% | 23.9hPa | 2.6V | 03:32:00 | 01:46:24 | 00:00:00 | |
| DL4BBY-15 | 2026-09-04 18:16:13 | 49.77817 | 8.79426 | 21° | 15km/h | 25708m | 4.9m/s | -51.9°C | 0% | 0hPa | 2.6V | 00:00:00 | 00:00:00 | 00:00:00 | |
| DJ2KF-10 | 2026-09-04 18:16:12 | 49.77814 | 8.79424 | 16° | 15km/h | 25703m | 5.6m/s | -51.0°C | 3.5% | 24.0hPa | 2.6V | 00:00:00 | 01:46:22 | 00:00:00 | |
| HEMX73-11 | 2026-09-04 18:16:10 | 49.77812 | 8.79423 | 5° | 11km/h | 25697m | 5.9m/s | -51.1°C | 0.9% | 24.0hPa | 2.7V | 03:32:00 | 00:00:00 | 00:00:00 | |
| DL1XH1-15 | 2026-09-04 18:16:09 | 49.77794 | 8.79426 | 325° | 15km/h | 25660m | 6.5m/s | -51.2°C | 3.5% | 24.1hPa | 2.7V | 03:32:38 | 01:46:14 | 00:00:00 | |
| DB0UT-7 | 2026-09-04 18:16:09 | 49.77806 | 8.79424 | 356° | 15km/h | 25687m | 4.7m/s | -51.0°C | 3.5% | 24.0hPa | 2.7V | 03:32:00 | 01:46:19 | 00:00:00 | |
| DM0DOS-11 | 2026-09-04 18:16:07 | 49.77788 | 8.79436 | 312° | 20km/h | 25648m | 4.8m/s | -51.1°C | 3.5% | 24.2hPa | 2.7V | 03:32:40 | 01:46:12 | 00:00:00 | |
| DL1XH-west | 2026-09-04 18:16:06 | 49.77799 | 8.79423 | 359° | 9km/h | 25670m | 4.6m/s | -51.1°C | 0.3% | 24.1hPa | 2.6V | 03:32:37 | 01:46:16 | 00:00:00 | |
| AA1-15 | 2026-09-04 18:16:04 | 49.77794 | 8.79426 | 326° | 15km/h | 25660m | 6.5m/s | -51.2°C | 0.3% | 24.2hPa | 2.7V | 03:33:28 | 01:46:14 | 00:00:00 | |
| DL0LBS | 2026-09-04 18:16:03 | 49.77791 | 8.79430 | 317° | 18km/h | 25654m | 5.9m/s | -51.1°C | 0.9% | 24.2hPa | 2.6V | 03:33:00 | 00:00:00 | 00:00:00 | |
| HARRO8 | 2026-09-04 18:16:02 | 49.77784 | 8.79441 | 314° | 16km/h | 25643m | 4.6m/s | -51.1°C | 0.9% | 24.2hPa | 2.6V | 00:00:00 | 00:00:00 | 00:00:00 | |
| AM1SDL-15 | 2026-09-04 18:16:00 | 49.77782 | 8.79445 | 322° | 13km/h | 25638m | 6.0m/s | -51.0°C | 3.4% | 24.2hPa | 2.6V | 00:00:00 | 01:46:10 | 00:00:00 | |
| DL1XH1-15 | 2026-09-04 18:15:59 | 49.77765 | 8.79450 | 331° | 15km/h | 25606m | 4.6m/s | -51.1°C | 3.5% | 24.4hPa | 2.6V | 03:32:48 | 01:46:04 | 00:00:00 | |
| SONDE2-11 | 2026-09-04 18:15:58 | 49.77777 | 8.79448 | 1° | 9km/h | 25627m | 4.8m/s | -51.1°C | 0.8% | 24.3hPa | 2.7V | 00:00:00 | 00:00:00 | 00:00:00 | |
| DM0DOS-11 | 2026-09-04 18:15:57 | 49.77758 | 8.79458 | 314° | 15km/h | 25596m | 5.8m/s | -51.1°C | 3.5% | 24.4hPa | 2.7V | 03:32:50 | 01:46:02 | 00:00:00 | |
| DO3MHA-11 | 2026-09-04 18:15:56 | 49.77771 | 8.79447 | 358° | 16km/h | 25617m | 5.8m/s | -51.0°C | 3.5% | 24.3hPa | 2.6V | 00:00:00 | 01:46:06 | 00:00:00 | |
| DL1XH-15 | 2026-09-04 18:15:55 | 49.77754 | 8.79467 | 298° | 15km/h | 25585m | 4.7m/s | -51.1°C | 3.5% | 24.4hPa | 2.6V | 03:32:52 | 01:46:00 | 00:00:00 | |
| DL1XH-west | 2026-09-04 18:15:55 | 49.77768 | 8.79448 | 343° | 15km/h | 25611m | 5.3m/s | -51.1°C | 0.2% | 24.3hPa | 2.6V | 03:33:28 | 01:46:05 | 00:00:00 | |
| AA1-15 | 2026-09-04 18:15:53 | 49.77762 | 8.79454 | 323° | 16km/h | 25601m | 4.8m/s | -51.1°C | 0.2% | 24.4hPa | 2.7V | 03:33:28 | 01:46:03 | 00:00:00 | |
| DF7PN | 2026-09-04 18:15:51 | 49.77756 | 8.79462 | 307° | 13km/h | 25590m | 5.6m/s | -51.1°C | 0.9% | 24.4hPa | 2.7V | 00:00:00 | 00:00:00 | 00:00:00 | |
| DO3DL | 2026-09-04 18:15:50 | 49.77756 | 8.79462 | 309° | 15km/h | 25590m | 5.6m/s | -51.1°C | 0.9% | 24.4hPa | 2.7V | 03:33:00 | 00:00:00 | 00:00:00 | |
| DL1XH1-15 | 2026-09-04 18:15:49 | 49.77740 | 8.79511 | 297° | 20km/h | 25554m | 5.8m/s | -51.1°C | 3.5% | 24.6hPa | 2.7V | 03:32:58 | 01:45:54 | 00:00:00 | |
| AM1SDL-15 | 2026-09-04 18:15:48 | 49.77750 | 8.79479 | 295° | 18km/h | 25576m | 5.1m/s | -51.1°C | 3.5% | 24.4hPa | 2.6V | 00:00:00 | 01:45:58 | 00:00:00 | |
| DM0DOS-11 | 2026-09-04 18:15:47 | 49.77737 | 8.79521 | 290° | 11km/h | 25543m | 5.1m/s | -51°C | 3.5% | 24.6hPa | 2.6V | 03:33:00 | 01:45:52 | 00:00:00 | |
| DL1XH-west | 2026-09-04 18:15:45 | 49.77742 | 8.79504 | 298° | 24km/h | 25559m | 4.4m/s | -51.1°C | 0.2% | 24.6hPa | 2.6V | 03:33:28 | 01:45:55 | 00:00:00 | |
| DL1XH-15 | 2026-09-04 18:15:45 | 49.77735 | 8.79530 | 289° | 13km/h | 25532m | 5.8m/s | -51°C | 3.5% | 24.7hPa | 2.6V | 03:33:02 | 01:45:50 | 00:00:00 | |
| HSKMA3-T | 2026-09-04 18:15:42 | 49.77737 | 8.79522 | 290° | 11km/h | 25543m | 5.1m/s | -51°C | 0.3% | 24.6hPa | 2.6V | 03:33:28 | 01:45:52 | 00:00:00 | |
| DJ2KF-10 | 2026-09-04 18:15:42 | 49.77737 | 8.79521 | 291° | 18km/h | 25543m | 5.1m/s | -51.0°C | 3.5% | 24.6hPa | 2.6V | 00:00:00 | 01:45:52 | 00:00:00 | |
| DB0NH | 2026-09-04 18:15:41 | 49.77736 | 8.79525 | 289° | 11km/h | 25538m | 4.7m/s | -51.0°C | 3.5% | 24.6hPa | 2.6V | 03:33:00 | 01:45:51 | 00:00:00 | |
| DL3AQ-11 | 2026-09-04 18:15:40 | 49.77734 | 8.79535 | 288° | 16km/h | 25527m | 5.3m/s | -51.0°C | 0.9% | 24.7hPa | 2.6V | 00:00:00 | 00:00:00 | 00:00:00 | |
| DL1XH1-15 | 2026-09-04 18:15:39 | 49.77728 | 8.79570 | 287° | 18km/h | 25501m | 4.4m/s | -50.8°C | 3.4% | 24.8hPa | 2.6V | 03:33:08 | 01:45:44 | 00:00:00 | |
| DB0UT-7 | 2026-09-04 18:15:39 | 49.77734 | 8.79535 | 289° | 16km/h | 25527m | 5.3m/s | -50.9°C | 3.5% | 24.6hPa | 2.7V | 00:00:00 | 00:00:00 | 00:00:00 | |
| DB0ND-19 | 2026-09-04 18:15:38 | 49.77732 | 8.79542 | 287° | 18km/h | 25522m | 4.6m/s | -50.9°C | 0.9% | 24.7hPa | 2.7V | 00:00:00 | 00:00:00 | 00:00:00 | |
| DM0DOS-11 | 2026-09-04 18:15:37 | 49.77724 | 8.79586 | 293° | 24km/h | 25491m | 6.1m/s | -50.9°C | 3.4% | 24.8hPa | 2.7V | 03:33:10 | 01:45:42 | 00:00:00 | |
| DO3MHA-11 | 2026-09-04 18:15:36 | 49.77730 | 8.79556 | 285° | 20km/h | 25512m | 6.0m/s | -50.8°C | 3.5% | 24.7hPa | 2.6V | 00:00:00 | 01:45:46 | 00:00:00 | |
| DL1XH-15 | 2026-09-04 18:15:35 | 49.77719 | 8.79603 | 296° | 24km/h | 25481m | 4.3m/s | -50.9°C | 3.4% | 24.8hPa | 2.6V | 03:33:12 | 01:45:40 | 00:00:00 | |
| DL1XH-west | 2026-09-04 18:15:34 | 49.77727 | 8.79570 | 287° | 18km/h | 25501m | 4.4m/s | -50.8°C | 0.2% | 24.8hPa | 2.6V | 03:33:28 | 01:45:44 | 00:00:00 | |
| HSKMA3-T | 2026-09-04 18:15:32 | 49.77724 | 8.79586 | 293° | 24km/h | 25491m | 6.1m/s | -50.9°C | 0.2% | 24.8hPa | 2.7V | 03:33:28 | 01:45:42 | 00:00:00 | |
| DF2AP-13 | 2026-09-04 18:15:32 | 49.77724 | 8.79586 | 294° | 18km/h | 25491m | 6.0m/s | -50.8°C | 3.4% | 24.8hPa | 2.7V | 00:00:00 | 01:45:42 | 00:00:00 | |
| DO3DL | 2026-09-04 18:15:31 | 49.77721 | 8.79594 | 297° | 26km/h | 25486m | 4.8m/s | -50.9°C | 0.9% | 24.8hPa | 2.6V | 03:33:00 | 00:00:00 | 00:00:00 | |
| HARRO8 | 2026-09-04 18:15:30 | 49.77719 | 8.79603 | 296° | 22km/h | 25481m | 4.3m/s | -50.9°C | 0.8% | 24.8hPa | 2.6V | 00:00:00 | 00:00:00 | 00:00:00 | |
| DL1XH1-15 | 2026-09-04 18:15:29 | 49.77712 | 8.79635 | 277° | 16km/h | 25451m | 5.9m/s | -51°C | 3.5% | 24.9hPa | 2.6V | 03:33:18 | 01:45:34 | 00:00:00 | |
| DF1GD-15 | 2026-09-04 18:15:28 | 49.77716 | 8.79610 | 297° | 20km/h | 25476m | 5.4m/s | -51.0°C | 0.9% | 24.9hPa | 2.7V | 03:33:00 | 00:00:00 | 00:00:00 | |
| DM0DOS-11 | 2026-09-04 18:15:27 | 49.77710 | 8.79650 | 278° | 24km/h | 25440m | 4.5m/s | -51°C | 3.4% | 25hPa | 2.7V | 03:33:20 | 01:45:32 | 00:00:00 | |
| EDDB2-11 | 2026-09-04 18:15:27 | 49.77713 | 8.79625 | 278° | 9km/h | 25461m | 4.4m/s | -51.0°C | 0.9% | 24.9hPa | 2.7V | 00:00:00 | 00:00:00 | 00:00:00 | |
| DO3MHA-11 | 2026-09-04 18:15:26 | 49.77713 | 8.79625 | 279° | 18km/h | 25461m | 4.3m/s | -51.0°C | 3.5% | 24.9hPa | 2.7V | 03:33:00 | 01:45:36 | 00:00:00 | |
| DL1XH-15 | 2026-09-04 18:15:25 | 49.77710 | 8.79668 | 270° | 22km/h | 25430m | 6m/s | -50.9°C | 3.5% | 25.1hPa | 2.6V | 03:33:22 | 01:45:30 | 00:00:00 | |
| DL1XH-west | 2026-09-04 18:15:24 | 49.77712 | 8.79635 | 278° | 16km/h | 25451m | 5.9m/s | -51°C | 0.2% | 24.9hPa | 2.6V | 03:33:28 | 01:45:34 | 00:00:00 | |
| AA1-15 | 2026-09-04 18:15:23 | 49.77711 | 8.79642 | 280° | 20km/h | 25445m | 5.3m/s | -51°C | 0.2% | 25hPa | 2.6V | 03:33:28 | 01:45:33 | 00:00:00 | |
| HSKMA3-T | 2026-09-04 18:15:22 | 49.77710 | 8.79650 | 278° | 24km/h | 25440m | 4.5m/s | -51°C | 0.2% | 25hPa | 2.7V | 03:33:28 | 01:45:32 | 00:00:00 | |
| DK5PH-5 | 2026-09-04 18:15:22 | 49.77710 | 8.79650 | 279° | 18km/h | 25440m | 4.5m/s | -50.9°C | 3.4% | 25.0hPa | 2.6V | 00:00:00 | 01:45:32 | 00:00:00 | |
| DL0LBS | 2026-09-04 18:15:21 | 49.77710 | 8.79650 | 279° | 24km/h | 25440m | 4.5m/s | -51.0°C | 0.9% | 25.0hPa | 2.6V | 03:33:00 | 00:00:00 | 00:00:00 | |
| DF7PN | 2026-09-04 18:15:20 | 49.77709 | 8.79668 | 270° | 20km/h | 25430m | 6.0m/s | -50.9°C | 0.9% | 25.1hPa | 2.6V | 00:00:00 | 00:00:00 | 00:00:00 | |
| DL1XH1-15 | 2026-09-04 18:15:19 | 49.77711 | 8.79709 | 258° | 13km/h | 25400m | 4.5m/s | -51°C | 3.4% | 25.1hPa | 2.6V | 03:33:28 | 01:45:24 | 00:00:00 | |
| BIOWL1-15 | 2026-09-04 18:15:17 | 49.77712 | 8.79714 | 243° | 11km/h | 25394m | 6.2m/s | -51.1°C | 0.2% | 25.2hPa | 2.7V | 03:34:19 | 01:45:23 | 00:00:00 | |
| DL3AQ-11 | 2026-09-04 18:15:16 | 49.77711 | 8.79704 | 266° | 15km/h | 25404m | 4.1m/s | -51.0°C | 0.9% | 25.1hPa | 2.6V | 00:00:00 | 00:00:00 | 00:00:00 | |
| DL1XH-15 | 2026-09-04 18:15:15 | 49.77717 | 8.79726 | 260° | 15km/h | 25374m | 6.2m/s | -51.1°C | 3.4% | 25.3hPa | 2.6V | 03:33:33 | 01:45:19 | 00:00:00 | |
| DM0DOS-11 | 2026-09-04 18:15:14 | 49.77713 | 8.79717 | 222° | 9km/h | 25388m | 5.5m/s | -51.1°C | 3.4% | 25.2hPa | 2.7V | 03:33:30 | 01:45:22 | 00:00:00 | |
| DL1XH-west | 2026-09-04 18:15:14 | 49.77711 | 8.79709 | 259° | 13km/h | 25400m | 4.5m/s | -51°C | 0.1% | 25.1hPa | 2.6V | 03:33:28 | 01:45:24 | 00:00:00 | |
| AA1-15 | 2026-09-04 18:15:12 | 49.77714 | 8.79717 | 223° | 9km/h | 25389m | 5.6m/s | -51.1°C | 0.2% | 25.2hPa | 2.7V | 03:35:10 | 01:45:22 | 00:00:00 | |
| HSKMA3-T | 2026-09-04 18:15:11 | 49.77715 | 8.79719 | 223° | 9km/h | 25383m | 4.2m/s | -51.1°C | 0.2% | 25.2hPa | 2.6V | 03:34:19 | 01:45:21 | 00:00:00 | |
| DO3DL | 2026-09-04 18:15:10 | 49.77715 | 8.79719 | 224° | 9km/h | 25384m | 4.2m/s | -51.1°C | 0.8% | 25.2hPa | 2.6V | 03:34:00 | 00:00:00 | 00:00:00 | |
| DL1XH1-15 | 2026-09-04 18:15:09 | 49.77720 | 8.79765 | 251° | 20km/h | 25347m | 4.6m/s | -51.3°C | 3.5% | 25.4hPa | 2.6V | 03:33:38 | 01:45:14 | 00:00:00 | |
| DB0NH | 2026-09-04 18:15:09 | 49.77717 | 8.79726 | 261° | 16km/h | 25374m | 6.2m/s | -51.1°C | 3.4% | 25.2hPa | 2.6V | 00:00:00 | 01:45:19 | 00:00:00 | |
| DF1GD-15 | 2026-09-04 18:15:08 | 49.77717 | 8.79726 | 262° | 15km/h | 25374m | 6.2m/s | -51.1°C | 0.9% | 25.3hPa | 2.7V | 03:34:00 | 00:00:00 | 00:00:00 | |
| DM0DOS-11 | 2026-09-04 18:15:07 | 49.77724 | 8.79780 | 248° | 22km/h | 25337m | 5.9m/s | -51.4°C | 3.5% | 25.4hPa | 2.7V | 03:33:40 | 01:45:12 | 00:00:00 | |
| DL1XH-west | 2026-09-04 18:15:03 | 49.77722 | 8.79772 | 249° | 22km/h | 25343m | 4.8m/s | -51.4°C | 0.2% | 25.4hPa | 2.7V | 03:34:19 | 01:45:13 | 00:00:00 | |
| BIOWL1-15 | 2026-09-04 18:15:02 | 49.77724 | 8.79780 | 249° | 22km/h | 25337m | 5.9m/s | -51.4°C | 0.2% | 25.4hPa | 2.7V | 03:34:19 | 01:45:12 | 00:00:00 | |
| AA1-15 | 2026-09-04 18:15:01 | 49.77726 | 8.79788 | 246° | 22km/h | 25332m | 4.6m/s | -51.4°C | 0.2% | 25.4hPa | 2.6V | 03:35:10 | 01:45:11 | 00:00:00 | |
| HARRO8 | 2026-09-04 18:14:59 | 49.77731 | 8.79802 | 227° | 16km/h | 25324m | 4.6m/s | -51.5°C | 0.9% | 25.5hPa | 2.6V | 00:00:00 | 00:00:00 | 00:00:00 | |
| DM0DOS-11 | 2026-09-04 18:14:57 | 49.77750 | 8.79822 | 269° | 18km/h | 25288m | 4.9m/s | -51.8°C | 3.6% | 25.6hPa | 2.6V | 03:33:50 | 01:45:02 | 00:00:00 | |
| DL1XH-west | 2026-09-04 18:14:52 | 49.77750 | 8.79822 | 269° | 18km/h | 25288m | 4.9m/s | -51.8°C | 0.3% | 25.6hPa | 2.6V | 03:34:19 | 01:45:02 | 00:00:00 | |
| HSKMA3-T | 2026-09-04 18:14:50 | 49.77749 | 8.79836 | 269° | 18km/h | 25279m | 4.6m/s | -51.7°C | 0.3% | 25.6hPa | 2.6V | 03:34:19 | 01:45:00 | 00:00:00 | |
| DL1XH1-15 | 2026-09-04 18:14:49 | 49.77762 | 8.79860 | 213° | 13km/h | 25249m | 5.2m/s | -51.7°C | 3.6% | 25.7hPa | 2.7V | 03:33:58 | 01:44:54 | 00:00:00 | |
| DF1GD-15 | 2026-09-04 18:14:48 | 49.77749 | 8.79843 | 261° | 16km/h | 25274m | 5.5m/s | -51.7°C | 0.9% | 25.7hPa | 2.6V | 03:34:00 | 00:00:00 | 00:00:00 | |
| DM0DOS-11 | 2026-09-04 18:14:47 | 49.77766 | 8.79865 | 216° | 9km/h | 25240m | 4.5m/s | -51.7°C | 3.6% | 25.8hPa | 2.6V | 03:34:00 | 01:44:52 | 00:00:00 | |
| DL3AQ-11 | 2026-09-04 18:14:47 | 49.77756 | 8.79855 | 206° | 13km/h | 25260m | 4.4m/s | -51.7°C | 0.9% | 25.7hPa | 2.6V | 00:00:00 | 00:00:00 | 00:00:00 | |
| BIOWL1-15 | 2026-09-04 18:14:44 | 49.77767 | 8.79865 | 217° | 9km/h | 25240m | 4.5m/s | -51.7°C | 0.2% | 25.8hPa | 2.6V | 03:34:19 | 01:44:52 | 00:00:00 | |
| DL1XH-west | 2026-09-04 18:14:41 | 49.77768 | 8.79867 | 200° | 7km/h | 25235m | 5m/s | -51.7°C | 0.3% | 25.8hPa | 2.6V | 03:34:19 | 01:44:51 | 00:00:00 | |
| HSKMA3-T | 2026-09-04 18:14:39 | 49.77770 | 8.79866 | 113° | 5km/h | 25224m | 5.1m/s | -51.7°C | 0.3% | 25.9hPa | 2.7V | 03:34:19 | 01:44:49 | 00:00:00 | |
| BIOWL1-15 | 2026-09-04 18:14:31 | 49.77771 | 8.79873 | 198° | 7km/h | 25184m | 4.3m/s | -51.6°C | 0.3% | 26hPa | 2.6V | 03:34:19 | 01:44:41 | 00:00:00 | |
| DL1XH-west | 2026-09-04 18:14:30 | 49.77774 | 8.79874 | 202° | 9km/h | 25180m | 5.3m/s | -51.6°C | 0.3% | 26hPa | 2.6V | 03:34:19 | 01:44:40 | 00:00:00 | |
| DM3KS-11 | 2026-09-04 18:14:30 | 49.77774 | 8.79874 | 201° | 9km/h | 25180m | 5.3m/s | -51.6°C | 0.9% | 26.0hPa | 2.6V | 00:00:00 | 00:00:00 | 00:00:00 | |
| DL1XH1-15 | 2026-09-04 18:14:29 | 49.77776 | 8.79873 | 41° | 11km/h | 25149m | 4.6m/s | -51.6°C | 3.6% | 26.2hPa | 2.6V | 03:34:18 | 01:44:34 | 00:00:00 | |
| AA1-15 | 2026-09-04 18:14:28 | 49.77777 | 8.79878 | 210° | 7km/h | 25169m | 4.3m/s | -51.6°C | 0.3% | 26.1hPa | 2.7V | 03:35:10 | 01:44:38 | 00:00:00 | |
| DF1GD-15 | 2026-09-04 18:14:27 | 49.77777 | 8.79877 | 211° | 7km/h | 25169m | 4.3m/s | -51.6°C | 0.9% | 26.1hPa | 2.6V | 03:34:00 | 00:00:00 | 00:00:00 | |
| DO3MHA-11 | 2026-09-04 18:14:26 | 49.77779 | 8.79877 | 87° | 7km/h | 25159m | 5.9m/s | -51.5°C | 3.6% | 26.1hPa | 2.6V | 00:00:00 | 01:44:36 | 00:00:00 | |
| DL1XH-15 | 2026-09-04 18:14:25 | 49.77767 | 8.79875 | 282° | 5km/h | 25124m | 5.4m/s | -51.6°C | 3.6% | 26.2hPa | 2.6V | 03:34:23 | 01:44:29 | 00:00:00 | |
| BIOWL1-15 | 2026-09-04 18:14:21 | 49.77769 | 8.79871 | 330° | 9km/h | 25134m | 4.3m/s | -51.6°C | 0.3% | 26.2hPa | 2.6V | 03:35:10 | 01:44:31 | 00:00:00 | |
| DL0LBS | 2026-09-04 18:14:20 | 49.77769 | 8.79871 | 331° | 9km/h | 25134m | 4.3m/s | -51.6°C | 0.9% | 26.2hPa | 2.7V | 03:35:00 | 00:00:00 | 00:00:00 | |
| DL1XH1-15 | 2026-09-04 18:14:19 | 49.77776 | 8.79880 | 209° | 7km/h | 25097m | 4.3m/s | -51.6°C | 3.6% | 26.4hPa | 2.7V | 03:34:28 | 01:44:24 | 00:00:00 | |
| DL1XH-west | 2026-09-04 18:14:19 | 49.77767 | 8.79875 | 282° | 5km/h | 25124m | 5.4m/s | -51.6°C | 0.3% | 26.3hPa | 2.6V | 03:35:10 | 01:44:29 | 00:00:00 | |
| HSKMA3-T | 2026-09-04 18:14:18 | 49.77767 | 8.79876 | 219° | 4km/h | 25119m | 6m/s | -51.6°C | 0.2% | 26.3hPa | 2.7V | 03:35:10 | 01:44:28 | 00:00:00 | |
| AA1-15 | 2026-09-04 18:14:17 | 49.77769 | 8.79877 | 193° | 7km/h | 25113m | 5.4m/s | -51.6°C | 0.3% | 26.3hPa | 2.7V | 03:35:10 | 01:44:27 | 00:00:00 | |
| DO3MHA-11 | 2026-09-04 18:14:16 | 49.77771 | 8.79878 | 192° | 9km/h | 25108m | 5.2m/s | -51.6°C | 3.6% | 26.3hPa | 2.6V | 00:00:00 | 01:44:26 | 00:00:00 | |
| DM0DOS-11 | 2026-09-04 18:14:14 | 49.77777 | 8.79882 | 35° | 2km/h | 25089m | 5.2m/s | -51.5°C | 3.6% | 26.4hPa | 2.6V | 03:34:30 | 01:44:22 | 00:00:00 | |
| BIOWL1-15 | 2026-09-04 18:14:10 | 49.77774 | 8.79879 | 29° | 13km/h | 25078m | 4.6m/s | -51.5°C | 0.3% | 26.5hPa | 2.6V | 03:35:10 | 01:44:20 | 00:00:00 | |
| DL1XH-west | 2026-09-04 18:14:08 | 49.77767 | 8.79876 | 4° | 13km/h | 25069m | 5.4m/s | -51.5°C | 0.3% | 26.5hPa | 2.7V | 03:35:10 | 01:44:18 | 00:00:00 | |
| HSKMA3-T | 2026-09-04 18:14:07 | 49.77764 | 8.79876 | 344° | 13km/h | 25064m | 5.4m/s | -51.5°C | 0.3% | 26.5hPa | 2.7V | 03:35:10 | 01:44:17 | 00:00:00 | |
| AA1-15 | 2026-09-04 18:14:06 | 49.77762 | 8.79878 | 327° | 11km/h | 25059m | 4.7m/s | -51.4°C | 0.3% | 26.5hPa | 2.7V | 03:35:10 | 01:44:16 | 00:00:00 | |
| DO3MHA-11 | 2026-09-04 18:14:06 | 49.77762 | 8.79878 | 328° | 5km/h | 25059m | 4.6m/s | -51.4°C | 3.6% | 26.5hPa | 2.6V | 03:34:00 | 01:44:16 | 00:00:00 | |
| DB0ND-19 | 2026-09-04 18:14:05 | 49.77760 | 8.79880 | 313° | 5km/h | 25054m | 4.9m/s | -51.4°C | 0.9% | 26.5hPa | 2.6V | 00:00:00 | 00:00:00 | 00:00:00 | |
| DM0DOS-11 | 2026-09-04 18:14:04 | 49.77760 | 8.79882 | 184° | 4km/h | 25039m | 3.7m/s | -51.4°C | 3.6% | 26.6hPa | 2.6V | 03:34:40 | 01:44:12 | 00:00:00 | |
| BIOWL1-15 | 2026-09-04 18:14:02 | 49.77761 | 8.79884 | 238° | 4km/h | 25030m | 5.6m/s | -51.3°C | 0.3% | 26.6hPa | 2.7V | 03:35:10 | 01:44:10 | 00:00:00 | |
| DL1XH-west | 2026-09-04 18:13:58 | 49.77760 | 8.79888 | 314° | 7km/h | 25021m | 4m/s | -51.2°C | 0.3% | 26.7hPa | 2.6V | 03:35:10 | 01:44:08 | 00:00:00 | |
| HSKMA3-T | 2026-09-04 18:13:56 | 49.77756 | 8.79889 | 13° | 11km/h | 25011m | 5.8m/s | -51.2°C | 0.2% | 26.7hPa | 2.6V | 03:35:10 | 01:44:06 | 00:00:00 | |
| AA1-15 | 2026-09-04 18:13:55 | 49.77753 | 8.79887 | 25° | 16km/h | 25005m | 5.5m/s | -51.1°C | 0.2% | 26.7hPa | 2.6V | 03:35:10 | 01:44:05 | 00:00:00 | |
| SONDE2-11 | 2026-09-04 18:13:54 | 49.77744 | 8.79881 | 21° | 20km/h | 24995m | 5.1m/s | -51.1°C | 0.9% | 26.8hPa | 2.6V | 00:00:00 | 00:00:00 | 00:00:00 | |
| EDDB2-11 | 2026-09-04 18:13:53 | 49.77744 | 8.79881 | 21° | 20km/h | 24995m | 5.1m/s | -51.1°C | 0.9% | 26.8hPa | 2.6V | 00:00:00 | 00:00:00 | 00:00:00 | |
| DO1YAY-16 | 2026-09-04 18:13:52 | 49.77739 | 8.79878 | 11° | 20km/h | 24991m | 5.0m/s | -51.0°C | 0.9% | 26.8hPa | 2.6V | 00:00:00 | 00:00:00 | 00:00:00 | |
| DL1ZP-14 | 2026-09-04 18:13:51 | 49.77730 | 8.79878 | 341° | 11km/h | 24983m | 3.1m/s | -50.9°C | 0.9% | 26.8hPa | 2.6V | 00:00:00 | 00:00:00 | 00:00:00 | |
| DO3DL | 2026-09-04 18:13:50 | 49.77734 | 8.79877 | 359° | 16km/h | 24986m | 3.7m/s | -51.0°C | 0.9% | 26.8hPa | 2.6V | 03:35:00 | 00:00:00 | 00:00:00 | |
| DL1XH1-15 | 2026-09-04 18:13:49 | 49.77730 | 8.79891 | 285° | 9km/h | 24952m | 4.8m/s | -50.8°C | 3.5% | 27hPa | 2.6V | 03:34:58 | 01:43:54 | 00:00:00 | |
| BIOWL1-15 | 2026-09-04 18:13:49 | 49.77728 | 8.79880 | 322° | 7km/h | 24978m | 5m/s | -50.9°C | 0.2% | 26.9hPa | 2.6V | 03:35:10 | 01:43:59 | 00:00:00 | |
| DL1XH-west | 2026-09-04 18:13:48 | 49.77728 | 8.79882 | 274° | 4km/h | 24973m | 6m/s | -50.9°C | 0.2% | 26.9hPa | 2.7V | 03:35:10 | 01:43:58 | 00:00:00 | |
| HSKMA3-T | 2026-09-04 18:13:46 | 49.77729 | 8.79885 | 234° | 7km/h | 24963m | 4.4m/s | -50.8°C | 0.2% | 26.9hPa | 2.6V | 03:35:10 | 01:43:56 | 00:00:00 | |
| AA1-15 | 2026-09-04 18:13:45 | 49.77730 | 8.79888 | 256° | 9km/h | 24958m | 5.3m/s | -50.8°C | 0.2% | 26.9hPa | 2.6V | 03:35:10 | 01:43:55 | 00:00:00 | |
| DO3DL | 2026-09-04 18:13:44 | 49.77730 | 8.79888 | 257° | 9km/h | 24958m | 5.3m/s | -50.8°C | 0.9% | 26.9hPa | 2.7V | 03:35:00 | 00:00:00 | 00:00:00 | |
| DM0DOS-11 | 2026-09-04 18:13:43 | 49.77726 | 8.79896 | 340° | 11km/h | 24944m | 4.3m/s | -50.8°C | 3.5% | 27hPa | 2.7V | 03:35:00 | 01:43:52 | 00:00:00 | |
| BIOWL1-15 | 2026-09-04 18:13:41 | 49.77717 | 8.79894 | 26° | 15km/h | 24928m | 4.2m/s | -50.9°C | 0.2% | 27.1hPa | 2.6V | 03:35:10 | 01:43:49 | 00:00:00 | |
| DL3AQ-11 | 2026-09-04 18:13:40 | 49.77717 | 8.79894 | 25° | 15km/h | 24928m | 4.2m/s | -50.9°C | 0.9% | 27.1hPa | 2.6V | 00:00:00 | 00:00:00 | 00:00:00 | |
| DL1XH1-15 | 2026-09-04 18:13:39 | 49.77699 | 8.79898 | 313° | 16km/h | 24904m | 4.4m/s | -50.8°C | 3.5% | 27.2hPa | 2.6V | 03:35:08 | 01:43:44 | 00:00:00 | |
| DL1XH-west | 2026-09-04 18:13:37 | 49.77710 | 8.79891 | 6° | 15km/h | 24920m | 5m/s | -50.8°C | 0.2% | 27.1hPa | 2.6V | 03:35:10 | 01:43:47 | 00:00:00 | |
| DO3MHA-11 | 2026-09-04 18:13:36 | 49.77706 | 8.79891 | 346° | 11km/h | 24915m | 5.3m/s | -50.8°C | 3.5% | 27.1hPa | 2.7V | 00:00:00 | 01:43:46 | 00:00:00 | |
| NBG1-10 | 2026-09-04 18:13:35 | 49.77702 | 8.79894 | 326° | 13km/h | 24909m | 4.9m/s | -50.8°C | 3.5% | 27.1hPa | 2.7V | 00:00:00 | 01:43:45 | 00:00:00 | |
| AA1-15 | 2026-09-04 18:13:35 | 49.77702 | 8.79894 | 326° | 16km/h | 24909m | 5m/s | -50.8°C | 0.3% | 27.1hPa | 2.7V | 03:35:10 | 01:43:45 | 00:00:00 | |
| DJ2DS-15 | 2026-09-04 18:13:34 | 49.77699 | 8.79898 | 314° | 13km/h | 24905m | 4.4m/s | -50.8°C | 3.5% | 27.1hPa | 2.6V | 03:35:00 | 01:43:44 | 00:00:00 | |
| DL1XH-15 | 2026-09-04 18:13:32 | 49.77697 | 8.79918 | 283° | 7km/h | 24870m | 4.6m/s | -51.1°C | 3.5% | 27.3hPa | 2.6V | 03:35:15 | 01:43:37 | 00:00:00 | |
| DF2AP-13 | 2026-09-04 18:13:32 | 49.77695 | 8.79907 | 290° | 15km/h | 24895m | 5.8m/s | -50.8°C | 3.5% | 27.2hPa | 2.6V | 00:00:00 | 01:43:42 | 00:00:00 | |
| DD1CC8 | 2026-09-04 18:13:31 | 49.77695 | 8.79910 | 264° | 5km/h | 24889m | 5.1m/s | -50.8°C | 0.9% | 27.2hPa | 2.6V | 00:00:00 | 00:00:00 | 00:00:00 | |
| BIOWL9-15 | 2026-09-04 18:13:30 | 49.77696 | 8.79912 | 235° | 4km/h | 24884m | 4.1m/s | -50.9°C | 0.9% | 27.3hPa | 2.6V | 00:00:00 | 00:00:00 | 00:00:00 | |
| DL1XH1-15 | 2026-09-04 18:13:29 | 49.77692 | 8.79923 | 357° | 11km/h | 24855m | 5.7m/s | -51°C | 3.5% | 27.4hPa | 2.6V | 03:35:18 | 01:43:34 | 00:00:00 | |
| BIOWL1-15 | 2026-09-04 18:13:28 | 49.77697 | 8.79916 | 256° | 5km/h | 24875m | 5.6m/s | -51°C | 0.3% | 27.3hPa | 2.6V | 03:36:01 | 01:43:38 | 00:00:00 | |
| DL1XH-west | 2026-09-04 18:13:26 | 49.77696 | 8.79920 | 311° | 7km/h | 24865m | 4.2m/s | -51.1°C | 0.2% | 27.3hPa | 2.7V | 03:36:01 | 01:43:36 | 00:00:00 | |
| AA1-15 | 2026-09-04 18:13:24 | 49.77692 | 8.79923 | 357° | 11km/h | 24855m | 5.7m/s | -51°C | 0.2% | 27.4hPa | 2.6V | 03:36:01 | 01:43:34 | 00:00:00 | |
| DC4HF-4 | 2026-09-04 18:13:23 | 49.77685 | 8.79923 | 348° | 15km/h | 24845m | 3.9m/s | -51.0°C | 0.9% | 27.4hPa | 2.7V | 00:00:00 | 00:00:00 | 00:00:00 | |
| EDDB2-11 | 2026-09-04 18:13:22 | 49.77685 | 8.79923 | 348° | 15km/h | 24845m | 3.9m/s | -51.0°C | 0.9% | 27.4hPa | 2.7V | 00:00:00 | 00:00:00 | 00:00:00 | |
| DB0UT-9 | 2026-09-04 18:13:21 | 49.77682 | 8.79925 | 334° | 18km/h | 24841m | 4.7m/s | -51.0°C | 0.9% | 27.5hPa | 2.7V | 00:00:00 | 00:00:00 | 00:00:00 | |
| DL1XH1-15 | 2026-09-04 18:13:19 | 49.77664 | 8.79967 | 275° | 7km/h | 24804m | 4.9m/s | -50.7°C | 3.5% | 27.6hPa | 2.7V | 03:35:28 | 01:43:24 | 00:00:00 | |
| DL0LBS | 2026-09-04 18:13:18 | 49.77674 | 8.79936 | 308° | 24km/h | 24830m | 5.1m/s | -50.9°C | 0.9% | 27.5hPa | 2.7V | 03:36:00 | 00:00:00 | 00:00:00 | |
| DL1XH-15 | 2026-09-04 18:13:17 | 49.77665 | 8.79963 | 284° | 11km/h | 24809m | 5.3m/s | -50.8°C | 3.5% | 27.6hPa | 2.7V | 03:35:27 | 01:43:25 | 00:00:00 | |
| BIOWL1-15 | 2026-09-04 18:13:17 | 49.77668 | 8.79952 | 295° | 22km/h | 24820m | 5.3m/s | -50.9°C | 0.2% | 27.5hPa | 2.6V | 03:36:01 | 01:43:27 | 00:00:00 | |
| DL1XH-west | 2026-09-04 18:13:15 | 49.77665 | 8.79964 | 285° | 11km/h | 24809m | 5.3m/s | -50.8°C | 0.2% | 27.6hPa | 2.7V | 03:36:01 | 01:43:25 | 00:00:00 | |
| AA1-15 | 2026-09-04 18:13:14 | 49.77664 | 8.79967 | 276° | 7km/h | 24804m | 4.9m/s | -50.7°C | 0.2% | 27.6hPa | 2.7V | 03:36:01 | 01:43:24 | 00:00:00 | |
| DM0DOS-11 | 2026-09-04 18:13:13 | 49.77664 | 8.79973 | 280° | 7km/h | 24793m | 5.4m/s | -50.7°C | 3.5% | 27.6hPa | 2.6V | 03:35:30 | 01:43:22 | 00:00:00 | |
| HSKMA3-T | 2026-09-04 18:13:13 | 49.77664 | 8.79970 | 276° | 7km/h | 24799m | 5.8m/s | -50.7°C | 0.2% | 27.6hPa | 2.6V | 03:36:01 | 01:43:23 | 00:00:00 | |
| DL4BBY-15 | 2026-09-04 18:13:13 | 49.77664 | 8.79970 | 276° | 16km/h | 24798m | 5.7m/s | -51.6°C | 0% | 0hPa | 2.7V | 00:00:00 | 00:00:00 | 00:00:00 | |
| DH7VM-15 | 2026-09-04 18:13:11 | 49.77663 | 8.79976 | 292° | 7km/h | 24788m | 4.1m/s | -50.7°C | 0.9% | 27.7hPa | 2.7V | 00:00:00 | 00:00:00 | 00:00:00 | |
| DO3DL | 2026-09-04 18:13:10 | 49.77663 | 8.79976 | 292° | 7km/h | 24788m | 4.1m/s | -50.7°C | 0.9% | 27.7hPa | 2.7V | 03:36:00 | 00:00:00 | 00:00:00 | |
| DL1XH1-15 | 2026-09-04 18:13:09 | 49.77652 | 8.80008 | 283° | 29km/h | 24753m | 4.8m/s | -50.5°C | 3.4% | 27.8hPa | 2.7V | 03:35:38 | 01:43:14 | 00:00:00 | |
| DB0UT-7 | 2026-09-04 18:13:09 | 49.77661 | 8.79981 | 317° | 18km/h | 24779m | 5.8m/s | -50.6°C | 3.5% | 27.7hPa | 2.6V | 00:00:00 | 01:43:19 | 00:00:00 | |
| DJ2KF-10 | 2026-09-04 18:13:08 | 49.77660 | 8.79983 | 320° | 18km/h | 24774m | 5.0m/s | -50.6°C | 3.4% | 27.7hPa | 2.6V | 03:35:00 | 01:43:18 | 00:00:00 | |
| DL1XH-15 | 2026-09-04 18:13:07 | 49.77650 | 8.80019 | 276° | 29km/h | 24749m | 3.6m/s | -50.5°C | 3.4% | 27.8hPa | 2.6V | 03:35:39 | 01:43:13 | 00:00:00 | |
| DM0DOS-11 | 2026-09-04 18:13:07 | 49.77650 | 8.80030 | 267° | 27km/h | 24745m | 4.8m/s | -50.4°C | 3.4% | 27.8hPa | 2.6V | 03:35:40 | 01:43:12 | 00:00:00 | |
| BIOWL1-15 | 2026-09-04 18:13:07 | 49.77658 | 8.79986 | 311° | 13km/h | 24769m | 4.1m/s | -50.6°C | 0.2% | 27.7hPa | 2.6V | 03:36:01 | 01:43:17 | 00:00:00 | |
| DL1XH-west | 2026-09-04 18:13:04 | 49.77652 | 8.80008 | 283° | 29km/h | 24753m | 4.8m/s | -50.5°C | 0.2% | 27.8hPa | 2.7V | 03:36:01 | 01:43:14 | 00:00:00 | |
| AA1-15 | 2026-09-04 18:13:03 | 49.77651 | 8.80019 | 276° | 31km/h | 24749m | 3.6m/s | -50.5°C | 0.2% | 27.8hPa | 2.6V | 03:36:01 | 01:43:13 | 00:00:00 | |
| DB0NH | 2026-09-04 18:13:03 | 49.77651 | 8.80019 | 277° | 26km/h | 24749m | 3.6m/s | -50.4°C | 3.4% | 27.8hPa | 2.6V | 00:00:00 | 01:43:13 | 00:00:00 | |
| BIOWL9-15 | 2026-09-04 18:13:00 | 49.77655 | 8.80052 | 232° | 13km/h | 24729m | 4.8m/s | -50.4°C | 0.9% | 27.9hPa | 2.6V | 00:00:00 | 00:00:00 | 00:00:00 | |
| AM1SDL-15 | 2026-09-04 18:12:59 | 49.77655 | 8.80052 | 233° | 16km/h | 24729m | 4.7m/s | -50.4°C | 3.4% | 27.9hPa | 2.6V | 00:00:00 | 01:43:09 | 00:00:00 | |
| DL1XH1-15 | 2026-09-04 18:12:59 | 49.77658 | 8.80074 | 275° | 20km/h | 24704m | 4.6m/s | -50.5°C | 3.4% | 28hPa | 2.6V | 03:35:48 | 01:43:04 | 00:00:00 | |
| DL1KLB | 2026-09-04 18:12:58 | 49.77655 | 8.80052 | 233° | 13km/h | 24729m | 4.8m/s | -50.4°C | 0.9% | 27.9hPa | 2.6V | 03:36:00 | 00:00:00 | 00:00:00 | |
| DM0DOS-11 | 2026-09-04 18:12:57 | 49.77657 | 8.80091 | 266° | 22km/h | 24694m | 5.5m/s | -50.5°C | 3.4% | 28.1hPa | 2.6V | 03:35:50 | 01:43:02 | 00:00:00 | |
| BIOWL1-15 | 2026-09-04 18:12:56 | 49.77658 | 8.80062 | 266° | 11km/h | 24715m | 5.6m/s | -50.5°C | 0.2% | 28hPa | 2.7V | 03:36:01 | 01:43:06 | 00:00:00 | |
| DL1XH-west | 2026-09-04 18:12:54 | 49.77658 | 8.80074 | 275° | 20km/h | 24704m | 4.6m/s | -50.5°C | 0.2% | 28hPa | 2.6V | 03:36:01 | 01:43:04 | 00:00:00 | |
| HSKMA3-T | 2026-09-04 18:12:53 | 49.77657 | 8.80082 | 274° | 22km/h | 24699m | 4.6m/s | -50.5°C | 0.2% | 28.1hPa | 2.6V | 03:36:01 | 01:43:03 | 00:00:00 | |
| AA1-15 | 2026-09-04 18:12:52 | 49.77657 | 8.80091 | 267° | 22km/h | 24695m | 5.5m/s | -50.5°C | 0.2% | 28.1hPa | 2.6V | 03:36:01 | 01:43:02 | 00:00:00 | |
| SONDE2-11 | 2026-09-04 18:12:52 | 49.77658 | 8.80099 | 259° | 20km/h | 24689m | 5.6m/s | -50.5°C | 0.9% | 28.1hPa | 2.6V | 00:00:00 | 00:00:00 | 00:00:00 | |
| EDDB2-11 | 2026-09-04 18:12:51 | 49.77658 | 8.80099 | 259° | 20km/h | 24689m | 5.6m/s | -50.5°C | -1.0% | 28.1hPa | 2.6V | 00:00:00 | 00:00:00 | 00:00:00 | |
| DO1YAY-16 | 2026-09-04 18:12:50 | 49.77659 | 8.80107 | 252° | 20km/h | 24684m | 5.3m/s | -50.5°C | 0.9% | 28.1hPa | 2.6V | 00:00:00 | 00:00:00 | 00:00:00 | |
| DL1XH1-15 | 2026-09-04 18:12:49 | 49.77667 | 8.80152 | 243° | 16km/h | 24653m | 5.3m/s | -50.3°C | 3.4% | 28.3hPa | 2.6V | 03:35:58 | 01:42:54 | 00:00:00 | |
| DL1ZP-14 | 2026-09-04 18:12:48 | 49.77662 | 8.80123 | 254° | 20km/h | 24673m | 5.7m/s | -50.4°C | 0.9% | 28.2hPa | 2.6V | 00:00:00 | 00:00:00 | 00:00:00 | |
| DM0DOS-11 | 2026-09-04 18:12:47 | 49.77673 | 8.80161 | 214° | 18km/h | 24641m | 5m/s | -50.3°C | 3.4% | 28.3hPa | 2.6V | 03:36:00 | 01:42:52 | 00:00:00 | |
| BIOWL1-15 | 2026-09-04 18:12:45 | 49.77665 | 8.80146 | 255° | 18km/h | 24658m | 4.3m/s | -50.4°C | 0.2% | 28.2hPa | 2.7V | 03:36:01 | 01:42:55 | 00:00:00 | |
| DL1XH-west | 2026-09-04 18:12:43 | 49.77669 | 8.80157 | 225° | 16km/h | 24647m | 6.3m/s | -50.3°C | 0.1% | 28.3hPa | 2.6V | 03:36:01 | 01:42:53 | 00:00:00 | |
| HSKMA3-T | 2026-09-04 18:12:42 | 49.77673 | 8.80161 | 214° | 18km/h | 24641m | 5m/s | -50.3°C | 0.2% | 28.3hPa | 2.6V | 03:36:01 | 01:42:52 | 00:00:00 | |
| AA1-15 | 2026-09-04 18:12:41 | 49.77677 | 8.80166 | 217° | 18km/h | 24637m | 4.2m/s | -50.3°C | 0.1% | 28.3hPa | 2.7V | 03:36:01 | 01:42:51 | 00:00:00 | |
| DB0UT-7 | 2026-09-04 18:12:39 | 49.77683 | 8.80176 | 241° | 24km/h | 24626m | 6.2m/s | -50.2°C | 3.3% | 28.3hPa | 2.6V | 00:00:00 | 00:00:00 | 00:00:00 | |
| DL1KLB | 2026-09-04 18:12:38 | 49.77683 | 8.80176 | 241° | 20km/h | 24626m | 6.3m/s | -50.3°C | 0.8% | 28.4hPa | 2.6V | 03:36:00 | 00:00:00 | 00:00:00 | |
| DL1XH-15 | 2026-09-04 18:12:37 | 49.77690 | 8.80205 | 242° | 20km/h | 24604m | 5.3m/s | -50.3°C | 3.4% | 28.5hPa | 2.6V | 03:36:07 | 01:42:45 | 00:00:00 | |
| BIOWL1-15 | 2026-09-04 18:12:37 | 49.77690 | 8.80205 | 242° | 20km/h | 24604m | 5.3m/s | -50.3°C | 0.2% | 28.5hPa | 2.6V | 03:37:43 | 01:42:45 | 00:00:00 | |
| DJ2DS-15 | 2026-09-04 18:12:37 | 49.77688 | 8.80198 | 248° | 18km/h | 24610m | 6.2m/s | -50.3°C | 0.9% | 28.4hPa | 2.6V | 00:00:00 | 00:00:00 | 00:00:00 | |
| DO3MHA-11 | 2026-09-04 18:12:36 | 49.77688 | 8.80198 | 249° | 24km/h | 24610m | 6.1m/s | -50.3°C | 3.4% | 28.4hPa | 2.6V | 00:00:00 | 01:42:46 | 00:00:00 | |
| AM1SDL-15 | 2026-09-04 18:12:35 | 49.77690 | 8.80205 | 243° | 26km/h | 24604m | 5.3m/s | -50.3°C | 3.4% | 28.4hPa | 2.6V | 03:36:00 | 01:42:45 | 00:00:00 | |
| DM0DOS-11 | 2026-09-04 18:12:34 | 49.77699 | 8.80227 | 236° | 24km/h | 24588m | 6m/s | -50.4°C | 3.4% | 28.5hPa | 2.6V | 03:36:10 | 01:42:42 | 00:00:00 | |
| DL1XH-west | 2026-09-04 18:12:33 | 49.77696 | 8.80219 | 237° | 22km/h | 24594m | 5.2m/s | -50.4°C | 0.2% | 28.5hPa | 2.6V | 03:36:52 | 01:42:43 | 00:00:00 | |
| HSKMA3-T | 2026-09-04 18:12:31 | 49.77703 | 8.80235 | 231° | 26km/h | 24583m | 4.7m/s | -50.4°C | 0.2% | 28.6hPa | 2.7V | 03:36:52 | 01:42:41 | 00:00:00 | |
| AA1-15 | 2026-09-04 18:12:30 | 49.77707 | 8.80242 | 222° | 27km/h | 24578m | 4.7m/s | -50.5°C | 0.2% | 28.6hPa | 2.7V | 03:36:52 | 01:42:40 | 00:00:00 | |
| NBG1-10 | 2026-09-04 18:12:29 | 49.77713 | 8.80248 | 213° | 22km/h | 24573m | 6.0m/s | -50.4°C | 3.4% | 28.6hPa | 2.6V | 00:00:00 | 01:42:39 | 00:00:00 | |
| BIOWL9-15 | 2026-09-04 18:12:28 | 49.77719 | 8.80253 | 202° | 27km/h | 24567m | 5.6m/s | -50.5°C | 0.8% | 28.6hPa | 2.6V | 00:00:00 | 00:00:00 | 00:00:00 | |
| DM0DOS-11 | 2026-09-04 18:12:27 | 49.77744 | 8.80279 | 256° | 16km/h | 24536m | 4.7m/s | -50.6°C | 3.4% | 28.8hPa | 2.6V | 03:36:20 | 01:42:32 | 00:00:00 | |
| BIOWL1-15 | 2026-09-04 18:12:24 | 49.77740 | 8.80267 | 226° | 18km/h | 24547m | 6m/s | -50.6°C | 0.2% | 28.7hPa | 2.7V | 03:37:43 | 01:42:34 | 00:00:00 | |
| DL1XH-west | 2026-09-04 18:12:23 | 49.77742 | 8.80273 | 246° | 16km/h | 24542m | 5.2m/s | -50.6°C | 0.1% | 28.8hPa | 2.6V | 03:36:52 | 01:42:33 | 00:00:00 | |
| HSKMA3-T | 2026-09-04 18:12:21 | 49.77745 | 8.80284 | 255° | 15km/h | 24532m | 4.9m/s | -50.7°C | 0.2% | 28.8hPa | 2.6V | 03:36:52 | 01:42:31 | 00:00:00 | |
| SONDE2-11 | 2026-09-04 18:12:21 | 49.77746 | 8.80289 | 241° | 11km/h | 24526m | 5.9m/s | -50.7°C | 0.8% | 28.8hPa | 2.7V | 00:00:00 | 00:00:00 | 00:00:00 | |
| DL3AQ-11 | 2026-09-04 18:12:20 | 49.77748 | 8.80293 | 216° | 13km/h | 24521m | 4.9m/s | -50.7°C | 0.9% | 28.9hPa | 2.7V | 00:00:00 | 00:00:00 | 00:00:00 | |
| DL1XH1-15 | 2026-09-04 18:12:19 | 49.77775 | 8.80311 | 200° | 33km/h | 24495m | 4.6m/s | -50.8°C | 3.5% | 29hPa | 2.7V | 03:36:28 | 01:42:24 | 00:00:00 | |
| AA1-15 | 2026-09-04 18:12:19 | 49.77748 | 8.80293 | 217° | 13km/h | 24521m | 4.9m/s | -50.7°C | 0.2% | 28.9hPa | 2.7V | 03:36:52 | 01:42:29 | 00:00:00 | |
| DB0UT-9 | 2026-09-04 18:12:18 | 49.77748 | 8.80293 | 218° | 13km/h | 24521m | 4.9m/s | -50.7°C | 0.9% | 28.9hPa | 2.6V | 03:36:00 | 00:00:00 | 00:00:00 | |
| DM0DOS-11 | 2026-09-04 18:12:17 | 49.77791 | 8.80318 | 188° | 33km/h | 24484m | 5.8m/s | -50.8°C | 3.4% | 29hPa | 2.6V | 03:36:30 | 01:42:22 | 00:00:00 | |
| DO3MHA-11 | 2026-09-04 18:12:16 | 49.77761 | 8.80302 | 204° | 27km/h | 24506m | 6.1m/s | -50.7°C | 3.4% | 28.9hPa | 2.6V | 00:00:00 | 01:42:26 | 00:00:00 | |
| DL1XH-15 | 2026-09-04 18:12:14 | 49.77813 | 8.80320 | 187° | 22km/h | 24470m | 5m/s | -50.8°C | 3.4% | 29.1hPa | 2.6V | 03:36:33 | 01:42:19 | 00:00:00 | |
| BIOWL1-15 | 2026-09-04 18:12:13 | 49.77783 | 8.80315 | 195° | 33km/h | 24490m | 5.5m/s | -50.8°C | 0.2% | 29hPa | 2.6V | 03:37:43 | 01:42:23 | 00:00:00 | |
| HSKMA3-T | 2026-09-04 18:12:11 | 49.77799 | 8.80319 | 183° | 29km/h | 24479m | 4.9m/s | -50.8°C | 0.2% | 29.1hPa | 2.7V | 03:36:52 | 01:42:21 | 00:00:00 | |
| AA1-15 | 2026-09-04 18:12:09 | 49.77812 | 8.80320 | 188° | 22km/h | 24470m | 5m/s | -50.8°C | 0.2% | 29.1hPa | 2.6V | 03:36:52 | 01:42:19 | 00:00:00 | |
| DB0NH | 2026-09-04 18:12:09 | 49.77812 | 8.80320 | 188° | 24km/h | 24470m | 4.9m/s | -50.7°C | 3.4% | 29.0hPa | 2.6V | 00:00:00 | 01:42:19 | 00:00:00 | |
| DB0UT-7 | 2026-09-04 18:12:08 | 49.77818 | 8.80322 | 200° | 26km/h | 24464m | 6.4m/s | -50.7°C | 3.4% | 29.0hPa | 2.6V | 03:36:00 | 01:42:18 | 00:00:00 | |
| DL3AQ-11 | 2026-09-04 18:12:07 | 49.77825 | 8.80330 | 227° | 15km/h | 24453m | 5.2m/s | -50.8°C | 0.9% | 29.2hPa | 2.6V | 00:00:00 | 00:00:00 | 00:00:00 | |
| DO3MHA-11 | 2026-09-04 18:12:06 | 49.77825 | 8.80330 | 228° | 24km/h | 24453m | 5.2m/s | -50.8°C | 3.4% | 29.1hPa | 2.6V | 03:36:00 | 01:42:16 | 00:00:00 | |
| DO3DL | 2026-09-04 18:12:05 | 49.77825 | 8.80330 | 228° | 16km/h | 24453m | 5.2m/s | -50.8°C | 0.9% | 29.2hPa | 2.6V | 03:36:00 | 00:00:00 | 00:00:00 | |
| DL1XH-15 | 2026-09-04 18:12:04 | 49.77852 | 8.80352 | 196° | 31km/h | 24414m | 5.2m/s | -50.8°C | 3.5% | 29.3hPa | 2.6V | 03:36:43 | 01:42:09 | 00:00:00 | |
| DL1XH-west | 2026-09-04 18:12:02 | 49.77835 | 8.80343 | 202° | 16km/h | 24431m | 4.8m/s | -50.8°C | 0.2% | 29.2hPa | 2.6V | 03:36:52 | 01:42:12 | 00:00:00 | |
| HSKMA3-T | 2026-09-04 18:12:00 | 49.77845 | 8.80348 | 200° | 27km/h | 24419m | 5.8m/s | -50.8°C | 0.2% | 29.3hPa | 2.6V | 03:36:52 | 01:42:10 | 00:00:00 | |
| AA1-15 | 2026-09-04 18:11:58 | 49.77860 | 8.80355 | 191° | 31km/h | 24409m | 5.2m/s | -50.9°C | 0.3% | 29.4hPa | 2.7V | 03:36:52 | 01:42:08 | 00:00:00 | |
| DD1CC8 | 2026-09-04 18:11:58 | 49.77860 | 8.80355 | 190° | 31km/h | 24409m | 5.2m/s | -50.9°C | 0.9% | 29.4hPa | 2.7V | 00:00:00 | 00:00:00 | 00:00:00 | |
| DM0DOS-11 | 2026-09-04 18:11:57 | 49.77902 | 8.80360 | 200° | 26km/h | 24375m | 5.4m/s | -50.9°C | 3.5% | 29.5hPa | 2.7V | 03:36:50 | 01:42:02 | 00:00:00 | |
| DL3AQ-11 | 2026-09-04 18:11:56 | 49.77883 | 8.80356 | 176° | 27km/h | 24392m | 4.7m/s | -50.9°C | 0.9% | 29.4hPa | 2.6V | 00:00:00 | 00:00:00 | 00:00:00 | |
| SONCRA | 2026-09-04 18:11:55 | 49.77890 | 8.80356 | 182° | 26km/h | 24387m | 5.4m/s | -50.9°C | 0.9% | 29.4hPa | 2.6V | 00:00:00 | 00:00:00 | 00:00:00 | |
| DJ2DS-15 | 2026-09-04 18:11:54 | 49.77890 | 8.80356 | 183° | 29km/h | 24387m | 5.3m/s | -50.9°C | 3.4% | 29.4hPa | 2.6V | 00:00:00 | 01:42:04 | 00:00:00 | |
| DL1XH-15 | 2026-09-04 18:11:53 | 49.77924 | 8.80373 | 193° | 24km/h | 24353m | 4.7m/s | -51.1°C | 3.5% | 29.6hPa | 2.6V | 03:36:54 | 01:41:58 | 00:00:00 | |
| DL1XH-west | 2026-09-04 18:11:52 | 49.77902 | 8.80360 | 201° | 26km/h | 24375m | 5.4m/s | -50.9°C | 0.2% | 29.5hPa | 2.7V | 03:36:52 | 01:42:02 | 00:00:00 | |
| BIOWL1-15 | 2026-09-04 18:11:51 | 49.77908 | 8.80364 | 205° | 24km/h | 24370m | 4.9m/s | -51°C | 0.2% | 29.5hPa | 2.7V | 03:37:43 | 01:42:01 | 00:00:00 | |
| HSKMA3-T | 2026-09-04 18:11:49 | 49.77919 | 8.80371 | 198° | 22km/h | 24358m | 5.7m/s | -51.1°C | 0.3% | 29.6hPa | 2.6V | 03:37:43 | 01:41:59 | 00:00:00 | |
| AA1-15 | 2026-09-04 18:11:47 | 49.77931 | 8.80375 | 192° | 27km/h | 24348m | 5.6m/s | -51.1°C | 0.1% | 29.6hPa | 2.6V | 03:37:43 | 01:41:57 | 00:00:00 | |
| DL1ZP-14 | 2026-09-04 18:11:46 | 49.77938 | 8.80378 | 190° | 31km/h | 24342m | 6.1m/s | -51.1°C | 0.9% | 29.6hPa | 2.7V | 00:00:00 | 00:00:00 | 00:00:00 | |
| DL1XH-west | 2026-09-04 18:11:42 | 49.77973 | 8.80376 | 165° | 35km/h | 24319m | 5.4m/s | -51.1°C | 0.2% | 29.8hPa | 2.6V | 03:37:43 | 01:41:52 | 00:00:00 | |
| EDDB2-12 | 2026-09-04 18:11:41 | 49.77990 | 8.80368 | 164° | 33km/h | 24309m | 5.7m/s | 0°C | -1.0% | -1.0hPa | 2.6V | 00:00:00 | 00:00:00 | 00:00:00 | |
| DL3AQ-11 | 2026-09-04 18:11:40 | 49.77998 | 8.80366 | 170° | 31km/h | 24304m | 5.8m/s | -51.1°C | 0.9% | 29.8hPa | 2.6V | 00:00:00 | 00:00:00 | 00:00:00 | |
| DO3DL | 2026-09-04 18:11:39 | 49.77997 | 8.80366 | 171° | 31km/h | 24304m | 5.8m/s | -51.1°C | 0.9% | 29.8hPa | 2.6V | 03:37:00 | 00:00:00 | 00:00:00 | |
| BIOWL1-15 | 2026-09-04 18:11:39 | 49.77998 | 8.80366 | 170° | 31km/h | 24303m | 5.8m/s | -51.1°C | 0.2% | 29.8hPa | 2.7V | 03:37:43 | 01:41:49 | 00:00:00 | |
| DB0UT-7 | 2026-09-04 18:11:38 | 49.78005 | 8.80364 | 175° | 22km/h | 24298m | 4.6m/s | -51.1°C | 3.4% | 29.8hPa | 2.6V | 00:00:00 | 00:00:00 | 00:00:00 | |
| HSKMA3-T | 2026-09-04 18:11:38 | 49.78005 | 8.80364 | 175° | 29km/h | 24298m | 4.7m/s | -51.1°C | 0.2% | 29.9hPa | 2.6V | 03:37:43 | 01:41:48 | 00:00:00 | |
| DM0DOS-11 | 2026-09-04 18:11:37 | 49.78042 | 8.80355 | 172° | 24km/h | 24266m | 6.2m/s | -51.3°C | 3.5% | 30hPa | 2.6V | 03:37:10 | 01:41:42 | 00:00:00 | |
| AA1-15 | 2026-09-04 18:11:37 | 49.78019 | 8.80362 | 173° | 26km/h | 24288m | 6m/s | -51.2°C | 0.2% | 29.9hPa | 2.6V | 03:37:43 | 01:41:46 | 00:00:00 | |
| DL1XH-west | 2026-09-04 18:11:31 | 49.78048 | 8.80354 | 175° | 27km/h | 24260m | 5.4m/s | -51.3°C | 0.3% | 30hPa | 2.6V | 03:37:43 | 01:41:41 | 00:00:00 | |
| DB0ND-19 | 2026-09-04 18:11:30 | 49.78062 | 8.80351 | 166° | 27km/h | 24250m | 4.7m/s | -51.3°C | 0.9% | 30.1hPa | 2.6V | 00:00:00 | 00:00:00 | 00:00:00 | |
| DL1XH1-15 | 2026-09-04 18:11:29 | 49.78091 | 8.80323 | 146° | 26km/h | 24222m | 6m/s | -51.4°C | 3.5% | 30.2hPa | 2.6V | 03:37:18 | 01:41:34 | 00:00:00 | |
| BIOWL1-15 | 2026-09-04 18:11:29 | 49.78062 | 8.80351 | 166° | 27km/h | 24250m | 4.7m/s | -51.3°C | 0.3% | 30.1hPa | 2.7V | 03:37:43 | 01:41:39 | 00:00:00 | |
| DB0NH | 2026-09-04 18:11:29 | 49.78062 | 8.80351 | 167° | 26km/h | 24250m | 4.7m/s | -51.3°C | 3.5% | 30.0hPa | 2.7V | 03:37:00 | 01:41:39 | 00:00:00 | |
| AM1SDL-15 | 2026-09-04 18:11:28 | 49.78069 | 8.80347 | 157° | 22km/h | 24245m | 6.3m/s | -51.3°C | 3.6% | 30.1hPa | 2.6V | 03:37:00 | 01:41:38 | 00:00:00 | |
| DM0DOS-11 | 2026-09-04 18:11:27 | 49.78101 | 8.80314 | 151° | 22km/h | 24212m | 5.1m/s | -51.4°C | 3.5% | 30.3hPa | 2.6V | 03:37:20 | 01:41:32 | 00:00:00 | |
| HSKMA3-T | 2026-09-04 18:11:27 | 49.78075 | 8.80342 | 146° | 27km/h | 24238m | 5.8m/s | -51.4°C | 0.2% | 30.1hPa | 2.6V | 03:37:43 | 01:41:37 | 00:00:00 | |
| AA1-15 | 2026-09-04 18:11:26 | 49.78080 | 8.80336 | 140° | 27km/h | 24233m | 4.5m/s | -51.4°C | 0.3% | 30.1hPa | 2.7V | 03:37:43 | 01:41:36 | 00:00:00 | |
| DL1XH-west | 2026-09-04 18:11:21 | 49.78106 | 8.80310 | 149° | 18km/h | 24206m | 6.4m/s | -51.4°C | 0.2% | 30.3hPa | 2.7V | 03:37:43 | 01:41:31 | 00:00:00 | |
| DK5PH-5 | 2026-09-04 18:11:21 | 49.78106 | 8.80310 | 150° | 16km/h | 24207m | 6.4m/s | -51.4°C | 3.5% | 30.2hPa | 2.7V | 00:00:00 | 01:41:31 | 00:00:00 | |
| DL1XH1-15 | 2026-09-04 18:11:19 | 49.78128 | 8.80307 | 169° | 11km/h | 24167m | 6m/s | -51.7°C | 3.5% | 30.5hPa | 2.6V | 03:37:28 | 01:41:24 | 00:00:00 | |
| BIOWL1-15 | 2026-09-04 18:11:19 | 49.78112 | 8.80304 | 161° | 13km/h | 24195m | 5.2m/s | -51.5°C | 0.2% | 30.4hPa | 2.6V | 03:37:43 | 01:41:29 | 00:00:00 | |
| SONDE2-11 | 2026-09-04 18:11:19 | 49.78116 | 8.80303 | 179° | 11km/h | 24190m | 6.2m/s | -51.6°C | 0.9% | 30.4hPa | 2.6V | 00:00:00 | 00:00:00 | 00:00:00 | |
| DM0DOS-11 | 2026-09-04 18:11:17 | 49.78134 | 8.80302 | 147° | 15km/h | 24156m | 4.7m/s | -51.7°C | 3.6% | 30.5hPa | 2.6V | 03:37:30 | 01:41:22 | 00:00:00 | |
| HSKMA3-T | 2026-09-04 18:11:16 | 49.78122 | 8.80306 | 197° | 15km/h | 24178m | 4.9m/s | -51.7°C | 0.2% | 30.4hPa | 2.7V | 03:37:43 | 01:41:26 | 00:00:00 | |
| AA1-15 | 2026-09-04 18:11:15 | 49.78125 | 8.80307 | 189° | 13km/h | 24172m | 5.4m/s | -51.7°C | 0.3% | 30.4hPa | 2.7V | 03:37:43 | 01:41:25 | 00:00:00 | |
| DL1XH-west | 2026-09-04 18:11:11 | 49.78137 | 8.80299 | 151° | 16km/h | 24151m | 6.4m/s | -51.8°C | 0.3% | 30.5hPa | 2.7V | 03:37:43 | 01:41:21 | 00:00:00 | |
| BIOWL1-15 | 2026-09-04 18:11:10 | 49.78150 | 8.80289 | 152° | 20km/h | 24134m | 5.4m/s | -52°C | 0.3% | 30.6hPa | 2.6V | 03:37:43 | 01:41:18 | 00:00:00 | |
| HSKMA3-T | 2026-09-04 18:11:05 | 49.78161 | 8.80280 | 164° | 13km/h | 24118m | 4.6m/s | -52°C | 0.4% | 30.7hPa | 2.6V | 03:37:43 | 01:41:15 | 00:00:00 | |
| AA1-15 | 2026-09-04 18:11:00 | 49.78180 | 8.80288 | 200° | 15km/h | 24091m | 6m/s | -51.9°C | 0.4% | 30.8hPa | 2.7V | 03:37:43 | 01:41:10 | 00:00:00 | |
| BIOWL1-15 | 2026-09-04 18:11:00 | 49.78186 | 8.80289 | 170° | 13km/h | 24080m | 5m/s | -51.8°C | 0.4% | 30.9hPa | 2.6V | 03:38:34 | 01:41:08 | 00:00:00 | |
| DB0ND-19 | 2026-09-04 18:10:59 | 49.78183 | 8.80289 | 186° | 11km/h | 24085m | 5.7m/s | -51.8°C | 0.9% | 30.9hPa | 2.7V | 00:00:00 | 00:00:00 | 00:00:00 | |
| DO3DL | 2026-09-04 18:10:58 | 49.78183 | 8.80289 | 187° | 13km/h | 24085m | 5.7m/s | -51.8°C | 0.9% | 30.8hPa | 2.7V | 03:37:00 | 00:00:00 | 00:00:00 | |
| DM0DOS-11 | 2026-09-04 18:10:57 | 49.78217 | 8.80281 | 169° | 27km/h | 24046m | 6m/s | -51.6°C | 3.6% | 31.1hPa | 2.7V | 03:37:50 | 01:41:02 | 00:00:00 | |
| HSKMA3-T | 2026-09-04 18:10:54 | 49.78204 | 8.80284 | 173° | 26km/h | 24057m | 5.5m/s | -51.7°C | 0.2% | 31hPa | 2.7V | 03:38:34 | 01:41:04 | 00:00:00 | |
| DL1XH-west | 2026-09-04 18:10:49 | 49.78237 | 8.80275 | 174° | 27km/h | 24030m | 5.1m/s | -51.6°C | 0.2% | 31.1hPa | 2.6V | 03:38:34 | 01:40:59 | 00:00:00 | |
| DJ2DS-15 | 2026-09-04 18:10:49 | 49.78244 | 8.80275 | 178° | 29km/h | 24024m | 6.8m/s | -51.5°C | 0.9% | 31.1hPa | 2.7V | 00:00:00 | 00:00:00 | 00:00:00 | |
| DM0DOS-11 | 2026-09-04 18:10:47 | 49.78288 | 8.80273 | 167° | 31km/h | 23990m | 6m/s | -51.5°C | 3.6% | 31.3hPa | 2.7V | 03:38:00 | 01:40:52 | 00:00:00 | |
| BIOWL1-15 | 2026-09-04 18:10:47 | 49.78252 | 8.80275 | 183° | 31km/h | 24018m | 5.8m/s | -51.5°C | 0.2% | 31.2hPa | 2.7V | 03:38:34 | 01:40:57 | 00:00:00 | |
| DL3AQ-11 | 2026-09-04 18:10:47 | 49.78260 | 8.80275 | 183° | 29km/h | 24013m | 4.9m/s | -51.5°C | 0.9% | 31.2hPa | 2.6V | 00:00:00 | 00:00:00 | 00:00:00 | |
| DO1YAY-16 | 2026-09-04 18:10:46 | 49.78267 | 8.80276 | 182° | 27km/h | 24007m | 6.3m/s | -51.5°C | 0.9% | 31.2hPa | 2.6V | 00:00:00 | 00:00:00 | 00:00:00 | |
| DL1XH1-15 | 2026-09-04 18:10:44 | 49.78667 | 8.79699 | 73° | 18km/h | 23541m | 4.3m/s | -53.3°C | 3.9% | 33.6hPa | 2.6V | 03:39:26 | 01:39:26 | 00:00:00 | |
| DL1XH1-15 | 2026-09-04 18:10:44 | 49.78666 | 8.79693 | 86° | 18km/h | 23536m | 4.7m/s | -53.4°C | 3.9% | 33.6hPa | 2.7V | 03:39:27 | 01:39:25 | 00:00:00 | |
| HSKMA3-T | 2026-09-04 18:10:44 | 49.78274 | 8.80276 | 177° | 27km/h | 24001m | 5.6m/s | -51.5°C | 0.2% | 31.3hPa | 2.6V | 03:38:34 | 01:40:54 | 00:00:00 | |
| AA1-15 | 2026-09-04 18:10:39 | 49.78315 | 8.80260 | 158° | 40km/h | 23973m | 4.7m/s | -51.7°C | 0.2% | 31.4hPa | 2.6V | 03:38:34 | 01:40:49 | 00:00:00 | |
| BIOWL1-15 | 2026-09-04 18:10:38 | 49.78341 | 8.80242 | 162° | 37km/h | 23958m | 4.2m/s | -51.9°C | 0.3% | 31.5hPa | 2.6V | 03:38:34 | 01:40:46 | 00:00:00 | |
| DL1XH-15 | 2026-09-04 18:10:36 | 49.78389 | 8.80242 | 189° | 37km/h | 23930m | 5.7m/s | -52.1°C | 3.6% | 31.6hPa | 2.6V | 03:38:11 | 01:40:41 | 00:00:00 | |
| HSKMA3-T | 2026-09-04 18:10:33 | 49.78370 | 8.80238 | 186° | 40km/h | 23941m | 5.4m/s | -52.1°C | 0.3% | 31.6hPa | 2.7V | 03:38:34 | 01:40:43 | 00:00:00 | |
| AA1-15 | 2026-09-04 18:10:28 | 49.78417 | 8.80240 | 164° | 40km/h | 23916m | 5.3m/s | -52.2°C | 0.4% | 31.7hPa | 2.7V | 03:38:34 | 01:40:38 | 00:00:00 | |
| BIOWL1-15 | 2026-09-04 18:10:27 | 49.78450 | 8.80218 | 151° | 53km/h | 23899m | 4.2m/s | -52.3°C | 0.5% | 31.8hPa | 2.6V | 03:38:34 | 01:40:35 | 00:00:00 | |
| HSKMA3-T | 2026-09-04 18:10:22 | 49.78481 | 8.80187 | 146° | 42km/h | 23884m | 5.7m/s | -52.4°C | 0.5% | 31.8hPa | 2.6V | 03:38:34 | 01:40:32 | 00:00:00 | |
| DM3KS-11 | 2026-09-04 18:10:22 | 49.78490 | 8.80179 | 148° | 35km/h | 23879m | 5.1m/s | -52.4°C | 1.0% | 31.9hPa | 2.6V | 00:00:00 | 00:00:00 | 00:00:00 | |
| DK5PH-5 | 2026-09-04 18:10:21 | 49.78490 | 8.80179 | 149° | 31km/h | 23879m | 5.1m/s | -52.3°C | 3.8% | 31.8hPa | 2.6V | 00:00:00 | 01:40:31 | 00:00:00 | |
| DL3AQ-11 | 2026-09-04 18:10:20 | 49.78504 | 8.80168 | 159° | 29km/h | 23868m | 6.1m/s | -52.4°C | 0.9% | 31.9hPa | 2.6V | 00:00:00 | 00:00:00 | 00:00:00 | |
| DL1XH-15 | 2026-09-04 18:10:18 | 49.78534 | 8.80155 | 157° | 29km/h | 23847m | 5.6m/s | -52.2°C | 3.6% | 32hPa | 2.6V | 03:38:27 | 01:40:25 | 00:00:00 | |
| AA1-15 | 2026-09-04 18:10:17 | 49.78519 | 8.80162 | 167° | 31km/h | 23857m | 4.7m/s | -52.4°C | 0.4% | 32hPa | 2.6V | 03:38:34 | 01:40:27 | 00:00:00 | |
| BIOWL1-15 | 2026-09-04 18:10:14 | 49.78540 | 8.80150 | 148° | 29km/h | 23841m | 5.8m/s | -52.2°C | 0.3% | 32.1hPa | 2.7V | 03:38:34 | 01:40:24 | 00:00:00 | |
| HSKMA3-T | 2026-09-04 18:10:11 | 49.78558 | 8.80125 | 137° | 37km/h | 23825m | 6.4m/s | -52.2°C | 0.3% | 32.1hPa | 2.6V | 03:38:34 | 01:40:21 | 00:00:00 | |
| DB0UT-9 | 2026-09-04 18:10:09 | 49.78566 | 8.80116 | 140° | 40km/h | 23820m | 5.3m/s | -52.2°C | 1.0% | 32.2hPa | 2.7V | 03:38:00 | 00:00:00 | 00:00:00 | |
| DL1XH-15 | 2026-09-04 18:10:07 | 49.78600 | 8.80067 | 139° | 22km/h | 23788m | 5.3m/s | -52.3°C | 3.8% | 32.3hPa | 2.7V | 03:38:38 | 01:40:14 | 00:00:00 | |
| DM0DOS-11 | 2026-09-04 18:10:07 | 49.78610 | 8.80055 | 142° | 26km/h | 23778m | 4.9m/s | -52.3°C | 3.8% | 32.4hPa | 2.6V | 03:38:40 | 01:40:12 | 00:00:00 | |
| AA1-15 | 2026-09-04 18:10:07 | 49.78586 | 8.80087 | 137° | 31km/h | 23805m | 6.1m/s | 0°C | 0% | 32.2hPa | 2.6V | 18:12:15 | 01:40:17 | 00:00:00 | |
| BIOWL1-15 | 2026-09-04 18:10:06 | 49.78600 | 8.80067 | 139° | 22km/h | 23788m | 5.3m/s | -52.3°C | 0.4% | 32.3hPa | 2.7V | 03:40:16 | 01:40:14 | 00:00:00 | |
| HSKMA3-T | 2026-09-04 18:10:01 | 49.78615 | 8.80048 | 138° | 27km/h | 23773m | 4.4m/s | -52.3°C | 0.4% | 32.4hPa | 2.6V | 03:39:25 | 01:40:11 | 00:00:00 | |
| AU51GT2 | 2026-09-04 18:10:00 | 49.78620 | 8.80040 | 132° | 27km/h | 23768m | 5.6m/s | -52.3°C | 0.9% | 32.4hPa | 2.6V | 00:00:00 | 00:00:00 | 00:00:00 | |
| DO3DL | 2026-09-04 18:09:58 | 49.78625 | 8.80031 | 125° | 29km/h | 23763m | 6.1m/s | -52.3°C | 1.0% | 32.5hPa | 2.6V | 03:39:00 | 00:00:00 | 00:00:00 | |
| DM0DOS-11 | 2026-09-04 18:09:57 | 49.78656 | 8.79955 | 118° | 27km/h | 23724m | 6.2m/s | -52.3°C | 3.6% | 32.6hPa | 2.6V | 03:38:50 | 01:40:02 | 00:00:00 | |
| AA1-15 | 2026-09-04 18:09:57 | 49.78633 | 8.80011 | 119° | 33km/h | 23751m | 4.8m/s | 0°C | 0% | 0hPa | 2.6V | 18:12:15 | 01:40:07 | 00:00:00 | |
| BIOWL1-15 | 2026-09-04 18:09:56 | 49.78648 | 8.79976 | 126° | 35km/h | 23735m | 4.5m/s | -52.3°C | 0.3% | 32.6hPa | 2.7V | 03:40:16 | 01:40:04 | 00:00:00 | |
| HSKMA3-T | 2026-09-04 18:09:50 | 49.78661 | 8.79940 | 114° | 18km/h | 23713m | 5.1m/s | -52.2°C | 0.3% | 32.7hPa | 2.7V | 03:39:25 | 01:40:00 | 00:00:00 | |
| HARRO8 | 2026-09-04 18:09:49 | 49.78665 | 8.79929 | 124° | 15km/h | 23702m | 5.2m/s | -52.2°C | 0.9% | 32.8hPa | 2.6V | 00:00:00 | 00:00:00 | 00:00:00 | |
| DB0UT-9 | 2026-09-04 18:09:48 | 49.78663 | 8.79934 | 120° | 15km/h | 23708m | 6.3m/s | -52.2°C | 1.0% | 32.7hPa | 2.6V | 00:00:00 | 00:00:00 | 00:00:00 | |
| DM0DOS-11 | 2026-09-04 18:09:47 | 49.78674 | 8.79879 | 106° | 31km/h | 23672m | 5m/s | -52.3°C | 3.6% | 32.9hPa | 2.6V | 03:39:00 | 01:39:52 | 00:00:00 | |
| AA1-15 | 2026-09-04 18:09:46 | 49.78669 | 8.79918 | 110° | 18km/h | 23692m | 4.8m/s | 0°C | 0% | 0hPa | 2.6V | 18:12:15 | 01:39:56 | 00:00:00 | |
| SONDE2-11 | 2026-09-04 18:09:45 | 49.78670 | 8.79910 | 102° | 20km/h | 23687m | 6.0m/s | -52.2°C | 0.9% | 32.8hPa | 2.7V | 00:00:00 | 00:00:00 | 00:00:00 | |
| BIOWL1-15 | 2026-09-04 18:09:43 | 49.78672 | 8.79890 | 100° | 29km/h | 23677m | 4.1m/s | -52.2°C | 0.3% | 32.9hPa | 2.7V | 03:40:16 | 01:39:53 | 00:00:00 | |
| HSKMA3-T | 2026-09-04 18:09:39 | 49.78683 | 8.79849 | 127° | 24km/h | 23657m | 4.5m/s | -52.4°C | 0.3% | 33hPa | 2.6V | 03:39:25 | 01:39:49 | 00:00:00 | |
| DF7PN | 2026-09-04 18:09:39 | 49.78686 | 8.79842 | 125° | 18km/h | 23653m | 4.4m/s | -52.5°C | 0.9% | 33.0hPa | 2.7V | 00:00:00 | 00:00:00 | 00:00:00 | |
| AM1SDL-15 | 2026-09-04 18:09:38 | 49.78686 | 8.79842 | 126° | 20km/h | 23653m | 4.4m/s | -52.5°C | 3.6% | 33.0hPa | 2.7V | 03:39:00 | 01:39:48 | 00:00:00 | |
| DM0DOS-11 | 2026-09-04 18:09:37 | 49.78682 | 8.79798 | 78° | 26km/h | 23622m | 4.5m/s | -52.8°C | 3.7% | 33.2hPa | 2.7V | 03:39:10 | 01:39:42 | 00:00:00 | |
| AA1-15 | 2026-09-04 18:09:36 | 49.78689 | 8.79831 | 85° | 15km/h | 23642m | 5.4m/s | 0°C | 0% | 0hPa | 2.7V | 18:12:15 | 01:39:46 | 00:00:00 | |
| BIOWL1-15 | 2026-09-04 18:09:33 | 49.78684 | 8.79808 | 71° | 26km/h | 23626m | 4.9m/s | -52.8°C | 0.3% | 33.1hPa | 2.6V | 03:40:16 | 01:39:43 | 00:00:00 | |
| HSKMA3-T | 2026-09-04 18:09:28 | 49.78682 | 8.79764 | 95° | 18km/h | 23602m | 5m/s | -53.1°C | 0.4% | 33.3hPa | 2.6V | 03:39:25 | 01:39:38 | 00:00:00 | |
| AA1-15 | 2026-09-04 18:09:26 | 49.78682 | 8.79750 | 89° | 20km/h | 23592m | 5.6m/s | 0°C | 0% | 0hPa | 2.7V | 18:12:15 | 01:39:36 | 00:00:00 | |
| BIOWL1-15 | 2026-09-04 18:09:25 | 49.78680 | 8.79726 | 75° | 16km/h | 23577m | 4.6m/s | -53.3°C | 0.5% | 33.4hPa | 2.6V | 03:40:16 | 01:39:33 | 00:00:00 | |
| HSKMA3-T | 2026-09-04 18:09:18 | 49.78671 | 8.79710 | 41° | 13km/h | 23551m | 5.3m/s | -53.3°C | 0.4% | 33.5hPa | 2.6V | 03:39:25 | 01:39:28 | 00:00:00 | |
| HARRO8 | 2026-09-04 18:09:18 | 49.78669 | 8.79705 | 59° | 15km/h | 23545m | 4.8m/s | -53.3°C | 1.0% | 33.5hPa | 2.6V | 00:00:00 | 00:00:00 | 00:00:00 | |
| DM0DOS-11 | 2026-09-04 18:09:17 | 49.78668 | 8.79673 | 103° | 16km/h | 23520m | 4.6m/s | -53.4°C | 3.9% | 33.7hPa | 2.6V | 03:39:30 | 01:39:22 | 00:00:00 | |
| AA1-15 | 2026-09-04 18:09:15 | 49.78666 | 8.79693 | 87° | 18km/h | 23536m | 4.7m/s | 0°C | 0% | 0hPa | 2.7V | 18:12:15 | 01:39:25 | 00:00:00 | |
| BIOWL1-15 | 2026-09-04 18:09:13 | 49.78667 | 8.79679 | 105° | 16km/h | 23525m | 5.2m/s | -53.4°C | 0.5% | 33.6hPa | 2.6V | 03:40:16 | 01:39:23 | 00:00:00 | |
| KANTATE | 2026-09-04 18:09:12 | 49.78667 | 8.79679 | 106° | 16km/h | 23525m | 5.2m/s | -53.4°C | 1.0% | 33.6hPa | 2.6V | 00:00:00 | 00:00:00 | 00:00:00 | |
| DL4BBY-15 | 2026-09-04 18:09:11 | 49.78668 | 8.79667 | 93° | 15km/h | 23515m | 5.7m/s | -54.3°C | 0% | 0hPa | 2.6V | 00:00:00 | 00:00:00 | 00:00:00 | |
| DC4HF-4 | 2026-09-04 18:09:10 | 49.78668 | 8.79662 | 76° | 13km/h | 23509m | 5.2m/s | -53.5°C | 1.0% | 33.7hPa | 2.6V | 00:00:00 | 00:00:00 | 00:00:00 | |
| DL0LBS | 2026-09-04 18:09:09 | 49.78668 | 8.79662 | 78° | 15km/h | 23510m | 5.2m/s | -53.5°C | 1.0% | 33.7hPa | 2.6V | 03:40:00 | 00:00:00 | 00:00:00 | |
| DF3TZ-5 | 2026-09-04 18:09:08 | 49.78664 | 8.79651 | 18° | 5km/h | 23495m | 5.9m/s | -53.5°C | 1.0% | 33.8hPa | 2.6V | 00:00:00 | 00:00:00 | 00:00:00 | |
| DM0DOS-11 | 2026-09-04 18:09:07 | 49.78658 | 8.79652 | 59° | 7km/h | 23470m | 4.8m/s | -53.5°C | 3.9% | 34hPa | 2.6V | 03:39:40 | 01:39:12 | 00:00:00 | |
| HSKMA3-T | 2026-09-04 18:09:07 | 49.78664 | 8.79651 | 19° | 7km/h | 23495m | 5.9m/s | -53.5°C | 0.4% | 33.8hPa | 2.6V | 03:40:16 | 01:39:17 | 00:00:00 | |
| AA1-15 | 2026-09-04 18:09:03 | 49.78659 | 8.79654 | 11° | 4km/h | 23474m | 5.3m/s | 0°C | 0% | 0hPa | 2.6V | 18:12:15 | 01:39:13 | 00:00:00 | |
| DL1XH1-15 | 2026-09-04 18:09:02 | 49.78662 | 8.79634 | 130° | 20km/h | 23449m | 5.2m/s | -53.5°C | 3.9% | 34hPa | 2.6V | 03:39:44 | 01:39:08 | 00:00:00 | |
| BIOWL1-15 | 2026-09-04 18:09:02 | 49.78658 | 8.79652 | 59° | 7km/h | 23470m | 4.8m/s | -53.5°C | 0.5% | 34hPa | 2.6V | 03:40:16 | 01:39:12 | 00:00:00 | |
| DJ2DS-15 | 2026-09-04 18:09:00 | 49.78658 | 8.79645 | 105° | 13km/h | 23460m | 4.9m/s | -53.5°C | 1.0% | 34.0hPa | 2.6V | 00:00:00 | 00:00:00 | 00:00:00 | |
| DL3AQ-11 | 2026-09-04 18:08:59 | 49.78659 | 8.79640 | 121° | 15km/h | 23455m | 6.2m/s | -53.5°C | 1.0% | 34.0hPa | 2.6V | 00:00:00 | 00:00:00 | 00:00:00 | |
| AU51GT2 | 2026-09-04 18:08:58 | 49.78662 | 8.79634 | 130° | 18km/h | 23449m | 5.2m/s | -53.5°C | 1.0% | 34.1hPa | 2.6V | 00:00:00 | 00:00:00 | 00:00:00 | |
| DL1XH-15 | 2026-09-04 18:08:57 | 49.78672 | 8.79609 | 103° | 16km/h | 23428m | 4.7m/s | -53.6°C | 3.9% | 34.1hPa | 2.6V | 03:39:48 | 01:39:04 | 00:00:00 | |
| DM0DOS-11 | 2026-09-04 18:08:57 | 49.78673 | 8.79599 | 101° | 9km/h | 23418m | 6m/s | -53.6°C | 3.9% | 34.2hPa | 2.6V | 03:39:50 | 01:39:02 | 00:00:00 | |
| HSKMA3-T | 2026-09-04 18:08:56 | 49.78668 | 8.79622 | 124° | 20km/h | 23439m | 5.2m/s | -53.5°C | 0.5% | 34.1hPa | 2.7V | 03:40:16 | 01:39:06 | 00:00:00 | |
| DO3MHA-11 | 2026-09-04 18:08:56 | 49.78668 | 8.79622 | 125° | 13km/h | 23439m | 5.1m/s | -53.5°C | 3.9% | 34.1hPa | 2.6V | 00:00:00 | 01:39:06 | 00:00:00 | |
| DB0NH | 2026-09-04 18:08:55 | 49.78671 | 8.79615 | 114° | 15km/h | 23434m | 5.7m/s | -53.5°C | 3.9% | 34.1hPa | 2.6V | 03:39:00 | 01:39:05 | 00:00:00 | |
| DJ2DS-15 | 2026-09-04 18:08:54 | 49.78672 | 8.79609 | 104° | 16km/h | 23428m | 4.7m/s | -53.5°C | 3.9% | 34.1hPa | 2.6V | 00:00:00 | 01:39:04 | 00:00:00 | |
| DL1XH1-15 | 2026-09-04 18:08:53 | 49.78676 | 8.79585 | 105° | 15km/h | 23398m | 5.5m/s | -53.5°C | 3.9% | 34.3hPa | 2.6V | 03:39:54 | 01:38:58 | 00:00:00 | |
| DL1XH-west | 2026-09-04 18:08:53 | 49.78673 | 8.79603 | 98° | 13km/h | 23424m | 4.7m/s | -53.6°C | 0.4% | 34.2hPa | 2.6V | 03:40:16 | 01:39:03 | 00:00:00 | |
| AA1-15 | 2026-09-04 18:08:53 | 49.78673 | 8.79599 | 102° | 9km/h | 23418m | 6m/s | 0°C | 0% | 0hPa | 2.6V | 18:12:15 | 01:39:02 | 00:00:00 | |
| DD1CC8 | 2026-09-04 18:08:52 | 49.78674 | 8.79596 | 109° | 7km/h | 23413m | 4.9m/s | -53.5°C | 1.0% | 34.2hPa | 2.7V | 00:00:00 | 00:00:00 | 00:00:00 | |
| DK5PH-5 | 2026-09-04 18:08:51 | 49.78674 | 8.79595 | 110° | 16km/h | 23413m | 4.8m/s | -53.5°C | 3.9% | 34.2hPa | 2.7V | 03:39:00 | 01:39:01 | 00:00:00 | |
| AM1SDL-15 | 2026-09-04 18:08:50 | 49.78674 | 8.79593 | 111° | 20km/h | 23408m | 4.0m/s | -53.5°C | 3.9% | 34.2hPa | 2.7V | 03:39:00 | 01:39:00 | 00:00:00 | |
| DL0LBS | 2026-09-04 18:08:49 | 49.78675 | 8.79589 | 106° | 11km/h | 23403m | 5.4m/s | -53.5°C | 1.1% | 34.3hPa | 2.7V | 03:40:00 | 00:00:00 | 00:00:00 | |
| DM0DOS-11 | 2026-09-04 18:08:47 | 49.78697 | 8.79542 | 130° | 27km/h | 23367m | 5.3m/s | -53.6°C | 3.9% | 34.5hPa | 2.7V | 03:40:00 | 01:38:52 | 00:00:00 | |
| DL1XH-15 | 2026-09-04 18:08:47 | 49.78692 | 8.79550 | 135° | 27km/h | 23371m | 3.9m/s | -53.6°C | 3.9% | 34.5hPa | 2.6V | 03:39:59 | 01:38:53 | 00:00:00 | |
| HSKMA3-T | 2026-09-04 18:08:46 | 49.78679 | 8.79572 | 122° | 20km/h | 23388m | 5m/s | -53.5°C | 0.5% | 34.4hPa | 2.7V | 03:40:16 | 01:38:56 | 00:00:00 | |
| DO3MHA-11 | 2026-09-04 18:08:46 | 49.78679 | 8.79572 | 122° | 18km/h | 23388m | 5.0m/s | -53.5°C | 3.9% | 34.3hPa | 2.7V | 00:00:00 | 01:38:56 | 00:00:00 | |
| DO3DL | 2026-09-04 18:08:45 | 49.78683 | 8.79565 | 132° | 24km/h | 23382m | 6.2m/s | -53.5°C | 1.0% | 34.4hPa | 2.6V | 03:40:00 | 00:00:00 | 00:00:00 | |
| SONDE2-11 | 2026-09-04 18:08:43 | 49.78692 | 8.79550 | 135° | 27km/h | 23372m | 3.9m/s | -53.6°C | 1.0% | 34.5hPa | 2.6V | 00:00:00 | 00:00:00 | 00:00:00 | |
| DL1XH1-15 | 2026-09-04 18:08:42 | 49.78708 | 8.79515 | 117° | 13km/h | 23345m | 5.5m/s | -53.6°C | 4% | 34.6hPa | 2.6V | 03:40:04 | 01:38:48 | 00:00:00 | |
| DL1XH-west | 2026-09-04 18:08:42 | 49.78697 | 8.79542 | 131° | 27km/h | 23367m | 5.3m/s | -53.6°C | 0.5% | 34.5hPa | 2.7V | 03:40:16 | 01:38:52 | 00:00:00 | |
| BIOWL1-15 | 2026-09-04 18:08:41 | 49.78701 | 8.79534 | 124° | 26km/h | 23361m | 5.2m/s | -53.6°C | 0.5% | 34.5hPa | 2.7V | 03:40:16 | 01:38:51 | 00:00:00 | |
| DL4BBY-15 | 2026-09-04 18:08:41 | 49.78701 | 8.79534 | 125° | 15km/h | 23361m | 5.2m/s | -54.5°C | 0% | 0hPa | 2.6V | 00:00:00 | 00:00:00 | 00:00:00 | |
| DL1ZP-14 | 2026-09-04 18:08:40 | 49.78704 | 8.79527 | 119° | 20km/h | 23356m | 4.8m/s | -53.6°C | 1.0% | 34.5hPa | 2.6V | 00:00:00 | 00:00:00 | 00:00:00 | |
| SFWM-10 | 2026-09-04 18:08:38 | 49.78708 | 8.79514 | 118° | 13km/h | 23345m | 5.5m/s | -53.6°C | 1.0% | 34.6hPa | 2.7V | 03:40:00 | 00:00:00 | 00:00:00 | |
| DM0DOS-11 | 2026-09-04 18:08:37 | 49.78706 | 8.79490 | 101° | 11km/h | 23314m | 4.9m/s | -53.5°C | 4% | 34.8hPa | 2.7V | 03:40:10 | 01:38:42 | 00:00:00 | |
| HSKMA3-T | 2026-09-04 18:08:36 | 49.78709 | 8.79507 | 82° | 9km/h | 23335m | 5m/s | -53.6°C | 0.5% | 34.7hPa | 2.7V | 03:40:16 | 01:38:46 | 00:00:00 | |
| DL3AQ-11 | 2026-09-04 18:08:36 | 49.78708 | 8.79503 | 65° | 9km/h | 23329m | 6.1m/s | -53.6°C | 1.0% | 34.7hPa | 2.6V | 00:00:00 | 00:00:00 | 00:00:00 | |
| DJ2DS-15 | 2026-09-04 18:08:34 | 49.78707 | 8.79499 | 66° | 15km/h | 23323m | 4.7m/s | -53.5°C | 4.0% | 34.7hPa | 2.6V | 00:00:00 | 01:38:44 | 00:00:00 | |
| DL1XH1-15 | 2026-09-04 18:08:32 | 49.78719 | 8.79471 | 141° | 22km/h | 23291m | 5.3m/s | -53.5°C | 3.9% | 34.9hPa | 2.7V | 03:40:14 | 01:38:38 | 00:00:00 | |
| DL1XH-west | 2026-09-04 18:08:32 | 49.78706 | 8.79490 | 102° | 11km/h | 23314m | 4.9m/s | -53.5°C | 0.5% | 34.8hPa | 2.7V | 03:40:16 | 01:38:42 | 00:00:00 | |
| AA1-15 | 2026-09-04 18:08:31 | 49.78708 | 8.79486 | 129° | 15km/h | 23308m | 5.8m/s | 0°C | 0% | 0hPa | 2.7V | 18:12:15 | 01:38:41 | 00:00:00 | |
| BIOWL1-15 | 2026-09-04 18:08:30 | 49.78711 | 8.79481 | 142° | 18km/h | 23302m | 5.1m/s | -53.5°C | 0.5% | 34.8hPa | 2.6V | 03:40:16 | 01:38:40 | 00:00:00 | |
| DJTTGO | 2026-09-04 18:08:29 | 49.78711 | 8.79481 | 143° | 18km/h | 23302m | 5.1m/s | -53.5°C | 1.0% | 34.8hPa | 2.7V | 03:40:00 | 00:00:00 | 00:00:00 | |
| DG1MJG | 2026-09-04 18:08:28 | 49.78715 | 8.79476 | 146° | 22km/h | 23297m | 4.6m/s | -53.5°C | 1.0% | 34.9hPa | 2.7V | 03:40:00 | 00:00:00 | 00:00:00 | |
| DM0DOS-11 | 2026-09-04 18:08:27 | 49.78738 | 8.79447 | 118° | 9km/h | 23272m | 4.4m/s | -53.5°C | 3.9% | 35hPa | 2.7V | 03:40:20 | 01:38:32 | 00:00:00 | |
| HSKMA3-T | 2026-09-04 18:08:25 | 49.78730 | 8.79456 | 137° | 16km/h | 23276m | 3.2m/s | -53.4°C | 0.4% | 34.9hPa | 2.6V | 03:41:07 | 01:38:35 | 00:00:00 | |
| DB0ND-19 | 2026-09-04 18:08:24 | 49.78736 | 8.79450 | 136° | 9km/h | 23277m | 4.5m/s | -53.5°C | 1.0% | 35.0hPa | 2.7V | 00:00:00 | 00:00:00 | 00:00:00 | |
| DL1XH1-15 | 2026-09-04 18:08:22 | 49.78737 | 8.79424 | 81° | 18km/h | 23252m | 3.9m/s | -53.5°C | 3.9% | 35.1hPa | 2.7V | 03:40:24 | 01:38:28 | 00:00:00 | |
| DL1XH-west | 2026-09-04 18:08:21 | 49.78738 | 8.79443 | 96° | 13km/h | 23267m | 5.6m/s | -53.5°C | 0.4% | 35.1hPa | 2.6V | 03:41:07 | 01:38:31 | 00:00:00 | |
| AA1-15 | 2026-09-04 18:08:20 | 49.78738 | 8.79438 | 85° | 16km/h | 23261m | 6m/s | 0°C | 0% | 0hPa | 2.6V | 18:12:15 | 01:38:30 | 00:00:00 | |
| BIOWL1-15 | 2026-09-04 18:08:19 | 49.78738 | 8.79431 | 81° | 18km/h | 23256m | 4.4m/s | -53.5°C | 0.4% | 35.1hPa | 2.6V | 03:41:07 | 01:38:29 | 00:00:00 | |
| SONCRA | 2026-09-04 18:08:18 | 49.78737 | 8.79418 | 83° | 15km/h | 23248m | 5.3m/s | -53.5°C | 1.0% | 35.2hPa | 2.7V | 00:00:00 | 00:00:00 | 00:00:00 | |
| DM0DOS-11 | 2026-09-04 18:08:17 | 49.78740 | 8.79399 | 111° | 13km/h | 23222m | 5.3m/s | -53.4°C | 3.8% | 35.3hPa | 2.7V | 03:40:30 | 01:38:22 | 00:00:00 | |
| DL1XH-15 | 2026-09-04 18:08:17 | 49.78736 | 8.79413 | 93° | 11km/h | 23242m | 5.2m/s | -53.5°C | 3.9% | 35.2hPa | 2.6V | 03:40:26 | 01:38:26 | 00:00:00 | |
| HSKMA3-T | 2026-09-04 18:08:14 | 49.78738 | 8.79406 | 119° | 7km/h | 23233m | 4.4m/s | -53.5°C | 0.4% | 35.3hPa | 2.6V | 03:41:07 | 01:38:24 | 00:00:00 | |
| DL1XH-west | 2026-09-04 18:08:10 | 49.78742 | 8.79389 | 103° | 13km/h | 23213m | 5m/s | -53.4°C | 0.4% | 35.4hPa | 2.6V | 03:41:07 | 01:38:20 | 00:00:00 | |
| BIOWL1-15 | 2026-09-04 18:08:09 | 49.78743 | 8.79384 | 104° | 11km/h | 23207m | 5.4m/s | -53.4°C | 0.4% | 35.4hPa | 2.7V | 03:41:07 | 01:38:19 | 00:00:00 | |
| DL3AQ-11 | 2026-09-04 18:08:07 | 49.78743 | 8.79375 | 59° | 7km/h | 23193m | 4.1m/s | -53.4°C | 1.0% | 35.5hPa | 2.7V | 00:00:00 | 00:00:00 | 00:00:00 | |
| DL1XH-15 | 2026-09-04 18:08:06 | 49.78734 | 8.79355 | 61° | 9km/h | 23169m | 5.8m/s | -53.4°C | 3.9% | 35.6hPa | 2.7V | 03:40:41 | 01:38:11 | 00:00:00 | |
| HSKMA3-T | 2026-09-04 18:08:04 | 49.78740 | 8.79368 | 54° | 15km/h | 23182m | 5.2m/s | -53.4°C | 0.5% | 35.5hPa | 2.6V | 03:41:07 | 01:38:14 | 00:00:00 | |
| DO3MHA-11 | 2026-09-04 18:08:04 | 49.78740 | 8.79368 | 55° | 9km/h | 23183m | 5.1m/s | -53.4°C | 3.9% | 35.5hPa | 2.6V | 00:00:00 | 01:38:14 | 00:00:00 | |
| DL1XH1-15 | 2026-09-04 18:08:03 | 49.78733 | 8.79349 | 97° | 5km/h | 23154m | 5m/s | -53.4°C | 3.9% | 35.7hPa | 2.6V | 03:40:44 | 01:38:08 | 00:00:00 | |
| BIOWL1-15 | 2026-09-04 18:08:00 | 49.78733 | 8.79349 | 98° | 5km/h | 23154m | 5m/s | -53.4°C | 0.5% | 35.7hPa | 2.6V | 03:41:07 | 01:38:08 | 00:00:00 | |
| AA1-15 | 2026-09-04 18:07:59 | 49.78733 | 8.79350 | 85° | 4km/h | 23159m | 4.9m/s | 0°C | 0% | 0hPa | 2.6V | 18:12:15 | 01:38:09 | 00:00:00 | |
| HSKMA3-T | 2026-09-04 18:07:53 | 49.78731 | 8.79330 | 71° | 11km/h | 23130m | 5.3m/s | -53.3°C | 0.4% | 35.8hPa | 2.6V | 03:41:07 | 01:38:03 | 00:00:00 | |
| DB0ND-19 | 2026-09-04 18:07:53 | 49.78730 | 8.79326 | 60° | 9km/h | 23125m | 5.1m/s | -53.3°C | 1.0% | 35.9hPa | 2.7V | 00:00:00 | 00:00:00 | 00:00:00 | |
| DL1XH1-15 | 2026-09-04 18:07:52 | 49.78716 | 8.79309 | 30° | 15km/h | 23100m | 4.1m/s | -53.2°C | 3.7% | 36hPa | 2.7V | 03:40:55 | 01:37:57 | 00:00:00 | |
| DL1XH-west | 2026-09-04 18:07:49 | 49.78719 | 8.79313 | 30° | 18km/h | 23105m | 4.7m/s | -53.3°C | 0.4% | 36hPa | 2.6V | 03:41:07 | 01:37:58 | 00:00:00 | |
| BIOWL1-15 | 2026-09-04 18:07:47 | 49.78715 | 8.79309 | 31° | 15km/h | 23100m | 4.1m/s | -53.2°C | 0.3% | 36hPa | 2.7V | 03:41:07 | 01:37:57 | 00:00:00 | |
| DM0DOS-11 | 2026-09-04 18:07:47 | 49.78711 | 8.79296 | 97° | 11km/h | 23074m | 5.7m/s | -53.5°C | 3.9% | 36.1hPa | 2.7V | 03:41:00 | 01:37:52 | 00:00:00 | |
| DJ2KF-10 | 2026-09-04 18:07:46 | 49.78712 | 8.79307 | 34° | 15km/h | 23096m | 5.8m/s | -53.2°C | 3.8% | 35.9hPa | 2.7V | 00:00:00 | 01:37:56 | 00:00:00 | |
| HARRO8 | 2026-09-04 18:07:45 | 49.78710 | 8.79303 | 88° | 5km/h | 23085m | 4.8m/s | -53.4°C | 1.0% | 36.1hPa | 2.6V | 00:00:00 | 00:00:00 | 00:00:00 | |
| DO3MHA-11 | 2026-09-04 18:07:44 | 49.78710 | 8.79303 | 89° | 13km/h | 23085m | 4.7m/s | -53.3°C | 3.8% | 36.0hPa | 2.6V | 00:00:00 | 01:37:54 | 00:00:00 | |
| DL1XH1-15 | 2026-09-04 18:07:43 | 49.78713 | 8.79272 | 80° | 13km/h | 23050m | 4m/s | -53.6°C | 3.9% | 36.2hPa | 2.7V | 03:41:05 | 01:37:47 | 00:00:00 | |
| HSKMA3-T | 2026-09-04 18:07:42 | 49.78711 | 8.79296 | 98° | 11km/h | 23074m | 5.7m/s | -53.5°C | 0.5% | 36.1hPa | 2.7V | 03:41:07 | 01:37:52 | 00:00:00 | |
| DL4BBY-15 | 2026-09-04 18:07:41 | 49.78711 | 8.79292 | 99° | 15km/h | 23069m | 4.3m/s | -54.5°C | 0% | 0hPa | 2.7V | 00:00:00 | 00:00:00 | 00:00:00 | |
| DB0UT-9 | 2026-09-04 18:07:40 | 49.78711 | 8.79292 | 100° | 13km/h | 23069m | 4.4m/s | -53.6°C | 1.1% | 36.2hPa | 2.7V | 03:41:00 | 00:00:00 | 00:00:00 | |
| DM7RM-13 | 2026-09-04 18:07:39 | 49.78712 | 8.79287 | 102° | 13km/h | 23065m | 4.6m/s | -53.6°C | 1.1% | 36.2hPa | 2.7V | 03:41:00 | 00:00:00 | 00:00:00 | |
| DL1ZP-14 | 2026-09-04 18:07:38 | 49.78713 | 8.79272 | 80° | 13km/h | 23051m | 4.0m/s | -53.6°C | 1.0% | 36.3hPa | 2.7V | 00:00:00 | 00:00:00 | 00:00:00 | |
| DM0DOS-11 | 2026-09-04 18:07:37 | 49.78698 | 8.79242 | 34° | 20km/h | 23024m | 5.7m/s | -53.6°C | 4.1% | 36.4hPa | 2.7V | 03:41:10 | 01:37:42 | 00:00:00 | |
| BIOWL1-15 | 2026-09-04 18:07:37 | 49.78713 | 8.79272 | 81° | 13km/h | 23050m | 4m/s | -53.6°C | 0.4% | 36.3hPa | 2.7V | 03:41:07 | 01:37:47 | 00:00:00 | |
| DF1GD-15 | 2026-09-04 18:07:36 | 49.78713 | 8.79272 | 82° | 13km/h | 23051m | 4.0m/s | -53.6°C | 1.0% | 36.3hPa | 2.6V | 03:41:00 | 00:00:00 | 00:00:00 | |
| DF3TZ-5 | 2026-09-04 18:07:35 | 49.78707 | 8.79254 | 47° | 22km/h | 23035m | 4.8m/s | -53.6°C | 1.1% | 36.4hPa | 2.6V | 00:00:00 | 00:00:00 | 00:00:00 | |
| DJ2DS-15 | 2026-09-04 18:07:34 | 49.78706 | 8.79253 | 48° | 15km/h | 23035m | 4.7m/s | -53.6°C | 4.0% | 36.3hPa | 2.6V | 00:00:00 | 01:37:44 | 00:00:00 | |
| DL1XH-15 | 2026-09-04 18:07:32 | 49.78683 | 8.79226 | 63° | 13km/h | 23000m | 4.7m/s | -53.6°C | 4% | 36.5hPa | 2.7V | 03:41:15 | 01:37:37 | 00:00:00 | |
| HSKMA3-T | 2026-09-04 18:07:31 | 49.78694 | 8.79239 | 27° | 16km/h | 23019m | 4.5m/s | -53.7°C | 0.6% | 36.4hPa | 2.6V | 03:41:58 | 01:37:41 | 00:00:00 | |
| DF2AP-13 | 2026-09-04 18:07:31 | 49.78694 | 8.79239 | 28° | 13km/h | 23020m | 4.4m/s | -53.6°C | 4.1% | 36.4hPa | 2.6V | 00:00:00 | 01:37:41 | 00:00:00 | |
| DH7VM-15 | 2026-09-04 18:07:30 | 49.78695 | 8.79239 | 28° | 16km/h | 23020m | 4.5m/s | -53.7°C | 1.1% | 36.4hPa | 2.6V | 00:00:00 | 00:00:00 | 00:00:00 | |
| CB1BUN | 2026-09-04 18:07:29 | 49.78691 | 8.79236 | 26° | 15km/h | 23015m | 4.0m/s | -53.7°C | 1.0% | 36.5hPa | 2.6V | 03:41:00 | 00:00:00 | 00:00:00 | |
| BIOWL7-15 | 2026-09-04 18:07:28 | 49.78688 | 8.79233 | 32° | 13km/h | 23011m | 5.3m/s | -53.6°C | 1.1% | 36.5hPa | 2.6V | 03:41:00 | 00:00:00 | 00:00:00 | |
| DM0DOS-11 | 2026-09-04 18:07:27 | 49.78687 | 8.79204 | 103° | 13km/h | 22974m | 5.2m/s | -53.5°C | 4% | 36.7hPa | 2.6V | 03:41:20 | 01:37:32 | 00:00:00 | |
| BIOWL1-15 | 2026-09-04 18:07:26 | 49.78682 | 8.79222 | 87° | 11km/h | 22996m | 4.8m/s | -53.6°C | 0.5% | 36.6hPa | 2.6V | 03:41:58 | 01:37:36 | 00:00:00 | |
| AU51GT2 | 2026-09-04 18:07:25 | 49.78683 | 8.79217 | 107° | 11km/h | 22990m | 6.2m/s | -53.6°C | 1.0% | 36.6hPa | 2.7V | 00:00:00 | 00:00:00 | 00:00:00 | |
| DO3MHA-11 | 2026-09-04 18:07:24 | 49.78684 | 8.79213 | 124° | 15km/h | 22984m | 5.4m/s | -53.5°C | 3.9% | 36.6hPa | 2.7V | 00:00:00 | 01:37:34 | 00:00:00 | |
| DL1XH1-15 | 2026-09-04 18:07:22 | 49.78678 | 8.79178 | 39° | 15km/h | 22950m | 5m/s | -53.3°C | 4% | 36.8hPa | 2.7V | 03:41:25 | 01:37:27 | 00:00:00 | |
| HSKMA3-T | 2026-09-04 18:07:21 | 49.78687 | 8.79198 | 83° | 15km/h | 22969m | 5.2m/s | -53.5°C | 0.6% | 36.7hPa | 2.6V | 03:41:58 | 01:37:31 | 00:00:00 | |
| AA1-15 | 2026-09-04 18:07:18 | 49.78681 | 8.79182 | 45° | 16km/h | 22955m | 5.5m/s | 0°C | 0% | 0hPa | 2.7V | 18:12:15 | 01:37:28 | 00:00:00 | |
| BIOWL9-15 | 2026-09-04 18:07:18 | 49.78678 | 8.79178 | 39° | 13km/h | 22950m | 5.0m/s | -53.3°C | 1.1% | 36.8hPa | 2.7V | 00:00:00 | 00:00:00 | 00:00:00 | |
| DM0DOS-11 | 2026-09-04 18:07:17 | 49.78668 | 8.79159 | 79° | 11km/h | 22926m | 4.3m/s | -53.1°C | 3.9% | 37hPa | 2.7V | 03:41:30 | 01:37:22 | 00:00:00 | |
| DL3AQ-11 | 2026-09-04 18:07:16 | 49.78673 | 8.79171 | 42° | 13km/h | 22940m | 4.8m/s | -53.2°C | 1.0% | 36.9hPa | 2.6V | 00:00:00 | 00:00:00 | 00:00:00 | |
| DL1XH-15 | 2026-09-04 18:07:15 | 49.78669 | 8.79152 | 135° | 7km/h | 22915m | 5.3m/s | -53°C | 3.9% | 37hPa | 2.6V | 03:41:32 | 01:37:20 | 00:00:00 | |
| DL1XH-west | 2026-09-04 18:07:15 | 49.78673 | 8.79171 | 43° | 13km/h | 22940m | 4.8m/s | -53.2°C | 0.5% | 36.9hPa | 2.6V | 03:41:58 | 01:37:25 | 00:00:00 | |
| DO3MHA-11 | 2026-09-04 18:07:14 | 49.78671 | 8.79168 | 52° | 9km/h | 22936m | 5.7m/s | -53.1°C | 4.0% | 36.9hPa | 2.6V | 03:41:00 | 01:37:24 | 00:00:00 | |
| AM1SDL-15 | 2026-09-04 18:07:13 | 49.78669 | 8.79163 | 63° | 11km/h | 22930m | 4.6m/s | -53.1°C | 4.0% | 36.9hPa | 2.6V | 03:41:00 | 01:37:23 | 00:00:00 | |
| DL1XH1-15 | 2026-09-04 18:07:12 | 49.78672 | 8.79147 | 94° | 7km/h | 22901m | 5.6m/s | -52.9°C | 3.8% | 37.1hPa | 2.7V | 03:41:35 | 01:37:17 | 00:00:00 | |
| HSKMA3-T | 2026-09-04 18:07:11 | 49.78668 | 8.79155 | 102° | 9km/h | 22921m | 5.9m/s | -53.1°C | 0.5% | 37hPa | 2.7V | 03:41:58 | 01:37:21 | 00:00:00 | |
| DF8AY | 2026-09-04 18:07:08 | 49.78671 | 8.79149 | 133° | 7km/h | 22906m | 4m/s | -52.9°C | 0.5% | 37.1hPa | 2.6V | 03:43:40 | 01:37:18 | 00:00:00 | |
| DM0DOS-11 | 2026-09-04 18:07:07 | 49.78660 | 8.79136 | 7° | 13km/h | 22875m | 4.4m/s | -52.7°C | 3.8% | 37.3hPa | 2.7V | 03:41:40 | 01:37:12 | 00:00:00 | |
| DL1XH-west | 2026-09-04 18:07:05 | 49.78670 | 8.79141 | 36° | 13km/h | 22890m | 5m/s | -52.8°C | 0.4% | 37.2hPa | 2.6V | 03:41:58 | 01:37:15 | 00:00:00 | |
| HSKMA3-T | 2026-09-04 18:07:00 | 49.78654 | 8.79134 | 19° | 13km/h | 22865m | 5.5m/s | -52.7°C | 0.5% | 37.3hPa | 2.6V | 03:41:58 | 01:37:10 | 00:00:00 | |
| NBG1-10 | 2026-09-04 18:06:59 | 49.78651 | 8.79132 | 31° | 7km/h | 22861m | 4.4m/s | -52.6°C | 3.9% | 37.3hPa | 2.6V | 00:00:00 | 01:37:09 | 00:00:00 | |
| DB0UT-9 | 2026-09-04 18:06:58 | 49.78651 | 8.79132 | 32° | 11km/h | 22861m | 4.5m/s | -52.6°C | 1.1% | 37.3hPa | 2.6V | 03:41:00 | 00:00:00 | 00:00:00 | |
| DL1XH-15 | 2026-09-04 18:06:57 | 49.78650 | 8.79129 | 198° | 5km/h | 22840m | 5m/s | -52.5°C | 3.7% | 37.5hPa | 2.6V | 03:41:47 | 01:37:05 | 00:00:00 | |
| DB0UT-7 | 2026-09-04 18:06:57 | 49.78649 | 8.79129 | 59° | 7km/h | 22851m | 5.5m/s | -52.5°C | 3.8% | 37.3hPa | 2.6V | 00:00:00 | 01:37:07 | 00:00:00 | |
| DM0DOS-11 | 2026-09-04 18:06:55 | 49.78654 | 8.79123 | 55° | 4km/h | 22816m | 5.4m/s | -52.5°C | 3.8% | 37.6hPa | 2.6V | 03:41:52 | 01:37:00 | 00:00:00 | |
| DL1XH-west | 2026-09-04 18:06:54 | 49.78652 | 8.79129 | 183° | 5km/h | 22835m | 4.7m/s | -52.5°C | 0.4% | 37.5hPa | 2.6V | 03:41:58 | 01:37:04 | 00:00:00 | |
| DF8AY | 2026-09-04 18:06:53 | 49.78653 | 8.79129 | 154° | 5km/h | 22830m | 5.8m/s | -52.5°C | 0.4% | 37.5hPa | 2.7V | 03:43:40 | 01:37:03 | 00:00:00 | |
| HSKMA3-T | 2026-09-04 18:06:49 | 49.78653 | 8.79123 | 6° | 4km/h | 22810m | 5.5m/s | -52.6°C | 0.4% | 37.6hPa | 2.6V | 03:41:58 | 01:36:59 | 00:00:00 | |
| DD1CC8 | 2026-09-04 18:06:48 | 49.78650 | 8.79123 | 3° | 7km/h | 22801m | 4.9m/s | -52.6°C | 1.0% | 37.7hPa | 2.6V | 00:00:00 | 00:00:00 | 00:00:00 | |
| DL1XH-15 | 2026-09-04 18:06:47 | 49.78646 | 8.79121 | 18° | 9km/h | 22790m | 4.6m/s | -52.5°C | 3.8% | 37.8hPa | 2.6V | 03:41:57 | 01:36:55 | 00:00:00 | |
| DL3AQ-11 | 2026-09-04 18:06:47 | 49.78648 | 8.79122 | 13° | 7km/h | 22795m | 6.0m/s | -52.5°C | 1.0% | 37.8hPa | 2.7V | 00:00:00 | 00:00:00 | 00:00:00 | |
| DC4HF-4 | 2026-09-04 18:06:46 | 49.78648 | 8.79122 | 13° | 7km/h | 22795m | 6.0m/s | -52.5°C | 1.0% | 37.8hPa | 2.7V | 00:00:00 | 00:00:00 | 00:00:00 | |
| BIOWL1-15 | 2026-09-04 18:06:43 | 49.78642 | 8.79121 | 340° | 7km/h | 22781m | 4.9m/s | -52.5°C | 0.4% | 37.8hPa | 2.7V | 03:42:49 | 01:36:53 | 00:00:00 | |
| DL1XH1-15 | 2026-09-04 18:06:42 | 49.78637 | 8.79137 | 216° | 2km/h | 22751m | 5m/s | -52.3°C | 3.8% | 38hPa | 2.6V | 03:42:05 | 01:36:47 | 00:00:00 | |
| DF8AY | 2026-09-04 18:06:42 | 49.78640 | 8.79123 | 310° | 9km/h | 22776m | 5.7m/s | -52.5°C | 0.4% | 37.8hPa | 2.7V | 03:43:40 | 01:36:52 | 00:00:00 | |
| HSKMA3-T | 2026-09-04 18:06:38 | 49.78637 | 8.79136 | 270° | 5km/h | 22756m | 5.3m/s | -52.4°C | 0.4% | 38hPa | 2.7V | 03:42:49 | 01:36:48 | 00:00:00 | |
| DL1XH-15 | 2026-09-04 18:06:38 | 49.78638 | 8.79137 | 185° | 0km/h | 22742m | 4.1m/s | -52.3°C | 3.7% | 38hPa | 2.6V | 03:42:07 | 01:36:45 | 00:00:00 | |
| DM7RM-13 | 2026-09-04 18:06:38 | 49.78637 | 8.79136 | 271° | 5km/h | 22757m | 5.3m/s | -52.4°C | 1.0% | 38.0hPa | 2.7V | 03:42:00 | 00:00:00 | 00:00:00 | |
| BIOWL1-15 | 2026-09-04 18:06:38 | 49.78638 | 8.79140 | 292° | 7km/h | 22732m | 5.3m/s | -52.3°C | 0.3% | 38.1hPa | 2.7V | 03:42:49 | 01:36:43 | 00:00:00 | |
| DL3AQ-11 | 2026-09-04 18:06:36 | 49.78638 | 8.79137 | 185° | 0km/h | 22743m | 4.1m/s | -52.3°C | 1.0% | 38.0hPa | 2.7V | 00:00:00 | 00:00:00 | 00:00:00 | |
| DF1GD-15 | 2026-09-04 18:06:34 | 49.78638 | 8.79137 | 0° | 0km/h | 22743m | 4.1m/s | -52.3°C | 1.0% | 38.0hPa | 2.7V | 03:42:00 | 00:00:00 | 00:00:00 | |
| DM0DOS-11 | 2026-09-04 18:06:33 | 49.78622 | 8.79156 | 344° | 16km/h | 22708m | 4m/s | -52.3°C | 3.7% | 38.2hPa | 2.7V | 03:42:14 | 01:36:38 | 00:00:00 | |
| DL1XH-west | 2026-09-04 18:06:32 | 49.78636 | 8.79143 | 305° | 13km/h | 22727m | 4.7m/s | -52.3°C | 0.4% | 38.2hPa | 2.6V | 03:42:49 | 01:36:42 | 00:00:00 | |
| HSKMA3-T | 2026-09-04 18:06:28 | 49.78623 | 8.79157 | 345° | 16km/h | 22708m | 4m/s | -52.3°C | 0.3% | 38.2hPa | 2.7V | 03:42:49 | 01:36:38 | 00:00:00 | |
| DF8AY | 2026-09-04 18:06:26 | 49.78618 | 8.79159 | 306° | 5km/h | 22699m | 5.7m/s | -52.3°C | 0.4% | 38.3hPa | 2.6V | 03:43:40 | 01:36:36 | 00:00:00 | |
| BIOWL1-15 | 2026-09-04 18:06:25 | 49.78625 | 8.79163 | 179° | 20km/h | 22684m | 4.6m/s | -52.2°C | 0.4% | 38.4hPa | 2.7V | 03:42:49 | 01:36:33 | 00:00:00 | |
| DO3MHA-11 | 2026-09-04 18:06:24 | 49.78621 | 8.79162 | 191° | 13km/h | 22689m | 4.5m/s | -52.1°C | 3.7% | 38.3hPa | 2.6V | 00:00:00 | 01:36:34 | 00:00:00 | |
| AU51GT2 | 2026-09-04 18:06:23 | 49.78625 | 8.79163 | 178° | 18km/h | 22684m | 4.6m/s | -52.2°C | 1.0% | 38.4hPa | 2.6V | 00:00:00 | 00:00:00 | 00:00:00 | |
| DL1XH1-15 | 2026-09-04 18:06:22 | 49.78644 | 8.79155 | 279° | 5km/h | 22654m | 5.6m/s | -52.4°C | 3.6% | 38.6hPa | 2.6V | 03:42:25 | 01:36:27 | 00:00:00 | |
| DK5PH-5 | 2026-09-04 18:06:21 | 49.78636 | 8.79160 | 161° | 16km/h | 22674m | 5.0m/s | -52.3°C | 3.7% | 38.4hPa | 2.6V | 00:00:00 | 01:36:31 | 00:00:00 | |
| DL1XH-west | 2026-09-04 18:06:21 | 49.78636 | 8.79160 | 160° | 20km/h | 22673m | 5.1m/s | -52.3°C | 0.4% | 38.5hPa | 2.6V | 03:42:49 | 01:36:31 | 00:00:00 | |
| DO3DL | 2026-09-04 18:06:20 | 49.78635 | 8.79160 | 161° | 20km/h | 22674m | 5.1m/s | -52.3°C | 1.0% | 38.5hPa | 2.6V | 03:42:00 | 00:00:00 | 00:00:00 | |
| DM0DOS-11 | 2026-09-04 18:06:18 | 49.78644 | 8.79154 | 182° | 4km/h | 22660m | 6m/s | -52.4°C | 3.6% | 38.5hPa | 2.6V | 03:42:24 | 01:36:28 | 00:00:00 | |
| HSKMA3-T | 2026-09-04 18:06:17 | 49.78644 | 8.79155 | 280° | 5km/h | 22654m | 5.6m/s | -52.4°C | 0.3% | 38.6hPa | 2.6V | 03:42:49 | 01:36:27 | 00:00:00 | |
| BIOWL1-15 | 2026-09-04 18:06:14 | 49.78641 | 8.79163 | 94° | 5km/h | 22630m | 5.5m/s | -52.4°C | 0.4% | 38.7hPa | 2.6V | 03:42:49 | 01:36:22 | 00:00:00 | |
| DO3MHA-11 | 2026-09-04 18:06:14 | 49.78642 | 8.79163 | 309° | 13km/h | 22640m | 4.2m/s | -52.3°C | 3.6% | 38.6hPa | 2.7V | 00:00:00 | 01:36:24 | 00:00:00 | |
| DJ2DS-15 | 2026-09-04 18:06:13 | 49.78641 | 8.79164 | 2° | 20km/h | 22636m | 5.2m/s | -52.3°C | 3.6% | 38.6hPa | 2.6V | 00:00:00 | 01:36:23 | 00:00:00 | |
| DL1XH1-15 | 2026-09-04 18:06:12 | 49.78653 | 8.79142 | 158° | 18km/h | 22604m | 5.5m/s | -52.6°C | 3.7% | 38.9hPa | 2.6V | 03:42:35 | 01:36:17 | 00:00:00 | |
| DL1XH-west | 2026-09-04 18:06:10 | 49.78643 | 8.79155 | 125° | 16km/h | 22620m | 4.8m/s | -52.4°C | 0.3% | 38.8hPa | 2.7V | 03:42:49 | 01:36:20 | 00:00:00 | |
| DM0DOS-11 | 2026-09-04 18:06:08 | 49.78650 | 8.79145 | 147° | 18km/h | 22610m | 5.3m/s | -52.5°C | 3.7% | 38.9hPa | 2.6V | 03:42:34 | 01:36:18 | 00:00:00 | |
| DL1XH-15 | 2026-09-04 18:06:07 | 49.78662 | 8.79138 | 165° | 20km/h | 22595m | 4.4m/s | -52.6°C | 3.6% | 38.9hPa | 2.7V | 03:42:37 | 01:36:15 | 00:00:00 | |
| HSKMA3-T | 2026-09-04 18:06:06 | 49.78658 | 8.79140 | 165° | 18km/h | 22599m | 4.8m/s | -52.6°C | 0.3% | 38.9hPa | 2.6V | 03:42:49 | 01:36:16 | 00:00:00 | |
| DL1ZP-14 | 2026-09-04 18:06:05 | 49.78667 | 8.79135 | 159° | 20km/h | 22590m | 5.6m/s | -52.7°C | 1.0% | 39.0hPa | 2.7V | 00:00:00 | 00:00:00 | 00:00:00 | |
| DO3MHA-11 | 2026-09-04 18:06:04 | 49.78667 | 8.79135 | 160° | 22km/h | 22590m | 5.6m/s | -52.6°C | 3.7% | 38.9hPa | 2.6V | 00:00:00 | 01:36:14 | 00:00:00 | |
| DM0DOS-11 | 2026-09-04 18:06:03 | 49.78695 | 8.79113 | 152° | 22km/h | 22559m | 3.5m/s | -53°C | 3.7% | 39.1hPa | 2.6V | 03:42:44 | 01:36:08 | 00:00:00 | |
| DL1XH1-15 | 2026-09-04 18:06:02 | 49.78700 | 8.79108 | 150° | 24km/h | 22555m | 5.8m/s | -53°C | 3.7% | 39.2hPa | 2.6V | 03:42:45 | 01:36:07 | 00:00:00 | |
| BIOWL1-15 | 2026-09-04 18:06:01 | 49.78682 | 8.79124 | 148° | 20km/h | 22574m | 5.2m/s | -52.9°C | 0.3% | 39.1hPa | 2.7V | 03:42:49 | 01:36:11 | 00:00:00 | |
| DL1XH-west | 2026-09-04 18:06:00 | 49.78686 | 8.79120 | 151° | 20km/h | 22568m | 5.6m/s | -52.9°C | 0.3% | 39.1hPa | 2.7V | 03:42:49 | 01:36:10 | 00:00:00 | |
| HSKMA3-T | 2026-09-04 18:05:55 | 49.78712 | 8.79097 | 145° | 29km/h | 22544m | 4.5m/s | -53.2°C | 0.4% | 39.3hPa | 2.7V | 03:42:49 | 01:36:05 | 00:00:00 | |
| DB0UT-7 | 2026-09-04 18:05:55 | 49.78712 | 8.79097 | 146° | 33km/h | 22544m | 4.5m/s | -53.1°C | 3.7% | 39.2hPa | 2.7V | 03:42:00 | 01:36:05 | 00:00:00 | |
| DO3MHA-11 | 2026-09-04 18:05:54 | 49.78718 | 8.79090 | 147° | 31km/h | 22540m | 4.4m/s | -53.2°C | 3.7% | 39.2hPa | 2.6V | 03:42:00 | 01:36:04 | 00:00:00 | |
| DM0DOS-11 | 2026-09-04 18:05:53 | 49.78753 | 8.79053 | 134° | 35km/h | 22508m | 4.9m/s | -53.6°C | 3.9% | 39.5hPa | 2.6V | 03:42:54 | 01:35:58 | 00:00:00 | |
| BIOWL1-15 | 2026-09-04 18:05:53 | 49.78735 | 8.79074 | 150° | 26km/h | 22524m | 4.6m/s | -53.5°C | 0.4% | 39.4hPa | 2.7V | 03:43:40 | 01:36:01 | 00:00:00 | |
| DJ2DS-15 | 2026-09-04 18:05:53 | 49.78723 | 8.79084 | 150° | 31km/h | 22535m | 5.7m/s | -53.2°C | 3.7% | 39.2hPa | 2.6V | 00:00:00 | 01:36:03 | 00:00:00 | |
| DL1XH1-15 | 2026-09-04 18:05:52 | 49.78759 | 8.79043 | 131° | 35km/h | 22503m | 4.6m/s | -53.6°C | 3.9% | 39.5hPa | 2.6V | 03:42:55 | 01:35:57 | 00:00:00 | |
| DL1XH-west | 2026-09-04 18:05:49 | 49.78747 | 8.79061 | 140° | 31km/h | 22514m | 5.9m/s | -53.6°C | 0.4% | 39.4hPa | 2.6V | 03:43:40 | 01:35:59 | 00:00:00 | |
| AM1SDL-15 | 2026-09-04 18:05:48 | 49.78753 | 8.79053 | 135° | 33km/h | 22509m | 4.9m/s | -53.6°C | 3.9% | 39.4hPa | 2.7V | 00:00:00 | 01:35:58 | 00:00:00 | |
| DL1XH-15 | 2026-09-04 18:05:47 | 49.78770 | 8.79022 | 130° | 33km/h | 22493m | 5.3m/s | -53.7°C | 3.9% | 39.5hPa | 2.7V | 03:42:57 | 01:35:55 | 00:00:00 | |
| DD1CC8 | 2026-09-04 18:05:45 | 49.78770 | 8.79022 | 130° | 33km/h | 22493m | 5.3m/s | -53.7°C | 1.0% | 39.6hPa | 2.6V | 00:00:00 | 00:00:00 | 00:00:00 | |
| HSKMA3-T | 2026-09-04 18:05:44 | 49.78776 | 8.79013 | 129° | 33km/h | 22488m | 4.5m/s | -53.7°C | 0.5% | 39.6hPa | 2.6V | 03:43:40 | 01:35:54 | 00:00:00 | |
| DO3MHA-11 | 2026-09-04 18:05:44 | 49.78775 | 8.79012 | 130° | 31km/h | 22488m | 4.4m/s | -53.6°C | 3.9% | 39.5hPa | 2.6V | 00:00:00 | 01:35:54 | 00:00:00 | |
| BIOWL7-15 | 2026-09-04 18:05:43 | 49.78776 | 8.79012 | 130° | 33km/h | 22488m | 4.5m/s | -53.7°C | 1.1% | 39.6hPa | 2.7V | 00:00:00 | 00:00:00 | 00:00:00 | |
| DL1XH1-15 | 2026-09-04 18:05:42 | 49.78807 | 8.78937 | 117° | 26km/h | 22453m | 4.9m/s | -53.7°C | 3.9% | 39.8hPa | 2.7V | 03:43:05 | 01:35:47 | 00:00:00 | |
| BIOWL1-15 | 2026-09-04 18:05:40 | 49.78796 | 8.78968 | 121° | 35km/h | 22468m | 4.2m/s | -53.7°C | 0.4% | 39.7hPa | 2.6V | 03:43:40 | 01:35:50 | 00:00:00 | |
| DL1XH-west | 2026-09-04 18:05:38 | 49.78804 | 8.78946 | 119° | 29km/h | 22459m | 5.9m/s | -53.7°C | 0.5% | 39.8hPa | 2.6V | 03:43:40 | 01:35:48 | 00:00:00 | |
| DL1XH-15 | 2026-09-04 18:05:37 | 49.78813 | 8.78917 | 113° | 29km/h | 22443m | 5.9m/s | -53.7°C | 3.9% | 39.9hPa | 2.6V | 03:43:07 | 01:35:45 | 00:00:00 | |
| HSKMA3-T | 2026-09-04 18:05:34 | 49.78816 | 8.78906 | 113° | 35km/h | 22437m | 5.3m/s | -53.7°C | 0.5% | 39.9hPa | 2.6V | 03:43:40 | 01:35:44 | 00:00:00 | |
| BIOWL1-15 | 2026-09-04 18:05:29 | 49.78831 | 8.78841 | 110° | 35km/h | 22413m | 4.5m/s | -53.7°C | 0.4% | 40.1hPa | 2.6V | 03:43:40 | 01:35:39 | 00:00:00 | |
| DL1XH-west | 2026-09-04 18:05:29 | 49.78834 | 8.78828 | 113° | 37km/h | 22408m | 5.8m/s | -53.8°C | 0.4% | 40.1hPa | 2.6V | 03:43:40 | 01:35:38 | 00:00:00 | |
| DL1XH-15 | 2026-09-04 18:05:27 | 49.78846 | 8.78792 | 121° | 29km/h | 22393m | 5.5m/s | -54.1°C | 3.9% | 40.2hPa | 2.6V | 03:43:17 | 01:35:35 | 00:00:00 | |
| CB1BUN | 2026-09-04 18:05:26 | 49.78838 | 8.78815 | 116° | 37km/h | 22403m | 4.8m/s | -53.9°C | 1.0% | 40.1hPa | 2.7V | 03:43:00 | 00:00:00 | 00:00:00 | |
| DO3MHA-11 | 2026-09-04 18:05:24 | 49.78850 | 8.78783 | 123° | 27km/h | 22388m | 5.5m/s | -54.1°C | 3.9% | 40.2hPa | 2.7V | 00:00:00 | 01:35:34 | 00:00:00 | |
| DM0DOS-11 | 2026-09-04 18:05:23 | 49.78867 | 8.78729 | 109° | 33km/h | 22360m | 4.9m/s | -54.4°C | 4.1% | 40.4hPa | 2.7V | 03:43:24 | 01:35:28 | 00:00:00 | |
| HSKMA3-T | 2026-09-04 18:05:23 | 49.78853 | 8.78775 | 120° | 22km/h | 22383m | 4.1m/s | -54.2°C | 0.5% | 40.2hPa | 2.7V | 03:43:40 | 01:35:33 | 00:00:00 | |
| BIOWL1-15 | 2026-09-04 18:05:21 | 49.78864 | 8.78740 | 112° | 31km/h | 22364m | 4.6m/s | -54.4°C | 0.6% | 40.4hPa | 2.6V | 03:43:40 | 01:35:29 | 00:00:00 | |
| AA1-15 | 2026-09-04 18:05:18 | 49.78867 | 8.78729 | 110° | 33km/h | 22360m | 4.9m/s | 0°C | 0% | 0hPa | 2.7V | 18:12:15 | 01:35:28 | 00:00:00 | |
| DL1XH-west | 2026-09-04 18:05:17 | 49.78869 | 8.78717 | 108° | 33km/h | 22354m | 5.6m/s | -54.4°C | 0.6% | 40.4hPa | 2.7V | 03:43:40 | 01:35:27 | 00:00:00 | |
| DL1XH-15 | 2026-09-04 18:05:17 | 49.78875 | 8.78678 | 101° | 37km/h | 22340m | 5.8m/s | -54.3°C | 4.1% | 40.5hPa | 2.6V | 03:43:28 | 01:35:24 | 00:00:00 | |
| DL3AQ-11 | 2026-09-04 18:05:16 | 49.78874 | 8.78692 | 102° | 33km/h | 22345m | 4.2m/s | -54.3°C | 1.1% | 40.5hPa | 2.6V | 00:00:00 | 00:00:00 | 00:00:00 | |
| DO3MHA-11 | 2026-09-04 18:05:14 | 49.78875 | 8.78678 | 102° | 33km/h | 22340m | 5.7m/s | -54.3°C | 4.1% | 40.5hPa | 2.6V | 03:43:00 | 01:35:24 | 00:00:00 | |
| DM0DOS-11 | 2026-09-04 18:05:13 | 49.78882 | 8.78601 | 90° | 27km/h | 22310m | 4.5m/s | -54.1°C | 4.1% | 40.7hPa | 2.7V | 03:43:34 | 01:35:18 | 00:00:00 | |
| HSKMA3-T | 2026-09-04 18:05:13 | 49.78877 | 8.78664 | 101° | 38km/h | 22334m | 5.3m/s | -54.3°C | 0.6% | 40.5hPa | 2.7V | 03:43:40 | 01:35:23 | 00:00:00 | |
| DF8AY | 2026-09-04 18:05:12 | 49.78879 | 8.78649 | 100° | 37km/h | 22330m | 3.6m/s | -54.2°C | 0.6% | 40.6hPa | 2.7V | 03:43:40 | 01:35:22 | 00:00:00 | |
| BIOWL1-15 | 2026-09-04 18:05:08 | 49.78882 | 8.78601 | 90° | 27km/h | 22310m | 4.5m/s | -54.1°C | 0.5% | 40.7hPa | 2.7V | 03:43:40 | 01:35:18 | 00:00:00 | |
| DL1XH-15 | 2026-09-04 18:05:07 | 49.78882 | 8.78554 | 88° | 29km/h | 22290m | 5.7m/s | -54°C | 4% | 40.8hPa | 2.7V | 03:43:38 | 01:35:14 | 00:00:00 | |
| AA1-15 | 2026-09-04 18:05:07 | 49.78882 | 8.78590 | 90° | 29km/h | 22305m | 5.9m/s | 0°C | 0% | 0hPa | 2.7V | 18:12:15 | 01:35:17 | 00:00:00 | |
| DL1XH-west | 2026-09-04 18:05:06 | 49.78882 | 8.78578 | 90° | 31km/h | 22300m | 4.5m/s | -54°C | 0.5% | 40.8hPa | 2.6V | 03:43:40 | 01:35:16 | 00:00:00 | |
| SONDE2-11 | 2026-09-04 18:05:06 | 49.78882 | 8.78578 | 90° | 31km/h | 22300m | 4.5m/s | -54.0°C | 1.1% | 40.8hPa | 2.7V | 00:00:00 | 00:00:00 | 00:00:00 | |
| CB1BUN | 2026-09-04 18:05:05 | 49.78882 | 8.78578 | 91° | 31km/h | 22300m | 4.5m/s | -54.0°C | 1.1% | 40.8hPa | 2.7V | 03:43:00 | 00:00:00 | 00:00:00 | |
| DO3MHA-11 | 2026-09-04 18:05:04 | 49.78882 | 8.78554 | 89° | 29km/h | 22291m | 5.6m/s | -53.9°C | 4.0% | 40.8hPa | 2.7V | 00:00:00 | 01:35:14 | 00:00:00 | |
| DM0DOS-11 | 2026-09-04 18:05:03 | 49.78885 | 8.78482 | 99° | 31km/h | 22262m | 4.4m/s | -54°C | 4.1% | 41hPa | 2.7V | 03:43:44 | 01:35:08 | 00:00:00 | |
| DL1XH1-15 | 2026-09-04 18:05:02 | 49.78886 | 8.78471 | 99° | 29km/h | 22256m | 5.4m/s | -54.1°C | 4.1% | 41.1hPa | 2.6V | 03:43:45 | 01:35:07 | 00:00:00 | |
| DF8AY | 2026-09-04 18:05:02 | 49.78882 | 8.78531 | 90° | 29km/h | 22281m | 4m/s | 0°C | 0% | 40.9hPa | 2.6V | 03:43:40 | 01:35:12 | 00:00:00 | |
| BIOWL1-15 | 2026-09-04 18:05:02 | 49.78885 | 8.78482 | 99° | 31km/h | 22262m | 4.4m/s | -54.1°C | 0.6% | 41hPa | 2.7V | 03:44:31 | 01:35:08 | 00:00:00 | |
| DL1XH-west | 2026-09-04 18:04:56 | 49.78887 | 8.78451 | 94° | 24km/h | 22247m | 4.4m/s | -54.1°C | 0.6% | 41.1hPa | 2.6V | 03:44:31 | 01:35:05 | 00:00:00 | |
| DM0DOS-11 | 2026-09-04 18:04:54 | 49.78888 | 8.78379 | 86° | 24km/h | 22213m | 4.1m/s | -53.8°C | 4.1% | 41.3hPa | 2.7V | 03:43:54 | 01:34:58 | 00:00:00 | |
| DL6DJ-15 | 2026-09-04 18:04:54 | 49.78888 | 8.78431 | 92° | 27km/h | 22237m | 5.3m/s | 0°C | -1.0% | -1.0hPa | 2.6V | 00:00:00 | 00:00:00 | 00:00:00 | |
| DO9LL-15 | 2026-09-04 18:04:53 | 49.78888 | 8.78431 | 93° | 26km/h | 22237m | 5.3m/s | 0°C | 0% | 0hPa | 2.6V | 00:00:00 | 01:35:03 | 00:00:00 | |
| DL1XH1-15 | 2026-09-04 18:04:52 | 49.78888 | 8.78370 | 86° | 24km/h | 22209m | 4.8m/s | -53.8°C | 4% | 41.4hPa | 2.6V | 03:43:55 | 01:34:57 | 00:00:00 | |
| HSKMA3-T | 2026-09-04 18:04:52 | 49.78888 | 8.78420 | 93° | 29km/h | 22232m | 4.3m/s | -54°C | 0.6% | 41.2hPa | 2.6V | 03:44:31 | 01:35:02 | 00:00:00 | |
| DF8AY | 2026-09-04 18:04:50 | 49.78889 | 8.78398 | 90° | 27km/h | 22224m | 5.3m/s | 0°C | 0% | 41.2hPa | 2.6V | 03:45:22 | 01:35:00 | 00:00:00 | |
| BIOWL1-15 | 2026-09-04 18:04:47 | 49.78888 | 8.78370 | 87° | 24km/h | 22209m | 4.8m/s | -53.8°C | 0.6% | 41.4hPa | 2.6V | 03:44:31 | 01:34:57 | 00:00:00 | |
| DL1XH-west | 2026-09-04 18:04:45 | 49.78887 | 8.78350 | 87° | 27km/h | 22199m | 4.1m/s | -53.7°C | 0.5% | 41.4hPa | 2.7V | 03:44:31 | 01:34:55 | 00:00:00 | |
| DO3MHA-11 | 2026-09-04 18:04:44 | 49.78886 | 8.78339 | 84° | 26km/h | 22195m | 3.8m/s | -53.6°C | 4.0% | 41.4hPa | 2.7V | 00:00:00 | 01:34:54 | 00:00:00 | |
| DM0DOS-11 | 2026-09-04 18:04:43 | 49.78879 | 8.78287 | 82° | 27km/h | 22167m | 4.8m/s | -53.5°C | 3.9% | 41.6hPa | 2.7V | 03:44:04 | 01:34:48 | 00:00:00 | |
| DL1XH1-15 | 2026-09-04 18:04:42 | 49.78878 | 8.78276 | 83° | 29km/h | 22162m | 4.4m/s | -53.4°C | 3.9% | 41.6hPa | 2.7V | 03:44:05 | 01:34:47 | 00:00:00 | |
| HSKMA3-T | 2026-09-04 18:04:41 | 49.78883 | 8.78312 | 73° | 20km/h | 22180m | 4m/s | -53.5°C | 0.5% | 41.6hPa | 2.6V | 03:44:31 | 01:34:51 | 00:00:00 | |
| DF8AY | 2026-09-04 18:04:39 | 49.78880 | 8.78296 | 80° | 24km/h | 22172m | 5.2m/s | 0°C | 0% | 41.6hPa | 2.7V | 03:45:22 | 01:34:49 | 00:00:00 | |
| BIOWL1-15 | 2026-09-04 18:04:37 | 49.78878 | 8.78276 | 83° | 29km/h | 22162m | 4.4m/s | -53.4°C | 0.5% | 41.7hPa | 2.7V | 03:44:31 | 01:34:47 | 00:00:00 | |
| DL1XH-west | 2026-09-04 18:04:34 | 49.78874 | 8.78243 | 74° | 26km/h | 22147m | 5.5m/s | -53.3°C | 0.4% | 41.8hPa | 2.6V | 03:44:31 | 01:34:44 | 00:00:00 | |
| DO3MHA-11 | 2026-09-04 18:04:34 | 49.78874 | 8.78243 | 74° | 20km/h | 22148m | 5.5m/s | -53.3°C | 3.8% | 41.7hPa | 2.7V | 03:44:00 | 01:34:44 | 00:00:00 | |
| DM0DOS-11 | 2026-09-04 18:04:33 | 49.78871 | 8.78196 | 87° | 20km/h | 22119m | 5.5m/s | -53.3°C | 3.8% | 42hPa | 2.7V | 03:44:14 | 01:34:38 | 00:00:00 | |
| DL1XH1-15 | 2026-09-04 18:04:33 | 49.78870 | 8.78188 | 81° | 18km/h | 22114m | 5.3m/s | -53.3°C | 3.8% | 42hPa | 2.7V | 03:44:15 | 01:34:37 | 00:00:00 | |
| HSKMA3-T | 2026-09-04 18:04:31 | 49.78870 | 8.78219 | 87° | 20km/h | 22134m | 5.6m/s | -53.3°C | 0.4% | 41.9hPa | 2.6V | 03:44:31 | 01:34:41 | 00:00:00 | |
| BIOWL1-15 | 2026-09-04 18:04:26 | 49.78869 | 8.78181 | 78° | 18km/h | 22109m | 4.3m/s | -53.3°C | 0.4% | 42hPa | 2.6V | 03:44:31 | 01:34:36 | 00:00:00 | |
| DL1XH-15 | 2026-09-04 18:04:25 | 49.78861 | 8.78135 | 63° | 20km/h | 22081m | 4.2m/s | -53.6°C | 3.8% | 42.2hPa | 2.6V | 03:44:22 | 01:34:30 | 00:00:00 | |
| DO3MHA-11 | 2026-09-04 18:04:24 | 49.78868 | 8.78166 | 81° | 20km/h | 22099m | 4.7m/s | -53.2°C | 3.8% | 42.0hPa | 2.7V | 00:00:00 | 01:34:34 | 00:00:00 | |
| DM0DOS-11 | 2026-09-04 18:04:23 | 49.78857 | 8.78120 | 81° | 22km/h | 22072m | 5.5m/s | -53.7°C | 3.9% | 42.2hPa | 2.7V | 03:44:24 | 01:34:28 | 00:00:00 | |
| DL1XH1-15 | 2026-09-04 18:04:22 | 49.78857 | 8.78111 | 90° | 22km/h | 22067m | 4.8m/s | -53.8°C | 3.9% | 42.3hPa | 2.7V | 03:44:25 | 01:34:27 | 00:00:00 | |
| HSKMA3-T | 2026-09-04 18:04:21 | 49.78863 | 8.78142 | 63° | 20km/h | 22086m | 5.5m/s | -53.5°C | 0.4% | 42.2hPa | 2.6V | 03:44:31 | 01:34:31 | 00:00:00 | |
| BIOWL1-15 | 2026-09-04 18:04:15 | 49.78858 | 8.78095 | 99° | 20km/h | 22057m | 5.7m/s | -54°C | 0.6% | 42.4hPa | 2.6V | 03:44:31 | 01:34:25 | 00:00:00 | |
| DB0UT-9 | 2026-09-04 18:04:15 | 49.78858 | 8.78095 | 100° | 20km/h | 22057m | 5.7m/s | -54.0°C | 1.1% | 42.4hPa | 2.6V | 03:44:00 | 00:00:00 | 00:00:00 | |
| DL1XH-west | 2026-09-04 18:04:13 | 49.78580 | 8.76736 | 57° | 37km/h | 21322m | 4.8m/s | -53.8°C | 0.6% | 47.5hPa | 2.6V | 03:47:04 | 01:31:51 | 00:00:00 | |
| DJ2DS-15 | 2026-09-04 18:04:13 | 49.78860 | 8.78081 | 103° | 24km/h | 22048m | 4.1m/s | -54.0°C | 4.0% | 42.4hPa | 2.6V | 03:44:00 | 01:34:23 | 00:00:00 | |
| DL1XH1-15 | 2026-09-04 18:04:12 | 49.78865 | 8.78034 | 83° | 22km/h | 22019m | 4.5m/s | -54.2°C | 4.1% | 42.6hPa | 2.6V | 03:44:35 | 01:34:17 | 00:00:00 | |
| HSKMA3-T | 2026-09-04 18:04:10 | 49.78864 | 8.78059 | 105° | 22km/h | 22033m | 4m/s | -54.2°C | 0.6% | 42.5hPa | 2.6V | 03:45:22 | 01:34:20 | 00:00:00 | |
| SONCRA | 2026-09-04 18:04:09 | 49.78865 | 8.78051 | 99° | 22km/h | 22029m | 4.3m/s | -54.2°C | 1.1% | 42.5hPa | 2.6V | 00:00:00 | 00:00:00 | 00:00:00 | |
| KANTATE | 2026-09-04 18:04:08 | 49.78865 | 8.78051 | 100° | 22km/h | 22029m | 4.3m/s | -54.2°C | 1.1% | 42.6hPa | 2.6V | 03:45:00 | 00:00:00 | 00:00:00 | |
| DL3AQ-11 | 2026-09-04 18:04:07 | 49.78865 | 8.78025 | 85° | 20km/h | 22015m | 4.5m/s | -54.2°C | 1.1% | 42.6hPa | 2.6V | 00:00:00 | 00:00:00 | 00:00:00 | |
| DL1XH-15 | 2026-09-04 18:04:06 | 49.78869 | 8.77982 | 103° | 22km/h | 21992m | 5.6m/s | -54.2°C | 4% | 42.8hPa | 2.6V | 03:44:41 | 01:34:11 | 00:00:00 | |
| BIOWL1-15 | 2026-09-04 18:04:06 | 49.78865 | 8.78008 | 99° | 24km/h | 22005m | 4.8m/s | -54.2°C | 0.6% | 42.7hPa | 2.7V | 03:45:22 | 01:34:14 | 00:00:00 | |
| DO3MHA-11 | 2026-09-04 18:04:04 | 49.78865 | 8.78008 | 99° | 24km/h | 22005m | 4.8m/s | -54.1°C | 4.0% | 42.6hPa | 2.7V | 00:00:00 | 01:34:14 | 00:00:00 | |
| DM0DOS-11 | 2026-09-04 18:04:03 | 49.78872 | 8.77957 | 96° | 26km/h | 21978m | 5.5m/s | -54.2°C | 4% | 42.9hPa | 2.7V | 03:44:44 | 01:34:08 | 00:00:00 | |
| HSKMA3-T | 2026-09-04 18:03:59 | 49.78871 | 8.77966 | 98° | 22km/h | 21983m | 4m/s | -54.2°C | 0.5% | 42.9hPa | 2.7V | 03:45:22 | 01:34:09 | 00:00:00 | |
| DF7PN | 2026-09-04 18:03:57 | 49.78872 | 8.77946 | 94° | 27km/h | 21973m | 4.8m/s | -54.2°C | 1.1% | 42.9hPa | 2.6V | 00:00:00 | 00:00:00 | 00:00:00 | |
| DL1XH-west | 2026-09-04 18:03:56 | 49.78575 | 8.76724 | 60° | 37km/h | 21317m | 4.2m/s | -53.7°C | 0.5% | 47.6hPa | 2.6V | 03:47:04 | 01:31:50 | 00:00:00 | |
| DL1XH-15 | 2026-09-04 18:03:56 | 49.78865 | 8.77884 | 77° | 26km/h | 21945m | 5.1m/s | -54.4°C | 4.1% | 43.1hPa | 2.6V | 03:44:51 | 01:34:01 | 00:00:00 | |
| DL3AQ-11 | 2026-09-04 18:03:55 | 49.78872 | 8.77924 | 82° | 27km/h | 21964m | 5.5m/s | -54.2°C | 1.1% | 43.0hPa | 2.6V | 00:00:00 | 00:00:00 | 00:00:00 | |
| DO3MHA-11 | 2026-09-04 18:03:54 | 49.78871 | 8.77913 | 75° | 24km/h | 21959m | 4.8m/s | -54.2°C | 4.0% | 42.9hPa | 2.6V | 03:44:00 | 01:34:04 | 00:00:00 | |
| DM0DOS-11 | 2026-09-04 18:03:53 | 49.78861 | 8.77857 | 70° | 22km/h | 21931m | 5.6m/s | -54.4°C | 4.1% | 43.2hPa | 2.6V | 03:44:54 | 01:33:58 | 00:00:00 | |
| BIOWL1-15 | 2026-09-04 18:03:53 | 49.78869 | 8.77903 | 72° | 26km/h | 21954m | 3.9m/s | -54.3°C | 0.6% | 43hPa | 2.6V | 03:45:22 | 01:34:03 | 00:00:00 | |
| DJ2DS-15 | 2026-09-04 18:03:53 | 49.78869 | 8.77903 | 72° | 27km/h | 21954m | 3.9m/s | -54.2°C | 4.1% | 43.0hPa | 2.6V | 00:00:00 | 01:34:03 | 00:00:00 | |
| DL1XH1-15 | 2026-09-04 18:03:52 | 49.78859 | 8.77849 | 66° | 22km/h | 21926m | 4.6m/s | -54.4°C | 4.1% | 43.2hPa | 2.6V | 03:44:55 | 01:33:57 | 00:00:00 | |
| DF8AY | 2026-09-04 18:03:51 | 49.78865 | 8.77884 | 78° | 26km/h | 21945m | 5.1m/s | 0°C | 0% | 43.1hPa | 2.6V | 03:45:22 | 01:34:01 | 00:00:00 | |
| HSKMA3-T | 2026-09-04 18:03:49 | 49.78863 | 8.77865 | 75° | 24km/h | 21936m | 4.4m/s | -54.4°C | 0.6% | 43.2hPa | 2.7V | 03:45:22 | 01:33:59 | 00:00:00 | |
| AU51GT2 | 2026-09-04 18:03:48 | 49.78861 | 8.77857 | 70° | 20km/h | 21931m | 5.6m/s | -54.4°C | 1.1% | 43.2hPa | 2.7V | 00:00:00 | 00:00:00 | 00:00:00 | |
| DC4HF-4 | 2026-09-04 18:03:46 | 49.78855 | 8.77832 | 75° | 24km/h | 21917m | 5.5m/s | -54.3°C | 1.1% | 43.3hPa | 2.7V | 00:00:00 | 00:00:00 | 00:00:00 | |
| DL1XH-15 | 2026-09-04 18:03:45 | 49.78844 | 8.77779 | 60° | 29km/h | 21894m | 4.7m/s | -54.3°C | 4.1% | 43.5hPa | 2.7V | 03:45:02 | 01:33:50 | 00:00:00 | |
| BIOWL1-15 | 2026-09-04 18:03:44 | 49.78850 | 8.77800 | 73° | 29km/h | 21904m | 4.2m/s | -54.3°C | 0.6% | 43.4hPa | 2.6V | 03:45:22 | 01:33:52 | 00:00:00 | |
| DO3MHA-11 | 2026-09-04 18:03:44 | 49.78853 | 8.77822 | 79° | 29km/h | 21912m | 4.5m/s | -54.2°C | 4.0% | 43.3hPa | 2.7V | 00:00:00 | 01:33:54 | 00:00:00 | |
| DM0DOS-11 | 2026-09-04 18:03:43 | 49.78837 | 8.77759 | 61° | 29km/h | 21886m | 4.3m/s | -54.3°C | 4.1% | 43.5hPa | 2.6V | 03:45:04 | 01:33:48 | 00:00:00 | |
| DL1XH1-15 | 2026-09-04 18:03:42 | 49.78834 | 8.77749 | 66° | 29km/h | 21881m | 5.1m/s | -54.2°C | 4.1% | 43.5hPa | 2.6V | 03:45:05 | 01:33:47 | 00:00:00 | |
| HSKMA3-T | 2026-09-04 18:03:38 | 49.78837 | 8.77759 | 61° | 29km/h | 21886m | 4.3m/s | -54.3°C | 0.6% | 43.5hPa | 2.6V | 03:45:22 | 01:33:48 | 00:00:00 | |
| DL1XH-15 | 2026-09-04 18:03:35 | 49.78811 | 8.77690 | 47° | 24km/h | 21849m | 5.2m/s | -54.2°C | 4.1% | 43.7hPa | 2.7V | 03:45:12 | 01:33:40 | 00:00:00 | |
| BIOWL1-15 | 2026-09-04 18:03:35 | 49.78816 | 8.77697 | 45° | 24km/h | 21854m | 4.2m/s | -54.2°C | 0.6% | 43.7hPa | 2.7V | 03:45:22 | 01:33:41 | 00:00:00 | |
| DO3MHA-11 | 2026-09-04 18:03:34 | 49.78826 | 8.77719 | 65° | 24km/h | 21869m | 4.4m/s | -54.2°C | 4.0% | 43.6hPa | 2.6V | 00:00:00 | 01:33:44 | 00:00:00 | |
| DM0DOS-11 | 2026-09-04 18:03:33 | 49.78804 | 8.77675 | 56° | 24km/h | 21840m | 3.9m/s | -54.2°C | 4.1% | 43.8hPa | 2.6V | 03:45:14 | 01:33:38 | 00:00:00 | |
| DJ2DS-15 | 2026-09-04 18:03:33 | 49.78823 | 8.77710 | 58° | 20km/h | 21864m | 5.1m/s | -54.2°C | 4.1% | 43.6hPa | 2.6V | 00:00:00 | 01:33:43 | 00:00:00 | |
| DL1XH1-15 | 2026-09-04 18:03:32 | 49.78801 | 8.77667 | 55° | 24km/h | 21836m | 4.5m/s | -54.2°C | 4% | 43.9hPa | 2.6V | 03:45:15 | 01:33:37 | 00:00:00 | |
| HSKMA3-T | 2026-09-04 18:03:27 | 49.78800 | 8.77667 | 56° | 24km/h | 21836m | 4.5m/s | -54.2°C | 0.5% | 43.9hPa | 2.6V | 03:45:22 | 01:33:37 | 00:00:00 | |
| DF8AY | 2026-09-04 18:03:26 | 49.78797 | 8.77660 | 54° | 20km/h | 21830m | 5.8m/s | 0°C | 0% | 43.9hPa | 2.7V | 03:45:22 | 01:33:36 | 00:00:00 | |
| DF7PN | 2026-09-04 18:03:26 | 49.78797 | 8.77660 | 53° | 20km/h | 21830m | 5.8m/s | -54.1°C | 1.1% | 43.9hPa | 2.6V | 00:00:00 | 00:00:00 | 00:00:00 | |
| SFWM-10 | 2026-09-04 18:03:25 | 49.78797 | 8.77660 | 55° | 20km/h | 21831m | 5.8m/s | -54.1°C | 1.1% | 43.9hPa | 2.6V | 03:45:00 | 00:00:00 | 00:00:00 | |
| DO3MHA-11 | 2026-09-04 18:03:24 | 49.78792 | 8.77648 | 62° | 18km/h | 21821m | 4.6m/s | -54.1°C | 4.0% | 43.9hPa | 2.6V | 00:00:00 | 01:33:34 | 00:00:00 | |
| DM0DOS-11 | 2026-09-04 18:03:23 | 49.78779 | 8.77614 | 36° | 20km/h | 21791m | 4.5m/s | -54.2°C | 4.1% | 44.1hPa | 2.6V | 03:45:24 | 01:33:28 | 00:00:00 | |
| DL1XH1-15 | 2026-09-04 18:03:22 | 49.78775 | 8.77609 | 37° | 22km/h | 21787m | 4.7m/s | -54.2°C | 4% | 44.2hPa | 2.7V | 03:45:25 | 01:33:27 | 00:00:00 | |
| BIOWL1-15 | 2026-09-04 18:03:20 | 49.78785 | 8.77624 | 56° | 16km/h | 21802m | 5.4m/s | -54.1°C | 0.5% | 44.1hPa | 2.7V | 03:45:22 | 01:33:30 | 00:00:00 | |
| DL0LBS | 2026-09-04 18:03:20 | 49.78785 | 8.77623 | 57° | 16km/h | 21802m | 5.4m/s | -54.1°C | 1.1% | 44.1hPa | 2.7V | 03:45:00 | 00:00:00 | 00:00:00 | |
| DL1XH-15 | 2026-09-04 18:03:17 | 49.78770 | 8.77604 | 42° | 24km/h | 21782m | 5.5m/s | -54.2°C | 4% | 44.2hPa | 2.7V | 03:45:26 | 01:33:26 | 00:00:00 | |
| HSKMA3-T | 2026-09-04 18:03:16 | 49.78770 | 8.77604 | 42° | 24km/h | 21782m | 5.5m/s | -54.2°C | 0.5% | 44.2hPa | 2.7V | 03:46:13 | 01:33:26 | 00:00:00 | |
| DO3DL | 2026-09-04 18:03:15 | 49.78770 | 8.77604 | 43° | 24km/h | 21782m | 5.5m/s | -54.2°C | 1.1% | 44.2hPa | 2.6V | 03:46:00 | 00:00:00 | 00:00:00 | |
| DO3MHA-11 | 2026-09-04 18:03:14 | 49.78762 | 8.77591 | 44° | 15km/h | 21773m | 3.8m/s | -54.3°C | 4.1% | 44.2hPa | 2.6V | 03:45:00 | 01:33:24 | 00:00:00 | |
| DJ2DS-15 | 2026-09-04 18:03:13 | 49.78758 | 8.77586 | 41° | 16km/h | 21769m | 5.3m/s | -54.3°C | 4.1% | 44.3hPa | 2.7V | 00:00:00 | 01:33:23 | 00:00:00 | |
| DL1XH1-15 | 2026-09-04 18:03:12 | 49.78743 | 8.77564 | 69° | 13km/h | 21739m | 4.5m/s | -54.3°C | 4.2% | 44.5hPa | 2.7V | 03:45:35 | 01:33:17 | 00:00:00 | |
| BIOWL1-15 | 2026-09-04 18:03:10 | 49.78748 | 8.77575 | 35° | 11km/h | 21754m | 4m/s | -54.4°C | 0.6% | 44.4hPa | 2.6V | 03:46:13 | 01:33:20 | 00:00:00 | |
| DO3DL | 2026-09-04 18:03:09 | 49.78748 | 8.77575 | 36° | 11km/h | 21754m | 4.0m/s | -54.4°C | 1.1% | 44.4hPa | 2.6V | 03:46:00 | 00:00:00 | 00:00:00 | |
| NBG1-10 | 2026-09-04 18:03:08 | 49.78744 | 8.77568 | 67° | 18km/h | 21744m | 5.1m/s | -54.3°C | 4.2% | 44.4hPa | 2.6V | 00:00:00 | 01:33:18 | 00:00:00 | |
| DL1XH-15 | 2026-09-04 18:03:07 | 49.78740 | 8.77555 | 50° | 11km/h | 21730m | 5.6m/s | -54.2°C | 4.1% | 44.6hPa | 2.6V | 03:45:37 | 01:33:15 | 00:00:00 | |
| DF8AY | 2026-09-04 18:03:05 | 49.78740 | 8.77555 | 51° | 11km/h | 21730m | 5.6m/s | 0°C | 0% | 0hPa | 2.6V | 18:12:15 | 01:33:15 | 00:00:00 | |
| HSKMA3-T | 2026-09-04 18:03:04 | 49.78738 | 8.77552 | 36° | 15km/h | 21725m | 4.7m/s | -54.2°C | 0.6% | 44.6hPa | 2.6V | 03:46:13 | 01:33:14 | 00:00:00 | |
| DO3MHA-11 | 2026-09-04 18:03:04 | 49.78738 | 8.77552 | 37° | 18km/h | 21725m | 4.7m/s | -54.1°C | 4.1% | 44.6hPa | 2.7V | 00:00:00 | 01:33:14 | 00:00:00 | |
| DB0UT-7 | 2026-09-04 18:03:03 | 49.78735 | 8.77548 | 35° | 20km/h | 21720m | 4.5m/s | -54.1°C | 4.1% | 44.6hPa | 2.7V | 00:00:00 | 00:00:00 | 00:00:00 | |
| DL1XH1-15 | 2026-09-04 18:03:02 | 49.78713 | 8.77513 | 59° | 16km/h | 21691m | 4.4m/s | -53.9°C | 4.1% | 44.8hPa | 2.7V | 03:45:45 | 01:33:07 | 00:00:00 | |
| BIOWL1-15 | 2026-09-04 18:03:00 | 49.78723 | 8.77532 | 48° | 24km/h | 21705m | 4.1m/s | -54°C | 0.6% | 44.8hPa | 2.6V | 03:46:13 | 01:33:10 | 00:00:00 | |
| DJ2DS-15 | 2026-09-04 18:03:00 | 49.78723 | 8.77532 | 48° | 22km/h | 21705m | 4.1m/s | -54.0°C | 1.1% | 44.8hPa | 2.7V | 00:00:00 | 00:00:00 | 00:00:00 | |
| DL3AQ-11 | 2026-09-04 18:02:59 | 49.78719 | 8.77525 | 48° | 22km/h | 21701m | 4.6m/s | -54.0°C | 1.1% | 44.8hPa | 2.7V | 00:00:00 | 00:00:00 | 00:00:00 | |
| DL1XH-15 | 2026-09-04 18:02:58 | 49.78716 | 8.77483 | 114° | 15km/h | 21667m | 5.2m/s | -53.7°C | 4% | 45hPa | 2.7V | 03:45:50 | 01:33:02 | 00:00:00 | |
| DF8AY | 2026-09-04 18:02:55 | 49.78711 | 8.77501 | 99° | 16km/h | 21681m | 6.1m/s | 0°C | 0% | 0hPa | 2.6V | 18:12:15 | 01:33:05 | 00:00:00 | |
| HSKMA3-T | 2026-09-04 18:02:53 | 49.78714 | 8.77488 | 119° | 18km/h | 21671m | 3.7m/s | -53.7°C | 0.5% | 45hPa | 2.7V | 03:46:13 | 01:33:03 | 00:00:00 | |
| DJ2DS-15 | 2026-09-04 18:02:53 | 49.78714 | 8.77488 | 119° | 20km/h | 21671m | 3.7m/s | -53.7°C | 4.0% | 44.9hPa | 2.7V | 03:45:00 | 01:33:03 | 00:00:00 | |
| DK5PH-5 | 2026-09-04 18:02:51 | 49.78717 | 8.77478 | 96° | 22km/h | 21662m | 4.8m/s | -53.6°C | 3.9% | 45.0hPa | 2.7V | 03:45:00 | 01:33:01 | 00:00:00 | |
| DM0DOS-11 | 2026-09-04 18:02:50 | 49.78712 | 8.77462 | 55° | 22km/h | 21648m | 5.8m/s | -53.5°C | 3.9% | 45.1hPa | 2.7V | 03:45:54 | 01:32:58 | 00:00:00 | |
| BIOWL1-15 | 2026-09-04 18:02:49 | 49.78715 | 8.77468 | 59° | 16km/h | 21653m | 4.8m/s | -53.5°C | 0.5% | 45.1hPa | 2.6V | 03:46:13 | 01:32:59 | 00:00:00 | |
| DL3AQ-11 | 2026-09-04 18:02:46 | 49.78705 | 8.77446 | 50° | 26km/h | 21638m | 4.0m/s | -53.5°C | 1.1% | 45.2hPa | 2.7V | 00:00:00 | 00:00:00 | 00:00:00 | |
| HSKMA3-T | 2026-09-04 18:02:43 | 49.78692 | 8.77426 | 45° | 20km/h | 21623m | 4.8m/s | -53.4°C | 0.5% | 45.3hPa | 2.7V | 03:46:13 | 01:32:53 | 00:00:00 | |
| DO3DL | 2026-09-04 18:02:43 | 49.78692 | 8.77425 | 46° | 20km/h | 21624m | 4.8m/s | -53.4°C | 1.1% | 45.3hPa | 2.6V | 03:46:00 | 00:00:00 | 00:00:00 | |
| DL1XH1-15 | 2026-09-04 18:02:42 | 49.78688 | 8.77381 | 94° | 26km/h | 21595m | 4.3m/s | -53.5°C | 3.9% | 45.5hPa | 2.6V | 03:46:05 | 01:32:47 | 00:00:00 | |
| DL4BBY-15 | 2026-09-04 18:02:41 | 49.78687 | 8.77415 | 70° | 27km/h | 21615m | 4.4m/s | -54.3°C | 0% | 0hPa | 2.7V | 00:00:00 | 00:00:00 | 00:00:00 | |
| DM0DOS-11 | 2026-09-04 18:02:39 | 49.78687 | 8.77391 | 96° | 26km/h | 21599m | 4.5m/s | -53.4°C | 3.9% | 45.5hPa | 2.7V | 03:46:04 | 01:32:48 | 00:00:00 | |
| BIOWL1-15 | 2026-09-04 18:02:38 | 49.78687 | 8.77391 | 96° | 26km/h | 21599m | 4.5m/s | -53.4°C | 0.5% | 45.5hPa | 2.7V | 03:46:13 | 01:32:48 | 00:00:00 | |
| DL0LBS | 2026-09-04 18:02:37 | 49.78687 | 8.77391 | 97° | 26km/h | 21600m | 4.5m/s | -53.4°C | 1.1% | 45.5hPa | 2.7V | 03:46:00 | 00:00:00 | 00:00:00 | |
| SONCRA | 2026-09-04 18:02:36 | 49.78687 | 8.77362 | 81° | 20km/h | 21585m | 4.4m/s | -53.5°C | 1.1% | 45.6hPa | 2.7V | 00:00:00 | 00:00:00 | 00:00:00 | |
| NBG1-10 | 2026-09-04 18:02:35 | 49.78687 | 8.77362 | 82° | 29km/h | 21585m | 4.4m/s | -53.5°C | 3.9% | 45.5hPa | 2.7V | 00:00:00 | 01:32:45 | 00:00:00 | |
| DC4HF-4 | 2026-09-04 18:02:34 | 49.78685 | 8.77346 | 75° | 22km/h | 21576m | 5.8m/s | -53.6°C | 1.1% | 45.7hPa | 2.7V | 00:00:00 | 00:00:00 | 00:00:00 | |
| DJ2DS-15 | 2026-09-04 18:02:33 | 49.78685 | 8.77346 | 76° | 26km/h | 21576m | 5.8m/s | -53.5°C | 3.9% | 45.6hPa | 2.7V | 00:00:00 | 01:32:43 | 00:00:00 | |
| DL1XH1-15 | 2026-09-04 18:02:32 | 49.78672 | 8.77300 | 70° | 22km/h | 21547m | 3.9m/s | -53.6°C | 3.8% | 45.9hPa | 2.6V | 03:46:15 | 01:32:37 | 00:00:00 | |
| HSKMA3-T | 2026-09-04 18:02:32 | 49.78683 | 8.77337 | 73° | 24km/h | 21570m | 5m/s | -53.6°C | 0.5% | 45.7hPa | 2.6V | 03:46:13 | 01:32:42 | 00:00:00 | |
| DF2AP-13 | 2026-09-04 18:02:31 | 49.78682 | 8.77329 | 68° | 29km/h | 21566m | 4.3m/s | -53.6°C | 3.9% | 45.7hPa | 2.7V | 03:46:00 | 01:32:41 | 00:00:00 | |
| DM0DOS-11 | 2026-09-04 18:02:29 | 49.78674 | 8.77308 | 62° | 20km/h | 21551m | 3.8m/s | -53.6°C | 3.8% | 45.8hPa | 2.7V | 03:46:14 | 01:32:38 | 00:00:00 | |
| BIOWL1-15 | 2026-09-04 18:02:27 | 49.78672 | 8.77300 | 71° | 22km/h | 21547m | 3.9m/s | -53.7°C | 0.4% | 45.9hPa | 2.6V | 03:47:04 | 01:32:37 | 00:00:00 | |
| HEMX73-11 | 2026-09-04 18:02:25 | 49.78671 | 8.77292 | 80° | 24km/h | 21543m | 5.6m/s | -53.7°C | 1.1% | 45.9hPa | 2.6V | 03:47:00 | 00:00:00 | 00:00:00 | |
| DO3MHA-11 | 2026-09-04 18:02:24 | 49.78670 | 8.77269 | 93° | 29km/h | 21532m | 4.8m/s | -53.7°C | 3.9% | 45.9hPa | 2.6V | 00:00:00 | 01:32:34 | 00:00:00 | |
| DO3DL | 2026-09-04 18:02:23 | 49.78670 | 8.77269 | 94° | 31km/h | 21532m | 4.8m/s | -53.7°C | 1.1% | 46.0hPa | 2.6V | 03:47:00 | 00:00:00 | 00:00:00 | |
| DL1XH1-15 | 2026-09-04 18:02:22 | 49.78668 | 8.77193 | 79° | 31km/h | 21498m | 5.1m/s | -53.9°C | 4.1% | 46.2hPa | 2.6V | 03:46:25 | 01:32:27 | 00:00:00 | |
| HSKMA3-T | 2026-09-04 18:02:20 | 49.78671 | 8.77225 | 85° | 26km/h | 21512m | 3.8m/s | -53.8°C | 0.5% | 46.1hPa | 2.7V | 03:47:55 | 01:32:30 | 00:00:00 | |
| DM0DOS-11 | 2026-09-04 18:02:19 | 49.78670 | 8.77204 | 80° | 29km/h | 21503m | 5.8m/s | -53.9°C | 4% | 46.2hPa | 2.6V | 03:46:24 | 01:32:28 | 00:00:00 | |
| DL1XH-west | 2026-09-04 18:02:18 | 49.78556 | 8.76663 | 61° | 37km/h | 21292m | 5.5m/s | -53.7°C | 0.5% | 47.7hPa | 2.7V | 03:47:55 | 01:31:45 | 00:00:00 | |
| BIOWL1-15 | 2026-09-04 18:02:16 | 49.78667 | 8.77181 | 79° | 31km/h | 21494m | 4.3m/s | -53.9°C | 0.6% | 46.2hPa | 2.6V | 03:47:04 | 01:32:26 | 00:00:00 | |
| AU51GT2 | 2026-09-04 18:02:15 | 49.78664 | 8.77157 | 81° | 29km/h | 21483m | 4.6m/s | -53.9°C | 1.1% | 46.3hPa | 2.7V | 00:00:00 | 00:00:00 | 00:00:00 | |
| DO3MHA-11 | 2026-09-04 18:02:14 | 49.78664 | 8.77157 | 82° | 37km/h | 21484m | 4.6m/s | -53.9°C | 4.0% | 46.3hPa | 2.7V | 00:00:00 | 01:32:24 | 00:00:00 | |
| DJ2DS-15 | 2026-09-04 18:02:13 | 49.78663 | 8.77144 | 85° | 35km/h | 21479m | 3.9m/s | -53.9°C | 4.0% | 46.3hPa | 2.7V | 00:00:00 | 01:32:23 | 00:00:00 | |
| DL1XH1-15 | 2026-09-04 18:02:12 | 49.78664 | 8.77052 | 94° | 35km/h | 21449m | 4m/s | -53.9°C | 4% | 46.6hPa | 2.7V | 03:46:35 | 01:32:17 | 00:00:00 | |
| DB0ND-19 | 2026-09-04 18:02:11 | 49.78662 | 8.77115 | 88° | 40km/h | 21469m | 5.3m/s | -54.0°C | 1.1% | 46.5hPa | 2.6V | 00:00:00 | 00:00:00 | 00:00:00 | |
| DM0DOS-11 | 2026-09-04 18:02:09 | 49.78663 | 8.77066 | 94° | 38km/h | 21454m | 5.3m/s | -53.9°C | 4% | 46.5hPa | 2.6V | 03:46:34 | 01:32:18 | 00:00:00 | |
| HSKMA3-T | 2026-09-04 18:02:09 | 49.78662 | 8.77082 | 93° | 42km/h | 21459m | 5.2m/s | -54°C | 0.5% | 46.5hPa | 2.6V | 03:47:55 | 01:32:19 | 00:00:00 | |
| BIOWL1-15 | 2026-09-04 18:02:07 | 49.78664 | 8.77026 | 88° | 33km/h | 21440m | 5.4m/s | -53.9°C | 0.6% | 46.6hPa | 2.7V | 03:47:04 | 01:32:15 | 00:00:00 | |
| DL3AQ-11 | 2026-09-04 18:02:07 | 49.78664 | 8.77039 | 93° | 33km/h | 21445m | 4.8m/s | -53.9°C | 1.1% | 46.6hPa | 2.6V | 00:00:00 | 00:00:00 | 00:00:00 | |
| SONCRA | 2026-09-04 18:02:05 | 49.78664 | 8.77026 | 87° | 31km/h | 21440m | 5.4m/s | -53.9°C | 1.1% | 46.6hPa | 2.6V | 00:00:00 | 00:00:00 | 00:00:00 | |
| DO3MHA-11 | 2026-09-04 18:02:04 | 49.78663 | 8.77014 | 81° | 33km/h | 21435m | 4.3m/s | -53.9°C | 4.0% | 46.6hPa | 2.6V | 00:00:00 | 01:32:14 | 00:00:00 | |
| DM0DOS-11 | 2026-09-04 18:02:03 | 49.78645 | 8.76954 | 64° | 38km/h | 21407m | 5.2m/s | -53.9°C | 4% | 46.9hPa | 2.6V | 03:46:44 | 01:32:08 | 00:00:00 | |
| DL9PN | 2026-09-04 18:02:03 | 49.78638 | 8.76924 | 74° | 42km/h | 21398m | 4.3m/s | -53.9°C | 1.1% | 47.0hPa | 2.6V | 00:00:00 | 00:00:00 | 00:00:00 | |
| DL1XH1-15 | 2026-09-04 18:02:02 | 49.78641 | 8.76940 | 70° | 42km/h | 21402m | 4.4m/s | -53.9°C | 4% | 46.9hPa | 2.6V | 03:46:45 | 01:32:07 | 00:00:00 | |
| HSKMA3-T | 2026-09-04 18:01:59 | 49.78649 | 8.76966 | 60° | 33km/h | 21412m | 4.9m/s | -53.9°C | 0.6% | 46.8hPa | 2.6V | 03:47:55 | 01:32:09 | 00:00:00 | |
| BIOWL1-15 | 2026-09-04 18:01:55 | 49.78635 | 8.76908 | 76° | 42km/h | 21393m | 5.2m/s | -53.9°C | 0.5% | 47hPa | 2.7V | 03:47:04 | 01:32:05 | 00:00:00 | |
| DO3MHA-11 | 2026-09-04 18:01:54 | 49.78632 | 8.76893 | 77° | 37km/h | 21388m | 4.9m/s | -53.8°C | 4.0% | 47.0hPa | 2.7V | 03:46:00 | 01:32:04 | 00:00:00 | |
| DM0DOS-11 | 2026-09-04 18:01:53 | 49.78610 | 8.76813 | 59° | 38km/h | 21358m | 5m/s | -53.9°C | 4% | 47.3hPa | 2.7V | 03:46:54 | 01:31:58 | 00:00:00 | |
| DJ2DS-15 | 2026-09-04 18:01:53 | 49.78630 | 8.76879 | 74° | 35km/h | 21384m | 4.0m/s | -53.8°C | 4.0% | 47.0hPa | 2.6V | 00:00:00 | 01:32:03 | 00:00:00 | |
| DL1XH1-15 | 2026-09-04 18:01:52 | 49.78606 | 8.76801 | 59° | 35km/h | 21353m | 5.6m/s | -54°C | 4.1% | 47.3hPa | 2.6V | 03:46:55 | 01:31:57 | 00:00:00 | |
| HSKMA3-T | 2026-09-04 18:01:48 | 49.78610 | 8.76813 | 60° | 38km/h | 21358m | 5m/s | -54°C | 0.6% | 47.3hPa | 2.7V | 03:47:55 | 01:31:58 | 00:00:00 | |
| BIOWL1-15 | 2026-09-04 18:01:45 | 49.78597 | 8.76779 | 59° | 29km/h | 21342m | 5m/s | -53.9°C | 0.6% | 47.4hPa | 2.6V | 03:47:04 | 01:31:55 | 00:00:00 | |
| AU51GT2 | 2026-09-04 18:01:44 | 49.78589 | 8.76759 | 57° | 31km/h | 21332m | 5.0m/s | -53.8°C | -1.0% | 47.5hPa | 2.6V | 00:00:00 | 00:00:00 | 00:00:00 | |
| DL1XH1-15 | 2026-09-04 18:01:42 | 49.78564 | 8.76688 | 65° | 33km/h | 21302m | 4.2m/s | -53.7°C | 4% | 47.7hPa | 2.6V | 03:47:05 | 01:31:47 | 00:00:00 | |
| DO3DL | 2026-09-04 18:01:41 | 49.78585 | 8.76747 | 58° | 35km/h | 21327m | 5.5m/s | -53.8°C | 1.1% | 47.5hPa | 2.6V | 03:47:00 | 00:00:00 | 00:00:00 | |
| DL4BBY-15 | 2026-09-04 18:01:40 | 49.78575 | 8.76724 | 60° | 33km/h | 21317m | 4.2m/s | -54.6°C | 0% | 0hPa | 2.6V | 00:00:00 | 00:00:00 | 00:00:00 | |
| DJTTGO | 2026-09-04 18:01:39 | 49.78575 | 8.76724 | 61° | 37km/h | 21317m | 4.2m/s | -53.7°C | 1.1% | 47.6hPa | 2.6V | 03:47:00 | 00:00:00 | 00:00:00 | |
| DL1XH-15 | 2026-09-04 18:01:37 | 49.78560 | 8.76676 | 64° | 35km/h | 21298m | 4.7m/s | -53.7°C | 3.9% | 47.7hPa | 2.6V | 03:47:06 | 01:31:46 | 00:00:00 | |
| BIOWL1-15 | 2026-09-04 18:01:36 | 49.78551 | 8.76650 | 58° | 38km/h | 21288m | 4.5m/s | -53.6°C | 0.5% | 47.8hPa | 2.7V | 03:47:55 | 01:31:44 | 00:00:00 | |
| DL0LBS | 2026-09-04 18:01:35 | 49.78560 | 8.76676 | 65° | 35km/h | 21298m | 4.7m/s | -53.7°C | 1.1% | 47.7hPa | 2.6V | 03:47:00 | 00:00:00 | 00:00:00 | |
| DO3MHA-11 | 2026-09-04 18:01:34 | 49.78551 | 8.76650 | 59° | 35km/h | 21288m | 4.4m/s | -53.6°C | 3.9% | 47.7hPa | 2.6V | 00:00:00 | 01:31:44 | 00:00:00 | |
| DJ2DS-15 | 2026-09-04 18:01:33 | 49.78545 | 8.76637 | 58° | 33km/h | 21284m | 3.9m/s | -53.6°C | 3.9% | 47.8hPa | 2.6V | 03:47:00 | 01:31:43 | 00:00:00 | |
| DL1XH1-15 | 2026-09-04 18:01:32 | 49.78519 | 8.76570 | 59° | 35km/h | 21256m | 5.4m/s | -53.8°C | 4% | 48hPa | 2.7V | 03:47:15 | 01:31:37 | 00:00:00 | |
| HSKMA3-T | 2026-09-04 18:01:31 | 49.78535 | 8.76613 | 58° | 35km/h | 21274m | 5.3m/s | -53.7°C | 0.5% | 47.9hPa | 2.6V | 03:47:55 | 01:31:41 | 00:00:00 | |
| DF2AP-13 | 2026-09-04 18:01:31 | 49.78535 | 8.76613 | 58° | 31km/h | 21274m | 5.2m/s | -53.6°C | 4.0% | 47.9hPa | 2.6V | 00:00:00 | 01:31:41 | 00:00:00 | |
| SONDE2-11 | 2026-09-04 18:01:29 | 49.78523 | 8.76581 | 60° | 31km/h | 21260m | 4.5m/s | -53.8°C | -1.0% | -1.0hPa | 2.7V | 00:00:00 | 00:00:00 | 00:00:00 | |
| AM1SDL-15 | 2026-09-04 18:01:28 | 49.78523 | 8.76581 | 61° | 31km/h | 21261m | 4.5m/s | -53.7°C | 3.9% | 47.9hPa | 2.7V | 00:00:00 | 01:31:38 | 00:00:00 | |
| DL1XH-15 | 2026-09-04 18:01:27 | 49.78506 | 8.76534 | 63° | 33km/h | 21242m | 5.7m/s | -53.7°C | 4% | 48.1hPa | 2.6V | 03:47:18 | 01:31:34 | 00:00:00 | |
| DO1YAY-16 | 2026-09-04 18:01:27 | 49.78519 | 8.76570 | 59° | 33km/h | 21256m | 5.4m/s | -53.8°C | 1.1% | 48.0hPa | 2.6V | 00:00:00 | 00:00:00 | 00:00:00 | |
| DF1GD-15 | 2026-09-04 18:01:26 | 49.78519 | 8.76569 | 60° | 35km/h | 21256m | 5.4m/s | -53.8°C | 1.2% | 48.0hPa | 2.6V | 03:47:00 | 00:00:00 | 00:00:00 | |
| DL1ZP-14 | 2026-09-04 18:01:25 | 49.78510 | 8.76546 | 60° | 35km/h | 21247m | 3.8m/s | -53.7°C | 1.1% | 48.1hPa | 2.6V | 00:00:00 | 00:00:00 | 00:00:00 | |
| DO3MHA-11 | 2026-09-04 18:01:24 | 49.78506 | 8.76534 | 64° | 29km/h | 21242m | 5.7m/s | -53.6°C | 4.0% | 48.0hPa | 2.6V | 00:00:00 | 01:31:34 | 00:00:00 | |
| DM0DOS-11 | 2026-09-04 18:01:23 | 49.78484 | 8.76474 | 58° | 27km/h | 21212m | 5m/s | -53.8°C | 4% | 48.3hPa | 2.6V | 03:47:24 | 01:31:28 | 00:00:00 | |
| BIOWL1-15 | 2026-09-04 18:01:23 | 49.78502 | 8.76523 | 67° | 31km/h | 21236m | 5.1m/s | -53.7°C | 0.5% | 48.1hPa | 2.6V | 03:47:55 | 01:31:33 | 00:00:00 | |
| DF3TZ-5 | 2026-09-04 18:01:22 | 49.78499 | 8.76513 | 64° | 27km/h | 21232m | 4.6m/s | -53.7°C | 1.1% | 48.2hPa | 2.6V | 00:00:00 | 00:00:00 | 00:00:00 | |
| DO3DL | 2026-09-04 18:01:21 | 49.78499 | 8.76512 | 65° | 29km/h | 21232m | 4.6m/s | -53.7°C | 1.1% | 48.2hPa | 2.6V | 03:47:00 | 00:00:00 | 00:00:00 | |
| BIOWL7-15 | 2026-09-04 18:01:19 | 49.78492 | 8.76493 | 59° | 29km/h | 21221m | 4.9m/s | -53.7°C | 1.1% | 48.3hPa | 2.6V | 03:47:00 | 00:00:00 | 00:00:00 | |
| DO2KSM | 2026-09-04 18:01:18 | 49.78488 | 8.76483 | 58° | 29km/h | 21217m | 3.8m/s | -53.8°C | 1.1% | 48.3hPa | 2.6V | 00:00:00 | 00:00:00 | 00:00:00 | |
| DL1XH-15 | 2026-09-04 18:01:17 | 49.78471 | 8.76433 | 61° | 33km/h | 21193m | 5.3m/s | -53.8°C | 3.9% | 48.5hPa | 2.6V | 03:47:28 | 01:31:24 | 00:00:00 | |
| HSKMA3-T | 2026-09-04 18:01:15 | 49.78474 | 8.76444 | 62° | 31km/h | 21198m | 4.6m/s | -53.8°C | 0.5% | 48.5hPa | 2.7V | 03:47:55 | 01:31:25 | 00:00:00 | |
| DO3MHA-11 | 2026-09-04 18:01:14 | 49.78470 | 8.76433 | 62° | 31km/h | 21193m | 5.2m/s | -53.7°C | 3.9% | 48.4hPa | 2.6V | 03:47:00 | 01:31:24 | 00:00:00 | |
| DM0DOS-11 | 2026-09-04 18:01:13 | 49.78453 | 8.76360 | 78° | 29km/h | 21167m | 3.5m/s | -53.9°C | 4% | 48.7hPa | 2.6V | 03:47:34 | 01:31:18 | 00:00:00 | |
| BIOWL1-15 | 2026-09-04 18:01:13 | 49.78466 | 8.76421 | 61° | 37km/h | 21188m | 4.2m/s | -53.9°C | 0.5% | 48.5hPa | 2.6V | 03:47:55 | 01:31:23 | 00:00:00 | |
| AU51GT2 | 2026-09-04 18:01:13 | 49.78462 | 8.76409 | 63° | 35km/h | 21184m | 4.2m/s | 0°C | -1.0% | -1.0hPa | 2.6V | 00:00:00 | 00:00:00 | 00:00:00 | |
| DL1XH1-15 | 2026-09-04 18:01:12 | 49.78451 | 8.76349 | 74° | 29km/h | 21162m | 5.2m/s | -53.9°C | 4% | 48.7hPa | 2.6V | 03:47:35 | 01:31:17 | 00:00:00 | |
| KANTATE | 2026-09-04 18:01:11 | 49.78462 | 8.76409 | 65° | 37km/h | 21184m | 4.2m/s | -53.9°C | 1.1% | 48.5hPa | 2.6V | 03:47:00 | 00:00:00 | 00:00:00 | |
| DL4BBY-15 | 2026-09-04 18:01:10 | 49.78456 | 8.76384 | 75° | 26km/h | 21174m | 4.7m/s | -54.8°C | 0% | 0hPa | 2.6V | 00:00:00 | 00:00:00 | 00:00:00 | |
| DB0ND-19 | 2026-09-04 18:01:09 | 49.78454 | 8.76372 | 80° | 31km/h | 21170m | 3.5m/s | -53.9°C | 1.1% | 48.7hPa | 2.6V | 00:00:00 | 00:00:00 | 00:00:00 | |
| DL1XH-west | 2026-09-04 18:01:08 | 49.78304 | 8.76062 | 71° | 16km/h | 20904m | 3.9m/s | -53.7°C | 0.5% | 50.7hPa | 2.6V | 03:48:46 | 01:30:21 | 00:00:00 | |
| DL1XH-15 | 2026-09-04 18:01:07 | 49.78439 | 8.76301 | 59° | 24km/h | 21139m | 3.5m/s | -53.9°C | 4% | 48.9hPa | 2.6V | 03:47:40 | 01:31:12 | 00:00:00 | |
| DF1GD-15 | 2026-09-04 18:01:06 | 49.78451 | 8.76349 | 75° | 29km/h | 21163m | 5.2m/s | -53.9°C | 1.1% | 48.7hPa | 2.7V | 03:47:00 | 00:00:00 | 00:00:00 | |
| BIOWL9-15 | 2026-09-04 18:01:05 | 49.78446 | 8.76328 | 68° | 26km/h | 21153m | 4.1m/s | -53.9°C | 1.1% | 48.8hPa | 2.7V | 00:00:00 | 00:00:00 | 00:00:00 | |
| DO3MHA-11 | 2026-09-04 18:01:04 | 49.78444 | 8.76319 | 70° | 26km/h | 21148m | 5.4m/s | -53.9°C | 4.0% | 48.8hPa | 2.7V | 00:00:00 | 01:31:14 | 00:00:00 | |
| DM3KS-11 | 2026-09-04 18:01:03 | 49.78439 | 8.76301 | 59° | 22km/h | 21139m | 3.5m/s | -53.9°C | 1.1% | 48.9hPa | 2.7V | 00:00:00 | 00:00:00 | 00:00:00 | |
| DL1XH1-15 | 2026-09-04 18:01:02 | 49.78416 | 8.76267 | 48° | 26km/h | 21117m | 5m/s | -54°C | 4% | 49.1hPa | 2.7V | 03:47:45 | 01:31:07 | 00:00:00 | |
| HSKMA3-T | 2026-09-04 18:01:02 | 49.78439 | 8.76301 | 60° | 24km/h | 21139m | 3.5m/s | -53.9°C | 0.5% | 48.9hPa | 2.6V | 03:47:55 | 01:31:12 | 00:00:00 | |
| HARRO8 | 2026-09-04 18:01:01 | 49.78431 | 8.76287 | 42° | 24km/h | 21130m | 5.3m/s | -54.0°C | 1.1% | 49.0hPa | 2.6V | 00:00:00 | 00:00:00 | 00:00:00 | |
| DL3AQ-11 | 2026-09-04 18:01:00 | 49.78426 | 8.76281 | 38° | 26km/h | 21125m | 4.1m/s | -53.9°C | 1.1% | 49.0hPa | 2.6V | 00:00:00 | 00:00:00 | 00:00:00 | |
| DM0DOS-11 | 2026-09-04 18:00:58 | 49.78421 | 8.76274 | 41° | 27km/h | 21121m | 3.5m/s | -54°C | 4% | 49hPa | 2.6V | 03:47:44 | 01:31:08 | 00:00:00 | |
| SONDE2-11 | 2026-09-04 18:00:58 | 49.78410 | 8.76250 | 68° | 24km/h | 21108m | 4.3m/s | -54.1°C | -1.0% | -1.0hPa | 2.7V | 00:00:00 | 00:00:00 | 00:00:00 | |
| DO1YAY-16 | 2026-09-04 18:00:56 | 49.78410 | 8.76250 | 68° | 24km/h | 21108m | 4.3m/s | -54.1°C | 1.1% | 49.1hPa | 2.7V | 00:00:00 | 00:00:00 | 00:00:00 | |
| DO3DL | 2026-09-04 18:00:55 | 49.78412 | 8.76259 | 60° | 26km/h | 21113m | 5.0m/s | -54.1°C | 1.1% | 49.1hPa | 2.7V | 03:47:00 | 00:00:00 | 00:00:00 | |
| DO3MHA-11 | 2026-09-04 18:00:54 | 49.78407 | 8.76240 | 72° | 22km/h | 21104m | 4.4m/s | -54.0°C | 4.1% | 49.1hPa | 2.7V | 00:00:00 | 01:31:04 | 00:00:00 | |
| DJ2DS-15 | 2026-09-04 18:00:53 | 49.78405 | 8.76231 | 68° | 20km/h | 21099m | 4.6m/s | -54.0°C | 4.1% | 49.2hPa | 2.7V | 00:00:00 | 01:31:03 | 00:00:00 | |
| DL1XH1-15 | 2026-09-04 18:00:52 | 49.78387 | 8.76188 | 41° | 16km/h | 21072m | 4.2m/s | -54.1°C | 4.1% | 49.4hPa | 2.7V | 03:47:55 | 01:30:57 | 00:00:00 | |
| HSKMA3-T | 2026-09-04 18:00:51 | 49.78399 | 8.76212 | 58° | 26km/h | 21090m | 4m/s | -54.1°C | 0.6% | 49.3hPa | 2.7V | 03:47:55 | 01:31:01 | 00:00:00 | |
| DF7PN | 2026-09-04 18:00:51 | 49.78396 | 8.76205 | 54° | 22km/h | 21086m | 4.0m/s | -54.1°C | 1.2% | 49.3hPa | 2.6V | 00:00:00 | 00:00:00 | 00:00:00 | |
| KANTATE | 2026-09-04 18:00:50 | 49.78399 | 8.76212 | 58° | 26km/h | 21090m | 4.0m/s | -54.1°C | 1.1% | 49.3hPa | 2.6V | 03:47:00 | 00:00:00 | 00:00:00 | |
| DM0DOS-11 | 2026-09-04 18:00:48 | 49.78390 | 8.76192 | 50° | 16km/h | 21076m | 4.5m/s | -54.1°C | 4.1% | 49.4hPa | 2.6V | 03:47:54 | 01:30:58 | 00:00:00 | |
| DL1XH-15 | 2026-09-04 18:00:47 | 49.78376 | 8.76175 | 39° | 18km/h | 21058m | 3.7m/s | -54.1°C | 4% | 49.5hPa | 2.6V | 03:47:58 | 01:30:54 | 00:00:00 | |
| DC4HF-4 | 2026-09-04 18:00:46 | 49.78380 | 8.76180 | 35° | 18km/h | 21062m | 4.5m/s | -54.1°C | 1.1% | 49.5hPa | 2.6V | 00:00:00 | 00:00:00 | 00:00:00 | |
| DB0UT-9 | 2026-09-04 18:00:45 | 49.78380 | 8.76180 | 37° | 18km/h | 21062m | 4.5m/s | -54.1°C | 1.2% | 49.5hPa | 2.6V | 03:48:00 | 00:00:00 | 00:00:00 | |
| DO3MHA-11 | 2026-09-04 18:00:44 | 49.78376 | 8.76175 | 40° | 18km/h | 21058m | 3.6m/s | -54.0°C | 4.0% | 49.5hPa | 2.6V | 00:00:00 | 01:30:54 | 00:00:00 | |
| DM0DOS-11 | 2026-09-04 18:00:43 | 49.78358 | 8.76137 | 48° | 22km/h | 21031m | 3.9m/s | -53.9°C | 4% | 49.7hPa | 2.7V | 03:48:04 | 01:30:48 | 00:00:00 | |
| DL1XH1-15 | 2026-09-04 18:00:43 | 49.78355 | 8.76131 | 48° | 18km/h | 21027m | 3.9m/s | -53.8°C | 4% | 49.8hPa | 2.7V | 03:48:05 | 01:30:47 | 00:00:00 | |
| BIOWL1-15 | 2026-09-04 18:00:42 | 49.78365 | 8.76151 | 59° | 22km/h | 21040m | 4.9m/s | -53.9°C | 0.6% | 49.6hPa | 2.6V | 03:48:46 | 01:30:50 | 00:00:00 | |
| HSKMA3-T | 2026-09-04 18:00:41 | 49.78367 | 8.76158 | 62° | 20km/h | 21044m | 3.8m/s | -54°C | 0.5% | 49.6hPa | 2.7V | 03:48:46 | 01:30:51 | 00:00:00 | |
| DL4BBY-15 | 2026-09-04 18:00:40 | 49.78365 | 8.76151 | 59° | 11km/h | 21041m | 4.9m/s | -54.8°C | 0% | 0hPa | 2.7V | 00:00:00 | 00:00:00 | 00:00:00 | |
| CB1BUN | 2026-09-04 18:00:39 | 49.78364 | 8.76151 | 60° | 22km/h | 21040m | 4.9m/s | -53.9°C | 1.1% | 49.7hPa | 2.7V | 03:48:00 | 00:00:00 | 00:00:00 | |
| DB0ND-19 | 2026-09-04 18:00:38 | 49.78358 | 8.76137 | 48° | 20km/h | 21031m | 3.9m/s | -53.9°C | 1.1% | 49.7hPa | 2.7V | 00:00:00 | 00:00:00 | 00:00:00 | |
| DL1XH-15 | 2026-09-04 18:00:37 | 49.78346 | 8.76118 | 20° | 7km/h | 21009m | 4.3m/s | -53.8°C | 4% | 49.9hPa | 2.7V | 03:48:09 | 01:30:43 | 00:00:00 | |
| DJ2DS-15 | 2026-09-04 18:00:36 | 49.78350 | 8.76122 | 48° | 9km/h | 21017m | 4.9m/s | -53.8°C | 1.1% | 49.8hPa | 2.7V | 00:00:00 | 00:00:00 | 00:00:00 | |
| DD1CC8 | 2026-09-04 18:00:35 | 49.78350 | 8.76122 | 48° | 9km/h | 21017m | 4.9m/s | -53.8°C | 1.1% | 49.8hPa | 2.7V | 00:00:00 | 00:00:00 | 00:00:00 | |
| DO3MHA-11 | 2026-09-04 18:00:34 | 49.78348 | 8.76120 | 40° | 13km/h | 21013m | 3.6m/s | -53.7°C | 4.0% | 49.8hPa | 2.7V | 03:48:00 | 01:30:44 | 00:00:00 | |
| DJ2DS-15 | 2026-09-04 18:00:33 | 49.78346 | 8.76118 | 21° | 11km/h | 21009m | 4.2m/s | -53.7°C | 4.0% | 49.9hPa | 2.7V | 00:00:00 | 01:30:43 | 00:00:00 | |
| DL1XH1-15 | 2026-09-04 18:00:32 | 49.78328 | 8.76110 | 44° | 15km/h | 20980m | 4.2m/s | -53.8°C | 4.1% | 50.1hPa | 2.7V | 03:48:15 | 01:30:37 | 00:00:00 | |
| BIOWL1-15 | 2026-09-04 18:00:30 | 49.78337 | 8.76116 | 7° | 16km/h | 20994m | 4.6m/s | -53.9°C | 0.6% | 50hPa | 2.6V | 03:48:46 | 01:30:40 | 00:00:00 | |
| DM0DOS-11 | 2026-09-04 18:00:29 | 49.78330 | 8.76113 | 28° | 15km/h | 20985m | 5.1m/s | -53.8°C | 4.1% | 50.1hPa | 2.7V | 03:48:14 | 01:30:38 | 00:00:00 | |
| DB0UT-7 | 2026-09-04 18:00:29 | 49.78334 | 8.76115 | 14° | 9km/h | 20990m | 4.9m/s | -53.8°C | 4.0% | 50.0hPa | 2.7V | 00:00:00 | 01:30:39 | 00:00:00 | |
| DO3DL | 2026-09-04 18:00:28 | 49.78334 | 8.76115 | 15° | 15km/h | 20990m | 5.0m/s | -53.8°C | 1.1% | 50.0hPa | 2.7V | 03:48:00 | 00:00:00 | 00:00:00 | |
| DM7RM-13 | 2026-09-04 18:00:27 | 49.78327 | 8.76110 | 46° | 15km/h | 20980m | 4.2m/s | -53.8°C | 1.2% | 50.1hPa | 2.7V | 03:48:00 | 00:00:00 | 00:00:00 | |
| DF1GD-15 | 2026-09-04 18:00:25 | 49.78322 | 8.76100 | 53° | 18km/h | 20972m | 5.3m/s | -53.8°C | 1.1% | 50.2hPa | 2.7V | 03:48:00 | 00:00:00 | 00:00:00 | |
| DO3MHA-11 | 2026-09-04 18:00:24 | 49.78319 | 8.76095 | 51° | 7km/h | 20967m | 4.5m/s | -53.7°C | 4.0% | 50.2hPa | 2.7V | 00:00:00 | 01:30:34 | 00:00:00 | |
| DL1XH-15 | 2026-09-04 18:00:23 | 49.78311 | 8.76079 | 359° | 5km/h | 20937m | 4.9m/s | -53.8°C | 4% | 50.5hPa | 2.7V | 03:48:24 | 01:30:28 | 00:00:00 | |
| NBG1-10 | 2026-09-04 18:00:23 | 49.78317 | 8.76090 | 52° | 9km/h | 20963m | 3.3m/s | -53.7°C | 4.0% | 50.2hPa | 2.7V | 00:00:00 | 01:30:33 | 00:00:00 | |
| DL1XH1-15 | 2026-09-04 18:00:22 | 49.78305 | 8.76068 | 72° | 15km/h | 20908m | 5.6m/s | -53.8°C | 3.9% | 50.7hPa | 2.6V | 03:48:30 | 01:30:22 | 00:00:00 | |
| BIOWL1-15 | 2026-09-04 18:00:20 | 49.78313 | 8.76081 | 57° | 4km/h | 20947m | 4.4m/s | -53.7°C | 0.4% | 50.4hPa | 2.6V | 03:48:46 | 01:30:30 | 00:00:00 | |
| HSKMA3-T | 2026-09-04 18:00:19 | 49.78312 | 8.76080 | 19° | 4km/h | 20943m | 5.6m/s | -53.8°C | 0.6% | 50.4hPa | 2.7V | 03:48:46 | 01:30:29 | 00:00:00 | |
| AM1SDL-15 | 2026-09-04 18:00:18 | 49.78311 | 8.76079 | 360° | 11km/h | 20937m | 4.9m/s | -53.8°C | 4.0% | 50.4hPa | 2.7V | 00:00:00 | 01:30:28 | 00:00:00 | |
| DJTTGO | 2026-09-04 18:00:16 | 49.78308 | 8.76079 | 14° | 5km/h | 20929m | 4.4m/s | -53.8°C | 1.1% | 50.5hPa | 2.6V | 00:00:00 | 00:00:00 | 00:00:00 | |
| DO3DL | 2026-09-04 18:00:15 | 49.78308 | 8.76079 | 14° | 5km/h | 20929m | 4.4m/s | -53.8°C | 1.1% | 50.5hPa | 2.6V | 03:48:00 | 00:00:00 | 00:00:00 | |
| DK5PH-5 | 2026-09-04 18:00:14 | 49.78306 | 8.76076 | 78° | 9km/h | 20918m | 5.0m/s | -53.8°C | 3.9% | 50.6hPa | 2.6V | 00:00:00 | 01:30:24 | 00:00:00 | |
| DL1XH-15 | 2026-09-04 18:00:13 | 49.78303 | 8.76043 | 134° | 7km/h | 20886m | 4.8m/s | -53.9°C | 3.9% | 50.9hPa | 2.6V | 03:48:35 | 01:30:17 | 00:00:00 | |
| BIOWL1-15 | 2026-09-04 18:00:11 | 49.78302 | 8.76051 | 85° | 13km/h | 20896m | 4.7m/s | -53.7°C | 0.5% | 50.8hPa | 2.7V | 03:48:46 | 01:30:19 | 00:00:00 | |
| DM0DOS-11 | 2026-09-04 18:00:09 | 49.78302 | 8.76046 | 103° | 11km/h | 20891m | 5.2m/s | -53.8°C | 3.9% | 50.8hPa | 2.7V | 03:48:34 | 01:30:18 | 00:00:00 | |
| HSKMA3-T | 2026-09-04 18:00:08 | 49.78302 | 8.76046 | 104° | 11km/h | 20891m | 5.2m/s | -53.8°C | 0.5% | 50.8hPa | 2.7V | 03:48:46 | 01:30:18 | 00:00:00 | |
| DL4BBY-15 | 2026-09-04 18:00:08 | 49.78302 | 8.76046 | 104° | 13km/h | 20891m | 5.2m/s | -54.7°C | 0% | 0hPa | 2.6V | 00:00:00 | 00:00:00 | 00:00:00 | |
| DL3AQ-11 | 2026-09-04 18:00:07 | 49.78305 | 8.76042 | 165° | 5km/h | 20882m | 4.1m/s | -53.9°C | 1.1% | 50.9hPa | 2.6V | 00:00:00 | 00:00:00 | 00:00:00 | |
| DM7RM-13 | 2026-09-04 18:00:05 | 49.78305 | 8.76042 | 166° | 7km/h | 20882m | 4.1m/s | -53.9°C | 1.1% | 50.9hPa | 2.6V | 03:48:00 | 00:00:00 | 00:00:00 | |
| DL1XH1-15 | 2026-09-04 18:00:04 | 49.78307 | 8.76030 | 129° | 9km/h | 20842m | 4.3m/s | -54.2°C | 4.1% | 51.2hPa | 2.6V | 03:48:45 | 01:30:07 | 00:00:00 | |
| DF1GD-15 | 2026-09-04 18:00:04 | 49.78307 | 8.76041 | 188° | 2km/h | 20874m | 4.7m/s | -54.0°C | 1.1% | 51.0hPa | 2.6V | 03:48:00 | 00:00:00 | 00:00:00 | |
| DM0DOS-11 | 2026-09-04 18:00:03 | 49.78305 | 8.76032 | 128° | 7km/h | 20846m | 4.6m/s | -54.2°C | 4.1% | 51.2hPa | 2.6V | 03:48:44 | 01:30:08 | 00:00:00 | |
| BIOWL1-15 | 2026-09-04 17:59:59 | 49.78305 | 8.76035 | 103° | 5km/h | 20851m | 5m/s | -54.2°C | 0.6% | 51.1hPa | 2.7V | 03:48:46 | 01:30:09 | 00:00:00 | |
| HSKMA3-T | 2026-09-04 17:59:58 | 49.78306 | 8.76032 | 128° | 7km/h | 20846m | 4.6m/s | -54.2°C | 0.6% | 51.2hPa | 2.6V | 03:48:46 | 01:30:08 | 00:00:00 | |
| DL1XH-west | 2026-09-04 17:59:57 | 49.78307 | 8.76030 | 130° | 9km/h | 20842m | 4.4m/s | -54.2°C | 0.6% | 51.2hPa | 2.6V | 03:48:46 | 01:30:07 | 00:00:00 | |
| SONDE2-11 | 2026-09-04 17:59:55 | 49.78309 | 8.76023 | 103° | 11km/h | 20832m | 5.2m/s | -54.3°C | -1.0% | -1.0hPa | 2.7V | 00:00:00 | 00:00:00 | 00:00:00 | |
| DO1YAY-16 | 2026-09-04 17:59:53 | 49.78310 | 8.76014 | 96° | 9km/h | 20824m | 4.1m/s | -54.3°C | 1.1% | 51.4hPa | 2.7V | 00:00:00 | 00:00:00 | 00:00:00 | |
| DL1ZP-14 | 2026-09-04 17:59:52 | 49.78310 | 8.76011 | 112° | 7km/h | 20819m | 4.9m/s | -54.3°C | 1.1% | 51.4hPa | 2.7V | 00:00:00 | 00:00:00 | 00:00:00 | |
| DL0LBS | 2026-09-04 17:59:51 | 49.78310 | 8.76010 | 113° | 9km/h | 20819m | 4.9m/s | -54.3°C | 1.1% | 51.4hPa | 2.7V | 03:49:00 | 00:00:00 | 00:00:00 | |
| DM0DOS-11 | 2026-09-04 17:59:49 | 49.78316 | 8.76003 | 126° | 7km/h | 20801m | 5.1m/s | -54.4°C | 4% | 51.5hPa | 2.7V | 03:48:54 | 01:29:58 | 00:00:00 | |
| DL1XH1-15 | 2026-09-04 17:59:49 | 49.78318 | 8.75994 | 98° | 16km/h | 20792m | 4.1m/s | -54.3°C | 4% | 51.6hPa | 2.6V | 03:48:56 | 01:29:56 | 00:00:00 | |
| BIOWL1-15 | 2026-09-04 17:59:49 | 49.78315 | 8.76005 | 145° | 7km/h | 20806m | 3.9m/s | -54.4°C | 0.5% | 51.5hPa | 2.6V | 03:49:37 | 01:29:59 | 00:00:00 | |
| DL1XH-west | 2026-09-04 17:59:47 | 49.78317 | 8.75999 | 104° | 13km/h | 20796m | 4.3m/s | -54.4°C | 0.5% | 51.6hPa | 2.7V | 03:49:37 | 01:29:57 | 00:00:00 | |
| DM7RM-13 | 2026-09-04 17:59:45 | 49.78318 | 8.75994 | 99° | 16km/h | 20793m | 4.1m/s | -54.3°C | 1.1% | 51.6hPa | 2.6V | 03:49:00 | 00:00:00 | 00:00:00 | |
| DL1XH-15 | 2026-09-04 17:59:44 | 49.78334 | 8.75929 | 108° | 29km/h | 20759m | 4.2m/s | -54.4°C | 4% | 0hPa | 2.6V | 03:49:03 | 01:29:49 | 00:00:00 | |
| DK5PH-5 | 2026-09-04 17:59:44 | 49.78320 | 8.75979 | 110° | 24km/h | 20783m | 5.2m/s | -54.3°C | 4.0% | 51.7hPa | 2.7V | 00:00:00 | 01:29:54 | 00:00:00 | |
| DM0DOS-11 | 2026-09-04 17:59:43 | 49.78336 | 8.75919 | 110° | 27km/h | 20755m | 4m/s | -54.4°C | 4% | 51.9hPa | 2.7V | 03:49:04 | 01:29:48 | 00:00:00 | |
| BIOWL1-15 | 2026-09-04 17:59:41 | 49.78334 | 8.75929 | 108° | 29km/h | 20759m | 4.2m/s | -54.4°C | 0.5% | 51.9hPa | 2.6V | 03:49:37 | 01:29:49 | 00:00:00 | |
| AM1SDL-15 | 2026-09-04 17:59:40 | 49.78331 | 8.75940 | 111° | 22km/h | 20764m | 5.4m/s | -54.3°C | 4.0% | 51.8hPa | 2.6V | 00:00:00 | 01:29:50 | 00:00:00 | |
| DL1XH1-15 | 2026-09-04 17:59:39 | 49.78341 | 8.75902 | 123° | 22km/h | 20745m | 4.7m/s | -54.5°C | 4.1% | 52hPa | 2.6V | 03:49:06 | 01:29:46 | 00:00:00 | |
| DL1XH-west | 2026-09-04 17:59:37 | 49.78339 | 8.75910 | 115° | 24km/h | 20750m | 5m/s | -54.5°C | 0.6% | 52hPa | 2.7V | 03:49:37 | 01:29:47 | 00:00:00 | |
| DB0ND-19 | 2026-09-04 17:59:36 | 49.78341 | 8.75902 | 123° | 20km/h | 20746m | 4.7m/s | -54.6°C | 1.1% | 52.0hPa | 2.7V | 00:00:00 | 00:00:00 | 00:00:00 | |
| DL1XH-15 | 2026-09-04 17:59:34 | 49.78354 | 8.75850 | 105° | 24km/h | 20713m | 5.6m/s | -54.5°C | 4% | 0hPa | 2.7V | 03:49:13 | 01:29:39 | 00:00:00 | |
| DO3MHA-11 | 2026-09-04 17:59:34 | 49.78347 | 8.75890 | 123° | 24km/h | 20738m | 3.9m/s | -54.6°C | 4.1% | 52.0hPa | 2.7V | 00:00:00 | 01:29:44 | 00:00:00 | |
| DD1CC8 | 2026-09-04 17:59:33 | 49.78351 | 8.75876 | 102° | 20km/h | 20727m | 4.8m/s | -54.6°C | 1.1% | 52.2hPa | 2.7V | 00:00:00 | 00:00:00 | 00:00:00 | |
| BIOWL9-15 | 2026-09-04 17:59:32 | 49.78351 | 8.75876 | 102° | 20km/h | 20727m | 4.8m/s | -54.6°C | -1.0% | -1.0hPa | 2.7V | 00:00:00 | 00:00:00 | 00:00:00 | |
| DF2AP-13 | 2026-09-04 17:59:31 | 49.78352 | 8.75868 | 99° | 20km/h | 20723m | 4.3m/s | -54.6°C | 4.1% | 52.1hPa | 2.7V | 00:00:00 | 01:29:41 | 00:00:00 | |
| DL0LBS | 2026-09-04 17:59:30 | 49.78351 | 8.75868 | 100° | 22km/h | 20723m | 4.4m/s | -54.6°C | 1.2% | 52.2hPa | 2.7V | 03:49:00 | 00:00:00 | 00:00:00 | |
| DM0DOS-11 | 2026-09-04 17:59:29 | 49.78356 | 8.75840 | 109° | 26km/h | 20708m | 4.4m/s | -54.5°C | 4% | 52.3hPa | 2.7V | 03:49:14 | 01:29:38 | 00:00:00 | |
| DL1XH1-15 | 2026-09-04 17:59:29 | 49.78360 | 8.75821 | 105° | 27km/h | 20700m | 5.1m/s | -54.5°C | 4% | 52.4hPa | 2.6V | 03:49:16 | 01:29:36 | 00:00:00 | |
| BIOWL1-15 | 2026-09-04 17:59:28 | 49.78356 | 8.75840 | 110° | 26km/h | 20708m | 4.4m/s | -54.5°C | 0.5% | 52.3hPa | 2.7V | 03:49:37 | 01:29:38 | 00:00:00 | |
| DL1XH-west | 2026-09-04 17:59:27 | 49.78358 | 8.75831 | 109° | 26km/h | 20704m | 3.7m/s | -54.5°C | 0.5% | 52.3hPa | 2.6V | 03:49:37 | 01:29:37 | 00:00:00 | |
| HSKMA3-T | 2026-09-04 17:59:26 | 49.78360 | 8.75821 | 106° | 27km/h | 20700m | 5.1m/s | -54.5°C | 0.5% | 52.4hPa | 2.6V | 03:49:37 | 01:29:36 | 00:00:00 | |
| DL1XH-15 | 2026-09-04 17:59:24 | 49.78369 | 8.75764 | 99° | 18km/h | 20668m | 5m/s | -54.8°C | 0% | 0hPa | 2.7V | 03:49:23 | 01:29:29 | 00:00:00 | |
| DO3MHA-11 | 2026-09-04 17:59:24 | 49.78363 | 8.75801 | 100° | 20km/h | 20690m | 3.8m/s | -54.5°C | 4.0% | 52.4hPa | 2.7V | 00:00:00 | 01:29:34 | 00:00:00 | |
| DM0DOS-11 | 2026-09-04 17:59:23 | 49.78369 | 8.75757 | 86° | 18km/h | 20662m | 5.5m/s | -54.9°C | 4.1% | 52.6hPa | 2.7V | 03:49:24 | 01:29:28 | 00:00:00 | |
| DO1YAY-16 | 2026-09-04 17:59:22 | 49.78365 | 8.75784 | 106° | 18km/h | 20681m | 5.5m/s | -54.7°C | 1.1% | 52.5hPa | 2.6V | 00:00:00 | 00:00:00 | 00:00:00 | |
| DL1ZP-14 | 2026-09-04 17:59:21 | 49.78367 | 8.75777 | 110° | 16km/h | 20676m | 4.3m/s | -54.8°C | 1.1% | 52.5hPa | 2.6V | 00:00:00 | 00:00:00 | 00:00:00 | |
| DB0UT-9 | 2026-09-04 17:59:20 | 49.78366 | 8.75777 | 112° | 18km/h | 20676m | 4.3m/s | -54.8°C | 1.2% | 52.6hPa | 2.6V | 03:49:00 | 00:00:00 | 00:00:00 | |
| DL1XH1-15 | 2026-09-04 17:59:19 | 49.78368 | 8.75741 | 82° | 22km/h | 20653m | 4.5m/s | -55°C | 4.1% | 52.7hPa | 2.6V | 03:49:26 | 01:29:26 | 00:00:00 | |
| BIOWL1-15 | 2026-09-04 17:59:17 | 49.78369 | 8.75749 | 82° | 22km/h | 20657m | 4.3m/s | -54.9°C | 0.6% | 52.7hPa | 2.6V | 03:49:37 | 01:29:27 | 00:00:00 | |
| HSKMA3-T | 2026-09-04 17:59:16 | 49.78368 | 8.75741 | 83° | 22km/h | 20653m | 4.5m/s | -55.1°C | 0.5% | 52.8hPa | 2.6V | 03:49:37 | 01:29:26 | 00:00:00 | |
| DF8AY | 2026-09-04 17:59:12 | 49.78370 | 8.75707 | 98° | 24km/h | 20635m | 4.6m/s | 0°C | 0% | 0hPa | 2.6V | 18:12:15 | 01:29:22 | 00:00:00 | |
| DM0DOS-11 | 2026-09-04 17:59:10 | 49.78372 | 8.75672 | 102° | 16km/h | 20617m | 5.8m/s | -55.2°C | 4.3% | 53hPa | 2.6V | 03:49:34 | 01:29:18 | 00:00:00 | |
| DL1XH1-15 | 2026-09-04 17:59:09 | 49.78374 | 8.75663 | 99° | 11km/h | 20608m | 3.8m/s | -55.2°C | 4.2% | 53.1hPa | 2.6V | 03:49:36 | 01:29:16 | 00:00:00 | |
| DL1XH-west | 2026-09-04 17:59:06 | 49.78374 | 8.75663 | 100° | 11km/h | 20608m | 3.8m/s | -55.2°C | 0.6% | 53.1hPa | 2.6V | 03:49:37 | 01:29:16 | 00:00:00 | |
| HSKMA3-T | 2026-09-04 17:59:05 | 49.78374 | 8.75659 | 83° | 11km/h | 20603m | 5.1m/s | -55.2°C | 0.6% | 53.2hPa | 2.7V | 03:49:37 | 01:29:15 | 00:00:00 | |
| DM0DOS-11 | 2026-09-04 17:59:03 | 49.78370 | 8.75620 | 89° | 20km/h | 20570m | 5.1m/s | -55°C | 4.2% | 53.5hPa | 2.6V | 03:49:44 | 01:29:08 | 00:00:00 | |
| DF8AY | 2026-09-04 17:58:59 | 49.78370 | 8.75627 | 89° | 18km/h | 20575m | 4.6m/s | 0°C | 0% | 0hPa | 2.7V | 18:12:15 | 01:29:09 | 00:00:00 | |
| DL1XH1-15 | 2026-09-04 17:58:59 | 49.78371 | 8.75605 | 102° | 20km/h | 20562m | 3.9m/s | -55°C | 4.1% | 53.5hPa | 2.6V | 03:49:46 | 01:29:06 | 00:00:00 | |
| DL1XH-west | 2026-09-04 17:58:55 | 49.78372 | 8.75598 | 114° | 18km/h | 20557m | 5.4m/s | -55°C | 0.5% | 53.6hPa | 2.7V | 03:50:28 | 01:29:05 | 00:00:00 | |
| HSKMA3-T | 2026-09-04 17:58:54 | 49.78374 | 8.75592 | 130° | 16km/h | 20552m | 4.7m/s | -55°C | 0.5% | 53.6hPa | 2.7V | 03:51:19 | 01:29:04 | 00:00:00 | |
| DO3MHA-11 | 2026-09-04 17:58:54 | 49.78374 | 8.75592 | 130° | 15km/h | 20552m | 4.7m/s | -54.9°C | 4.0% | 53.6hPa | 2.6V | 00:00:00 | 01:29:04 | 00:00:00 | |
| DM0DOS-11 | 2026-09-04 17:58:53 | 49.78384 | 8.75568 | 112° | 13km/h | 20525m | 5.2m/s | -55.1°C | 4.2% | 53.8hPa | 2.6V | 03:49:54 | 01:28:58 | 00:00:00 | |
| DO1YAY-16 | 2026-09-04 17:58:51 | 49.78381 | 8.75580 | 119° | 11km/h | 20539m | 5.0m/s | -55.0°C | 1.1% | 53.7hPa | 2.6V | 00:00:00 | 00:00:00 | 00:00:00 | |
| DL1ZP-14 | 2026-09-04 17:58:50 | 49.78383 | 8.75573 | 107° | 9km/h | 20530m | 4.4m/s | -55.0°C | 1.2% | 53.8hPa | 2.6V | 00:00:00 | 00:00:00 | 00:00:00 | |
| DL1XH1-15 | 2026-09-04 17:58:49 | 49.78387 | 8.75557 | 105° | 20km/h | 20516m | 4.5m/s | -55.2°C | 4.3% | 53.9hPa | 2.7V | 03:49:56 | 01:28:56 | 00:00:00 | |
| BIOWL1-15 | 2026-09-04 17:58:47 | 49.78388 | 8.75548 | 101° | 24km/h | 20511m | 5.5m/s | -55.3°C | 0.7% | 54hPa | 2.7V | 03:50:28 | 01:28:55 | 00:00:00 | |
| DL3AQ-11 | 2026-09-04 17:58:47 | 49.78387 | 8.75557 | 105° | 18km/h | 20516m | 4.5m/s | -55.2°C | 1.2% | 53.9hPa | 2.6V | 00:00:00 | 00:00:00 | 00:00:00 | |
| DF7PN | 2026-09-04 17:58:46 | 49.78388 | 8.75548 | 100° | 24km/h | 20511m | 5.5m/s | -55.3°C | 1.2% | 54.0hPa | 2.6V | 00:00:00 | 00:00:00 | 00:00:00 | |
| DL1XH-west | 2026-09-04 17:58:44 | 49.78389 | 8.75538 | 100° | 27km/h | 20506m | 4.2m/s | -55.2°C | 0.7% | 54hPa | 2.6V | 03:50:28 | 01:28:54 | 00:00:00 | |
| DL1XH-15 | 2026-09-04 17:58:44 | 49.78402 | 8.75494 | 131° | 18km/h | 20485m | 4.4m/s | 0°C | 0% | 0hPa | 2.6V | 03:50:03 | 01:28:49 | 00:00:00 | |
| DK5PH-5 | 2026-09-04 17:58:44 | 49.78389 | 8.75538 | 100° | 22km/h | 20506m | 4.1m/s | -55.2°C | 4.3% | 53.9hPa | 2.7V | 03:49:00 | 01:28:54 | 00:00:00 | |
| DM7RM-13 | 2026-09-04 17:58:43 | 49.78389 | 8.75538 | 101° | 27km/h | 20506m | 4.2m/s | -55.2°C | 1.3% | 54.0hPa | 2.7V | 03:50:00 | 00:00:00 | 00:00:00 | |
| AM1SDL-15 | 2026-09-04 17:58:40 | 49.78399 | 8.75500 | 130° | 20km/h | 20490m | 3.8m/s | -55.3°C | 4.3% | 54.1hPa | 2.7V | 00:00:00 | 01:28:50 | 00:00:00 | |
| DL1XH1-15 | 2026-09-04 17:58:39 | 49.78409 | 8.75479 | 113° | 15km/h | 20471m | 4.1m/s | -55.2°C | 4.2% | 54.3hPa | 2.7V | 03:50:06 | 01:28:46 | 00:00:00 | |
| HSKMA3-T | 2026-09-04 17:58:39 | 49.78402 | 8.75494 | 132° | 18km/h | 20485m | 4.4m/s | -55.3°C | 0.7% | 54.2hPa | 2.6V | 03:51:19 | 01:28:49 | 00:00:00 | |
| DL4BBY-15 | 2026-09-04 17:58:38 | 49.78405 | 8.75489 | 129° | 20km/h | 20480m | 5.0m/s | -56.2°C | 0% | 0hPa | 2.6V | 00:00:00 | 00:00:00 | 00:00:00 | |
| DO3DL | 2026-09-04 17:58:37 | 49.78405 | 8.75489 | 129° | 16km/h | 20481m | 5.1m/s | -55.3°C | 1.2% | 54.2hPa | 2.6V | 03:50:00 | 00:00:00 | 00:00:00 | |
| NBG1-10 | 2026-09-04 17:58:36 | 49.78409 | 8.75479 | 114° | 22km/h | 20471m | 4.0m/s | -55.1°C | 4.2% | 54.2hPa | 2.6V | 00:00:00 | 01:28:46 | 00:00:00 | |
| DL3AQ-11 | 2026-09-04 17:58:35 | 49.78410 | 8.75474 | 114° | 15km/h | 20467m | 3.7m/s | -55.1°C | 1.2% | 54.3hPa | 2.6V | 00:00:00 | 00:00:00 | 00:00:00 | |
| DL1XH-15 | 2026-09-04 17:58:34 | 49.78429 | 8.75435 | 118° | 22km/h | 20439m | 4.6m/s | 0°C | 0% | 0hPa | 2.6V | 03:50:13 | 01:28:39 | 00:00:00 | |
| BIOWL1-15 | 2026-09-04 17:58:34 | 49.78412 | 8.75468 | 122° | 18km/h | 20463m | 4.9m/s | -55.1°C | 0.6% | 54.4hPa | 2.6V | 03:50:28 | 01:28:44 | 00:00:00 | |
| DO3MHA-11 | 2026-09-04 17:58:34 | 49.78412 | 8.75468 | 122° | 22km/h | 20463m | 4.9m/s | -55.0°C | 4.2% | 54.3hPa | 2.6V | 03:50:00 | 01:28:44 | 00:00:00 | |
| DM0DOS-11 | 2026-09-04 17:58:33 | 49.78431 | 8.75427 | 117° | 24km/h | 20435m | 4m/s | -54.9°C | 4.2% | 54.6hPa | 2.6V | 03:50:14 | 01:28:38 | 00:00:00 | |
| DJ2DS-15 | 2026-09-04 17:58:33 | 49.78415 | 8.75462 | 129° | 22km/h | 20458m | 5.2m/s | -55.0°C | 4.2% | 54.4hPa | 2.6V | 00:00:00 | 01:28:43 | 00:00:00 | |
| SFWM-10 | 2026-09-04 17:58:32 | 49.78415 | 8.75462 | 130° | 20km/h | 20458m | 5.2m/s | -55.0°C | 1.1% | 54.4hPa | 2.7V | 00:00:00 | 00:00:00 | 00:00:00 | |
| DF2AP-13 | 2026-09-04 17:58:31 | 49.78422 | 8.75449 | 131° | 24km/h | 20449m | 4.0m/s | -54.9°C | 4.2% | 54.5hPa | 2.7V | 03:50:00 | 01:28:41 | 00:00:00 | |
| DO3DL | 2026-09-04 17:58:30 | 49.78422 | 8.75449 | 131° | 24km/h | 20449m | 4.0m/s | -55.0°C | 1.2% | 54.5hPa | 2.7V | 03:50:00 | 00:00:00 | 00:00:00 | |
| DL1XH1-15 | 2026-09-04 17:58:29 | 49.78437 | 8.75411 | 125° | 24km/h | 20425m | 4.8m/s | -54.9°C | 4.2% | 54.7hPa | 2.7V | 03:50:16 | 01:28:36 | 00:00:00 | |
| HSKMA3-T | 2026-09-04 17:58:27 | 49.78434 | 8.75419 | 121° | 24km/h | 20430m | 5.5m/s | -54.9°C | 0.6% | 54.6hPa | 2.7V | 03:51:19 | 01:28:37 | 00:00:00 | |
| DJ2KF-10 | 2026-09-04 17:58:27 | 49.78434 | 8.75419 | 122° | 24km/h | 20430m | 5.5m/s | -54.8°C | 4.2% | 54.6hPa | 2.6V | 00:00:00 | 01:28:37 | 00:00:00 | |
| DL9PN | 2026-09-04 17:58:25 | 49.78441 | 8.75404 | 122° | 22km/h | 20421m | 3.6m/s | -54.8°C | 1.2% | 54.7hPa | 2.6V | 00:00:00 | 00:00:00 | 00:00:00 | |
| DL1XH-15 | 2026-09-04 17:58:24 | 49.78452 | 8.75351 | 113° | 24km/h | 20394m | 4.7m/s | 0°C | 0% | 0hPa | 2.6V | 03:50:23 | 01:28:29 | 00:00:00 | |
| DO3MHA-11 | 2026-09-04 17:58:24 | 49.78443 | 8.75396 | 116° | 24km/h | 20417m | 4.3m/s | -54.8°C | 4.2% | 54.7hPa | 2.6V | 00:00:00 | 01:28:34 | 00:00:00 | |
| DM0DOS-11 | 2026-09-04 17:58:23 | 49.78455 | 8.75343 | 119° | 24km/h | 20389m | 4m/s | -54.9°C | 4.2% | 55hPa | 2.6V | 03:50:24 | 01:28:28 | 00:00:00 | |
| BIOWL1-15 | 2026-09-04 17:58:23 | 49.78446 | 8.75388 | 108° | 24km/h | 20412m | 5.5m/s | -54.8°C | 0.7% | 54.8hPa | 2.6V | 03:50:28 | 01:28:33 | 00:00:00 | |
| DC4HF-4 | 2026-09-04 17:58:21 | 49.78448 | 8.75369 | 101° | 24km/h | 20403m | 3.9m/s | -54.9°C | 1.2% | 54.9hPa | 2.7V | 00:00:00 | 00:00:00 | 00:00:00 | |
| DL1XH1-15 | 2026-09-04 17:58:20 | 49.78460 | 8.75328 | 113° | 22km/h | 20380m | 5.1m/s | -54.8°C | 4.2% | 55.1hPa | 2.7V | 03:50:26 | 01:28:26 | 00:00:00 | |
| HSKMA3-T | 2026-09-04 17:58:16 | 49.78460 | 8.75328 | 114° | 22km/h | 20380m | 5.1m/s | -54.8°C | 0.6% | 55.1hPa | 2.7V | 03:51:19 | 01:28:26 | 00:00:00 | |
| DF7PN | 2026-09-04 17:58:15 | 49.78462 | 8.75320 | 107° | 20km/h | 20376m | 4.8m/s | -54.8°C | 1.2% | 55.1hPa | 2.6V | 00:00:00 | 00:00:00 | 00:00:00 | |
| DL1XH-15 | 2026-09-04 17:58:14 | 49.78472 | 8.75278 | 110° | 20km/h | 20348m | 4.9m/s | 0°C | 0% | 0hPa | 2.6V | 03:50:33 | 01:28:19 | 00:00:00 | |
| DK5PH-5 | 2026-09-04 17:58:14 | 49.78463 | 8.75312 | 105° | 20km/h | 20371m | 4.4m/s | -54.7°C | 4.2% | 55.1hPa | 2.6V | 00:00:00 | 01:28:24 | 00:00:00 | |
| DM0DOS-11 | 2026-09-04 17:58:13 | 49.78474 | 8.75270 | 105° | 24km/h | 20343m | 4.8m/s | -54.5°C | 4.1% | 55.4hPa | 2.6V | 03:50:34 | 01:28:18 | 00:00:00 | |
| DL1XH-west | 2026-09-04 17:58:12 | 49.78466 | 8.75297 | 112° | 18km/h | 20362m | 5.4m/s | -54.7°C | 0.6% | 55.2hPa | 2.7V | 03:51:19 | 01:28:22 | 00:00:00 | |
| DO3DL | 2026-09-04 17:58:11 | 49.78466 | 8.75297 | 113° | 18km/h | 20362m | 5.4m/s | -54.7°C | 1.2% | 55.2hPa | 2.7V | 03:51:00 | 00:00:00 | 00:00:00 | |
| DH7VM-15 | 2026-09-04 17:58:10 | 49.78468 | 8.75291 | 119° | 18km/h | 20357m | 4.9m/s | -54.6°C | 1.2% | 55.3hPa | 2.7V | 00:00:00 | 00:00:00 | 00:00:00 | |
| DL4BBY-15 | 2026-09-04 17:58:08 | 49.78473 | 8.75270 | 106° | 24km/h | 20344m | 4.7m/s | -55.4°C | 0% | 0hPa | 2.7V | 00:00:00 | 00:00:00 | 00:00:00 | |
| DL0LBS | 2026-09-04 17:58:07 | 49.78473 | 8.75270 | 106° | 24km/h | 20343m | 4.8m/s | -54.5°C | 1.2% | 55.4hPa | 2.7V | 03:51:00 | 00:00:00 | 00:00:00 | |
| DJTTGO | 2026-09-04 17:58:06 | 49.78475 | 8.75261 | 104° | 26km/h | 20339m | 4.5m/s | -54.5°C | 1.2% | 55.4hPa | 2.7V | 03:51:00 | 00:00:00 | 00:00:00 | |
| DO3DL | 2026-09-04 17:58:05 | 49.78477 | 8.75251 | 108° | 27km/h | 20334m | 5.1m/s | -54.4°C | 1.1% | 55.5hPa | 2.7V | 03:51:00 | 00:00:00 | 00:00:00 | |
| DL1XH-15 | 2026-09-04 17:58:04 | 49.78497 | 8.75181 | 117° | 22km/h | 20300m | 4.9m/s | 0°C | 0% | 0hPa | 2.7V | 03:50:43 | 01:28:09 | 00:00:00 | |
| DO3MHA-11 | 2026-09-04 17:58:04 | 49.78483 | 8.75229 | 117° | 24km/h | 20324m | 4.4m/s | -54.3°C | 4.1% | 55.5hPa | 2.7V | 00:00:00 | 01:28:14 | 00:00:00 | |
| DM0DOS-11 | 2026-09-04 17:58:03 | 49.78500 | 8.75174 | 125° | 20km/h | 20295m | 5.4m/s | -54.1°C | 4.1% | 55.8hPa | 2.7V | 03:50:44 | 01:28:08 | 00:00:00 | |
| DL1XH-west | 2026-09-04 17:58:02 | 49.78489 | 8.75208 | 115° | 29km/h | 20314m | 5.1m/s | -54.2°C | 0.5% | 55.6hPa | 2.6V | 03:51:19 | 01:28:12 | 00:00:00 | |
| HSKMA3-T | 2026-09-04 17:58:00 | 49.78495 | 8.75189 | 113° | 24km/h | 20305m | 3.9m/s | -54.2°C | 0.6% | 55.7hPa | 2.7V | 03:51:19 | 01:28:10 | 00:00:00 | |
| BIOWL1-15 | 2026-09-04 17:57:52 | 49.78515 | 8.75136 | 119° | 20km/h | 20268m | 5.1m/s | -54.1°C | 0.5% | 56hPa | 2.6V | 03:51:19 | 01:28:02 | 00:00:00 | |
| DL1XH-west | 2026-09-04 17:57:51 | 49.78518 | 8.75129 | 125° | 24km/h | 20262m | 5.4m/s | -54°C | 0.5% | 56.1hPa | 2.6V | 03:51:19 | 01:28:01 | 00:00:00 | |
| DM0DOS-11 | 2026-09-04 17:57:49 | 49.78529 | 8.75103 | 119° | 29km/h | 20248m | 5.7m/s | -54°C | 4% | 56.2hPa | 2.7V | 03:50:54 | 01:27:58 | 00:00:00 | |
| HSKMA3-T | 2026-09-04 17:57:45 | 49.78539 | 8.75074 | 119° | 27km/h | 20233m | 5.6m/s | -53.9°C | 0.5% | 56.3hPa | 2.6V | 03:51:19 | 01:27:55 | 00:00:00 | |
| BIOWL1-15 | 2026-09-04 17:57:41 | 49.78550 | 8.75044 | 112° | 18km/h | 20213m | 5.9m/s | -53.9°C | 0.5% | 56.5hPa | 2.7V | 03:51:19 | 01:27:51 | 00:00:00 | |
| DL1XH-west | 2026-09-04 17:57:40 | 49.78551 | 8.75038 | 107° | 18km/h | 20208m | 4.4m/s | -53.9°C | 0.5% | 56.6hPa | 2.6V | 03:51:19 | 01:27:50 | 00:00:00 | |
| DL3AQ-11 | 2026-09-04 17:57:39 | 49.78553 | 8.75031 | 111° | 18km/h | 20204m | 4.1m/s | -53.9°C | 1.1% | 56.6hPa | 2.6V | 00:00:00 | 00:00:00 | 00:00:00 | |
| DL4BBY-15 | 2026-09-04 17:57:38 | 49.78555 | 8.75024 | 119° | 27km/h | 20199m | 5.8m/s | -54.9°C | 0% | 0hPa | 2.6V | 00:00:00 | 00:00:00 | 00:00:00 | |
| KANTATE | 2026-09-04 17:57:35 | 49.78561 | 8.75010 | 124° | 26km/h | 20189m | 4.6m/s | -54.1°C | 1.1% | 56.7hPa | 2.6V | 03:51:00 | 00:00:00 | 00:00:00 | |
| DL1XH-15 | 2026-09-04 17:57:34 | 49.78579 | 8.74943 | 106° | 26km/h | 20153m | 5.1m/s | 0°C | 0% | 0hPa | 2.6V | 03:51:13 | 01:27:39 | 00:00:00 | |
| HSKMA3-T | 2026-09-04 17:57:34 | 49.78567 | 8.74992 | 112° | 27km/h | 20178m | 5.6m/s | -54.2°C | 0.6% | 56.8hPa | 2.6V | 03:51:19 | 01:27:44 | 00:00:00 | |
| BIOWL1-15 | 2026-09-04 17:57:31 | 49.78575 | 8.74962 | 113° | 27km/h | 20163m | 5.6m/s | -54.2°C | 0.6% | 57hPa | 2.7V | 03:51:19 | 01:27:41 | 00:00:00 | |
| DF2AP-13 | 2026-09-04 17:57:31 | 49.78575 | 8.74962 | 113° | 29km/h | 20163m | 5.6m/s | -54.1°C | 4.0% | 56.9hPa | 2.6V | 00:00:00 | 01:27:41 | 00:00:00 | |
| DL1XH1-15 | 2026-09-04 17:57:30 | 49.78580 | 8.74905 | 88° | 22km/h | 20132m | 5.4m/s | -54.4°C | 4.1% | 57.2hPa | 2.6V | 03:51:17 | 01:27:35 | 00:00:00 | |
| DL1XH-west | 2026-09-04 17:57:30 | 49.78577 | 8.74952 | 112° | 27km/h | 20158m | 4.5m/s | -54.2°C | 0.5% | 57hPa | 2.6V | 03:51:19 | 01:27:40 | 00:00:00 | |
| NBG1-10 | 2026-09-04 17:57:30 | 49.78577 | 8.74952 | 112° | 29km/h | 20158m | 4.5m/s | -54.2°C | 4.0% | 57.0hPa | 2.6V | 00:00:00 | 01:27:40 | 00:00:00 | |
| DD1CC8 | 2026-09-04 17:57:29 | 49.78581 | 8.74933 | 97° | 24km/h | 20147m | 6.2m/s | -54.3°C | 1.2% | 57.1hPa | 2.6V | 00:00:00 | 00:00:00 | 00:00:00 | |
| AM1SDL-15 | 2026-09-04 17:57:28 | 49.78581 | 8.74933 | 98° | 29km/h | 20147m | 6.2m/s | -54.2°C | 4.1% | 57.1hPa | 2.6V | 03:51:00 | 01:27:38 | 00:00:00 | |
| DL0LBS | 2026-09-04 17:57:27 | 49.78581 | 8.74933 | 98° | 26km/h | 20147m | 6.2m/s | -54.3°C | 1.2% | 57.1hPa | 2.6V | 03:51:00 | 00:00:00 | 00:00:00 | |
| DO3DL | 2026-09-04 17:57:26 | 49.78581 | 8.74923 | 89° | 24km/h | 20142m | 5.0m/s | -54.3°C | 1.1% | 57.2hPa | 2.6V | 03:51:00 | 00:00:00 | 00:00:00 | |
| SONCRA | 2026-09-04 17:57:25 | 49.78580 | 8.74905 | 88° | 22km/h | 20132m | 5.4m/s | -54.4°C | 1.2% | 57.2hPa | 2.6V | 00:00:00 | 00:00:00 | 00:00:00 | |
| DJTTGO | 2026-09-04 17:57:24 | 49.78580 | 8.74897 | 95° | 22km/h | 20127m | 5.6m/s | -54.5°C | 1.2% | 57.3hPa | 2.6V | 03:51:00 | 00:00:00 | 00:00:00 | |
| DM0DOS-11 | 2026-09-04 17:57:23 | 49.78582 | 8.74834 | 93° | 33km/h | 20095m | 6.2m/s | -54.2°C | 4.1% | 57.6hPa | 2.6V | 03:51:24 | 01:27:28 | 00:00:00 | |
| HSKMA3-T | 2026-09-04 17:57:23 | 49.78581 | 8.74888 | 97° | 22km/h | 20122m | 4.3m/s | -54.4°C | 0.6% | 57.3hPa | 2.6V | 03:51:19 | 01:27:33 | 00:00:00 | |
| BIOWL1-15 | 2026-09-04 17:57:20 | 49.78581 | 8.74858 | 87° | 29km/h | 20106m | 5.1m/s | -54.3°C | 0.6% | 57.5hPa | 2.7V | 03:52:10 | 01:27:30 | 00:00:00 | |
| DL1XH1-15 | 2026-09-04 17:57:19 | 49.78583 | 8.74794 | 91° | 35km/h | 20079m | 5.9m/s | -54.1°C | 4.2% | 57.7hPa | 2.7V | 03:51:27 | 01:27:25 | 00:00:00 | |
| DL1XH-west | 2026-09-04 17:57:19 | 49.78581 | 8.74847 | 90° | 31km/h | 20101m | 5.2m/s | -54.3°C | 0.5% | 57.5hPa | 2.6V | 03:52:10 | 01:27:29 | 00:00:00 | |
| DB0UT-9 | 2026-09-04 17:57:19 | 49.78581 | 8.74847 | 91° | 31km/h | 20101m | 5.2m/s | -54.3°C | 1.2% | 57.5hPa | 2.7V | 03:52:00 | 00:00:00 | 00:00:00 | |
| DF1GD-15 | 2026-09-04 17:57:18 | 49.78581 | 8.74847 | 91° | 31km/h | 20101m | 5.2m/s | -54.3°C | 1.2% | 57.5hPa | 2.7V | 03:52:00 | 00:00:00 | 00:00:00 | |
| DL1ZP-14 | 2026-09-04 17:57:17 | 49.78583 | 8.74807 | 94° | 35km/h | 20085m | 4.9m/s | -54.2°C | 1.2% | 57.7hPa | 2.7V | 00:00:00 | 00:00:00 | 00:00:00 | |
| KANTATE | 2026-09-04 17:57:15 | 49.78583 | 8.74807 | 95° | 35km/h | 20085m | 4.9m/s | -54.2°C | 1.2% | 57.7hPa | 2.6V | 03:52:00 | 00:00:00 | 00:00:00 | |
| DO3MHA-11 | 2026-09-04 17:57:14 | 49.78583 | 8.74780 | 91° | 29km/h | 20074m | 4.6m/s | -54.0°C | 4.1% | 57.7hPa | 2.6V | 03:51:00 | 01:27:24 | 00:00:00 | |
| DM0DOS-11 | 2026-09-04 17:57:13 | 49.78591 | 8.74713 | 99° | 27km/h | 20044m | 6m/s | -54°C | 4% | 58hPa | 2.6V | 03:51:34 | 01:27:18 | 00:00:00 | |
| HSKMA3-T | 2026-09-04 17:57:13 | 49.78584 | 8.74767 | 93° | 33km/h | 20070m | 4.2m/s | -54.1°C | 0.6% | 57.8hPa | 2.6V | 03:53:52 | 01:27:23 | 00:00:00 | |
| DJ2DS-15 | 2026-09-04 17:57:13 | 49.78584 | 8.74767 | 93° | 31km/h | 20070m | 4.1m/s | -54.0°C | 4.1% | 57.8hPa | 2.7V | 00:00:00 | 01:27:23 | 00:00:00 | |
| DO2KSM | 2026-09-04 17:57:12 | 49.78584 | 8.74767 | 94° | 33km/h | 20070m | 4.2m/s | -54.1°C | 1.1% | 57.8hPa | 2.7V | 03:52:00 | 00:00:00 | 00:00:00 | |
| SFWM-10 | 2026-09-04 17:57:11 | 49.78584 | 8.74755 | 99° | 31km/h | 20065m | 5.6m/s | -54.1°C | 1.2% | 57.8hPa | 2.7V | 03:52:00 | 00:00:00 | 00:00:00 | |
| DL1XH1-15 | 2026-09-04 17:57:09 | 49.78592 | 8.74679 | 93° | 31km/h | 20029m | 4.8m/s | -53.9°C | 4% | 58.2hPa | 2.7V | 03:51:37 | 01:27:15 | 00:00:00 | |
| BIOWL1-15 | 2026-09-04 17:57:09 | 49.78590 | 8.74723 | 104° | 27km/h | 20049m | 4.8m/s | -54°C | 0.6% | 58hPa | 2.6V | 03:52:10 | 01:27:19 | 00:00:00 | |
| DL1XH-west | 2026-09-04 17:57:08 | 49.78591 | 8.74713 | 99° | 27km/h | 20044m | 6m/s | -54°C | 0.5% | 58hPa | 2.6V | 03:52:10 | 01:27:18 | 00:00:00 | |
| DK5PH-5 | 2026-09-04 17:57:08 | 49.78591 | 8.74713 | 100° | 31km/h | 20044m | 6.0m/s | -53.9°C | 4.0% | 58.0hPa | 2.6V | 00:00:00 | 01:27:18 | 00:00:00 | |
| AM1SDL-15 | 2026-09-04 17:57:07 | 49.78592 | 8.74702 | 94° | 31km/h | 20039m | 5.1m/s | -53.9°C | 4.0% | 58.0hPa | 2.6V | 00:00:00 | 01:27:17 | 00:00:00 | |
| DL0LBS | 2026-09-04 17:57:06 | 49.78592 | 8.74702 | 94° | 29km/h | 20039m | 5.2m/s | -54.0°C | 1.1% | 58.1hPa | 2.6V | 03:52:00 | 00:00:00 | 00:00:00 | |
| DO3DL | 2026-09-04 17:57:05 | 49.78592 | 8.74690 | 92° | 31km/h | 20034m | 4.1m/s | -53.9°C | 1.1% | 58.1hPa | 2.6V | 03:52:00 | 00:00:00 | 00:00:00 | |
| DO3MHA-11 | 2026-09-04 17:57:04 | 49.78593 | 8.74666 | 98° | 33km/h | 20024m | 5.9m/s | -53.9°C | 4.0% | 58.2hPa | 2.6V | 00:00:00 | 01:27:14 | 00:00:00 | |
| DM0DOS-11 | 2026-09-04 17:57:03 | 49.78603 | 8.74594 | 103° | 33km/h | 19993m | 5.2m/s | -53.8°C | 4% | 58.5hPa | 2.6V | 03:51:44 | 01:27:08 | 00:00:00 | |
| HSKMA3-T | 2026-09-04 17:57:02 | 49.78596 | 8.74641 | 103° | 33km/h | 20013m | 5.2m/s | -53.9°C | 0.5% | 58.3hPa | 2.6V | 03:53:52 | 01:27:12 | 00:00:00 | |
| DF2AP-13 | 2026-09-04 17:57:01 | 49.78598 | 8.74629 | 103° | 35km/h | 20007m | 5.9m/s | -53.9°C | 4.0% | 58.3hPa | 2.7V | 00:00:00 | 01:27:11 | 00:00:00 | |
| DL1XH1-15 | 2026-09-04 17:57:00 | 49.78610 | 8.74552 | 103° | 38km/h | 19977m | 4.8m/s | -53.7°C | 4% | 58.6hPa | 2.6V | 03:51:47 | 01:27:05 | 00:00:00 | |
| DL1XH-west | 2026-09-04 17:56:58 | 49.78603 | 8.74594 | 104° | 33km/h | 19993m | 5.2m/s | -53.8°C | 0.6% | 58.5hPa | 2.6V | 03:52:10 | 01:27:08 | 00:00:00 | |
| DD1CC8 | 2026-09-04 17:56:58 | 49.78605 | 8.74581 | 105° | 35km/h | 19988m | 5.8m/s | -53.8°C | 1.1% | 58.6hPa | 2.6V | 00:00:00 | 00:00:00 | 00:00:00 | |
| NBG1-10 | 2026-09-04 17:56:57 | 49.78605 | 8.74581 | 106° | 35km/h | 19988m | 5.7m/s | -53.7°C | 4.1% | 58.5hPa | 2.6V | 03:51:00 | 01:27:07 | 00:00:00 | |
| AM1SDL-15 | 2026-09-04 17:56:55 | 49.78610 | 8.74552 | 104° | 35km/h | 19977m | 4.8m/s | -53.6°C | 4.0% | 58.6hPa | 2.6V | 00:00:00 | 01:27:05 | 00:00:00 | |
| DO3MHA-11 | 2026-09-04 17:56:54 | 49.78612 | 8.74537 | 100° | 33km/h | 19972m | 5.6m/s | -53.6°C | 4.0% | 58.7hPa | 2.6V | 00:00:00 | 01:27:04 | 00:00:00 | |
| DM0DOS-11 | 2026-09-04 17:56:53 | 49.78621 | 8.74452 | 101° | 33km/h | 19942m | 4.6m/s | -53.5°C | 3.8% | 59hPa | 2.6V | 03:51:54 | 01:26:58 | 00:00:00 | |
| HSKMA3-T | 2026-09-04 17:56:52 | 49.78615 | 8.74508 | 96° | 37km/h | 19963m | 4.2m/s | -53.5°C | 0.4% | 58.8hPa | 2.6V | 03:53:52 | 01:27:02 | 00:00:00 | |
| BIOWL1-15 | 2026-09-04 17:56:48 | 49.78621 | 8.74452 | 101° | 33km/h | 19942m | 4.6m/s | -53.5°C | 0.4% | 59hPa | 2.6V | 03:52:10 | 01:26:58 | 00:00:00 | |
| DL1ZP-14 | 2026-09-04 17:56:46 | 49.78624 | 8.74419 | 95° | 24km/h | 19928m | 4.3m/s | -53.5°C | 1.1% | 59.1hPa | 2.6V | 00:00:00 | 00:00:00 | 00:00:00 | |
| DL1XH-15 | 2026-09-04 17:56:45 | 49.78634 | 8.74368 | 107° | 33km/h | 19903m | 5.5m/s | 0°C | 0% | 0hPa | 2.6V | 03:52:02 | 01:26:50 | 00:00:00 | |
| DO3MHA-11 | 2026-09-04 17:56:44 | 49.78625 | 8.74410 | 102° | 33km/h | 19923m | 4.8m/s | -53.4°C | 3.8% | 59.1hPa | 2.7V | 00:00:00 | 01:26:54 | 00:00:00 | |
| DM0DOS-11 | 2026-09-04 17:56:43 | 49.78638 | 8.74342 | 103° | 37km/h | 19893m | 4.4m/s | -53.5°C | 3.8% | 59.4hPa | 2.7V | 03:52:04 | 01:26:48 | 00:00:00 | |
| HSKMA3-T | 2026-09-04 17:56:41 | 49.78631 | 8.74379 | 111° | 31km/h | 19908m | 4.4m/s | -53.4°C | 0.4% | 59.3hPa | 2.6V | 03:53:52 | 01:26:51 | 00:00:00 | |
| BIOWL1-15 | 2026-09-04 17:56:40 | 49.78639 | 8.74342 | 104° | 37km/h | 19893m | 4.4m/s | -53.5°C | 0.4% | 59.4hPa | 2.7V | 03:52:10 | 01:26:48 | 00:00:00 | |
| DL1XH-west | 2026-09-04 17:56:37 | 49.78651 | 8.74230 | 104° | 33km/h | 19853m | 5.5m/s | -53.9°C | 0.4% | 59.8hPa | 2.7V | 03:53:01 | 01:26:40 | 00:00:00 | |
| DL4BBY-15 | 2026-09-04 17:56:36 | 49.78643 | 8.74313 | 105° | 37km/h | 19883m | 5.2m/s | -54.5°C | 0% | 0hPa | 2.6V | 00:00:00 | 00:00:00 | 00:00:00 | |
| DL3AQ-11 | 2026-09-04 17:56:35 | 49.78646 | 8.74298 | 102° | 38km/h | 19878m | 4.5m/s | -53.6°C | 1.1% | 59.5hPa | 2.6V | 00:00:00 | 00:00:00 | 00:00:00 | |
| DO3MHA-11 | 2026-09-04 17:56:34 | 49.78647 | 8.74283 | 99° | 35km/h | 19873m | 5.2m/s | -53.6°C | 3.8% | 59.5hPa | 2.6V | 03:52:00 | 01:26:44 | 00:00:00 | |
| DM0DOS-11 | 2026-09-04 17:56:33 | 49.78657 | 8.74205 | 110° | 35km/h | 19844m | 4m/s | -54°C | 3.9% | 59.9hPa | 2.6V | 03:52:14 | 01:26:38 | 00:00:00 | |
| DJ2DS-15 | 2026-09-04 17:56:33 | 49.78648 | 8.74269 | 95° | 38km/h | 19868m | 5.2m/s | -53.7°C | 3.9% | 59.6hPa | 2.6V | 00:00:00 | 01:26:43 | 00:00:00 | |
| BIOWL7-15 | 2026-09-04 17:56:32 | 49.78648 | 8.74269 | 96° | 37km/h | 19868m | 5.2m/s | -53.8°C | 1.1% | 59.7hPa | 2.7V | 03:52:00 | 00:00:00 | 00:00:00 | |
| DF2AP-13 | 2026-09-04 17:56:31 | 49.78650 | 8.74242 | 98° | 40km/h | 19858m | 4.9m/s | -53.8°C | 3.9% | 59.7hPa | 2.7V | 03:52:00 | 01:26:41 | 00:00:00 | |
| DB0ND-19 | 2026-09-04 17:56:30 | 49.78651 | 8.74230 | 103° | 31km/h | 19853m | 5.5m/s | -53.9°C | 1.1% | 59.8hPa | 2.7V | 00:00:00 | 00:00:00 | 00:00:00 | |
| SFWM-10 | 2026-09-04 17:56:29 | 49.78651 | 8.74230 | 105° | 33km/h | 19853m | 5.5m/s | -53.9°C | 1.1% | 59.8hPa | 2.7V | 00:00:00 | 00:00:00 | 00:00:00 | |
| DL1XH-15 | 2026-09-04 17:56:27 | 49.78662 | 8.74179 | 106° | 35km/h | 19834m | 4.8m/s | 0°C | 0% | 0hPa | 2.7V | 03:52:16 | 01:26:36 | 00:00:00 | |
| BIOWL1-15 | 2026-09-04 17:56:27 | 49.78660 | 8.74192 | 109° | 35km/h | 19839m | 5.5m/s | -54.1°C | 0.5% | 59.9hPa | 2.6V | 03:53:01 | 01:26:37 | 00:00:00 | |
| DL1XH-west | 2026-09-04 17:56:25 | 49.78683 | 8.74089 | 107° | 46km/h | 19806m | 4.7m/s | -54.4°C | 0.5% | 60.2hPa | 2.7V | 03:53:01 | 01:26:30 | 00:00:00 | |
| DO3MHA-11 | 2026-09-04 17:56:24 | 49.78668 | 8.74151 | 109° | 44km/h | 19825m | 4.5m/s | -54.3°C | 4.1% | 60.0hPa | 2.6V | 00:00:00 | 01:26:34 | 00:00:00 | |
| DM0DOS-11 | 2026-09-04 17:56:23 | 49.78688 | 8.74054 | 99° | 46km/h | 19796m | 4.2m/s | -54.4°C | 4.1% | 60.3hPa | 2.6V | 03:52:24 | 01:26:28 | 00:00:00 | |
| HSKMA3-T | 2026-09-04 17:56:19 | 49.78686 | 8.74072 | 103° | 46km/h | 19801m | 5.2m/s | -54.4°C | 0.6% | 60.2hPa | 2.6V | 03:53:52 | 01:26:29 | 00:00:00 | |
| BIOWL1-15 | 2026-09-04 17:56:17 | 49.78690 | 8.74037 | 100° | 44km/h | 19792m | 3.7m/s | -54.4°C | 0.6% | 60.4hPa | 2.6V | 03:53:01 | 01:26:27 | 00:00:00 | |
| DO1YAY-16 | 2026-09-04 17:56:16 | 49.78692 | 8.74020 | 103° | 42km/h | 19788m | 5.2m/s | -54.5°C | 1.2% | 60.4hPa | 2.6V | 00:00:00 | 00:00:00 | 00:00:00 | |
| DL1XH-15 | 2026-09-04 17:56:14 | 49.78709 | 8.73918 | 99° | 38km/h | 19753m | 5.2m/s | 0°C | 0% | 0hPa | 2.6V | 03:52:33 | 01:26:19 | 00:00:00 | |
| DO3MHA-11 | 2026-09-04 17:56:14 | 49.78698 | 8.73989 | 110° | 38km/h | 19778m | 4.5m/s | -54.4°C | 4.1% | 60.4hPa | 2.6V | 00:00:00 | 01:26:24 | 00:00:00 | |
| DM0DOS-11 | 2026-09-04 17:56:13 | 49.78710 | 8.73903 | 98° | 40km/h | 19749m | 4m/s | -54.2°C | 4.1% | 60.8hPa | 2.6V | 03:52:34 | 01:26:18 | 00:00:00 | |
| BIOWL1-15 | 2026-09-04 17:56:10 | 49.78712 | 8.73872 | 91° | 42km/h | 19740m | 5.2m/s | -54.2°C | 0.6% | 60.8hPa | 2.7V | 03:53:01 | 01:26:16 | 00:00:00 | |
| DL1XH-west | 2026-09-04 17:56:10 | 49.78707 | 8.73933 | 99° | 37km/h | 19758m | 4.3m/s | -54.3°C | 0.6% | 60.7hPa | 2.7V | 03:53:01 | 01:26:20 | 00:00:00 | |
| HSKMA3-T | 2026-09-04 17:56:08 | 49.78710 | 8.73903 | 99° | 40km/h | 19749m | 4m/s | -54.2°C | 0.6% | 60.8hPa | 2.6V | 03:53:52 | 01:26:18 | 00:00:00 | |
| DK5PH-5 | 2026-09-04 17:56:08 | 49.78710 | 8.73903 | 99° | 35km/h | 19749m | 4.0m/s | -54.2°C | 4.1% | 60.7hPa | 2.6V | 00:00:00 | 01:26:18 | 00:00:00 | |
| DL3AQ-11 | 2026-09-04 17:56:07 | 49.78712 | 8.73872 | 91° | 42km/h | 19740m | 5.2m/s | -54.2°C | 1.2% | 60.8hPa | 2.7V | 00:00:00 | 00:00:00 | 00:00:00 | |
| DL4BBY-15 | 2026-09-04 17:56:06 | 49.78712 | 8.73871 | 92° | 38km/h | 19740m | 5.2m/s | -55.1°C | 0% | 0hPa | 2.7V | 00:00:00 | 00:00:00 | 00:00:00 | |
| DL0LBS | 2026-09-04 17:56:05 | 49.78712 | 8.73871 | 92° | 42km/h | 19740m | 5.2m/s | -54.2°C | 1.2% | 60.8hPa | 2.7V | 03:53:00 | 00:00:00 | 00:00:00 | |
| DO3MHA-11 | 2026-09-04 17:56:04 | 49.78711 | 8.73837 | 89° | 33km/h | 19731m | 3.7m/s | -54.1°C | 4.1% | 60.9hPa | 2.7V | 00:00:00 | 01:26:14 | 00:00:00 | |
| DF2AP-13 | 2026-09-04 17:56:01 | 49.78712 | 8.73790 | 98° | 37km/h | 19717m | 4.1m/s | -53.9°C | 4.0% | 61.0hPa | 2.7V | 00:00:00 | 01:26:11 | 00:00:00 | |
| DJTTGO | 2026-09-04 17:56:00 | 49.78713 | 8.73790 | 98° | 37km/h | 19717m | 4.1m/s | -54.0°C | 1.1% | 61.1hPa | 2.7V | 00:00:00 | 00:00:00 | 00:00:00 | |
| DL1XH1-15 | 2026-09-04 17:55:59 | 49.78713 | 8.73710 | 84° | 31km/h | 19686m | 3.4m/s | -53.8°C | 3.9% | 61.4hPa | 2.7V | 03:52:48 | 01:26:04 | 00:00:00 | |
| DL1XH-west | 2026-09-04 17:55:59 | 49.78714 | 8.73764 | 93° | 31km/h | 19708m | 5.3m/s | -53.9°C | 0.5% | 61.1hPa | 2.7V | 03:53:01 | 01:26:09 | 00:00:00 | |
| DC4HF-4 | 2026-09-04 17:55:57 | 49.78714 | 8.73742 | 86° | 26km/h | 19699m | 3.9m/s | -53.9°C | 1.1% | 61.2hPa | 2.6V | 00:00:00 | 00:00:00 | 00:00:00 | |
| DM0DOS-11 | 2026-09-04 17:55:56 | 49.78712 | 8.73697 | 80° | 35km/h | 19682m | 4.5m/s | -53.8°C | 3.9% | 61.4hPa | 2.6V | 03:52:49 | 01:26:03 | 00:00:00 | |
| BIOWL1-15 | 2026-09-04 17:55:56 | 49.78714 | 8.73732 | 88° | 26km/h | 19695m | 5.2m/s | -53.8°C | 0.4% | 61.3hPa | 2.6V | 03:53:01 | 01:26:06 | 00:00:00 | |
| DL1XH-west | 2026-09-04 17:55:49 | 49.78702 | 8.73634 | 79° | 42km/h | 19664m | 4.7m/s | -53.8°C | 0.5% | 61.6hPa | 2.7V | 03:53:01 | 01:25:59 | 00:00:00 | |
| HSKMA3-T | 2026-09-04 17:55:48 | 49.78701 | 8.73618 | 86° | 38km/h | 19660m | 4.5m/s | -53.8°C | 0.5% | 61.6hPa | 2.7V | 03:53:52 | 01:25:58 | 00:00:00 | |
| DJ2DS-15 | 2026-09-04 17:55:47 | 49.78700 | 8.73604 | 89° | 33km/h | 19656m | 3.8m/s | -53.8°C | 1.1% | 61.6hPa | 2.6V | 00:00:00 | 00:00:00 | 00:00:00 | |
| DM0DOS-11 | 2026-09-04 17:55:46 | 49.78696 | 8.73541 | 78° | 31km/h | 19631m | 5.2m/s | -54.1°C | 4.1% | 61.9hPa | 2.6V | 03:53:01 | 01:25:51 | 00:00:00 | |
| DL1XH-west | 2026-09-04 17:55:46 | 49.78671 | 8.73346 | 73° | 31km/h | 19581m | 3.8m/s | -53.9°C | 0.6% | 62.4hPa | 2.6V | 03:53:52 | 01:25:39 | 00:00:00 | |
| BIOWL1-15 | 2026-09-04 17:55:45 | 49.78701 | 8.73582 | 89° | 26km/h | 19647m | 4.8m/s | -54°C | 0.5% | 61.7hPa | 2.6V | 03:53:01 | 01:25:55 | 00:00:00 | |
| DO1YAY-16 | 2026-09-04 17:55:45 | 49.78701 | 8.73582 | 89° | 26km/h | 19647m | 4.8m/s | -54.0°C | 1.1% | 61.7hPa | 2.6V | 00:00:00 | 00:00:00 | 00:00:00 | |
| DO3MHA-11 | 2026-09-04 17:55:44 | 49.78700 | 8.73572 | 82° | 38km/h | 19643m | 4.2m/s | -54.0°C | 4.0% | 61.8hPa | 2.6V | 00:00:00 | 01:25:54 | 00:00:00 | |
| AM1SDL-15 | 2026-09-04 17:55:43 | 49.78699 | 8.73563 | 77° | 37km/h | 19639m | 3.6m/s | -54.0°C | 4.1% | 61.8hPa | 2.6V | 03:52:00 | 01:25:53 | 00:00:00 | |
| DF3TZ-5 | 2026-09-04 17:55:41 | 49.78694 | 8.73528 | 80° | 38km/h | 19626m | 4.1m/s | -54.1°C | 1.2% | 62.0hPa | 2.6V | 00:00:00 | 00:00:00 | 00:00:00 | |
| DL3AQ-11 | 2026-09-04 17:55:40 | 49.78693 | 8.73512 | 79° | 44km/h | 19622m | 3.5m/s | -54.2°C | 1.2% | 62.0hPa | 2.6V | 00:00:00 | 00:00:00 | 00:00:00 | |
| DL1XH1-15 | 2026-09-04 17:55:39 | 49.78678 | 8.73419 | 80° | 47km/h | 19602m | 4.3m/s | -54°C | 4% | 62.2hPa | 2.6V | 03:53:08 | 01:25:44 | 00:00:00 | |
| DK5PH-5 | 2026-09-04 17:55:38 | 49.78690 | 8.73494 | 77° | 29km/h | 19618m | 4.9m/s | -54.1°C | 4.0% | 62.0hPa | 2.7V | 00:00:00 | 01:25:48 | 00:00:00 | |
| DM7RM-13 | 2026-09-04 17:55:37 | 49.78690 | 8.73494 | 78° | 47km/h | 19618m | 4.9m/s | -54.1°C | 1.2% | 62.0hPa | 2.7V | 03:53:00 | 00:00:00 | 00:00:00 | |
| DL1XH-15 | 2026-09-04 17:55:35 | 49.78673 | 8.73358 | 76° | 33km/h | 19586m | 4.8m/s | 0°C | 0% | 0hPa | 2.7V | 03:53:12 | 01:25:40 | 00:00:00 | |
| BIOWL1-15 | 2026-09-04 17:55:34 | 49.78678 | 8.73419 | 80° | 47km/h | 19602m | 4.3m/s | -54°C | 0.5% | 62.2hPa | 2.6V | 03:53:52 | 01:25:44 | 00:00:00 | |
| DO3MHA-11 | 2026-09-04 17:55:34 | 49.78678 | 8.73419 | 81° | 37km/h | 19602m | 4.2m/s | -54.0°C | 4.0% | 62.1hPa | 2.7V | 00:00:00 | 01:25:44 | 00:00:00 | |
| DM0DOS-11 | 2026-09-04 17:55:33 | 49.78675 | 8.73371 | 82° | 37km/h | 19590m | 4.5m/s | -54°C | 4% | 62.3hPa | 2.7V | 03:53:11 | 01:25:41 | 00:00:00 | |
| HSKMA3-T | 2026-09-04 17:55:31 | 49.78675 | 8.73371 | 83° | 37km/h | 19590m | 4.5m/s | -54°C | 0.5% | 62.3hPa | 2.7V | 03:53:52 | 01:25:41 | 00:00:00 | |
| DF2AP-13 | 2026-09-04 17:55:31 | 49.78675 | 8.73371 | 83° | 35km/h | 19590m | 4.4m/s | -53.9°C | 4.0% | 62.2hPa | 2.7V | 00:00:00 | 01:25:41 | 00:00:00 | |
| DL1XH1-15 | 2026-09-04 17:55:30 | 49.78660 | 8.73285 | 73° | 35km/h | 19561m | 4.9m/s | -53.9°C | 4% | 62.6hPa | 2.6V | 03:53:18 | 01:25:34 | 00:00:00 | |
| BIOWL1-15 | 2026-09-04 17:55:25 | 49.78658 | 8.73272 | 71° | 37km/h | 19556m | 4.3m/s | -53.9°C | 0.5% | 62.6hPa | 2.6V | 03:53:52 | 01:25:33 | 00:00:00 | |
| DO3MHA-11 | 2026-09-04 17:55:24 | 49.78660 | 8.73285 | 74° | 37km/h | 19561m | 4.8m/s | -53.9°C | 4.0% | 62.5hPa | 2.7V | 00:00:00 | 01:25:34 | 00:00:00 | |
| DM0DOS-11 | 2026-09-04 17:55:23 | 49.78651 | 8.73230 | 82° | 38km/h | 19543m | 4m/s | -53.8°C | 4% | 62.8hPa | 2.7V | 03:53:22 | 01:25:30 | 00:00:00 | |
| DB0UT-7 | 2026-09-04 17:55:23 | 49.78658 | 8.73272 | 72° | 33km/h | 19556m | 4.3m/s | -53.8°C | 3.9% | 62.6hPa | 2.6V | 03:53:00 | 01:25:33 | 00:00:00 | |
| SONCRA | 2026-09-04 17:55:21 | 49.78652 | 8.73244 | 76° | 37km/h | 19547m | 5.2m/s | -53.8°C | 1.1% | 62.7hPa | 2.6V | 00:00:00 | 00:00:00 | 00:00:00 | |
| DO3DL | 2026-09-04 17:55:20 | 49.78652 | 8.73244 | 78° | 37km/h | 19547m | 5.2m/s | -53.8°C | 1.1% | 62.7hPa | 2.6V | 03:53:00 | 00:00:00 | 00:00:00 | |
| DL1XH-west | 2026-09-04 17:55:19 | 49.78582 | 8.72963 | 59° | 27km/h | 19451m | 5.1m/s | -53.6°C | 0.6% | 63.7hPa | 2.6V | 03:53:52 | 01:25:08 | 00:00:00 | |
| DL1XH1-15 | 2026-09-04 17:55:19 | 49.78637 | 8.73150 | 70° | 33km/h | 19518m | 4.6m/s | -53.9°C | 4% | 63hPa | 2.6V | 03:53:28 | 01:25:24 | 00:00:00 | |
| AM1SDL-15 | 2026-09-04 17:55:19 | 49.78649 | 8.73215 | 82° | 35km/h | 19539m | 3.0m/s | -53.8°C | 4.0% | 62.8hPa | 2.6V | 00:00:00 | 01:25:29 | 00:00:00 | |
| NBG1-10 | 2026-09-04 17:55:18 | 49.78647 | 8.73201 | 79° | 31km/h | 19536m | 4.3m/s | -53.8°C | 4.0% | 62.8hPa | 2.6V | 00:00:00 | 01:25:28 | 00:00:00 | |
| DM7RM-13 | 2026-09-04 17:55:16 | 49.78645 | 8.73187 | 74° | 37km/h | 19531m | 4.7m/s | -53.8°C | 1.2% | 62.9hPa | 2.6V | 03:53:00 | 00:00:00 | 00:00:00 | |
| DL3AQ-11 | 2026-09-04 17:55:15 | 49.78639 | 8.73162 | 69° | 33km/h | 19522m | 4.3m/s | -53.9°C | 1.2% | 62.9hPa | 2.6V | 00:00:00 | 00:00:00 | 00:00:00 | |
| DL1XH-west | 2026-09-04 17:55:14 | 49.78578 | 8.72954 | 57° | 27km/h | 19446m | 3.9m/s | -53.6°C | 0.5% | 63.7hPa | 2.6V | 03:53:52 | 01:25:07 | 00:00:00 | |
| DO3MHA-11 | 2026-09-04 17:55:14 | 49.78636 | 8.73167 | 71° | 33km/h | 19518m | 4.5m/s | -53.8°C | 4.0% | 63.0hPa | 2.6V | 03:53:00 | 01:25:24 | 00:00:00 | |
| Es werden nur die letzten 3500 von 5385 Frames angezeigt. GPX/KML und Diagramme bleiben verfügbar. | |||||||||||||||